<?xml version="1.0" encoding="UTF-8" standalone="no" ?>
<gpx xmlns="http://www.topografix.com/GPX/1/1" xmlns:xsi="http://www.w3.org/2001/XMLSchema-instance" xsi:schemaLocation="http://www.topografix.com/GPX/1/1 http://www.topografix.com/GPX/1/1/gpx.xsd" version="1.1" creator="VisuGPX - https://www.visugpx.com">
  <metadata>
    <name>Mont Chery</name>
  </metadata>
  <trk>
    <name><![CDATA[Mont Chery_1]]></name>
    <trkseg>
      <trkpt lat="46.16562" lon="6.65845">
        <ele>1582</ele>
        <time>2022-07-31T07:37:34Z</time>
      </trkpt>
      <trkpt lat="46.16565" lon="6.65846">
        <ele>1589</ele>
        <time>2022-07-31T07:37:35Z</time>
      </trkpt>
      <trkpt lat="46.16566" lon="6.65843">
        <ele>1589</ele>
        <time>2022-07-31T07:37:36Z</time>
      </trkpt>
      <trkpt lat="46.16566" lon="6.65846">
        <ele>1589</ele>
        <time>2022-07-31T07:37:37Z</time>
      </trkpt>
      <trkpt lat="46.16568" lon="6.65854">
        <ele>1589</ele>
        <time>2022-07-31T07:37:38Z</time>
      </trkpt>
      <trkpt lat="46.16566" lon="6.65859">
        <ele>1589</ele>
        <time>2022-07-31T07:37:39Z</time>
      </trkpt>
      <trkpt lat="46.16565" lon="6.6586">
        <ele>1589</ele>
        <time>2022-07-31T07:37:40Z</time>
      </trkpt>
      <trkpt lat="46.16567" lon="6.6586">
        <ele>1589</ele>
        <time>2022-07-31T07:37:41Z</time>
      </trkpt>
      <trkpt lat="46.16566" lon="6.65861">
        <ele>1589</ele>
        <time>2022-07-31T07:37:42Z</time>
      </trkpt>
      <trkpt lat="46.16569" lon="6.65866">
        <ele>1589</ele>
        <time>2022-07-31T07:37:43Z</time>
      </trkpt>
      <trkpt lat="46.16569" lon="6.65867">
        <ele>1589</ele>
        <time>2022-07-31T07:37:44Z</time>
      </trkpt>
      <trkpt lat="46.16571" lon="6.65864">
        <ele>1589</ele>
        <time>2022-07-31T07:37:45Z</time>
      </trkpt>
      <trkpt lat="46.1657" lon="6.6586">
        <ele>1589</ele>
        <time>2022-07-31T07:37:46Z</time>
      </trkpt>
      <trkpt lat="46.16574" lon="6.65857">
        <ele>1589</ele>
        <time>2022-07-31T07:37:47Z</time>
      </trkpt>
      <trkpt lat="46.16571" lon="6.65858">
        <ele>1589</ele>
        <time>2022-07-31T07:37:48Z</time>
      </trkpt>
      <trkpt lat="46.16571" lon="6.65861">
        <ele>1589</ele>
        <time>2022-07-31T07:37:49Z</time>
      </trkpt>
      <trkpt lat="46.16573" lon="6.65859">
        <ele>1589</ele>
        <time>2022-07-31T07:37:50Z</time>
      </trkpt>
      <trkpt lat="46.16568" lon="6.65851">
        <ele>1589</ele>
        <time>2022-07-31T07:37:51Z</time>
      </trkpt>
      <trkpt lat="46.16567" lon="6.65854">
        <ele>1589</ele>
        <time>2022-07-31T07:37:52Z</time>
      </trkpt>
      <trkpt lat="46.1657" lon="6.65856">
        <ele>1589</ele>
        <time>2022-07-31T07:37:53Z</time>
      </trkpt>
      <trkpt lat="46.16571" lon="6.65857">
        <ele>1589</ele>
        <time>2022-07-31T07:37:54Z</time>
      </trkpt>
      <trkpt lat="46.16574" lon="6.65861">
        <ele>1589</ele>
        <time>2022-07-31T07:37:55Z</time>
      </trkpt>
      <trkpt lat="46.16574" lon="6.65862">
        <ele>1562</ele>
        <time>2022-07-31T07:37:56Z</time>
      </trkpt>
      <trkpt lat="46.16573" lon="6.65864">
        <ele>1541</ele>
        <time>2022-07-31T07:37:57Z</time>
      </trkpt>
      <trkpt lat="46.16573" lon="6.65865">
        <ele>1525</ele>
        <time>2022-07-31T07:37:58Z</time>
      </trkpt>
      <trkpt lat="46.16573" lon="6.65867">
        <ele>1513</ele>
        <time>2022-07-31T07:37:59Z</time>
      </trkpt>
      <trkpt lat="46.16574" lon="6.65867">
        <ele>1505</ele>
        <time>2022-07-31T07:38:00Z</time>
      </trkpt>
      <trkpt lat="46.16573" lon="6.65868">
        <ele>1498</ele>
        <time>2022-07-31T07:38:01Z</time>
      </trkpt>
      <trkpt lat="46.16571" lon="6.65868">
        <ele>1494</ele>
        <time>2022-07-31T07:38:02Z</time>
      </trkpt>
      <trkpt lat="46.16573" lon="6.6587">
        <ele>1490</ele>
        <time>2022-07-31T07:38:03Z</time>
      </trkpt>
      <trkpt lat="46.16573" lon="6.65872">
        <ele>1488</ele>
        <time>2022-07-31T07:38:04Z</time>
      </trkpt>
      <trkpt lat="46.16573" lon="6.65874">
        <ele>1486</ele>
        <time>2022-07-31T07:38:05Z</time>
      </trkpt>
      <trkpt lat="46.16573" lon="6.65876">
        <ele>1485</ele>
        <time>2022-07-31T07:38:06Z</time>
      </trkpt>
      <trkpt lat="46.16573" lon="6.65879">
        <ele>1484</ele>
        <time>2022-07-31T07:38:07Z</time>
      </trkpt>
      <trkpt lat="46.16573" lon="6.6588">
        <ele>1484</ele>
        <time>2022-07-31T07:38:08Z</time>
      </trkpt>
      <trkpt lat="46.16574" lon="6.65882">
        <ele>1483</ele>
        <time>2022-07-31T07:38:09Z</time>
      </trkpt>
      <trkpt lat="46.16574" lon="6.65883">
        <ele>1483</ele>
        <time>2022-07-31T07:38:10Z</time>
      </trkpt>
      <trkpt lat="46.16575" lon="6.65884">
        <ele>1483</ele>
        <time>2022-07-31T07:38:11Z</time>
      </trkpt>
      <trkpt lat="46.16575" lon="6.65885">
        <ele>1483</ele>
        <time>2022-07-31T07:38:12Z</time>
      </trkpt>
      <trkpt lat="46.16575" lon="6.65887">
        <ele>1483</ele>
        <time>2022-07-31T07:38:13Z</time>
      </trkpt>
      <trkpt lat="46.16575" lon="6.65889">
        <ele>1483</ele>
        <time>2022-07-31T07:38:14Z</time>
      </trkpt>
      <trkpt lat="46.16575" lon="6.65891">
        <ele>1483</ele>
        <time>2022-07-31T07:38:15Z</time>
      </trkpt>
      <trkpt lat="46.16575" lon="6.65893">
        <ele>1483</ele>
        <time>2022-07-31T07:38:16Z</time>
      </trkpt>
      <trkpt lat="46.16575" lon="6.65894">
        <ele>1483</ele>
        <time>2022-07-31T07:38:17Z</time>
      </trkpt>
      <trkpt lat="46.16575" lon="6.65895">
        <ele>1483</ele>
        <time>2022-07-31T07:38:18Z</time>
      </trkpt>
      <trkpt lat="46.16576" lon="6.65896">
        <ele>1483</ele>
        <time>2022-07-31T07:38:19Z</time>
      </trkpt>
      <trkpt lat="46.16577" lon="6.65897">
        <ele>1483</ele>
        <time>2022-07-31T07:38:20Z</time>
      </trkpt>
      <trkpt lat="46.16577" lon="6.65899">
        <ele>1484</ele>
        <time>2022-07-31T07:38:21Z</time>
      </trkpt>
      <trkpt lat="46.16578" lon="6.659">
        <ele>1484</ele>
        <time>2022-07-31T07:38:22Z</time>
      </trkpt>
      <trkpt lat="46.16579" lon="6.65901">
        <ele>1484</ele>
        <time>2022-07-31T07:38:23Z</time>
      </trkpt>
      <trkpt lat="46.16579" lon="6.65902">
        <ele>1484</ele>
        <time>2022-07-31T07:38:24Z</time>
      </trkpt>
      <trkpt lat="46.1658" lon="6.65903">
        <ele>1484</ele>
        <time>2022-07-31T07:38:25Z</time>
      </trkpt>
      <trkpt lat="46.16581" lon="6.65905">
        <ele>1484</ele>
        <time>2022-07-31T07:38:26Z</time>
      </trkpt>
      <trkpt lat="46.16582" lon="6.65907">
        <ele>1485</ele>
        <time>2022-07-31T07:38:27Z</time>
      </trkpt>
      <trkpt lat="46.16582" lon="6.65908">
        <ele>1485</ele>
        <time>2022-07-31T07:38:28Z</time>
      </trkpt>
      <trkpt lat="46.16583" lon="6.65911">
        <ele>1485</ele>
        <time>2022-07-31T07:38:29Z</time>
      </trkpt>
      <trkpt lat="46.16583" lon="6.65913">
        <ele>1485</ele>
        <time>2022-07-31T07:38:30Z</time>
      </trkpt>
      <trkpt lat="46.16584" lon="6.65915">
        <ele>1485</ele>
        <time>2022-07-31T07:38:31Z</time>
      </trkpt>
      <trkpt lat="46.16584" lon="6.65915">
        <ele>1485</ele>
        <time>2022-07-31T07:38:32Z</time>
      </trkpt>
      <trkpt lat="46.16584" lon="6.65914">
        <ele>1485</ele>
        <time>2022-07-31T07:38:33Z</time>
      </trkpt>
      <trkpt lat="46.16584" lon="6.65913">
        <ele>1485</ele>
        <time>2022-07-31T07:38:34Z</time>
      </trkpt>
      <trkpt lat="46.16583" lon="6.65913">
        <ele>1485</ele>
        <time>2022-07-31T07:38:35Z</time>
      </trkpt>
      <trkpt lat="46.16583" lon="6.65913">
        <ele>1485</ele>
        <time>2022-07-31T07:38:36Z</time>
      </trkpt>
      <trkpt lat="46.16582" lon="6.65912">
        <ele>1485</ele>
        <time>2022-07-31T07:38:37Z</time>
      </trkpt>
      <trkpt lat="46.16582" lon="6.65911">
        <ele>1485</ele>
        <time>2022-07-31T07:38:38Z</time>
      </trkpt>
      <trkpt lat="46.16582" lon="6.6591">
        <ele>1485</ele>
        <time>2022-07-31T07:38:39Z</time>
      </trkpt>
      <trkpt lat="46.16582" lon="6.6591">
        <ele>1485</ele>
        <time>2022-07-31T07:38:40Z</time>
      </trkpt>
      <trkpt lat="46.16582" lon="6.6591">
        <ele>1486</ele>
        <time>2022-07-31T07:38:41Z</time>
      </trkpt>
      <trkpt lat="46.16582" lon="6.6591">
        <ele>1486</ele>
        <time>2022-07-31T07:38:42Z</time>
      </trkpt>
      <trkpt lat="46.16582" lon="6.6591">
        <ele>1486</ele>
        <time>2022-07-31T07:38:43Z</time>
      </trkpt>
      <trkpt lat="46.16582" lon="6.65909">
        <ele>1486</ele>
        <time>2022-07-31T07:38:44Z</time>
      </trkpt>
      <trkpt lat="46.16582" lon="6.65909">
        <ele>1486</ele>
        <time>2022-07-31T07:38:45Z</time>
      </trkpt>
      <trkpt lat="46.16582" lon="6.65909">
        <ele>1486</ele>
        <time>2022-07-31T07:38:46Z</time>
      </trkpt>
      <trkpt lat="46.16582" lon="6.6591">
        <ele>1486</ele>
        <time>2022-07-31T07:38:47Z</time>
      </trkpt>
      <trkpt lat="46.16583" lon="6.65912">
        <ele>1486</ele>
        <time>2022-07-31T07:38:48Z</time>
      </trkpt>
      <trkpt lat="46.16583" lon="6.65914">
        <ele>1486</ele>
        <time>2022-07-31T07:38:49Z</time>
      </trkpt>
      <trkpt lat="46.16584" lon="6.65916">
        <ele>1486</ele>
        <time>2022-07-31T07:38:50Z</time>
      </trkpt>
      <trkpt lat="46.16584" lon="6.65917">
        <ele>1486</ele>
        <time>2022-07-31T07:38:51Z</time>
      </trkpt>
      <trkpt lat="46.16585" lon="6.65917">
        <ele>1486</ele>
        <time>2022-07-31T07:38:52Z</time>
      </trkpt>
      <trkpt lat="46.16587" lon="6.65917">
        <ele>1487</ele>
        <time>2022-07-31T07:38:53Z</time>
      </trkpt>
      <trkpt lat="46.1659" lon="6.65917">
        <ele>1487</ele>
        <time>2022-07-31T07:38:54Z</time>
      </trkpt>
      <trkpt lat="46.16591" lon="6.65917">
        <ele>1487</ele>
        <time>2022-07-31T07:38:55Z</time>
      </trkpt>
      <trkpt lat="46.16593" lon="6.65916">
        <ele>1487</ele>
        <time>2022-07-31T07:38:56Z</time>
      </trkpt>
      <trkpt lat="46.16596" lon="6.65917">
        <ele>1487</ele>
        <time>2022-07-31T07:38:57Z</time>
      </trkpt>
      <trkpt lat="46.16598" lon="6.65918">
        <ele>1488</ele>
        <time>2022-07-31T07:38:58Z</time>
      </trkpt>
      <trkpt lat="46.166" lon="6.65919">
        <ele>1488</ele>
        <time>2022-07-31T07:38:59Z</time>
      </trkpt>
      <trkpt lat="46.16602" lon="6.6592">
        <ele>1488</ele>
        <time>2022-07-31T07:39:00Z</time>
      </trkpt>
      <trkpt lat="46.16603" lon="6.65921">
        <ele>1489</ele>
        <time>2022-07-31T07:39:01Z</time>
      </trkpt>
      <trkpt lat="46.16604" lon="6.65922">
        <ele>1489</ele>
        <time>2022-07-31T07:39:02Z</time>
      </trkpt>
      <trkpt lat="46.16604" lon="6.65923">
        <ele>1489</ele>
        <time>2022-07-31T07:39:03Z</time>
      </trkpt>
      <trkpt lat="46.16606" lon="6.65925">
        <ele>1490</ele>
        <time>2022-07-31T07:39:04Z</time>
      </trkpt>
      <trkpt lat="46.16608" lon="6.65926">
        <ele>1490</ele>
        <time>2022-07-31T07:39:05Z</time>
      </trkpt>
      <trkpt lat="46.16609" lon="6.65927">
        <ele>1490</ele>
        <time>2022-07-31T07:39:06Z</time>
      </trkpt>
      <trkpt lat="46.1661" lon="6.65928">
        <ele>1491</ele>
        <time>2022-07-31T07:39:07Z</time>
      </trkpt>
      <trkpt lat="46.16612" lon="6.65929">
        <ele>1491</ele>
        <time>2022-07-31T07:39:08Z</time>
      </trkpt>
      <trkpt lat="46.16614" lon="6.65931">
        <ele>1492</ele>
        <time>2022-07-31T07:39:09Z</time>
      </trkpt>
      <trkpt lat="46.16615" lon="6.65932">
        <ele>1492</ele>
        <time>2022-07-31T07:39:10Z</time>
      </trkpt>
      <trkpt lat="46.16617" lon="6.65934">
        <ele>1492</ele>
        <time>2022-07-31T07:39:11Z</time>
      </trkpt>
      <trkpt lat="46.16618" lon="6.65936">
        <ele>1493</ele>
        <time>2022-07-31T07:39:12Z</time>
      </trkpt>
      <trkpt lat="46.16619" lon="6.65938">
        <ele>1493</ele>
        <time>2022-07-31T07:39:13Z</time>
      </trkpt>
      <trkpt lat="46.1662" lon="6.6594">
        <ele>1493</ele>
        <time>2022-07-31T07:39:14Z</time>
      </trkpt>
      <trkpt lat="46.16621" lon="6.65942">
        <ele>1494</ele>
        <time>2022-07-31T07:39:15Z</time>
      </trkpt>
      <trkpt lat="46.16621" lon="6.65944">
        <ele>1494</ele>
        <time>2022-07-31T07:39:16Z</time>
      </trkpt>
      <trkpt lat="46.16622" lon="6.65946">
        <ele>1494</ele>
        <time>2022-07-31T07:39:17Z</time>
      </trkpt>
      <trkpt lat="46.16623" lon="6.65948">
        <ele>1495</ele>
        <time>2022-07-31T07:39:18Z</time>
      </trkpt>
      <trkpt lat="46.16624" lon="6.65948">
        <ele>1495</ele>
        <time>2022-07-31T07:39:19Z</time>
      </trkpt>
      <trkpt lat="46.16624" lon="6.65948">
        <ele>1495</ele>
        <time>2022-07-31T07:39:20Z</time>
      </trkpt>
      <trkpt lat="46.16625" lon="6.65948">
        <ele>1496</ele>
        <time>2022-07-31T07:39:21Z</time>
      </trkpt>
      <trkpt lat="46.16626" lon="6.65948">
        <ele>1496</ele>
        <time>2022-07-31T07:39:22Z</time>
      </trkpt>
      <trkpt lat="46.16626" lon="6.65948">
        <ele>1496</ele>
        <time>2022-07-31T07:39:23Z</time>
      </trkpt>
      <trkpt lat="46.16628" lon="6.6595">
        <ele>1496</ele>
        <time>2022-07-31T07:39:24Z</time>
      </trkpt>
      <trkpt lat="46.16628" lon="6.65951">
        <ele>1497</ele>
        <time>2022-07-31T07:39:25Z</time>
      </trkpt>
      <trkpt lat="46.16629" lon="6.65952">
        <ele>1497</ele>
        <time>2022-07-31T07:39:26Z</time>
      </trkpt>
      <trkpt lat="46.1663" lon="6.65953">
        <ele>1497</ele>
        <time>2022-07-31T07:39:27Z</time>
      </trkpt>
      <trkpt lat="46.16632" lon="6.65954">
        <ele>1497</ele>
        <time>2022-07-31T07:39:28Z</time>
      </trkpt>
      <trkpt lat="46.16632" lon="6.65955">
        <ele>1497</ele>
        <time>2022-07-31T07:39:29Z</time>
      </trkpt>
      <trkpt lat="46.16633" lon="6.65956">
        <ele>1498</ele>
        <time>2022-07-31T07:39:30Z</time>
      </trkpt>
      <trkpt lat="46.16633" lon="6.65955">
        <ele>1498</ele>
        <time>2022-07-31T07:39:31Z</time>
      </trkpt>
      <trkpt lat="46.16634" lon="6.65956">
        <ele>1498</ele>
        <time>2022-07-31T07:39:32Z</time>
      </trkpt>
      <trkpt lat="46.16635" lon="6.65956">
        <ele>1499</ele>
        <time>2022-07-31T07:39:33Z</time>
      </trkpt>
      <trkpt lat="46.16636" lon="6.65956">
        <ele>1499</ele>
        <time>2022-07-31T07:39:34Z</time>
      </trkpt>
      <trkpt lat="46.16637" lon="6.65956">
        <ele>1500</ele>
        <time>2022-07-31T07:39:35Z</time>
      </trkpt>
      <trkpt lat="46.16639" lon="6.65958">
        <ele>1500</ele>
        <time>2022-07-31T07:39:36Z</time>
      </trkpt>
      <trkpt lat="46.1664" lon="6.65958">
        <ele>1501</ele>
        <time>2022-07-31T07:39:37Z</time>
      </trkpt>
      <trkpt lat="46.16641" lon="6.65959">
        <ele>1501</ele>
        <time>2022-07-31T07:39:38Z</time>
      </trkpt>
      <trkpt lat="46.16642" lon="6.6596">
        <ele>1502</ele>
        <time>2022-07-31T07:39:39Z</time>
      </trkpt>
      <trkpt lat="46.16643" lon="6.65961">
        <ele>1502</ele>
        <time>2022-07-31T07:39:40Z</time>
      </trkpt>
      <trkpt lat="46.16644" lon="6.65962">
        <ele>1503</ele>
        <time>2022-07-31T07:39:41Z</time>
      </trkpt>
      <trkpt lat="46.16646" lon="6.65963">
        <ele>1503</ele>
        <time>2022-07-31T07:39:42Z</time>
      </trkpt>
      <trkpt lat="46.16647" lon="6.65963">
        <ele>1503</ele>
        <time>2022-07-31T07:39:43Z</time>
      </trkpt>
      <trkpt lat="46.16648" lon="6.65964">
        <ele>1504</ele>
        <time>2022-07-31T07:39:44Z</time>
      </trkpt>
      <trkpt lat="46.16649" lon="6.65964">
        <ele>1504</ele>
        <time>2022-07-31T07:39:45Z</time>
      </trkpt>
      <trkpt lat="46.1665" lon="6.65964">
        <ele>1505</ele>
        <time>2022-07-31T07:39:46Z</time>
      </trkpt>
      <trkpt lat="46.1665" lon="6.65964">
        <ele>1506</ele>
        <time>2022-07-31T07:39:47Z</time>
      </trkpt>
      <trkpt lat="46.16651" lon="6.65965">
        <ele>1506</ele>
        <time>2022-07-31T07:39:48Z</time>
      </trkpt>
      <trkpt lat="46.16652" lon="6.65967">
        <ele>1506</ele>
        <time>2022-07-31T07:39:49Z</time>
      </trkpt>
      <trkpt lat="46.16653" lon="6.65967">
        <ele>1506</ele>
        <time>2022-07-31T07:39:50Z</time>
      </trkpt>
      <trkpt lat="46.16655" lon="6.65967">
        <ele>1506</ele>
        <time>2022-07-31T07:39:51Z</time>
      </trkpt>
      <trkpt lat="46.16656" lon="6.65967">
        <ele>1506</ele>
        <time>2022-07-31T07:39:52Z</time>
      </trkpt>
      <trkpt lat="46.16657" lon="6.65968">
        <ele>1506</ele>
        <time>2022-07-31T07:39:53Z</time>
      </trkpt>
      <trkpt lat="46.16658" lon="6.65969">
        <ele>1506</ele>
        <time>2022-07-31T07:39:54Z</time>
      </trkpt>
      <trkpt lat="46.16659" lon="6.65971">
        <ele>1506</ele>
        <time>2022-07-31T07:39:55Z</time>
      </trkpt>
      <trkpt lat="46.16659" lon="6.65972">
        <ele>1506</ele>
        <time>2022-07-31T07:39:56Z</time>
      </trkpt>
      <trkpt lat="46.16661" lon="6.65974">
        <ele>1506</ele>
        <time>2022-07-31T07:39:57Z</time>
      </trkpt>
      <trkpt lat="46.16662" lon="6.65975">
        <ele>1508</ele>
        <time>2022-07-31T07:39:58Z</time>
      </trkpt>
      <trkpt lat="46.16662" lon="6.65976">
        <ele>1510</ele>
        <time>2022-07-31T07:39:59Z</time>
      </trkpt>
      <trkpt lat="46.16664" lon="6.65976">
        <ele>1511</ele>
        <time>2022-07-31T07:40:00Z</time>
      </trkpt>
      <trkpt lat="46.16665" lon="6.65978">
        <ele>1512</ele>
        <time>2022-07-31T07:40:01Z</time>
      </trkpt>
      <trkpt lat="46.16666" lon="6.6598">
        <ele>1513</ele>
        <time>2022-07-31T07:40:02Z</time>
      </trkpt>
      <trkpt lat="46.16669" lon="6.65982">
        <ele>1513</ele>
        <time>2022-07-31T07:40:03Z</time>
      </trkpt>
      <trkpt lat="46.1667" lon="6.65983">
        <ele>1514</ele>
        <time>2022-07-31T07:40:04Z</time>
      </trkpt>
      <trkpt lat="46.16672" lon="6.65985">
        <ele>1514</ele>
        <time>2022-07-31T07:40:05Z</time>
      </trkpt>
      <trkpt lat="46.16673" lon="6.65987">
        <ele>1515</ele>
        <time>2022-07-31T07:40:06Z</time>
      </trkpt>
      <trkpt lat="46.16676" lon="6.65989">
        <ele>1515</ele>
        <time>2022-07-31T07:40:07Z</time>
      </trkpt>
      <trkpt lat="46.16677" lon="6.65989">
        <ele>1516</ele>
        <time>2022-07-31T07:40:08Z</time>
      </trkpt>
      <trkpt lat="46.16677" lon="6.6599">
        <ele>1516</ele>
        <time>2022-07-31T07:40:09Z</time>
      </trkpt>
      <trkpt lat="46.16678" lon="6.65991">
        <ele>1517</ele>
        <time>2022-07-31T07:40:10Z</time>
      </trkpt>
      <trkpt lat="46.16679" lon="6.65991">
        <ele>1517</ele>
        <time>2022-07-31T07:40:11Z</time>
      </trkpt>
      <trkpt lat="46.1668" lon="6.65991">
        <ele>1518</ele>
        <time>2022-07-31T07:40:12Z</time>
      </trkpt>
      <trkpt lat="46.16681" lon="6.65992">
        <ele>1518</ele>
        <time>2022-07-31T07:40:13Z</time>
      </trkpt>
      <trkpt lat="46.16681" lon="6.65994">
        <ele>1519</ele>
        <time>2022-07-31T07:40:14Z</time>
      </trkpt>
      <trkpt lat="46.16682" lon="6.65995">
        <ele>1519</ele>
        <time>2022-07-31T07:40:15Z</time>
      </trkpt>
      <trkpt lat="46.16683" lon="6.65996">
        <ele>1520</ele>
        <time>2022-07-31T07:40:16Z</time>
      </trkpt>
      <trkpt lat="46.16684" lon="6.65997">
        <ele>1520</ele>
        <time>2022-07-31T07:40:17Z</time>
      </trkpt>
      <trkpt lat="46.16685" lon="6.65999">
        <ele>1520</ele>
        <time>2022-07-31T07:40:18Z</time>
      </trkpt>
      <trkpt lat="46.16686" lon="6.65999">
        <ele>1521</ele>
        <time>2022-07-31T07:40:19Z</time>
      </trkpt>
      <trkpt lat="46.16687" lon="6.65999">
        <ele>1521</ele>
        <time>2022-07-31T07:40:20Z</time>
      </trkpt>
      <trkpt lat="46.16688" lon="6.66">
        <ele>1522</ele>
        <time>2022-07-31T07:40:21Z</time>
      </trkpt>
      <trkpt lat="46.16689" lon="6.66001">
        <ele>1522</ele>
        <time>2022-07-31T07:40:22Z</time>
      </trkpt>
      <trkpt lat="46.1669" lon="6.66002">
        <ele>1522</ele>
        <time>2022-07-31T07:40:23Z</time>
      </trkpt>
      <trkpt lat="46.16691" lon="6.66003">
        <ele>1523</ele>
        <time>2022-07-31T07:40:24Z</time>
      </trkpt>
      <trkpt lat="46.16692" lon="6.66004">
        <ele>1523</ele>
        <time>2022-07-31T07:40:25Z</time>
      </trkpt>
      <trkpt lat="46.16693" lon="6.66005">
        <ele>1523</ele>
        <time>2022-07-31T07:40:26Z</time>
      </trkpt>
      <trkpt lat="46.16694" lon="6.66006">
        <ele>1523</ele>
        <time>2022-07-31T07:40:27Z</time>
      </trkpt>
      <trkpt lat="46.16694" lon="6.66007">
        <ele>1524</ele>
        <time>2022-07-31T07:40:28Z</time>
      </trkpt>
      <trkpt lat="46.16695" lon="6.66008">
        <ele>1524</ele>
        <time>2022-07-31T07:40:29Z</time>
      </trkpt>
      <trkpt lat="46.16696" lon="6.66009">
        <ele>1524</ele>
        <time>2022-07-31T07:40:30Z</time>
      </trkpt>
      <trkpt lat="46.16698" lon="6.6601">
        <ele>1524</ele>
        <time>2022-07-31T07:40:31Z</time>
      </trkpt>
      <trkpt lat="46.16698" lon="6.66012">
        <ele>1525</ele>
        <time>2022-07-31T07:40:32Z</time>
      </trkpt>
      <trkpt lat="46.16699" lon="6.66012">
        <ele>1525</ele>
        <time>2022-07-31T07:40:33Z</time>
      </trkpt>
      <trkpt lat="46.167" lon="6.66012">
        <ele>1525</ele>
        <time>2022-07-31T07:40:34Z</time>
      </trkpt>
      <trkpt lat="46.16701" lon="6.66013">
        <ele>1525</ele>
        <time>2022-07-31T07:40:35Z</time>
      </trkpt>
      <trkpt lat="46.16702" lon="6.66013">
        <ele>1526</ele>
        <time>2022-07-31T07:40:36Z</time>
      </trkpt>
      <trkpt lat="46.16702" lon="6.66014">
        <ele>1526</ele>
        <time>2022-07-31T07:40:37Z</time>
      </trkpt>
      <trkpt lat="46.16703" lon="6.66016">
        <ele>1526</ele>
        <time>2022-07-31T07:40:38Z</time>
      </trkpt>
      <trkpt lat="46.16703" lon="6.66018">
        <ele>1526</ele>
        <time>2022-07-31T07:40:39Z</time>
      </trkpt>
      <trkpt lat="46.16705" lon="6.66019">
        <ele>1527</ele>
        <time>2022-07-31T07:40:40Z</time>
      </trkpt>
      <trkpt lat="46.16705" lon="6.66021">
        <ele>1527</ele>
        <time>2022-07-31T07:40:41Z</time>
      </trkpt>
      <trkpt lat="46.16706" lon="6.66022">
        <ele>1527</ele>
        <time>2022-07-31T07:40:42Z</time>
      </trkpt>
      <trkpt lat="46.16707" lon="6.66024">
        <ele>1527</ele>
        <time>2022-07-31T07:40:43Z</time>
      </trkpt>
      <trkpt lat="46.16708" lon="6.66025">
        <ele>1528</ele>
        <time>2022-07-31T07:40:44Z</time>
      </trkpt>
      <trkpt lat="46.1671" lon="6.66026">
        <ele>1528</ele>
        <time>2022-07-31T07:40:45Z</time>
      </trkpt>
      <trkpt lat="46.16711" lon="6.66027">
        <ele>1528</ele>
        <time>2022-07-31T07:40:46Z</time>
      </trkpt>
      <trkpt lat="46.16711" lon="6.6603">
        <ele>1529</ele>
        <time>2022-07-31T07:40:47Z</time>
      </trkpt>
      <trkpt lat="46.16713" lon="6.66032">
        <ele>1529</ele>
        <time>2022-07-31T07:40:48Z</time>
      </trkpt>
      <trkpt lat="46.16714" lon="6.66033">
        <ele>1529</ele>
        <time>2022-07-31T07:40:49Z</time>
      </trkpt>
      <trkpt lat="46.16715" lon="6.66034">
        <ele>1529</ele>
        <time>2022-07-31T07:40:50Z</time>
      </trkpt>
      <trkpt lat="46.16715" lon="6.66035">
        <ele>1530</ele>
        <time>2022-07-31T07:40:51Z</time>
      </trkpt>
      <trkpt lat="46.16716" lon="6.66036">
        <ele>1530</ele>
        <time>2022-07-31T07:40:52Z</time>
      </trkpt>
      <trkpt lat="46.16717" lon="6.66038">
        <ele>1530</ele>
        <time>2022-07-31T07:40:53Z</time>
      </trkpt>
      <trkpt lat="46.16719" lon="6.66039">
        <ele>1530</ele>
        <time>2022-07-31T07:40:54Z</time>
      </trkpt>
      <trkpt lat="46.1672" lon="6.6604">
        <ele>1531</ele>
        <time>2022-07-31T07:40:55Z</time>
      </trkpt>
      <trkpt lat="46.16722" lon="6.66041">
        <ele>1531</ele>
        <time>2022-07-31T07:40:56Z</time>
      </trkpt>
      <trkpt lat="46.16723" lon="6.66042">
        <ele>1531</ele>
        <time>2022-07-31T07:40:57Z</time>
      </trkpt>
      <trkpt lat="46.16724" lon="6.66042">
        <ele>1531</ele>
        <time>2022-07-31T07:40:58Z</time>
      </trkpt>
      <trkpt lat="46.16725" lon="6.66043">
        <ele>1531</ele>
        <time>2022-07-31T07:40:59Z</time>
      </trkpt>
      <trkpt lat="46.16725" lon="6.66044">
        <ele>1532</ele>
        <time>2022-07-31T07:41:00Z</time>
      </trkpt>
      <trkpt lat="46.16725" lon="6.66045">
        <ele>1532</ele>
        <time>2022-07-31T07:41:01Z</time>
      </trkpt>
      <trkpt lat="46.16727" lon="6.66045">
        <ele>1532</ele>
        <time>2022-07-31T07:41:02Z</time>
      </trkpt>
      <trkpt lat="46.16727" lon="6.66046">
        <ele>1532</ele>
        <time>2022-07-31T07:41:03Z</time>
      </trkpt>
      <trkpt lat="46.16728" lon="6.66046">
        <ele>1533</ele>
        <time>2022-07-31T07:41:04Z</time>
      </trkpt>
      <trkpt lat="46.16729" lon="6.66048">
        <ele>1533</ele>
        <time>2022-07-31T07:41:05Z</time>
      </trkpt>
      <trkpt lat="46.16728" lon="6.66049">
        <ele>1533</ele>
        <time>2022-07-31T07:41:06Z</time>
      </trkpt>
      <trkpt lat="46.16729" lon="6.6605">
        <ele>1534</ele>
        <time>2022-07-31T07:41:07Z</time>
      </trkpt>
      <trkpt lat="46.1673" lon="6.66052">
        <ele>1534</ele>
        <time>2022-07-31T07:41:08Z</time>
      </trkpt>
      <trkpt lat="46.1673" lon="6.66053">
        <ele>1534</ele>
        <time>2022-07-31T07:41:09Z</time>
      </trkpt>
      <trkpt lat="46.1673" lon="6.66054">
        <ele>1535</ele>
        <time>2022-07-31T07:41:10Z</time>
      </trkpt>
      <trkpt lat="46.16731" lon="6.66056">
        <ele>1535</ele>
        <time>2022-07-31T07:41:11Z</time>
      </trkpt>
      <trkpt lat="46.16732" lon="6.66056">
        <ele>1535</ele>
        <time>2022-07-31T07:41:12Z</time>
      </trkpt>
      <trkpt lat="46.16732" lon="6.66056">
        <ele>1536</ele>
        <time>2022-07-31T07:41:13Z</time>
      </trkpt>
      <trkpt lat="46.16733" lon="6.66057">
        <ele>1536</ele>
        <time>2022-07-31T07:41:14Z</time>
      </trkpt>
      <trkpt lat="46.16734" lon="6.66059">
        <ele>1537</ele>
        <time>2022-07-31T07:41:15Z</time>
      </trkpt>
      <trkpt lat="46.16736" lon="6.66061">
        <ele>1537</ele>
        <time>2022-07-31T07:41:16Z</time>
      </trkpt>
      <trkpt lat="46.16736" lon="6.66062">
        <ele>1537</ele>
        <time>2022-07-31T07:41:17Z</time>
      </trkpt>
      <trkpt lat="46.16737" lon="6.66064">
        <ele>1538</ele>
        <time>2022-07-31T07:41:18Z</time>
      </trkpt>
      <trkpt lat="46.16738" lon="6.66065">
        <ele>1538</ele>
        <time>2022-07-31T07:41:19Z</time>
      </trkpt>
      <trkpt lat="46.1674" lon="6.66065">
        <ele>1539</ele>
        <time>2022-07-31T07:41:20Z</time>
      </trkpt>
      <trkpt lat="46.16741" lon="6.66065">
        <ele>1539</ele>
        <time>2022-07-31T07:41:21Z</time>
      </trkpt>
      <trkpt lat="46.16742" lon="6.66067">
        <ele>1539</ele>
        <time>2022-07-31T07:41:22Z</time>
      </trkpt>
      <trkpt lat="46.16743" lon="6.66068">
        <ele>1540</ele>
        <time>2022-07-31T07:41:23Z</time>
      </trkpt>
      <trkpt lat="46.16743" lon="6.6607">
        <ele>1540</ele>
        <time>2022-07-31T07:41:24Z</time>
      </trkpt>
      <trkpt lat="46.16744" lon="6.66072">
        <ele>1541</ele>
        <time>2022-07-31T07:41:25Z</time>
      </trkpt>
      <trkpt lat="46.16744" lon="6.66074">
        <ele>1541</ele>
        <time>2022-07-31T07:41:26Z</time>
      </trkpt>
      <trkpt lat="46.16746" lon="6.66076">
        <ele>1541</ele>
        <time>2022-07-31T07:41:27Z</time>
      </trkpt>
      <trkpt lat="46.16746" lon="6.66077">
        <ele>1542</ele>
        <time>2022-07-31T07:41:28Z</time>
      </trkpt>
      <trkpt lat="46.16747" lon="6.66078">
        <ele>1542</ele>
        <time>2022-07-31T07:41:29Z</time>
      </trkpt>
      <trkpt lat="46.16748" lon="6.6608">
        <ele>1542</ele>
        <time>2022-07-31T07:41:30Z</time>
      </trkpt>
      <trkpt lat="46.16748" lon="6.66083">
        <ele>1543</ele>
        <time>2022-07-31T07:41:31Z</time>
      </trkpt>
      <trkpt lat="46.16749" lon="6.66085">
        <ele>1543</ele>
        <time>2022-07-31T07:41:32Z</time>
      </trkpt>
      <trkpt lat="46.1675" lon="6.66087">
        <ele>1543</ele>
        <time>2022-07-31T07:41:33Z</time>
      </trkpt>
      <trkpt lat="46.16751" lon="6.66087">
        <ele>1544</ele>
        <time>2022-07-31T07:41:34Z</time>
      </trkpt>
      <trkpt lat="46.16752" lon="6.66089">
        <ele>1544</ele>
        <time>2022-07-31T07:41:35Z</time>
      </trkpt>
      <trkpt lat="46.16752" lon="6.66092">
        <ele>1544</ele>
        <time>2022-07-31T07:41:36Z</time>
      </trkpt>
      <trkpt lat="46.16754" lon="6.66094">
        <ele>1545</ele>
        <time>2022-07-31T07:41:37Z</time>
      </trkpt>
      <trkpt lat="46.16754" lon="6.66097">
        <ele>1545</ele>
        <time>2022-07-31T07:41:38Z</time>
      </trkpt>
      <trkpt lat="46.16755" lon="6.66099">
        <ele>1546</ele>
        <time>2022-07-31T07:41:39Z</time>
      </trkpt>
      <trkpt lat="46.16756" lon="6.66101">
        <ele>1546</ele>
        <time>2022-07-31T07:41:40Z</time>
      </trkpt>
      <trkpt lat="46.16757" lon="6.66102">
        <ele>1546</ele>
        <time>2022-07-31T07:41:41Z</time>
      </trkpt>
      <trkpt lat="46.16758" lon="6.66104">
        <ele>1547</ele>
        <time>2022-07-31T07:41:42Z</time>
      </trkpt>
      <trkpt lat="46.16759" lon="6.66105">
        <ele>1547</ele>
        <time>2022-07-31T07:41:43Z</time>
      </trkpt>
      <trkpt lat="46.1676" lon="6.66106">
        <ele>1548</ele>
        <time>2022-07-31T07:41:44Z</time>
      </trkpt>
      <trkpt lat="46.16761" lon="6.66107">
        <ele>1548</ele>
        <time>2022-07-31T07:41:45Z</time>
      </trkpt>
      <trkpt lat="46.16762" lon="6.66108">
        <ele>1549</ele>
        <time>2022-07-31T07:41:46Z</time>
      </trkpt>
      <trkpt lat="46.16763" lon="6.6611">
        <ele>1549</ele>
        <time>2022-07-31T07:41:47Z</time>
      </trkpt>
      <trkpt lat="46.16764" lon="6.66112">
        <ele>1550</ele>
        <time>2022-07-31T07:41:48Z</time>
      </trkpt>
      <trkpt lat="46.16765" lon="6.66113">
        <ele>1550</ele>
        <time>2022-07-31T07:41:49Z</time>
      </trkpt>
      <trkpt lat="46.16765" lon="6.66115">
        <ele>1550</ele>
        <time>2022-07-31T07:41:50Z</time>
      </trkpt>
      <trkpt lat="46.16766" lon="6.66117">
        <ele>1551</ele>
        <time>2022-07-31T07:41:51Z</time>
      </trkpt>
      <trkpt lat="46.16768" lon="6.66118">
        <ele>1551</ele>
        <time>2022-07-31T07:41:52Z</time>
      </trkpt>
      <trkpt lat="46.16768" lon="6.66118">
        <ele>1551</ele>
        <time>2022-07-31T07:41:53Z</time>
      </trkpt>
      <trkpt lat="46.1677" lon="6.66119">
        <ele>1552</ele>
        <time>2022-07-31T07:41:54Z</time>
      </trkpt>
      <trkpt lat="46.16771" lon="6.6612">
        <ele>1552</ele>
        <time>2022-07-31T07:41:55Z</time>
      </trkpt>
      <trkpt lat="46.16772" lon="6.66122">
        <ele>1553</ele>
        <time>2022-07-31T07:41:56Z</time>
      </trkpt>
      <trkpt lat="46.16773" lon="6.66124">
        <ele>1553</ele>
        <time>2022-07-31T07:41:57Z</time>
      </trkpt>
      <trkpt lat="46.16774" lon="6.66127">
        <ele>1553</ele>
        <time>2022-07-31T07:41:58Z</time>
      </trkpt>
      <trkpt lat="46.16775" lon="6.66129">
        <ele>1554</ele>
        <time>2022-07-31T07:41:59Z</time>
      </trkpt>
      <trkpt lat="46.16776" lon="6.66132">
        <ele>1554</ele>
        <time>2022-07-31T07:42:00Z</time>
      </trkpt>
      <trkpt lat="46.16777" lon="6.66133">
        <ele>1554</ele>
        <time>2022-07-31T07:42:01Z</time>
      </trkpt>
      <trkpt lat="46.16779" lon="6.66135">
        <ele>1555</ele>
        <time>2022-07-31T07:42:02Z</time>
      </trkpt>
      <trkpt lat="46.16779" lon="6.66136">
        <ele>1555</ele>
        <time>2022-07-31T07:42:03Z</time>
      </trkpt>
      <trkpt lat="46.1678" lon="6.66136">
        <ele>1555</ele>
        <time>2022-07-31T07:42:04Z</time>
      </trkpt>
      <trkpt lat="46.16781" lon="6.66137">
        <ele>1556</ele>
        <time>2022-07-31T07:42:05Z</time>
      </trkpt>
      <trkpt lat="46.16781" lon="6.66139">
        <ele>1556</ele>
        <time>2022-07-31T07:42:06Z</time>
      </trkpt>
      <trkpt lat="46.16782" lon="6.6614">
        <ele>1556</ele>
        <time>2022-07-31T07:42:07Z</time>
      </trkpt>
      <trkpt lat="46.16783" lon="6.66142">
        <ele>1556</ele>
        <time>2022-07-31T07:42:08Z</time>
      </trkpt>
      <trkpt lat="46.16783" lon="6.66145">
        <ele>1556</ele>
        <time>2022-07-31T07:42:09Z</time>
      </trkpt>
      <trkpt lat="46.16784" lon="6.66146">
        <ele>1557</ele>
        <time>2022-07-31T07:42:10Z</time>
      </trkpt>
      <trkpt lat="46.16785" lon="6.66148">
        <ele>1557</ele>
        <time>2022-07-31T07:42:11Z</time>
      </trkpt>
      <trkpt lat="46.16786" lon="6.6615">
        <ele>1557</ele>
        <time>2022-07-31T07:42:12Z</time>
      </trkpt>
      <trkpt lat="46.16787" lon="6.66152">
        <ele>1557</ele>
        <time>2022-07-31T07:42:13Z</time>
      </trkpt>
      <trkpt lat="46.16788" lon="6.66154">
        <ele>1557</ele>
        <time>2022-07-31T07:42:14Z</time>
      </trkpt>
      <trkpt lat="46.16788" lon="6.66155">
        <ele>1557</ele>
        <time>2022-07-31T07:42:15Z</time>
      </trkpt>
      <trkpt lat="46.16789" lon="6.66156">
        <ele>1557</ele>
        <time>2022-07-31T07:42:16Z</time>
      </trkpt>
      <trkpt lat="46.16789" lon="6.66158">
        <ele>1557</ele>
        <time>2022-07-31T07:42:17Z</time>
      </trkpt>
      <trkpt lat="46.16789" lon="6.6616">
        <ele>1557</ele>
        <time>2022-07-31T07:42:18Z</time>
      </trkpt>
      <trkpt lat="46.16789" lon="6.66163">
        <ele>1557</ele>
        <time>2022-07-31T07:42:19Z</time>
      </trkpt>
      <trkpt lat="46.1679" lon="6.66165">
        <ele>1557</ele>
        <time>2022-07-31T07:42:20Z</time>
      </trkpt>
      <trkpt lat="46.1679" lon="6.66167">
        <ele>1557</ele>
        <time>2022-07-31T07:42:21Z</time>
      </trkpt>
      <trkpt lat="46.16791" lon="6.6617">
        <ele>1557</ele>
        <time>2022-07-31T07:42:22Z</time>
      </trkpt>
      <trkpt lat="46.16793" lon="6.66172">
        <ele>1558</ele>
        <time>2022-07-31T07:42:23Z</time>
      </trkpt>
      <trkpt lat="46.16794" lon="6.66174">
        <ele>1558</ele>
        <time>2022-07-31T07:42:24Z</time>
      </trkpt>
      <trkpt lat="46.16795" lon="6.66176">
        <ele>1558</ele>
        <time>2022-07-31T07:42:25Z</time>
      </trkpt>
      <trkpt lat="46.16796" lon="6.66178">
        <ele>1558</ele>
        <time>2022-07-31T07:42:26Z</time>
      </trkpt>
      <trkpt lat="46.16797" lon="6.6618">
        <ele>1558</ele>
        <time>2022-07-31T07:42:27Z</time>
      </trkpt>
      <trkpt lat="46.16798" lon="6.66183">
        <ele>1558</ele>
        <time>2022-07-31T07:42:28Z</time>
      </trkpt>
      <trkpt lat="46.16799" lon="6.66185">
        <ele>1558</ele>
        <time>2022-07-31T07:42:29Z</time>
      </trkpt>
      <trkpt lat="46.16799" lon="6.66187">
        <ele>1558</ele>
        <time>2022-07-31T07:42:30Z</time>
      </trkpt>
      <trkpt lat="46.168" lon="6.66189">
        <ele>1558</ele>
        <time>2022-07-31T07:42:31Z</time>
      </trkpt>
      <trkpt lat="46.16801" lon="6.6619">
        <ele>1558</ele>
        <time>2022-07-31T07:42:32Z</time>
      </trkpt>
      <trkpt lat="46.16802" lon="6.66191">
        <ele>1558</ele>
        <time>2022-07-31T07:42:33Z</time>
      </trkpt>
      <trkpt lat="46.16803" lon="6.66192">
        <ele>1558</ele>
        <time>2022-07-31T07:42:34Z</time>
      </trkpt>
      <trkpt lat="46.16805" lon="6.66192">
        <ele>1559</ele>
        <time>2022-07-31T07:42:35Z</time>
      </trkpt>
      <trkpt lat="46.16805" lon="6.66194">
        <ele>1559</ele>
        <time>2022-07-31T07:42:36Z</time>
      </trkpt>
      <trkpt lat="46.16806" lon="6.66196">
        <ele>1559</ele>
        <time>2022-07-31T07:42:37Z</time>
      </trkpt>
      <trkpt lat="46.16806" lon="6.66197">
        <ele>1559</ele>
        <time>2022-07-31T07:42:38Z</time>
      </trkpt>
      <trkpt lat="46.16808" lon="6.66198">
        <ele>1559</ele>
        <time>2022-07-31T07:42:39Z</time>
      </trkpt>
      <trkpt lat="46.16808" lon="6.662">
        <ele>1559</ele>
        <time>2022-07-31T07:42:40Z</time>
      </trkpt>
      <trkpt lat="46.16809" lon="6.66202">
        <ele>1559</ele>
        <time>2022-07-31T07:42:41Z</time>
      </trkpt>
      <trkpt lat="46.16809" lon="6.66204">
        <ele>1559</ele>
        <time>2022-07-31T07:42:42Z</time>
      </trkpt>
      <trkpt lat="46.1681" lon="6.66206">
        <ele>1559</ele>
        <time>2022-07-31T07:42:43Z</time>
      </trkpt>
      <trkpt lat="46.16811" lon="6.66208">
        <ele>1560</ele>
        <time>2022-07-31T07:42:44Z</time>
      </trkpt>
      <trkpt lat="46.16812" lon="6.6621">
        <ele>1560</ele>
        <time>2022-07-31T07:42:45Z</time>
      </trkpt>
      <trkpt lat="46.16813" lon="6.66212">
        <ele>1560</ele>
        <time>2022-07-31T07:42:46Z</time>
      </trkpt>
      <trkpt lat="46.16813" lon="6.66214">
        <ele>1560</ele>
        <time>2022-07-31T07:42:47Z</time>
      </trkpt>
      <trkpt lat="46.16814" lon="6.66216">
        <ele>1560</ele>
        <time>2022-07-31T07:42:48Z</time>
      </trkpt>
      <trkpt lat="46.16816" lon="6.66219">
        <ele>1560</ele>
        <time>2022-07-31T07:42:49Z</time>
      </trkpt>
      <trkpt lat="46.16817" lon="6.66221">
        <ele>1560</ele>
        <time>2022-07-31T07:42:50Z</time>
      </trkpt>
      <trkpt lat="46.16818" lon="6.66222">
        <ele>1560</ele>
        <time>2022-07-31T07:42:51Z</time>
      </trkpt>
      <trkpt lat="46.16818" lon="6.66225">
        <ele>1560</ele>
        <time>2022-07-31T07:42:52Z</time>
      </trkpt>
      <trkpt lat="46.16819" lon="6.66227">
        <ele>1560</ele>
        <time>2022-07-31T07:42:53Z</time>
      </trkpt>
      <trkpt lat="46.1682" lon="6.66228">
        <ele>1560</ele>
        <time>2022-07-31T07:42:54Z</time>
      </trkpt>
      <trkpt lat="46.16821" lon="6.6623">
        <ele>1560</ele>
        <time>2022-07-31T07:42:55Z</time>
      </trkpt>
      <trkpt lat="46.16822" lon="6.66231">
        <ele>1559</ele>
        <time>2022-07-31T07:42:56Z</time>
      </trkpt>
      <trkpt lat="46.16824" lon="6.66232">
        <ele>1559</ele>
        <time>2022-07-31T07:42:57Z</time>
      </trkpt>
      <trkpt lat="46.16825" lon="6.66233">
        <ele>1559</ele>
        <time>2022-07-31T07:42:58Z</time>
      </trkpt>
      <trkpt lat="46.16825" lon="6.66233">
        <ele>1559</ele>
        <time>2022-07-31T07:42:59Z</time>
      </trkpt>
      <trkpt lat="46.16826" lon="6.66233">
        <ele>1559</ele>
        <time>2022-07-31T07:43:00Z</time>
      </trkpt>
      <trkpt lat="46.16827" lon="6.66233">
        <ele>1559</ele>
        <time>2022-07-31T07:43:01Z</time>
      </trkpt>
      <trkpt lat="46.16827" lon="6.66234">
        <ele>1559</ele>
        <time>2022-07-31T07:43:02Z</time>
      </trkpt>
      <trkpt lat="46.16827" lon="6.66236">
        <ele>1559</ele>
        <time>2022-07-31T07:43:03Z</time>
      </trkpt>
      <trkpt lat="46.16828" lon="6.66239">
        <ele>1559</ele>
        <time>2022-07-31T07:43:04Z</time>
      </trkpt>
      <trkpt lat="46.16828" lon="6.66241">
        <ele>1559</ele>
        <time>2022-07-31T07:43:05Z</time>
      </trkpt>
      <trkpt lat="46.16829" lon="6.66243">
        <ele>1559</ele>
        <time>2022-07-31T07:43:06Z</time>
      </trkpt>
      <trkpt lat="46.1683" lon="6.66245">
        <ele>1559</ele>
        <time>2022-07-31T07:43:07Z</time>
      </trkpt>
      <trkpt lat="46.1683" lon="6.66246">
        <ele>1559</ele>
        <time>2022-07-31T07:43:08Z</time>
      </trkpt>
      <trkpt lat="46.16831" lon="6.66247">
        <ele>1559</ele>
        <time>2022-07-31T07:43:09Z</time>
      </trkpt>
      <trkpt lat="46.16831" lon="6.66249">
        <ele>1559</ele>
        <time>2022-07-31T07:43:10Z</time>
      </trkpt>
      <trkpt lat="46.16831" lon="6.66251">
        <ele>1559</ele>
        <time>2022-07-31T07:43:11Z</time>
      </trkpt>
      <trkpt lat="46.16832" lon="6.66253">
        <ele>1559</ele>
        <time>2022-07-31T07:43:12Z</time>
      </trkpt>
      <trkpt lat="46.16832" lon="6.66255">
        <ele>1559</ele>
        <time>2022-07-31T07:43:13Z</time>
      </trkpt>
      <trkpt lat="46.16833" lon="6.66257">
        <ele>1559</ele>
        <time>2022-07-31T07:43:14Z</time>
      </trkpt>
      <trkpt lat="46.16833" lon="6.66258">
        <ele>1559</ele>
        <time>2022-07-31T07:43:15Z</time>
      </trkpt>
      <trkpt lat="46.16834" lon="6.66259">
        <ele>1559</ele>
        <time>2022-07-31T07:43:16Z</time>
      </trkpt>
      <trkpt lat="46.16834" lon="6.66261">
        <ele>1560</ele>
        <time>2022-07-31T07:43:17Z</time>
      </trkpt>
      <trkpt lat="46.16835" lon="6.66263">
        <ele>1560</ele>
        <time>2022-07-31T07:43:18Z</time>
      </trkpt>
      <trkpt lat="46.16836" lon="6.66264">
        <ele>1560</ele>
        <time>2022-07-31T07:43:19Z</time>
      </trkpt>
      <trkpt lat="46.16838" lon="6.66266">
        <ele>1560</ele>
        <time>2022-07-31T07:43:20Z</time>
      </trkpt>
      <trkpt lat="46.16839" lon="6.66268">
        <ele>1560</ele>
        <time>2022-07-31T07:43:21Z</time>
      </trkpt>
      <trkpt lat="46.16839" lon="6.66269">
        <ele>1560</ele>
        <time>2022-07-31T07:43:22Z</time>
      </trkpt>
      <trkpt lat="46.1684" lon="6.66271">
        <ele>1560</ele>
        <time>2022-07-31T07:43:23Z</time>
      </trkpt>
      <trkpt lat="46.1684" lon="6.66273">
        <ele>1560</ele>
        <time>2022-07-31T07:43:24Z</time>
      </trkpt>
      <trkpt lat="46.1684" lon="6.66274">
        <ele>1560</ele>
        <time>2022-07-31T07:43:25Z</time>
      </trkpt>
      <trkpt lat="46.1684" lon="6.66276">
        <ele>1560</ele>
        <time>2022-07-31T07:43:26Z</time>
      </trkpt>
      <trkpt lat="46.16841" lon="6.66278">
        <ele>1560</ele>
        <time>2022-07-31T07:43:27Z</time>
      </trkpt>
      <trkpt lat="46.16841" lon="6.6628">
        <ele>1560</ele>
        <time>2022-07-31T07:43:28Z</time>
      </trkpt>
      <trkpt lat="46.16842" lon="6.66282">
        <ele>1560</ele>
        <time>2022-07-31T07:43:29Z</time>
      </trkpt>
      <trkpt lat="46.16843" lon="6.66284">
        <ele>1560</ele>
        <time>2022-07-31T07:43:30Z</time>
      </trkpt>
      <trkpt lat="46.16843" lon="6.66285">
        <ele>1560</ele>
        <time>2022-07-31T07:43:31Z</time>
      </trkpt>
      <trkpt lat="46.16845" lon="6.66286">
        <ele>1560</ele>
        <time>2022-07-31T07:43:32Z</time>
      </trkpt>
      <trkpt lat="46.16845" lon="6.66287">
        <ele>1560</ele>
        <time>2022-07-31T07:43:33Z</time>
      </trkpt>
      <trkpt lat="46.16846" lon="6.66288">
        <ele>1560</ele>
        <time>2022-07-31T07:43:34Z</time>
      </trkpt>
      <trkpt lat="46.16846" lon="6.66289">
        <ele>1560</ele>
        <time>2022-07-31T07:43:35Z</time>
      </trkpt>
      <trkpt lat="46.16847" lon="6.6629">
        <ele>1560</ele>
        <time>2022-07-31T07:43:36Z</time>
      </trkpt>
      <trkpt lat="46.16847" lon="6.66291">
        <ele>1560</ele>
        <time>2022-07-31T07:43:37Z</time>
      </trkpt>
      <trkpt lat="46.16847" lon="6.66293">
        <ele>1560</ele>
        <time>2022-07-31T07:43:38Z</time>
      </trkpt>
      <trkpt lat="46.16848" lon="6.66295">
        <ele>1560</ele>
        <time>2022-07-31T07:43:39Z</time>
      </trkpt>
      <trkpt lat="46.16848" lon="6.66297">
        <ele>1560</ele>
        <time>2022-07-31T07:43:40Z</time>
      </trkpt>
      <trkpt lat="46.16849" lon="6.66298">
        <ele>1560</ele>
        <time>2022-07-31T07:43:41Z</time>
      </trkpt>
      <trkpt lat="46.1685" lon="6.66299">
        <ele>1560</ele>
        <time>2022-07-31T07:43:42Z</time>
      </trkpt>
      <trkpt lat="46.16851" lon="6.663">
        <ele>1560</ele>
        <time>2022-07-31T07:43:43Z</time>
      </trkpt>
      <trkpt lat="46.16851" lon="6.66301">
        <ele>1560</ele>
        <time>2022-07-31T07:43:44Z</time>
      </trkpt>
      <trkpt lat="46.16851" lon="6.66302">
        <ele>1560</ele>
        <time>2022-07-31T07:43:45Z</time>
      </trkpt>
      <trkpt lat="46.16852" lon="6.66304">
        <ele>1560</ele>
        <time>2022-07-31T07:43:46Z</time>
      </trkpt>
      <trkpt lat="46.16853" lon="6.66305">
        <ele>1560</ele>
        <time>2022-07-31T07:43:47Z</time>
      </trkpt>
      <trkpt lat="46.16853" lon="6.66306">
        <ele>1560</ele>
        <time>2022-07-31T07:43:48Z</time>
      </trkpt>
      <trkpt lat="46.16853" lon="6.66308">
        <ele>1560</ele>
        <time>2022-07-31T07:43:49Z</time>
      </trkpt>
      <trkpt lat="46.16854" lon="6.6631">
        <ele>1560</ele>
        <time>2022-07-31T07:43:50Z</time>
      </trkpt>
      <trkpt lat="46.16854" lon="6.66311">
        <ele>1560</ele>
        <time>2022-07-31T07:43:51Z</time>
      </trkpt>
      <trkpt lat="46.16855" lon="6.66312">
        <ele>1560</ele>
        <time>2022-07-31T07:43:52Z</time>
      </trkpt>
      <trkpt lat="46.16855" lon="6.66314">
        <ele>1560</ele>
        <time>2022-07-31T07:43:53Z</time>
      </trkpt>
      <trkpt lat="46.16856" lon="6.66316">
        <ele>1560</ele>
        <time>2022-07-31T07:43:54Z</time>
      </trkpt>
      <trkpt lat="46.16856" lon="6.66318">
        <ele>1560</ele>
        <time>2022-07-31T07:43:55Z</time>
      </trkpt>
      <trkpt lat="46.16857" lon="6.6632">
        <ele>1560</ele>
        <time>2022-07-31T07:43:56Z</time>
      </trkpt>
      <trkpt lat="46.16857" lon="6.66323">
        <ele>1560</ele>
        <time>2022-07-31T07:43:57Z</time>
      </trkpt>
      <trkpt lat="46.16858" lon="6.66326">
        <ele>1560</ele>
        <time>2022-07-31T07:43:58Z</time>
      </trkpt>
      <trkpt lat="46.16859" lon="6.66328">
        <ele>1560</ele>
        <time>2022-07-31T07:43:59Z</time>
      </trkpt>
      <trkpt lat="46.1686" lon="6.6633">
        <ele>1560</ele>
        <time>2022-07-31T07:44:00Z</time>
      </trkpt>
      <trkpt lat="46.1686" lon="6.66331">
        <ele>1560</ele>
        <time>2022-07-31T07:44:01Z</time>
      </trkpt>
      <trkpt lat="46.16861" lon="6.66334">
        <ele>1560</ele>
        <time>2022-07-31T07:44:02Z</time>
      </trkpt>
      <trkpt lat="46.16861" lon="6.66336">
        <ele>1560</ele>
        <time>2022-07-31T07:44:03Z</time>
      </trkpt>
      <trkpt lat="46.16861" lon="6.66338">
        <ele>1560</ele>
        <time>2022-07-31T07:44:04Z</time>
      </trkpt>
      <trkpt lat="46.16862" lon="6.6634">
        <ele>1560</ele>
        <time>2022-07-31T07:44:05Z</time>
      </trkpt>
      <trkpt lat="46.16862" lon="6.66342">
        <ele>1560</ele>
        <time>2022-07-31T07:44:06Z</time>
      </trkpt>
      <trkpt lat="46.16863" lon="6.66343">
        <ele>1560</ele>
        <time>2022-07-31T07:44:07Z</time>
      </trkpt>
      <trkpt lat="46.16863" lon="6.66344">
        <ele>1560</ele>
        <time>2022-07-31T07:44:08Z</time>
      </trkpt>
      <trkpt lat="46.16864" lon="6.66346">
        <ele>1559</ele>
        <time>2022-07-31T07:44:09Z</time>
      </trkpt>
      <trkpt lat="46.16865" lon="6.66347">
        <ele>1559</ele>
        <time>2022-07-31T07:44:10Z</time>
      </trkpt>
      <trkpt lat="46.16865" lon="6.66348">
        <ele>1559</ele>
        <time>2022-07-31T07:44:11Z</time>
      </trkpt>
      <trkpt lat="46.16865" lon="6.6635">
        <ele>1559</ele>
        <time>2022-07-31T07:44:12Z</time>
      </trkpt>
      <trkpt lat="46.16867" lon="6.66352">
        <ele>1559</ele>
        <time>2022-07-31T07:44:13Z</time>
      </trkpt>
      <trkpt lat="46.16867" lon="6.66354">
        <ele>1559</ele>
        <time>2022-07-31T07:44:14Z</time>
      </trkpt>
      <trkpt lat="46.16867" lon="6.66356">
        <ele>1559</ele>
        <time>2022-07-31T07:44:15Z</time>
      </trkpt>
      <trkpt lat="46.16867" lon="6.66358">
        <ele>1559</ele>
        <time>2022-07-31T07:44:16Z</time>
      </trkpt>
      <trkpt lat="46.16867" lon="6.66361">
        <ele>1559</ele>
        <time>2022-07-31T07:44:17Z</time>
      </trkpt>
      <trkpt lat="46.16868" lon="6.66362">
        <ele>1558</ele>
        <time>2022-07-31T07:44:18Z</time>
      </trkpt>
      <trkpt lat="46.16868" lon="6.66364">
        <ele>1558</ele>
        <time>2022-07-31T07:44:19Z</time>
      </trkpt>
      <trkpt lat="46.16869" lon="6.66366">
        <ele>1558</ele>
        <time>2022-07-31T07:44:20Z</time>
      </trkpt>
      <trkpt lat="46.1687" lon="6.66368">
        <ele>1558</ele>
        <time>2022-07-31T07:44:21Z</time>
      </trkpt>
      <trkpt lat="46.16871" lon="6.6637">
        <ele>1558</ele>
        <time>2022-07-31T07:44:22Z</time>
      </trkpt>
      <trkpt lat="46.16872" lon="6.66372">
        <ele>1558</ele>
        <time>2022-07-31T07:44:23Z</time>
      </trkpt>
      <trkpt lat="46.16874" lon="6.66373">
        <ele>1558</ele>
        <time>2022-07-31T07:44:24Z</time>
      </trkpt>
      <trkpt lat="46.16874" lon="6.66375">
        <ele>1558</ele>
        <time>2022-07-31T07:44:25Z</time>
      </trkpt>
      <trkpt lat="46.16875" lon="6.66376">
        <ele>1557</ele>
        <time>2022-07-31T07:44:26Z</time>
      </trkpt>
      <trkpt lat="46.16876" lon="6.66377">
        <ele>1557</ele>
        <time>2022-07-31T07:44:27Z</time>
      </trkpt>
      <trkpt lat="46.16877" lon="6.66378">
        <ele>1557</ele>
        <time>2022-07-31T07:44:28Z</time>
      </trkpt>
      <trkpt lat="46.16879" lon="6.66379">
        <ele>1557</ele>
        <time>2022-07-31T07:44:29Z</time>
      </trkpt>
      <trkpt lat="46.1688" lon="6.6638">
        <ele>1557</ele>
        <time>2022-07-31T07:44:30Z</time>
      </trkpt>
      <trkpt lat="46.16882" lon="6.6638">
        <ele>1557</ele>
        <time>2022-07-31T07:44:31Z</time>
      </trkpt>
      <trkpt lat="46.16883" lon="6.66381">
        <ele>1557</ele>
        <time>2022-07-31T07:44:32Z</time>
      </trkpt>
      <trkpt lat="46.16884" lon="6.66382">
        <ele>1557</ele>
        <time>2022-07-31T07:44:33Z</time>
      </trkpt>
      <trkpt lat="46.16885" lon="6.66383">
        <ele>1557</ele>
        <time>2022-07-31T07:44:34Z</time>
      </trkpt>
      <trkpt lat="46.16885" lon="6.66385">
        <ele>1557</ele>
        <time>2022-07-31T07:44:35Z</time>
      </trkpt>
      <trkpt lat="46.16886" lon="6.66387">
        <ele>1557</ele>
        <time>2022-07-31T07:44:36Z</time>
      </trkpt>
      <trkpt lat="46.16886" lon="6.66388">
        <ele>1557</ele>
        <time>2022-07-31T07:44:37Z</time>
      </trkpt>
      <trkpt lat="46.16887" lon="6.66389">
        <ele>1557</ele>
        <time>2022-07-31T07:44:38Z</time>
      </trkpt>
      <trkpt lat="46.16888" lon="6.66389">
        <ele>1557</ele>
        <time>2022-07-31T07:44:39Z</time>
      </trkpt>
      <trkpt lat="46.1689" lon="6.6639">
        <ele>1557</ele>
        <time>2022-07-31T07:44:40Z</time>
      </trkpt>
      <trkpt lat="46.16891" lon="6.66391">
        <ele>1557</ele>
        <time>2022-07-31T07:44:41Z</time>
      </trkpt>
      <trkpt lat="46.16892" lon="6.66392">
        <ele>1557</ele>
        <time>2022-07-31T07:44:42Z</time>
      </trkpt>
      <trkpt lat="46.16892" lon="6.66392">
        <ele>1557</ele>
        <time>2022-07-31T07:44:43Z</time>
      </trkpt>
      <trkpt lat="46.16893" lon="6.66393">
        <ele>1557</ele>
        <time>2022-07-31T07:44:44Z</time>
      </trkpt>
      <trkpt lat="46.16894" lon="6.66394">
        <ele>1557</ele>
        <time>2022-07-31T07:44:45Z</time>
      </trkpt>
      <trkpt lat="46.16897" lon="6.66394">
        <ele>1557</ele>
        <time>2022-07-31T07:44:46Z</time>
      </trkpt>
      <trkpt lat="46.16898" lon="6.66395">
        <ele>1557</ele>
        <time>2022-07-31T07:44:47Z</time>
      </trkpt>
      <trkpt lat="46.16899" lon="6.66396">
        <ele>1557</ele>
        <time>2022-07-31T07:44:48Z</time>
      </trkpt>
      <trkpt lat="46.169" lon="6.66397">
        <ele>1557</ele>
        <time>2022-07-31T07:44:49Z</time>
      </trkpt>
      <trkpt lat="46.16902" lon="6.66398">
        <ele>1557</ele>
        <time>2022-07-31T07:44:50Z</time>
      </trkpt>
      <trkpt lat="46.16902" lon="6.66398">
        <ele>1558</ele>
        <time>2022-07-31T07:44:51Z</time>
      </trkpt>
      <trkpt lat="46.16904" lon="6.66399">
        <ele>1558</ele>
        <time>2022-07-31T07:44:52Z</time>
      </trkpt>
      <trkpt lat="46.16905" lon="6.66401">
        <ele>1558</ele>
        <time>2022-07-31T07:44:53Z</time>
      </trkpt>
      <trkpt lat="46.16906" lon="6.66401">
        <ele>1558</ele>
        <time>2022-07-31T07:44:54Z</time>
      </trkpt>
      <trkpt lat="46.16907" lon="6.66402">
        <ele>1557</ele>
        <time>2022-07-31T07:44:55Z</time>
      </trkpt>
      <trkpt lat="46.16908" lon="6.66402">
        <ele>1557</ele>
        <time>2022-07-31T07:44:56Z</time>
      </trkpt>
      <trkpt lat="46.1691" lon="6.66403">
        <ele>1557</ele>
        <time>2022-07-31T07:44:57Z</time>
      </trkpt>
      <trkpt lat="46.16911" lon="6.66404">
        <ele>1557</ele>
        <time>2022-07-31T07:44:58Z</time>
      </trkpt>
      <trkpt lat="46.16913" lon="6.66404">
        <ele>1557</ele>
        <time>2022-07-31T07:44:59Z</time>
      </trkpt>
      <trkpt lat="46.16914" lon="6.66405">
        <ele>1557</ele>
        <time>2022-07-31T07:45:00Z</time>
      </trkpt>
      <trkpt lat="46.16916" lon="6.66405">
        <ele>1557</ele>
        <time>2022-07-31T07:45:01Z</time>
      </trkpt>
      <trkpt lat="46.16917" lon="6.66406">
        <ele>1557</ele>
        <time>2022-07-31T07:45:02Z</time>
      </trkpt>
      <trkpt lat="46.1692" lon="6.66406">
        <ele>1558</ele>
        <time>2022-07-31T07:45:03Z</time>
      </trkpt>
      <trkpt lat="46.16921" lon="6.66406">
        <ele>1558</ele>
        <time>2022-07-31T07:45:04Z</time>
      </trkpt>
      <trkpt lat="46.16922" lon="6.66406">
        <ele>1558</ele>
        <time>2022-07-31T07:45:05Z</time>
      </trkpt>
      <trkpt lat="46.16923" lon="6.66406">
        <ele>1558</ele>
        <time>2022-07-31T07:45:06Z</time>
      </trkpt>
      <trkpt lat="46.16924" lon="6.66408">
        <ele>1558</ele>
        <time>2022-07-31T07:45:07Z</time>
      </trkpt>
      <trkpt lat="46.16926" lon="6.66408">
        <ele>1557</ele>
        <time>2022-07-31T07:45:08Z</time>
      </trkpt>
      <trkpt lat="46.16927" lon="6.66408">
        <ele>1557</ele>
        <time>2022-07-31T07:45:09Z</time>
      </trkpt>
      <trkpt lat="46.16928" lon="6.66409">
        <ele>1557</ele>
        <time>2022-07-31T07:45:10Z</time>
      </trkpt>
      <trkpt lat="46.16929" lon="6.6641">
        <ele>1557</ele>
        <time>2022-07-31T07:45:11Z</time>
      </trkpt>
      <trkpt lat="46.1693" lon="6.66411">
        <ele>1557</ele>
        <time>2022-07-31T07:45:12Z</time>
      </trkpt>
      <trkpt lat="46.16931" lon="6.66412">
        <ele>1557</ele>
        <time>2022-07-31T07:45:13Z</time>
      </trkpt>
      <trkpt lat="46.16931" lon="6.66412">
        <ele>1557</ele>
        <time>2022-07-31T07:45:14Z</time>
      </trkpt>
      <trkpt lat="46.16933" lon="6.66413">
        <ele>1557</ele>
        <time>2022-07-31T07:45:15Z</time>
      </trkpt>
      <trkpt lat="46.16934" lon="6.66415">
        <ele>1556</ele>
        <time>2022-07-31T07:45:16Z</time>
      </trkpt>
      <trkpt lat="46.16935" lon="6.66416">
        <ele>1556</ele>
        <time>2022-07-31T07:45:17Z</time>
      </trkpt>
      <trkpt lat="46.16936" lon="6.66418">
        <ele>1556</ele>
        <time>2022-07-31T07:45:18Z</time>
      </trkpt>
      <trkpt lat="46.16938" lon="6.6642">
        <ele>1556</ele>
        <time>2022-07-31T07:45:19Z</time>
      </trkpt>
      <trkpt lat="46.16939" lon="6.66421">
        <ele>1555</ele>
        <time>2022-07-31T07:45:20Z</time>
      </trkpt>
      <trkpt lat="46.16939" lon="6.66421">
        <ele>1555</ele>
        <time>2022-07-31T07:45:21Z</time>
      </trkpt>
      <trkpt lat="46.16941" lon="6.66423">
        <ele>1555</ele>
        <time>2022-07-31T07:45:22Z</time>
      </trkpt>
      <trkpt lat="46.16942" lon="6.66426">
        <ele>1555</ele>
        <time>2022-07-31T07:45:23Z</time>
      </trkpt>
      <trkpt lat="46.16942" lon="6.66427">
        <ele>1555</ele>
        <time>2022-07-31T07:45:24Z</time>
      </trkpt>
      <trkpt lat="46.16943" lon="6.66428">
        <ele>1554</ele>
        <time>2022-07-31T07:45:25Z</time>
      </trkpt>
      <trkpt lat="46.16944" lon="6.66429">
        <ele>1554</ele>
        <time>2022-07-31T07:45:26Z</time>
      </trkpt>
      <trkpt lat="46.16945" lon="6.66431">
        <ele>1554</ele>
        <time>2022-07-31T07:45:27Z</time>
      </trkpt>
      <trkpt lat="46.16945" lon="6.66432">
        <ele>1554</ele>
        <time>2022-07-31T07:45:28Z</time>
      </trkpt>
      <trkpt lat="46.16946" lon="6.66433">
        <ele>1554</ele>
        <time>2022-07-31T07:45:29Z</time>
      </trkpt>
      <trkpt lat="46.16946" lon="6.66433">
        <ele>1554</ele>
        <time>2022-07-31T07:45:30Z</time>
      </trkpt>
      <trkpt lat="46.16948" lon="6.66434">
        <ele>1554</ele>
        <time>2022-07-31T07:45:31Z</time>
      </trkpt>
      <trkpt lat="46.16948" lon="6.66434">
        <ele>1554</ele>
        <time>2022-07-31T07:45:32Z</time>
      </trkpt>
      <trkpt lat="46.16949" lon="6.66435">
        <ele>1554</ele>
        <time>2022-07-31T07:45:33Z</time>
      </trkpt>
      <trkpt lat="46.1695" lon="6.66437">
        <ele>1554</ele>
        <time>2022-07-31T07:45:34Z</time>
      </trkpt>
      <trkpt lat="46.1695" lon="6.66439">
        <ele>1553</ele>
        <time>2022-07-31T07:45:35Z</time>
      </trkpt>
      <trkpt lat="46.16951" lon="6.66441">
        <ele>1553</ele>
        <time>2022-07-31T07:45:36Z</time>
      </trkpt>
      <trkpt lat="46.16951" lon="6.66443">
        <ele>1553</ele>
        <time>2022-07-31T07:45:37Z</time>
      </trkpt>
      <trkpt lat="46.16952" lon="6.66445">
        <ele>1553</ele>
        <time>2022-07-31T07:45:38Z</time>
      </trkpt>
      <trkpt lat="46.16952" lon="6.66446">
        <ele>1553</ele>
        <time>2022-07-31T07:45:39Z</time>
      </trkpt>
      <trkpt lat="46.16952" lon="6.66447">
        <ele>1553</ele>
        <time>2022-07-31T07:45:40Z</time>
      </trkpt>
      <trkpt lat="46.16953" lon="6.6645">
        <ele>1553</ele>
        <time>2022-07-31T07:45:41Z</time>
      </trkpt>
      <trkpt lat="46.16954" lon="6.66452">
        <ele>1552</ele>
        <time>2022-07-31T07:45:42Z</time>
      </trkpt>
      <trkpt lat="46.16955" lon="6.66453">
        <ele>1552</ele>
        <time>2022-07-31T07:45:43Z</time>
      </trkpt>
      <trkpt lat="46.16955" lon="6.66454">
        <ele>1552</ele>
        <time>2022-07-31T07:45:44Z</time>
      </trkpt>
      <trkpt lat="46.16956" lon="6.66455">
        <ele>1552</ele>
        <time>2022-07-31T07:45:45Z</time>
      </trkpt>
      <trkpt lat="46.16957" lon="6.66455">
        <ele>1552</ele>
        <time>2022-07-31T07:45:46Z</time>
      </trkpt>
      <trkpt lat="46.16957" lon="6.66456">
        <ele>1552</ele>
        <time>2022-07-31T07:45:47Z</time>
      </trkpt>
      <trkpt lat="46.16958" lon="6.66458">
        <ele>1551</ele>
        <time>2022-07-31T07:45:48Z</time>
      </trkpt>
      <trkpt lat="46.16958" lon="6.6646">
        <ele>1551</ele>
        <time>2022-07-31T07:45:49Z</time>
      </trkpt>
      <trkpt lat="46.16959" lon="6.66461">
        <ele>1551</ele>
        <time>2022-07-31T07:45:50Z</time>
      </trkpt>
      <trkpt lat="46.1696" lon="6.66463">
        <ele>1551</ele>
        <time>2022-07-31T07:45:51Z</time>
      </trkpt>
      <trkpt lat="46.16961" lon="6.66464">
        <ele>1551</ele>
        <time>2022-07-31T07:45:52Z</time>
      </trkpt>
      <trkpt lat="46.16962" lon="6.66466">
        <ele>1551</ele>
        <time>2022-07-31T07:45:53Z</time>
      </trkpt>
      <trkpt lat="46.16962" lon="6.66468">
        <ele>1551</ele>
        <time>2022-07-31T07:45:54Z</time>
      </trkpt>
      <trkpt lat="46.16963" lon="6.6647">
        <ele>1550</ele>
        <time>2022-07-31T07:45:55Z</time>
      </trkpt>
      <trkpt lat="46.16963" lon="6.66473">
        <ele>1550</ele>
        <time>2022-07-31T07:45:56Z</time>
      </trkpt>
      <trkpt lat="46.16964" lon="6.66475">
        <ele>1550</ele>
        <time>2022-07-31T07:45:57Z</time>
      </trkpt>
      <trkpt lat="46.16964" lon="6.66477">
        <ele>1550</ele>
        <time>2022-07-31T07:45:58Z</time>
      </trkpt>
      <trkpt lat="46.16965" lon="6.66479">
        <ele>1549</ele>
        <time>2022-07-31T07:45:59Z</time>
      </trkpt>
      <trkpt lat="46.16965" lon="6.66481">
        <ele>1549</ele>
        <time>2022-07-31T07:46:00Z</time>
      </trkpt>
      <trkpt lat="46.16965" lon="6.66481">
        <ele>1549</ele>
        <time>2022-07-31T07:46:01Z</time>
      </trkpt>
      <trkpt lat="46.16966" lon="6.66481">
        <ele>1548</ele>
        <time>2022-07-31T07:46:02Z</time>
      </trkpt>
      <trkpt lat="46.16966" lon="6.66482">
        <ele>1548</ele>
        <time>2022-07-31T07:46:03Z</time>
      </trkpt>
      <trkpt lat="46.16967" lon="6.66482">
        <ele>1548</ele>
        <time>2022-07-31T07:46:04Z</time>
      </trkpt>
      <trkpt lat="46.16967" lon="6.66483">
        <ele>1548</ele>
        <time>2022-07-31T07:46:05Z</time>
      </trkpt>
      <trkpt lat="46.16967" lon="6.66484">
        <ele>1548</ele>
        <time>2022-07-31T07:46:06Z</time>
      </trkpt>
      <trkpt lat="46.16967" lon="6.66484">
        <ele>1547</ele>
        <time>2022-07-31T07:46:07Z</time>
      </trkpt>
      <trkpt lat="46.16968" lon="6.66485">
        <ele>1547</ele>
        <time>2022-07-31T07:46:08Z</time>
      </trkpt>
      <trkpt lat="46.16968" lon="6.66485">
        <ele>1547</ele>
        <time>2022-07-31T07:46:09Z</time>
      </trkpt>
      <trkpt lat="46.16968" lon="6.66487">
        <ele>1547</ele>
        <time>2022-07-31T07:46:10Z</time>
      </trkpt>
      <trkpt lat="46.1697" lon="6.66488">
        <ele>1547</ele>
        <time>2022-07-31T07:46:11Z</time>
      </trkpt>
      <trkpt lat="46.16971" lon="6.66489">
        <ele>1546</ele>
        <time>2022-07-31T07:46:12Z</time>
      </trkpt>
      <trkpt lat="46.16972" lon="6.66491">
        <ele>1546</ele>
        <time>2022-07-31T07:46:13Z</time>
      </trkpt>
      <trkpt lat="46.16973" lon="6.66492">
        <ele>1546</ele>
        <time>2022-07-31T07:46:14Z</time>
      </trkpt>
      <trkpt lat="46.16974" lon="6.66492">
        <ele>1545</ele>
        <time>2022-07-31T07:46:15Z</time>
      </trkpt>
      <trkpt lat="46.16976" lon="6.66494">
        <ele>1545</ele>
        <time>2022-07-31T07:46:16Z</time>
      </trkpt>
      <trkpt lat="46.16977" lon="6.66495">
        <ele>1545</ele>
        <time>2022-07-31T07:46:17Z</time>
      </trkpt>
      <trkpt lat="46.16978" lon="6.66496">
        <ele>1545</ele>
        <time>2022-07-31T07:46:18Z</time>
      </trkpt>
      <trkpt lat="46.16978" lon="6.66497">
        <ele>1545</ele>
        <time>2022-07-31T07:46:19Z</time>
      </trkpt>
      <trkpt lat="46.16979" lon="6.66497">
        <ele>1544</ele>
        <time>2022-07-31T07:46:20Z</time>
      </trkpt>
      <trkpt lat="46.1698" lon="6.66498">
        <ele>1544</ele>
        <time>2022-07-31T07:46:21Z</time>
      </trkpt>
      <trkpt lat="46.1698" lon="6.66498">
        <ele>1544</ele>
        <time>2022-07-31T07:46:22Z</time>
      </trkpt>
      <trkpt lat="46.16981" lon="6.66499">
        <ele>1544</ele>
        <time>2022-07-31T07:46:23Z</time>
      </trkpt>
      <trkpt lat="46.16983" lon="6.66499">
        <ele>1544</ele>
        <time>2022-07-31T07:46:24Z</time>
      </trkpt>
      <trkpt lat="46.16985" lon="6.66498">
        <ele>1544</ele>
        <time>2022-07-31T07:46:25Z</time>
      </trkpt>
      <trkpt lat="46.16986" lon="6.66498">
        <ele>1544</ele>
        <time>2022-07-31T07:46:26Z</time>
      </trkpt>
      <trkpt lat="46.16986" lon="6.66496">
        <ele>1544</ele>
        <time>2022-07-31T07:46:27Z</time>
      </trkpt>
      <trkpt lat="46.16987" lon="6.66495">
        <ele>1544</ele>
        <time>2022-07-31T07:46:28Z</time>
      </trkpt>
      <trkpt lat="46.16987" lon="6.66495">
        <ele>1544</ele>
        <time>2022-07-31T07:46:29Z</time>
      </trkpt>
      <trkpt lat="46.16986" lon="6.66495">
        <ele>1544</ele>
        <time>2022-07-31T07:46:30Z</time>
      </trkpt>
      <trkpt lat="46.16987" lon="6.66495">
        <ele>1543</ele>
        <time>2022-07-31T07:46:31Z</time>
      </trkpt>
      <trkpt lat="46.16987" lon="6.66495">
        <ele>1543</ele>
        <time>2022-07-31T07:46:32Z</time>
      </trkpt>
      <trkpt lat="46.16988" lon="6.66494">
        <ele>1543</ele>
        <time>2022-07-31T07:46:33Z</time>
      </trkpt>
      <trkpt lat="46.16988" lon="6.66494">
        <ele>1543</ele>
        <time>2022-07-31T07:46:34Z</time>
      </trkpt>
      <trkpt lat="46.16989" lon="6.66493">
        <ele>1543</ele>
        <time>2022-07-31T07:46:35Z</time>
      </trkpt>
      <trkpt lat="46.16991" lon="6.66492">
        <ele>1543</ele>
        <time>2022-07-31T07:46:36Z</time>
      </trkpt>
      <trkpt lat="46.16992" lon="6.66491">
        <ele>1543</ele>
        <time>2022-07-31T07:46:37Z</time>
      </trkpt>
      <trkpt lat="46.16994" lon="6.6649">
        <ele>1543</ele>
        <time>2022-07-31T07:46:38Z</time>
      </trkpt>
      <trkpt lat="46.16994" lon="6.66489">
        <ele>1543</ele>
        <time>2022-07-31T07:46:39Z</time>
      </trkpt>
      <trkpt lat="46.16995" lon="6.66488">
        <ele>1543</ele>
        <time>2022-07-31T07:46:40Z</time>
      </trkpt>
      <trkpt lat="46.16996" lon="6.66487">
        <ele>1543</ele>
        <time>2022-07-31T07:46:41Z</time>
      </trkpt>
      <trkpt lat="46.16996" lon="6.66486">
        <ele>1543</ele>
        <time>2022-07-31T07:46:42Z</time>
      </trkpt>
      <trkpt lat="46.16996" lon="6.66486">
        <ele>1543</ele>
        <time>2022-07-31T07:46:43Z</time>
      </trkpt>
      <trkpt lat="46.16997" lon="6.66484">
        <ele>1543</ele>
        <time>2022-07-31T07:46:44Z</time>
      </trkpt>
      <trkpt lat="46.16997" lon="6.66484">
        <ele>1542</ele>
        <time>2022-07-31T07:46:45Z</time>
      </trkpt>
      <trkpt lat="46.16997" lon="6.66483">
        <ele>1542</ele>
        <time>2022-07-31T07:46:46Z</time>
      </trkpt>
      <trkpt lat="46.16998" lon="6.66482">
        <ele>1542</ele>
        <time>2022-07-31T07:46:47Z</time>
      </trkpt>
      <trkpt lat="46.16999" lon="6.66481">
        <ele>1542</ele>
        <time>2022-07-31T07:46:48Z</time>
      </trkpt>
      <trkpt lat="46.17" lon="6.66479">
        <ele>1542</ele>
        <time>2022-07-31T07:46:49Z</time>
      </trkpt>
      <trkpt lat="46.17001" lon="6.66477">
        <ele>1542</ele>
        <time>2022-07-31T07:46:50Z</time>
      </trkpt>
      <trkpt lat="46.17002" lon="6.66476">
        <ele>1542</ele>
        <time>2022-07-31T07:46:51Z</time>
      </trkpt>
      <trkpt lat="46.17003" lon="6.66474">
        <ele>1542</ele>
        <time>2022-07-31T07:46:52Z</time>
      </trkpt>
      <trkpt lat="46.17004" lon="6.66473">
        <ele>1542</ele>
        <time>2022-07-31T07:46:53Z</time>
      </trkpt>
      <trkpt lat="46.17004" lon="6.66471">
        <ele>1543</ele>
        <time>2022-07-31T07:46:54Z</time>
      </trkpt>
      <trkpt lat="46.17005" lon="6.6647">
        <ele>1543</ele>
        <time>2022-07-31T07:46:55Z</time>
      </trkpt>
      <trkpt lat="46.17005" lon="6.66468">
        <ele>1543</ele>
        <time>2022-07-31T07:46:56Z</time>
      </trkpt>
      <trkpt lat="46.17007" lon="6.66467">
        <ele>1543</ele>
        <time>2022-07-31T07:46:57Z</time>
      </trkpt>
      <trkpt lat="46.17007" lon="6.66467">
        <ele>1543</ele>
        <time>2022-07-31T07:46:58Z</time>
      </trkpt>
      <trkpt lat="46.17008" lon="6.66466">
        <ele>1543</ele>
        <time>2022-07-31T07:46:59Z</time>
      </trkpt>
      <trkpt lat="46.17008" lon="6.66466">
        <ele>1543</ele>
        <time>2022-07-31T07:47:00Z</time>
      </trkpt>
      <trkpt lat="46.17008" lon="6.66464">
        <ele>1543</ele>
        <time>2022-07-31T07:47:01Z</time>
      </trkpt>
      <trkpt lat="46.17008" lon="6.66464">
        <ele>1543</ele>
        <time>2022-07-31T07:47:02Z</time>
      </trkpt>
      <trkpt lat="46.17008" lon="6.66461">
        <ele>1543</ele>
        <time>2022-07-31T07:47:03Z</time>
      </trkpt>
      <trkpt lat="46.17008" lon="6.6646">
        <ele>1543</ele>
        <time>2022-07-31T07:47:04Z</time>
      </trkpt>
      <trkpt lat="46.17009" lon="6.66459">
        <ele>1543</ele>
        <time>2022-07-31T07:47:05Z</time>
      </trkpt>
      <trkpt lat="46.17009" lon="6.66456">
        <ele>1543</ele>
        <time>2022-07-31T07:47:06Z</time>
      </trkpt>
      <trkpt lat="46.1701" lon="6.66455">
        <ele>1543</ele>
        <time>2022-07-31T07:47:07Z</time>
      </trkpt>
      <trkpt lat="46.1701" lon="6.66453">
        <ele>1543</ele>
        <time>2022-07-31T07:47:08Z</time>
      </trkpt>
      <trkpt lat="46.17011" lon="6.66452">
        <ele>1544</ele>
        <time>2022-07-31T07:47:09Z</time>
      </trkpt>
      <trkpt lat="46.17011" lon="6.6645">
        <ele>1544</ele>
        <time>2022-07-31T07:47:10Z</time>
      </trkpt>
      <trkpt lat="46.17011" lon="6.66448">
        <ele>1544</ele>
        <time>2022-07-31T07:47:11Z</time>
      </trkpt>
      <trkpt lat="46.17012" lon="6.66444">
        <ele>1544</ele>
        <time>2022-07-31T07:47:12Z</time>
      </trkpt>
      <trkpt lat="46.17012" lon="6.66441">
        <ele>1544</ele>
        <time>2022-07-31T07:47:13Z</time>
      </trkpt>
      <trkpt lat="46.17012" lon="6.66437">
        <ele>1544</ele>
        <time>2022-07-31T07:47:14Z</time>
      </trkpt>
      <trkpt lat="46.17012" lon="6.66434">
        <ele>1544</ele>
        <time>2022-07-31T07:47:15Z</time>
      </trkpt>
      <trkpt lat="46.17011" lon="6.66432">
        <ele>1544</ele>
        <time>2022-07-31T07:47:16Z</time>
      </trkpt>
      <trkpt lat="46.17011" lon="6.6643">
        <ele>1544</ele>
        <time>2022-07-31T07:47:17Z</time>
      </trkpt>
      <trkpt lat="46.17011" lon="6.66429">
        <ele>1544</ele>
        <time>2022-07-31T07:47:18Z</time>
      </trkpt>
      <trkpt lat="46.17011" lon="6.66426">
        <ele>1544</ele>
        <time>2022-07-31T07:47:19Z</time>
      </trkpt>
      <trkpt lat="46.17011" lon="6.66424">
        <ele>1545</ele>
        <time>2022-07-31T07:47:20Z</time>
      </trkpt>
      <trkpt lat="46.17012" lon="6.66422">
        <ele>1545</ele>
        <time>2022-07-31T07:47:21Z</time>
      </trkpt>
      <trkpt lat="46.17013" lon="6.66422">
        <ele>1545</ele>
        <time>2022-07-31T07:47:22Z</time>
      </trkpt>
      <trkpt lat="46.17013" lon="6.6642">
        <ele>1545</ele>
        <time>2022-07-31T07:47:23Z</time>
      </trkpt>
      <trkpt lat="46.17014" lon="6.66418">
        <ele>1545</ele>
        <time>2022-07-31T07:47:24Z</time>
      </trkpt>
      <trkpt lat="46.17016" lon="6.66417">
        <ele>1545</ele>
        <time>2022-07-31T07:47:25Z</time>
      </trkpt>
      <trkpt lat="46.17016" lon="6.66417">
        <ele>1545</ele>
        <time>2022-07-31T07:47:26Z</time>
      </trkpt>
      <trkpt lat="46.17018" lon="6.66416">
        <ele>1545</ele>
        <time>2022-07-31T07:47:27Z</time>
      </trkpt>
      <trkpt lat="46.17019" lon="6.66416">
        <ele>1545</ele>
        <time>2022-07-31T07:47:28Z</time>
      </trkpt>
      <trkpt lat="46.1702" lon="6.66416">
        <ele>1545</ele>
        <time>2022-07-31T07:47:29Z</time>
      </trkpt>
      <trkpt lat="46.17022" lon="6.66415">
        <ele>1545</ele>
        <time>2022-07-31T07:47:30Z</time>
      </trkpt>
      <trkpt lat="46.17023" lon="6.66414">
        <ele>1545</ele>
        <time>2022-07-31T07:47:31Z</time>
      </trkpt>
      <trkpt lat="46.17025" lon="6.66414">
        <ele>1545</ele>
        <time>2022-07-31T07:47:32Z</time>
      </trkpt>
      <trkpt lat="46.17026" lon="6.66414">
        <ele>1545</ele>
        <time>2022-07-31T07:47:33Z</time>
      </trkpt>
      <trkpt lat="46.17028" lon="6.66414">
        <ele>1545</ele>
        <time>2022-07-31T07:47:34Z</time>
      </trkpt>
      <trkpt lat="46.17029" lon="6.66415">
        <ele>1545</ele>
        <time>2022-07-31T07:47:35Z</time>
      </trkpt>
      <trkpt lat="46.17031" lon="6.66414">
        <ele>1545</ele>
        <time>2022-07-31T07:47:36Z</time>
      </trkpt>
      <trkpt lat="46.17032" lon="6.66414">
        <ele>1545</ele>
        <time>2022-07-31T07:47:37Z</time>
      </trkpt>
      <trkpt lat="46.17034" lon="6.66414">
        <ele>1545</ele>
        <time>2022-07-31T07:47:38Z</time>
      </trkpt>
      <trkpt lat="46.17036" lon="6.66414">
        <ele>1545</ele>
        <time>2022-07-31T07:47:39Z</time>
      </trkpt>
      <trkpt lat="46.17036" lon="6.66414">
        <ele>1544</ele>
        <time>2022-07-31T07:47:40Z</time>
      </trkpt>
      <trkpt lat="46.17037" lon="6.66413">
        <ele>1544</ele>
        <time>2022-07-31T07:47:41Z</time>
      </trkpt>
      <trkpt lat="46.17038" lon="6.66412">
        <ele>1544</ele>
        <time>2022-07-31T07:47:42Z</time>
      </trkpt>
      <trkpt lat="46.17039" lon="6.66412">
        <ele>1544</ele>
        <time>2022-07-31T07:47:43Z</time>
      </trkpt>
      <trkpt lat="46.1704" lon="6.66412">
        <ele>1544</ele>
        <time>2022-07-31T07:47:44Z</time>
      </trkpt>
      <trkpt lat="46.17041" lon="6.6641">
        <ele>1544</ele>
        <time>2022-07-31T07:47:45Z</time>
      </trkpt>
      <trkpt lat="46.17042" lon="6.66409">
        <ele>1544</ele>
        <time>2022-07-31T07:47:46Z</time>
      </trkpt>
      <trkpt lat="46.17044" lon="6.66408">
        <ele>1544</ele>
        <time>2022-07-31T07:47:47Z</time>
      </trkpt>
      <trkpt lat="46.17044" lon="6.66407">
        <ele>1544</ele>
        <time>2022-07-31T07:47:48Z</time>
      </trkpt>
      <trkpt lat="46.17044" lon="6.66407">
        <ele>1544</ele>
        <time>2022-07-31T07:47:49Z</time>
      </trkpt>
      <trkpt lat="46.17045" lon="6.66407">
        <ele>1543</ele>
        <time>2022-07-31T07:47:50Z</time>
      </trkpt>
      <trkpt lat="46.17044" lon="6.66407">
        <ele>1543</ele>
        <time>2022-07-31T07:47:51Z</time>
      </trkpt>
      <trkpt lat="46.17045" lon="6.66406">
        <ele>1543</ele>
        <time>2022-07-31T07:47:52Z</time>
      </trkpt>
      <trkpt lat="46.17046" lon="6.66405">
        <ele>1543</ele>
        <time>2022-07-31T07:47:53Z</time>
      </trkpt>
      <trkpt lat="46.17046" lon="6.66404">
        <ele>1543</ele>
        <time>2022-07-31T07:47:54Z</time>
      </trkpt>
      <trkpt lat="46.17047" lon="6.66403">
        <ele>1543</ele>
        <time>2022-07-31T07:47:55Z</time>
      </trkpt>
      <trkpt lat="46.17048" lon="6.66404">
        <ele>1543</ele>
        <time>2022-07-31T07:47:56Z</time>
      </trkpt>
      <trkpt lat="46.17049" lon="6.66404">
        <ele>1543</ele>
        <time>2022-07-31T07:47:57Z</time>
      </trkpt>
      <trkpt lat="46.17051" lon="6.66402">
        <ele>1542</ele>
        <time>2022-07-31T07:47:58Z</time>
      </trkpt>
      <trkpt lat="46.17052" lon="6.66401">
        <ele>1542</ele>
        <time>2022-07-31T07:47:59Z</time>
      </trkpt>
      <trkpt lat="46.17052" lon="6.66401">
        <ele>1542</ele>
        <time>2022-07-31T07:48:00Z</time>
      </trkpt>
      <trkpt lat="46.17052" lon="6.664">
        <ele>1542</ele>
        <time>2022-07-31T07:48:01Z</time>
      </trkpt>
      <trkpt lat="46.17053" lon="6.66399">
        <ele>1542</ele>
        <time>2022-07-31T07:48:02Z</time>
      </trkpt>
      <trkpt lat="46.17054" lon="6.66399">
        <ele>1541</ele>
        <time>2022-07-31T07:48:03Z</time>
      </trkpt>
      <trkpt lat="46.17054" lon="6.664">
        <ele>1541</ele>
        <time>2022-07-31T07:48:04Z</time>
      </trkpt>
      <trkpt lat="46.17056" lon="6.66401">
        <ele>1541</ele>
        <time>2022-07-31T07:48:05Z</time>
      </trkpt>
      <trkpt lat="46.17057" lon="6.66401">
        <ele>1541</ele>
        <time>2022-07-31T07:48:06Z</time>
      </trkpt>
      <trkpt lat="46.17059" lon="6.664">
        <ele>1541</ele>
        <time>2022-07-31T07:48:07Z</time>
      </trkpt>
      <trkpt lat="46.1706" lon="6.66399">
        <ele>1541</ele>
        <time>2022-07-31T07:48:08Z</time>
      </trkpt>
      <trkpt lat="46.1706" lon="6.66399">
        <ele>1541</ele>
        <time>2022-07-31T07:48:09Z</time>
      </trkpt>
      <trkpt lat="46.17061" lon="6.66399">
        <ele>1541</ele>
        <time>2022-07-31T07:48:10Z</time>
      </trkpt>
      <trkpt lat="46.17061" lon="6.66398">
        <ele>1540</ele>
        <time>2022-07-31T07:48:11Z</time>
      </trkpt>
      <trkpt lat="46.17061" lon="6.66399">
        <ele>1540</ele>
        <time>2022-07-31T07:48:12Z</time>
      </trkpt>
      <trkpt lat="46.17062" lon="6.66398">
        <ele>1540</ele>
        <time>2022-07-31T07:48:13Z</time>
      </trkpt>
      <trkpt lat="46.17062" lon="6.66397">
        <ele>1540</ele>
        <time>2022-07-31T07:48:14Z</time>
      </trkpt>
      <trkpt lat="46.17064" lon="6.66396">
        <ele>1540</ele>
        <time>2022-07-31T07:48:15Z</time>
      </trkpt>
      <trkpt lat="46.17064" lon="6.66397">
        <ele>1540</ele>
        <time>2022-07-31T07:48:16Z</time>
      </trkpt>
      <trkpt lat="46.17065" lon="6.66396">
        <ele>1540</ele>
        <time>2022-07-31T07:48:17Z</time>
      </trkpt>
      <trkpt lat="46.17066" lon="6.66396">
        <ele>1540</ele>
        <time>2022-07-31T07:48:18Z</time>
      </trkpt>
      <trkpt lat="46.17068" lon="6.66395">
        <ele>1540</ele>
        <time>2022-07-31T07:48:19Z</time>
      </trkpt>
      <trkpt lat="46.17069" lon="6.66395">
        <ele>1540</ele>
        <time>2022-07-31T07:48:20Z</time>
      </trkpt>
      <trkpt lat="46.1707" lon="6.66394">
        <ele>1539</ele>
        <time>2022-07-31T07:48:21Z</time>
      </trkpt>
      <trkpt lat="46.1707" lon="6.66394">
        <ele>1539</ele>
        <time>2022-07-31T07:48:22Z</time>
      </trkpt>
      <trkpt lat="46.17071" lon="6.66394">
        <ele>1539</ele>
        <time>2022-07-31T07:48:23Z</time>
      </trkpt>
      <trkpt lat="46.17073" lon="6.66393">
        <ele>1539</ele>
        <time>2022-07-31T07:48:24Z</time>
      </trkpt>
      <trkpt lat="46.17073" lon="6.66393">
        <ele>1539</ele>
        <time>2022-07-31T07:48:25Z</time>
      </trkpt>
      <trkpt lat="46.17074" lon="6.66393">
        <ele>1539</ele>
        <time>2022-07-31T07:48:26Z</time>
      </trkpt>
      <trkpt lat="46.17075" lon="6.66392">
        <ele>1539</ele>
        <time>2022-07-31T07:48:27Z</time>
      </trkpt>
      <trkpt lat="46.17076" lon="6.66393">
        <ele>1539</ele>
        <time>2022-07-31T07:48:28Z</time>
      </trkpt>
      <trkpt lat="46.17077" lon="6.66393">
        <ele>1539</ele>
        <time>2022-07-31T07:48:29Z</time>
      </trkpt>
      <trkpt lat="46.17078" lon="6.66393">
        <ele>1538</ele>
        <time>2022-07-31T07:48:30Z</time>
      </trkpt>
      <trkpt lat="46.17078" lon="6.66393">
        <ele>1538</ele>
        <time>2022-07-31T07:48:31Z</time>
      </trkpt>
      <trkpt lat="46.1708" lon="6.66392">
        <ele>1538</ele>
        <time>2022-07-31T07:48:32Z</time>
      </trkpt>
      <trkpt lat="46.17082" lon="6.66391">
        <ele>1538</ele>
        <time>2022-07-31T07:48:33Z</time>
      </trkpt>
      <trkpt lat="46.17083" lon="6.66391">
        <ele>1538</ele>
        <time>2022-07-31T07:48:34Z</time>
      </trkpt>
      <trkpt lat="46.17084" lon="6.6639">
        <ele>1538</ele>
        <time>2022-07-31T07:48:35Z</time>
      </trkpt>
      <trkpt lat="46.17084" lon="6.66389">
        <ele>1538</ele>
        <time>2022-07-31T07:48:36Z</time>
      </trkpt>
      <trkpt lat="46.17085" lon="6.66389">
        <ele>1537</ele>
        <time>2022-07-31T07:48:37Z</time>
      </trkpt>
      <trkpt lat="46.17086" lon="6.66389">
        <ele>1537</ele>
        <time>2022-07-31T07:48:38Z</time>
      </trkpt>
      <trkpt lat="46.17088" lon="6.66389">
        <ele>1537</ele>
        <time>2022-07-31T07:48:39Z</time>
      </trkpt>
      <trkpt lat="46.17089" lon="6.66388">
        <ele>1537</ele>
        <time>2022-07-31T07:48:40Z</time>
      </trkpt>
      <trkpt lat="46.1709" lon="6.66387">
        <ele>1537</ele>
        <time>2022-07-31T07:48:41Z</time>
      </trkpt>
      <trkpt lat="46.17092" lon="6.66387">
        <ele>1537</ele>
        <time>2022-07-31T07:48:42Z</time>
      </trkpt>
      <trkpt lat="46.17092" lon="6.66386">
        <ele>1537</ele>
        <time>2022-07-31T07:48:43Z</time>
      </trkpt>
      <trkpt lat="46.17094" lon="6.66386">
        <ele>1536</ele>
        <time>2022-07-31T07:48:44Z</time>
      </trkpt>
      <trkpt lat="46.17095" lon="6.66385">
        <ele>1536</ele>
        <time>2022-07-31T07:48:45Z</time>
      </trkpt>
      <trkpt lat="46.17096" lon="6.66385">
        <ele>1536</ele>
        <time>2022-07-31T07:48:46Z</time>
      </trkpt>
      <trkpt lat="46.17098" lon="6.66384">
        <ele>1536</ele>
        <time>2022-07-31T07:48:47Z</time>
      </trkpt>
      <trkpt lat="46.17098" lon="6.66384">
        <ele>1536</ele>
        <time>2022-07-31T07:48:48Z</time>
      </trkpt>
      <trkpt lat="46.17099" lon="6.66383">
        <ele>1535</ele>
        <time>2022-07-31T07:48:49Z</time>
      </trkpt>
      <trkpt lat="46.171" lon="6.66383">
        <ele>1535</ele>
        <time>2022-07-31T07:48:50Z</time>
      </trkpt>
      <trkpt lat="46.17101" lon="6.66382">
        <ele>1535</ele>
        <time>2022-07-31T07:48:51Z</time>
      </trkpt>
      <trkpt lat="46.17102" lon="6.66383">
        <ele>1535</ele>
        <time>2022-07-31T07:48:52Z</time>
      </trkpt>
      <trkpt lat="46.17103" lon="6.66383">
        <ele>1535</ele>
        <time>2022-07-31T07:48:53Z</time>
      </trkpt>
      <trkpt lat="46.17103" lon="6.66384">
        <ele>1535</ele>
        <time>2022-07-31T07:48:54Z</time>
      </trkpt>
      <trkpt lat="46.17105" lon="6.66385">
        <ele>1535</ele>
        <time>2022-07-31T07:48:55Z</time>
      </trkpt>
      <trkpt lat="46.17106" lon="6.66386">
        <ele>1534</ele>
        <time>2022-07-31T07:48:56Z</time>
      </trkpt>
      <trkpt lat="46.17106" lon="6.66386">
        <ele>1534</ele>
        <time>2022-07-31T07:48:57Z</time>
      </trkpt>
      <trkpt lat="46.17107" lon="6.66385">
        <ele>1534</ele>
        <time>2022-07-31T07:48:58Z</time>
      </trkpt>
      <trkpt lat="46.17107" lon="6.66384">
        <ele>1534</ele>
        <time>2022-07-31T07:48:59Z</time>
      </trkpt>
      <trkpt lat="46.17107" lon="6.66384">
        <ele>1534</ele>
        <time>2022-07-31T07:49:00Z</time>
      </trkpt>
      <trkpt lat="46.17107" lon="6.66385">
        <ele>1534</ele>
        <time>2022-07-31T07:49:01Z</time>
      </trkpt>
      <trkpt lat="46.17107" lon="6.66384">
        <ele>1534</ele>
        <time>2022-07-31T07:49:02Z</time>
      </trkpt>
      <trkpt lat="46.17108" lon="6.66383">
        <ele>1534</ele>
        <time>2022-07-31T07:49:03Z</time>
      </trkpt>
      <trkpt lat="46.1711" lon="6.66383">
        <ele>1534</ele>
        <time>2022-07-31T07:49:04Z</time>
      </trkpt>
      <trkpt lat="46.17111" lon="6.66382">
        <ele>1534</ele>
        <time>2022-07-31T07:49:05Z</time>
      </trkpt>
      <trkpt lat="46.17112" lon="6.66381">
        <ele>1534</ele>
        <time>2022-07-31T07:49:06Z</time>
      </trkpt>
      <trkpt lat="46.17112" lon="6.66382">
        <ele>1534</ele>
        <time>2022-07-31T07:49:07Z</time>
      </trkpt>
      <trkpt lat="46.17113" lon="6.66382">
        <ele>1534</ele>
        <time>2022-07-31T07:49:08Z</time>
      </trkpt>
      <trkpt lat="46.17114" lon="6.66382">
        <ele>1534</ele>
        <time>2022-07-31T07:49:09Z</time>
      </trkpt>
      <trkpt lat="46.17115" lon="6.66381">
        <ele>1534</ele>
        <time>2022-07-31T07:49:10Z</time>
      </trkpt>
      <trkpt lat="46.17117" lon="6.66382">
        <ele>1534</ele>
        <time>2022-07-31T07:49:11Z</time>
      </trkpt>
      <trkpt lat="46.17118" lon="6.66381">
        <ele>1534</ele>
        <time>2022-07-31T07:49:12Z</time>
      </trkpt>
      <trkpt lat="46.17119" lon="6.66382">
        <ele>1534</ele>
        <time>2022-07-31T07:49:13Z</time>
      </trkpt>
      <trkpt lat="46.17121" lon="6.66383">
        <ele>1534</ele>
        <time>2022-07-31T07:49:14Z</time>
      </trkpt>
      <trkpt lat="46.17122" lon="6.66382">
        <ele>1534</ele>
        <time>2022-07-31T07:49:15Z</time>
      </trkpt>
      <trkpt lat="46.17123" lon="6.66381">
        <ele>1534</ele>
        <time>2022-07-31T07:49:16Z</time>
      </trkpt>
      <trkpt lat="46.17124" lon="6.66382">
        <ele>1534</ele>
        <time>2022-07-31T07:49:17Z</time>
      </trkpt>
      <trkpt lat="46.17126" lon="6.66381">
        <ele>1534</ele>
        <time>2022-07-31T07:49:18Z</time>
      </trkpt>
      <trkpt lat="46.17127" lon="6.6638">
        <ele>1534</ele>
        <time>2022-07-31T07:49:19Z</time>
      </trkpt>
      <trkpt lat="46.17128" lon="6.6638">
        <ele>1534</ele>
        <time>2022-07-31T07:49:20Z</time>
      </trkpt>
      <trkpt lat="46.1713" lon="6.6638">
        <ele>1534</ele>
        <time>2022-07-31T07:49:21Z</time>
      </trkpt>
      <trkpt lat="46.17131" lon="6.6638">
        <ele>1534</ele>
        <time>2022-07-31T07:49:22Z</time>
      </trkpt>
      <trkpt lat="46.17133" lon="6.66378">
        <ele>1534</ele>
        <time>2022-07-31T07:49:23Z</time>
      </trkpt>
      <trkpt lat="46.17134" lon="6.66378">
        <ele>1534</ele>
        <time>2022-07-31T07:49:24Z</time>
      </trkpt>
      <trkpt lat="46.17135" lon="6.66378">
        <ele>1534</ele>
        <time>2022-07-31T07:49:25Z</time>
      </trkpt>
      <trkpt lat="46.17136" lon="6.66377">
        <ele>1534</ele>
        <time>2022-07-31T07:49:26Z</time>
      </trkpt>
      <trkpt lat="46.17137" lon="6.66377">
        <ele>1534</ele>
        <time>2022-07-31T07:49:27Z</time>
      </trkpt>
      <trkpt lat="46.17137" lon="6.66377">
        <ele>1534</ele>
        <time>2022-07-31T07:49:28Z</time>
      </trkpt>
      <trkpt lat="46.17138" lon="6.66376">
        <ele>1534</ele>
        <time>2022-07-31T07:49:29Z</time>
      </trkpt>
      <trkpt lat="46.17139" lon="6.66375">
        <ele>1534</ele>
        <time>2022-07-31T07:49:30Z</time>
      </trkpt>
      <trkpt lat="46.17141" lon="6.66375">
        <ele>1534</ele>
        <time>2022-07-31T07:49:31Z</time>
      </trkpt>
      <trkpt lat="46.17142" lon="6.66373">
        <ele>1534</ele>
        <time>2022-07-31T07:49:32Z</time>
      </trkpt>
      <trkpt lat="46.17143" lon="6.66372">
        <ele>1534</ele>
        <time>2022-07-31T07:49:33Z</time>
      </trkpt>
      <trkpt lat="46.17144" lon="6.66371">
        <ele>1533</ele>
        <time>2022-07-31T07:49:34Z</time>
      </trkpt>
      <trkpt lat="46.17147" lon="6.6637">
        <ele>1533</ele>
        <time>2022-07-31T07:49:35Z</time>
      </trkpt>
      <trkpt lat="46.17148" lon="6.66369">
        <ele>1533</ele>
        <time>2022-07-31T07:49:36Z</time>
      </trkpt>
      <trkpt lat="46.1715" lon="6.66369">
        <ele>1533</ele>
        <time>2022-07-31T07:49:37Z</time>
      </trkpt>
      <trkpt lat="46.17152" lon="6.66369">
        <ele>1533</ele>
        <time>2022-07-31T07:49:38Z</time>
      </trkpt>
      <trkpt lat="46.17154" lon="6.6637">
        <ele>1533</ele>
        <time>2022-07-31T07:49:39Z</time>
      </trkpt>
      <trkpt lat="46.17155" lon="6.6637">
        <ele>1533</ele>
        <time>2022-07-31T07:49:40Z</time>
      </trkpt>
      <trkpt lat="46.17156" lon="6.6637">
        <ele>1533</ele>
        <time>2022-07-31T07:49:41Z</time>
      </trkpt>
      <trkpt lat="46.17157" lon="6.66369">
        <ele>1533</ele>
        <time>2022-07-31T07:49:42Z</time>
      </trkpt>
      <trkpt lat="46.17158" lon="6.6637">
        <ele>1533</ele>
        <time>2022-07-31T07:49:43Z</time>
      </trkpt>
      <trkpt lat="46.17159" lon="6.6637">
        <ele>1533</ele>
        <time>2022-07-31T07:49:44Z</time>
      </trkpt>
      <trkpt lat="46.1716" lon="6.6637">
        <ele>1533</ele>
        <time>2022-07-31T07:49:45Z</time>
      </trkpt>
      <trkpt lat="46.17161" lon="6.66371">
        <ele>1533</ele>
        <time>2022-07-31T07:49:46Z</time>
      </trkpt>
      <trkpt lat="46.17162" lon="6.66371">
        <ele>1533</ele>
        <time>2022-07-31T07:49:47Z</time>
      </trkpt>
      <trkpt lat="46.17163" lon="6.66372">
        <ele>1533</ele>
        <time>2022-07-31T07:49:48Z</time>
      </trkpt>
      <trkpt lat="46.17165" lon="6.66373">
        <ele>1532</ele>
        <time>2022-07-31T07:49:49Z</time>
      </trkpt>
      <trkpt lat="46.17166" lon="6.66373">
        <ele>1532</ele>
        <time>2022-07-31T07:49:50Z</time>
      </trkpt>
      <trkpt lat="46.17167" lon="6.66373">
        <ele>1532</ele>
        <time>2022-07-31T07:49:51Z</time>
      </trkpt>
      <trkpt lat="46.17167" lon="6.66374">
        <ele>1532</ele>
        <time>2022-07-31T07:49:52Z</time>
      </trkpt>
      <trkpt lat="46.17168" lon="6.66376">
        <ele>1532</ele>
        <time>2022-07-31T07:49:53Z</time>
      </trkpt>
      <trkpt lat="46.17169" lon="6.66377">
        <ele>1532</ele>
        <time>2022-07-31T07:49:54Z</time>
      </trkpt>
      <trkpt lat="46.17171" lon="6.66378">
        <ele>1532</ele>
        <time>2022-07-31T07:49:55Z</time>
      </trkpt>
      <trkpt lat="46.17171" lon="6.66379">
        <ele>1531</ele>
        <time>2022-07-31T07:49:56Z</time>
      </trkpt>
      <trkpt lat="46.17173" lon="6.66381">
        <ele>1531</ele>
        <time>2022-07-31T07:49:57Z</time>
      </trkpt>
      <trkpt lat="46.17174" lon="6.66382">
        <ele>1531</ele>
        <time>2022-07-31T07:49:58Z</time>
      </trkpt>
      <trkpt lat="46.17176" lon="6.66383">
        <ele>1531</ele>
        <time>2022-07-31T07:49:59Z</time>
      </trkpt>
      <trkpt lat="46.17177" lon="6.66383">
        <ele>1531</ele>
        <time>2022-07-31T07:50:00Z</time>
      </trkpt>
      <trkpt lat="46.17178" lon="6.66383">
        <ele>1531</ele>
        <time>2022-07-31T07:50:01Z</time>
      </trkpt>
      <trkpt lat="46.17179" lon="6.66383">
        <ele>1531</ele>
        <time>2022-07-31T07:50:02Z</time>
      </trkpt>
      <trkpt lat="46.17181" lon="6.66382">
        <ele>1531</ele>
        <time>2022-07-31T07:50:03Z</time>
      </trkpt>
      <trkpt lat="46.17182" lon="6.66383">
        <ele>1530</ele>
        <time>2022-07-31T07:50:04Z</time>
      </trkpt>
      <trkpt lat="46.17184" lon="6.66382">
        <ele>1530</ele>
        <time>2022-07-31T07:50:05Z</time>
      </trkpt>
      <trkpt lat="46.17185" lon="6.66382">
        <ele>1530</ele>
        <time>2022-07-31T07:50:06Z</time>
      </trkpt>
      <trkpt lat="46.17185" lon="6.66382">
        <ele>1530</ele>
        <time>2022-07-31T07:50:07Z</time>
      </trkpt>
      <trkpt lat="46.17186" lon="6.66383">
        <ele>1530</ele>
        <time>2022-07-31T07:50:08Z</time>
      </trkpt>
      <trkpt lat="46.17186" lon="6.66385">
        <ele>1530</ele>
        <time>2022-07-31T07:50:09Z</time>
      </trkpt>
      <trkpt lat="46.17186" lon="6.66386">
        <ele>1530</ele>
        <time>2022-07-31T07:50:10Z</time>
      </trkpt>
      <trkpt lat="46.17187" lon="6.66387">
        <ele>1530</ele>
        <time>2022-07-31T07:50:11Z</time>
      </trkpt>
      <trkpt lat="46.17188" lon="6.66388">
        <ele>1529</ele>
        <time>2022-07-31T07:50:12Z</time>
      </trkpt>
      <trkpt lat="46.1719" lon="6.66388">
        <ele>1529</ele>
        <time>2022-07-31T07:50:13Z</time>
      </trkpt>
      <trkpt lat="46.17191" lon="6.66387">
        <ele>1529</ele>
        <time>2022-07-31T07:50:14Z</time>
      </trkpt>
      <trkpt lat="46.17192" lon="6.66387">
        <ele>1529</ele>
        <time>2022-07-31T07:50:15Z</time>
      </trkpt>
      <trkpt lat="46.17193" lon="6.66388">
        <ele>1529</ele>
        <time>2022-07-31T07:50:16Z</time>
      </trkpt>
      <trkpt lat="46.17193" lon="6.66389">
        <ele>1529</ele>
        <time>2022-07-31T07:50:17Z</time>
      </trkpt>
      <trkpt lat="46.17195" lon="6.66389">
        <ele>1529</ele>
        <time>2022-07-31T07:50:18Z</time>
      </trkpt>
      <trkpt lat="46.17196" lon="6.6639">
        <ele>1528</ele>
        <time>2022-07-31T07:50:19Z</time>
      </trkpt>
      <trkpt lat="46.17197" lon="6.6639">
        <ele>1528</ele>
        <time>2022-07-31T07:50:20Z</time>
      </trkpt>
      <trkpt lat="46.17199" lon="6.66389">
        <ele>1528</ele>
        <time>2022-07-31T07:50:21Z</time>
      </trkpt>
      <trkpt lat="46.17201" lon="6.66389">
        <ele>1528</ele>
        <time>2022-07-31T07:50:22Z</time>
      </trkpt>
      <trkpt lat="46.17202" lon="6.66389">
        <ele>1528</ele>
        <time>2022-07-31T07:50:23Z</time>
      </trkpt>
      <trkpt lat="46.17203" lon="6.66389">
        <ele>1528</ele>
        <time>2022-07-31T07:50:24Z</time>
      </trkpt>
      <trkpt lat="46.17205" lon="6.66388">
        <ele>1528</ele>
        <time>2022-07-31T07:50:25Z</time>
      </trkpt>
      <trkpt lat="46.17207" lon="6.66388">
        <ele>1528</ele>
        <time>2022-07-31T07:50:26Z</time>
      </trkpt>
      <trkpt lat="46.17208" lon="6.66389">
        <ele>1527</ele>
        <time>2022-07-31T07:50:27Z</time>
      </trkpt>
      <trkpt lat="46.17208" lon="6.6639">
        <ele>1527</ele>
        <time>2022-07-31T07:50:28Z</time>
      </trkpt>
      <trkpt lat="46.17209" lon="6.66391">
        <ele>1527</ele>
        <time>2022-07-31T07:50:29Z</time>
      </trkpt>
      <trkpt lat="46.1721" lon="6.66392">
        <ele>1527</ele>
        <time>2022-07-31T07:50:30Z</time>
      </trkpt>
      <trkpt lat="46.17211" lon="6.66392">
        <ele>1527</ele>
        <time>2022-07-31T07:50:31Z</time>
      </trkpt>
      <trkpt lat="46.17213" lon="6.66391">
        <ele>1526</ele>
        <time>2022-07-31T07:50:32Z</time>
      </trkpt>
      <trkpt lat="46.17215" lon="6.66392">
        <ele>1526</ele>
        <time>2022-07-31T07:50:33Z</time>
      </trkpt>
      <trkpt lat="46.17217" lon="6.66391">
        <ele>1526</ele>
        <time>2022-07-31T07:50:34Z</time>
      </trkpt>
      <trkpt lat="46.17218" lon="6.66391">
        <ele>1526</ele>
        <time>2022-07-31T07:50:35Z</time>
      </trkpt>
      <trkpt lat="46.17218" lon="6.6639">
        <ele>1526</ele>
        <time>2022-07-31T07:50:36Z</time>
      </trkpt>
      <trkpt lat="46.1722" lon="6.6639">
        <ele>1526</ele>
        <time>2022-07-31T07:50:37Z</time>
      </trkpt>
      <trkpt lat="46.17221" lon="6.6639">
        <ele>1526</ele>
        <time>2022-07-31T07:50:38Z</time>
      </trkpt>
      <trkpt lat="46.17221" lon="6.66391">
        <ele>1525</ele>
        <time>2022-07-31T07:50:39Z</time>
      </trkpt>
      <trkpt lat="46.17222" lon="6.66391">
        <ele>1525</ele>
        <time>2022-07-31T07:50:40Z</time>
      </trkpt>
      <trkpt lat="46.17223" lon="6.66392">
        <ele>1525</ele>
        <time>2022-07-31T07:50:41Z</time>
      </trkpt>
      <trkpt lat="46.17224" lon="6.66392">
        <ele>1525</ele>
        <time>2022-07-31T07:50:42Z</time>
      </trkpt>
      <trkpt lat="46.17225" lon="6.66393">
        <ele>1525</ele>
        <time>2022-07-31T07:50:43Z</time>
      </trkpt>
      <trkpt lat="46.17225" lon="6.66393">
        <ele>1525</ele>
        <time>2022-07-31T07:50:44Z</time>
      </trkpt>
      <trkpt lat="46.17226" lon="6.66392">
        <ele>1524</ele>
        <time>2022-07-31T07:50:45Z</time>
      </trkpt>
      <trkpt lat="46.17227" lon="6.66392">
        <ele>1524</ele>
        <time>2022-07-31T07:50:46Z</time>
      </trkpt>
      <trkpt lat="46.17228" lon="6.66392">
        <ele>1524</ele>
        <time>2022-07-31T07:50:47Z</time>
      </trkpt>
      <trkpt lat="46.17229" lon="6.66392">
        <ele>1524</ele>
        <time>2022-07-31T07:50:48Z</time>
      </trkpt>
      <trkpt lat="46.1723" lon="6.66393">
        <ele>1524</ele>
        <time>2022-07-31T07:50:49Z</time>
      </trkpt>
      <trkpt lat="46.1723" lon="6.66393">
        <ele>1523</ele>
        <time>2022-07-31T07:50:50Z</time>
      </trkpt>
      <trkpt lat="46.17231" lon="6.66394">
        <ele>1523</ele>
        <time>2022-07-31T07:50:51Z</time>
      </trkpt>
      <trkpt lat="46.17232" lon="6.66394">
        <ele>1523</ele>
        <time>2022-07-31T07:50:52Z</time>
      </trkpt>
      <trkpt lat="46.17234" lon="6.66394">
        <ele>1523</ele>
        <time>2022-07-31T07:50:53Z</time>
      </trkpt>
      <trkpt lat="46.17235" lon="6.66394">
        <ele>1522</ele>
        <time>2022-07-31T07:50:54Z</time>
      </trkpt>
      <trkpt lat="46.17236" lon="6.66394">
        <ele>1522</ele>
        <time>2022-07-31T07:50:55Z</time>
      </trkpt>
      <trkpt lat="46.17237" lon="6.66394">
        <ele>1522</ele>
        <time>2022-07-31T07:50:56Z</time>
      </trkpt>
      <trkpt lat="46.17238" lon="6.66394">
        <ele>1522</ele>
        <time>2022-07-31T07:50:57Z</time>
      </trkpt>
      <trkpt lat="46.1724" lon="6.66394">
        <ele>1522</ele>
        <time>2022-07-31T07:50:58Z</time>
      </trkpt>
      <trkpt lat="46.17241" lon="6.66395">
        <ele>1522</ele>
        <time>2022-07-31T07:50:59Z</time>
      </trkpt>
      <trkpt lat="46.17243" lon="6.66394">
        <ele>1522</ele>
        <time>2022-07-31T07:51:00Z</time>
      </trkpt>
      <trkpt lat="46.17245" lon="6.66394">
        <ele>1522</ele>
        <time>2022-07-31T07:51:01Z</time>
      </trkpt>
      <trkpt lat="46.17247" lon="6.66395">
        <ele>1521</ele>
        <time>2022-07-31T07:51:02Z</time>
      </trkpt>
      <trkpt lat="46.17248" lon="6.66394">
        <ele>1521</ele>
        <time>2022-07-31T07:51:03Z</time>
      </trkpt>
      <trkpt lat="46.1725" lon="6.66392">
        <ele>1521</ele>
        <time>2022-07-31T07:51:04Z</time>
      </trkpt>
      <trkpt lat="46.17252" lon="6.66393">
        <ele>1521</ele>
        <time>2022-07-31T07:51:05Z</time>
      </trkpt>
      <trkpt lat="46.17253" lon="6.66392">
        <ele>1521</ele>
        <time>2022-07-31T07:51:06Z</time>
      </trkpt>
      <trkpt lat="46.17254" lon="6.66393">
        <ele>1521</ele>
        <time>2022-07-31T07:51:07Z</time>
      </trkpt>
      <trkpt lat="46.17255" lon="6.66393">
        <ele>1521</ele>
        <time>2022-07-31T07:51:08Z</time>
      </trkpt>
      <trkpt lat="46.17257" lon="6.66393">
        <ele>1521</ele>
        <time>2022-07-31T07:51:09Z</time>
      </trkpt>
      <trkpt lat="46.17258" lon="6.66393">
        <ele>1521</ele>
        <time>2022-07-31T07:51:10Z</time>
      </trkpt>
      <trkpt lat="46.17259" lon="6.66394">
        <ele>1520</ele>
        <time>2022-07-31T07:51:11Z</time>
      </trkpt>
      <trkpt lat="46.1726" lon="6.66393">
        <ele>1520</ele>
        <time>2022-07-31T07:51:12Z</time>
      </trkpt>
      <trkpt lat="46.17261" lon="6.66394">
        <ele>1520</ele>
        <time>2022-07-31T07:51:13Z</time>
      </trkpt>
      <trkpt lat="46.17263" lon="6.66395">
        <ele>1520</ele>
        <time>2022-07-31T07:51:14Z</time>
      </trkpt>
      <trkpt lat="46.17265" lon="6.66396">
        <ele>1520</ele>
        <time>2022-07-31T07:51:15Z</time>
      </trkpt>
      <trkpt lat="46.17266" lon="6.66397">
        <ele>1520</ele>
        <time>2022-07-31T07:51:16Z</time>
      </trkpt>
      <trkpt lat="46.17266" lon="6.66398">
        <ele>1519</ele>
        <time>2022-07-31T07:51:17Z</time>
      </trkpt>
      <trkpt lat="46.17267" lon="6.664">
        <ele>1519</ele>
        <time>2022-07-31T07:51:18Z</time>
      </trkpt>
      <trkpt lat="46.17268" lon="6.664">
        <ele>1519</ele>
        <time>2022-07-31T07:51:19Z</time>
      </trkpt>
      <trkpt lat="46.17269" lon="6.66401">
        <ele>1519</ele>
        <time>2022-07-31T07:51:20Z</time>
      </trkpt>
      <trkpt lat="46.17271" lon="6.66401">
        <ele>1519</ele>
        <time>2022-07-31T07:51:21Z</time>
      </trkpt>
      <trkpt lat="46.17272" lon="6.664">
        <ele>1519</ele>
        <time>2022-07-31T07:51:22Z</time>
      </trkpt>
      <trkpt lat="46.17274" lon="6.66399">
        <ele>1519</ele>
        <time>2022-07-31T07:51:23Z</time>
      </trkpt>
      <trkpt lat="46.17274" lon="6.66399">
        <ele>1518</ele>
        <time>2022-07-31T07:51:24Z</time>
      </trkpt>
      <trkpt lat="46.17274" lon="6.66399">
        <ele>1518</ele>
        <time>2022-07-31T07:51:25Z</time>
      </trkpt>
      <trkpt lat="46.17274" lon="6.66398">
        <ele>1518</ele>
        <time>2022-07-31T07:51:26Z</time>
      </trkpt>
      <trkpt lat="46.17275" lon="6.66399">
        <ele>1518</ele>
        <time>2022-07-31T07:51:27Z</time>
      </trkpt>
      <trkpt lat="46.17276" lon="6.66399">
        <ele>1518</ele>
        <time>2022-07-31T07:51:28Z</time>
      </trkpt>
      <trkpt lat="46.17277" lon="6.66399">
        <ele>1518</ele>
        <time>2022-07-31T07:51:29Z</time>
      </trkpt>
      <trkpt lat="46.17277" lon="6.664">
        <ele>1518</ele>
        <time>2022-07-31T07:51:30Z</time>
      </trkpt>
      <trkpt lat="46.17279" lon="6.664">
        <ele>1518</ele>
        <time>2022-07-31T07:51:31Z</time>
      </trkpt>
      <trkpt lat="46.17281" lon="6.664">
        <ele>1517</ele>
        <time>2022-07-31T07:51:32Z</time>
      </trkpt>
      <trkpt lat="46.17282" lon="6.66401">
        <ele>1517</ele>
        <time>2022-07-31T07:51:33Z</time>
      </trkpt>
      <trkpt lat="46.17283" lon="6.66402">
        <ele>1517</ele>
        <time>2022-07-31T07:51:34Z</time>
      </trkpt>
      <trkpt lat="46.17284" lon="6.66403">
        <ele>1517</ele>
        <time>2022-07-31T07:51:35Z</time>
      </trkpt>
      <trkpt lat="46.17285" lon="6.66403">
        <ele>1517</ele>
        <time>2022-07-31T07:51:36Z</time>
      </trkpt>
      <trkpt lat="46.17287" lon="6.66402">
        <ele>1516</ele>
        <time>2022-07-31T07:51:37Z</time>
      </trkpt>
      <trkpt lat="46.17288" lon="6.66403">
        <ele>1516</ele>
        <time>2022-07-31T07:51:38Z</time>
      </trkpt>
      <trkpt lat="46.17289" lon="6.66403">
        <ele>1516</ele>
        <time>2022-07-31T07:51:39Z</time>
      </trkpt>
      <trkpt lat="46.17289" lon="6.66404">
        <ele>1516</ele>
        <time>2022-07-31T07:51:40Z</time>
      </trkpt>
      <trkpt lat="46.17289" lon="6.66405">
        <ele>1516</ele>
        <time>2022-07-31T07:51:41Z</time>
      </trkpt>
      <trkpt lat="46.1729" lon="6.66406">
        <ele>1516</ele>
        <time>2022-07-31T07:51:42Z</time>
      </trkpt>
      <trkpt lat="46.17291" lon="6.66407">
        <ele>1515</ele>
        <time>2022-07-31T07:51:43Z</time>
      </trkpt>
      <trkpt lat="46.17291" lon="6.66409">
        <ele>1515</ele>
        <time>2022-07-31T07:51:44Z</time>
      </trkpt>
      <trkpt lat="46.17292" lon="6.66409">
        <ele>1515</ele>
        <time>2022-07-31T07:51:45Z</time>
      </trkpt>
      <trkpt lat="46.17294" lon="6.66411">
        <ele>1515</ele>
        <time>2022-07-31T07:51:46Z</time>
      </trkpt>
      <trkpt lat="46.17295" lon="6.66412">
        <ele>1515</ele>
        <time>2022-07-31T07:51:47Z</time>
      </trkpt>
      <trkpt lat="46.17295" lon="6.66413">
        <ele>1515</ele>
        <time>2022-07-31T07:51:48Z</time>
      </trkpt>
      <trkpt lat="46.17296" lon="6.66413">
        <ele>1514</ele>
        <time>2022-07-31T07:51:49Z</time>
      </trkpt>
      <trkpt lat="46.17296" lon="6.66413">
        <ele>1514</ele>
        <time>2022-07-31T07:51:50Z</time>
      </trkpt>
      <trkpt lat="46.17297" lon="6.66414">
        <ele>1514</ele>
        <time>2022-07-31T07:51:51Z</time>
      </trkpt>
      <trkpt lat="46.17298" lon="6.66414">
        <ele>1514</ele>
        <time>2022-07-31T07:51:52Z</time>
      </trkpt>
      <trkpt lat="46.173" lon="6.66414">
        <ele>1514</ele>
        <time>2022-07-31T07:51:53Z</time>
      </trkpt>
      <trkpt lat="46.17301" lon="6.66415">
        <ele>1514</ele>
        <time>2022-07-31T07:51:54Z</time>
      </trkpt>
      <trkpt lat="46.17302" lon="6.66416">
        <ele>1514</ele>
        <time>2022-07-31T07:51:55Z</time>
      </trkpt>
      <trkpt lat="46.17303" lon="6.66416">
        <ele>1514</ele>
        <time>2022-07-31T07:51:56Z</time>
      </trkpt>
      <trkpt lat="46.17304" lon="6.66417">
        <ele>1514</ele>
        <time>2022-07-31T07:51:57Z</time>
      </trkpt>
      <trkpt lat="46.17306" lon="6.66417">
        <ele>1514</ele>
        <time>2022-07-31T07:51:58Z</time>
      </trkpt>
      <trkpt lat="46.17306" lon="6.66416">
        <ele>1514</ele>
        <time>2022-07-31T07:51:59Z</time>
      </trkpt>
      <trkpt lat="46.17306" lon="6.66415">
        <ele>1513</ele>
        <time>2022-07-31T07:52:00Z</time>
      </trkpt>
      <trkpt lat="46.17306" lon="6.66415">
        <ele>1513</ele>
        <time>2022-07-31T07:52:01Z</time>
      </trkpt>
      <trkpt lat="46.17306" lon="6.66415">
        <ele>1513</ele>
        <time>2022-07-31T07:52:02Z</time>
      </trkpt>
      <trkpt lat="46.17307" lon="6.66414">
        <ele>1513</ele>
        <time>2022-07-31T07:52:03Z</time>
      </trkpt>
      <trkpt lat="46.17308" lon="6.66414">
        <ele>1513</ele>
        <time>2022-07-31T07:52:04Z</time>
      </trkpt>
      <trkpt lat="46.17309" lon="6.66414">
        <ele>1513</ele>
        <time>2022-07-31T07:52:05Z</time>
      </trkpt>
      <trkpt lat="46.1731" lon="6.66415">
        <ele>1513</ele>
        <time>2022-07-31T07:52:06Z</time>
      </trkpt>
      <trkpt lat="46.17312" lon="6.66415">
        <ele>1512</ele>
        <time>2022-07-31T07:52:07Z</time>
      </trkpt>
      <trkpt lat="46.17312" lon="6.66415">
        <ele>1512</ele>
        <time>2022-07-31T07:52:08Z</time>
      </trkpt>
      <trkpt lat="46.17313" lon="6.66415">
        <ele>1512</ele>
        <time>2022-07-31T07:52:09Z</time>
      </trkpt>
      <trkpt lat="46.17315" lon="6.66415">
        <ele>1512</ele>
        <time>2022-07-31T07:52:10Z</time>
      </trkpt>
      <trkpt lat="46.17316" lon="6.66414">
        <ele>1511</ele>
        <time>2022-07-31T07:52:11Z</time>
      </trkpt>
      <trkpt lat="46.17317" lon="6.66414">
        <ele>1511</ele>
        <time>2022-07-31T07:52:12Z</time>
      </trkpt>
      <trkpt lat="46.17318" lon="6.66413">
        <ele>1511</ele>
        <time>2022-07-31T07:52:13Z</time>
      </trkpt>
      <trkpt lat="46.17319" lon="6.66413">
        <ele>1511</ele>
        <time>2022-07-31T07:52:14Z</time>
      </trkpt>
      <trkpt lat="46.1732" lon="6.66413">
        <ele>1511</ele>
        <time>2022-07-31T07:52:15Z</time>
      </trkpt>
      <trkpt lat="46.17321" lon="6.66414">
        <ele>1510</ele>
        <time>2022-07-31T07:52:16Z</time>
      </trkpt>
      <trkpt lat="46.17323" lon="6.66414">
        <ele>1510</ele>
        <time>2022-07-31T07:52:17Z</time>
      </trkpt>
      <trkpt lat="46.17325" lon="6.66413">
        <ele>1510</ele>
        <time>2022-07-31T07:52:18Z</time>
      </trkpt>
      <trkpt lat="46.17326" lon="6.66414">
        <ele>1510</ele>
        <time>2022-07-31T07:52:19Z</time>
      </trkpt>
      <trkpt lat="46.17326" lon="6.66415">
        <ele>1509</ele>
        <time>2022-07-31T07:52:20Z</time>
      </trkpt>
      <trkpt lat="46.17327" lon="6.66415">
        <ele>1509</ele>
        <time>2022-07-31T07:52:21Z</time>
      </trkpt>
      <trkpt lat="46.17328" lon="6.66415">
        <ele>1509</ele>
        <time>2022-07-31T07:52:22Z</time>
      </trkpt>
      <trkpt lat="46.17328" lon="6.66415">
        <ele>1509</ele>
        <time>2022-07-31T07:52:23Z</time>
      </trkpt>
      <trkpt lat="46.17329" lon="6.66415">
        <ele>1508</ele>
        <time>2022-07-31T07:52:24Z</time>
      </trkpt>
      <trkpt lat="46.1733" lon="6.66415">
        <ele>1508</ele>
        <time>2022-07-31T07:52:25Z</time>
      </trkpt>
      <trkpt lat="46.17332" lon="6.66414">
        <ele>1508</ele>
        <time>2022-07-31T07:52:26Z</time>
      </trkpt>
      <trkpt lat="46.17333" lon="6.66414">
        <ele>1508</ele>
        <time>2022-07-31T07:52:27Z</time>
      </trkpt>
      <trkpt lat="46.17334" lon="6.66414">
        <ele>1507</ele>
        <time>2022-07-31T07:52:28Z</time>
      </trkpt>
      <trkpt lat="46.17334" lon="6.66414">
        <ele>1507</ele>
        <time>2022-07-31T07:52:29Z</time>
      </trkpt>
      <trkpt lat="46.17335" lon="6.66414">
        <ele>1507</ele>
        <time>2022-07-31T07:52:30Z</time>
      </trkpt>
      <trkpt lat="46.17336" lon="6.66415">
        <ele>1507</ele>
        <time>2022-07-31T07:52:31Z</time>
      </trkpt>
      <trkpt lat="46.17337" lon="6.66415">
        <ele>1507</ele>
        <time>2022-07-31T07:52:32Z</time>
      </trkpt>
      <trkpt lat="46.17339" lon="6.66415">
        <ele>1506</ele>
        <time>2022-07-31T07:52:33Z</time>
      </trkpt>
      <trkpt lat="46.17341" lon="6.66415">
        <ele>1506</ele>
        <time>2022-07-31T07:52:34Z</time>
      </trkpt>
      <trkpt lat="46.17342" lon="6.66415">
        <ele>1506</ele>
        <time>2022-07-31T07:52:35Z</time>
      </trkpt>
      <trkpt lat="46.17343" lon="6.66415">
        <ele>1506</ele>
        <time>2022-07-31T07:52:36Z</time>
      </trkpt>
      <trkpt lat="46.17344" lon="6.66416">
        <ele>1506</ele>
        <time>2022-07-31T07:52:37Z</time>
      </trkpt>
      <trkpt lat="46.17345" lon="6.66415">
        <ele>1505</ele>
        <time>2022-07-31T07:52:38Z</time>
      </trkpt>
      <trkpt lat="46.17348" lon="6.66415">
        <ele>1505</ele>
        <time>2022-07-31T07:52:39Z</time>
      </trkpt>
      <trkpt lat="46.1735" lon="6.66415">
        <ele>1505</ele>
        <time>2022-07-31T07:52:40Z</time>
      </trkpt>
      <trkpt lat="46.17351" lon="6.66416">
        <ele>1505</ele>
        <time>2022-07-31T07:52:41Z</time>
      </trkpt>
      <trkpt lat="46.17353" lon="6.66414">
        <ele>1504</ele>
        <time>2022-07-31T07:52:42Z</time>
      </trkpt>
      <trkpt lat="46.17354" lon="6.66412">
        <ele>1504</ele>
        <time>2022-07-31T07:52:43Z</time>
      </trkpt>
      <trkpt lat="46.17356" lon="6.66411">
        <ele>1504</ele>
        <time>2022-07-31T07:52:44Z</time>
      </trkpt>
      <trkpt lat="46.17357" lon="6.6641">
        <ele>1504</ele>
        <time>2022-07-31T07:52:45Z</time>
      </trkpt>
      <trkpt lat="46.17359" lon="6.66408">
        <ele>1503</ele>
        <time>2022-07-31T07:52:46Z</time>
      </trkpt>
      <trkpt lat="46.17361" lon="6.66407">
        <ele>1503</ele>
        <time>2022-07-31T07:52:47Z</time>
      </trkpt>
      <trkpt lat="46.17362" lon="6.66405">
        <ele>1503</ele>
        <time>2022-07-31T07:52:48Z</time>
      </trkpt>
      <trkpt lat="46.17364" lon="6.66404">
        <ele>1503</ele>
        <time>2022-07-31T07:52:49Z</time>
      </trkpt>
      <trkpt lat="46.17366" lon="6.66403">
        <ele>1502</ele>
        <time>2022-07-31T07:52:50Z</time>
      </trkpt>
      <trkpt lat="46.17367" lon="6.66403">
        <ele>1502</ele>
        <time>2022-07-31T07:52:51Z</time>
      </trkpt>
      <trkpt lat="46.17369" lon="6.66403">
        <ele>1502</ele>
        <time>2022-07-31T07:52:52Z</time>
      </trkpt>
      <trkpt lat="46.1737" lon="6.66403">
        <ele>1502</ele>
        <time>2022-07-31T07:52:53Z</time>
      </trkpt>
      <trkpt lat="46.17371" lon="6.66404">
        <ele>1501</ele>
        <time>2022-07-31T07:52:54Z</time>
      </trkpt>
      <trkpt lat="46.17373" lon="6.66403">
        <ele>1501</ele>
        <time>2022-07-31T07:52:55Z</time>
      </trkpt>
      <trkpt lat="46.17374" lon="6.66402">
        <ele>1501</ele>
        <time>2022-07-31T07:52:56Z</time>
      </trkpt>
      <trkpt lat="46.17375" lon="6.66402">
        <ele>1501</ele>
        <time>2022-07-31T07:52:57Z</time>
      </trkpt>
      <trkpt lat="46.17377" lon="6.66402">
        <ele>1501</ele>
        <time>2022-07-31T07:52:58Z</time>
      </trkpt>
      <trkpt lat="46.17377" lon="6.66402">
        <ele>1500</ele>
        <time>2022-07-31T07:52:59Z</time>
      </trkpt>
      <trkpt lat="46.17378" lon="6.66402">
        <ele>1500</ele>
        <time>2022-07-31T07:53:00Z</time>
      </trkpt>
      <trkpt lat="46.1738" lon="6.66401">
        <ele>1500</ele>
        <time>2022-07-31T07:53:01Z</time>
      </trkpt>
      <trkpt lat="46.17381" lon="6.66401">
        <ele>1500</ele>
        <time>2022-07-31T07:53:02Z</time>
      </trkpt>
      <trkpt lat="46.17382" lon="6.66402">
        <ele>1499</ele>
        <time>2022-07-31T07:53:03Z</time>
      </trkpt>
      <trkpt lat="46.17383" lon="6.66401">
        <ele>1499</ele>
        <time>2022-07-31T07:53:04Z</time>
      </trkpt>
      <trkpt lat="46.17384" lon="6.66401">
        <ele>1499</ele>
        <time>2022-07-31T07:53:05Z</time>
      </trkpt>
      <trkpt lat="46.17386" lon="6.66401">
        <ele>1499</ele>
        <time>2022-07-31T07:53:06Z</time>
      </trkpt>
      <trkpt lat="46.17387" lon="6.66401">
        <ele>1499</ele>
        <time>2022-07-31T07:53:07Z</time>
      </trkpt>
      <trkpt lat="46.17388" lon="6.664">
        <ele>1499</ele>
        <time>2022-07-31T07:53:08Z</time>
      </trkpt>
      <trkpt lat="46.1739" lon="6.66401">
        <ele>1499</ele>
        <time>2022-07-31T07:53:09Z</time>
      </trkpt>
      <trkpt lat="46.1739" lon="6.66401">
        <ele>1499</ele>
        <time>2022-07-31T07:53:10Z</time>
      </trkpt>
      <trkpt lat="46.17391" lon="6.66401">
        <ele>1498</ele>
        <time>2022-07-31T07:53:11Z</time>
      </trkpt>
      <trkpt lat="46.17392" lon="6.66399">
        <ele>1498</ele>
        <time>2022-07-31T07:53:12Z</time>
      </trkpt>
      <trkpt lat="46.17392" lon="6.66398">
        <ele>1498</ele>
        <time>2022-07-31T07:53:13Z</time>
      </trkpt>
      <trkpt lat="46.17392" lon="6.664">
        <ele>1498</ele>
        <time>2022-07-31T07:53:14Z</time>
      </trkpt>
      <trkpt lat="46.17392" lon="6.66401">
        <ele>1498</ele>
        <time>2022-07-31T07:53:15Z</time>
      </trkpt>
      <trkpt lat="46.17393" lon="6.66401">
        <ele>1497</ele>
        <time>2022-07-31T07:53:16Z</time>
      </trkpt>
      <trkpt lat="46.17395" lon="6.66401">
        <ele>1497</ele>
        <time>2022-07-31T07:53:17Z</time>
      </trkpt>
      <trkpt lat="46.17397" lon="6.66401">
        <ele>1497</ele>
        <time>2022-07-31T07:53:18Z</time>
      </trkpt>
      <trkpt lat="46.17397" lon="6.66401">
        <ele>1497</ele>
        <time>2022-07-31T07:53:19Z</time>
      </trkpt>
      <trkpt lat="46.17398" lon="6.66402">
        <ele>1497</ele>
        <time>2022-07-31T07:53:20Z</time>
      </trkpt>
      <trkpt lat="46.17399" lon="6.66402">
        <ele>1496</ele>
        <time>2022-07-31T07:53:21Z</time>
      </trkpt>
      <trkpt lat="46.17399" lon="6.66403">
        <ele>1496</ele>
        <time>2022-07-31T07:53:22Z</time>
      </trkpt>
      <trkpt lat="46.174" lon="6.66402">
        <ele>1496</ele>
        <time>2022-07-31T07:53:23Z</time>
      </trkpt>
      <trkpt lat="46.17401" lon="6.66401">
        <ele>1496</ele>
        <time>2022-07-31T07:53:24Z</time>
      </trkpt>
      <trkpt lat="46.17403" lon="6.66401">
        <ele>1495</ele>
        <time>2022-07-31T07:53:25Z</time>
      </trkpt>
      <trkpt lat="46.17405" lon="6.66401">
        <ele>1495</ele>
        <time>2022-07-31T07:53:26Z</time>
      </trkpt>
      <trkpt lat="46.17406" lon="6.66401">
        <ele>1495</ele>
        <time>2022-07-31T07:53:27Z</time>
      </trkpt>
      <trkpt lat="46.17407" lon="6.664">
        <ele>1494</ele>
        <time>2022-07-31T07:53:28Z</time>
      </trkpt>
      <trkpt lat="46.17408" lon="6.66399">
        <ele>1494</ele>
        <time>2022-07-31T07:53:29Z</time>
      </trkpt>
      <trkpt lat="46.17409" lon="6.66398">
        <ele>1494</ele>
        <time>2022-07-31T07:53:30Z</time>
      </trkpt>
      <trkpt lat="46.1741" lon="6.66397">
        <ele>1493</ele>
        <time>2022-07-31T07:53:31Z</time>
      </trkpt>
      <trkpt lat="46.17411" lon="6.66398">
        <ele>1493</ele>
        <time>2022-07-31T07:53:32Z</time>
      </trkpt>
      <trkpt lat="46.17412" lon="6.66398">
        <ele>1493</ele>
        <time>2022-07-31T07:53:33Z</time>
      </trkpt>
      <trkpt lat="46.17413" lon="6.66399">
        <ele>1492</ele>
        <time>2022-07-31T07:53:34Z</time>
      </trkpt>
      <trkpt lat="46.17414" lon="6.664">
        <ele>1492</ele>
        <time>2022-07-31T07:53:35Z</time>
      </trkpt>
      <trkpt lat="46.17415" lon="6.66399">
        <ele>1492</ele>
        <time>2022-07-31T07:53:36Z</time>
      </trkpt>
      <trkpt lat="46.17415" lon="6.66399">
        <ele>1491</ele>
        <time>2022-07-31T07:53:37Z</time>
      </trkpt>
      <trkpt lat="46.17417" lon="6.66398">
        <ele>1491</ele>
        <time>2022-07-31T07:53:38Z</time>
      </trkpt>
      <trkpt lat="46.17417" lon="6.66398">
        <ele>1491</ele>
        <time>2022-07-31T07:53:39Z</time>
      </trkpt>
      <trkpt lat="46.1742" lon="6.66397">
        <ele>1490</ele>
        <time>2022-07-31T07:53:40Z</time>
      </trkpt>
      <trkpt lat="46.17421" lon="6.66396">
        <ele>1490</ele>
        <time>2022-07-31T07:53:41Z</time>
      </trkpt>
      <trkpt lat="46.17423" lon="6.66394">
        <ele>1490</ele>
        <time>2022-07-31T07:53:42Z</time>
      </trkpt>
      <trkpt lat="46.17424" lon="6.66393">
        <ele>1489</ele>
        <time>2022-07-31T07:53:43Z</time>
      </trkpt>
      <trkpt lat="46.17426" lon="6.66392">
        <ele>1489</ele>
        <time>2022-07-31T07:53:44Z</time>
      </trkpt>
      <trkpt lat="46.17426" lon="6.66393">
        <ele>1489</ele>
        <time>2022-07-31T07:53:45Z</time>
      </trkpt>
      <trkpt lat="46.17427" lon="6.66394">
        <ele>1488</ele>
        <time>2022-07-31T07:53:46Z</time>
      </trkpt>
      <trkpt lat="46.17428" lon="6.66394">
        <ele>1488</ele>
        <time>2022-07-31T07:53:47Z</time>
      </trkpt>
      <trkpt lat="46.17429" lon="6.66394">
        <ele>1488</ele>
        <time>2022-07-31T07:53:48Z</time>
      </trkpt>
      <trkpt lat="46.17431" lon="6.66393">
        <ele>1488</ele>
        <time>2022-07-31T07:53:49Z</time>
      </trkpt>
      <trkpt lat="46.17432" lon="6.66392">
        <ele>1488</ele>
        <time>2022-07-31T07:53:50Z</time>
      </trkpt>
      <trkpt lat="46.17434" lon="6.66392">
        <ele>1487</ele>
        <time>2022-07-31T07:53:51Z</time>
      </trkpt>
      <trkpt lat="46.17436" lon="6.66392">
        <ele>1487</ele>
        <time>2022-07-31T07:53:52Z</time>
      </trkpt>
      <trkpt lat="46.17437" lon="6.66393">
        <ele>1487</ele>
        <time>2022-07-31T07:53:53Z</time>
      </trkpt>
      <trkpt lat="46.17439" lon="6.66394">
        <ele>1487</ele>
        <time>2022-07-31T07:53:54Z</time>
      </trkpt>
      <trkpt lat="46.17441" lon="6.66395">
        <ele>1486</ele>
        <time>2022-07-31T07:53:55Z</time>
      </trkpt>
      <trkpt lat="46.17442" lon="6.66395">
        <ele>1486</ele>
        <time>2022-07-31T07:53:56Z</time>
      </trkpt>
      <trkpt lat="46.17444" lon="6.66396">
        <ele>1486</ele>
        <time>2022-07-31T07:53:57Z</time>
      </trkpt>
      <trkpt lat="46.17444" lon="6.66398">
        <ele>1485</ele>
        <time>2022-07-31T07:53:58Z</time>
      </trkpt>
      <trkpt lat="46.17445" lon="6.66399">
        <ele>1485</ele>
        <time>2022-07-31T07:53:59Z</time>
      </trkpt>
      <trkpt lat="46.17444" lon="6.66399">
        <ele>1485</ele>
        <time>2022-07-31T07:54:00Z</time>
      </trkpt>
      <trkpt lat="46.17443" lon="6.66399">
        <ele>1484</ele>
        <time>2022-07-31T07:54:01Z</time>
      </trkpt>
      <trkpt lat="46.17443" lon="6.664">
        <ele>1484</ele>
        <time>2022-07-31T07:54:02Z</time>
      </trkpt>
      <trkpt lat="46.17442" lon="6.66401">
        <ele>1484</ele>
        <time>2022-07-31T07:54:03Z</time>
      </trkpt>
      <trkpt lat="46.17442" lon="6.66402">
        <ele>1483</ele>
        <time>2022-07-31T07:54:04Z</time>
      </trkpt>
      <trkpt lat="46.17442" lon="6.66403">
        <ele>1483</ele>
        <time>2022-07-31T07:54:05Z</time>
      </trkpt>
      <trkpt lat="46.17443" lon="6.66404">
        <ele>1483</ele>
        <time>2022-07-31T07:54:06Z</time>
      </trkpt>
      <trkpt lat="46.17443" lon="6.66405">
        <ele>1483</ele>
        <time>2022-07-31T07:54:07Z</time>
      </trkpt>
      <trkpt lat="46.17445" lon="6.66407">
        <ele>1482</ele>
        <time>2022-07-31T07:54:08Z</time>
      </trkpt>
      <trkpt lat="46.17446" lon="6.66408">
        <ele>1482</ele>
        <time>2022-07-31T07:54:09Z</time>
      </trkpt>
      <trkpt lat="46.17448" lon="6.66409">
        <ele>1482</ele>
        <time>2022-07-31T07:54:10Z</time>
      </trkpt>
      <trkpt lat="46.17449" lon="6.6641">
        <ele>1482</ele>
        <time>2022-07-31T07:54:11Z</time>
      </trkpt>
      <trkpt lat="46.1745" lon="6.6641">
        <ele>1481</ele>
        <time>2022-07-31T07:54:12Z</time>
      </trkpt>
      <trkpt lat="46.17452" lon="6.66411">
        <ele>1481</ele>
        <time>2022-07-31T07:54:13Z</time>
      </trkpt>
      <trkpt lat="46.17454" lon="6.66412">
        <ele>1481</ele>
        <time>2022-07-31T07:54:14Z</time>
      </trkpt>
      <trkpt lat="46.17456" lon="6.66413">
        <ele>1480</ele>
        <time>2022-07-31T07:54:15Z</time>
      </trkpt>
      <trkpt lat="46.17457" lon="6.66414">
        <ele>1480</ele>
        <time>2022-07-31T07:54:16Z</time>
      </trkpt>
      <trkpt lat="46.17458" lon="6.66416">
        <ele>1480</ele>
        <time>2022-07-31T07:54:17Z</time>
      </trkpt>
      <trkpt lat="46.17459" lon="6.66417">
        <ele>1479</ele>
        <time>2022-07-31T07:54:18Z</time>
      </trkpt>
      <trkpt lat="46.1746" lon="6.66418">
        <ele>1479</ele>
        <time>2022-07-31T07:54:19Z</time>
      </trkpt>
      <trkpt lat="46.17461" lon="6.66419">
        <ele>1479</ele>
        <time>2022-07-31T07:54:20Z</time>
      </trkpt>
      <trkpt lat="46.17463" lon="6.66421">
        <ele>1479</ele>
        <time>2022-07-31T07:54:21Z</time>
      </trkpt>
      <trkpt lat="46.17463" lon="6.66423">
        <ele>1478</ele>
        <time>2022-07-31T07:54:22Z</time>
      </trkpt>
      <trkpt lat="46.17464" lon="6.66425">
        <ele>1478</ele>
        <time>2022-07-31T07:54:23Z</time>
      </trkpt>
      <trkpt lat="46.17466" lon="6.66426">
        <ele>1478</ele>
        <time>2022-07-31T07:54:24Z</time>
      </trkpt>
      <trkpt lat="46.17467" lon="6.66427">
        <ele>1477</ele>
        <time>2022-07-31T07:54:25Z</time>
      </trkpt>
      <trkpt lat="46.17468" lon="6.66428">
        <ele>1477</ele>
        <time>2022-07-31T07:54:26Z</time>
      </trkpt>
      <trkpt lat="46.17469" lon="6.66429">
        <ele>1477</ele>
        <time>2022-07-31T07:54:27Z</time>
      </trkpt>
      <trkpt lat="46.17471" lon="6.66429">
        <ele>1477</ele>
        <time>2022-07-31T07:54:28Z</time>
      </trkpt>
      <trkpt lat="46.17472" lon="6.6643">
        <ele>1476</ele>
        <time>2022-07-31T07:54:29Z</time>
      </trkpt>
      <trkpt lat="46.17473" lon="6.6643">
        <ele>1476</ele>
        <time>2022-07-31T07:54:30Z</time>
      </trkpt>
      <trkpt lat="46.17474" lon="6.6643">
        <ele>1476</ele>
        <time>2022-07-31T07:54:31Z</time>
      </trkpt>
      <trkpt lat="46.17475" lon="6.6643">
        <ele>1475</ele>
        <time>2022-07-31T07:54:32Z</time>
      </trkpt>
      <trkpt lat="46.17477" lon="6.6643">
        <ele>1475</ele>
        <time>2022-07-31T07:54:33Z</time>
      </trkpt>
      <trkpt lat="46.17479" lon="6.6643">
        <ele>1475</ele>
        <time>2022-07-31T07:54:34Z</time>
      </trkpt>
      <trkpt lat="46.1748" lon="6.6643">
        <ele>1474</ele>
        <time>2022-07-31T07:54:35Z</time>
      </trkpt>
      <trkpt lat="46.17481" lon="6.66428">
        <ele>1474</ele>
        <time>2022-07-31T07:54:36Z</time>
      </trkpt>
      <trkpt lat="46.17481" lon="6.66428">
        <ele>1474</ele>
        <time>2022-07-31T07:54:37Z</time>
      </trkpt>
      <trkpt lat="46.17481" lon="6.66428">
        <ele>1474</ele>
        <time>2022-07-31T07:54:38Z</time>
      </trkpt>
      <trkpt lat="46.17482" lon="6.66429">
        <ele>1474</ele>
        <time>2022-07-31T07:54:39Z</time>
      </trkpt>
      <trkpt lat="46.17484" lon="6.6643">
        <ele>1474</ele>
        <time>2022-07-31T07:54:40Z</time>
      </trkpt>
      <trkpt lat="46.17485" lon="6.6643">
        <ele>1473</ele>
        <time>2022-07-31T07:54:41Z</time>
      </trkpt>
      <trkpt lat="46.17487" lon="6.66431">
        <ele>1473</ele>
        <time>2022-07-31T07:54:42Z</time>
      </trkpt>
      <trkpt lat="46.17489" lon="6.66432">
        <ele>1473</ele>
        <time>2022-07-31T07:54:43Z</time>
      </trkpt>
      <trkpt lat="46.1749" lon="6.66433">
        <ele>1473</ele>
        <time>2022-07-31T07:54:44Z</time>
      </trkpt>
      <trkpt lat="46.17491" lon="6.66433">
        <ele>1472</ele>
        <time>2022-07-31T07:54:45Z</time>
      </trkpt>
      <trkpt lat="46.17494" lon="6.66434">
        <ele>1472</ele>
        <time>2022-07-31T07:54:46Z</time>
      </trkpt>
      <trkpt lat="46.17495" lon="6.66434">
        <ele>1472</ele>
        <time>2022-07-31T07:54:47Z</time>
      </trkpt>
      <trkpt lat="46.17496" lon="6.66435">
        <ele>1471</ele>
        <time>2022-07-31T07:54:48Z</time>
      </trkpt>
      <trkpt lat="46.17498" lon="6.66437">
        <ele>1471</ele>
        <time>2022-07-31T07:54:49Z</time>
      </trkpt>
      <trkpt lat="46.175" lon="6.66438">
        <ele>1470</ele>
        <time>2022-07-31T07:54:50Z</time>
      </trkpt>
      <trkpt lat="46.175" lon="6.66438">
        <ele>1470</ele>
        <time>2022-07-31T07:54:51Z</time>
      </trkpt>
      <trkpt lat="46.17501" lon="6.66438">
        <ele>1470</ele>
        <time>2022-07-31T07:54:52Z</time>
      </trkpt>
      <trkpt lat="46.17502" lon="6.66439">
        <ele>1469</ele>
        <time>2022-07-31T07:54:53Z</time>
      </trkpt>
      <trkpt lat="46.17503" lon="6.6644">
        <ele>1469</ele>
        <time>2022-07-31T07:54:54Z</time>
      </trkpt>
      <trkpt lat="46.17504" lon="6.66441">
        <ele>1468</ele>
        <time>2022-07-31T07:54:55Z</time>
      </trkpt>
      <trkpt lat="46.17505" lon="6.66443">
        <ele>1468</ele>
        <time>2022-07-31T07:54:56Z</time>
      </trkpt>
      <trkpt lat="46.17506" lon="6.66445">
        <ele>1467</ele>
        <time>2022-07-31T07:54:57Z</time>
      </trkpt>
      <trkpt lat="46.17506" lon="6.66447">
        <ele>1467</ele>
        <time>2022-07-31T07:54:58Z</time>
      </trkpt>
      <trkpt lat="46.17507" lon="6.66448">
        <ele>1466</ele>
        <time>2022-07-31T07:54:59Z</time>
      </trkpt>
      <trkpt lat="46.17509" lon="6.6645">
        <ele>1465</ele>
        <time>2022-07-31T07:55:00Z</time>
      </trkpt>
      <trkpt lat="46.17509" lon="6.66451">
        <ele>1465</ele>
        <time>2022-07-31T07:55:01Z</time>
      </trkpt>
      <trkpt lat="46.1751" lon="6.66452">
        <ele>1464</ele>
        <time>2022-07-31T07:55:02Z</time>
      </trkpt>
      <trkpt lat="46.1751" lon="6.66454">
        <ele>1464</ele>
        <time>2022-07-31T07:55:03Z</time>
      </trkpt>
      <trkpt lat="46.17511" lon="6.66455">
        <ele>1463</ele>
        <time>2022-07-31T07:55:04Z</time>
      </trkpt>
      <trkpt lat="46.17512" lon="6.66456">
        <ele>1463</ele>
        <time>2022-07-31T07:55:05Z</time>
      </trkpt>
      <trkpt lat="46.17513" lon="6.66457">
        <ele>1462</ele>
        <time>2022-07-31T07:55:06Z</time>
      </trkpt>
      <trkpt lat="46.17514" lon="6.66457">
        <ele>1462</ele>
        <time>2022-07-31T07:55:07Z</time>
      </trkpt>
      <trkpt lat="46.17515" lon="6.66458">
        <ele>1461</ele>
        <time>2022-07-31T07:55:08Z</time>
      </trkpt>
      <trkpt lat="46.17516" lon="6.66459">
        <ele>1461</ele>
        <time>2022-07-31T07:55:09Z</time>
      </trkpt>
      <trkpt lat="46.17517" lon="6.66458">
        <ele>1461</ele>
        <time>2022-07-31T07:55:10Z</time>
      </trkpt>
      <trkpt lat="46.17518" lon="6.66457">
        <ele>1460</ele>
        <time>2022-07-31T07:55:11Z</time>
      </trkpt>
      <trkpt lat="46.17518" lon="6.66455">
        <ele>1460</ele>
        <time>2022-07-31T07:55:12Z</time>
      </trkpt>
      <trkpt lat="46.17518" lon="6.66454">
        <ele>1459</ele>
        <time>2022-07-31T07:55:13Z</time>
      </trkpt>
      <trkpt lat="46.17518" lon="6.66452">
        <ele>1459</ele>
        <time>2022-07-31T07:55:14Z</time>
      </trkpt>
      <trkpt lat="46.17518" lon="6.66452">
        <ele>1458</ele>
        <time>2022-07-31T07:55:15Z</time>
      </trkpt>
      <trkpt lat="46.17518" lon="6.66452">
        <ele>1458</ele>
        <time>2022-07-31T07:55:16Z</time>
      </trkpt>
      <trkpt lat="46.17518" lon="6.6645">
        <ele>1458</ele>
        <time>2022-07-31T07:55:17Z</time>
      </trkpt>
      <trkpt lat="46.17518" lon="6.66449">
        <ele>1458</ele>
        <time>2022-07-31T07:55:18Z</time>
      </trkpt>
      <trkpt lat="46.17518" lon="6.66448">
        <ele>1457</ele>
        <time>2022-07-31T07:55:19Z</time>
      </trkpt>
      <trkpt lat="46.17517" lon="6.66446">
        <ele>1457</ele>
        <time>2022-07-31T07:55:20Z</time>
      </trkpt>
      <trkpt lat="46.17517" lon="6.66444">
        <ele>1457</ele>
        <time>2022-07-31T07:55:21Z</time>
      </trkpt>
      <trkpt lat="46.17516" lon="6.66442">
        <ele>1457</ele>
        <time>2022-07-31T07:55:22Z</time>
      </trkpt>
      <trkpt lat="46.17515" lon="6.6644">
        <ele>1456</ele>
        <time>2022-07-31T07:55:23Z</time>
      </trkpt>
      <trkpt lat="46.17515" lon="6.66438">
        <ele>1456</ele>
        <time>2022-07-31T07:55:24Z</time>
      </trkpt>
      <trkpt lat="46.17515" lon="6.66437">
        <ele>1456</ele>
        <time>2022-07-31T07:55:25Z</time>
      </trkpt>
      <trkpt lat="46.17515" lon="6.66435">
        <ele>1455</ele>
        <time>2022-07-31T07:55:26Z</time>
      </trkpt>
      <trkpt lat="46.17514" lon="6.66433">
        <ele>1455</ele>
        <time>2022-07-31T07:55:27Z</time>
      </trkpt>
      <trkpt lat="46.17514" lon="6.66432">
        <ele>1455</ele>
        <time>2022-07-31T07:55:28Z</time>
      </trkpt>
      <trkpt lat="46.17513" lon="6.6643">
        <ele>1455</ele>
        <time>2022-07-31T07:55:29Z</time>
      </trkpt>
      <trkpt lat="46.17512" lon="6.66428">
        <ele>1454</ele>
        <time>2022-07-31T07:55:30Z</time>
      </trkpt>
      <trkpt lat="46.17512" lon="6.66426">
        <ele>1454</ele>
        <time>2022-07-31T07:55:31Z</time>
      </trkpt>
      <trkpt lat="46.17512" lon="6.66424">
        <ele>1454</ele>
        <time>2022-07-31T07:55:32Z</time>
      </trkpt>
      <trkpt lat="46.17511" lon="6.66422">
        <ele>1454</ele>
        <time>2022-07-31T07:55:33Z</time>
      </trkpt>
      <trkpt lat="46.1751" lon="6.66422">
        <ele>1453</ele>
        <time>2022-07-31T07:55:34Z</time>
      </trkpt>
      <trkpt lat="46.17509" lon="6.6642">
        <ele>1453</ele>
        <time>2022-07-31T07:55:35Z</time>
      </trkpt>
      <trkpt lat="46.17508" lon="6.66418">
        <ele>1453</ele>
        <time>2022-07-31T07:55:36Z</time>
      </trkpt>
      <trkpt lat="46.17507" lon="6.66417">
        <ele>1453</ele>
        <time>2022-07-31T07:55:37Z</time>
      </trkpt>
      <trkpt lat="46.17507" lon="6.66415">
        <ele>1452</ele>
        <time>2022-07-31T07:55:38Z</time>
      </trkpt>
      <trkpt lat="46.17506" lon="6.66413">
        <ele>1452</ele>
        <time>2022-07-31T07:55:39Z</time>
      </trkpt>
      <trkpt lat="46.17505" lon="6.66412">
        <ele>1452</ele>
        <time>2022-07-31T07:55:40Z</time>
      </trkpt>
      <trkpt lat="46.17504" lon="6.66409">
        <ele>1451</ele>
        <time>2022-07-31T07:55:41Z</time>
      </trkpt>
      <trkpt lat="46.17504" lon="6.66408">
        <ele>1451</ele>
        <time>2022-07-31T07:55:42Z</time>
      </trkpt>
      <trkpt lat="46.17503" lon="6.66405">
        <ele>1451</ele>
        <time>2022-07-31T07:55:43Z</time>
      </trkpt>
      <trkpt lat="46.17502" lon="6.66405">
        <ele>1451</ele>
        <time>2022-07-31T07:55:44Z</time>
      </trkpt>
      <trkpt lat="46.17502" lon="6.66404">
        <ele>1451</ele>
        <time>2022-07-31T07:55:45Z</time>
      </trkpt>
      <trkpt lat="46.17501" lon="6.66403">
        <ele>1450</ele>
        <time>2022-07-31T07:55:46Z</time>
      </trkpt>
      <trkpt lat="46.175" lon="6.66402">
        <ele>1450</ele>
        <time>2022-07-31T07:55:47Z</time>
      </trkpt>
      <trkpt lat="46.17499" lon="6.66401">
        <ele>1450</ele>
        <time>2022-07-31T07:55:48Z</time>
      </trkpt>
      <trkpt lat="46.17497" lon="6.664">
        <ele>1450</ele>
        <time>2022-07-31T07:55:49Z</time>
      </trkpt>
      <trkpt lat="46.17496" lon="6.66399">
        <ele>1450</ele>
        <time>2022-07-31T07:55:50Z</time>
      </trkpt>
      <trkpt lat="46.17494" lon="6.66398">
        <ele>1450</ele>
        <time>2022-07-31T07:55:51Z</time>
      </trkpt>
      <trkpt lat="46.17492" lon="6.66396">
        <ele>1449</ele>
        <time>2022-07-31T07:55:52Z</time>
      </trkpt>
      <trkpt lat="46.1749" lon="6.66395">
        <ele>1449</ele>
        <time>2022-07-31T07:55:53Z</time>
      </trkpt>
      <trkpt lat="46.17489" lon="6.66394">
        <ele>1449</ele>
        <time>2022-07-31T07:55:54Z</time>
      </trkpt>
      <trkpt lat="46.17488" lon="6.66394">
        <ele>1449</ele>
        <time>2022-07-31T07:55:55Z</time>
      </trkpt>
      <trkpt lat="46.17487" lon="6.66393">
        <ele>1449</ele>
        <time>2022-07-31T07:55:56Z</time>
      </trkpt>
      <trkpt lat="46.17486" lon="6.66392">
        <ele>1449</ele>
        <time>2022-07-31T07:55:57Z</time>
      </trkpt>
      <trkpt lat="46.17485" lon="6.66392">
        <ele>1449</ele>
        <time>2022-07-31T07:55:58Z</time>
      </trkpt>
      <trkpt lat="46.17485" lon="6.6639">
        <ele>1448</ele>
        <time>2022-07-31T07:55:59Z</time>
      </trkpt>
      <trkpt lat="46.17483" lon="6.6639">
        <ele>1448</ele>
        <time>2022-07-31T07:56:00Z</time>
      </trkpt>
      <trkpt lat="46.17482" lon="6.66389">
        <ele>1448</ele>
        <time>2022-07-31T07:56:01Z</time>
      </trkpt>
      <trkpt lat="46.17479" lon="6.66387">
        <ele>1448</ele>
        <time>2022-07-31T07:56:02Z</time>
      </trkpt>
      <trkpt lat="46.17475" lon="6.66386">
        <ele>1448</ele>
        <time>2022-07-31T07:56:03Z</time>
      </trkpt>
      <trkpt lat="46.17475" lon="6.66385">
        <ele>1448</ele>
        <time>2022-07-31T07:56:04Z</time>
      </trkpt>
      <trkpt lat="46.17474" lon="6.66384">
        <ele>1447</ele>
        <time>2022-07-31T07:56:05Z</time>
      </trkpt>
      <trkpt lat="46.17474" lon="6.66383">
        <ele>1447</ele>
        <time>2022-07-31T07:56:06Z</time>
      </trkpt>
      <trkpt lat="46.17473" lon="6.66383">
        <ele>1447</ele>
        <time>2022-07-31T07:56:07Z</time>
      </trkpt>
      <trkpt lat="46.17472" lon="6.66382">
        <ele>1447</ele>
        <time>2022-07-31T07:56:08Z</time>
      </trkpt>
      <trkpt lat="46.17472" lon="6.66382">
        <ele>1446</ele>
        <time>2022-07-31T07:56:09Z</time>
      </trkpt>
      <trkpt lat="46.1747" lon="6.66381">
        <ele>1446</ele>
        <time>2022-07-31T07:56:10Z</time>
      </trkpt>
      <trkpt lat="46.17469" lon="6.6638">
        <ele>1446</ele>
        <time>2022-07-31T07:56:11Z</time>
      </trkpt>
      <trkpt lat="46.17468" lon="6.66379">
        <ele>1446</ele>
        <time>2022-07-31T07:56:12Z</time>
      </trkpt>
      <trkpt lat="46.17467" lon="6.66378">
        <ele>1445</ele>
        <time>2022-07-31T07:56:13Z</time>
      </trkpt>
      <trkpt lat="46.17466" lon="6.66378">
        <ele>1445</ele>
        <time>2022-07-31T07:56:14Z</time>
      </trkpt>
      <trkpt lat="46.17465" lon="6.66377">
        <ele>1445</ele>
        <time>2022-07-31T07:56:15Z</time>
      </trkpt>
      <trkpt lat="46.17464" lon="6.66377">
        <ele>1444</ele>
        <time>2022-07-31T07:56:16Z</time>
      </trkpt>
      <trkpt lat="46.17463" lon="6.66376">
        <ele>1444</ele>
        <time>2022-07-31T07:56:17Z</time>
      </trkpt>
      <trkpt lat="46.17461" lon="6.66375">
        <ele>1444</ele>
        <time>2022-07-31T07:56:18Z</time>
      </trkpt>
      <trkpt lat="46.1746" lon="6.66374">
        <ele>1444</ele>
        <time>2022-07-31T07:56:19Z</time>
      </trkpt>
      <trkpt lat="46.17459" lon="6.66374">
        <ele>1444</ele>
        <time>2022-07-31T07:56:20Z</time>
      </trkpt>
      <trkpt lat="46.17458" lon="6.66374">
        <ele>1443</ele>
        <time>2022-07-31T07:56:21Z</time>
      </trkpt>
      <trkpt lat="46.17457" lon="6.66372">
        <ele>1443</ele>
        <time>2022-07-31T07:56:22Z</time>
      </trkpt>
      <trkpt lat="46.17457" lon="6.66372">
        <ele>1443</ele>
        <time>2022-07-31T07:56:23Z</time>
      </trkpt>
      <trkpt lat="46.17456" lon="6.66372">
        <ele>1443</ele>
        <time>2022-07-31T07:56:24Z</time>
      </trkpt>
      <trkpt lat="46.17454" lon="6.66372">
        <ele>1443</ele>
        <time>2022-07-31T07:56:25Z</time>
      </trkpt>
      <trkpt lat="46.17454" lon="6.66372">
        <ele>1443</ele>
        <time>2022-07-31T07:56:26Z</time>
      </trkpt>
      <trkpt lat="46.17453" lon="6.66371">
        <ele>1443</ele>
        <time>2022-07-31T07:56:27Z</time>
      </trkpt>
      <trkpt lat="46.17453" lon="6.6637">
        <ele>1443</ele>
        <time>2022-07-31T07:56:28Z</time>
      </trkpt>
      <trkpt lat="46.17452" lon="6.6637">
        <ele>1443</ele>
        <time>2022-07-31T07:56:29Z</time>
      </trkpt>
      <trkpt lat="46.17451" lon="6.6637">
        <ele>1443</ele>
        <time>2022-07-31T07:56:30Z</time>
      </trkpt>
      <trkpt lat="46.1745" lon="6.66371">
        <ele>1442</ele>
        <time>2022-07-31T07:56:31Z</time>
      </trkpt>
      <trkpt lat="46.1745" lon="6.66372">
        <ele>1442</ele>
        <time>2022-07-31T07:56:32Z</time>
      </trkpt>
      <trkpt lat="46.17449" lon="6.66373">
        <ele>1442</ele>
        <time>2022-07-31T07:56:33Z</time>
      </trkpt>
      <trkpt lat="46.17448" lon="6.66373">
        <ele>1442</ele>
        <time>2022-07-31T07:56:34Z</time>
      </trkpt>
      <trkpt lat="46.17446" lon="6.66372">
        <ele>1442</ele>
        <time>2022-07-31T07:56:35Z</time>
      </trkpt>
      <trkpt lat="46.17446" lon="6.66373">
        <ele>1442</ele>
        <time>2022-07-31T07:56:36Z</time>
      </trkpt>
      <trkpt lat="46.17444" lon="6.66373">
        <ele>1442</ele>
        <time>2022-07-31T07:56:37Z</time>
      </trkpt>
      <trkpt lat="46.17443" lon="6.66373">
        <ele>1442</ele>
        <time>2022-07-31T07:56:38Z</time>
      </trkpt>
      <trkpt lat="46.17443" lon="6.66373">
        <ele>1442</ele>
        <time>2022-07-31T07:56:39Z</time>
      </trkpt>
      <trkpt lat="46.17442" lon="6.66373">
        <ele>1442</ele>
        <time>2022-07-31T07:56:40Z</time>
      </trkpt>
      <trkpt lat="46.17441" lon="6.66372">
        <ele>1442</ele>
        <time>2022-07-31T07:56:41Z</time>
      </trkpt>
      <trkpt lat="46.17441" lon="6.66371">
        <ele>1442</ele>
        <time>2022-07-31T07:56:42Z</time>
      </trkpt>
      <trkpt lat="46.1744" lon="6.66371">
        <ele>1442</ele>
        <time>2022-07-31T07:56:43Z</time>
      </trkpt>
      <trkpt lat="46.1744" lon="6.66371">
        <ele>1442</ele>
        <time>2022-07-31T07:56:44Z</time>
      </trkpt>
      <trkpt lat="46.17438" lon="6.66371">
        <ele>1442</ele>
        <time>2022-07-31T07:56:45Z</time>
      </trkpt>
      <trkpt lat="46.17438" lon="6.66371">
        <ele>1442</ele>
        <time>2022-07-31T07:56:46Z</time>
      </trkpt>
      <trkpt lat="46.17436" lon="6.66371">
        <ele>1442</ele>
        <time>2022-07-31T07:56:47Z</time>
      </trkpt>
      <trkpt lat="46.17436" lon="6.66371">
        <ele>1442</ele>
        <time>2022-07-31T07:56:48Z</time>
      </trkpt>
      <trkpt lat="46.17436" lon="6.6637">
        <ele>1442</ele>
        <time>2022-07-31T07:56:49Z</time>
      </trkpt>
      <trkpt lat="46.17436" lon="6.6637">
        <ele>1442</ele>
        <time>2022-07-31T07:56:50Z</time>
      </trkpt>
      <trkpt lat="46.17435" lon="6.66371">
        <ele>1442</ele>
        <time>2022-07-31T07:56:51Z</time>
      </trkpt>
      <trkpt lat="46.17434" lon="6.66373">
        <ele>1442</ele>
        <time>2022-07-31T07:56:52Z</time>
      </trkpt>
      <trkpt lat="46.17434" lon="6.66373">
        <ele>1442</ele>
        <time>2022-07-31T07:56:53Z</time>
      </trkpt>
      <trkpt lat="46.17432" lon="6.66374">
        <ele>1442</ele>
        <time>2022-07-31T07:56:54Z</time>
      </trkpt>
      <trkpt lat="46.17432" lon="6.66374">
        <ele>1443</ele>
        <time>2022-07-31T07:56:55Z</time>
      </trkpt>
      <trkpt lat="46.17432" lon="6.66375">
        <ele>1443</ele>
        <time>2022-07-31T07:56:56Z</time>
      </trkpt>
      <trkpt lat="46.17431" lon="6.66376">
        <ele>1443</ele>
        <time>2022-07-31T07:56:57Z</time>
      </trkpt>
      <trkpt lat="46.17431" lon="6.66377">
        <ele>1443</ele>
        <time>2022-07-31T07:56:58Z</time>
      </trkpt>
      <trkpt lat="46.17431" lon="6.66376">
        <ele>1443</ele>
        <time>2022-07-31T07:56:59Z</time>
      </trkpt>
      <trkpt lat="46.17431" lon="6.66376">
        <ele>1443</ele>
        <time>2022-07-31T07:57:00Z</time>
      </trkpt>
      <trkpt lat="46.1743" lon="6.66377">
        <ele>1444</ele>
        <time>2022-07-31T07:57:01Z</time>
      </trkpt>
      <trkpt lat="46.17429" lon="6.66378">
        <ele>1444</ele>
        <time>2022-07-31T07:57:02Z</time>
      </trkpt>
      <trkpt lat="46.17428" lon="6.66379">
        <ele>1444</ele>
        <time>2022-07-31T07:57:03Z</time>
      </trkpt>
      <trkpt lat="46.17427" lon="6.66379">
        <ele>1444</ele>
        <time>2022-07-31T07:57:04Z</time>
      </trkpt>
      <trkpt lat="46.17426" lon="6.66379">
        <ele>1444</ele>
        <time>2022-07-31T07:57:05Z</time>
      </trkpt>
      <trkpt lat="46.17423" lon="6.66379">
        <ele>1445</ele>
        <time>2022-07-31T07:57:06Z</time>
      </trkpt>
      <trkpt lat="46.17422" lon="6.66378">
        <ele>1445</ele>
        <time>2022-07-31T07:57:07Z</time>
      </trkpt>
      <trkpt lat="46.1742" lon="6.66378">
        <ele>1445</ele>
        <time>2022-07-31T07:57:08Z</time>
      </trkpt>
      <trkpt lat="46.17419" lon="6.66379">
        <ele>1445</ele>
        <time>2022-07-31T07:57:09Z</time>
      </trkpt>
      <trkpt lat="46.17417" lon="6.66378">
        <ele>1445</ele>
        <time>2022-07-31T07:57:10Z</time>
      </trkpt>
      <trkpt lat="46.17416" lon="6.66378">
        <ele>1446</ele>
        <time>2022-07-31T07:57:11Z</time>
      </trkpt>
      <trkpt lat="46.17415" lon="6.66377">
        <ele>1446</ele>
        <time>2022-07-31T07:57:12Z</time>
      </trkpt>
      <trkpt lat="46.17413" lon="6.66376">
        <ele>1446</ele>
        <time>2022-07-31T07:57:13Z</time>
      </trkpt>
      <trkpt lat="46.17412" lon="6.66376">
        <ele>1446</ele>
        <time>2022-07-31T07:57:14Z</time>
      </trkpt>
      <trkpt lat="46.1741" lon="6.66375">
        <ele>1446</ele>
        <time>2022-07-31T07:57:15Z</time>
      </trkpt>
      <trkpt lat="46.17409" lon="6.66375">
        <ele>1447</ele>
        <time>2022-07-31T07:57:16Z</time>
      </trkpt>
      <trkpt lat="46.17408" lon="6.66373">
        <ele>1447</ele>
        <time>2022-07-31T07:57:17Z</time>
      </trkpt>
      <trkpt lat="46.17407" lon="6.66372">
        <ele>1447</ele>
        <time>2022-07-31T07:57:18Z</time>
      </trkpt>
      <trkpt lat="46.17406" lon="6.66369">
        <ele>1447</ele>
        <time>2022-07-31T07:57:19Z</time>
      </trkpt>
      <trkpt lat="46.17404" lon="6.66369">
        <ele>1448</ele>
        <time>2022-07-31T07:57:20Z</time>
      </trkpt>
      <trkpt lat="46.17403" lon="6.66367">
        <ele>1448</ele>
        <time>2022-07-31T07:57:21Z</time>
      </trkpt>
      <trkpt lat="46.17401" lon="6.66368">
        <ele>1448</ele>
        <time>2022-07-31T07:57:22Z</time>
      </trkpt>
      <trkpt lat="46.17401" lon="6.66369">
        <ele>1448</ele>
        <time>2022-07-31T07:57:23Z</time>
      </trkpt>
      <trkpt lat="46.174" lon="6.6637">
        <ele>1449</ele>
        <time>2022-07-31T07:57:24Z</time>
      </trkpt>
      <trkpt lat="46.17399" lon="6.66369">
        <ele>1449</ele>
        <time>2022-07-31T07:57:25Z</time>
      </trkpt>
      <trkpt lat="46.17398" lon="6.66369">
        <ele>1449</ele>
        <time>2022-07-31T07:57:26Z</time>
      </trkpt>
      <trkpt lat="46.17397" lon="6.66368">
        <ele>1450</ele>
        <time>2022-07-31T07:57:27Z</time>
      </trkpt>
      <trkpt lat="46.17397" lon="6.66369">
        <ele>1450</ele>
        <time>2022-07-31T07:57:28Z</time>
      </trkpt>
      <trkpt lat="46.17394" lon="6.66369">
        <ele>1450</ele>
        <time>2022-07-31T07:57:29Z</time>
      </trkpt>
      <trkpt lat="46.17393" lon="6.66366">
        <ele>1450</ele>
        <time>2022-07-31T07:57:30Z</time>
      </trkpt>
      <trkpt lat="46.17392" lon="6.66363">
        <ele>1451</ele>
        <time>2022-07-31T07:57:31Z</time>
      </trkpt>
      <trkpt lat="46.1739" lon="6.66362">
        <ele>1451</ele>
        <time>2022-07-31T07:57:32Z</time>
      </trkpt>
      <trkpt lat="46.1739" lon="6.6636">
        <ele>1451</ele>
        <time>2022-07-31T07:57:33Z</time>
      </trkpt>
      <trkpt lat="46.17388" lon="6.66358">
        <ele>1451</ele>
        <time>2022-07-31T07:57:34Z</time>
      </trkpt>
      <trkpt lat="46.17387" lon="6.66357">
        <ele>1451</ele>
        <time>2022-07-31T07:57:35Z</time>
      </trkpt>
      <trkpt lat="46.17385" lon="6.66357">
        <ele>1451</ele>
        <time>2022-07-31T07:57:36Z</time>
      </trkpt>
      <trkpt lat="46.17383" lon="6.66353">
        <ele>1452</ele>
        <time>2022-07-31T07:57:37Z</time>
      </trkpt>
      <trkpt lat="46.17381" lon="6.6635">
        <ele>1452</ele>
        <time>2022-07-31T07:57:38Z</time>
      </trkpt>
      <trkpt lat="46.17378" lon="6.66347">
        <ele>1452</ele>
        <time>2022-07-31T07:57:39Z</time>
      </trkpt>
      <trkpt lat="46.17378" lon="6.66346">
        <ele>1452</ele>
        <time>2022-07-31T07:57:40Z</time>
      </trkpt>
      <trkpt lat="46.17377" lon="6.66346">
        <ele>1452</ele>
        <time>2022-07-31T07:57:41Z</time>
      </trkpt>
      <trkpt lat="46.17376" lon="6.66346">
        <ele>1452</ele>
        <time>2022-07-31T07:57:42Z</time>
      </trkpt>
      <trkpt lat="46.17375" lon="6.66347">
        <ele>1452</ele>
        <time>2022-07-31T07:57:43Z</time>
      </trkpt>
      <trkpt lat="46.17375" lon="6.66347">
        <ele>1452</ele>
        <time>2022-07-31T07:57:44Z</time>
      </trkpt>
      <trkpt lat="46.17374" lon="6.66347">
        <ele>1452</ele>
        <time>2022-07-31T07:57:45Z</time>
      </trkpt>
      <trkpt lat="46.17373" lon="6.66347">
        <ele>1452</ele>
        <time>2022-07-31T07:57:46Z</time>
      </trkpt>
      <trkpt lat="46.17373" lon="6.66347">
        <ele>1453</ele>
        <time>2022-07-31T07:57:47Z</time>
      </trkpt>
      <trkpt lat="46.17372" lon="6.66347">
        <ele>1453</ele>
        <time>2022-07-31T07:57:48Z</time>
      </trkpt>
      <trkpt lat="46.17371" lon="6.66346">
        <ele>1453</ele>
        <time>2022-07-31T07:57:49Z</time>
      </trkpt>
      <trkpt lat="46.1737" lon="6.66346">
        <ele>1453</ele>
        <time>2022-07-31T07:57:50Z</time>
      </trkpt>
      <trkpt lat="46.1737" lon="6.66344">
        <ele>1453</ele>
        <time>2022-07-31T07:57:51Z</time>
      </trkpt>
      <trkpt lat="46.1737" lon="6.66342">
        <ele>1453</ele>
        <time>2022-07-31T07:57:52Z</time>
      </trkpt>
      <trkpt lat="46.17369" lon="6.6634">
        <ele>1453</ele>
        <time>2022-07-31T07:57:53Z</time>
      </trkpt>
      <trkpt lat="46.17368" lon="6.66337">
        <ele>1453</ele>
        <time>2022-07-31T07:57:54Z</time>
      </trkpt>
      <trkpt lat="46.17368" lon="6.66337">
        <ele>1453</ele>
        <time>2022-07-31T07:57:55Z</time>
      </trkpt>
      <trkpt lat="46.17367" lon="6.66334">
        <ele>1453</ele>
        <time>2022-07-31T07:57:56Z</time>
      </trkpt>
      <trkpt lat="46.17366" lon="6.66331">
        <ele>1453</ele>
        <time>2022-07-31T07:57:57Z</time>
      </trkpt>
      <trkpt lat="46.17364" lon="6.66329">
        <ele>1453</ele>
        <time>2022-07-31T07:57:58Z</time>
      </trkpt>
      <trkpt lat="46.17363" lon="6.66326">
        <ele>1453</ele>
        <time>2022-07-31T07:57:59Z</time>
      </trkpt>
      <trkpt lat="46.17361" lon="6.66325">
        <ele>1453</ele>
        <time>2022-07-31T07:58:00Z</time>
      </trkpt>
      <trkpt lat="46.1736" lon="6.66324">
        <ele>1453</ele>
        <time>2022-07-31T07:58:01Z</time>
      </trkpt>
      <trkpt lat="46.17359" lon="6.66323">
        <ele>1453</ele>
        <time>2022-07-31T07:58:02Z</time>
      </trkpt>
      <trkpt lat="46.17358" lon="6.66322">
        <ele>1453</ele>
        <time>2022-07-31T07:58:03Z</time>
      </trkpt>
      <trkpt lat="46.17357" lon="6.66321">
        <ele>1453</ele>
        <time>2022-07-31T07:58:04Z</time>
      </trkpt>
      <trkpt lat="46.17355" lon="6.6632">
        <ele>1453</ele>
        <time>2022-07-31T07:58:05Z</time>
      </trkpt>
      <trkpt lat="46.17354" lon="6.66318">
        <ele>1454</ele>
        <time>2022-07-31T07:58:06Z</time>
      </trkpt>
      <trkpt lat="46.17351" lon="6.66316">
        <ele>1454</ele>
        <time>2022-07-31T07:58:07Z</time>
      </trkpt>
      <trkpt lat="46.1735" lon="6.66313">
        <ele>1454</ele>
        <time>2022-07-31T07:58:08Z</time>
      </trkpt>
      <trkpt lat="46.17349" lon="6.66311">
        <ele>1454</ele>
        <time>2022-07-31T07:58:09Z</time>
      </trkpt>
      <trkpt lat="46.17349" lon="6.6631">
        <ele>1454</ele>
        <time>2022-07-31T07:58:10Z</time>
      </trkpt>
      <trkpt lat="46.17348" lon="6.66309">
        <ele>1454</ele>
        <time>2022-07-31T07:58:11Z</time>
      </trkpt>
      <trkpt lat="46.17347" lon="6.66307">
        <ele>1454</ele>
        <time>2022-07-31T07:58:12Z</time>
      </trkpt>
      <trkpt lat="46.17347" lon="6.66306">
        <ele>1454</ele>
        <time>2022-07-31T07:58:13Z</time>
      </trkpt>
      <trkpt lat="46.17346" lon="6.66304">
        <ele>1454</ele>
        <time>2022-07-31T07:58:14Z</time>
      </trkpt>
      <trkpt lat="46.17345" lon="6.66301">
        <ele>1454</ele>
        <time>2022-07-31T07:58:15Z</time>
      </trkpt>
      <trkpt lat="46.17344" lon="6.66299">
        <ele>1454</ele>
        <time>2022-07-31T07:58:16Z</time>
      </trkpt>
      <trkpt lat="46.17343" lon="6.66297">
        <ele>1454</ele>
        <time>2022-07-31T07:58:17Z</time>
      </trkpt>
      <trkpt lat="46.17341" lon="6.66295">
        <ele>1454</ele>
        <time>2022-07-31T07:58:18Z</time>
      </trkpt>
      <trkpt lat="46.17341" lon="6.66295">
        <ele>1454</ele>
        <time>2022-07-31T07:58:19Z</time>
      </trkpt>
      <trkpt lat="46.1734" lon="6.66292">
        <ele>1454</ele>
        <time>2022-07-31T07:58:20Z</time>
      </trkpt>
      <trkpt lat="46.17339" lon="6.6629">
        <ele>1454</ele>
        <time>2022-07-31T07:58:21Z</time>
      </trkpt>
      <trkpt lat="46.17337" lon="6.6629">
        <ele>1454</ele>
        <time>2022-07-31T07:58:22Z</time>
      </trkpt>
      <trkpt lat="46.17337" lon="6.66289">
        <ele>1454</ele>
        <time>2022-07-31T07:58:23Z</time>
      </trkpt>
      <trkpt lat="46.17335" lon="6.66288">
        <ele>1454</ele>
        <time>2022-07-31T07:58:24Z</time>
      </trkpt>
      <trkpt lat="46.17334" lon="6.66288">
        <ele>1454</ele>
        <time>2022-07-31T07:58:25Z</time>
      </trkpt>
      <trkpt lat="46.17334" lon="6.66288">
        <ele>1454</ele>
        <time>2022-07-31T07:58:26Z</time>
      </trkpt>
      <trkpt lat="46.17333" lon="6.66289">
        <ele>1454</ele>
        <time>2022-07-31T07:58:27Z</time>
      </trkpt>
      <trkpt lat="46.17332" lon="6.66289">
        <ele>1454</ele>
        <time>2022-07-31T07:58:28Z</time>
      </trkpt>
      <trkpt lat="46.17331" lon="6.6629">
        <ele>1454</ele>
        <time>2022-07-31T07:58:29Z</time>
      </trkpt>
      <trkpt lat="46.17329" lon="6.6629">
        <ele>1454</ele>
        <time>2022-07-31T07:58:30Z</time>
      </trkpt>
      <trkpt lat="46.17328" lon="6.6629">
        <ele>1454</ele>
        <time>2022-07-31T07:58:31Z</time>
      </trkpt>
      <trkpt lat="46.17326" lon="6.6629">
        <ele>1455</ele>
        <time>2022-07-31T07:58:32Z</time>
      </trkpt>
      <trkpt lat="46.17324" lon="6.6629">
        <ele>1455</ele>
        <time>2022-07-31T07:58:33Z</time>
      </trkpt>
      <trkpt lat="46.17321" lon="6.66291">
        <ele>1455</ele>
        <time>2022-07-31T07:58:34Z</time>
      </trkpt>
      <trkpt lat="46.17318" lon="6.66291">
        <ele>1455</ele>
        <time>2022-07-31T07:58:35Z</time>
      </trkpt>
      <trkpt lat="46.17317" lon="6.66291">
        <ele>1455</ele>
        <time>2022-07-31T07:58:36Z</time>
      </trkpt>
      <trkpt lat="46.17316" lon="6.66289">
        <ele>1455</ele>
        <time>2022-07-31T07:58:37Z</time>
      </trkpt>
      <trkpt lat="46.17314" lon="6.66289">
        <ele>1455</ele>
        <time>2022-07-31T07:58:38Z</time>
      </trkpt>
      <trkpt lat="46.17313" lon="6.66289">
        <ele>1456</ele>
        <time>2022-07-31T07:58:39Z</time>
      </trkpt>
      <trkpt lat="46.17312" lon="6.66288">
        <ele>1456</ele>
        <time>2022-07-31T07:58:40Z</time>
      </trkpt>
      <trkpt lat="46.17309" lon="6.66287">
        <ele>1456</ele>
        <time>2022-07-31T07:58:41Z</time>
      </trkpt>
      <trkpt lat="46.17307" lon="6.66287">
        <ele>1456</ele>
        <time>2022-07-31T07:58:42Z</time>
      </trkpt>
      <trkpt lat="46.17305" lon="6.66287">
        <ele>1456</ele>
        <time>2022-07-31T07:58:43Z</time>
      </trkpt>
      <trkpt lat="46.17303" lon="6.66287">
        <ele>1456</ele>
        <time>2022-07-31T07:58:44Z</time>
      </trkpt>
      <trkpt lat="46.17302" lon="6.66285">
        <ele>1456</ele>
        <time>2022-07-31T07:58:45Z</time>
      </trkpt>
      <trkpt lat="46.17301" lon="6.66284">
        <ele>1456</ele>
        <time>2022-07-31T07:58:46Z</time>
      </trkpt>
      <trkpt lat="46.17301" lon="6.66284">
        <ele>1456</ele>
        <time>2022-07-31T07:58:47Z</time>
      </trkpt>
      <trkpt lat="46.17298" lon="6.66284">
        <ele>1456</ele>
        <time>2022-07-31T07:58:48Z</time>
      </trkpt>
      <trkpt lat="46.17297" lon="6.66285">
        <ele>1456</ele>
        <time>2022-07-31T07:58:49Z</time>
      </trkpt>
      <trkpt lat="46.17295" lon="6.66282">
        <ele>1456</ele>
        <time>2022-07-31T07:58:50Z</time>
      </trkpt>
      <trkpt lat="46.17294" lon="6.66281">
        <ele>1456</ele>
        <time>2022-07-31T07:58:51Z</time>
      </trkpt>
      <trkpt lat="46.17292" lon="6.66279">
        <ele>1455</ele>
        <time>2022-07-31T07:58:52Z</time>
      </trkpt>
      <trkpt lat="46.17291" lon="6.66277">
        <ele>1455</ele>
        <time>2022-07-31T07:58:53Z</time>
      </trkpt>
      <trkpt lat="46.17289" lon="6.66276">
        <ele>1455</ele>
        <time>2022-07-31T07:58:54Z</time>
      </trkpt>
      <trkpt lat="46.17288" lon="6.66274">
        <ele>1454</ele>
        <time>2022-07-31T07:58:55Z</time>
      </trkpt>
      <trkpt lat="46.17287" lon="6.66273">
        <ele>1454</ele>
        <time>2022-07-31T07:58:56Z</time>
      </trkpt>
      <trkpt lat="46.17286" lon="6.6627">
        <ele>1453</ele>
        <time>2022-07-31T07:58:57Z</time>
      </trkpt>
      <trkpt lat="46.17284" lon="6.66271">
        <ele>1453</ele>
        <time>2022-07-31T07:58:58Z</time>
      </trkpt>
      <trkpt lat="46.17283" lon="6.66272">
        <ele>1452</ele>
        <time>2022-07-31T07:58:59Z</time>
      </trkpt>
      <trkpt lat="46.17281" lon="6.66272">
        <ele>1452</ele>
        <time>2022-07-31T07:59:00Z</time>
      </trkpt>
      <trkpt lat="46.1728" lon="6.66271">
        <ele>1452</ele>
        <time>2022-07-31T07:59:01Z</time>
      </trkpt>
      <trkpt lat="46.17279" lon="6.6627">
        <ele>1451</ele>
        <time>2022-07-31T07:59:02Z</time>
      </trkpt>
      <trkpt lat="46.17277" lon="6.66267">
        <ele>1451</ele>
        <time>2022-07-31T07:59:03Z</time>
      </trkpt>
      <trkpt lat="46.17276" lon="6.66266">
        <ele>1450</ele>
        <time>2022-07-31T07:59:04Z</time>
      </trkpt>
      <trkpt lat="46.17275" lon="6.66266">
        <ele>1450</ele>
        <time>2022-07-31T07:59:05Z</time>
      </trkpt>
      <trkpt lat="46.17272" lon="6.66265">
        <ele>1449</ele>
        <time>2022-07-31T07:59:06Z</time>
      </trkpt>
      <trkpt lat="46.17269" lon="6.66263">
        <ele>1449</ele>
        <time>2022-07-31T07:59:07Z</time>
      </trkpt>
      <trkpt lat="46.17268" lon="6.66262">
        <ele>1448</ele>
        <time>2022-07-31T07:59:08Z</time>
      </trkpt>
      <trkpt lat="46.17266" lon="6.66261">
        <ele>1448</ele>
        <time>2022-07-31T07:59:09Z</time>
      </trkpt>
      <trkpt lat="46.17264" lon="6.6626">
        <ele>1448</ele>
        <time>2022-07-31T07:59:10Z</time>
      </trkpt>
      <trkpt lat="46.17262" lon="6.66259">
        <ele>1447</ele>
        <time>2022-07-31T07:59:11Z</time>
      </trkpt>
      <trkpt lat="46.1726" lon="6.66257">
        <ele>1447</ele>
        <time>2022-07-31T07:59:12Z</time>
      </trkpt>
      <trkpt lat="46.17259" lon="6.66255">
        <ele>1446</ele>
        <time>2022-07-31T07:59:13Z</time>
      </trkpt>
      <trkpt lat="46.17257" lon="6.66254">
        <ele>1446</ele>
        <time>2022-07-31T07:59:14Z</time>
      </trkpt>
      <trkpt lat="46.17255" lon="6.66253">
        <ele>1446</ele>
        <time>2022-07-31T07:59:15Z</time>
      </trkpt>
      <trkpt lat="46.17253" lon="6.66251">
        <ele>1445</ele>
        <time>2022-07-31T07:59:16Z</time>
      </trkpt>
      <trkpt lat="46.17252" lon="6.6625">
        <ele>1445</ele>
        <time>2022-07-31T07:59:17Z</time>
      </trkpt>
      <trkpt lat="46.17251" lon="6.66248">
        <ele>1444</ele>
        <time>2022-07-31T07:59:18Z</time>
      </trkpt>
      <trkpt lat="46.17248" lon="6.66248">
        <ele>1444</ele>
        <time>2022-07-31T07:59:19Z</time>
      </trkpt>
      <trkpt lat="46.17247" lon="6.66247">
        <ele>1444</ele>
        <time>2022-07-31T07:59:20Z</time>
      </trkpt>
      <trkpt lat="46.17245" lon="6.66246">
        <ele>1443</ele>
        <time>2022-07-31T07:59:21Z</time>
      </trkpt>
      <trkpt lat="46.17243" lon="6.66246">
        <ele>1443</ele>
        <time>2022-07-31T07:59:22Z</time>
      </trkpt>
      <trkpt lat="46.17242" lon="6.66245">
        <ele>1443</ele>
        <time>2022-07-31T07:59:23Z</time>
      </trkpt>
      <trkpt lat="46.1724" lon="6.66244">
        <ele>1443</ele>
        <time>2022-07-31T07:59:24Z</time>
      </trkpt>
      <trkpt lat="46.17239" lon="6.66244">
        <ele>1442</ele>
        <time>2022-07-31T07:59:25Z</time>
      </trkpt>
      <trkpt lat="46.17238" lon="6.66244">
        <ele>1442</ele>
        <time>2022-07-31T07:59:26Z</time>
      </trkpt>
      <trkpt lat="46.17236" lon="6.66243">
        <ele>1442</ele>
        <time>2022-07-31T07:59:27Z</time>
      </trkpt>
      <trkpt lat="46.17234" lon="6.66241">
        <ele>1442</ele>
        <time>2022-07-31T07:59:28Z</time>
      </trkpt>
      <trkpt lat="46.17233" lon="6.66241">
        <ele>1442</ele>
        <time>2022-07-31T07:59:29Z</time>
      </trkpt>
      <trkpt lat="46.17232" lon="6.6624">
        <ele>1441</ele>
        <time>2022-07-31T07:59:30Z</time>
      </trkpt>
      <trkpt lat="46.17231" lon="6.6624">
        <ele>1441</ele>
        <time>2022-07-31T07:59:31Z</time>
      </trkpt>
      <trkpt lat="46.1723" lon="6.66239">
        <ele>1441</ele>
        <time>2022-07-31T07:59:32Z</time>
      </trkpt>
      <trkpt lat="46.17229" lon="6.66238">
        <ele>1441</ele>
        <time>2022-07-31T07:59:33Z</time>
      </trkpt>
      <trkpt lat="46.17228" lon="6.66237">
        <ele>1441</ele>
        <time>2022-07-31T07:59:34Z</time>
      </trkpt>
      <trkpt lat="46.17226" lon="6.66236">
        <ele>1440</ele>
        <time>2022-07-31T07:59:35Z</time>
      </trkpt>
      <trkpt lat="46.17225" lon="6.66234">
        <ele>1440</ele>
        <time>2022-07-31T07:59:36Z</time>
      </trkpt>
      <trkpt lat="46.17224" lon="6.66233">
        <ele>1440</ele>
        <time>2022-07-31T07:59:37Z</time>
      </trkpt>
      <trkpt lat="46.17222" lon="6.66233">
        <ele>1440</ele>
        <time>2022-07-31T07:59:38Z</time>
      </trkpt>
      <trkpt lat="46.17221" lon="6.66232">
        <ele>1439</ele>
        <time>2022-07-31T07:59:39Z</time>
      </trkpt>
      <trkpt lat="46.17219" lon="6.66231">
        <ele>1439</ele>
        <time>2022-07-31T07:59:40Z</time>
      </trkpt>
      <trkpt lat="46.17218" lon="6.66231">
        <ele>1439</ele>
        <time>2022-07-31T07:59:41Z</time>
      </trkpt>
      <trkpt lat="46.17217" lon="6.6623">
        <ele>1439</ele>
        <time>2022-07-31T07:59:42Z</time>
      </trkpt>
      <trkpt lat="46.17215" lon="6.6623">
        <ele>1438</ele>
        <time>2022-07-31T07:59:43Z</time>
      </trkpt>
      <trkpt lat="46.17214" lon="6.66228">
        <ele>1438</ele>
        <time>2022-07-31T07:59:44Z</time>
      </trkpt>
      <trkpt lat="46.17213" lon="6.66227">
        <ele>1438</ele>
        <time>2022-07-31T07:59:45Z</time>
      </trkpt>
      <trkpt lat="46.17211" lon="6.66226">
        <ele>1437</ele>
        <time>2022-07-31T07:59:46Z</time>
      </trkpt>
      <trkpt lat="46.1721" lon="6.66224">
        <ele>1437</ele>
        <time>2022-07-31T07:59:47Z</time>
      </trkpt>
      <trkpt lat="46.17209" lon="6.66223">
        <ele>1437</ele>
        <time>2022-07-31T07:59:48Z</time>
      </trkpt>
      <trkpt lat="46.17208" lon="6.66222">
        <ele>1437</ele>
        <time>2022-07-31T07:59:49Z</time>
      </trkpt>
      <trkpt lat="46.17208" lon="6.66222">
        <ele>1436</ele>
        <time>2022-07-31T07:59:50Z</time>
      </trkpt>
      <trkpt lat="46.17207" lon="6.66221">
        <ele>1436</ele>
        <time>2022-07-31T07:59:51Z</time>
      </trkpt>
      <trkpt lat="46.17205" lon="6.66219">
        <ele>1436</ele>
        <time>2022-07-31T07:59:52Z</time>
      </trkpt>
      <trkpt lat="46.17204" lon="6.66218">
        <ele>1436</ele>
        <time>2022-07-31T07:59:53Z</time>
      </trkpt>
      <trkpt lat="46.17203" lon="6.66217">
        <ele>1436</ele>
        <time>2022-07-31T07:59:54Z</time>
      </trkpt>
      <trkpt lat="46.17202" lon="6.66216">
        <ele>1435</ele>
        <time>2022-07-31T07:59:55Z</time>
      </trkpt>
      <trkpt lat="46.17202" lon="6.66214">
        <ele>1435</ele>
        <time>2022-07-31T07:59:56Z</time>
      </trkpt>
      <trkpt lat="46.17201" lon="6.66213">
        <ele>1435</ele>
        <time>2022-07-31T07:59:57Z</time>
      </trkpt>
      <trkpt lat="46.172" lon="6.66212">
        <ele>1435</ele>
        <time>2022-07-31T07:59:58Z</time>
      </trkpt>
      <trkpt lat="46.17198" lon="6.6621">
        <ele>1435</ele>
        <time>2022-07-31T07:59:59Z</time>
      </trkpt>
      <trkpt lat="46.17197" lon="6.66208">
        <ele>1434</ele>
        <time>2022-07-31T08:00:00Z</time>
      </trkpt>
      <trkpt lat="46.17196" lon="6.66206">
        <ele>1434</ele>
        <time>2022-07-31T08:00:01Z</time>
      </trkpt>
      <trkpt lat="46.17195" lon="6.66206">
        <ele>1434</ele>
        <time>2022-07-31T08:00:02Z</time>
      </trkpt>
      <trkpt lat="46.17193" lon="6.66205">
        <ele>1434</ele>
        <time>2022-07-31T08:00:03Z</time>
      </trkpt>
      <trkpt lat="46.17192" lon="6.66204">
        <ele>1433</ele>
        <time>2022-07-31T08:00:04Z</time>
      </trkpt>
      <trkpt lat="46.17192" lon="6.66201">
        <ele>1433</ele>
        <time>2022-07-31T08:00:05Z</time>
      </trkpt>
      <trkpt lat="46.1719" lon="6.66199">
        <ele>1433</ele>
        <time>2022-07-31T08:00:06Z</time>
      </trkpt>
      <trkpt lat="46.17189" lon="6.66198">
        <ele>1433</ele>
        <time>2022-07-31T08:00:07Z</time>
      </trkpt>
      <trkpt lat="46.17188" lon="6.66196">
        <ele>1433</ele>
        <time>2022-07-31T08:00:08Z</time>
      </trkpt>
      <trkpt lat="46.17186" lon="6.66194">
        <ele>1432</ele>
        <time>2022-07-31T08:00:09Z</time>
      </trkpt>
      <trkpt lat="46.17184" lon="6.66193">
        <ele>1432</ele>
        <time>2022-07-31T08:00:10Z</time>
      </trkpt>
      <trkpt lat="46.17182" lon="6.66191">
        <ele>1432</ele>
        <time>2022-07-31T08:00:11Z</time>
      </trkpt>
      <trkpt lat="46.1718" lon="6.6619">
        <ele>1432</ele>
        <time>2022-07-31T08:00:12Z</time>
      </trkpt>
      <trkpt lat="46.17179" lon="6.66189">
        <ele>1432</ele>
        <time>2022-07-31T08:00:13Z</time>
      </trkpt>
      <trkpt lat="46.17178" lon="6.66187">
        <ele>1432</ele>
        <time>2022-07-31T08:00:14Z</time>
      </trkpt>
      <trkpt lat="46.17177" lon="6.66185">
        <ele>1432</ele>
        <time>2022-07-31T08:00:15Z</time>
      </trkpt>
      <trkpt lat="46.17176" lon="6.66183">
        <ele>1432</ele>
        <time>2022-07-31T08:00:16Z</time>
      </trkpt>
      <trkpt lat="46.17174" lon="6.6618">
        <ele>1432</ele>
        <time>2022-07-31T08:00:17Z</time>
      </trkpt>
      <trkpt lat="46.17172" lon="6.66177">
        <ele>1431</ele>
        <time>2022-07-31T08:00:18Z</time>
      </trkpt>
      <trkpt lat="46.17172" lon="6.66174">
        <ele>1431</ele>
        <time>2022-07-31T08:00:19Z</time>
      </trkpt>
      <trkpt lat="46.17172" lon="6.6617">
        <ele>1431</ele>
        <time>2022-07-31T08:00:20Z</time>
      </trkpt>
      <trkpt lat="46.17171" lon="6.66167">
        <ele>1431</ele>
        <time>2022-07-31T08:00:21Z</time>
      </trkpt>
      <trkpt lat="46.17171" lon="6.66164">
        <ele>1431</ele>
        <time>2022-07-31T08:00:22Z</time>
      </trkpt>
      <trkpt lat="46.17171" lon="6.6616">
        <ele>1431</ele>
        <time>2022-07-31T08:00:23Z</time>
      </trkpt>
      <trkpt lat="46.17171" lon="6.66158">
        <ele>1431</ele>
        <time>2022-07-31T08:00:24Z</time>
      </trkpt>
      <trkpt lat="46.17171" lon="6.66155">
        <ele>1430</ele>
        <time>2022-07-31T08:00:25Z</time>
      </trkpt>
      <trkpt lat="46.17171" lon="6.66153">
        <ele>1430</ele>
        <time>2022-07-31T08:00:26Z</time>
      </trkpt>
      <trkpt lat="46.17171" lon="6.6615">
        <ele>1430</ele>
        <time>2022-07-31T08:00:27Z</time>
      </trkpt>
      <trkpt lat="46.17171" lon="6.66148">
        <ele>1430</ele>
        <time>2022-07-31T08:00:28Z</time>
      </trkpt>
      <trkpt lat="46.17171" lon="6.66145">
        <ele>1430</ele>
        <time>2022-07-31T08:00:29Z</time>
      </trkpt>
      <trkpt lat="46.17172" lon="6.66143">
        <ele>1430</ele>
        <time>2022-07-31T08:00:30Z</time>
      </trkpt>
      <trkpt lat="46.17173" lon="6.66141">
        <ele>1430</ele>
        <time>2022-07-31T08:00:31Z</time>
      </trkpt>
      <trkpt lat="46.17174" lon="6.66139">
        <ele>1430</ele>
        <time>2022-07-31T08:00:32Z</time>
      </trkpt>
      <trkpt lat="46.17176" lon="6.66138">
        <ele>1430</ele>
        <time>2022-07-31T08:00:33Z</time>
      </trkpt>
      <trkpt lat="46.17176" lon="6.66137">
        <ele>1430</ele>
        <time>2022-07-31T08:00:34Z</time>
      </trkpt>
      <trkpt lat="46.17177" lon="6.66135">
        <ele>1430</ele>
        <time>2022-07-31T08:00:35Z</time>
      </trkpt>
      <trkpt lat="46.17177" lon="6.66133">
        <ele>1430</ele>
        <time>2022-07-31T08:00:36Z</time>
      </trkpt>
      <trkpt lat="46.17178" lon="6.66132">
        <ele>1430</ele>
        <time>2022-07-31T08:00:37Z</time>
      </trkpt>
      <trkpt lat="46.1718" lon="6.6613">
        <ele>1430</ele>
        <time>2022-07-31T08:00:38Z</time>
      </trkpt>
      <trkpt lat="46.1718" lon="6.66129">
        <ele>1430</ele>
        <time>2022-07-31T08:00:39Z</time>
      </trkpt>
      <trkpt lat="46.1718" lon="6.66127">
        <ele>1430</ele>
        <time>2022-07-31T08:00:40Z</time>
      </trkpt>
      <trkpt lat="46.17181" lon="6.66125">
        <ele>1430</ele>
        <time>2022-07-31T08:00:41Z</time>
      </trkpt>
      <trkpt lat="46.17182" lon="6.66124">
        <ele>1430</ele>
        <time>2022-07-31T08:00:42Z</time>
      </trkpt>
      <trkpt lat="46.17182" lon="6.66122">
        <ele>1430</ele>
        <time>2022-07-31T08:00:43Z</time>
      </trkpt>
      <trkpt lat="46.17183" lon="6.66121">
        <ele>1430</ele>
        <time>2022-07-31T08:00:44Z</time>
      </trkpt>
      <trkpt lat="46.17184" lon="6.6612">
        <ele>1430</ele>
        <time>2022-07-31T08:00:45Z</time>
      </trkpt>
      <trkpt lat="46.17184" lon="6.66117">
        <ele>1430</ele>
        <time>2022-07-31T08:00:46Z</time>
      </trkpt>
      <trkpt lat="46.17184" lon="6.66116">
        <ele>1430</ele>
        <time>2022-07-31T08:00:47Z</time>
      </trkpt>
      <trkpt lat="46.17184" lon="6.66114">
        <ele>1430</ele>
        <time>2022-07-31T08:00:48Z</time>
      </trkpt>
      <trkpt lat="46.17184" lon="6.66113">
        <ele>1430</ele>
        <time>2022-07-31T08:00:49Z</time>
      </trkpt>
      <trkpt lat="46.17185" lon="6.66111">
        <ele>1430</ele>
        <time>2022-07-31T08:00:50Z</time>
      </trkpt>
      <trkpt lat="46.17186" lon="6.66109">
        <ele>1430</ele>
        <time>2022-07-31T08:00:51Z</time>
      </trkpt>
      <trkpt lat="46.17186" lon="6.66107">
        <ele>1430</ele>
        <time>2022-07-31T08:00:52Z</time>
      </trkpt>
      <trkpt lat="46.17187" lon="6.66107">
        <ele>1430</ele>
        <time>2022-07-31T08:00:53Z</time>
      </trkpt>
      <trkpt lat="46.17188" lon="6.66106">
        <ele>1430</ele>
        <time>2022-07-31T08:00:54Z</time>
      </trkpt>
      <trkpt lat="46.17188" lon="6.66104">
        <ele>1430</ele>
        <time>2022-07-31T08:00:55Z</time>
      </trkpt>
      <trkpt lat="46.17188" lon="6.66104">
        <ele>1430</ele>
        <time>2022-07-31T08:00:56Z</time>
      </trkpt>
      <trkpt lat="46.17188" lon="6.66105">
        <ele>1430</ele>
        <time>2022-07-31T08:00:57Z</time>
      </trkpt>
      <trkpt lat="46.17189" lon="6.66105">
        <ele>1430</ele>
        <time>2022-07-31T08:00:58Z</time>
      </trkpt>
      <trkpt lat="46.17189" lon="6.66103">
        <ele>1430</ele>
        <time>2022-07-31T08:00:59Z</time>
      </trkpt>
      <trkpt lat="46.1719" lon="6.66102">
        <ele>1430</ele>
        <time>2022-07-31T08:01:00Z</time>
      </trkpt>
      <trkpt lat="46.1719" lon="6.661">
        <ele>1431</ele>
        <time>2022-07-31T08:01:01Z</time>
      </trkpt>
      <trkpt lat="46.17191" lon="6.66098">
        <ele>1431</ele>
        <time>2022-07-31T08:01:02Z</time>
      </trkpt>
      <trkpt lat="46.17191" lon="6.66096">
        <ele>1431</ele>
        <time>2022-07-31T08:01:03Z</time>
      </trkpt>
      <trkpt lat="46.17191" lon="6.66094">
        <ele>1431</ele>
        <time>2022-07-31T08:01:04Z</time>
      </trkpt>
      <trkpt lat="46.17192" lon="6.66092">
        <ele>1431</ele>
        <time>2022-07-31T08:01:05Z</time>
      </trkpt>
      <trkpt lat="46.17192" lon="6.6609">
        <ele>1431</ele>
        <time>2022-07-31T08:01:06Z</time>
      </trkpt>
      <trkpt lat="46.17193" lon="6.66088">
        <ele>1431</ele>
        <time>2022-07-31T08:01:07Z</time>
      </trkpt>
      <trkpt lat="46.17193" lon="6.66086">
        <ele>1431</ele>
        <time>2022-07-31T08:01:08Z</time>
      </trkpt>
      <trkpt lat="46.17194" lon="6.66084">
        <ele>1432</ele>
        <time>2022-07-31T08:01:09Z</time>
      </trkpt>
      <trkpt lat="46.17194" lon="6.66083">
        <ele>1432</ele>
        <time>2022-07-31T08:01:10Z</time>
      </trkpt>
      <trkpt lat="46.17195" lon="6.66081">
        <ele>1432</ele>
        <time>2022-07-31T08:01:11Z</time>
      </trkpt>
      <trkpt lat="46.17195" lon="6.66079">
        <ele>1432</ele>
        <time>2022-07-31T08:01:12Z</time>
      </trkpt>
      <trkpt lat="46.17195" lon="6.66077">
        <ele>1432</ele>
        <time>2022-07-31T08:01:13Z</time>
      </trkpt>
      <trkpt lat="46.17195" lon="6.66075">
        <ele>1432</ele>
        <time>2022-07-31T08:01:14Z</time>
      </trkpt>
      <trkpt lat="46.17194" lon="6.66073">
        <ele>1432</ele>
        <time>2022-07-31T08:01:15Z</time>
      </trkpt>
      <trkpt lat="46.17194" lon="6.66071">
        <ele>1432</ele>
        <time>2022-07-31T08:01:16Z</time>
      </trkpt>
      <trkpt lat="46.17194" lon="6.6607">
        <ele>1432</ele>
        <time>2022-07-31T08:01:17Z</time>
      </trkpt>
      <trkpt lat="46.17194" lon="6.66068">
        <ele>1432</ele>
        <time>2022-07-31T08:01:18Z</time>
      </trkpt>
      <trkpt lat="46.17194" lon="6.66066">
        <ele>1432</ele>
        <time>2022-07-31T08:01:19Z</time>
      </trkpt>
      <trkpt lat="46.17194" lon="6.66065">
        <ele>1432</ele>
        <time>2022-07-31T08:01:20Z</time>
      </trkpt>
      <trkpt lat="46.17194" lon="6.66064">
        <ele>1432</ele>
        <time>2022-07-31T08:01:21Z</time>
      </trkpt>
      <trkpt lat="46.17195" lon="6.66062">
        <ele>1432</ele>
        <time>2022-07-31T08:01:22Z</time>
      </trkpt>
      <trkpt lat="46.17195" lon="6.66061">
        <ele>1432</ele>
        <time>2022-07-31T08:01:23Z</time>
      </trkpt>
      <trkpt lat="46.17195" lon="6.66059">
        <ele>1432</ele>
        <time>2022-07-31T08:01:24Z</time>
      </trkpt>
      <trkpt lat="46.17195" lon="6.66057">
        <ele>1433</ele>
        <time>2022-07-31T08:01:25Z</time>
      </trkpt>
      <trkpt lat="46.17196" lon="6.66056">
        <ele>1433</ele>
        <time>2022-07-31T08:01:26Z</time>
      </trkpt>
      <trkpt lat="46.17196" lon="6.66054">
        <ele>1433</ele>
        <time>2022-07-31T08:01:27Z</time>
      </trkpt>
      <trkpt lat="46.17195" lon="6.66052">
        <ele>1433</ele>
        <time>2022-07-31T08:01:28Z</time>
      </trkpt>
      <trkpt lat="46.17195" lon="6.6605">
        <ele>1433</ele>
        <time>2022-07-31T08:01:29Z</time>
      </trkpt>
      <trkpt lat="46.17195" lon="6.66047">
        <ele>1433</ele>
        <time>2022-07-31T08:01:30Z</time>
      </trkpt>
      <trkpt lat="46.17195" lon="6.66045">
        <ele>1433</ele>
        <time>2022-07-31T08:01:31Z</time>
      </trkpt>
      <trkpt lat="46.17195" lon="6.66044">
        <ele>1433</ele>
        <time>2022-07-31T08:01:32Z</time>
      </trkpt>
      <trkpt lat="46.17196" lon="6.66043">
        <ele>1433</ele>
        <time>2022-07-31T08:01:33Z</time>
      </trkpt>
      <trkpt lat="46.17196" lon="6.66042">
        <ele>1433</ele>
        <time>2022-07-31T08:01:34Z</time>
      </trkpt>
      <trkpt lat="46.17197" lon="6.6604">
        <ele>1434</ele>
        <time>2022-07-31T08:01:35Z</time>
      </trkpt>
      <trkpt lat="46.17196" lon="6.66038">
        <ele>1434</ele>
        <time>2022-07-31T08:01:36Z</time>
      </trkpt>
      <trkpt lat="46.17196" lon="6.66037">
        <ele>1434</ele>
        <time>2022-07-31T08:01:37Z</time>
      </trkpt>
      <trkpt lat="46.17197" lon="6.66036">
        <ele>1434</ele>
        <time>2022-07-31T08:01:38Z</time>
      </trkpt>
      <trkpt lat="46.17197" lon="6.66034">
        <ele>1434</ele>
        <time>2022-07-31T08:01:39Z</time>
      </trkpt>
      <trkpt lat="46.17197" lon="6.66033">
        <ele>1434</ele>
        <time>2022-07-31T08:01:40Z</time>
      </trkpt>
      <trkpt lat="46.17197" lon="6.66032">
        <ele>1434</ele>
        <time>2022-07-31T08:01:41Z</time>
      </trkpt>
      <trkpt lat="46.17197" lon="6.66029">
        <ele>1434</ele>
        <time>2022-07-31T08:01:42Z</time>
      </trkpt>
      <trkpt lat="46.17197" lon="6.66027">
        <ele>1435</ele>
        <time>2022-07-31T08:01:43Z</time>
      </trkpt>
      <trkpt lat="46.17197" lon="6.66025">
        <ele>1435</ele>
        <time>2022-07-31T08:01:44Z</time>
      </trkpt>
      <trkpt lat="46.17198" lon="6.66023">
        <ele>1435</ele>
        <time>2022-07-31T08:01:45Z</time>
      </trkpt>
      <trkpt lat="46.17198" lon="6.66022">
        <ele>1435</ele>
        <time>2022-07-31T08:01:46Z</time>
      </trkpt>
      <trkpt lat="46.17198" lon="6.6602">
        <ele>1435</ele>
        <time>2022-07-31T08:01:47Z</time>
      </trkpt>
      <trkpt lat="46.17199" lon="6.66019">
        <ele>1435</ele>
        <time>2022-07-31T08:01:48Z</time>
      </trkpt>
      <trkpt lat="46.172" lon="6.66018">
        <ele>1435</ele>
        <time>2022-07-31T08:01:49Z</time>
      </trkpt>
      <trkpt lat="46.172" lon="6.66016">
        <ele>1435</ele>
        <time>2022-07-31T08:01:50Z</time>
      </trkpt>
      <trkpt lat="46.17201" lon="6.66015">
        <ele>1435</ele>
        <time>2022-07-31T08:01:51Z</time>
      </trkpt>
      <trkpt lat="46.17202" lon="6.66013">
        <ele>1435</ele>
        <time>2022-07-31T08:01:52Z</time>
      </trkpt>
      <trkpt lat="46.17203" lon="6.66012">
        <ele>1435</ele>
        <time>2022-07-31T08:01:53Z</time>
      </trkpt>
      <trkpt lat="46.17204" lon="6.6601">
        <ele>1435</ele>
        <time>2022-07-31T08:01:54Z</time>
      </trkpt>
      <trkpt lat="46.17204" lon="6.66009">
        <ele>1435</ele>
        <time>2022-07-31T08:01:55Z</time>
      </trkpt>
      <trkpt lat="46.17205" lon="6.66008">
        <ele>1435</ele>
        <time>2022-07-31T08:01:56Z</time>
      </trkpt>
      <trkpt lat="46.17205" lon="6.66007">
        <ele>1435</ele>
        <time>2022-07-31T08:01:57Z</time>
      </trkpt>
      <trkpt lat="46.17205" lon="6.66006">
        <ele>1435</ele>
        <time>2022-07-31T08:01:58Z</time>
      </trkpt>
      <trkpt lat="46.17205" lon="6.66005">
        <ele>1435</ele>
        <time>2022-07-31T08:01:59Z</time>
      </trkpt>
      <trkpt lat="46.17206" lon="6.66004">
        <ele>1435</ele>
        <time>2022-07-31T08:02:00Z</time>
      </trkpt>
      <trkpt lat="46.17206" lon="6.66003">
        <ele>1435</ele>
        <time>2022-07-31T08:02:01Z</time>
      </trkpt>
      <trkpt lat="46.17206" lon="6.66002">
        <ele>1435</ele>
        <time>2022-07-31T08:02:02Z</time>
      </trkpt>
      <trkpt lat="46.17206" lon="6.66001">
        <ele>1435</ele>
        <time>2022-07-31T08:02:03Z</time>
      </trkpt>
      <trkpt lat="46.17206" lon="6.66001">
        <ele>1435</ele>
        <time>2022-07-31T08:02:04Z</time>
      </trkpt>
      <trkpt lat="46.17207" lon="6.66">
        <ele>1435</ele>
        <time>2022-07-31T08:02:05Z</time>
      </trkpt>
      <trkpt lat="46.17208" lon="6.65997">
        <ele>1435</ele>
        <time>2022-07-31T08:02:06Z</time>
      </trkpt>
      <trkpt lat="46.17208" lon="6.65995">
        <ele>1435</ele>
        <time>2022-07-31T08:02:07Z</time>
      </trkpt>
      <trkpt lat="46.17209" lon="6.65992">
        <ele>1435</ele>
        <time>2022-07-31T08:02:08Z</time>
      </trkpt>
      <trkpt lat="46.17209" lon="6.65991">
        <ele>1435</ele>
        <time>2022-07-31T08:02:09Z</time>
      </trkpt>
      <trkpt lat="46.17209" lon="6.65991">
        <ele>1435</ele>
        <time>2022-07-31T08:02:10Z</time>
      </trkpt>
      <trkpt lat="46.17209" lon="6.6599">
        <ele>1436</ele>
        <time>2022-07-31T08:02:11Z</time>
      </trkpt>
      <trkpt lat="46.1721" lon="6.6599">
        <ele>1436</ele>
        <time>2022-07-31T08:02:12Z</time>
      </trkpt>
      <trkpt lat="46.1721" lon="6.6599">
        <ele>1436</ele>
        <time>2022-07-31T08:02:13Z</time>
      </trkpt>
      <trkpt lat="46.17211" lon="6.6599">
        <ele>1436</ele>
        <time>2022-07-31T08:02:14Z</time>
      </trkpt>
      <trkpt lat="46.17213" lon="6.65989">
        <ele>1436</ele>
        <time>2022-07-31T08:02:15Z</time>
      </trkpt>
      <trkpt lat="46.17214" lon="6.65988">
        <ele>1436</ele>
        <time>2022-07-31T08:02:16Z</time>
      </trkpt>
      <trkpt lat="46.17215" lon="6.65987">
        <ele>1436</ele>
        <time>2022-07-31T08:02:17Z</time>
      </trkpt>
      <trkpt lat="46.17215" lon="6.65987">
        <ele>1436</ele>
        <time>2022-07-31T08:02:18Z</time>
      </trkpt>
      <trkpt lat="46.17217" lon="6.65987">
        <ele>1436</ele>
        <time>2022-07-31T08:02:19Z</time>
      </trkpt>
      <trkpt lat="46.17217" lon="6.65985">
        <ele>1436</ele>
        <time>2022-07-31T08:02:20Z</time>
      </trkpt>
      <trkpt lat="46.17218" lon="6.65984">
        <ele>1436</ele>
        <time>2022-07-31T08:02:21Z</time>
      </trkpt>
      <trkpt lat="46.1722" lon="6.65983">
        <ele>1436</ele>
        <time>2022-07-31T08:02:22Z</time>
      </trkpt>
      <trkpt lat="46.17221" lon="6.65983">
        <ele>1436</ele>
        <time>2022-07-31T08:02:23Z</time>
      </trkpt>
      <trkpt lat="46.17222" lon="6.65982">
        <ele>1436</ele>
        <time>2022-07-31T08:02:24Z</time>
      </trkpt>
      <trkpt lat="46.17224" lon="6.65981">
        <ele>1436</ele>
        <time>2022-07-31T08:02:25Z</time>
      </trkpt>
      <trkpt lat="46.17225" lon="6.6598">
        <ele>1436</ele>
        <time>2022-07-31T08:02:26Z</time>
      </trkpt>
      <trkpt lat="46.17225" lon="6.65979">
        <ele>1436</ele>
        <time>2022-07-31T08:02:27Z</time>
      </trkpt>
      <trkpt lat="46.17226" lon="6.65978">
        <ele>1436</ele>
        <time>2022-07-31T08:02:28Z</time>
      </trkpt>
      <trkpt lat="46.17228" lon="6.65977">
        <ele>1436</ele>
        <time>2022-07-31T08:02:29Z</time>
      </trkpt>
      <trkpt lat="46.17229" lon="6.65976">
        <ele>1437</ele>
        <time>2022-07-31T08:02:30Z</time>
      </trkpt>
      <trkpt lat="46.1723" lon="6.65975">
        <ele>1437</ele>
        <time>2022-07-31T08:02:31Z</time>
      </trkpt>
      <trkpt lat="46.17232" lon="6.65974">
        <ele>1437</ele>
        <time>2022-07-31T08:02:32Z</time>
      </trkpt>
      <trkpt lat="46.17233" lon="6.65974">
        <ele>1437</ele>
        <time>2022-07-31T08:02:33Z</time>
      </trkpt>
      <trkpt lat="46.17234" lon="6.65973">
        <ele>1437</ele>
        <time>2022-07-31T08:02:34Z</time>
      </trkpt>
      <trkpt lat="46.17236" lon="6.65973">
        <ele>1437</ele>
        <time>2022-07-31T08:02:35Z</time>
      </trkpt>
      <trkpt lat="46.17237" lon="6.65972">
        <ele>1437</ele>
        <time>2022-07-31T08:02:36Z</time>
      </trkpt>
      <trkpt lat="46.17238" lon="6.65971">
        <ele>1437</ele>
        <time>2022-07-31T08:02:37Z</time>
      </trkpt>
      <trkpt lat="46.1724" lon="6.6597">
        <ele>1437</ele>
        <time>2022-07-31T08:02:38Z</time>
      </trkpt>
      <trkpt lat="46.17242" lon="6.65968">
        <ele>1438</ele>
        <time>2022-07-31T08:02:39Z</time>
      </trkpt>
      <trkpt lat="46.17243" lon="6.65967">
        <ele>1438</ele>
        <time>2022-07-31T08:02:40Z</time>
      </trkpt>
      <trkpt lat="46.17244" lon="6.65966">
        <ele>1438</ele>
        <time>2022-07-31T08:02:41Z</time>
      </trkpt>
      <trkpt lat="46.17245" lon="6.65966">
        <ele>1438</ele>
        <time>2022-07-31T08:02:42Z</time>
      </trkpt>
      <trkpt lat="46.17246" lon="6.65966">
        <ele>1438</ele>
        <time>2022-07-31T08:02:43Z</time>
      </trkpt>
      <trkpt lat="46.17246" lon="6.65964">
        <ele>1438</ele>
        <time>2022-07-31T08:02:44Z</time>
      </trkpt>
      <trkpt lat="46.17248" lon="6.65964">
        <ele>1438</ele>
        <time>2022-07-31T08:02:45Z</time>
      </trkpt>
      <trkpt lat="46.17249" lon="6.65963">
        <ele>1438</ele>
        <time>2022-07-31T08:02:46Z</time>
      </trkpt>
      <trkpt lat="46.1725" lon="6.65961">
        <ele>1438</ele>
        <time>2022-07-31T08:02:47Z</time>
      </trkpt>
      <trkpt lat="46.17251" lon="6.6596">
        <ele>1438</ele>
        <time>2022-07-31T08:02:48Z</time>
      </trkpt>
      <trkpt lat="46.17252" lon="6.65958">
        <ele>1438</ele>
        <time>2022-07-31T08:02:49Z</time>
      </trkpt>
      <trkpt lat="46.17253" lon="6.65956">
        <ele>1438</ele>
        <time>2022-07-31T08:02:50Z</time>
      </trkpt>
      <trkpt lat="46.17254" lon="6.65955">
        <ele>1438</ele>
        <time>2022-07-31T08:02:51Z</time>
      </trkpt>
      <trkpt lat="46.17255" lon="6.65953">
        <ele>1438</ele>
        <time>2022-07-31T08:02:52Z</time>
      </trkpt>
      <trkpt lat="46.17256" lon="6.65952">
        <ele>1438</ele>
        <time>2022-07-31T08:02:53Z</time>
      </trkpt>
      <trkpt lat="46.17257" lon="6.6595">
        <ele>1438</ele>
        <time>2022-07-31T08:02:54Z</time>
      </trkpt>
      <trkpt lat="46.17257" lon="6.65949">
        <ele>1439</ele>
        <time>2022-07-31T08:02:55Z</time>
      </trkpt>
      <trkpt lat="46.17258" lon="6.65948">
        <ele>1439</ele>
        <time>2022-07-31T08:02:56Z</time>
      </trkpt>
      <trkpt lat="46.17258" lon="6.65947">
        <ele>1439</ele>
        <time>2022-07-31T08:02:57Z</time>
      </trkpt>
      <trkpt lat="46.17259" lon="6.65945">
        <ele>1439</ele>
        <time>2022-07-31T08:02:58Z</time>
      </trkpt>
      <trkpt lat="46.17261" lon="6.65944">
        <ele>1439</ele>
        <time>2022-07-31T08:02:59Z</time>
      </trkpt>
      <trkpt lat="46.17261" lon="6.65944">
        <ele>1439</ele>
        <time>2022-07-31T08:03:00Z</time>
      </trkpt>
      <trkpt lat="46.17262" lon="6.65943">
        <ele>1439</ele>
        <time>2022-07-31T08:03:01Z</time>
      </trkpt>
      <trkpt lat="46.17263" lon="6.65942">
        <ele>1439</ele>
        <time>2022-07-31T08:03:02Z</time>
      </trkpt>
      <trkpt lat="46.17264" lon="6.65942">
        <ele>1439</ele>
        <time>2022-07-31T08:03:03Z</time>
      </trkpt>
      <trkpt lat="46.17266" lon="6.65942">
        <ele>1439</ele>
        <time>2022-07-31T08:03:04Z</time>
      </trkpt>
      <trkpt lat="46.17267" lon="6.65941">
        <ele>1439</ele>
        <time>2022-07-31T08:03:05Z</time>
      </trkpt>
      <trkpt lat="46.17267" lon="6.65941">
        <ele>1439</ele>
        <time>2022-07-31T08:03:06Z</time>
      </trkpt>
      <trkpt lat="46.17268" lon="6.6594">
        <ele>1439</ele>
        <time>2022-07-31T08:03:07Z</time>
      </trkpt>
      <trkpt lat="46.17269" lon="6.65938">
        <ele>1439</ele>
        <time>2022-07-31T08:03:08Z</time>
      </trkpt>
      <trkpt lat="46.1727" lon="6.65937">
        <ele>1439</ele>
        <time>2022-07-31T08:03:09Z</time>
      </trkpt>
      <trkpt lat="46.17272" lon="6.65936">
        <ele>1439</ele>
        <time>2022-07-31T08:03:10Z</time>
      </trkpt>
      <trkpt lat="46.17274" lon="6.65935">
        <ele>1439</ele>
        <time>2022-07-31T08:03:11Z</time>
      </trkpt>
      <trkpt lat="46.17276" lon="6.65934">
        <ele>1439</ele>
        <time>2022-07-31T08:03:12Z</time>
      </trkpt>
      <trkpt lat="46.17276" lon="6.65933">
        <ele>1439</ele>
        <time>2022-07-31T08:03:13Z</time>
      </trkpt>
      <trkpt lat="46.17277" lon="6.65932">
        <ele>1439</ele>
        <time>2022-07-31T08:03:14Z</time>
      </trkpt>
      <trkpt lat="46.17277" lon="6.65931">
        <ele>1439</ele>
        <time>2022-07-31T08:03:15Z</time>
      </trkpt>
      <trkpt lat="46.17277" lon="6.65931">
        <ele>1439</ele>
        <time>2022-07-31T08:03:16Z</time>
      </trkpt>
      <trkpt lat="46.17279" lon="6.6593">
        <ele>1439</ele>
        <time>2022-07-31T08:03:17Z</time>
      </trkpt>
      <trkpt lat="46.17279" lon="6.65929">
        <ele>1439</ele>
        <time>2022-07-31T08:03:18Z</time>
      </trkpt>
      <trkpt lat="46.1728" lon="6.65928">
        <ele>1439</ele>
        <time>2022-07-31T08:03:19Z</time>
      </trkpt>
      <trkpt lat="46.17281" lon="6.65927">
        <ele>1439</ele>
        <time>2022-07-31T08:03:20Z</time>
      </trkpt>
      <trkpt lat="46.17282" lon="6.65927">
        <ele>1439</ele>
        <time>2022-07-31T08:03:21Z</time>
      </trkpt>
      <trkpt lat="46.17283" lon="6.65927">
        <ele>1439</ele>
        <time>2022-07-31T08:03:22Z</time>
      </trkpt>
      <trkpt lat="46.17285" lon="6.65926">
        <ele>1440</ele>
        <time>2022-07-31T08:03:23Z</time>
      </trkpt>
      <trkpt lat="46.17287" lon="6.65926">
        <ele>1440</ele>
        <time>2022-07-31T08:03:24Z</time>
      </trkpt>
      <trkpt lat="46.17288" lon="6.65926">
        <ele>1440</ele>
        <time>2022-07-31T08:03:25Z</time>
      </trkpt>
      <trkpt lat="46.1729" lon="6.65926">
        <ele>1440</ele>
        <time>2022-07-31T08:03:26Z</time>
      </trkpt>
      <trkpt lat="46.17292" lon="6.65927">
        <ele>1440</ele>
        <time>2022-07-31T08:03:27Z</time>
      </trkpt>
      <trkpt lat="46.17293" lon="6.65927">
        <ele>1440</ele>
        <time>2022-07-31T08:03:28Z</time>
      </trkpt>
      <trkpt lat="46.17294" lon="6.65927">
        <ele>1440</ele>
        <time>2022-07-31T08:03:29Z</time>
      </trkpt>
      <trkpt lat="46.17296" lon="6.65927">
        <ele>1440</ele>
        <time>2022-07-31T08:03:30Z</time>
      </trkpt>
      <trkpt lat="46.17297" lon="6.65928">
        <ele>1440</ele>
        <time>2022-07-31T08:03:31Z</time>
      </trkpt>
      <trkpt lat="46.17298" lon="6.65927">
        <ele>1440</ele>
        <time>2022-07-31T08:03:32Z</time>
      </trkpt>
      <trkpt lat="46.17299" lon="6.65928">
        <ele>1440</ele>
        <time>2022-07-31T08:03:33Z</time>
      </trkpt>
      <trkpt lat="46.173" lon="6.65928">
        <ele>1440</ele>
        <time>2022-07-31T08:03:34Z</time>
      </trkpt>
      <trkpt lat="46.17302" lon="6.65927">
        <ele>1440</ele>
        <time>2022-07-31T08:03:35Z</time>
      </trkpt>
      <trkpt lat="46.17303" lon="6.65927">
        <ele>1440</ele>
        <time>2022-07-31T08:03:36Z</time>
      </trkpt>
      <trkpt lat="46.17304" lon="6.65926">
        <ele>1440</ele>
        <time>2022-07-31T08:03:37Z</time>
      </trkpt>
      <trkpt lat="46.17305" lon="6.65926">
        <ele>1440</ele>
        <time>2022-07-31T08:03:38Z</time>
      </trkpt>
      <trkpt lat="46.17306" lon="6.65926">
        <ele>1440</ele>
        <time>2022-07-31T08:03:39Z</time>
      </trkpt>
      <trkpt lat="46.17308" lon="6.65926">
        <ele>1440</ele>
        <time>2022-07-31T08:03:40Z</time>
      </trkpt>
      <trkpt lat="46.1731" lon="6.65925">
        <ele>1440</ele>
        <time>2022-07-31T08:03:41Z</time>
      </trkpt>
      <trkpt lat="46.17311" lon="6.65924">
        <ele>1440</ele>
        <time>2022-07-31T08:03:42Z</time>
      </trkpt>
      <trkpt lat="46.17312" lon="6.65924">
        <ele>1440</ele>
        <time>2022-07-31T08:03:43Z</time>
      </trkpt>
      <trkpt lat="46.17314" lon="6.65923">
        <ele>1439</ele>
        <time>2022-07-31T08:03:44Z</time>
      </trkpt>
      <trkpt lat="46.17314" lon="6.65923">
        <ele>1439</ele>
        <time>2022-07-31T08:03:45Z</time>
      </trkpt>
      <trkpt lat="46.17316" lon="6.65923">
        <ele>1439</ele>
        <time>2022-07-31T08:03:46Z</time>
      </trkpt>
      <trkpt lat="46.17317" lon="6.65922">
        <ele>1439</ele>
        <time>2022-07-31T08:03:47Z</time>
      </trkpt>
      <trkpt lat="46.17318" lon="6.65922">
        <ele>1439</ele>
        <time>2022-07-31T08:03:48Z</time>
      </trkpt>
      <trkpt lat="46.1732" lon="6.65921">
        <ele>1439</ele>
        <time>2022-07-31T08:03:49Z</time>
      </trkpt>
      <trkpt lat="46.17321" lon="6.65921">
        <ele>1439</ele>
        <time>2022-07-31T08:03:50Z</time>
      </trkpt>
      <trkpt lat="46.17323" lon="6.6592">
        <ele>1439</ele>
        <time>2022-07-31T08:03:51Z</time>
      </trkpt>
      <trkpt lat="46.17325" lon="6.65921">
        <ele>1438</ele>
        <time>2022-07-31T08:03:52Z</time>
      </trkpt>
      <trkpt lat="46.17326" lon="6.65921">
        <ele>1438</ele>
        <time>2022-07-31T08:03:53Z</time>
      </trkpt>
      <trkpt lat="46.17328" lon="6.65921">
        <ele>1438</ele>
        <time>2022-07-31T08:03:54Z</time>
      </trkpt>
      <trkpt lat="46.17329" lon="6.65922">
        <ele>1438</ele>
        <time>2022-07-31T08:03:55Z</time>
      </trkpt>
      <trkpt lat="46.1733" lon="6.65921">
        <ele>1438</ele>
        <time>2022-07-31T08:03:56Z</time>
      </trkpt>
      <trkpt lat="46.17331" lon="6.65921">
        <ele>1438</ele>
        <time>2022-07-31T08:03:57Z</time>
      </trkpt>
      <trkpt lat="46.17332" lon="6.65921">
        <ele>1438</ele>
        <time>2022-07-31T08:03:58Z</time>
      </trkpt>
      <trkpt lat="46.17333" lon="6.6592">
        <ele>1437</ele>
        <time>2022-07-31T08:03:59Z</time>
      </trkpt>
      <trkpt lat="46.17333" lon="6.6592">
        <ele>1437</ele>
        <time>2022-07-31T08:04:00Z</time>
      </trkpt>
      <trkpt lat="46.17335" lon="6.65921">
        <ele>1437</ele>
        <time>2022-07-31T08:04:01Z</time>
      </trkpt>
      <trkpt lat="46.17336" lon="6.65922">
        <ele>1437</ele>
        <time>2022-07-31T08:04:02Z</time>
      </trkpt>
      <trkpt lat="46.17336" lon="6.65923">
        <ele>1437</ele>
        <time>2022-07-31T08:04:03Z</time>
      </trkpt>
      <trkpt lat="46.17337" lon="6.65924">
        <ele>1437</ele>
        <time>2022-07-31T08:04:04Z</time>
      </trkpt>
      <trkpt lat="46.17338" lon="6.65926">
        <ele>1437</ele>
        <time>2022-07-31T08:04:05Z</time>
      </trkpt>
      <trkpt lat="46.17338" lon="6.65927">
        <ele>1437</ele>
        <time>2022-07-31T08:04:06Z</time>
      </trkpt>
      <trkpt lat="46.17339" lon="6.65928">
        <ele>1436</ele>
        <time>2022-07-31T08:04:07Z</time>
      </trkpt>
      <trkpt lat="46.1734" lon="6.65928">
        <ele>1436</ele>
        <time>2022-07-31T08:04:08Z</time>
      </trkpt>
      <trkpt lat="46.17342" lon="6.65927">
        <ele>1436</ele>
        <time>2022-07-31T08:04:09Z</time>
      </trkpt>
      <trkpt lat="46.17343" lon="6.65928">
        <ele>1436</ele>
        <time>2022-07-31T08:04:10Z</time>
      </trkpt>
      <trkpt lat="46.17345" lon="6.65928">
        <ele>1436</ele>
        <time>2022-07-31T08:04:11Z</time>
      </trkpt>
      <trkpt lat="46.17347" lon="6.65928">
        <ele>1436</ele>
        <time>2022-07-31T08:04:12Z</time>
      </trkpt>
      <trkpt lat="46.17347" lon="6.65927">
        <ele>1435</ele>
        <time>2022-07-31T08:04:13Z</time>
      </trkpt>
      <trkpt lat="46.17349" lon="6.65927">
        <ele>1435</ele>
        <time>2022-07-31T08:04:14Z</time>
      </trkpt>
      <trkpt lat="46.1735" lon="6.65927">
        <ele>1435</ele>
        <time>2022-07-31T08:04:15Z</time>
      </trkpt>
      <trkpt lat="46.17351" lon="6.65927">
        <ele>1435</ele>
        <time>2022-07-31T08:04:16Z</time>
      </trkpt>
      <trkpt lat="46.17353" lon="6.65927">
        <ele>1435</ele>
        <time>2022-07-31T08:04:17Z</time>
      </trkpt>
      <trkpt lat="46.17355" lon="6.65927">
        <ele>1434</ele>
        <time>2022-07-31T08:04:18Z</time>
      </trkpt>
      <trkpt lat="46.17356" lon="6.65927">
        <ele>1434</ele>
        <time>2022-07-31T08:04:19Z</time>
      </trkpt>
      <trkpt lat="46.17357" lon="6.65927">
        <ele>1434</ele>
        <time>2022-07-31T08:04:20Z</time>
      </trkpt>
      <trkpt lat="46.17358" lon="6.65926">
        <ele>1434</ele>
        <time>2022-07-31T08:04:21Z</time>
      </trkpt>
      <trkpt lat="46.1736" lon="6.65924">
        <ele>1434</ele>
        <time>2022-07-31T08:04:22Z</time>
      </trkpt>
      <trkpt lat="46.1736" lon="6.65924">
        <ele>1434</ele>
        <time>2022-07-31T08:04:23Z</time>
      </trkpt>
      <trkpt lat="46.17361" lon="6.65923">
        <ele>1434</ele>
        <time>2022-07-31T08:04:24Z</time>
      </trkpt>
      <trkpt lat="46.17363" lon="6.65923">
        <ele>1434</ele>
        <time>2022-07-31T08:04:25Z</time>
      </trkpt>
      <trkpt lat="46.17364" lon="6.65923">
        <ele>1433</ele>
        <time>2022-07-31T08:04:26Z</time>
      </trkpt>
      <trkpt lat="46.17364" lon="6.65922">
        <ele>1433</ele>
        <time>2022-07-31T08:04:27Z</time>
      </trkpt>
      <trkpt lat="46.17365" lon="6.65922">
        <ele>1433</ele>
        <time>2022-07-31T08:04:28Z</time>
      </trkpt>
      <trkpt lat="46.17366" lon="6.65922">
        <ele>1433</ele>
        <time>2022-07-31T08:04:29Z</time>
      </trkpt>
      <trkpt lat="46.17367" lon="6.65922">
        <ele>1433</ele>
        <time>2022-07-31T08:04:30Z</time>
      </trkpt>
      <trkpt lat="46.17369" lon="6.65922">
        <ele>1433</ele>
        <time>2022-07-31T08:04:31Z</time>
      </trkpt>
      <trkpt lat="46.1737" lon="6.65921">
        <ele>1433</ele>
        <time>2022-07-31T08:04:32Z</time>
      </trkpt>
      <trkpt lat="46.17371" lon="6.6592">
        <ele>1433</ele>
        <time>2022-07-31T08:04:33Z</time>
      </trkpt>
      <trkpt lat="46.17372" lon="6.65919">
        <ele>1433</ele>
        <time>2022-07-31T08:04:34Z</time>
      </trkpt>
      <trkpt lat="46.17373" lon="6.65918">
        <ele>1433</ele>
        <time>2022-07-31T08:04:35Z</time>
      </trkpt>
      <trkpt lat="46.17375" lon="6.65917">
        <ele>1433</ele>
        <time>2022-07-31T08:04:36Z</time>
      </trkpt>
      <trkpt lat="46.17376" lon="6.65917">
        <ele>1433</ele>
        <time>2022-07-31T08:04:37Z</time>
      </trkpt>
      <trkpt lat="46.17378" lon="6.65917">
        <ele>1433</ele>
        <time>2022-07-31T08:04:38Z</time>
      </trkpt>
      <trkpt lat="46.1738" lon="6.65917">
        <ele>1433</ele>
        <time>2022-07-31T08:04:39Z</time>
      </trkpt>
      <trkpt lat="46.17382" lon="6.65917">
        <ele>1433</ele>
        <time>2022-07-31T08:04:40Z</time>
      </trkpt>
      <trkpt lat="46.17384" lon="6.65917">
        <ele>1433</ele>
        <time>2022-07-31T08:04:41Z</time>
      </trkpt>
      <trkpt lat="46.17386" lon="6.65917">
        <ele>1433</ele>
        <time>2022-07-31T08:04:42Z</time>
      </trkpt>
      <trkpt lat="46.17389" lon="6.65917">
        <ele>1433</ele>
        <time>2022-07-31T08:04:43Z</time>
      </trkpt>
      <trkpt lat="46.17391" lon="6.65917">
        <ele>1433</ele>
        <time>2022-07-31T08:04:44Z</time>
      </trkpt>
      <trkpt lat="46.17392" lon="6.65917">
        <ele>1433</ele>
        <time>2022-07-31T08:04:45Z</time>
      </trkpt>
      <trkpt lat="46.17394" lon="6.65916">
        <ele>1433</ele>
        <time>2022-07-31T08:04:46Z</time>
      </trkpt>
      <trkpt lat="46.17397" lon="6.65915">
        <ele>1433</ele>
        <time>2022-07-31T08:04:47Z</time>
      </trkpt>
      <trkpt lat="46.17398" lon="6.65914">
        <ele>1434</ele>
        <time>2022-07-31T08:04:48Z</time>
      </trkpt>
      <trkpt lat="46.17399" lon="6.65913">
        <ele>1434</ele>
        <time>2022-07-31T08:04:49Z</time>
      </trkpt>
      <trkpt lat="46.174" lon="6.65913">
        <ele>1434</ele>
        <time>2022-07-31T08:04:50Z</time>
      </trkpt>
      <trkpt lat="46.17401" lon="6.65913">
        <ele>1434</ele>
        <time>2022-07-31T08:04:51Z</time>
      </trkpt>
      <trkpt lat="46.17403" lon="6.65912">
        <ele>1434</ele>
        <time>2022-07-31T08:04:52Z</time>
      </trkpt>
      <trkpt lat="46.17405" lon="6.65912">
        <ele>1434</ele>
        <time>2022-07-31T08:04:53Z</time>
      </trkpt>
      <trkpt lat="46.17406" lon="6.65912">
        <ele>1434</ele>
        <time>2022-07-31T08:04:54Z</time>
      </trkpt>
      <trkpt lat="46.17407" lon="6.65912">
        <ele>1435</ele>
        <time>2022-07-31T08:04:55Z</time>
      </trkpt>
      <trkpt lat="46.17408" lon="6.65912">
        <ele>1435</ele>
        <time>2022-07-31T08:04:56Z</time>
      </trkpt>
      <trkpt lat="46.17409" lon="6.65912">
        <ele>1435</ele>
        <time>2022-07-31T08:04:57Z</time>
      </trkpt>
      <trkpt lat="46.1741" lon="6.65911">
        <ele>1435</ele>
        <time>2022-07-31T08:04:58Z</time>
      </trkpt>
      <trkpt lat="46.17411" lon="6.65911">
        <ele>1435</ele>
        <time>2022-07-31T08:04:59Z</time>
      </trkpt>
      <trkpt lat="46.17413" lon="6.65911">
        <ele>1435</ele>
        <time>2022-07-31T08:05:00Z</time>
      </trkpt>
      <trkpt lat="46.17414" lon="6.65912">
        <ele>1435</ele>
        <time>2022-07-31T08:05:01Z</time>
      </trkpt>
      <trkpt lat="46.17414" lon="6.65911">
        <ele>1435</ele>
        <time>2022-07-31T08:05:02Z</time>
      </trkpt>
      <trkpt lat="46.17416" lon="6.65911">
        <ele>1435</ele>
        <time>2022-07-31T08:05:03Z</time>
      </trkpt>
      <trkpt lat="46.17417" lon="6.65911">
        <ele>1436</ele>
        <time>2022-07-31T08:05:04Z</time>
      </trkpt>
      <trkpt lat="46.17419" lon="6.65911">
        <ele>1436</ele>
        <time>2022-07-31T08:05:05Z</time>
      </trkpt>
      <trkpt lat="46.17421" lon="6.65911">
        <ele>1436</ele>
        <time>2022-07-31T08:05:06Z</time>
      </trkpt>
      <trkpt lat="46.17422" lon="6.65911">
        <ele>1436</ele>
        <time>2022-07-31T08:05:07Z</time>
      </trkpt>
      <trkpt lat="46.17424" lon="6.65911">
        <ele>1436</ele>
        <time>2022-07-31T08:05:08Z</time>
      </trkpt>
      <trkpt lat="46.17426" lon="6.65911">
        <ele>1436</ele>
        <time>2022-07-31T08:05:09Z</time>
      </trkpt>
      <trkpt lat="46.17428" lon="6.65911">
        <ele>1436</ele>
        <time>2022-07-31T08:05:10Z</time>
      </trkpt>
      <trkpt lat="46.1743" lon="6.65912">
        <ele>1436</ele>
        <time>2022-07-31T08:05:11Z</time>
      </trkpt>
      <trkpt lat="46.17431" lon="6.65913">
        <ele>1436</ele>
        <time>2022-07-31T08:05:12Z</time>
      </trkpt>
      <trkpt lat="46.17433" lon="6.65913">
        <ele>1436</ele>
        <time>2022-07-31T08:05:13Z</time>
      </trkpt>
      <trkpt lat="46.17435" lon="6.65913">
        <ele>1436</ele>
        <time>2022-07-31T08:05:14Z</time>
      </trkpt>
      <trkpt lat="46.17437" lon="6.65914">
        <ele>1436</ele>
        <time>2022-07-31T08:05:15Z</time>
      </trkpt>
      <trkpt lat="46.17438" lon="6.65914">
        <ele>1437</ele>
        <time>2022-07-31T08:05:16Z</time>
      </trkpt>
      <trkpt lat="46.17441" lon="6.65914">
        <ele>1437</ele>
        <time>2022-07-31T08:05:17Z</time>
      </trkpt>
      <trkpt lat="46.17442" lon="6.65915">
        <ele>1437</ele>
        <time>2022-07-31T08:05:18Z</time>
      </trkpt>
      <trkpt lat="46.17443" lon="6.65915">
        <ele>1437</ele>
        <time>2022-07-31T08:05:19Z</time>
      </trkpt>
      <trkpt lat="46.17444" lon="6.65916">
        <ele>1437</ele>
        <time>2022-07-31T08:05:20Z</time>
      </trkpt>
      <trkpt lat="46.17445" lon="6.65916">
        <ele>1437</ele>
        <time>2022-07-31T08:05:21Z</time>
      </trkpt>
      <trkpt lat="46.17446" lon="6.65916">
        <ele>1437</ele>
        <time>2022-07-31T08:05:22Z</time>
      </trkpt>
      <trkpt lat="46.17448" lon="6.65917">
        <ele>1436</ele>
        <time>2022-07-31T08:05:23Z</time>
      </trkpt>
      <trkpt lat="46.17449" lon="6.65918">
        <ele>1436</ele>
        <time>2022-07-31T08:05:24Z</time>
      </trkpt>
      <trkpt lat="46.17449" lon="6.65919">
        <ele>1436</ele>
        <time>2022-07-31T08:05:25Z</time>
      </trkpt>
      <trkpt lat="46.1745" lon="6.65919">
        <ele>1436</ele>
        <time>2022-07-31T08:05:26Z</time>
      </trkpt>
      <trkpt lat="46.1745" lon="6.65919">
        <ele>1436</ele>
        <time>2022-07-31T08:05:27Z</time>
      </trkpt>
      <trkpt lat="46.17451" lon="6.65919">
        <ele>1436</ele>
        <time>2022-07-31T08:05:28Z</time>
      </trkpt>
      <trkpt lat="46.17452" lon="6.65919">
        <ele>1436</ele>
        <time>2022-07-31T08:05:29Z</time>
      </trkpt>
      <trkpt lat="46.17452" lon="6.65918">
        <ele>1435</ele>
        <time>2022-07-31T08:05:30Z</time>
      </trkpt>
      <trkpt lat="46.17453" lon="6.65918">
        <ele>1435</ele>
        <time>2022-07-31T08:05:31Z</time>
      </trkpt>
      <trkpt lat="46.17454" lon="6.65918">
        <ele>1435</ele>
        <time>2022-07-31T08:05:32Z</time>
      </trkpt>
      <trkpt lat="46.17454" lon="6.65918">
        <ele>1435</ele>
        <time>2022-07-31T08:05:33Z</time>
      </trkpt>
      <trkpt lat="46.17456" lon="6.65917">
        <ele>1435</ele>
        <time>2022-07-31T08:05:34Z</time>
      </trkpt>
      <trkpt lat="46.17458" lon="6.65915">
        <ele>1435</ele>
        <time>2022-07-31T08:05:35Z</time>
      </trkpt>
      <trkpt lat="46.17459" lon="6.65914">
        <ele>1434</ele>
        <time>2022-07-31T08:05:36Z</time>
      </trkpt>
      <trkpt lat="46.1746" lon="6.65913">
        <ele>1434</ele>
        <time>2022-07-31T08:05:37Z</time>
      </trkpt>
      <trkpt lat="46.17462" lon="6.65913">
        <ele>1434</ele>
        <time>2022-07-31T08:05:38Z</time>
      </trkpt>
      <trkpt lat="46.17464" lon="6.65913">
        <ele>1434</ele>
        <time>2022-07-31T08:05:39Z</time>
      </trkpt>
      <trkpt lat="46.17465" lon="6.65913">
        <ele>1434</ele>
        <time>2022-07-31T08:05:40Z</time>
      </trkpt>
      <trkpt lat="46.17466" lon="6.65912">
        <ele>1433</ele>
        <time>2022-07-31T08:05:41Z</time>
      </trkpt>
      <trkpt lat="46.17468" lon="6.6591">
        <ele>1433</ele>
        <time>2022-07-31T08:05:42Z</time>
      </trkpt>
      <trkpt lat="46.1747" lon="6.65909">
        <ele>1433</ele>
        <time>2022-07-31T08:05:43Z</time>
      </trkpt>
      <trkpt lat="46.17472" lon="6.65909">
        <ele>1433</ele>
        <time>2022-07-31T08:05:44Z</time>
      </trkpt>
      <trkpt lat="46.17473" lon="6.6591">
        <ele>1433</ele>
        <time>2022-07-31T08:05:45Z</time>
      </trkpt>
      <trkpt lat="46.17475" lon="6.6591">
        <ele>1433</ele>
        <time>2022-07-31T08:05:46Z</time>
      </trkpt>
      <trkpt lat="46.17476" lon="6.65909">
        <ele>1432</ele>
        <time>2022-07-31T08:05:47Z</time>
      </trkpt>
      <trkpt lat="46.17478" lon="6.65909">
        <ele>1432</ele>
        <time>2022-07-31T08:05:48Z</time>
      </trkpt>
      <trkpt lat="46.17479" lon="6.65909">
        <ele>1432</ele>
        <time>2022-07-31T08:05:49Z</time>
      </trkpt>
      <trkpt lat="46.1748" lon="6.65908">
        <ele>1432</ele>
        <time>2022-07-31T08:05:50Z</time>
      </trkpt>
      <trkpt lat="46.1748" lon="6.65907">
        <ele>1432</ele>
        <time>2022-07-31T08:05:51Z</time>
      </trkpt>
      <trkpt lat="46.17481" lon="6.65907">
        <ele>1432</ele>
        <time>2022-07-31T08:05:52Z</time>
      </trkpt>
      <trkpt lat="46.17481" lon="6.65906">
        <ele>1431</ele>
        <time>2022-07-31T08:05:53Z</time>
      </trkpt>
      <trkpt lat="46.17482" lon="6.65905">
        <ele>1431</ele>
        <time>2022-07-31T08:05:54Z</time>
      </trkpt>
      <trkpt lat="46.17484" lon="6.65905">
        <ele>1431</ele>
        <time>2022-07-31T08:05:55Z</time>
      </trkpt>
      <trkpt lat="46.17486" lon="6.65905">
        <ele>1431</ele>
        <time>2022-07-31T08:05:56Z</time>
      </trkpt>
      <trkpt lat="46.17487" lon="6.65904">
        <ele>1431</ele>
        <time>2022-07-31T08:05:57Z</time>
      </trkpt>
      <trkpt lat="46.17489" lon="6.65903">
        <ele>1431</ele>
        <time>2022-07-31T08:05:58Z</time>
      </trkpt>
      <trkpt lat="46.17491" lon="6.65902">
        <ele>1431</ele>
        <time>2022-07-31T08:05:59Z</time>
      </trkpt>
      <trkpt lat="46.17493" lon="6.65901">
        <ele>1431</ele>
        <time>2022-07-31T08:06:00Z</time>
      </trkpt>
      <trkpt lat="46.17495" lon="6.659">
        <ele>1431</ele>
        <time>2022-07-31T08:06:01Z</time>
      </trkpt>
      <trkpt lat="46.17497" lon="6.659">
        <ele>1431</ele>
        <time>2022-07-31T08:06:02Z</time>
      </trkpt>
      <trkpt lat="46.17498" lon="6.65899">
        <ele>1431</ele>
        <time>2022-07-31T08:06:03Z</time>
      </trkpt>
      <trkpt lat="46.175" lon="6.659">
        <ele>1431</ele>
        <time>2022-07-31T08:06:04Z</time>
      </trkpt>
      <trkpt lat="46.17502" lon="6.659">
        <ele>1431</ele>
        <time>2022-07-31T08:06:05Z</time>
      </trkpt>
      <trkpt lat="46.17504" lon="6.65899">
        <ele>1431</ele>
        <time>2022-07-31T08:06:06Z</time>
      </trkpt>
      <trkpt lat="46.17507" lon="6.65898">
        <ele>1431</ele>
        <time>2022-07-31T08:06:07Z</time>
      </trkpt>
      <trkpt lat="46.17508" lon="6.65896">
        <ele>1431</ele>
        <time>2022-07-31T08:06:08Z</time>
      </trkpt>
      <trkpt lat="46.17509" lon="6.65896">
        <ele>1431</ele>
        <time>2022-07-31T08:06:09Z</time>
      </trkpt>
      <trkpt lat="46.1751" lon="6.65896">
        <ele>1431</ele>
        <time>2022-07-31T08:06:10Z</time>
      </trkpt>
      <trkpt lat="46.17511" lon="6.65895">
        <ele>1431</ele>
        <time>2022-07-31T08:06:11Z</time>
      </trkpt>
      <trkpt lat="46.17512" lon="6.65894">
        <ele>1431</ele>
        <time>2022-07-31T08:06:12Z</time>
      </trkpt>
      <trkpt lat="46.17514" lon="6.65895">
        <ele>1431</ele>
        <time>2022-07-31T08:06:13Z</time>
      </trkpt>
      <trkpt lat="46.17516" lon="6.65895">
        <ele>1432</ele>
        <time>2022-07-31T08:06:14Z</time>
      </trkpt>
      <trkpt lat="46.17517" lon="6.65895">
        <ele>1432</ele>
        <time>2022-07-31T08:06:15Z</time>
      </trkpt>
      <trkpt lat="46.17518" lon="6.65895">
        <ele>1432</ele>
        <time>2022-07-31T08:06:16Z</time>
      </trkpt>
      <trkpt lat="46.17519" lon="6.65894">
        <ele>1432</ele>
        <time>2022-07-31T08:06:17Z</time>
      </trkpt>
      <trkpt lat="46.1752" lon="6.65893">
        <ele>1432</ele>
        <time>2022-07-31T08:06:18Z</time>
      </trkpt>
      <trkpt lat="46.1752" lon="6.65892">
        <ele>1431</ele>
        <time>2022-07-31T08:06:19Z</time>
      </trkpt>
      <trkpt lat="46.17522" lon="6.6589">
        <ele>1431</ele>
        <time>2022-07-31T08:06:20Z</time>
      </trkpt>
      <trkpt lat="46.17523" lon="6.65889">
        <ele>1431</ele>
        <time>2022-07-31T08:06:21Z</time>
      </trkpt>
      <trkpt lat="46.17524" lon="6.65887">
        <ele>1431</ele>
        <time>2022-07-31T08:06:22Z</time>
      </trkpt>
      <trkpt lat="46.17525" lon="6.65886">
        <ele>1431</ele>
        <time>2022-07-31T08:06:23Z</time>
      </trkpt>
      <trkpt lat="46.17526" lon="6.65884">
        <ele>1431</ele>
        <time>2022-07-31T08:06:24Z</time>
      </trkpt>
      <trkpt lat="46.17526" lon="6.65883">
        <ele>1431</ele>
        <time>2022-07-31T08:06:25Z</time>
      </trkpt>
      <trkpt lat="46.17528" lon="6.65882">
        <ele>1431</ele>
        <time>2022-07-31T08:06:26Z</time>
      </trkpt>
      <trkpt lat="46.1753" lon="6.65881">
        <ele>1431</ele>
        <time>2022-07-31T08:06:27Z</time>
      </trkpt>
      <trkpt lat="46.1753" lon="6.6588">
        <ele>1431</ele>
        <time>2022-07-31T08:06:28Z</time>
      </trkpt>
      <trkpt lat="46.17531" lon="6.6588">
        <ele>1430</ele>
        <time>2022-07-31T08:06:29Z</time>
      </trkpt>
      <trkpt lat="46.17532" lon="6.65881">
        <ele>1430</ele>
        <time>2022-07-31T08:06:30Z</time>
      </trkpt>
      <trkpt lat="46.17534" lon="6.65882">
        <ele>1430</ele>
        <time>2022-07-31T08:06:31Z</time>
      </trkpt>
      <trkpt lat="46.17536" lon="6.65882">
        <ele>1430</ele>
        <time>2022-07-31T08:06:32Z</time>
      </trkpt>
      <trkpt lat="46.17538" lon="6.65883">
        <ele>1430</ele>
        <time>2022-07-31T08:06:33Z</time>
      </trkpt>
      <trkpt lat="46.17538" lon="6.65883">
        <ele>1430</ele>
        <time>2022-07-31T08:06:34Z</time>
      </trkpt>
      <trkpt lat="46.17539" lon="6.65884">
        <ele>1429</ele>
        <time>2022-07-31T08:06:35Z</time>
      </trkpt>
      <trkpt lat="46.1754" lon="6.65885">
        <ele>1429</ele>
        <time>2022-07-31T08:06:36Z</time>
      </trkpt>
      <trkpt lat="46.17542" lon="6.65885">
        <ele>1429</ele>
        <time>2022-07-31T08:06:37Z</time>
      </trkpt>
      <trkpt lat="46.17543" lon="6.65886">
        <ele>1429</ele>
        <time>2022-07-31T08:06:38Z</time>
      </trkpt>
      <trkpt lat="46.17545" lon="6.65886">
        <ele>1429</ele>
        <time>2022-07-31T08:06:39Z</time>
      </trkpt>
      <trkpt lat="46.17547" lon="6.65886">
        <ele>1429</ele>
        <time>2022-07-31T08:06:40Z</time>
      </trkpt>
      <trkpt lat="46.17547" lon="6.65886">
        <ele>1429</ele>
        <time>2022-07-31T08:06:41Z</time>
      </trkpt>
      <trkpt lat="46.17547" lon="6.65886">
        <ele>1429</ele>
        <time>2022-07-31T08:06:42Z</time>
      </trkpt>
      <trkpt lat="46.17548" lon="6.65886">
        <ele>1429</ele>
        <time>2022-07-31T08:06:43Z</time>
      </trkpt>
      <trkpt lat="46.17549" lon="6.65884">
        <ele>1428</ele>
        <time>2022-07-31T08:06:44Z</time>
      </trkpt>
      <trkpt lat="46.17549" lon="6.65883">
        <ele>1428</ele>
        <time>2022-07-31T08:06:45Z</time>
      </trkpt>
      <trkpt lat="46.1755" lon="6.65882">
        <ele>1428</ele>
        <time>2022-07-31T08:06:46Z</time>
      </trkpt>
      <trkpt lat="46.1755" lon="6.65881">
        <ele>1428</ele>
        <time>2022-07-31T08:06:47Z</time>
      </trkpt>
      <trkpt lat="46.17549" lon="6.6588">
        <ele>1428</ele>
        <time>2022-07-31T08:06:48Z</time>
      </trkpt>
      <trkpt lat="46.17549" lon="6.6588">
        <ele>1428</ele>
        <time>2022-07-31T08:06:49Z</time>
      </trkpt>
      <trkpt lat="46.1755" lon="6.65879">
        <ele>1428</ele>
        <time>2022-07-31T08:06:50Z</time>
      </trkpt>
      <trkpt lat="46.1755" lon="6.65879">
        <ele>1428</ele>
        <time>2022-07-31T08:06:51Z</time>
      </trkpt>
      <trkpt lat="46.17551" lon="6.65878">
        <ele>1428</ele>
        <time>2022-07-31T08:06:52Z</time>
      </trkpt>
      <trkpt lat="46.17552" lon="6.65878">
        <ele>1428</ele>
        <time>2022-07-31T08:06:53Z</time>
      </trkpt>
      <trkpt lat="46.17552" lon="6.65879">
        <ele>1428</ele>
        <time>2022-07-31T08:06:54Z</time>
      </trkpt>
      <trkpt lat="46.17553" lon="6.65879">
        <ele>1429</ele>
        <time>2022-07-31T08:06:55Z</time>
      </trkpt>
      <trkpt lat="46.17554" lon="6.65877">
        <ele>1429</ele>
        <time>2022-07-31T08:06:56Z</time>
      </trkpt>
      <trkpt lat="46.17556" lon="6.65877">
        <ele>1429</ele>
        <time>2022-07-31T08:06:57Z</time>
      </trkpt>
      <trkpt lat="46.17557" lon="6.65876">
        <ele>1429</ele>
        <time>2022-07-31T08:06:58Z</time>
      </trkpt>
      <trkpt lat="46.17559" lon="6.65876">
        <ele>1429</ele>
        <time>2022-07-31T08:06:59Z</time>
      </trkpt>
      <trkpt lat="46.1756" lon="6.65876">
        <ele>1429</ele>
        <time>2022-07-31T08:07:00Z</time>
      </trkpt>
      <trkpt lat="46.17561" lon="6.65876">
        <ele>1429</ele>
        <time>2022-07-31T08:07:01Z</time>
      </trkpt>
      <trkpt lat="46.17562" lon="6.65875">
        <ele>1429</ele>
        <time>2022-07-31T08:07:02Z</time>
      </trkpt>
      <trkpt lat="46.17563" lon="6.65875">
        <ele>1429</ele>
        <time>2022-07-31T08:07:03Z</time>
      </trkpt>
      <trkpt lat="46.17564" lon="6.65874">
        <ele>1429</ele>
        <time>2022-07-31T08:07:04Z</time>
      </trkpt>
      <trkpt lat="46.17566" lon="6.65874">
        <ele>1429</ele>
        <time>2022-07-31T08:07:05Z</time>
      </trkpt>
      <trkpt lat="46.17567" lon="6.65873">
        <ele>1429</ele>
        <time>2022-07-31T08:07:06Z</time>
      </trkpt>
      <trkpt lat="46.17569" lon="6.65873">
        <ele>1429</ele>
        <time>2022-07-31T08:07:07Z</time>
      </trkpt>
      <trkpt lat="46.17569" lon="6.65872">
        <ele>1429</ele>
        <time>2022-07-31T08:07:08Z</time>
      </trkpt>
      <trkpt lat="46.1757" lon="6.65872">
        <ele>1429</ele>
        <time>2022-07-31T08:07:09Z</time>
      </trkpt>
      <trkpt lat="46.17572" lon="6.65872">
        <ele>1429</ele>
        <time>2022-07-31T08:07:10Z</time>
      </trkpt>
      <trkpt lat="46.17573" lon="6.65873">
        <ele>1429</ele>
        <time>2022-07-31T08:07:11Z</time>
      </trkpt>
      <trkpt lat="46.17574" lon="6.65872">
        <ele>1429</ele>
        <time>2022-07-31T08:07:12Z</time>
      </trkpt>
      <trkpt lat="46.17575" lon="6.65872">
        <ele>1429</ele>
        <time>2022-07-31T08:07:13Z</time>
      </trkpt>
      <trkpt lat="46.17576" lon="6.65871">
        <ele>1429</ele>
        <time>2022-07-31T08:07:14Z</time>
      </trkpt>
      <trkpt lat="46.17577" lon="6.6587">
        <ele>1430</ele>
        <time>2022-07-31T08:07:15Z</time>
      </trkpt>
      <trkpt lat="46.17578" lon="6.65869">
        <ele>1430</ele>
        <time>2022-07-31T08:07:16Z</time>
      </trkpt>
      <trkpt lat="46.1758" lon="6.65869">
        <ele>1430</ele>
        <time>2022-07-31T08:07:17Z</time>
      </trkpt>
      <trkpt lat="46.17582" lon="6.65869">
        <ele>1430</ele>
        <time>2022-07-31T08:07:18Z</time>
      </trkpt>
      <trkpt lat="46.17584" lon="6.65868">
        <ele>1430</ele>
        <time>2022-07-31T08:07:19Z</time>
      </trkpt>
      <trkpt lat="46.17586" lon="6.65867">
        <ele>1430</ele>
        <time>2022-07-31T08:07:20Z</time>
      </trkpt>
      <trkpt lat="46.17587" lon="6.65867">
        <ele>1430</ele>
        <time>2022-07-31T08:07:21Z</time>
      </trkpt>
      <trkpt lat="46.17588" lon="6.65868">
        <ele>1430</ele>
        <time>2022-07-31T08:07:22Z</time>
      </trkpt>
      <trkpt lat="46.1759" lon="6.65869">
        <ele>1430</ele>
        <time>2022-07-31T08:07:23Z</time>
      </trkpt>
      <trkpt lat="46.17591" lon="6.6587">
        <ele>1430</ele>
        <time>2022-07-31T08:07:24Z</time>
      </trkpt>
      <trkpt lat="46.17592" lon="6.65871">
        <ele>1430</ele>
        <time>2022-07-31T08:07:25Z</time>
      </trkpt>
      <trkpt lat="46.17593" lon="6.65871">
        <ele>1430</ele>
        <time>2022-07-31T08:07:26Z</time>
      </trkpt>
      <trkpt lat="46.17594" lon="6.6587">
        <ele>1430</ele>
        <time>2022-07-31T08:07:27Z</time>
      </trkpt>
      <trkpt lat="46.17596" lon="6.6587">
        <ele>1430</ele>
        <time>2022-07-31T08:07:28Z</time>
      </trkpt>
      <trkpt lat="46.17596" lon="6.65869">
        <ele>1430</ele>
        <time>2022-07-31T08:07:29Z</time>
      </trkpt>
      <trkpt lat="46.17596" lon="6.65868">
        <ele>1430</ele>
        <time>2022-07-31T08:07:30Z</time>
      </trkpt>
      <trkpt lat="46.17598" lon="6.65867">
        <ele>1431</ele>
        <time>2022-07-31T08:07:31Z</time>
      </trkpt>
      <trkpt lat="46.17599" lon="6.65866">
        <ele>1431</ele>
        <time>2022-07-31T08:07:32Z</time>
      </trkpt>
      <trkpt lat="46.176" lon="6.65866">
        <ele>1431</ele>
        <time>2022-07-31T08:07:33Z</time>
      </trkpt>
      <trkpt lat="46.17602" lon="6.65866">
        <ele>1431</ele>
        <time>2022-07-31T08:07:34Z</time>
      </trkpt>
      <trkpt lat="46.17604" lon="6.65865">
        <ele>1431</ele>
        <time>2022-07-31T08:07:35Z</time>
      </trkpt>
      <trkpt lat="46.17605" lon="6.65865">
        <ele>1431</ele>
        <time>2022-07-31T08:07:36Z</time>
      </trkpt>
      <trkpt lat="46.17607" lon="6.65864">
        <ele>1431</ele>
        <time>2022-07-31T08:07:37Z</time>
      </trkpt>
      <trkpt lat="46.17609" lon="6.65864">
        <ele>1431</ele>
        <time>2022-07-31T08:07:38Z</time>
      </trkpt>
      <trkpt lat="46.17612" lon="6.65863">
        <ele>1431</ele>
        <time>2022-07-31T08:07:39Z</time>
      </trkpt>
      <trkpt lat="46.17613" lon="6.65861">
        <ele>1431</ele>
        <time>2022-07-31T08:07:40Z</time>
      </trkpt>
      <trkpt lat="46.17613" lon="6.65861">
        <ele>1431</ele>
        <time>2022-07-31T08:07:41Z</time>
      </trkpt>
      <trkpt lat="46.17615" lon="6.65861">
        <ele>1431</ele>
        <time>2022-07-31T08:07:42Z</time>
      </trkpt>
      <trkpt lat="46.17616" lon="6.6586">
        <ele>1430</ele>
        <time>2022-07-31T08:07:43Z</time>
      </trkpt>
      <trkpt lat="46.17617" lon="6.65859">
        <ele>1430</ele>
        <time>2022-07-31T08:07:44Z</time>
      </trkpt>
      <trkpt lat="46.17618" lon="6.6586">
        <ele>1430</ele>
        <time>2022-07-31T08:07:45Z</time>
      </trkpt>
      <trkpt lat="46.1762" lon="6.6586">
        <ele>1430</ele>
        <time>2022-07-31T08:07:46Z</time>
      </trkpt>
      <trkpt lat="46.1762" lon="6.65859">
        <ele>1430</ele>
        <time>2022-07-31T08:07:47Z</time>
      </trkpt>
      <trkpt lat="46.17621" lon="6.65859">
        <ele>1430</ele>
        <time>2022-07-31T08:07:48Z</time>
      </trkpt>
      <trkpt lat="46.17622" lon="6.65858">
        <ele>1430</ele>
        <time>2022-07-31T08:07:49Z</time>
      </trkpt>
      <trkpt lat="46.17623" lon="6.65858">
        <ele>1429</ele>
        <time>2022-07-31T08:07:50Z</time>
      </trkpt>
      <trkpt lat="46.17624" lon="6.65857">
        <ele>1429</ele>
        <time>2022-07-31T08:07:51Z</time>
      </trkpt>
      <trkpt lat="46.17625" lon="6.65855">
        <ele>1429</ele>
        <time>2022-07-31T08:07:52Z</time>
      </trkpt>
      <trkpt lat="46.17626" lon="6.65855">
        <ele>1429</ele>
        <time>2022-07-31T08:07:53Z</time>
      </trkpt>
      <trkpt lat="46.17626" lon="6.65853">
        <ele>1429</ele>
        <time>2022-07-31T08:07:54Z</time>
      </trkpt>
      <trkpt lat="46.17627" lon="6.65853">
        <ele>1429</ele>
        <time>2022-07-31T08:07:55Z</time>
      </trkpt>
      <trkpt lat="46.17627" lon="6.65852">
        <ele>1428</ele>
        <time>2022-07-31T08:07:56Z</time>
      </trkpt>
      <trkpt lat="46.17628" lon="6.65852">
        <ele>1428</ele>
        <time>2022-07-31T08:07:57Z</time>
      </trkpt>
      <trkpt lat="46.17628" lon="6.65851">
        <ele>1428</ele>
        <time>2022-07-31T08:07:58Z</time>
      </trkpt>
      <trkpt lat="46.17628" lon="6.6585">
        <ele>1428</ele>
        <time>2022-07-31T08:07:59Z</time>
      </trkpt>
      <trkpt lat="46.17629" lon="6.65849">
        <ele>1428</ele>
        <time>2022-07-31T08:08:00Z</time>
      </trkpt>
      <trkpt lat="46.1763" lon="6.65849">
        <ele>1428</ele>
        <time>2022-07-31T08:08:01Z</time>
      </trkpt>
      <trkpt lat="46.1763" lon="6.65848">
        <ele>1428</ele>
        <time>2022-07-31T08:08:02Z</time>
      </trkpt>
      <trkpt lat="46.17631" lon="6.65847">
        <ele>1428</ele>
        <time>2022-07-31T08:08:03Z</time>
      </trkpt>
      <trkpt lat="46.17633" lon="6.65845">
        <ele>1428</ele>
        <time>2022-07-31T08:08:04Z</time>
      </trkpt>
      <trkpt lat="46.17634" lon="6.65844">
        <ele>1428</ele>
        <time>2022-07-31T08:08:05Z</time>
      </trkpt>
      <trkpt lat="46.17636" lon="6.65843">
        <ele>1428</ele>
        <time>2022-07-31T08:08:06Z</time>
      </trkpt>
      <trkpt lat="46.17637" lon="6.65841">
        <ele>1428</ele>
        <time>2022-07-31T08:08:07Z</time>
      </trkpt>
      <trkpt lat="46.17638" lon="6.65839">
        <ele>1428</ele>
        <time>2022-07-31T08:08:08Z</time>
      </trkpt>
      <trkpt lat="46.1764" lon="6.65839">
        <ele>1427</ele>
        <time>2022-07-31T08:08:09Z</time>
      </trkpt>
      <trkpt lat="46.1764" lon="6.65838">
        <ele>1427</ele>
        <time>2022-07-31T08:08:10Z</time>
      </trkpt>
      <trkpt lat="46.17641" lon="6.65837">
        <ele>1427</ele>
        <time>2022-07-31T08:08:11Z</time>
      </trkpt>
      <trkpt lat="46.17642" lon="6.65836">
        <ele>1427</ele>
        <time>2022-07-31T08:08:12Z</time>
      </trkpt>
      <trkpt lat="46.17644" lon="6.65835">
        <ele>1427</ele>
        <time>2022-07-31T08:08:13Z</time>
      </trkpt>
      <trkpt lat="46.17645" lon="6.65834">
        <ele>1427</ele>
        <time>2022-07-31T08:08:14Z</time>
      </trkpt>
      <trkpt lat="46.17646" lon="6.65833">
        <ele>1427</ele>
        <time>2022-07-31T08:08:15Z</time>
      </trkpt>
      <trkpt lat="46.17647" lon="6.65832">
        <ele>1427</ele>
        <time>2022-07-31T08:08:16Z</time>
      </trkpt>
      <trkpt lat="46.17648" lon="6.6583">
        <ele>1427</ele>
        <time>2022-07-31T08:08:17Z</time>
      </trkpt>
      <trkpt lat="46.1765" lon="6.6583">
        <ele>1427</ele>
        <time>2022-07-31T08:08:18Z</time>
      </trkpt>
      <trkpt lat="46.17651" lon="6.65829">
        <ele>1427</ele>
        <time>2022-07-31T08:08:19Z</time>
      </trkpt>
      <trkpt lat="46.17652" lon="6.65827">
        <ele>1427</ele>
        <time>2022-07-31T08:08:20Z</time>
      </trkpt>
      <trkpt lat="46.17653" lon="6.65825">
        <ele>1427</ele>
        <time>2022-07-31T08:08:21Z</time>
      </trkpt>
      <trkpt lat="46.17654" lon="6.65823">
        <ele>1427</ele>
        <time>2022-07-31T08:08:22Z</time>
      </trkpt>
      <trkpt lat="46.17656" lon="6.65822">
        <ele>1427</ele>
        <time>2022-07-31T08:08:23Z</time>
      </trkpt>
      <trkpt lat="46.17658" lon="6.65821">
        <ele>1427</ele>
        <time>2022-07-31T08:08:24Z</time>
      </trkpt>
      <trkpt lat="46.17662" lon="6.65819">
        <ele>1427</ele>
        <time>2022-07-31T08:08:25Z</time>
      </trkpt>
      <trkpt lat="46.17663" lon="6.65818">
        <ele>1426</ele>
        <time>2022-07-31T08:08:26Z</time>
      </trkpt>
      <trkpt lat="46.17664" lon="6.65818">
        <ele>1426</ele>
        <time>2022-07-31T08:08:27Z</time>
      </trkpt>
      <trkpt lat="46.17664" lon="6.65816">
        <ele>1426</ele>
        <time>2022-07-31T08:08:28Z</time>
      </trkpt>
      <trkpt lat="46.17665" lon="6.65815">
        <ele>1426</ele>
        <time>2022-07-31T08:08:29Z</time>
      </trkpt>
      <trkpt lat="46.17666" lon="6.65814">
        <ele>1426</ele>
        <time>2022-07-31T08:08:30Z</time>
      </trkpt>
      <trkpt lat="46.17667" lon="6.65812">
        <ele>1426</ele>
        <time>2022-07-31T08:08:31Z</time>
      </trkpt>
      <trkpt lat="46.17669" lon="6.65811">
        <ele>1426</ele>
        <time>2022-07-31T08:08:32Z</time>
      </trkpt>
      <trkpt lat="46.1767" lon="6.65809">
        <ele>1426</ele>
        <time>2022-07-31T08:08:33Z</time>
      </trkpt>
      <trkpt lat="46.17671" lon="6.65808">
        <ele>1426</ele>
        <time>2022-07-31T08:08:34Z</time>
      </trkpt>
      <trkpt lat="46.17672" lon="6.65806">
        <ele>1425</ele>
        <time>2022-07-31T08:08:35Z</time>
      </trkpt>
      <trkpt lat="46.17673" lon="6.65805">
        <ele>1425</ele>
        <time>2022-07-31T08:08:36Z</time>
      </trkpt>
      <trkpt lat="46.17673" lon="6.65804">
        <ele>1425</ele>
        <time>2022-07-31T08:08:37Z</time>
      </trkpt>
      <trkpt lat="46.17674" lon="6.65802">
        <ele>1425</ele>
        <time>2022-07-31T08:08:38Z</time>
      </trkpt>
      <trkpt lat="46.17675" lon="6.65801">
        <ele>1425</ele>
        <time>2022-07-31T08:08:39Z</time>
      </trkpt>
      <trkpt lat="46.17676" lon="6.658">
        <ele>1425</ele>
        <time>2022-07-31T08:08:40Z</time>
      </trkpt>
      <trkpt lat="46.17677" lon="6.65799">
        <ele>1425</ele>
        <time>2022-07-31T08:08:41Z</time>
      </trkpt>
      <trkpt lat="46.17678" lon="6.65797">
        <ele>1425</ele>
        <time>2022-07-31T08:08:42Z</time>
      </trkpt>
      <trkpt lat="46.17679" lon="6.65796">
        <ele>1424</ele>
        <time>2022-07-31T08:08:43Z</time>
      </trkpt>
      <trkpt lat="46.1768" lon="6.65794">
        <ele>1424</ele>
        <time>2022-07-31T08:08:44Z</time>
      </trkpt>
      <trkpt lat="46.17681" lon="6.65793">
        <ele>1424</ele>
        <time>2022-07-31T08:08:45Z</time>
      </trkpt>
      <trkpt lat="46.17681" lon="6.65791">
        <ele>1424</ele>
        <time>2022-07-31T08:08:46Z</time>
      </trkpt>
      <trkpt lat="46.17683" lon="6.65789">
        <ele>1424</ele>
        <time>2022-07-31T08:08:47Z</time>
      </trkpt>
      <trkpt lat="46.17684" lon="6.65788">
        <ele>1424</ele>
        <time>2022-07-31T08:08:48Z</time>
      </trkpt>
      <trkpt lat="46.17686" lon="6.65787">
        <ele>1423</ele>
        <time>2022-07-31T08:08:49Z</time>
      </trkpt>
      <trkpt lat="46.17687" lon="6.65785">
        <ele>1423</ele>
        <time>2022-07-31T08:08:50Z</time>
      </trkpt>
      <trkpt lat="46.17687" lon="6.65785">
        <ele>1423</ele>
        <time>2022-07-31T08:08:51Z</time>
      </trkpt>
      <trkpt lat="46.17688" lon="6.65785">
        <ele>1423</ele>
        <time>2022-07-31T08:08:52Z</time>
      </trkpt>
      <trkpt lat="46.17689" lon="6.65784">
        <ele>1423</ele>
        <time>2022-07-31T08:08:53Z</time>
      </trkpt>
      <trkpt lat="46.17689" lon="6.65783">
        <ele>1422</ele>
        <time>2022-07-31T08:08:54Z</time>
      </trkpt>
      <trkpt lat="46.17689" lon="6.65783">
        <ele>1422</ele>
        <time>2022-07-31T08:08:55Z</time>
      </trkpt>
      <trkpt lat="46.1769" lon="6.65782">
        <ele>1422</ele>
        <time>2022-07-31T08:08:56Z</time>
      </trkpt>
      <trkpt lat="46.1769" lon="6.65782">
        <ele>1422</ele>
        <time>2022-07-31T08:08:57Z</time>
      </trkpt>
      <trkpt lat="46.17691" lon="6.65782">
        <ele>1421</ele>
        <time>2022-07-31T08:08:58Z</time>
      </trkpt>
      <trkpt lat="46.17691" lon="6.65781">
        <ele>1421</ele>
        <time>2022-07-31T08:08:59Z</time>
      </trkpt>
      <trkpt lat="46.17691" lon="6.65781">
        <ele>1421</ele>
        <time>2022-07-31T08:09:00Z</time>
      </trkpt>
      <trkpt lat="46.17689" lon="6.6578">
        <ele>1421</ele>
        <time>2022-07-31T08:09:01Z</time>
      </trkpt>
      <trkpt lat="46.17689" lon="6.65779">
        <ele>1420</ele>
        <time>2022-07-31T08:09:02Z</time>
      </trkpt>
      <trkpt lat="46.17689" lon="6.65779">
        <ele>1420</ele>
        <time>2022-07-31T08:09:03Z</time>
      </trkpt>
      <trkpt lat="46.17689" lon="6.65778">
        <ele>1420</ele>
        <time>2022-07-31T08:09:04Z</time>
      </trkpt>
      <trkpt lat="46.17689" lon="6.65778">
        <ele>1419</ele>
        <time>2022-07-31T08:09:05Z</time>
      </trkpt>
      <trkpt lat="46.17689" lon="6.6578">
        <ele>1419</ele>
        <time>2022-07-31T08:09:06Z</time>
      </trkpt>
      <trkpt lat="46.17689" lon="6.65781">
        <ele>1419</ele>
        <time>2022-07-31T08:09:07Z</time>
      </trkpt>
      <trkpt lat="46.17689" lon="6.65782">
        <ele>1418</ele>
        <time>2022-07-31T08:09:08Z</time>
      </trkpt>
      <trkpt lat="46.17689" lon="6.65783">
        <ele>1418</ele>
        <time>2022-07-31T08:09:09Z</time>
      </trkpt>
      <trkpt lat="46.17689" lon="6.65782">
        <ele>1418</ele>
        <time>2022-07-31T08:09:10Z</time>
      </trkpt>
      <trkpt lat="46.17689" lon="6.65782">
        <ele>1417</ele>
        <time>2022-07-31T08:09:11Z</time>
      </trkpt>
      <trkpt lat="46.17689" lon="6.65781">
        <ele>1417</ele>
        <time>2022-07-31T08:09:12Z</time>
      </trkpt>
      <trkpt lat="46.17689" lon="6.65781">
        <ele>1417</ele>
        <time>2022-07-31T08:09:13Z</time>
      </trkpt>
      <trkpt lat="46.17689" lon="6.6578">
        <ele>1416</ele>
        <time>2022-07-31T08:09:14Z</time>
      </trkpt>
      <trkpt lat="46.17689" lon="6.6578">
        <ele>1416</ele>
        <time>2022-07-31T08:09:15Z</time>
      </trkpt>
      <trkpt lat="46.17689" lon="6.65779">
        <ele>1416</ele>
        <time>2022-07-31T08:09:16Z</time>
      </trkpt>
      <trkpt lat="46.17689" lon="6.65779">
        <ele>1416</ele>
        <time>2022-07-31T08:09:17Z</time>
      </trkpt>
      <trkpt lat="46.17689" lon="6.6578">
        <ele>1416</ele>
        <time>2022-07-31T08:09:18Z</time>
      </trkpt>
      <trkpt lat="46.17689" lon="6.65781">
        <ele>1415</ele>
        <time>2022-07-31T08:09:19Z</time>
      </trkpt>
      <trkpt lat="46.17689" lon="6.65781">
        <ele>1415</ele>
        <time>2022-07-31T08:09:20Z</time>
      </trkpt>
      <trkpt lat="46.17688" lon="6.65782">
        <ele>1415</ele>
        <time>2022-07-31T08:09:21Z</time>
      </trkpt>
      <trkpt lat="46.17688" lon="6.65784">
        <ele>1415</ele>
        <time>2022-07-31T08:09:22Z</time>
      </trkpt>
      <trkpt lat="46.17688" lon="6.65785">
        <ele>1415</ele>
        <time>2022-07-31T08:09:23Z</time>
      </trkpt>
      <trkpt lat="46.17688" lon="6.65787">
        <ele>1415</ele>
        <time>2022-07-31T08:09:24Z</time>
      </trkpt>
      <trkpt lat="46.17687" lon="6.65788">
        <ele>1415</ele>
        <time>2022-07-31T08:09:25Z</time>
      </trkpt>
      <trkpt lat="46.17687" lon="6.65789">
        <ele>1415</ele>
        <time>2022-07-31T08:09:26Z</time>
      </trkpt>
      <trkpt lat="46.17687" lon="6.6579">
        <ele>1415</ele>
        <time>2022-07-31T08:09:27Z</time>
      </trkpt>
      <trkpt lat="46.17687" lon="6.6579">
        <ele>1415</ele>
        <time>2022-07-31T08:09:28Z</time>
      </trkpt>
      <trkpt lat="46.17687" lon="6.6579">
        <ele>1415</ele>
        <time>2022-07-31T08:09:29Z</time>
      </trkpt>
      <trkpt lat="46.17687" lon="6.6579">
        <ele>1415</ele>
        <time>2022-07-31T08:09:30Z</time>
      </trkpt>
      <trkpt lat="46.17688" lon="6.65788">
        <ele>1415</ele>
        <time>2022-07-31T08:09:31Z</time>
      </trkpt>
      <trkpt lat="46.17689" lon="6.65787">
        <ele>1415</ele>
        <time>2022-07-31T08:09:32Z</time>
      </trkpt>
      <trkpt lat="46.17689" lon="6.65785">
        <ele>1415</ele>
        <time>2022-07-31T08:09:33Z</time>
      </trkpt>
      <trkpt lat="46.1769" lon="6.65784">
        <ele>1415</ele>
        <time>2022-07-31T08:09:34Z</time>
      </trkpt>
      <trkpt lat="46.17691" lon="6.65782">
        <ele>1415</ele>
        <time>2022-07-31T08:09:35Z</time>
      </trkpt>
      <trkpt lat="46.17692" lon="6.65779">
        <ele>1414</ele>
        <time>2022-07-31T08:09:36Z</time>
      </trkpt>
      <trkpt lat="46.17693" lon="6.65777">
        <ele>1414</ele>
        <time>2022-07-31T08:09:37Z</time>
      </trkpt>
      <trkpt lat="46.17693" lon="6.65776">
        <ele>1415</ele>
        <time>2022-07-31T08:09:38Z</time>
      </trkpt>
      <trkpt lat="46.17694" lon="6.65774">
        <ele>1415</ele>
        <time>2022-07-31T08:09:39Z</time>
      </trkpt>
      <trkpt lat="46.17695" lon="6.65773">
        <ele>1415</ele>
        <time>2022-07-31T08:09:40Z</time>
      </trkpt>
      <trkpt lat="46.17696" lon="6.65772">
        <ele>1415</ele>
        <time>2022-07-31T08:09:41Z</time>
      </trkpt>
      <trkpt lat="46.17696" lon="6.65771">
        <ele>1415</ele>
        <time>2022-07-31T08:09:42Z</time>
      </trkpt>
      <trkpt lat="46.17697" lon="6.65769">
        <ele>1415</ele>
        <time>2022-07-31T08:09:43Z</time>
      </trkpt>
      <trkpt lat="46.17697" lon="6.65768">
        <ele>1415</ele>
        <time>2022-07-31T08:09:44Z</time>
      </trkpt>
      <trkpt lat="46.17698" lon="6.65767">
        <ele>1415</ele>
        <time>2022-07-31T08:09:45Z</time>
      </trkpt>
      <trkpt lat="46.17699" lon="6.65766">
        <ele>1415</ele>
        <time>2022-07-31T08:09:46Z</time>
      </trkpt>
      <trkpt lat="46.177" lon="6.65764">
        <ele>1415</ele>
        <time>2022-07-31T08:09:47Z</time>
      </trkpt>
      <trkpt lat="46.17701" lon="6.65762">
        <ele>1415</ele>
        <time>2022-07-31T08:09:48Z</time>
      </trkpt>
      <trkpt lat="46.17702" lon="6.6576">
        <ele>1415</ele>
        <time>2022-07-31T08:09:49Z</time>
      </trkpt>
      <trkpt lat="46.17703" lon="6.65759">
        <ele>1415</ele>
        <time>2022-07-31T08:09:50Z</time>
      </trkpt>
      <trkpt lat="46.17703" lon="6.65757">
        <ele>1415</ele>
        <time>2022-07-31T08:09:51Z</time>
      </trkpt>
      <trkpt lat="46.17704" lon="6.65755">
        <ele>1415</ele>
        <time>2022-07-31T08:09:52Z</time>
      </trkpt>
      <trkpt lat="46.17704" lon="6.65754">
        <ele>1415</ele>
        <time>2022-07-31T08:09:53Z</time>
      </trkpt>
      <trkpt lat="46.17705" lon="6.65752">
        <ele>1415</ele>
        <time>2022-07-31T08:09:54Z</time>
      </trkpt>
      <trkpt lat="46.17706" lon="6.6575">
        <ele>1416</ele>
        <time>2022-07-31T08:09:55Z</time>
      </trkpt>
      <trkpt lat="46.17706" lon="6.65749">
        <ele>1416</ele>
        <time>2022-07-31T08:09:56Z</time>
      </trkpt>
      <trkpt lat="46.17707" lon="6.65747">
        <ele>1416</ele>
        <time>2022-07-31T08:09:57Z</time>
      </trkpt>
      <trkpt lat="46.17707" lon="6.65745">
        <ele>1416</ele>
        <time>2022-07-31T08:09:58Z</time>
      </trkpt>
      <trkpt lat="46.17708" lon="6.65743">
        <ele>1416</ele>
        <time>2022-07-31T08:09:59Z</time>
      </trkpt>
      <trkpt lat="46.17709" lon="6.65741">
        <ele>1416</ele>
        <time>2022-07-31T08:10:00Z</time>
      </trkpt>
      <trkpt lat="46.17709" lon="6.65739">
        <ele>1416</ele>
        <time>2022-07-31T08:10:01Z</time>
      </trkpt>
      <trkpt lat="46.1771" lon="6.65737">
        <ele>1416</ele>
        <time>2022-07-31T08:10:02Z</time>
      </trkpt>
      <trkpt lat="46.1771" lon="6.65736">
        <ele>1416</ele>
        <time>2022-07-31T08:10:03Z</time>
      </trkpt>
      <trkpt lat="46.1771" lon="6.65735">
        <ele>1416</ele>
        <time>2022-07-31T08:10:04Z</time>
      </trkpt>
      <trkpt lat="46.17711" lon="6.65734">
        <ele>1416</ele>
        <time>2022-07-31T08:10:05Z</time>
      </trkpt>
      <trkpt lat="46.17711" lon="6.65733">
        <ele>1416</ele>
        <time>2022-07-31T08:10:06Z</time>
      </trkpt>
      <trkpt lat="46.17711" lon="6.65732">
        <ele>1416</ele>
        <time>2022-07-31T08:10:07Z</time>
      </trkpt>
      <trkpt lat="46.17711" lon="6.6573">
        <ele>1417</ele>
        <time>2022-07-31T08:10:08Z</time>
      </trkpt>
      <trkpt lat="46.17711" lon="6.65728">
        <ele>1417</ele>
        <time>2022-07-31T08:10:09Z</time>
      </trkpt>
      <trkpt lat="46.17711" lon="6.65727">
        <ele>1417</ele>
        <time>2022-07-31T08:10:10Z</time>
      </trkpt>
      <trkpt lat="46.17711" lon="6.65725">
        <ele>1417</ele>
        <time>2022-07-31T08:10:11Z</time>
      </trkpt>
      <trkpt lat="46.17712" lon="6.65724">
        <ele>1417</ele>
        <time>2022-07-31T08:10:12Z</time>
      </trkpt>
      <trkpt lat="46.17713" lon="6.65723">
        <ele>1417</ele>
        <time>2022-07-31T08:10:13Z</time>
      </trkpt>
      <trkpt lat="46.17714" lon="6.65722">
        <ele>1417</ele>
        <time>2022-07-31T08:10:14Z</time>
      </trkpt>
      <trkpt lat="46.17715" lon="6.65721">
        <ele>1417</ele>
        <time>2022-07-31T08:10:15Z</time>
      </trkpt>
      <trkpt lat="46.17715" lon="6.65719">
        <ele>1417</ele>
        <time>2022-07-31T08:10:16Z</time>
      </trkpt>
      <trkpt lat="46.17715" lon="6.65716">
        <ele>1417</ele>
        <time>2022-07-31T08:10:17Z</time>
      </trkpt>
      <trkpt lat="46.17715" lon="6.65714">
        <ele>1417</ele>
        <time>2022-07-31T08:10:18Z</time>
      </trkpt>
      <trkpt lat="46.17715" lon="6.65712">
        <ele>1417</ele>
        <time>2022-07-31T08:10:19Z</time>
      </trkpt>
      <trkpt lat="46.17715" lon="6.6571">
        <ele>1418</ele>
        <time>2022-07-31T08:10:20Z</time>
      </trkpt>
      <trkpt lat="46.17716" lon="6.65709">
        <ele>1418</ele>
        <time>2022-07-31T08:10:21Z</time>
      </trkpt>
      <trkpt lat="46.17717" lon="6.65707">
        <ele>1418</ele>
        <time>2022-07-31T08:10:22Z</time>
      </trkpt>
      <trkpt lat="46.17717" lon="6.65706">
        <ele>1418</ele>
        <time>2022-07-31T08:10:23Z</time>
      </trkpt>
      <trkpt lat="46.17717" lon="6.65705">
        <ele>1418</ele>
        <time>2022-07-31T08:10:24Z</time>
      </trkpt>
      <trkpt lat="46.17716" lon="6.65703">
        <ele>1418</ele>
        <time>2022-07-31T08:10:25Z</time>
      </trkpt>
      <trkpt lat="46.17716" lon="6.65702">
        <ele>1418</ele>
        <time>2022-07-31T08:10:26Z</time>
      </trkpt>
      <trkpt lat="46.17716" lon="6.65701">
        <ele>1418</ele>
        <time>2022-07-31T08:10:27Z</time>
      </trkpt>
      <trkpt lat="46.17716" lon="6.657">
        <ele>1418</ele>
        <time>2022-07-31T08:10:28Z</time>
      </trkpt>
      <trkpt lat="46.17716" lon="6.65698">
        <ele>1418</ele>
        <time>2022-07-31T08:10:29Z</time>
      </trkpt>
      <trkpt lat="46.17716" lon="6.65696">
        <ele>1418</ele>
        <time>2022-07-31T08:10:30Z</time>
      </trkpt>
      <trkpt lat="46.17716" lon="6.65694">
        <ele>1418</ele>
        <time>2022-07-31T08:10:31Z</time>
      </trkpt>
      <trkpt lat="46.17716" lon="6.65692">
        <ele>1418</ele>
        <time>2022-07-31T08:10:32Z</time>
      </trkpt>
      <trkpt lat="46.17717" lon="6.65689">
        <ele>1418</ele>
        <time>2022-07-31T08:10:33Z</time>
      </trkpt>
      <trkpt lat="46.17717" lon="6.65687">
        <ele>1418</ele>
        <time>2022-07-31T08:10:34Z</time>
      </trkpt>
      <trkpt lat="46.17717" lon="6.65685">
        <ele>1417</ele>
        <time>2022-07-31T08:10:35Z</time>
      </trkpt>
      <trkpt lat="46.17718" lon="6.65684">
        <ele>1417</ele>
        <time>2022-07-31T08:10:36Z</time>
      </trkpt>
      <trkpt lat="46.17718" lon="6.65681">
        <ele>1417</ele>
        <time>2022-07-31T08:10:37Z</time>
      </trkpt>
      <trkpt lat="46.17718" lon="6.6568">
        <ele>1417</ele>
        <time>2022-07-31T08:10:38Z</time>
      </trkpt>
      <trkpt lat="46.17718" lon="6.65678">
        <ele>1417</ele>
        <time>2022-07-31T08:10:39Z</time>
      </trkpt>
      <trkpt lat="46.17718" lon="6.65677">
        <ele>1417</ele>
        <time>2022-07-31T08:10:40Z</time>
      </trkpt>
      <trkpt lat="46.17718" lon="6.65675">
        <ele>1417</ele>
        <time>2022-07-31T08:10:41Z</time>
      </trkpt>
      <trkpt lat="46.17718" lon="6.65674">
        <ele>1417</ele>
        <time>2022-07-31T08:10:42Z</time>
      </trkpt>
      <trkpt lat="46.17719" lon="6.65673">
        <ele>1417</ele>
        <time>2022-07-31T08:10:43Z</time>
      </trkpt>
      <trkpt lat="46.1772" lon="6.65673">
        <ele>1417</ele>
        <time>2022-07-31T08:10:44Z</time>
      </trkpt>
      <trkpt lat="46.17721" lon="6.65672">
        <ele>1417</ele>
        <time>2022-07-31T08:10:45Z</time>
      </trkpt>
      <trkpt lat="46.17721" lon="6.6567">
        <ele>1417</ele>
        <time>2022-07-31T08:10:46Z</time>
      </trkpt>
      <trkpt lat="46.17722" lon="6.6567">
        <ele>1417</ele>
        <time>2022-07-31T08:10:47Z</time>
      </trkpt>
      <trkpt lat="46.17722" lon="6.65669">
        <ele>1417</ele>
        <time>2022-07-31T08:10:48Z</time>
      </trkpt>
      <trkpt lat="46.17723" lon="6.65667">
        <ele>1417</ele>
        <time>2022-07-31T08:10:49Z</time>
      </trkpt>
      <trkpt lat="46.17723" lon="6.65665">
        <ele>1417</ele>
        <time>2022-07-31T08:10:50Z</time>
      </trkpt>
      <trkpt lat="46.17723" lon="6.65663">
        <ele>1417</ele>
        <time>2022-07-31T08:10:51Z</time>
      </trkpt>
      <trkpt lat="46.17723" lon="6.65662">
        <ele>1417</ele>
        <time>2022-07-31T08:10:52Z</time>
      </trkpt>
      <trkpt lat="46.17723" lon="6.65661">
        <ele>1417</ele>
        <time>2022-07-31T08:10:53Z</time>
      </trkpt>
      <trkpt lat="46.17723" lon="6.6566">
        <ele>1417</ele>
        <time>2022-07-31T08:10:54Z</time>
      </trkpt>
      <trkpt lat="46.17723" lon="6.6566">
        <ele>1417</ele>
        <time>2022-07-31T08:10:55Z</time>
      </trkpt>
      <trkpt lat="46.17723" lon="6.6566">
        <ele>1417</ele>
        <time>2022-07-31T08:10:56Z</time>
      </trkpt>
      <trkpt lat="46.17721" lon="6.65658">
        <ele>1417</ele>
        <time>2022-07-31T08:10:57Z</time>
      </trkpt>
      <trkpt lat="46.1772" lon="6.65656">
        <ele>1417</ele>
        <time>2022-07-31T08:10:58Z</time>
      </trkpt>
      <trkpt lat="46.17719" lon="6.65654">
        <ele>1417</ele>
        <time>2022-07-31T08:10:59Z</time>
      </trkpt>
      <trkpt lat="46.17719" lon="6.65653">
        <ele>1417</ele>
        <time>2022-07-31T08:11:00Z</time>
      </trkpt>
      <trkpt lat="46.17718" lon="6.65651">
        <ele>1417</ele>
        <time>2022-07-31T08:11:01Z</time>
      </trkpt>
      <trkpt lat="46.17718" lon="6.6565">
        <ele>1417</ele>
        <time>2022-07-31T08:11:02Z</time>
      </trkpt>
      <trkpt lat="46.17717" lon="6.65647">
        <ele>1417</ele>
        <time>2022-07-31T08:11:03Z</time>
      </trkpt>
      <trkpt lat="46.17716" lon="6.65645">
        <ele>1417</ele>
        <time>2022-07-31T08:11:04Z</time>
      </trkpt>
      <trkpt lat="46.17715" lon="6.65644">
        <ele>1417</ele>
        <time>2022-07-31T08:11:05Z</time>
      </trkpt>
      <trkpt lat="46.17714" lon="6.65642">
        <ele>1417</ele>
        <time>2022-07-31T08:11:06Z</time>
      </trkpt>
      <trkpt lat="46.17714" lon="6.6564">
        <ele>1417</ele>
        <time>2022-07-31T08:11:07Z</time>
      </trkpt>
      <trkpt lat="46.17713" lon="6.65639">
        <ele>1417</ele>
        <time>2022-07-31T08:11:08Z</time>
      </trkpt>
      <trkpt lat="46.17712" lon="6.65637">
        <ele>1416</ele>
        <time>2022-07-31T08:11:09Z</time>
      </trkpt>
      <trkpt lat="46.17711" lon="6.65635">
        <ele>1416</ele>
        <time>2022-07-31T08:11:10Z</time>
      </trkpt>
      <trkpt lat="46.1771" lon="6.65633">
        <ele>1416</ele>
        <time>2022-07-31T08:11:11Z</time>
      </trkpt>
      <trkpt lat="46.1771" lon="6.65632">
        <ele>1417</ele>
        <time>2022-07-31T08:11:12Z</time>
      </trkpt>
      <trkpt lat="46.1771" lon="6.6563">
        <ele>1417</ele>
        <time>2022-07-31T08:11:13Z</time>
      </trkpt>
      <trkpt lat="46.17709" lon="6.6563">
        <ele>1417</ele>
        <time>2022-07-31T08:11:14Z</time>
      </trkpt>
      <trkpt lat="46.17708" lon="6.65629">
        <ele>1417</ele>
        <time>2022-07-31T08:11:15Z</time>
      </trkpt>
      <trkpt lat="46.17707" lon="6.65627">
        <ele>1417</ele>
        <time>2022-07-31T08:11:16Z</time>
      </trkpt>
      <trkpt lat="46.17707" lon="6.65626">
        <ele>1417</ele>
        <time>2022-07-31T08:11:17Z</time>
      </trkpt>
      <trkpt lat="46.17707" lon="6.65625">
        <ele>1417</ele>
        <time>2022-07-31T08:11:18Z</time>
      </trkpt>
      <trkpt lat="46.17707" lon="6.65624">
        <ele>1417</ele>
        <time>2022-07-31T08:11:19Z</time>
      </trkpt>
      <trkpt lat="46.17706" lon="6.65622">
        <ele>1417</ele>
        <time>2022-07-31T08:11:20Z</time>
      </trkpt>
      <trkpt lat="46.17705" lon="6.6562">
        <ele>1417</ele>
        <time>2022-07-31T08:11:21Z</time>
      </trkpt>
      <trkpt lat="46.17705" lon="6.65618">
        <ele>1417</ele>
        <time>2022-07-31T08:11:22Z</time>
      </trkpt>
      <trkpt lat="46.17704" lon="6.65616">
        <ele>1417</ele>
        <time>2022-07-31T08:11:23Z</time>
      </trkpt>
      <trkpt lat="46.17704" lon="6.65615">
        <ele>1417</ele>
        <time>2022-07-31T08:11:24Z</time>
      </trkpt>
      <trkpt lat="46.17704" lon="6.65614">
        <ele>1417</ele>
        <time>2022-07-31T08:11:25Z</time>
      </trkpt>
      <trkpt lat="46.17704" lon="6.65612">
        <ele>1417</ele>
        <time>2022-07-31T08:11:26Z</time>
      </trkpt>
      <trkpt lat="46.17704" lon="6.6561">
        <ele>1417</ele>
        <time>2022-07-31T08:11:27Z</time>
      </trkpt>
      <trkpt lat="46.17704" lon="6.65609">
        <ele>1417</ele>
        <time>2022-07-31T08:11:28Z</time>
      </trkpt>
      <trkpt lat="46.17703" lon="6.65606">
        <ele>1417</ele>
        <time>2022-07-31T08:11:29Z</time>
      </trkpt>
      <trkpt lat="46.17702" lon="6.65604">
        <ele>1417</ele>
        <time>2022-07-31T08:11:30Z</time>
      </trkpt>
      <trkpt lat="46.17701" lon="6.65602">
        <ele>1417</ele>
        <time>2022-07-31T08:11:31Z</time>
      </trkpt>
      <trkpt lat="46.17701" lon="6.65601">
        <ele>1417</ele>
        <time>2022-07-31T08:11:32Z</time>
      </trkpt>
      <trkpt lat="46.177" lon="6.65599">
        <ele>1417</ele>
        <time>2022-07-31T08:11:33Z</time>
      </trkpt>
      <trkpt lat="46.17699" lon="6.65597">
        <ele>1417</ele>
        <time>2022-07-31T08:11:34Z</time>
      </trkpt>
      <trkpt lat="46.17697" lon="6.65596">
        <ele>1417</ele>
        <time>2022-07-31T08:11:35Z</time>
      </trkpt>
      <trkpt lat="46.17696" lon="6.65596">
        <ele>1417</ele>
        <time>2022-07-31T08:11:36Z</time>
      </trkpt>
      <trkpt lat="46.17695" lon="6.65595">
        <ele>1417</ele>
        <time>2022-07-31T08:11:37Z</time>
      </trkpt>
      <trkpt lat="46.17695" lon="6.65594">
        <ele>1417</ele>
        <time>2022-07-31T08:11:38Z</time>
      </trkpt>
      <trkpt lat="46.17694" lon="6.65593">
        <ele>1417</ele>
        <time>2022-07-31T08:11:39Z</time>
      </trkpt>
      <trkpt lat="46.17693" lon="6.65592">
        <ele>1417</ele>
        <time>2022-07-31T08:11:40Z</time>
      </trkpt>
      <trkpt lat="46.17692" lon="6.65589">
        <ele>1417</ele>
        <time>2022-07-31T08:11:41Z</time>
      </trkpt>
      <trkpt lat="46.17691" lon="6.65588">
        <ele>1417</ele>
        <time>2022-07-31T08:11:42Z</time>
      </trkpt>
      <trkpt lat="46.17691" lon="6.65587">
        <ele>1417</ele>
        <time>2022-07-31T08:11:43Z</time>
      </trkpt>
      <trkpt lat="46.17689" lon="6.65586">
        <ele>1417</ele>
        <time>2022-07-31T08:11:44Z</time>
      </trkpt>
      <trkpt lat="46.17689" lon="6.65583">
        <ele>1417</ele>
        <time>2022-07-31T08:11:45Z</time>
      </trkpt>
      <trkpt lat="46.17689" lon="6.65581">
        <ele>1417</ele>
        <time>2022-07-31T08:11:46Z</time>
      </trkpt>
      <trkpt lat="46.17688" lon="6.65578">
        <ele>1417</ele>
        <time>2022-07-31T08:11:47Z</time>
      </trkpt>
      <trkpt lat="46.17687" lon="6.65576">
        <ele>1417</ele>
        <time>2022-07-31T08:11:48Z</time>
      </trkpt>
      <trkpt lat="46.17686" lon="6.65573">
        <ele>1417</ele>
        <time>2022-07-31T08:11:49Z</time>
      </trkpt>
      <trkpt lat="46.17685" lon="6.65571">
        <ele>1417</ele>
        <time>2022-07-31T08:11:50Z</time>
      </trkpt>
      <trkpt lat="46.17683" lon="6.65568">
        <ele>1417</ele>
        <time>2022-07-31T08:11:51Z</time>
      </trkpt>
      <trkpt lat="46.17683" lon="6.65567">
        <ele>1417</ele>
        <time>2022-07-31T08:11:52Z</time>
      </trkpt>
      <trkpt lat="46.17682" lon="6.65565">
        <ele>1417</ele>
        <time>2022-07-31T08:11:53Z</time>
      </trkpt>
      <trkpt lat="46.1768" lon="6.65562">
        <ele>1417</ele>
        <time>2022-07-31T08:11:54Z</time>
      </trkpt>
      <trkpt lat="46.1768" lon="6.65561">
        <ele>1417</ele>
        <time>2022-07-31T08:11:55Z</time>
      </trkpt>
      <trkpt lat="46.17679" lon="6.6556">
        <ele>1417</ele>
        <time>2022-07-31T08:11:56Z</time>
      </trkpt>
      <trkpt lat="46.17679" lon="6.65559">
        <ele>1417</ele>
        <time>2022-07-31T08:11:57Z</time>
      </trkpt>
      <trkpt lat="46.17679" lon="6.65558">
        <ele>1417</ele>
        <time>2022-07-31T08:11:58Z</time>
      </trkpt>
      <trkpt lat="46.17679" lon="6.65556">
        <ele>1417</ele>
        <time>2022-07-31T08:11:59Z</time>
      </trkpt>
      <trkpt lat="46.17678" lon="6.65555">
        <ele>1417</ele>
        <time>2022-07-31T08:12:00Z</time>
      </trkpt>
      <trkpt lat="46.17677" lon="6.65553">
        <ele>1417</ele>
        <time>2022-07-31T08:12:01Z</time>
      </trkpt>
      <trkpt lat="46.17677" lon="6.65551">
        <ele>1417</ele>
        <time>2022-07-31T08:12:02Z</time>
      </trkpt>
      <trkpt lat="46.17676" lon="6.65549">
        <ele>1417</ele>
        <time>2022-07-31T08:12:03Z</time>
      </trkpt>
      <trkpt lat="46.17676" lon="6.65548">
        <ele>1417</ele>
        <time>2022-07-31T08:12:04Z</time>
      </trkpt>
      <trkpt lat="46.17676" lon="6.65547">
        <ele>1417</ele>
        <time>2022-07-31T08:12:05Z</time>
      </trkpt>
      <trkpt lat="46.17676" lon="6.65547">
        <ele>1417</ele>
        <time>2022-07-31T08:12:06Z</time>
      </trkpt>
      <trkpt lat="46.17675" lon="6.65546">
        <ele>1417</ele>
        <time>2022-07-31T08:12:07Z</time>
      </trkpt>
      <trkpt lat="46.17674" lon="6.65545">
        <ele>1417</ele>
        <time>2022-07-31T08:12:08Z</time>
      </trkpt>
      <trkpt lat="46.17673" lon="6.65544">
        <ele>1417</ele>
        <time>2022-07-31T08:12:09Z</time>
      </trkpt>
      <trkpt lat="46.17673" lon="6.65544">
        <ele>1417</ele>
        <time>2022-07-31T08:12:10Z</time>
      </trkpt>
      <trkpt lat="46.17673" lon="6.65543">
        <ele>1417</ele>
        <time>2022-07-31T08:12:11Z</time>
      </trkpt>
      <trkpt lat="46.17673" lon="6.65542">
        <ele>1417</ele>
        <time>2022-07-31T08:12:12Z</time>
      </trkpt>
      <trkpt lat="46.17672" lon="6.65541">
        <ele>1417</ele>
        <time>2022-07-31T08:12:13Z</time>
      </trkpt>
      <trkpt lat="46.17673" lon="6.6554">
        <ele>1417</ele>
        <time>2022-07-31T08:12:14Z</time>
      </trkpt>
      <trkpt lat="46.17673" lon="6.65539">
        <ele>1417</ele>
        <time>2022-07-31T08:12:15Z</time>
      </trkpt>
      <trkpt lat="46.17674" lon="6.65538">
        <ele>1417</ele>
        <time>2022-07-31T08:12:16Z</time>
      </trkpt>
      <trkpt lat="46.17675" lon="6.65536">
        <ele>1417</ele>
        <time>2022-07-31T08:12:17Z</time>
      </trkpt>
      <trkpt lat="46.17676" lon="6.65535">
        <ele>1416</ele>
        <time>2022-07-31T08:12:18Z</time>
      </trkpt>
      <trkpt lat="46.17677" lon="6.65533">
        <ele>1416</ele>
        <time>2022-07-31T08:12:19Z</time>
      </trkpt>
      <trkpt lat="46.17678" lon="6.65531">
        <ele>1416</ele>
        <time>2022-07-31T08:12:20Z</time>
      </trkpt>
      <trkpt lat="46.17678" lon="6.6553">
        <ele>1416</ele>
        <time>2022-07-31T08:12:21Z</time>
      </trkpt>
      <trkpt lat="46.17678" lon="6.65528">
        <ele>1416</ele>
        <time>2022-07-31T08:12:22Z</time>
      </trkpt>
      <trkpt lat="46.17679" lon="6.65526">
        <ele>1416</ele>
        <time>2022-07-31T08:12:23Z</time>
      </trkpt>
      <trkpt lat="46.17679" lon="6.65525">
        <ele>1416</ele>
        <time>2022-07-31T08:12:24Z</time>
      </trkpt>
      <trkpt lat="46.1768" lon="6.65523">
        <ele>1416</ele>
        <time>2022-07-31T08:12:25Z</time>
      </trkpt>
      <trkpt lat="46.1768" lon="6.65521">
        <ele>1416</ele>
        <time>2022-07-31T08:12:26Z</time>
      </trkpt>
      <trkpt lat="46.1768" lon="6.65519">
        <ele>1416</ele>
        <time>2022-07-31T08:12:27Z</time>
      </trkpt>
      <trkpt lat="46.1768" lon="6.65516">
        <ele>1416</ele>
        <time>2022-07-31T08:12:28Z</time>
      </trkpt>
      <trkpt lat="46.1768" lon="6.65515">
        <ele>1416</ele>
        <time>2022-07-31T08:12:29Z</time>
      </trkpt>
      <trkpt lat="46.1768" lon="6.65512">
        <ele>1416</ele>
        <time>2022-07-31T08:12:30Z</time>
      </trkpt>
      <trkpt lat="46.17681" lon="6.6551">
        <ele>1416</ele>
        <time>2022-07-31T08:12:31Z</time>
      </trkpt>
      <trkpt lat="46.17681" lon="6.65508">
        <ele>1416</ele>
        <time>2022-07-31T08:12:32Z</time>
      </trkpt>
      <trkpt lat="46.17682" lon="6.65507">
        <ele>1416</ele>
        <time>2022-07-31T08:12:33Z</time>
      </trkpt>
      <trkpt lat="46.17682" lon="6.65506">
        <ele>1416</ele>
        <time>2022-07-31T08:12:34Z</time>
      </trkpt>
      <trkpt lat="46.17684" lon="6.65504">
        <ele>1416</ele>
        <time>2022-07-31T08:12:35Z</time>
      </trkpt>
      <trkpt lat="46.17684" lon="6.65503">
        <ele>1416</ele>
        <time>2022-07-31T08:12:36Z</time>
      </trkpt>
      <trkpt lat="46.17684" lon="6.65502">
        <ele>1416</ele>
        <time>2022-07-31T08:12:37Z</time>
      </trkpt>
      <trkpt lat="46.17684" lon="6.655">
        <ele>1416</ele>
        <time>2022-07-31T08:12:38Z</time>
      </trkpt>
      <trkpt lat="46.17684" lon="6.65497">
        <ele>1416</ele>
        <time>2022-07-31T08:12:39Z</time>
      </trkpt>
      <trkpt lat="46.17683" lon="6.65496">
        <ele>1416</ele>
        <time>2022-07-31T08:12:40Z</time>
      </trkpt>
      <trkpt lat="46.17683" lon="6.65494">
        <ele>1416</ele>
        <time>2022-07-31T08:12:41Z</time>
      </trkpt>
      <trkpt lat="46.17683" lon="6.65492">
        <ele>1416</ele>
        <time>2022-07-31T08:12:42Z</time>
      </trkpt>
      <trkpt lat="46.17683" lon="6.65491">
        <ele>1416</ele>
        <time>2022-07-31T08:12:43Z</time>
      </trkpt>
      <trkpt lat="46.17682" lon="6.6549">
        <ele>1416</ele>
        <time>2022-07-31T08:12:44Z</time>
      </trkpt>
      <trkpt lat="46.17682" lon="6.65488">
        <ele>1416</ele>
        <time>2022-07-31T08:12:45Z</time>
      </trkpt>
      <trkpt lat="46.17681" lon="6.65486">
        <ele>1416</ele>
        <time>2022-07-31T08:12:46Z</time>
      </trkpt>
      <trkpt lat="46.17681" lon="6.65485">
        <ele>1416</ele>
        <time>2022-07-31T08:12:47Z</time>
      </trkpt>
      <trkpt lat="46.17681" lon="6.65483">
        <ele>1416</ele>
        <time>2022-07-31T08:12:48Z</time>
      </trkpt>
      <trkpt lat="46.17681" lon="6.65481">
        <ele>1417</ele>
        <time>2022-07-31T08:12:49Z</time>
      </trkpt>
      <trkpt lat="46.17681" lon="6.65479">
        <ele>1417</ele>
        <time>2022-07-31T08:12:50Z</time>
      </trkpt>
      <trkpt lat="46.17681" lon="6.65477">
        <ele>1417</ele>
        <time>2022-07-31T08:12:51Z</time>
      </trkpt>
      <trkpt lat="46.17681" lon="6.65475">
        <ele>1417</ele>
        <time>2022-07-31T08:12:52Z</time>
      </trkpt>
      <trkpt lat="46.17681" lon="6.65473">
        <ele>1417</ele>
        <time>2022-07-31T08:12:53Z</time>
      </trkpt>
      <trkpt lat="46.17681" lon="6.65471">
        <ele>1417</ele>
        <time>2022-07-31T08:12:54Z</time>
      </trkpt>
      <trkpt lat="46.17681" lon="6.65469">
        <ele>1417</ele>
        <time>2022-07-31T08:12:55Z</time>
      </trkpt>
      <trkpt lat="46.17681" lon="6.65468">
        <ele>1417</ele>
        <time>2022-07-31T08:12:56Z</time>
      </trkpt>
      <trkpt lat="46.17681" lon="6.65466">
        <ele>1417</ele>
        <time>2022-07-31T08:12:57Z</time>
      </trkpt>
      <trkpt lat="46.17682" lon="6.65465">
        <ele>1417</ele>
        <time>2022-07-31T08:12:58Z</time>
      </trkpt>
      <trkpt lat="46.17681" lon="6.65463">
        <ele>1416</ele>
        <time>2022-07-31T08:12:59Z</time>
      </trkpt>
      <trkpt lat="46.17681" lon="6.65461">
        <ele>1416</ele>
        <time>2022-07-31T08:13:00Z</time>
      </trkpt>
      <trkpt lat="46.17681" lon="6.65459">
        <ele>1416</ele>
        <time>2022-07-31T08:13:01Z</time>
      </trkpt>
      <trkpt lat="46.17681" lon="6.65457">
        <ele>1416</ele>
        <time>2022-07-31T08:13:02Z</time>
      </trkpt>
      <trkpt lat="46.17681" lon="6.65456">
        <ele>1416</ele>
        <time>2022-07-31T08:13:03Z</time>
      </trkpt>
      <trkpt lat="46.17681" lon="6.65454">
        <ele>1415</ele>
        <time>2022-07-31T08:13:04Z</time>
      </trkpt>
      <trkpt lat="46.17681" lon="6.65453">
        <ele>1415</ele>
        <time>2022-07-31T08:13:05Z</time>
      </trkpt>
      <trkpt lat="46.17681" lon="6.65451">
        <ele>1415</ele>
        <time>2022-07-31T08:13:06Z</time>
      </trkpt>
      <trkpt lat="46.17681" lon="6.6545">
        <ele>1415</ele>
        <time>2022-07-31T08:13:07Z</time>
      </trkpt>
      <trkpt lat="46.1768" lon="6.65449">
        <ele>1414</ele>
        <time>2022-07-31T08:13:08Z</time>
      </trkpt>
      <trkpt lat="46.1768" lon="6.65447">
        <ele>1414</ele>
        <time>2022-07-31T08:13:09Z</time>
      </trkpt>
      <trkpt lat="46.1768" lon="6.65446">
        <ele>1414</ele>
        <time>2022-07-31T08:13:10Z</time>
      </trkpt>
      <trkpt lat="46.1768" lon="6.65444">
        <ele>1413</ele>
        <time>2022-07-31T08:13:11Z</time>
      </trkpt>
      <trkpt lat="46.17679" lon="6.65442">
        <ele>1413</ele>
        <time>2022-07-31T08:13:12Z</time>
      </trkpt>
      <trkpt lat="46.17678" lon="6.6544">
        <ele>1413</ele>
        <time>2022-07-31T08:13:13Z</time>
      </trkpt>
      <trkpt lat="46.17678" lon="6.65438">
        <ele>1413</ele>
        <time>2022-07-31T08:13:14Z</time>
      </trkpt>
      <trkpt lat="46.17677" lon="6.65436">
        <ele>1412</ele>
        <time>2022-07-31T08:13:15Z</time>
      </trkpt>
      <trkpt lat="46.17678" lon="6.65435">
        <ele>1412</ele>
        <time>2022-07-31T08:13:16Z</time>
      </trkpt>
      <trkpt lat="46.17678" lon="6.65433">
        <ele>1412</ele>
        <time>2022-07-31T08:13:17Z</time>
      </trkpt>
      <trkpt lat="46.17678" lon="6.65432">
        <ele>1411</ele>
        <time>2022-07-31T08:13:18Z</time>
      </trkpt>
      <trkpt lat="46.17678" lon="6.65431">
        <ele>1411</ele>
        <time>2022-07-31T08:13:19Z</time>
      </trkpt>
      <trkpt lat="46.17677" lon="6.65429">
        <ele>1411</ele>
        <time>2022-07-31T08:13:20Z</time>
      </trkpt>
      <trkpt lat="46.17676" lon="6.65426">
        <ele>1411</ele>
        <time>2022-07-31T08:13:21Z</time>
      </trkpt>
      <trkpt lat="46.17676" lon="6.65423">
        <ele>1410</ele>
        <time>2022-07-31T08:13:22Z</time>
      </trkpt>
      <trkpt lat="46.17676" lon="6.65421">
        <ele>1410</ele>
        <time>2022-07-31T08:13:23Z</time>
      </trkpt>
      <trkpt lat="46.17675" lon="6.6542">
        <ele>1410</ele>
        <time>2022-07-31T08:13:24Z</time>
      </trkpt>
      <trkpt lat="46.17675" lon="6.65418">
        <ele>1409</ele>
        <time>2022-07-31T08:13:25Z</time>
      </trkpt>
      <trkpt lat="46.17675" lon="6.65417">
        <ele>1409</ele>
        <time>2022-07-31T08:13:26Z</time>
      </trkpt>
      <trkpt lat="46.17675" lon="6.65415">
        <ele>1409</ele>
        <time>2022-07-31T08:13:27Z</time>
      </trkpt>
      <trkpt lat="46.17675" lon="6.65413">
        <ele>1408</ele>
        <time>2022-07-31T08:13:28Z</time>
      </trkpt>
      <trkpt lat="46.17675" lon="6.65411">
        <ele>1408</ele>
        <time>2022-07-31T08:13:29Z</time>
      </trkpt>
      <trkpt lat="46.17675" lon="6.65408">
        <ele>1408</ele>
        <time>2022-07-31T08:13:30Z</time>
      </trkpt>
      <trkpt lat="46.17675" lon="6.65405">
        <ele>1407</ele>
        <time>2022-07-31T08:13:31Z</time>
      </trkpt>
      <trkpt lat="46.17675" lon="6.65402">
        <ele>1407</ele>
        <time>2022-07-31T08:13:32Z</time>
      </trkpt>
      <trkpt lat="46.17675" lon="6.654">
        <ele>1407</ele>
        <time>2022-07-31T08:13:33Z</time>
      </trkpt>
      <trkpt lat="46.17676" lon="6.65397">
        <ele>1407</ele>
        <time>2022-07-31T08:13:34Z</time>
      </trkpt>
      <trkpt lat="46.17676" lon="6.65394">
        <ele>1406</ele>
        <time>2022-07-31T08:13:35Z</time>
      </trkpt>
      <trkpt lat="46.17676" lon="6.65391">
        <ele>1406</ele>
        <time>2022-07-31T08:13:36Z</time>
      </trkpt>
      <trkpt lat="46.17676" lon="6.65388">
        <ele>1406</ele>
        <time>2022-07-31T08:13:37Z</time>
      </trkpt>
      <trkpt lat="46.17677" lon="6.65386">
        <ele>1406</ele>
        <time>2022-07-31T08:13:38Z</time>
      </trkpt>
      <trkpt lat="46.17677" lon="6.65384">
        <ele>1406</ele>
        <time>2022-07-31T08:13:39Z</time>
      </trkpt>
      <trkpt lat="46.17678" lon="6.65381">
        <ele>1405</ele>
        <time>2022-07-31T08:13:40Z</time>
      </trkpt>
      <trkpt lat="46.17678" lon="6.65379">
        <ele>1405</ele>
        <time>2022-07-31T08:13:41Z</time>
      </trkpt>
      <trkpt lat="46.17678" lon="6.65378">
        <ele>1405</ele>
        <time>2022-07-31T08:13:42Z</time>
      </trkpt>
      <trkpt lat="46.17677" lon="6.65377">
        <ele>1405</ele>
        <time>2022-07-31T08:13:43Z</time>
      </trkpt>
      <trkpt lat="46.17677" lon="6.65375">
        <ele>1404</ele>
        <time>2022-07-31T08:13:44Z</time>
      </trkpt>
      <trkpt lat="46.17677" lon="6.65372">
        <ele>1404</ele>
        <time>2022-07-31T08:13:45Z</time>
      </trkpt>
      <trkpt lat="46.17677" lon="6.6537">
        <ele>1404</ele>
        <time>2022-07-31T08:13:46Z</time>
      </trkpt>
      <trkpt lat="46.17677" lon="6.65368">
        <ele>1404</ele>
        <time>2022-07-31T08:13:47Z</time>
      </trkpt>
      <trkpt lat="46.17677" lon="6.65366">
        <ele>1404</ele>
        <time>2022-07-31T08:13:48Z</time>
      </trkpt>
      <trkpt lat="46.17677" lon="6.65364">
        <ele>1404</ele>
        <time>2022-07-31T08:13:49Z</time>
      </trkpt>
      <trkpt lat="46.17677" lon="6.65362">
        <ele>1403</ele>
        <time>2022-07-31T08:13:50Z</time>
      </trkpt>
      <trkpt lat="46.17677" lon="6.65361">
        <ele>1403</ele>
        <time>2022-07-31T08:13:51Z</time>
      </trkpt>
      <trkpt lat="46.17677" lon="6.65359">
        <ele>1403</ele>
        <time>2022-07-31T08:13:52Z</time>
      </trkpt>
      <trkpt lat="46.17677" lon="6.65358">
        <ele>1403</ele>
        <time>2022-07-31T08:13:53Z</time>
      </trkpt>
      <trkpt lat="46.17677" lon="6.65356">
        <ele>1403</ele>
        <time>2022-07-31T08:13:54Z</time>
      </trkpt>
      <trkpt lat="46.17677" lon="6.65355">
        <ele>1403</ele>
        <time>2022-07-31T08:13:55Z</time>
      </trkpt>
      <trkpt lat="46.17677" lon="6.65353">
        <ele>1403</ele>
        <time>2022-07-31T08:13:56Z</time>
      </trkpt>
      <trkpt lat="46.17677" lon="6.65352">
        <ele>1403</ele>
        <time>2022-07-31T08:13:57Z</time>
      </trkpt>
      <trkpt lat="46.17677" lon="6.65352">
        <ele>1403</ele>
        <time>2022-07-31T08:13:58Z</time>
      </trkpt>
      <trkpt lat="46.17677" lon="6.65351">
        <ele>1403</ele>
        <time>2022-07-31T08:13:59Z</time>
      </trkpt>
      <trkpt lat="46.17678" lon="6.65351">
        <ele>1403</ele>
        <time>2022-07-31T08:14:00Z</time>
      </trkpt>
      <trkpt lat="46.17679" lon="6.65352">
        <ele>1403</ele>
        <time>2022-07-31T08:14:01Z</time>
      </trkpt>
      <trkpt lat="46.17679" lon="6.65352">
        <ele>1403</ele>
        <time>2022-07-31T08:14:02Z</time>
      </trkpt>
      <trkpt lat="46.17679" lon="6.65352">
        <ele>1403</ele>
        <time>2022-07-31T08:14:03Z</time>
      </trkpt>
      <trkpt lat="46.17679" lon="6.65353">
        <ele>1403</ele>
        <time>2022-07-31T08:14:04Z</time>
      </trkpt>
      <trkpt lat="46.1768" lon="6.65353">
        <ele>1403</ele>
        <time>2022-07-31T08:14:05Z</time>
      </trkpt>
      <trkpt lat="46.17679" lon="6.65352">
        <ele>1403</ele>
        <time>2022-07-31T08:14:06Z</time>
      </trkpt>
      <trkpt lat="46.17679" lon="6.65351">
        <ele>1403</ele>
        <time>2022-07-31T08:14:07Z</time>
      </trkpt>
      <trkpt lat="46.17679" lon="6.65349">
        <ele>1403</ele>
        <time>2022-07-31T08:14:08Z</time>
      </trkpt>
      <trkpt lat="46.17679" lon="6.65348">
        <ele>1403</ele>
        <time>2022-07-31T08:14:09Z</time>
      </trkpt>
      <trkpt lat="46.17679" lon="6.65346">
        <ele>1403</ele>
        <time>2022-07-31T08:14:10Z</time>
      </trkpt>
      <trkpt lat="46.17679" lon="6.65346">
        <ele>1403</ele>
        <time>2022-07-31T08:14:11Z</time>
      </trkpt>
      <trkpt lat="46.1768" lon="6.65346">
        <ele>1403</ele>
        <time>2022-07-31T08:14:12Z</time>
      </trkpt>
      <trkpt lat="46.1768" lon="6.65346">
        <ele>1403</ele>
        <time>2022-07-31T08:14:13Z</time>
      </trkpt>
      <trkpt lat="46.1768" lon="6.65345">
        <ele>1403</ele>
        <time>2022-07-31T08:14:14Z</time>
      </trkpt>
      <trkpt lat="46.1768" lon="6.65344">
        <ele>1402</ele>
        <time>2022-07-31T08:14:15Z</time>
      </trkpt>
      <trkpt lat="46.1768" lon="6.65342">
        <ele>1402</ele>
        <time>2022-07-31T08:14:16Z</time>
      </trkpt>
      <trkpt lat="46.17679" lon="6.6534">
        <ele>1402</ele>
        <time>2022-07-31T08:14:17Z</time>
      </trkpt>
      <trkpt lat="46.17679" lon="6.65338">
        <ele>1402</ele>
        <time>2022-07-31T08:14:18Z</time>
      </trkpt>
      <trkpt lat="46.17679" lon="6.65337">
        <ele>1402</ele>
        <time>2022-07-31T08:14:19Z</time>
      </trkpt>
      <trkpt lat="46.17678" lon="6.65336">
        <ele>1401</ele>
        <time>2022-07-31T08:14:20Z</time>
      </trkpt>
      <trkpt lat="46.17678" lon="6.65335">
        <ele>1401</ele>
        <time>2022-07-31T08:14:21Z</time>
      </trkpt>
      <trkpt lat="46.17678" lon="6.65334">
        <ele>1401</ele>
        <time>2022-07-31T08:14:22Z</time>
      </trkpt>
      <trkpt lat="46.17678" lon="6.65333">
        <ele>1401</ele>
        <time>2022-07-31T08:14:23Z</time>
      </trkpt>
      <trkpt lat="46.17678" lon="6.65332">
        <ele>1401</ele>
        <time>2022-07-31T08:14:24Z</time>
      </trkpt>
      <trkpt lat="46.17677" lon="6.65331">
        <ele>1401</ele>
        <time>2022-07-31T08:14:25Z</time>
      </trkpt>
      <trkpt lat="46.17677" lon="6.6533">
        <ele>1400</ele>
        <time>2022-07-31T08:14:26Z</time>
      </trkpt>
      <trkpt lat="46.17677" lon="6.65329">
        <ele>1400</ele>
        <time>2022-07-31T08:14:27Z</time>
      </trkpt>
      <trkpt lat="46.17677" lon="6.65329">
        <ele>1400</ele>
        <time>2022-07-31T08:14:28Z</time>
      </trkpt>
      <trkpt lat="46.17676" lon="6.65328">
        <ele>1400</ele>
        <time>2022-07-31T08:14:29Z</time>
      </trkpt>
      <trkpt lat="46.17676" lon="6.65327">
        <ele>1400</ele>
        <time>2022-07-31T08:14:30Z</time>
      </trkpt>
      <trkpt lat="46.17676" lon="6.65326">
        <ele>1400</ele>
        <time>2022-07-31T08:14:31Z</time>
      </trkpt>
      <trkpt lat="46.17674" lon="6.65324">
        <ele>1400</ele>
        <time>2022-07-31T08:14:32Z</time>
      </trkpt>
      <trkpt lat="46.17673" lon="6.65323">
        <ele>1400</ele>
        <time>2022-07-31T08:14:33Z</time>
      </trkpt>
      <trkpt lat="46.17672" lon="6.65322">
        <ele>1400</ele>
        <time>2022-07-31T08:14:34Z</time>
      </trkpt>
      <trkpt lat="46.17672" lon="6.65321">
        <ele>1400</ele>
        <time>2022-07-31T08:14:35Z</time>
      </trkpt>
      <trkpt lat="46.17672" lon="6.65321">
        <ele>1400</ele>
        <time>2022-07-31T08:14:36Z</time>
      </trkpt>
      <trkpt lat="46.17672" lon="6.6532">
        <ele>1400</ele>
        <time>2022-07-31T08:14:37Z</time>
      </trkpt>
      <trkpt lat="46.17672" lon="6.65319">
        <ele>1400</ele>
        <time>2022-07-31T08:14:38Z</time>
      </trkpt>
      <trkpt lat="46.17672" lon="6.65318">
        <ele>1401</ele>
        <time>2022-07-31T08:14:39Z</time>
      </trkpt>
      <trkpt lat="46.17671" lon="6.65318">
        <ele>1401</ele>
        <time>2022-07-31T08:14:40Z</time>
      </trkpt>
      <trkpt lat="46.17671" lon="6.65317">
        <ele>1401</ele>
        <time>2022-07-31T08:14:41Z</time>
      </trkpt>
      <trkpt lat="46.1767" lon="6.65315">
        <ele>1401</ele>
        <time>2022-07-31T08:14:42Z</time>
      </trkpt>
      <trkpt lat="46.1767" lon="6.65315">
        <ele>1401</ele>
        <time>2022-07-31T08:14:43Z</time>
      </trkpt>
      <trkpt lat="46.17669" lon="6.65314">
        <ele>1401</ele>
        <time>2022-07-31T08:14:44Z</time>
      </trkpt>
      <trkpt lat="46.17668" lon="6.65314">
        <ele>1401</ele>
        <time>2022-07-31T08:14:45Z</time>
      </trkpt>
      <trkpt lat="46.17666" lon="6.65314">
        <ele>1401</ele>
        <time>2022-07-31T08:14:46Z</time>
      </trkpt>
      <trkpt lat="46.17665" lon="6.65314">
        <ele>1402</ele>
        <time>2022-07-31T08:14:47Z</time>
      </trkpt>
      <trkpt lat="46.17664" lon="6.65314">
        <ele>1402</ele>
        <time>2022-07-31T08:14:48Z</time>
      </trkpt>
      <trkpt lat="46.17664" lon="6.65313">
        <ele>1402</ele>
        <time>2022-07-31T08:14:49Z</time>
      </trkpt>
      <trkpt lat="46.17663" lon="6.65313">
        <ele>1402</ele>
        <time>2022-07-31T08:14:50Z</time>
      </trkpt>
      <trkpt lat="46.17662" lon="6.65313">
        <ele>1402</ele>
        <time>2022-07-31T08:14:51Z</time>
      </trkpt>
      <trkpt lat="46.17661" lon="6.65313">
        <ele>1402</ele>
        <time>2022-07-31T08:14:52Z</time>
      </trkpt>
      <trkpt lat="46.1766" lon="6.65312">
        <ele>1402</ele>
        <time>2022-07-31T08:14:53Z</time>
      </trkpt>
      <trkpt lat="46.1766" lon="6.65311">
        <ele>1403</ele>
        <time>2022-07-31T08:14:54Z</time>
      </trkpt>
      <trkpt lat="46.17659" lon="6.65311">
        <ele>1403</ele>
        <time>2022-07-31T08:14:55Z</time>
      </trkpt>
      <trkpt lat="46.17659" lon="6.6531">
        <ele>1403</ele>
        <time>2022-07-31T08:14:56Z</time>
      </trkpt>
      <trkpt lat="46.17658" lon="6.65309">
        <ele>1403</ele>
        <time>2022-07-31T08:14:57Z</time>
      </trkpt>
      <trkpt lat="46.17658" lon="6.65308">
        <ele>1403</ele>
        <time>2022-07-31T08:14:58Z</time>
      </trkpt>
      <trkpt lat="46.17657" lon="6.65307">
        <ele>1404</ele>
        <time>2022-07-31T08:14:59Z</time>
      </trkpt>
      <trkpt lat="46.17656" lon="6.65307">
        <ele>1404</ele>
        <time>2022-07-31T08:15:00Z</time>
      </trkpt>
      <trkpt lat="46.17656" lon="6.65306">
        <ele>1404</ele>
        <time>2022-07-31T08:15:01Z</time>
      </trkpt>
      <trkpt lat="46.17656" lon="6.65305">
        <ele>1404</ele>
        <time>2022-07-31T08:15:02Z</time>
      </trkpt>
      <trkpt lat="46.17655" lon="6.65305">
        <ele>1404</ele>
        <time>2022-07-31T08:15:03Z</time>
      </trkpt>
      <trkpt lat="46.17653" lon="6.65303">
        <ele>1404</ele>
        <time>2022-07-31T08:15:04Z</time>
      </trkpt>
      <trkpt lat="46.17652" lon="6.65303">
        <ele>1404</ele>
        <time>2022-07-31T08:15:05Z</time>
      </trkpt>
      <trkpt lat="46.1765" lon="6.65302">
        <ele>1405</ele>
        <time>2022-07-31T08:15:06Z</time>
      </trkpt>
      <trkpt lat="46.1765" lon="6.65302">
        <ele>1405</ele>
        <time>2022-07-31T08:15:07Z</time>
      </trkpt>
      <trkpt lat="46.1765" lon="6.65302">
        <ele>1405</ele>
        <time>2022-07-31T08:15:08Z</time>
      </trkpt>
      <trkpt lat="46.1765" lon="6.65301">
        <ele>1405</ele>
        <time>2022-07-31T08:15:09Z</time>
      </trkpt>
      <trkpt lat="46.17649" lon="6.653">
        <ele>1405</ele>
        <time>2022-07-31T08:15:10Z</time>
      </trkpt>
      <trkpt lat="46.17649" lon="6.653">
        <ele>1405</ele>
        <time>2022-07-31T08:15:11Z</time>
      </trkpt>
      <trkpt lat="46.17648" lon="6.653">
        <ele>1405</ele>
        <time>2022-07-31T08:15:12Z</time>
      </trkpt>
      <trkpt lat="46.17647" lon="6.653">
        <ele>1405</ele>
        <time>2022-07-31T08:15:13Z</time>
      </trkpt>
      <trkpt lat="46.17647" lon="6.653">
        <ele>1405</ele>
        <time>2022-07-31T08:15:14Z</time>
      </trkpt>
      <trkpt lat="46.17647" lon="6.653">
        <ele>1405</ele>
        <time>2022-07-31T08:15:15Z</time>
      </trkpt>
      <trkpt lat="46.17647" lon="6.65301">
        <ele>1405</ele>
        <time>2022-07-31T08:15:16Z</time>
      </trkpt>
      <trkpt lat="46.17646" lon="6.653">
        <ele>1405</ele>
        <time>2022-07-31T08:15:17Z</time>
      </trkpt>
      <trkpt lat="46.17645" lon="6.653">
        <ele>1405</ele>
        <time>2022-07-31T08:15:18Z</time>
      </trkpt>
      <trkpt lat="46.17645" lon="6.653">
        <ele>1405</ele>
        <time>2022-07-31T08:15:19Z</time>
      </trkpt>
      <trkpt lat="46.17645" lon="6.65299">
        <ele>1405</ele>
        <time>2022-07-31T08:15:20Z</time>
      </trkpt>
      <trkpt lat="46.17644" lon="6.65298">
        <ele>1406</ele>
        <time>2022-07-31T08:15:21Z</time>
      </trkpt>
      <trkpt lat="46.17644" lon="6.65298">
        <ele>1406</ele>
        <time>2022-07-31T08:15:22Z</time>
      </trkpt>
      <trkpt lat="46.17644" lon="6.65297">
        <ele>1406</ele>
        <time>2022-07-31T08:15:23Z</time>
      </trkpt>
      <trkpt lat="46.17642" lon="6.65296">
        <ele>1406</ele>
        <time>2022-07-31T08:15:24Z</time>
      </trkpt>
      <trkpt lat="46.17642" lon="6.65295">
        <ele>1406</ele>
        <time>2022-07-31T08:15:25Z</time>
      </trkpt>
      <trkpt lat="46.17642" lon="6.65295">
        <ele>1406</ele>
        <time>2022-07-31T08:15:26Z</time>
      </trkpt>
      <trkpt lat="46.17641" lon="6.65293">
        <ele>1406</ele>
        <time>2022-07-31T08:15:27Z</time>
      </trkpt>
      <trkpt lat="46.17641" lon="6.65293">
        <ele>1406</ele>
        <time>2022-07-31T08:15:28Z</time>
      </trkpt>
      <trkpt lat="46.17641" lon="6.65292">
        <ele>1406</ele>
        <time>2022-07-31T08:15:29Z</time>
      </trkpt>
      <trkpt lat="46.17638" lon="6.65292">
        <ele>1406</ele>
        <time>2022-07-31T08:15:30Z</time>
      </trkpt>
      <trkpt lat="46.17637" lon="6.65292">
        <ele>1405</ele>
        <time>2022-07-31T08:15:31Z</time>
      </trkpt>
      <trkpt lat="46.17635" lon="6.65292">
        <ele>1405</ele>
        <time>2022-07-31T08:15:32Z</time>
      </trkpt>
      <trkpt lat="46.17633" lon="6.65293">
        <ele>1405</ele>
        <time>2022-07-31T08:15:33Z</time>
      </trkpt>
      <trkpt lat="46.17633" lon="6.65294">
        <ele>1405</ele>
        <time>2022-07-31T08:15:34Z</time>
      </trkpt>
      <trkpt lat="46.17633" lon="6.65296">
        <ele>1405</ele>
        <time>2022-07-31T08:15:35Z</time>
      </trkpt>
      <trkpt lat="46.17631" lon="6.65297">
        <ele>1405</ele>
        <time>2022-07-31T08:15:36Z</time>
      </trkpt>
      <trkpt lat="46.17631" lon="6.65297">
        <ele>1405</ele>
        <time>2022-07-31T08:15:37Z</time>
      </trkpt>
      <trkpt lat="46.1763" lon="6.65298">
        <ele>1405</ele>
        <time>2022-07-31T08:15:38Z</time>
      </trkpt>
      <trkpt lat="46.1763" lon="6.65301">
        <ele>1405</ele>
        <time>2022-07-31T08:15:39Z</time>
      </trkpt>
      <trkpt lat="46.1763" lon="6.65302">
        <ele>1405</ele>
        <time>2022-07-31T08:15:40Z</time>
      </trkpt>
      <trkpt lat="46.17628" lon="6.65303">
        <ele>1405</ele>
        <time>2022-07-31T08:15:41Z</time>
      </trkpt>
      <trkpt lat="46.17627" lon="6.65304">
        <ele>1405</ele>
        <time>2022-07-31T08:15:42Z</time>
      </trkpt>
      <trkpt lat="46.17627" lon="6.65306">
        <ele>1405</ele>
        <time>2022-07-31T08:15:43Z</time>
      </trkpt>
      <trkpt lat="46.17625" lon="6.65306">
        <ele>1405</ele>
        <time>2022-07-31T08:15:44Z</time>
      </trkpt>
      <trkpt lat="46.17623" lon="6.65308">
        <ele>1405</ele>
        <time>2022-07-31T08:15:45Z</time>
      </trkpt>
      <trkpt lat="46.17622" lon="6.65308">
        <ele>1405</ele>
        <time>2022-07-31T08:15:46Z</time>
      </trkpt>
      <trkpt lat="46.17621" lon="6.65307">
        <ele>1406</ele>
        <time>2022-07-31T08:15:47Z</time>
      </trkpt>
      <trkpt lat="46.17621" lon="6.65306">
        <ele>1406</ele>
        <time>2022-07-31T08:15:48Z</time>
      </trkpt>
      <trkpt lat="46.1762" lon="6.65305">
        <ele>1406</ele>
        <time>2022-07-31T08:15:49Z</time>
      </trkpt>
      <trkpt lat="46.1762" lon="6.65304">
        <ele>1406</ele>
        <time>2022-07-31T08:15:50Z</time>
      </trkpt>
      <trkpt lat="46.17619" lon="6.65304">
        <ele>1406</ele>
        <time>2022-07-31T08:15:51Z</time>
      </trkpt>
      <trkpt lat="46.17618" lon="6.65304">
        <ele>1407</ele>
        <time>2022-07-31T08:15:52Z</time>
      </trkpt>
      <trkpt lat="46.17618" lon="6.65303">
        <ele>1407</ele>
        <time>2022-07-31T08:15:53Z</time>
      </trkpt>
      <trkpt lat="46.17616" lon="6.65302">
        <ele>1407</ele>
        <time>2022-07-31T08:15:54Z</time>
      </trkpt>
      <trkpt lat="46.17615" lon="6.653">
        <ele>1407</ele>
        <time>2022-07-31T08:15:55Z</time>
      </trkpt>
      <trkpt lat="46.17614" lon="6.65299">
        <ele>1408</ele>
        <time>2022-07-31T08:15:56Z</time>
      </trkpt>
      <trkpt lat="46.17613" lon="6.65298">
        <ele>1408</ele>
        <time>2022-07-31T08:15:57Z</time>
      </trkpt>
      <trkpt lat="46.17612" lon="6.65296">
        <ele>1408</ele>
        <time>2022-07-31T08:15:58Z</time>
      </trkpt>
      <trkpt lat="46.1761" lon="6.65296">
        <ele>1408</ele>
        <time>2022-07-31T08:15:59Z</time>
      </trkpt>
      <trkpt lat="46.17609" lon="6.65294">
        <ele>1408</ele>
        <time>2022-07-31T08:16:00Z</time>
      </trkpt>
      <trkpt lat="46.17609" lon="6.65293">
        <ele>1409</ele>
        <time>2022-07-31T08:16:01Z</time>
      </trkpt>
      <trkpt lat="46.17608" lon="6.65291">
        <ele>1409</ele>
        <time>2022-07-31T08:16:02Z</time>
      </trkpt>
      <trkpt lat="46.17607" lon="6.65289">
        <ele>1409</ele>
        <time>2022-07-31T08:16:03Z</time>
      </trkpt>
      <trkpt lat="46.17607" lon="6.65287">
        <ele>1409</ele>
        <time>2022-07-31T08:16:04Z</time>
      </trkpt>
      <trkpt lat="46.17606" lon="6.65285">
        <ele>1409</ele>
        <time>2022-07-31T08:16:05Z</time>
      </trkpt>
      <trkpt lat="46.17606" lon="6.65283">
        <ele>1409</ele>
        <time>2022-07-31T08:16:06Z</time>
      </trkpt>
      <trkpt lat="46.17606" lon="6.65281">
        <ele>1410</ele>
        <time>2022-07-31T08:16:07Z</time>
      </trkpt>
      <trkpt lat="46.17605" lon="6.65278">
        <ele>1410</ele>
        <time>2022-07-31T08:16:08Z</time>
      </trkpt>
      <trkpt lat="46.17605" lon="6.65273">
        <ele>1410</ele>
        <time>2022-07-31T08:16:09Z</time>
      </trkpt>
      <trkpt lat="46.17604" lon="6.6527">
        <ele>1410</ele>
        <time>2022-07-31T08:16:10Z</time>
      </trkpt>
      <trkpt lat="46.17603" lon="6.65267">
        <ele>1410</ele>
        <time>2022-07-31T08:16:11Z</time>
      </trkpt>
      <trkpt lat="46.176" lon="6.65265">
        <ele>1410</ele>
        <time>2022-07-31T08:16:12Z</time>
      </trkpt>
      <trkpt lat="46.176" lon="6.65262">
        <ele>1411</ele>
        <time>2022-07-31T08:16:13Z</time>
      </trkpt>
      <trkpt lat="46.17599" lon="6.6526">
        <ele>1411</ele>
        <time>2022-07-31T08:16:14Z</time>
      </trkpt>
      <trkpt lat="46.17598" lon="6.65259">
        <ele>1411</ele>
        <time>2022-07-31T08:16:15Z</time>
      </trkpt>
      <trkpt lat="46.17597" lon="6.65259">
        <ele>1411</ele>
        <time>2022-07-31T08:16:16Z</time>
      </trkpt>
      <trkpt lat="46.17594" lon="6.65258">
        <ele>1411</ele>
        <time>2022-07-31T08:16:17Z</time>
      </trkpt>
      <trkpt lat="46.17593" lon="6.65257">
        <ele>1411</ele>
        <time>2022-07-31T08:16:18Z</time>
      </trkpt>
      <trkpt lat="46.1759" lon="6.65254">
        <ele>1412</ele>
        <time>2022-07-31T08:16:19Z</time>
      </trkpt>
      <trkpt lat="46.17588" lon="6.65253">
        <ele>1412</ele>
        <time>2022-07-31T08:16:20Z</time>
      </trkpt>
      <trkpt lat="46.17586" lon="6.65253">
        <ele>1412</ele>
        <time>2022-07-31T08:16:21Z</time>
      </trkpt>
      <trkpt lat="46.17585" lon="6.65252">
        <ele>1412</ele>
        <time>2022-07-31T08:16:22Z</time>
      </trkpt>
      <trkpt lat="46.17584" lon="6.65251">
        <ele>1412</ele>
        <time>2022-07-31T08:16:23Z</time>
      </trkpt>
      <trkpt lat="46.17583" lon="6.65251">
        <ele>1412</ele>
        <time>2022-07-31T08:16:24Z</time>
      </trkpt>
      <trkpt lat="46.17583" lon="6.65252">
        <ele>1412</ele>
        <time>2022-07-31T08:16:25Z</time>
      </trkpt>
      <trkpt lat="46.17582" lon="6.65251">
        <ele>1412</ele>
        <time>2022-07-31T08:16:26Z</time>
      </trkpt>
      <trkpt lat="46.1758" lon="6.65251">
        <ele>1412</ele>
        <time>2022-07-31T08:16:27Z</time>
      </trkpt>
      <trkpt lat="46.1758" lon="6.65251">
        <ele>1412</ele>
        <time>2022-07-31T08:16:28Z</time>
      </trkpt>
      <trkpt lat="46.17581" lon="6.65252">
        <ele>1412</ele>
        <time>2022-07-31T08:16:29Z</time>
      </trkpt>
      <trkpt lat="46.17581" lon="6.65251">
        <ele>1412</ele>
        <time>2022-07-31T08:16:30Z</time>
      </trkpt>
      <trkpt lat="46.1758" lon="6.65251">
        <ele>1412</ele>
        <time>2022-07-31T08:16:31Z</time>
      </trkpt>
      <trkpt lat="46.17578" lon="6.65251">
        <ele>1412</ele>
        <time>2022-07-31T08:16:32Z</time>
      </trkpt>
      <trkpt lat="46.17578" lon="6.65251">
        <ele>1413</ele>
        <time>2022-07-31T08:16:33Z</time>
      </trkpt>
      <trkpt lat="46.17578" lon="6.65249">
        <ele>1413</ele>
        <time>2022-07-31T08:16:34Z</time>
      </trkpt>
      <trkpt lat="46.17577" lon="6.65247">
        <ele>1413</ele>
        <time>2022-07-31T08:16:35Z</time>
      </trkpt>
      <trkpt lat="46.17576" lon="6.65245">
        <ele>1413</ele>
        <time>2022-07-31T08:16:36Z</time>
      </trkpt>
      <trkpt lat="46.17575" lon="6.65243">
        <ele>1413</ele>
        <time>2022-07-31T08:16:37Z</time>
      </trkpt>
      <trkpt lat="46.17574" lon="6.65241">
        <ele>1414</ele>
        <time>2022-07-31T08:16:38Z</time>
      </trkpt>
      <trkpt lat="46.17573" lon="6.6524">
        <ele>1414</ele>
        <time>2022-07-31T08:16:39Z</time>
      </trkpt>
      <trkpt lat="46.17572" lon="6.65239">
        <ele>1414</ele>
        <time>2022-07-31T08:16:40Z</time>
      </trkpt>
      <trkpt lat="46.17571" lon="6.65239">
        <ele>1415</ele>
        <time>2022-07-31T08:16:41Z</time>
      </trkpt>
      <trkpt lat="46.1757" lon="6.65237">
        <ele>1415</ele>
        <time>2022-07-31T08:16:42Z</time>
      </trkpt>
      <trkpt lat="46.1757" lon="6.65236">
        <ele>1415</ele>
        <time>2022-07-31T08:16:43Z</time>
      </trkpt>
      <trkpt lat="46.17569" lon="6.65235">
        <ele>1415</ele>
        <time>2022-07-31T08:16:44Z</time>
      </trkpt>
      <trkpt lat="46.17569" lon="6.65235">
        <ele>1416</ele>
        <time>2022-07-31T08:16:45Z</time>
      </trkpt>
      <trkpt lat="46.17568" lon="6.65234">
        <ele>1416</ele>
        <time>2022-07-31T08:16:46Z</time>
      </trkpt>
      <trkpt lat="46.17567" lon="6.65234">
        <ele>1416</ele>
        <time>2022-07-31T08:16:47Z</time>
      </trkpt>
      <trkpt lat="46.17566" lon="6.65235">
        <ele>1416</ele>
        <time>2022-07-31T08:16:48Z</time>
      </trkpt>
      <trkpt lat="46.17565" lon="6.65234">
        <ele>1416</ele>
        <time>2022-07-31T08:16:49Z</time>
      </trkpt>
      <trkpt lat="46.17564" lon="6.65234">
        <ele>1417</ele>
        <time>2022-07-31T08:16:50Z</time>
      </trkpt>
      <trkpt lat="46.17564" lon="6.65233">
        <ele>1417</ele>
        <time>2022-07-31T08:16:51Z</time>
      </trkpt>
      <trkpt lat="46.17564" lon="6.65233">
        <ele>1417</ele>
        <time>2022-07-31T08:16:52Z</time>
      </trkpt>
      <trkpt lat="46.17563" lon="6.65232">
        <ele>1417</ele>
        <time>2022-07-31T08:16:53Z</time>
      </trkpt>
      <trkpt lat="46.17563" lon="6.65231">
        <ele>1417</ele>
        <time>2022-07-31T08:16:54Z</time>
      </trkpt>
      <trkpt lat="46.17563" lon="6.6523">
        <ele>1417</ele>
        <time>2022-07-31T08:16:55Z</time>
      </trkpt>
      <trkpt lat="46.17563" lon="6.65228">
        <ele>1417</ele>
        <time>2022-07-31T08:16:56Z</time>
      </trkpt>
      <trkpt lat="46.17561" lon="6.65227">
        <ele>1417</ele>
        <time>2022-07-31T08:16:57Z</time>
      </trkpt>
      <trkpt lat="46.17561" lon="6.65226">
        <ele>1416</ele>
        <time>2022-07-31T08:16:58Z</time>
      </trkpt>
      <trkpt lat="46.1756" lon="6.65226">
        <ele>1416</ele>
        <time>2022-07-31T08:16:59Z</time>
      </trkpt>
      <trkpt lat="46.17559" lon="6.65226">
        <ele>1416</ele>
        <time>2022-07-31T08:17:00Z</time>
      </trkpt>
      <trkpt lat="46.17557" lon="6.65225">
        <ele>1416</ele>
        <time>2022-07-31T08:17:01Z</time>
      </trkpt>
      <trkpt lat="46.17556" lon="6.65226">
        <ele>1416</ele>
        <time>2022-07-31T08:17:02Z</time>
      </trkpt>
      <trkpt lat="46.17555" lon="6.65225">
        <ele>1416</ele>
        <time>2022-07-31T08:17:03Z</time>
      </trkpt>
      <trkpt lat="46.17554" lon="6.65224">
        <ele>1417</ele>
        <time>2022-07-31T08:17:04Z</time>
      </trkpt>
      <trkpt lat="46.17554" lon="6.65222">
        <ele>1417</ele>
        <time>2022-07-31T08:17:05Z</time>
      </trkpt>
      <trkpt lat="46.17553" lon="6.65219">
        <ele>1417</ele>
        <time>2022-07-31T08:17:06Z</time>
      </trkpt>
      <trkpt lat="46.17553" lon="6.65217">
        <ele>1417</ele>
        <time>2022-07-31T08:17:07Z</time>
      </trkpt>
      <trkpt lat="46.17551" lon="6.65215">
        <ele>1417</ele>
        <time>2022-07-31T08:17:08Z</time>
      </trkpt>
      <trkpt lat="46.17549" lon="6.65213">
        <ele>1417</ele>
        <time>2022-07-31T08:17:09Z</time>
      </trkpt>
      <trkpt lat="46.17549" lon="6.65211">
        <ele>1417</ele>
        <time>2022-07-31T08:17:10Z</time>
      </trkpt>
      <trkpt lat="46.17548" lon="6.65209">
        <ele>1417</ele>
        <time>2022-07-31T08:17:11Z</time>
      </trkpt>
      <trkpt lat="46.17547" lon="6.65208">
        <ele>1418</ele>
        <time>2022-07-31T08:17:12Z</time>
      </trkpt>
      <trkpt lat="46.17547" lon="6.65206">
        <ele>1418</ele>
        <time>2022-07-31T08:17:13Z</time>
      </trkpt>
      <trkpt lat="46.17547" lon="6.65204">
        <ele>1418</ele>
        <time>2022-07-31T08:17:14Z</time>
      </trkpt>
      <trkpt lat="46.17545" lon="6.65203">
        <ele>1418</ele>
        <time>2022-07-31T08:17:15Z</time>
      </trkpt>
      <trkpt lat="46.17544" lon="6.65202">
        <ele>1418</ele>
        <time>2022-07-31T08:17:16Z</time>
      </trkpt>
      <trkpt lat="46.17544" lon="6.65202">
        <ele>1418</ele>
        <time>2022-07-31T08:17:17Z</time>
      </trkpt>
      <trkpt lat="46.17544" lon="6.652">
        <ele>1418</ele>
        <time>2022-07-31T08:17:18Z</time>
      </trkpt>
      <trkpt lat="46.17542" lon="6.652">
        <ele>1418</ele>
        <time>2022-07-31T08:17:19Z</time>
      </trkpt>
      <trkpt lat="46.1754" lon="6.65199">
        <ele>1418</ele>
        <time>2022-07-31T08:17:20Z</time>
      </trkpt>
      <trkpt lat="46.1754" lon="6.65199">
        <ele>1418</ele>
        <time>2022-07-31T08:17:21Z</time>
      </trkpt>
      <trkpt lat="46.1754" lon="6.65199">
        <ele>1418</ele>
        <time>2022-07-31T08:17:22Z</time>
      </trkpt>
      <trkpt lat="46.17539" lon="6.65198">
        <ele>1418</ele>
        <time>2022-07-31T08:17:23Z</time>
      </trkpt>
      <trkpt lat="46.17538" lon="6.65197">
        <ele>1418</ele>
        <time>2022-07-31T08:17:24Z</time>
      </trkpt>
      <trkpt lat="46.17537" lon="6.65196">
        <ele>1418</ele>
        <time>2022-07-31T08:17:25Z</time>
      </trkpt>
      <trkpt lat="46.17535" lon="6.65196">
        <ele>1418</ele>
        <time>2022-07-31T08:17:26Z</time>
      </trkpt>
      <trkpt lat="46.17535" lon="6.65195">
        <ele>1419</ele>
        <time>2022-07-31T08:17:27Z</time>
      </trkpt>
      <trkpt lat="46.17534" lon="6.65193">
        <ele>1419</ele>
        <time>2022-07-31T08:17:28Z</time>
      </trkpt>
      <trkpt lat="46.17531" lon="6.65193">
        <ele>1419</ele>
        <time>2022-07-31T08:17:29Z</time>
      </trkpt>
      <trkpt lat="46.17526" lon="6.65194">
        <ele>1419</ele>
        <time>2022-07-31T08:17:30Z</time>
      </trkpt>
      <trkpt lat="46.17523" lon="6.65194">
        <ele>1418</ele>
        <time>2022-07-31T08:17:31Z</time>
      </trkpt>
      <trkpt lat="46.17522" lon="6.65194">
        <ele>1418</ele>
        <time>2022-07-31T08:17:32Z</time>
      </trkpt>
      <trkpt lat="46.17518" lon="6.65194">
        <ele>1418</ele>
        <time>2022-07-31T08:17:33Z</time>
      </trkpt>
      <trkpt lat="46.17515" lon="6.65196">
        <ele>1418</ele>
        <time>2022-07-31T08:17:34Z</time>
      </trkpt>
      <trkpt lat="46.17512" lon="6.65196">
        <ele>1418</ele>
        <time>2022-07-31T08:17:35Z</time>
      </trkpt>
      <trkpt lat="46.17509" lon="6.65196">
        <ele>1417</ele>
        <time>2022-07-31T08:17:36Z</time>
      </trkpt>
      <trkpt lat="46.17507" lon="6.65194">
        <ele>1417</ele>
        <time>2022-07-31T08:17:37Z</time>
      </trkpt>
      <trkpt lat="46.17505" lon="6.65193">
        <ele>1417</ele>
        <time>2022-07-31T08:17:38Z</time>
      </trkpt>
      <trkpt lat="46.17503" lon="6.65191">
        <ele>1416</ele>
        <time>2022-07-31T08:17:39Z</time>
      </trkpt>
      <trkpt lat="46.17501" lon="6.6519">
        <ele>1416</ele>
        <time>2022-07-31T08:17:40Z</time>
      </trkpt>
      <trkpt lat="46.17499" lon="6.6519">
        <ele>1416</ele>
        <time>2022-07-31T08:17:41Z</time>
      </trkpt>
      <trkpt lat="46.17497" lon="6.6519">
        <ele>1416</ele>
        <time>2022-07-31T08:17:42Z</time>
      </trkpt>
      <trkpt lat="46.17496" lon="6.6519">
        <ele>1415</ele>
        <time>2022-07-31T08:17:43Z</time>
      </trkpt>
      <trkpt lat="46.17496" lon="6.65189">
        <ele>1415</ele>
        <time>2022-07-31T08:17:44Z</time>
      </trkpt>
      <trkpt lat="46.17495" lon="6.65188">
        <ele>1415</ele>
        <time>2022-07-31T08:17:45Z</time>
      </trkpt>
      <trkpt lat="46.17495" lon="6.65187">
        <ele>1415</ele>
        <time>2022-07-31T08:17:46Z</time>
      </trkpt>
      <trkpt lat="46.17496" lon="6.65185">
        <ele>1414</ele>
        <time>2022-07-31T08:17:47Z</time>
      </trkpt>
      <trkpt lat="46.17497" lon="6.65183">
        <ele>1414</ele>
        <time>2022-07-31T08:17:48Z</time>
      </trkpt>
      <trkpt lat="46.17497" lon="6.65181">
        <ele>1414</ele>
        <time>2022-07-31T08:17:49Z</time>
      </trkpt>
      <trkpt lat="46.17497" lon="6.65181">
        <ele>1414</ele>
        <time>2022-07-31T08:17:50Z</time>
      </trkpt>
      <trkpt lat="46.17498" lon="6.6518">
        <ele>1414</ele>
        <time>2022-07-31T08:17:51Z</time>
      </trkpt>
      <trkpt lat="46.17498" lon="6.65179">
        <ele>1413</ele>
        <time>2022-07-31T08:17:52Z</time>
      </trkpt>
      <trkpt lat="46.175" lon="6.65178">
        <ele>1413</ele>
        <time>2022-07-31T08:17:53Z</time>
      </trkpt>
      <trkpt lat="46.175" lon="6.65176">
        <ele>1413</ele>
        <time>2022-07-31T08:17:54Z</time>
      </trkpt>
      <trkpt lat="46.17501" lon="6.65175">
        <ele>1413</ele>
        <time>2022-07-31T08:17:55Z</time>
      </trkpt>
      <trkpt lat="46.17502" lon="6.65173">
        <ele>1413</ele>
        <time>2022-07-31T08:17:56Z</time>
      </trkpt>
      <trkpt lat="46.17502" lon="6.65171">
        <ele>1412</ele>
        <time>2022-07-31T08:17:57Z</time>
      </trkpt>
      <trkpt lat="46.17502" lon="6.65171">
        <ele>1412</ele>
        <time>2022-07-31T08:17:58Z</time>
      </trkpt>
      <trkpt lat="46.17502" lon="6.6517">
        <ele>1412</ele>
        <time>2022-07-31T08:17:59Z</time>
      </trkpt>
      <trkpt lat="46.17502" lon="6.65169">
        <ele>1412</ele>
        <time>2022-07-31T08:18:00Z</time>
      </trkpt>
      <trkpt lat="46.17501" lon="6.65168">
        <ele>1412</ele>
        <time>2022-07-31T08:18:01Z</time>
      </trkpt>
      <trkpt lat="46.17501" lon="6.65167">
        <ele>1412</ele>
        <time>2022-07-31T08:18:02Z</time>
      </trkpt>
      <trkpt lat="46.175" lon="6.65166">
        <ele>1412</ele>
        <time>2022-07-31T08:18:03Z</time>
      </trkpt>
      <trkpt lat="46.175" lon="6.65165">
        <ele>1412</ele>
        <time>2022-07-31T08:18:04Z</time>
      </trkpt>
      <trkpt lat="46.17501" lon="6.65164">
        <ele>1412</ele>
        <time>2022-07-31T08:18:05Z</time>
      </trkpt>
      <trkpt lat="46.17501" lon="6.65163">
        <ele>1413</ele>
        <time>2022-07-31T08:18:06Z</time>
      </trkpt>
      <trkpt lat="46.17502" lon="6.65162">
        <ele>1413</ele>
        <time>2022-07-31T08:18:07Z</time>
      </trkpt>
      <trkpt lat="46.17501" lon="6.65161">
        <ele>1413</ele>
        <time>2022-07-31T08:18:08Z</time>
      </trkpt>
      <trkpt lat="46.17502" lon="6.65159">
        <ele>1413</ele>
        <time>2022-07-31T08:18:09Z</time>
      </trkpt>
      <trkpt lat="46.17502" lon="6.65158">
        <ele>1413</ele>
        <time>2022-07-31T08:18:10Z</time>
      </trkpt>
      <trkpt lat="46.17502" lon="6.65158">
        <ele>1414</ele>
        <time>2022-07-31T08:18:11Z</time>
      </trkpt>
      <trkpt lat="46.17502" lon="6.65157">
        <ele>1414</ele>
        <time>2022-07-31T08:18:12Z</time>
      </trkpt>
      <trkpt lat="46.17503" lon="6.65156">
        <ele>1414</ele>
        <time>2022-07-31T08:18:13Z</time>
      </trkpt>
      <trkpt lat="46.17503" lon="6.65155">
        <ele>1414</ele>
        <time>2022-07-31T08:18:14Z</time>
      </trkpt>
      <trkpt lat="46.17503" lon="6.65154">
        <ele>1414</ele>
        <time>2022-07-31T08:18:15Z</time>
      </trkpt>
      <trkpt lat="46.17503" lon="6.65153">
        <ele>1415</ele>
        <time>2022-07-31T08:18:16Z</time>
      </trkpt>
      <trkpt lat="46.17503" lon="6.65151">
        <ele>1415</ele>
        <time>2022-07-31T08:18:17Z</time>
      </trkpt>
      <trkpt lat="46.17503" lon="6.6515">
        <ele>1415</ele>
        <time>2022-07-31T08:18:18Z</time>
      </trkpt>
      <trkpt lat="46.17503" lon="6.65148">
        <ele>1415</ele>
        <time>2022-07-31T08:18:19Z</time>
      </trkpt>
      <trkpt lat="46.17502" lon="6.65147">
        <ele>1416</ele>
        <time>2022-07-31T08:18:20Z</time>
      </trkpt>
      <trkpt lat="46.17502" lon="6.65147">
        <ele>1416</ele>
        <time>2022-07-31T08:18:21Z</time>
      </trkpt>
      <trkpt lat="46.17502" lon="6.65145">
        <ele>1416</ele>
        <time>2022-07-31T08:18:22Z</time>
      </trkpt>
      <trkpt lat="46.17501" lon="6.65144">
        <ele>1416</ele>
        <time>2022-07-31T08:18:23Z</time>
      </trkpt>
      <trkpt lat="46.17501" lon="6.65144">
        <ele>1417</ele>
        <time>2022-07-31T08:18:24Z</time>
      </trkpt>
      <trkpt lat="46.17501" lon="6.65142">
        <ele>1417</ele>
        <time>2022-07-31T08:18:25Z</time>
      </trkpt>
      <trkpt lat="46.175" lon="6.65141">
        <ele>1417</ele>
        <time>2022-07-31T08:18:26Z</time>
      </trkpt>
      <trkpt lat="46.175" lon="6.6514">
        <ele>1417</ele>
        <time>2022-07-31T08:18:27Z</time>
      </trkpt>
      <trkpt lat="46.175" lon="6.65139">
        <ele>1418</ele>
        <time>2022-07-31T08:18:28Z</time>
      </trkpt>
      <trkpt lat="46.175" lon="6.65138">
        <ele>1418</ele>
        <time>2022-07-31T08:18:29Z</time>
      </trkpt>
      <trkpt lat="46.175" lon="6.65137">
        <ele>1418</ele>
        <time>2022-07-31T08:18:30Z</time>
      </trkpt>
      <trkpt lat="46.175" lon="6.65136">
        <ele>1418</ele>
        <time>2022-07-31T08:18:31Z</time>
      </trkpt>
      <trkpt lat="46.175" lon="6.65135">
        <ele>1419</ele>
        <time>2022-07-31T08:18:32Z</time>
      </trkpt>
      <trkpt lat="46.175" lon="6.65134">
        <ele>1419</ele>
        <time>2022-07-31T08:18:33Z</time>
      </trkpt>
      <trkpt lat="46.175" lon="6.65133">
        <ele>1419</ele>
        <time>2022-07-31T08:18:34Z</time>
      </trkpt>
      <trkpt lat="46.175" lon="6.65132">
        <ele>1419</ele>
        <time>2022-07-31T08:18:35Z</time>
      </trkpt>
      <trkpt lat="46.175" lon="6.65131">
        <ele>1420</ele>
        <time>2022-07-31T08:18:36Z</time>
      </trkpt>
      <trkpt lat="46.175" lon="6.6513">
        <ele>1420</ele>
        <time>2022-07-31T08:18:37Z</time>
      </trkpt>
      <trkpt lat="46.17498" lon="6.65129">
        <ele>1420</ele>
        <time>2022-07-31T08:18:38Z</time>
      </trkpt>
      <trkpt lat="46.17498" lon="6.65128">
        <ele>1420</ele>
        <time>2022-07-31T08:18:39Z</time>
      </trkpt>
      <trkpt lat="46.17498" lon="6.65127">
        <ele>1420</ele>
        <time>2022-07-31T08:18:40Z</time>
      </trkpt>
      <trkpt lat="46.17498" lon="6.65125">
        <ele>1420</ele>
        <time>2022-07-31T08:18:41Z</time>
      </trkpt>
      <trkpt lat="46.175" lon="6.65124">
        <ele>1421</ele>
        <time>2022-07-31T08:18:42Z</time>
      </trkpt>
      <trkpt lat="46.175" lon="6.65124">
        <ele>1421</ele>
        <time>2022-07-31T08:18:43Z</time>
      </trkpt>
      <trkpt lat="46.175" lon="6.65124">
        <ele>1421</ele>
        <time>2022-07-31T08:18:44Z</time>
      </trkpt>
      <trkpt lat="46.175" lon="6.65123">
        <ele>1421</ele>
        <time>2022-07-31T08:18:45Z</time>
      </trkpt>
      <trkpt lat="46.175" lon="6.65122">
        <ele>1421</ele>
        <time>2022-07-31T08:18:46Z</time>
      </trkpt>
      <trkpt lat="46.17501" lon="6.65122">
        <ele>1421</ele>
        <time>2022-07-31T08:18:47Z</time>
      </trkpt>
      <trkpt lat="46.17502" lon="6.65122">
        <ele>1421</ele>
        <time>2022-07-31T08:18:48Z</time>
      </trkpt>
      <trkpt lat="46.17502" lon="6.65122">
        <ele>1421</ele>
        <time>2022-07-31T08:18:49Z</time>
      </trkpt>
      <trkpt lat="46.17501" lon="6.65122">
        <ele>1422</ele>
        <time>2022-07-31T08:18:50Z</time>
      </trkpt>
      <trkpt lat="46.17501" lon="6.65122">
        <ele>1422</ele>
        <time>2022-07-31T08:18:51Z</time>
      </trkpt>
      <trkpt lat="46.17501" lon="6.65121">
        <ele>1422</ele>
        <time>2022-07-31T08:18:52Z</time>
      </trkpt>
      <trkpt lat="46.17501" lon="6.65122">
        <ele>1422</ele>
        <time>2022-07-31T08:18:53Z</time>
      </trkpt>
      <trkpt lat="46.17501" lon="6.65122">
        <ele>1422</ele>
        <time>2022-07-31T08:18:54Z</time>
      </trkpt>
      <trkpt lat="46.17501" lon="6.65121">
        <ele>1422</ele>
        <time>2022-07-31T08:18:55Z</time>
      </trkpt>
      <trkpt lat="46.17502" lon="6.65121">
        <ele>1422</ele>
        <time>2022-07-31T08:18:56Z</time>
      </trkpt>
      <trkpt lat="46.17502" lon="6.65121">
        <ele>1422</ele>
        <time>2022-07-31T08:18:57Z</time>
      </trkpt>
      <trkpt lat="46.17502" lon="6.6512">
        <ele>1422</ele>
        <time>2022-07-31T08:18:58Z</time>
      </trkpt>
      <trkpt lat="46.17503" lon="6.65119">
        <ele>1422</ele>
        <time>2022-07-31T08:18:59Z</time>
      </trkpt>
      <trkpt lat="46.17502" lon="6.65119">
        <ele>1422</ele>
        <time>2022-07-31T08:19:00Z</time>
      </trkpt>
      <trkpt lat="46.17503" lon="6.65117">
        <ele>1422</ele>
        <time>2022-07-31T08:19:01Z</time>
      </trkpt>
      <trkpt lat="46.17504" lon="6.65116">
        <ele>1422</ele>
        <time>2022-07-31T08:19:02Z</time>
      </trkpt>
      <trkpt lat="46.17504" lon="6.65115">
        <ele>1422</ele>
        <time>2022-07-31T08:19:03Z</time>
      </trkpt>
      <trkpt lat="46.17504" lon="6.65114">
        <ele>1422</ele>
        <time>2022-07-31T08:19:04Z</time>
      </trkpt>
      <trkpt lat="46.17505" lon="6.65112">
        <ele>1422</ele>
        <time>2022-07-31T08:19:05Z</time>
      </trkpt>
      <trkpt lat="46.17506" lon="6.6511">
        <ele>1422</ele>
        <time>2022-07-31T08:19:06Z</time>
      </trkpt>
      <trkpt lat="46.17507" lon="6.6511">
        <ele>1422</ele>
        <time>2022-07-31T08:19:07Z</time>
      </trkpt>
      <trkpt lat="46.17507" lon="6.65109">
        <ele>1422</ele>
        <time>2022-07-31T08:19:08Z</time>
      </trkpt>
      <trkpt lat="46.17507" lon="6.65109">
        <ele>1422</ele>
        <time>2022-07-31T08:19:09Z</time>
      </trkpt>
      <trkpt lat="46.17507" lon="6.65108">
        <ele>1422</ele>
        <time>2022-07-31T08:19:10Z</time>
      </trkpt>
      <trkpt lat="46.17507" lon="6.65106">
        <ele>1422</ele>
        <time>2022-07-31T08:19:11Z</time>
      </trkpt>
      <trkpt lat="46.17507" lon="6.65105">
        <ele>1422</ele>
        <time>2022-07-31T08:19:12Z</time>
      </trkpt>
      <trkpt lat="46.17506" lon="6.65104">
        <ele>1422</ele>
        <time>2022-07-31T08:19:13Z</time>
      </trkpt>
      <trkpt lat="46.17506" lon="6.65102">
        <ele>1422</ele>
        <time>2022-07-31T08:19:14Z</time>
      </trkpt>
      <trkpt lat="46.17506" lon="6.65101">
        <ele>1422</ele>
        <time>2022-07-31T08:19:15Z</time>
      </trkpt>
      <trkpt lat="46.17505" lon="6.651">
        <ele>1422</ele>
        <time>2022-07-31T08:19:16Z</time>
      </trkpt>
      <trkpt lat="46.17505" lon="6.65099">
        <ele>1422</ele>
        <time>2022-07-31T08:19:17Z</time>
      </trkpt>
      <trkpt lat="46.17505" lon="6.65098">
        <ele>1422</ele>
        <time>2022-07-31T08:19:18Z</time>
      </trkpt>
      <trkpt lat="46.17504" lon="6.65096">
        <ele>1422</ele>
        <time>2022-07-31T08:19:19Z</time>
      </trkpt>
      <trkpt lat="46.17504" lon="6.65095">
        <ele>1422</ele>
        <time>2022-07-31T08:19:20Z</time>
      </trkpt>
      <trkpt lat="46.17504" lon="6.65094">
        <ele>1422</ele>
        <time>2022-07-31T08:19:21Z</time>
      </trkpt>
      <trkpt lat="46.17504" lon="6.65093">
        <ele>1422</ele>
        <time>2022-07-31T08:19:22Z</time>
      </trkpt>
      <trkpt lat="46.17503" lon="6.65091">
        <ele>1422</ele>
        <time>2022-07-31T08:19:23Z</time>
      </trkpt>
      <trkpt lat="46.17503" lon="6.6509">
        <ele>1422</ele>
        <time>2022-07-31T08:19:24Z</time>
      </trkpt>
      <trkpt lat="46.17502" lon="6.65089">
        <ele>1422</ele>
        <time>2022-07-31T08:19:25Z</time>
      </trkpt>
      <trkpt lat="46.17503" lon="6.65089">
        <ele>1422</ele>
        <time>2022-07-31T08:19:26Z</time>
      </trkpt>
      <trkpt lat="46.17504" lon="6.65088">
        <ele>1422</ele>
        <time>2022-07-31T08:19:27Z</time>
      </trkpt>
      <trkpt lat="46.17504" lon="6.65087">
        <ele>1422</ele>
        <time>2022-07-31T08:19:28Z</time>
      </trkpt>
      <trkpt lat="46.17504" lon="6.65085">
        <ele>1422</ele>
        <time>2022-07-31T08:19:29Z</time>
      </trkpt>
      <trkpt lat="46.17504" lon="6.65083">
        <ele>1422</ele>
        <time>2022-07-31T08:19:30Z</time>
      </trkpt>
      <trkpt lat="46.17504" lon="6.65082">
        <ele>1422</ele>
        <time>2022-07-31T08:19:31Z</time>
      </trkpt>
      <trkpt lat="46.17503" lon="6.65081">
        <ele>1422</ele>
        <time>2022-07-31T08:19:32Z</time>
      </trkpt>
      <trkpt lat="46.17503" lon="6.6508">
        <ele>1422</ele>
        <time>2022-07-31T08:19:33Z</time>
      </trkpt>
      <trkpt lat="46.17502" lon="6.65079">
        <ele>1422</ele>
        <time>2022-07-31T08:19:34Z</time>
      </trkpt>
      <trkpt lat="46.17502" lon="6.65077">
        <ele>1422</ele>
        <time>2022-07-31T08:19:35Z</time>
      </trkpt>
      <trkpt lat="46.17502" lon="6.65076">
        <ele>1422</ele>
        <time>2022-07-31T08:19:36Z</time>
      </trkpt>
      <trkpt lat="46.17502" lon="6.65075">
        <ele>1422</ele>
        <time>2022-07-31T08:19:37Z</time>
      </trkpt>
      <trkpt lat="46.17501" lon="6.65074">
        <ele>1423</ele>
        <time>2022-07-31T08:19:38Z</time>
      </trkpt>
      <trkpt lat="46.175" lon="6.65073">
        <ele>1423</ele>
        <time>2022-07-31T08:19:39Z</time>
      </trkpt>
      <trkpt lat="46.175" lon="6.65073">
        <ele>1423</ele>
        <time>2022-07-31T08:19:40Z</time>
      </trkpt>
      <trkpt lat="46.175" lon="6.65073">
        <ele>1423</ele>
        <time>2022-07-31T08:19:41Z</time>
      </trkpt>
      <trkpt lat="46.17498" lon="6.65073">
        <ele>1423</ele>
        <time>2022-07-31T08:19:42Z</time>
      </trkpt>
      <trkpt lat="46.17498" lon="6.65073">
        <ele>1423</ele>
        <time>2022-07-31T08:19:43Z</time>
      </trkpt>
      <trkpt lat="46.17498" lon="6.65072">
        <ele>1423</ele>
        <time>2022-07-31T08:19:44Z</time>
      </trkpt>
      <trkpt lat="46.17498" lon="6.6507">
        <ele>1423</ele>
        <time>2022-07-31T08:19:45Z</time>
      </trkpt>
      <trkpt lat="46.17498" lon="6.6507">
        <ele>1423</ele>
        <time>2022-07-31T08:19:46Z</time>
      </trkpt>
      <trkpt lat="46.17497" lon="6.65069">
        <ele>1423</ele>
        <time>2022-07-31T08:19:47Z</time>
      </trkpt>
      <trkpt lat="46.17498" lon="6.65067">
        <ele>1424</ele>
        <time>2022-07-31T08:19:48Z</time>
      </trkpt>
      <trkpt lat="46.17498" lon="6.65065">
        <ele>1424</ele>
        <time>2022-07-31T08:19:49Z</time>
      </trkpt>
      <trkpt lat="46.17497" lon="6.65065">
        <ele>1424</ele>
        <time>2022-07-31T08:19:50Z</time>
      </trkpt>
      <trkpt lat="46.17498" lon="6.65064">
        <ele>1424</ele>
        <time>2022-07-31T08:19:51Z</time>
      </trkpt>
      <trkpt lat="46.17498" lon="6.65062">
        <ele>1424</ele>
        <time>2022-07-31T08:19:52Z</time>
      </trkpt>
      <trkpt lat="46.175" lon="6.65061">
        <ele>1424</ele>
        <time>2022-07-31T08:19:53Z</time>
      </trkpt>
      <trkpt lat="46.17501" lon="6.65061">
        <ele>1424</ele>
        <time>2022-07-31T08:19:54Z</time>
      </trkpt>
      <trkpt lat="46.17501" lon="6.6506">
        <ele>1424</ele>
        <time>2022-07-31T08:19:55Z</time>
      </trkpt>
      <trkpt lat="46.17502" lon="6.6506">
        <ele>1424</ele>
        <time>2022-07-31T08:19:56Z</time>
      </trkpt>
      <trkpt lat="46.17503" lon="6.65059">
        <ele>1424</ele>
        <time>2022-07-31T08:19:57Z</time>
      </trkpt>
      <trkpt lat="46.17505" lon="6.65059">
        <ele>1423</ele>
        <time>2022-07-31T08:19:58Z</time>
      </trkpt>
      <trkpt lat="46.17506" lon="6.65059">
        <ele>1423</ele>
        <time>2022-07-31T08:19:59Z</time>
      </trkpt>
      <trkpt lat="46.17507" lon="6.65059">
        <ele>1423</ele>
        <time>2022-07-31T08:20:00Z</time>
      </trkpt>
      <trkpt lat="46.17507" lon="6.65058">
        <ele>1423</ele>
        <time>2022-07-31T08:20:01Z</time>
      </trkpt>
      <trkpt lat="46.17508" lon="6.65058">
        <ele>1423</ele>
        <time>2022-07-31T08:20:02Z</time>
      </trkpt>
      <trkpt lat="46.17508" lon="6.65059">
        <ele>1422</ele>
        <time>2022-07-31T08:20:03Z</time>
      </trkpt>
      <trkpt lat="46.17509" lon="6.65059">
        <ele>1422</ele>
        <time>2022-07-31T08:20:04Z</time>
      </trkpt>
      <trkpt lat="46.1751" lon="6.65059">
        <ele>1422</ele>
        <time>2022-07-31T08:20:05Z</time>
      </trkpt>
      <trkpt lat="46.17511" lon="6.6506">
        <ele>1422</ele>
        <time>2022-07-31T08:20:06Z</time>
      </trkpt>
      <trkpt lat="46.17512" lon="6.65061">
        <ele>1422</ele>
        <time>2022-07-31T08:20:07Z</time>
      </trkpt>
      <trkpt lat="46.17513" lon="6.65062">
        <ele>1421</ele>
        <time>2022-07-31T08:20:08Z</time>
      </trkpt>
      <trkpt lat="46.17514" lon="6.65063">
        <ele>1421</ele>
        <time>2022-07-31T08:20:09Z</time>
      </trkpt>
      <trkpt lat="46.17515" lon="6.65063">
        <ele>1421</ele>
        <time>2022-07-31T08:20:10Z</time>
      </trkpt>
      <trkpt lat="46.17517" lon="6.65064">
        <ele>1421</ele>
        <time>2022-07-31T08:20:11Z</time>
      </trkpt>
      <trkpt lat="46.17518" lon="6.65065">
        <ele>1421</ele>
        <time>2022-07-31T08:20:12Z</time>
      </trkpt>
      <trkpt lat="46.1752" lon="6.65066">
        <ele>1421</ele>
        <time>2022-07-31T08:20:13Z</time>
      </trkpt>
      <trkpt lat="46.17522" lon="6.65067">
        <ele>1420</ele>
        <time>2022-07-31T08:20:14Z</time>
      </trkpt>
      <trkpt lat="46.17523" lon="6.65067">
        <ele>1420</ele>
        <time>2022-07-31T08:20:15Z</time>
      </trkpt>
      <trkpt lat="46.17523" lon="6.65067">
        <ele>1420</ele>
        <time>2022-07-31T08:20:16Z</time>
      </trkpt>
      <trkpt lat="46.17524" lon="6.65067">
        <ele>1420</ele>
        <time>2022-07-31T08:20:17Z</time>
      </trkpt>
      <trkpt lat="46.17526" lon="6.65067">
        <ele>1419</ele>
        <time>2022-07-31T08:20:18Z</time>
      </trkpt>
      <trkpt lat="46.17527" lon="6.65068">
        <ele>1419</ele>
        <time>2022-07-31T08:20:19Z</time>
      </trkpt>
      <trkpt lat="46.17528" lon="6.65068">
        <ele>1419</ele>
        <time>2022-07-31T08:20:20Z</time>
      </trkpt>
      <trkpt lat="46.1753" lon="6.65069">
        <ele>1419</ele>
        <time>2022-07-31T08:20:21Z</time>
      </trkpt>
      <trkpt lat="46.17532" lon="6.65069">
        <ele>1419</ele>
        <time>2022-07-31T08:20:22Z</time>
      </trkpt>
      <trkpt lat="46.17533" lon="6.65069">
        <ele>1419</ele>
        <time>2022-07-31T08:20:23Z</time>
      </trkpt>
      <trkpt lat="46.17534" lon="6.65069">
        <ele>1418</ele>
        <time>2022-07-31T08:20:24Z</time>
      </trkpt>
      <trkpt lat="46.17535" lon="6.65069">
        <ele>1418</ele>
        <time>2022-07-31T08:20:25Z</time>
      </trkpt>
      <trkpt lat="46.17537" lon="6.65068">
        <ele>1418</ele>
        <time>2022-07-31T08:20:26Z</time>
      </trkpt>
      <trkpt lat="46.17538" lon="6.65068">
        <ele>1418</ele>
        <time>2022-07-31T08:20:27Z</time>
      </trkpt>
      <trkpt lat="46.17538" lon="6.65067">
        <ele>1418</ele>
        <time>2022-07-31T08:20:28Z</time>
      </trkpt>
      <trkpt lat="46.17539" lon="6.65066">
        <ele>1418</ele>
        <time>2022-07-31T08:20:29Z</time>
      </trkpt>
      <trkpt lat="46.17539" lon="6.65065">
        <ele>1418</ele>
        <time>2022-07-31T08:20:30Z</time>
      </trkpt>
      <trkpt lat="46.1754" lon="6.65064">
        <ele>1418</ele>
        <time>2022-07-31T08:20:31Z</time>
      </trkpt>
      <trkpt lat="46.17541" lon="6.65064">
        <ele>1418</ele>
        <time>2022-07-31T08:20:32Z</time>
      </trkpt>
      <trkpt lat="46.17541" lon="6.65064">
        <ele>1418</ele>
        <time>2022-07-31T08:20:33Z</time>
      </trkpt>
      <trkpt lat="46.17541" lon="6.65063">
        <ele>1418</ele>
        <time>2022-07-31T08:20:34Z</time>
      </trkpt>
      <trkpt lat="46.17541" lon="6.65062">
        <ele>1418</ele>
        <time>2022-07-31T08:20:35Z</time>
      </trkpt>
      <trkpt lat="46.17541" lon="6.6506">
        <ele>1418</ele>
        <time>2022-07-31T08:20:36Z</time>
      </trkpt>
      <trkpt lat="46.17542" lon="6.65059">
        <ele>1418</ele>
        <time>2022-07-31T08:20:37Z</time>
      </trkpt>
      <trkpt lat="46.17542" lon="6.65058">
        <ele>1418</ele>
        <time>2022-07-31T08:20:38Z</time>
      </trkpt>
      <trkpt lat="46.17543" lon="6.65057">
        <ele>1418</ele>
        <time>2022-07-31T08:20:39Z</time>
      </trkpt>
      <trkpt lat="46.17544" lon="6.65057">
        <ele>1417</ele>
        <time>2022-07-31T08:20:40Z</time>
      </trkpt>
      <trkpt lat="46.17544" lon="6.65057">
        <ele>1417</ele>
        <time>2022-07-31T08:20:41Z</time>
      </trkpt>
      <trkpt lat="46.17545" lon="6.65056">
        <ele>1417</ele>
        <time>2022-07-31T08:20:42Z</time>
      </trkpt>
      <trkpt lat="46.17545" lon="6.65056">
        <ele>1417</ele>
        <time>2022-07-31T08:20:43Z</time>
      </trkpt>
      <trkpt lat="46.17546" lon="6.65055">
        <ele>1417</ele>
        <time>2022-07-31T08:20:44Z</time>
      </trkpt>
      <trkpt lat="46.17546" lon="6.65055">
        <ele>1417</ele>
        <time>2022-07-31T08:20:45Z</time>
      </trkpt>
      <trkpt lat="46.17546" lon="6.65054">
        <ele>1417</ele>
        <time>2022-07-31T08:20:46Z</time>
      </trkpt>
      <trkpt lat="46.17547" lon="6.65054">
        <ele>1417</ele>
        <time>2022-07-31T08:20:47Z</time>
      </trkpt>
      <trkpt lat="46.17547" lon="6.65053">
        <ele>1417</ele>
        <time>2022-07-31T08:20:48Z</time>
      </trkpt>
      <trkpt lat="46.17548" lon="6.65053">
        <ele>1417</ele>
        <time>2022-07-31T08:20:49Z</time>
      </trkpt>
      <trkpt lat="46.17549" lon="6.65054">
        <ele>1417</ele>
        <time>2022-07-31T08:20:50Z</time>
      </trkpt>
      <trkpt lat="46.1755" lon="6.65054">
        <ele>1417</ele>
        <time>2022-07-31T08:20:51Z</time>
      </trkpt>
      <trkpt lat="46.17551" lon="6.65053">
        <ele>1417</ele>
        <time>2022-07-31T08:20:52Z</time>
      </trkpt>
      <trkpt lat="46.17552" lon="6.65054">
        <ele>1417</ele>
        <time>2022-07-31T08:20:53Z</time>
      </trkpt>
      <trkpt lat="46.17552" lon="6.65055">
        <ele>1417</ele>
        <time>2022-07-31T08:20:54Z</time>
      </trkpt>
      <trkpt lat="46.17553" lon="6.65054">
        <ele>1416</ele>
        <time>2022-07-31T08:20:55Z</time>
      </trkpt>
      <trkpt lat="46.17553" lon="6.65055">
        <ele>1416</ele>
        <time>2022-07-31T08:20:56Z</time>
      </trkpt>
      <trkpt lat="46.17553" lon="6.65055">
        <ele>1416</ele>
        <time>2022-07-31T08:20:57Z</time>
      </trkpt>
      <trkpt lat="46.17554" lon="6.65055">
        <ele>1416</ele>
        <time>2022-07-31T08:20:58Z</time>
      </trkpt>
      <trkpt lat="46.17555" lon="6.65055">
        <ele>1416</ele>
        <time>2022-07-31T08:20:59Z</time>
      </trkpt>
      <trkpt lat="46.17557" lon="6.65055">
        <ele>1416</ele>
        <time>2022-07-31T08:21:00Z</time>
      </trkpt>
      <trkpt lat="46.17559" lon="6.65054">
        <ele>1416</ele>
        <time>2022-07-31T08:21:01Z</time>
      </trkpt>
      <trkpt lat="46.1756" lon="6.65053">
        <ele>1416</ele>
        <time>2022-07-31T08:21:02Z</time>
      </trkpt>
      <trkpt lat="46.17561" lon="6.65052">
        <ele>1416</ele>
        <time>2022-07-31T08:21:03Z</time>
      </trkpt>
      <trkpt lat="46.17562" lon="6.65051">
        <ele>1416</ele>
        <time>2022-07-31T08:21:04Z</time>
      </trkpt>
      <trkpt lat="46.17563" lon="6.6505">
        <ele>1416</ele>
        <time>2022-07-31T08:21:05Z</time>
      </trkpt>
      <trkpt lat="46.17563" lon="6.6505">
        <ele>1416</ele>
        <time>2022-07-31T08:21:06Z</time>
      </trkpt>
      <trkpt lat="46.17564" lon="6.65049">
        <ele>1416</ele>
        <time>2022-07-31T08:21:07Z</time>
      </trkpt>
      <trkpt lat="46.17564" lon="6.65048">
        <ele>1416</ele>
        <time>2022-07-31T08:21:08Z</time>
      </trkpt>
      <trkpt lat="46.17566" lon="6.65046">
        <ele>1416</ele>
        <time>2022-07-31T08:21:09Z</time>
      </trkpt>
      <trkpt lat="46.17567" lon="6.65044">
        <ele>1416</ele>
        <time>2022-07-31T08:21:10Z</time>
      </trkpt>
      <trkpt lat="46.17567" lon="6.65043">
        <ele>1416</ele>
        <time>2022-07-31T08:21:11Z</time>
      </trkpt>
      <trkpt lat="46.17567" lon="6.65041">
        <ele>1416</ele>
        <time>2022-07-31T08:21:12Z</time>
      </trkpt>
      <trkpt lat="46.17568" lon="6.65039">
        <ele>1416</ele>
        <time>2022-07-31T08:21:13Z</time>
      </trkpt>
      <trkpt lat="46.17568" lon="6.65039">
        <ele>1416</ele>
        <time>2022-07-31T08:21:14Z</time>
      </trkpt>
      <trkpt lat="46.17568" lon="6.65038">
        <ele>1416</ele>
        <time>2022-07-31T08:21:15Z</time>
      </trkpt>
      <trkpt lat="46.17569" lon="6.65036">
        <ele>1416</ele>
        <time>2022-07-31T08:21:16Z</time>
      </trkpt>
      <trkpt lat="46.17569" lon="6.65034">
        <ele>1416</ele>
        <time>2022-07-31T08:21:17Z</time>
      </trkpt>
      <trkpt lat="46.1757" lon="6.65034">
        <ele>1416</ele>
        <time>2022-07-31T08:21:18Z</time>
      </trkpt>
      <trkpt lat="46.17572" lon="6.65033">
        <ele>1416</ele>
        <time>2022-07-31T08:21:19Z</time>
      </trkpt>
      <trkpt lat="46.17572" lon="6.65032">
        <ele>1415</ele>
        <time>2022-07-31T08:21:20Z</time>
      </trkpt>
      <trkpt lat="46.17573" lon="6.65032">
        <ele>1415</ele>
        <time>2022-07-31T08:21:21Z</time>
      </trkpt>
      <trkpt lat="46.17574" lon="6.6503">
        <ele>1415</ele>
        <time>2022-07-31T08:21:22Z</time>
      </trkpt>
      <trkpt lat="46.17575" lon="6.65029">
        <ele>1415</ele>
        <time>2022-07-31T08:21:23Z</time>
      </trkpt>
      <trkpt lat="46.17576" lon="6.65028">
        <ele>1415</ele>
        <time>2022-07-31T08:21:24Z</time>
      </trkpt>
      <trkpt lat="46.17576" lon="6.65027">
        <ele>1415</ele>
        <time>2022-07-31T08:21:25Z</time>
      </trkpt>
      <trkpt lat="46.17577" lon="6.65025">
        <ele>1415</ele>
        <time>2022-07-31T08:21:26Z</time>
      </trkpt>
      <trkpt lat="46.17577" lon="6.65023">
        <ele>1414</ele>
        <time>2022-07-31T08:21:27Z</time>
      </trkpt>
      <trkpt lat="46.17576" lon="6.65022">
        <ele>1414</ele>
        <time>2022-07-31T08:21:28Z</time>
      </trkpt>
      <trkpt lat="46.17576" lon="6.65019">
        <ele>1414</ele>
        <time>2022-07-31T08:21:29Z</time>
      </trkpt>
      <trkpt lat="46.17576" lon="6.65017">
        <ele>1414</ele>
        <time>2022-07-31T08:21:30Z</time>
      </trkpt>
      <trkpt lat="46.17578" lon="6.65014">
        <ele>1414</ele>
        <time>2022-07-31T08:21:31Z</time>
      </trkpt>
      <trkpt lat="46.17577" lon="6.65012">
        <ele>1414</ele>
        <time>2022-07-31T08:21:32Z</time>
      </trkpt>
      <trkpt lat="46.17577" lon="6.65009">
        <ele>1414</ele>
        <time>2022-07-31T08:21:33Z</time>
      </trkpt>
      <trkpt lat="46.17576" lon="6.65008">
        <ele>1414</ele>
        <time>2022-07-31T08:21:34Z</time>
      </trkpt>
      <trkpt lat="46.17576" lon="6.65006">
        <ele>1414</ele>
        <time>2022-07-31T08:21:35Z</time>
      </trkpt>
      <trkpt lat="46.17576" lon="6.65003">
        <ele>1414</ele>
        <time>2022-07-31T08:21:36Z</time>
      </trkpt>
      <trkpt lat="46.17576" lon="6.64999">
        <ele>1414</ele>
        <time>2022-07-31T08:21:37Z</time>
      </trkpt>
      <trkpt lat="46.17576" lon="6.64996">
        <ele>1414</ele>
        <time>2022-07-31T08:21:38Z</time>
      </trkpt>
      <trkpt lat="46.17577" lon="6.64994">
        <ele>1414</ele>
        <time>2022-07-31T08:21:39Z</time>
      </trkpt>
      <trkpt lat="46.17577" lon="6.64993">
        <ele>1414</ele>
        <time>2022-07-31T08:21:40Z</time>
      </trkpt>
      <trkpt lat="46.17578" lon="6.64991">
        <ele>1414</ele>
        <time>2022-07-31T08:21:41Z</time>
      </trkpt>
      <trkpt lat="46.1758" lon="6.6499">
        <ele>1414</ele>
        <time>2022-07-31T08:21:42Z</time>
      </trkpt>
      <trkpt lat="46.1758" lon="6.6499">
        <ele>1414</ele>
        <time>2022-07-31T08:21:43Z</time>
      </trkpt>
      <trkpt lat="46.17581" lon="6.64989">
        <ele>1414</ele>
        <time>2022-07-31T08:21:44Z</time>
      </trkpt>
      <trkpt lat="46.17581" lon="6.64988">
        <ele>1414</ele>
        <time>2022-07-31T08:21:45Z</time>
      </trkpt>
      <trkpt lat="46.17581" lon="6.64986">
        <ele>1414</ele>
        <time>2022-07-31T08:21:46Z</time>
      </trkpt>
      <trkpt lat="46.17581" lon="6.64983">
        <ele>1414</ele>
        <time>2022-07-31T08:21:47Z</time>
      </trkpt>
      <trkpt lat="46.17581" lon="6.64982">
        <ele>1414</ele>
        <time>2022-07-31T08:21:48Z</time>
      </trkpt>
      <trkpt lat="46.17581" lon="6.6498">
        <ele>1415</ele>
        <time>2022-07-31T08:21:49Z</time>
      </trkpt>
      <trkpt lat="46.17581" lon="6.64979">
        <ele>1415</ele>
        <time>2022-07-31T08:21:50Z</time>
      </trkpt>
      <trkpt lat="46.17581" lon="6.64978">
        <ele>1415</ele>
        <time>2022-07-31T08:21:51Z</time>
      </trkpt>
      <trkpt lat="46.17582" lon="6.64976">
        <ele>1415</ele>
        <time>2022-07-31T08:21:52Z</time>
      </trkpt>
      <trkpt lat="46.17581" lon="6.64974">
        <ele>1415</ele>
        <time>2022-07-31T08:21:53Z</time>
      </trkpt>
      <trkpt lat="46.17581" lon="6.64972">
        <ele>1415</ele>
        <time>2022-07-31T08:21:54Z</time>
      </trkpt>
      <trkpt lat="46.1758" lon="6.6497">
        <ele>1415</ele>
        <time>2022-07-31T08:21:55Z</time>
      </trkpt>
      <trkpt lat="46.1758" lon="6.64967">
        <ele>1416</ele>
        <time>2022-07-31T08:21:56Z</time>
      </trkpt>
      <trkpt lat="46.1758" lon="6.64966">
        <ele>1416</ele>
        <time>2022-07-31T08:21:57Z</time>
      </trkpt>
      <trkpt lat="46.17579" lon="6.64963">
        <ele>1416</ele>
        <time>2022-07-31T08:21:58Z</time>
      </trkpt>
      <trkpt lat="46.17579" lon="6.64962">
        <ele>1416</ele>
        <time>2022-07-31T08:21:59Z</time>
      </trkpt>
      <trkpt lat="46.17578" lon="6.6496">
        <ele>1417</ele>
        <time>2022-07-31T08:22:00Z</time>
      </trkpt>
      <trkpt lat="46.17579" lon="6.64958">
        <ele>1417</ele>
        <time>2022-07-31T08:22:01Z</time>
      </trkpt>
      <trkpt lat="46.1758" lon="6.64957">
        <ele>1417</ele>
        <time>2022-07-31T08:22:02Z</time>
      </trkpt>
      <trkpt lat="46.17581" lon="6.64956">
        <ele>1417</ele>
        <time>2022-07-31T08:22:03Z</time>
      </trkpt>
      <trkpt lat="46.1758" lon="6.64955">
        <ele>1417</ele>
        <time>2022-07-31T08:22:04Z</time>
      </trkpt>
      <trkpt lat="46.1758" lon="6.64953">
        <ele>1417</ele>
        <time>2022-07-31T08:22:05Z</time>
      </trkpt>
      <trkpt lat="46.17581" lon="6.6495">
        <ele>1418</ele>
        <time>2022-07-31T08:22:06Z</time>
      </trkpt>
      <trkpt lat="46.17581" lon="6.64947">
        <ele>1418</ele>
        <time>2022-07-31T08:22:07Z</time>
      </trkpt>
      <trkpt lat="46.17581" lon="6.64945">
        <ele>1418</ele>
        <time>2022-07-31T08:22:08Z</time>
      </trkpt>
      <trkpt lat="46.1758" lon="6.64943">
        <ele>1418</ele>
        <time>2022-07-31T08:22:09Z</time>
      </trkpt>
      <trkpt lat="46.17581" lon="6.64942">
        <ele>1418</ele>
        <time>2022-07-31T08:22:10Z</time>
      </trkpt>
      <trkpt lat="46.17581" lon="6.6494">
        <ele>1419</ele>
        <time>2022-07-31T08:22:11Z</time>
      </trkpt>
      <trkpt lat="46.17581" lon="6.64938">
        <ele>1419</ele>
        <time>2022-07-31T08:22:12Z</time>
      </trkpt>
      <trkpt lat="46.17581" lon="6.64935">
        <ele>1419</ele>
        <time>2022-07-31T08:22:13Z</time>
      </trkpt>
      <trkpt lat="46.17581" lon="6.64934">
        <ele>1420</ele>
        <time>2022-07-31T08:22:14Z</time>
      </trkpt>
      <trkpt lat="46.17581" lon="6.64931">
        <ele>1420</ele>
        <time>2022-07-31T08:22:15Z</time>
      </trkpt>
      <trkpt lat="46.17581" lon="6.64929">
        <ele>1420</ele>
        <time>2022-07-31T08:22:16Z</time>
      </trkpt>
      <trkpt lat="46.17582" lon="6.64928">
        <ele>1420</ele>
        <time>2022-07-31T08:22:17Z</time>
      </trkpt>
      <trkpt lat="46.17583" lon="6.64927">
        <ele>1421</ele>
        <time>2022-07-31T08:22:18Z</time>
      </trkpt>
      <trkpt lat="46.17584" lon="6.64926">
        <ele>1421</ele>
        <time>2022-07-31T08:22:19Z</time>
      </trkpt>
      <trkpt lat="46.17585" lon="6.64926">
        <ele>1421</ele>
        <time>2022-07-31T08:22:20Z</time>
      </trkpt>
      <trkpt lat="46.17586" lon="6.64926">
        <ele>1422</ele>
        <time>2022-07-31T08:22:21Z</time>
      </trkpt>
      <trkpt lat="46.17586" lon="6.64925">
        <ele>1422</ele>
        <time>2022-07-31T08:22:22Z</time>
      </trkpt>
      <trkpt lat="46.17588" lon="6.64925">
        <ele>1422</ele>
        <time>2022-07-31T08:22:23Z</time>
      </trkpt>
      <trkpt lat="46.17588" lon="6.64924">
        <ele>1422</ele>
        <time>2022-07-31T08:22:24Z</time>
      </trkpt>
      <trkpt lat="46.17588" lon="6.64924">
        <ele>1423</ele>
        <time>2022-07-31T08:22:25Z</time>
      </trkpt>
      <trkpt lat="46.17589" lon="6.64923">
        <ele>1423</ele>
        <time>2022-07-31T08:22:26Z</time>
      </trkpt>
      <trkpt lat="46.17591" lon="6.64923">
        <ele>1423</ele>
        <time>2022-07-31T08:22:27Z</time>
      </trkpt>
      <trkpt lat="46.17592" lon="6.64922">
        <ele>1423</ele>
        <time>2022-07-31T08:22:28Z</time>
      </trkpt>
      <trkpt lat="46.17594" lon="6.6492">
        <ele>1424</ele>
        <time>2022-07-31T08:22:29Z</time>
      </trkpt>
      <trkpt lat="46.17594" lon="6.64919">
        <ele>1424</ele>
        <time>2022-07-31T08:22:30Z</time>
      </trkpt>
      <trkpt lat="46.17596" lon="6.64918">
        <ele>1424</ele>
        <time>2022-07-31T08:22:31Z</time>
      </trkpt>
      <trkpt lat="46.17596" lon="6.64917">
        <ele>1424</ele>
        <time>2022-07-31T08:22:32Z</time>
      </trkpt>
      <trkpt lat="46.17596" lon="6.64915">
        <ele>1425</ele>
        <time>2022-07-31T08:22:33Z</time>
      </trkpt>
      <trkpt lat="46.17596" lon="6.64913">
        <ele>1425</ele>
        <time>2022-07-31T08:22:34Z</time>
      </trkpt>
      <trkpt lat="46.17596" lon="6.64912">
        <ele>1425</ele>
        <time>2022-07-31T08:22:35Z</time>
      </trkpt>
      <trkpt lat="46.17596" lon="6.6491">
        <ele>1426</ele>
        <time>2022-07-31T08:22:36Z</time>
      </trkpt>
      <trkpt lat="46.17596" lon="6.64909">
        <ele>1426</ele>
        <time>2022-07-31T08:22:37Z</time>
      </trkpt>
      <trkpt lat="46.17595" lon="6.64907">
        <ele>1426</ele>
        <time>2022-07-31T08:22:38Z</time>
      </trkpt>
      <trkpt lat="46.17594" lon="6.64905">
        <ele>1426</ele>
        <time>2022-07-31T08:22:39Z</time>
      </trkpt>
      <trkpt lat="46.17594" lon="6.64903">
        <ele>1427</ele>
        <time>2022-07-31T08:22:40Z</time>
      </trkpt>
      <trkpt lat="46.17593" lon="6.649">
        <ele>1427</ele>
        <time>2022-07-31T08:22:41Z</time>
      </trkpt>
      <trkpt lat="46.17594" lon="6.64898">
        <ele>1427</ele>
        <time>2022-07-31T08:22:42Z</time>
      </trkpt>
      <trkpt lat="46.17593" lon="6.64897">
        <ele>1428</ele>
        <time>2022-07-31T08:22:43Z</time>
      </trkpt>
      <trkpt lat="46.17592" lon="6.64895">
        <ele>1428</ele>
        <time>2022-07-31T08:22:44Z</time>
      </trkpt>
      <trkpt lat="46.17592" lon="6.64894">
        <ele>1428</ele>
        <time>2022-07-31T08:22:45Z</time>
      </trkpt>
      <trkpt lat="46.17592" lon="6.64892">
        <ele>1429</ele>
        <time>2022-07-31T08:22:46Z</time>
      </trkpt>
      <trkpt lat="46.17592" lon="6.6489">
        <ele>1429</ele>
        <time>2022-07-31T08:22:47Z</time>
      </trkpt>
      <trkpt lat="46.17593" lon="6.64889">
        <ele>1429</ele>
        <time>2022-07-31T08:22:48Z</time>
      </trkpt>
      <trkpt lat="46.17593" lon="6.64887">
        <ele>1430</ele>
        <time>2022-07-31T08:22:49Z</time>
      </trkpt>
      <trkpt lat="46.17593" lon="6.64886">
        <ele>1430</ele>
        <time>2022-07-31T08:22:50Z</time>
      </trkpt>
      <trkpt lat="46.17593" lon="6.64885">
        <ele>1431</ele>
        <time>2022-07-31T08:22:51Z</time>
      </trkpt>
      <trkpt lat="46.17592" lon="6.64884">
        <ele>1431</ele>
        <time>2022-07-31T08:22:52Z</time>
      </trkpt>
      <trkpt lat="46.17592" lon="6.64883">
        <ele>1431</ele>
        <time>2022-07-31T08:22:53Z</time>
      </trkpt>
      <trkpt lat="46.17592" lon="6.64882">
        <ele>1431</ele>
        <time>2022-07-31T08:22:54Z</time>
      </trkpt>
      <trkpt lat="46.17592" lon="6.64883">
        <ele>1431</ele>
        <time>2022-07-31T08:22:55Z</time>
      </trkpt>
      <trkpt lat="46.17592" lon="6.64883">
        <ele>1431</ele>
        <time>2022-07-31T08:22:56Z</time>
      </trkpt>
      <trkpt lat="46.17592" lon="6.64883">
        <ele>1432</ele>
        <time>2022-07-31T08:22:57Z</time>
      </trkpt>
      <trkpt lat="46.17592" lon="6.64882">
        <ele>1432</ele>
        <time>2022-07-31T08:22:58Z</time>
      </trkpt>
      <trkpt lat="46.17593" lon="6.64882">
        <ele>1432</ele>
        <time>2022-07-31T08:22:59Z</time>
      </trkpt>
      <trkpt lat="46.17593" lon="6.64881">
        <ele>1432</ele>
        <time>2022-07-31T08:23:00Z</time>
      </trkpt>
      <trkpt lat="46.17592" lon="6.64881">
        <ele>1432</ele>
        <time>2022-07-31T08:23:01Z</time>
      </trkpt>
      <trkpt lat="46.17592" lon="6.64881">
        <ele>1432</ele>
        <time>2022-07-31T08:23:02Z</time>
      </trkpt>
      <trkpt lat="46.17592" lon="6.6488">
        <ele>1432</ele>
        <time>2022-07-31T08:23:03Z</time>
      </trkpt>
      <trkpt lat="46.17592" lon="6.6488">
        <ele>1432</ele>
        <time>2022-07-31T08:23:04Z</time>
      </trkpt>
      <trkpt lat="46.17592" lon="6.6488">
        <ele>1432</ele>
        <time>2022-07-31T08:23:05Z</time>
      </trkpt>
      <trkpt lat="46.17592" lon="6.64881">
        <ele>1432</ele>
        <time>2022-07-31T08:23:06Z</time>
      </trkpt>
      <trkpt lat="46.17593" lon="6.6488">
        <ele>1433</ele>
        <time>2022-07-31T08:23:07Z</time>
      </trkpt>
      <trkpt lat="46.17593" lon="6.64878">
        <ele>1433</ele>
        <time>2022-07-31T08:23:08Z</time>
      </trkpt>
      <trkpt lat="46.17593" lon="6.64877">
        <ele>1433</ele>
        <time>2022-07-31T08:23:09Z</time>
      </trkpt>
      <trkpt lat="46.17593" lon="6.64876">
        <ele>1433</ele>
        <time>2022-07-31T08:23:10Z</time>
      </trkpt>
      <trkpt lat="46.17593" lon="6.64876">
        <ele>1433</ele>
        <time>2022-07-31T08:23:11Z</time>
      </trkpt>
      <trkpt lat="46.17594" lon="6.64874">
        <ele>1434</ele>
        <time>2022-07-31T08:23:12Z</time>
      </trkpt>
      <trkpt lat="46.17594" lon="6.64873">
        <ele>1434</ele>
        <time>2022-07-31T08:23:13Z</time>
      </trkpt>
      <trkpt lat="46.17596" lon="6.64872">
        <ele>1434</ele>
        <time>2022-07-31T08:23:14Z</time>
      </trkpt>
      <trkpt lat="46.17596" lon="6.64871">
        <ele>1434</ele>
        <time>2022-07-31T08:23:15Z</time>
      </trkpt>
      <trkpt lat="46.17596" lon="6.6487">
        <ele>1435</ele>
        <time>2022-07-31T08:23:16Z</time>
      </trkpt>
      <trkpt lat="46.17596" lon="6.64868">
        <ele>1435</ele>
        <time>2022-07-31T08:23:17Z</time>
      </trkpt>
      <trkpt lat="46.17596" lon="6.64866">
        <ele>1435</ele>
        <time>2022-07-31T08:23:18Z</time>
      </trkpt>
      <trkpt lat="46.17596" lon="6.64865">
        <ele>1436</ele>
        <time>2022-07-31T08:23:19Z</time>
      </trkpt>
      <trkpt lat="46.17594" lon="6.64863">
        <ele>1436</ele>
        <time>2022-07-31T08:23:20Z</time>
      </trkpt>
      <trkpt lat="46.17594" lon="6.64861">
        <ele>1436</ele>
        <time>2022-07-31T08:23:21Z</time>
      </trkpt>
      <trkpt lat="46.17594" lon="6.64859">
        <ele>1436</ele>
        <time>2022-07-31T08:23:22Z</time>
      </trkpt>
      <trkpt lat="46.17594" lon="6.64857">
        <ele>1437</ele>
        <time>2022-07-31T08:23:23Z</time>
      </trkpt>
      <trkpt lat="46.17594" lon="6.64856">
        <ele>1437</ele>
        <time>2022-07-31T08:23:24Z</time>
      </trkpt>
      <trkpt lat="46.17593" lon="6.64854">
        <ele>1437</ele>
        <time>2022-07-31T08:23:25Z</time>
      </trkpt>
      <trkpt lat="46.17593" lon="6.64853">
        <ele>1437</ele>
        <time>2022-07-31T08:23:26Z</time>
      </trkpt>
      <trkpt lat="46.17592" lon="6.64851">
        <ele>1438</ele>
        <time>2022-07-31T08:23:27Z</time>
      </trkpt>
      <trkpt lat="46.17592" lon="6.64849">
        <ele>1438</ele>
        <time>2022-07-31T08:23:28Z</time>
      </trkpt>
      <trkpt lat="46.17591" lon="6.64848">
        <ele>1438</ele>
        <time>2022-07-31T08:23:29Z</time>
      </trkpt>
      <trkpt lat="46.17591" lon="6.64846">
        <ele>1439</ele>
        <time>2022-07-31T08:23:30Z</time>
      </trkpt>
      <trkpt lat="46.1759" lon="6.64844">
        <ele>1439</ele>
        <time>2022-07-31T08:23:31Z</time>
      </trkpt>
      <trkpt lat="46.1759" lon="6.64844">
        <ele>1440</ele>
        <time>2022-07-31T08:23:32Z</time>
      </trkpt>
      <trkpt lat="46.17591" lon="6.64844">
        <ele>1440</ele>
        <time>2022-07-31T08:23:33Z</time>
      </trkpt>
      <trkpt lat="46.17591" lon="6.64843">
        <ele>1440</ele>
        <time>2022-07-31T08:23:34Z</time>
      </trkpt>
      <trkpt lat="46.17591" lon="6.64843">
        <ele>1440</ele>
        <time>2022-07-31T08:23:35Z</time>
      </trkpt>
      <trkpt lat="46.1759" lon="6.64842">
        <ele>1441</ele>
        <time>2022-07-31T08:23:36Z</time>
      </trkpt>
      <trkpt lat="46.1759" lon="6.6484">
        <ele>1441</ele>
        <time>2022-07-31T08:23:37Z</time>
      </trkpt>
      <trkpt lat="46.1759" lon="6.64839">
        <ele>1441</ele>
        <time>2022-07-31T08:23:38Z</time>
      </trkpt>
      <trkpt lat="46.1759" lon="6.64838">
        <ele>1441</ele>
        <time>2022-07-31T08:23:39Z</time>
      </trkpt>
      <trkpt lat="46.1759" lon="6.64837">
        <ele>1441</ele>
        <time>2022-07-31T08:23:40Z</time>
      </trkpt>
      <trkpt lat="46.1759" lon="6.64835">
        <ele>1441</ele>
        <time>2022-07-31T08:23:41Z</time>
      </trkpt>
      <trkpt lat="46.1759" lon="6.64833">
        <ele>1441</ele>
        <time>2022-07-31T08:23:42Z</time>
      </trkpt>
      <trkpt lat="46.17589" lon="6.64832">
        <ele>1442</ele>
        <time>2022-07-31T08:23:43Z</time>
      </trkpt>
      <trkpt lat="46.1759" lon="6.64831">
        <ele>1442</ele>
        <time>2022-07-31T08:23:44Z</time>
      </trkpt>
      <trkpt lat="46.17589" lon="6.64829">
        <ele>1442</ele>
        <time>2022-07-31T08:23:45Z</time>
      </trkpt>
      <trkpt lat="46.17589" lon="6.64827">
        <ele>1442</ele>
        <time>2022-07-31T08:23:46Z</time>
      </trkpt>
      <trkpt lat="46.17588" lon="6.64826">
        <ele>1442</ele>
        <time>2022-07-31T08:23:47Z</time>
      </trkpt>
      <trkpt lat="46.17586" lon="6.64826">
        <ele>1442</ele>
        <time>2022-07-31T08:23:48Z</time>
      </trkpt>
      <trkpt lat="46.17585" lon="6.64825">
        <ele>1442</ele>
        <time>2022-07-31T08:23:49Z</time>
      </trkpt>
      <trkpt lat="46.17584" lon="6.64823">
        <ele>1442</ele>
        <time>2022-07-31T08:23:50Z</time>
      </trkpt>
      <trkpt lat="46.17583" lon="6.64822">
        <ele>1442</ele>
        <time>2022-07-31T08:23:51Z</time>
      </trkpt>
      <trkpt lat="46.17582" lon="6.6482">
        <ele>1443</ele>
        <time>2022-07-31T08:23:52Z</time>
      </trkpt>
      <trkpt lat="46.17581" lon="6.64818">
        <ele>1443</ele>
        <time>2022-07-31T08:23:53Z</time>
      </trkpt>
      <trkpt lat="46.17581" lon="6.64817">
        <ele>1443</ele>
        <time>2022-07-31T08:23:54Z</time>
      </trkpt>
      <trkpt lat="46.17581" lon="6.64815">
        <ele>1443</ele>
        <time>2022-07-31T08:23:55Z</time>
      </trkpt>
      <trkpt lat="46.17581" lon="6.64812">
        <ele>1444</ele>
        <time>2022-07-31T08:23:56Z</time>
      </trkpt>
      <trkpt lat="46.17581" lon="6.6481">
        <ele>1444</ele>
        <time>2022-07-31T08:23:57Z</time>
      </trkpt>
      <trkpt lat="46.17581" lon="6.64808">
        <ele>1444</ele>
        <time>2022-07-31T08:23:58Z</time>
      </trkpt>
      <trkpt lat="46.17581" lon="6.64806">
        <ele>1444</ele>
        <time>2022-07-31T08:23:59Z</time>
      </trkpt>
      <trkpt lat="46.1758" lon="6.64805">
        <ele>1445</ele>
        <time>2022-07-31T08:24:00Z</time>
      </trkpt>
      <trkpt lat="46.1758" lon="6.64803">
        <ele>1445</ele>
        <time>2022-07-31T08:24:01Z</time>
      </trkpt>
      <trkpt lat="46.17579" lon="6.64801">
        <ele>1445</ele>
        <time>2022-07-31T08:24:02Z</time>
      </trkpt>
      <trkpt lat="46.17579" lon="6.64799">
        <ele>1446</ele>
        <time>2022-07-31T08:24:03Z</time>
      </trkpt>
      <trkpt lat="46.17578" lon="6.64798">
        <ele>1446</ele>
        <time>2022-07-31T08:24:04Z</time>
      </trkpt>
      <trkpt lat="46.17578" lon="6.64798">
        <ele>1446</ele>
        <time>2022-07-31T08:24:05Z</time>
      </trkpt>
      <trkpt lat="46.17577" lon="6.64797">
        <ele>1446</ele>
        <time>2022-07-31T08:24:06Z</time>
      </trkpt>
      <trkpt lat="46.17577" lon="6.64796">
        <ele>1447</ele>
        <time>2022-07-31T08:24:07Z</time>
      </trkpt>
      <trkpt lat="46.17576" lon="6.64793">
        <ele>1447</ele>
        <time>2022-07-31T08:24:08Z</time>
      </trkpt>
      <trkpt lat="46.17575" lon="6.64791">
        <ele>1447</ele>
        <time>2022-07-31T08:24:09Z</time>
      </trkpt>
      <trkpt lat="46.17574" lon="6.64791">
        <ele>1447</ele>
        <time>2022-07-31T08:24:10Z</time>
      </trkpt>
      <trkpt lat="46.17573" lon="6.64789">
        <ele>1447</ele>
        <time>2022-07-31T08:24:11Z</time>
      </trkpt>
      <trkpt lat="46.17572" lon="6.64788">
        <ele>1447</ele>
        <time>2022-07-31T08:24:12Z</time>
      </trkpt>
      <trkpt lat="46.17571" lon="6.64787">
        <ele>1447</ele>
        <time>2022-07-31T08:24:13Z</time>
      </trkpt>
      <trkpt lat="46.1757" lon="6.64786">
        <ele>1447</ele>
        <time>2022-07-31T08:24:14Z</time>
      </trkpt>
      <trkpt lat="46.17569" lon="6.64786">
        <ele>1447</ele>
        <time>2022-07-31T08:24:15Z</time>
      </trkpt>
      <trkpt lat="46.17567" lon="6.64785">
        <ele>1448</ele>
        <time>2022-07-31T08:24:16Z</time>
      </trkpt>
      <trkpt lat="46.17566" lon="6.64784">
        <ele>1448</ele>
        <time>2022-07-31T08:24:17Z</time>
      </trkpt>
      <trkpt lat="46.17564" lon="6.64785">
        <ele>1448</ele>
        <time>2022-07-31T08:24:18Z</time>
      </trkpt>
      <trkpt lat="46.17562" lon="6.64784">
        <ele>1448</ele>
        <time>2022-07-31T08:24:19Z</time>
      </trkpt>
      <trkpt lat="46.17559" lon="6.64783">
        <ele>1448</ele>
        <time>2022-07-31T08:24:20Z</time>
      </trkpt>
      <trkpt lat="46.17557" lon="6.64782">
        <ele>1448</ele>
        <time>2022-07-31T08:24:21Z</time>
      </trkpt>
      <trkpt lat="46.17555" lon="6.64782">
        <ele>1448</ele>
        <time>2022-07-31T08:24:22Z</time>
      </trkpt>
      <trkpt lat="46.17553" lon="6.64781">
        <ele>1448</ele>
        <time>2022-07-31T08:24:23Z</time>
      </trkpt>
      <trkpt lat="46.1755" lon="6.64781">
        <ele>1448</ele>
        <time>2022-07-31T08:24:24Z</time>
      </trkpt>
      <trkpt lat="46.17549" lon="6.6478">
        <ele>1448</ele>
        <time>2022-07-31T08:24:25Z</time>
      </trkpt>
      <trkpt lat="46.17548" lon="6.6478">
        <ele>1448</ele>
        <time>2022-07-31T08:24:26Z</time>
      </trkpt>
      <trkpt lat="46.17546" lon="6.64779">
        <ele>1448</ele>
        <time>2022-07-31T08:24:27Z</time>
      </trkpt>
      <trkpt lat="46.17544" lon="6.64779">
        <ele>1448</ele>
        <time>2022-07-31T08:24:28Z</time>
      </trkpt>
      <trkpt lat="46.17542" lon="6.64778">
        <ele>1448</ele>
        <time>2022-07-31T08:24:29Z</time>
      </trkpt>
      <trkpt lat="46.17541" lon="6.64778">
        <ele>1448</ele>
        <time>2022-07-31T08:24:30Z</time>
      </trkpt>
      <trkpt lat="46.1754" lon="6.64779">
        <ele>1448</ele>
        <time>2022-07-31T08:24:31Z</time>
      </trkpt>
      <trkpt lat="46.17539" lon="6.64778">
        <ele>1448</ele>
        <time>2022-07-31T08:24:32Z</time>
      </trkpt>
      <trkpt lat="46.17538" lon="6.64777">
        <ele>1448</ele>
        <time>2022-07-31T08:24:33Z</time>
      </trkpt>
      <trkpt lat="46.17537" lon="6.64777">
        <ele>1448</ele>
        <time>2022-07-31T08:24:34Z</time>
      </trkpt>
      <trkpt lat="46.17537" lon="6.64776">
        <ele>1448</ele>
        <time>2022-07-31T08:24:35Z</time>
      </trkpt>
      <trkpt lat="46.17535" lon="6.64774">
        <ele>1448</ele>
        <time>2022-07-31T08:24:36Z</time>
      </trkpt>
      <trkpt lat="46.17534" lon="6.64774">
        <ele>1448</ele>
        <time>2022-07-31T08:24:37Z</time>
      </trkpt>
      <trkpt lat="46.17533" lon="6.64774">
        <ele>1448</ele>
        <time>2022-07-31T08:24:38Z</time>
      </trkpt>
      <trkpt lat="46.17532" lon="6.64773">
        <ele>1449</ele>
        <time>2022-07-31T08:24:39Z</time>
      </trkpt>
      <trkpt lat="46.17531" lon="6.64772">
        <ele>1449</ele>
        <time>2022-07-31T08:24:40Z</time>
      </trkpt>
      <trkpt lat="46.17531" lon="6.64771">
        <ele>1449</ele>
        <time>2022-07-31T08:24:41Z</time>
      </trkpt>
      <trkpt lat="46.1753" lon="6.6477">
        <ele>1449</ele>
        <time>2022-07-31T08:24:42Z</time>
      </trkpt>
      <trkpt lat="46.17531" lon="6.64769">
        <ele>1450</ele>
        <time>2022-07-31T08:24:43Z</time>
      </trkpt>
      <trkpt lat="46.17532" lon="6.64768">
        <ele>1450</ele>
        <time>2022-07-31T08:24:44Z</time>
      </trkpt>
      <trkpt lat="46.17532" lon="6.64767">
        <ele>1450</ele>
        <time>2022-07-31T08:24:45Z</time>
      </trkpt>
      <trkpt lat="46.17533" lon="6.64767">
        <ele>1451</ele>
        <time>2022-07-31T08:24:46Z</time>
      </trkpt>
      <trkpt lat="46.17534" lon="6.64766">
        <ele>1451</ele>
        <time>2022-07-31T08:24:47Z</time>
      </trkpt>
      <trkpt lat="46.17534" lon="6.64765">
        <ele>1452</ele>
        <time>2022-07-31T08:24:48Z</time>
      </trkpt>
      <trkpt lat="46.17535" lon="6.64765">
        <ele>1452</ele>
        <time>2022-07-31T08:24:49Z</time>
      </trkpt>
      <trkpt lat="46.17536" lon="6.64766">
        <ele>1452</ele>
        <time>2022-07-31T08:24:50Z</time>
      </trkpt>
      <trkpt lat="46.17537" lon="6.64765">
        <ele>1453</ele>
        <time>2022-07-31T08:24:51Z</time>
      </trkpt>
      <trkpt lat="46.17538" lon="6.64764">
        <ele>1453</ele>
        <time>2022-07-31T08:24:52Z</time>
      </trkpt>
      <trkpt lat="46.17539" lon="6.64765">
        <ele>1454</ele>
        <time>2022-07-31T08:24:53Z</time>
      </trkpt>
      <trkpt lat="46.1754" lon="6.64764">
        <ele>1454</ele>
        <time>2022-07-31T08:24:54Z</time>
      </trkpt>
      <trkpt lat="46.17541" lon="6.64764">
        <ele>1455</ele>
        <time>2022-07-31T08:24:55Z</time>
      </trkpt>
      <trkpt lat="46.17543" lon="6.64765">
        <ele>1455</ele>
        <time>2022-07-31T08:24:56Z</time>
      </trkpt>
      <trkpt lat="46.17543" lon="6.64764">
        <ele>1455</ele>
        <time>2022-07-31T08:24:57Z</time>
      </trkpt>
      <trkpt lat="46.17542" lon="6.64763">
        <ele>1456</ele>
        <time>2022-07-31T08:24:58Z</time>
      </trkpt>
      <trkpt lat="46.17543" lon="6.64763">
        <ele>1456</ele>
        <time>2022-07-31T08:24:59Z</time>
      </trkpt>
      <trkpt lat="46.17545" lon="6.64762">
        <ele>1456</ele>
        <time>2022-07-31T08:25:00Z</time>
      </trkpt>
      <trkpt lat="46.17546" lon="6.64761">
        <ele>1456</ele>
        <time>2022-07-31T08:25:01Z</time>
      </trkpt>
      <trkpt lat="46.17547" lon="6.64759">
        <ele>1456</ele>
        <time>2022-07-31T08:25:02Z</time>
      </trkpt>
      <trkpt lat="46.17548" lon="6.64758">
        <ele>1457</ele>
        <time>2022-07-31T08:25:03Z</time>
      </trkpt>
      <trkpt lat="46.17548" lon="6.64758">
        <ele>1457</ele>
        <time>2022-07-31T08:25:04Z</time>
      </trkpt>
      <trkpt lat="46.17549" lon="6.64758">
        <ele>1457</ele>
        <time>2022-07-31T08:25:05Z</time>
      </trkpt>
      <trkpt lat="46.1755" lon="6.64757">
        <ele>1457</ele>
        <time>2022-07-31T08:25:06Z</time>
      </trkpt>
      <trkpt lat="46.17552" lon="6.64756">
        <ele>1457</ele>
        <time>2022-07-31T08:25:07Z</time>
      </trkpt>
      <trkpt lat="46.17552" lon="6.64756">
        <ele>1457</ele>
        <time>2022-07-31T08:25:08Z</time>
      </trkpt>
      <trkpt lat="46.17552" lon="6.64755">
        <ele>1458</ele>
        <time>2022-07-31T08:25:09Z</time>
      </trkpt>
      <trkpt lat="46.17552" lon="6.64754">
        <ele>1458</ele>
        <time>2022-07-31T08:25:10Z</time>
      </trkpt>
      <trkpt lat="46.17552" lon="6.64754">
        <ele>1458</ele>
        <time>2022-07-31T08:25:11Z</time>
      </trkpt>
      <trkpt lat="46.17552" lon="6.64753">
        <ele>1458</ele>
        <time>2022-07-31T08:25:12Z</time>
      </trkpt>
      <trkpt lat="46.17552" lon="6.64752">
        <ele>1458</ele>
        <time>2022-07-31T08:25:13Z</time>
      </trkpt>
      <trkpt lat="46.17551" lon="6.64751">
        <ele>1459</ele>
        <time>2022-07-31T08:25:14Z</time>
      </trkpt>
      <trkpt lat="46.1755" lon="6.64751">
        <ele>1459</ele>
        <time>2022-07-31T08:25:15Z</time>
      </trkpt>
      <trkpt lat="46.1755" lon="6.64751">
        <ele>1459</ele>
        <time>2022-07-31T08:25:16Z</time>
      </trkpt>
      <trkpt lat="46.17549" lon="6.64749">
        <ele>1459</ele>
        <time>2022-07-31T08:25:17Z</time>
      </trkpt>
      <trkpt lat="46.17549" lon="6.64749">
        <ele>1459</ele>
        <time>2022-07-31T08:25:18Z</time>
      </trkpt>
      <trkpt lat="46.17548" lon="6.64748">
        <ele>1460</ele>
        <time>2022-07-31T08:25:19Z</time>
      </trkpt>
      <trkpt lat="46.17548" lon="6.64747">
        <ele>1460</ele>
        <time>2022-07-31T08:25:20Z</time>
      </trkpt>
      <trkpt lat="46.17548" lon="6.64746">
        <ele>1460</ele>
        <time>2022-07-31T08:25:21Z</time>
      </trkpt>
      <trkpt lat="46.17547" lon="6.64744">
        <ele>1460</ele>
        <time>2022-07-31T08:25:22Z</time>
      </trkpt>
      <trkpt lat="46.17547" lon="6.64744">
        <ele>1460</ele>
        <time>2022-07-31T08:25:23Z</time>
      </trkpt>
      <trkpt lat="46.17547" lon="6.64742">
        <ele>1461</ele>
        <time>2022-07-31T08:25:24Z</time>
      </trkpt>
      <trkpt lat="46.17547" lon="6.6474">
        <ele>1461</ele>
        <time>2022-07-31T08:25:25Z</time>
      </trkpt>
      <trkpt lat="46.17546" lon="6.64739">
        <ele>1461</ele>
        <time>2022-07-31T08:25:26Z</time>
      </trkpt>
      <trkpt lat="46.17545" lon="6.64739">
        <ele>1461</ele>
        <time>2022-07-31T08:25:27Z</time>
      </trkpt>
      <trkpt lat="46.17545" lon="6.64738">
        <ele>1461</ele>
        <time>2022-07-31T08:25:28Z</time>
      </trkpt>
      <trkpt lat="46.17545" lon="6.64738">
        <ele>1462</ele>
        <time>2022-07-31T08:25:29Z</time>
      </trkpt>
      <trkpt lat="46.17545" lon="6.64737">
        <ele>1462</ele>
        <time>2022-07-31T08:25:30Z</time>
      </trkpt>
      <trkpt lat="46.17544" lon="6.64736">
        <ele>1462</ele>
        <time>2022-07-31T08:25:31Z</time>
      </trkpt>
      <trkpt lat="46.17544" lon="6.64735">
        <ele>1462</ele>
        <time>2022-07-31T08:25:32Z</time>
      </trkpt>
      <trkpt lat="46.17543" lon="6.64734">
        <ele>1463</ele>
        <time>2022-07-31T08:25:33Z</time>
      </trkpt>
      <trkpt lat="46.17541" lon="6.64733">
        <ele>1463</ele>
        <time>2022-07-31T08:25:34Z</time>
      </trkpt>
      <trkpt lat="46.1754" lon="6.64732">
        <ele>1463</ele>
        <time>2022-07-31T08:25:35Z</time>
      </trkpt>
      <trkpt lat="46.17539" lon="6.64734">
        <ele>1463</ele>
        <time>2022-07-31T08:25:36Z</time>
      </trkpt>
      <trkpt lat="46.17538" lon="6.64735">
        <ele>1463</ele>
        <time>2022-07-31T08:25:37Z</time>
      </trkpt>
      <trkpt lat="46.17537" lon="6.64737">
        <ele>1463</ele>
        <time>2022-07-31T08:25:38Z</time>
      </trkpt>
      <trkpt lat="46.17537" lon="6.64738">
        <ele>1463</ele>
        <time>2022-07-31T08:25:39Z</time>
      </trkpt>
      <trkpt lat="46.17536" lon="6.64739">
        <ele>1463</ele>
        <time>2022-07-31T08:25:40Z</time>
      </trkpt>
      <trkpt lat="46.17536" lon="6.64741">
        <ele>1463</ele>
        <time>2022-07-31T08:25:41Z</time>
      </trkpt>
      <trkpt lat="46.17535" lon="6.64742">
        <ele>1463</ele>
        <time>2022-07-31T08:25:42Z</time>
      </trkpt>
      <trkpt lat="46.17535" lon="6.64743">
        <ele>1463</ele>
        <time>2022-07-31T08:25:43Z</time>
      </trkpt>
      <trkpt lat="46.17534" lon="6.64744">
        <ele>1463</ele>
        <time>2022-07-31T08:25:44Z</time>
      </trkpt>
      <trkpt lat="46.17534" lon="6.64745">
        <ele>1462</ele>
        <time>2022-07-31T08:25:45Z</time>
      </trkpt>
      <trkpt lat="46.17533" lon="6.64746">
        <ele>1462</ele>
        <time>2022-07-31T08:25:46Z</time>
      </trkpt>
      <trkpt lat="46.17532" lon="6.64748">
        <ele>1462</ele>
        <time>2022-07-31T08:25:47Z</time>
      </trkpt>
      <trkpt lat="46.17532" lon="6.64749">
        <ele>1462</ele>
        <time>2022-07-31T08:25:48Z</time>
      </trkpt>
      <trkpt lat="46.17531" lon="6.6475">
        <ele>1461</ele>
        <time>2022-07-31T08:25:49Z</time>
      </trkpt>
      <trkpt lat="46.17531" lon="6.64749">
        <ele>1461</ele>
        <time>2022-07-31T08:25:50Z</time>
      </trkpt>
      <trkpt lat="46.17531" lon="6.64749">
        <ele>1461</ele>
        <time>2022-07-31T08:25:51Z</time>
      </trkpt>
      <trkpt lat="46.1753" lon="6.64749">
        <ele>1461</ele>
        <time>2022-07-31T08:25:52Z</time>
      </trkpt>
      <trkpt lat="46.1753" lon="6.64749">
        <ele>1461</ele>
        <time>2022-07-31T08:25:53Z</time>
      </trkpt>
      <trkpt lat="46.1753" lon="6.6475">
        <ele>1461</ele>
        <time>2022-07-31T08:25:54Z</time>
      </trkpt>
      <trkpt lat="46.1753" lon="6.6475">
        <ele>1461</ele>
        <time>2022-07-31T08:25:55Z</time>
      </trkpt>
      <trkpt lat="46.17529" lon="6.64751">
        <ele>1461</ele>
        <time>2022-07-31T08:25:56Z</time>
      </trkpt>
      <trkpt lat="46.17529" lon="6.64752">
        <ele>1461</ele>
        <time>2022-07-31T08:25:57Z</time>
      </trkpt>
      <trkpt lat="46.1753" lon="6.64752">
        <ele>1461</ele>
        <time>2022-07-31T08:25:58Z</time>
      </trkpt>
      <trkpt lat="46.1753" lon="6.64753">
        <ele>1461</ele>
        <time>2022-07-31T08:25:59Z</time>
      </trkpt>
      <trkpt lat="46.1753" lon="6.64752">
        <ele>1461</ele>
        <time>2022-07-31T08:26:00Z</time>
      </trkpt>
      <trkpt lat="46.1753" lon="6.64753">
        <ele>1461</ele>
        <time>2022-07-31T08:26:01Z</time>
      </trkpt>
      <trkpt lat="46.17531" lon="6.64755">
        <ele>1461</ele>
        <time>2022-07-31T08:26:02Z</time>
      </trkpt>
      <trkpt lat="46.17531" lon="6.64756">
        <ele>1461</ele>
        <time>2022-07-31T08:26:03Z</time>
      </trkpt>
      <trkpt lat="46.17531" lon="6.64757">
        <ele>1461</ele>
        <time>2022-07-31T08:26:04Z</time>
      </trkpt>
      <trkpt lat="46.17531" lon="6.64759">
        <ele>1461</ele>
        <time>2022-07-31T08:26:05Z</time>
      </trkpt>
      <trkpt lat="46.17531" lon="6.64759">
        <ele>1461</ele>
        <time>2022-07-31T08:26:06Z</time>
      </trkpt>
      <trkpt lat="46.17532" lon="6.64759">
        <ele>1461</ele>
        <time>2022-07-31T08:26:07Z</time>
      </trkpt>
      <trkpt lat="46.17532" lon="6.64759">
        <ele>1462</ele>
        <time>2022-07-31T08:26:08Z</time>
      </trkpt>
      <trkpt lat="46.17532" lon="6.6476">
        <ele>1462</ele>
        <time>2022-07-31T08:26:09Z</time>
      </trkpt>
      <trkpt lat="46.17533" lon="6.64761">
        <ele>1462</ele>
        <time>2022-07-31T08:26:10Z</time>
      </trkpt>
      <trkpt lat="46.17534" lon="6.64761">
        <ele>1462</ele>
        <time>2022-07-31T08:26:11Z</time>
      </trkpt>
      <trkpt lat="46.17534" lon="6.64761">
        <ele>1462</ele>
        <time>2022-07-31T08:26:12Z</time>
      </trkpt>
      <trkpt lat="46.17534" lon="6.64761">
        <ele>1462</ele>
        <time>2022-07-31T08:26:13Z</time>
      </trkpt>
      <trkpt lat="46.17535" lon="6.64761">
        <ele>1462</ele>
        <time>2022-07-31T08:26:14Z</time>
      </trkpt>
      <trkpt lat="46.17536" lon="6.6476">
        <ele>1463</ele>
        <time>2022-07-31T08:26:15Z</time>
      </trkpt>
      <trkpt lat="46.17536" lon="6.64759">
        <ele>1463</ele>
        <time>2022-07-31T08:26:16Z</time>
      </trkpt>
      <trkpt lat="46.17535" lon="6.64758">
        <ele>1463</ele>
        <time>2022-07-31T08:26:17Z</time>
      </trkpt>
      <trkpt lat="46.17535" lon="6.64758">
        <ele>1463</ele>
        <time>2022-07-31T08:26:18Z</time>
      </trkpt>
      <trkpt lat="46.17535" lon="6.64757">
        <ele>1463</ele>
        <time>2022-07-31T08:26:19Z</time>
      </trkpt>
      <trkpt lat="46.17535" lon="6.64756">
        <ele>1463</ele>
        <time>2022-07-31T08:26:20Z</time>
      </trkpt>
      <trkpt lat="46.17535" lon="6.64757">
        <ele>1463</ele>
        <time>2022-07-31T08:26:21Z</time>
      </trkpt>
      <trkpt lat="46.17536" lon="6.64757">
        <ele>1463</ele>
        <time>2022-07-31T08:26:22Z</time>
      </trkpt>
      <trkpt lat="46.17536" lon="6.64757">
        <ele>1463</ele>
        <time>2022-07-31T08:26:23Z</time>
      </trkpt>
      <trkpt lat="46.17537" lon="6.64755">
        <ele>1463</ele>
        <time>2022-07-31T08:26:24Z</time>
      </trkpt>
      <trkpt lat="46.17538" lon="6.64754">
        <ele>1463</ele>
        <time>2022-07-31T08:26:25Z</time>
      </trkpt>
      <trkpt lat="46.17538" lon="6.64752">
        <ele>1463</ele>
        <time>2022-07-31T08:26:26Z</time>
      </trkpt>
      <trkpt lat="46.17538" lon="6.64751">
        <ele>1464</ele>
        <time>2022-07-31T08:26:27Z</time>
      </trkpt>
      <trkpt lat="46.17538" lon="6.64751">
        <ele>1464</ele>
        <time>2022-07-31T08:26:28Z</time>
      </trkpt>
      <trkpt lat="46.17537" lon="6.64749">
        <ele>1464</ele>
        <time>2022-07-31T08:26:29Z</time>
      </trkpt>
      <trkpt lat="46.17537" lon="6.64747">
        <ele>1464</ele>
        <time>2022-07-31T08:26:30Z</time>
      </trkpt>
      <trkpt lat="46.17537" lon="6.64745">
        <ele>1464</ele>
        <time>2022-07-31T08:26:31Z</time>
      </trkpt>
      <trkpt lat="46.17537" lon="6.6474">
        <ele>1465</ele>
        <time>2022-07-31T08:26:32Z</time>
      </trkpt>
      <trkpt lat="46.17538" lon="6.64735">
        <ele>1465</ele>
        <time>2022-07-31T08:26:33Z</time>
      </trkpt>
      <trkpt lat="46.17538" lon="6.64732">
        <ele>1465</ele>
        <time>2022-07-31T08:26:34Z</time>
      </trkpt>
      <trkpt lat="46.17538" lon="6.6473">
        <ele>1465</ele>
        <time>2022-07-31T08:26:35Z</time>
      </trkpt>
      <trkpt lat="46.17538" lon="6.64728">
        <ele>1466</ele>
        <time>2022-07-31T08:26:36Z</time>
      </trkpt>
      <trkpt lat="46.17538" lon="6.64725">
        <ele>1466</ele>
        <time>2022-07-31T08:26:37Z</time>
      </trkpt>
      <trkpt lat="46.17538" lon="6.64723">
        <ele>1466</ele>
        <time>2022-07-31T08:26:38Z</time>
      </trkpt>
      <trkpt lat="46.17538" lon="6.6472">
        <ele>1467</ele>
        <time>2022-07-31T08:26:39Z</time>
      </trkpt>
      <trkpt lat="46.17538" lon="6.64718">
        <ele>1467</ele>
        <time>2022-07-31T08:26:40Z</time>
      </trkpt>
      <trkpt lat="46.17538" lon="6.64715">
        <ele>1467</ele>
        <time>2022-07-31T08:26:41Z</time>
      </trkpt>
      <trkpt lat="46.17538" lon="6.64715">
        <ele>1467</ele>
        <time>2022-07-31T08:26:42Z</time>
      </trkpt>
      <trkpt lat="46.17539" lon="6.64715">
        <ele>1468</ele>
        <time>2022-07-31T08:26:43Z</time>
      </trkpt>
      <trkpt lat="46.17539" lon="6.64714">
        <ele>1468</ele>
        <time>2022-07-31T08:26:44Z</time>
      </trkpt>
      <trkpt lat="46.1754" lon="6.64713">
        <ele>1468</ele>
        <time>2022-07-31T08:26:45Z</time>
      </trkpt>
      <trkpt lat="46.1754" lon="6.64712">
        <ele>1468</ele>
        <time>2022-07-31T08:26:46Z</time>
      </trkpt>
      <trkpt lat="46.17541" lon="6.64711">
        <ele>1468</ele>
        <time>2022-07-31T08:26:47Z</time>
      </trkpt>
      <trkpt lat="46.17541" lon="6.64711">
        <ele>1468</ele>
        <time>2022-07-31T08:26:48Z</time>
      </trkpt>
      <trkpt lat="46.17542" lon="6.6471">
        <ele>1468</ele>
        <time>2022-07-31T08:26:49Z</time>
      </trkpt>
      <trkpt lat="46.17543" lon="6.64709">
        <ele>1468</ele>
        <time>2022-07-31T08:26:50Z</time>
      </trkpt>
      <trkpt lat="46.17543" lon="6.64708">
        <ele>1468</ele>
        <time>2022-07-31T08:26:51Z</time>
      </trkpt>
      <trkpt lat="46.17545" lon="6.64707">
        <ele>1468</ele>
        <time>2022-07-31T08:26:52Z</time>
      </trkpt>
      <trkpt lat="46.17545" lon="6.64706">
        <ele>1468</ele>
        <time>2022-07-31T08:26:53Z</time>
      </trkpt>
      <trkpt lat="46.17546" lon="6.64705">
        <ele>1468</ele>
        <time>2022-07-31T08:26:54Z</time>
      </trkpt>
      <trkpt lat="46.17546" lon="6.64703">
        <ele>1468</ele>
        <time>2022-07-31T08:26:55Z</time>
      </trkpt>
      <trkpt lat="46.17546" lon="6.64703">
        <ele>1468</ele>
        <time>2022-07-31T08:26:56Z</time>
      </trkpt>
      <trkpt lat="46.17547" lon="6.64702">
        <ele>1468</ele>
        <time>2022-07-31T08:26:57Z</time>
      </trkpt>
      <trkpt lat="46.17548" lon="6.64702">
        <ele>1467</ele>
        <time>2022-07-31T08:26:58Z</time>
      </trkpt>
      <trkpt lat="46.17549" lon="6.64702">
        <ele>1467</ele>
        <time>2022-07-31T08:26:59Z</time>
      </trkpt>
      <trkpt lat="46.1755" lon="6.64701">
        <ele>1467</ele>
        <time>2022-07-31T08:27:00Z</time>
      </trkpt>
      <trkpt lat="46.1755" lon="6.64701">
        <ele>1467</ele>
        <time>2022-07-31T08:27:01Z</time>
      </trkpt>
      <trkpt lat="46.1755" lon="6.647">
        <ele>1467</ele>
        <time>2022-07-31T08:27:02Z</time>
      </trkpt>
      <trkpt lat="46.1755" lon="6.64701">
        <ele>1467</ele>
        <time>2022-07-31T08:27:03Z</time>
      </trkpt>
      <trkpt lat="46.1755" lon="6.64702">
        <ele>1467</ele>
        <time>2022-07-31T08:27:04Z</time>
      </trkpt>
      <trkpt lat="46.1755" lon="6.64703">
        <ele>1467</ele>
        <time>2022-07-31T08:27:05Z</time>
      </trkpt>
      <trkpt lat="46.17549" lon="6.64703">
        <ele>1467</ele>
        <time>2022-07-31T08:27:06Z</time>
      </trkpt>
      <trkpt lat="46.17549" lon="6.64703">
        <ele>1467</ele>
        <time>2022-07-31T08:27:07Z</time>
      </trkpt>
      <trkpt lat="46.17549" lon="6.64703">
        <ele>1467</ele>
        <time>2022-07-31T08:27:08Z</time>
      </trkpt>
      <trkpt lat="46.17549" lon="6.64704">
        <ele>1467</ele>
        <time>2022-07-31T08:27:09Z</time>
      </trkpt>
      <trkpt lat="46.17549" lon="6.64704">
        <ele>1467</ele>
        <time>2022-07-31T08:27:10Z</time>
      </trkpt>
      <trkpt lat="46.17549" lon="6.64704">
        <ele>1467</ele>
        <time>2022-07-31T08:27:11Z</time>
      </trkpt>
      <trkpt lat="46.17549" lon="6.64703">
        <ele>1467</ele>
        <time>2022-07-31T08:27:12Z</time>
      </trkpt>
      <trkpt lat="46.1755" lon="6.64703">
        <ele>1467</ele>
        <time>2022-07-31T08:27:13Z</time>
      </trkpt>
      <trkpt lat="46.1755" lon="6.64703">
        <ele>1467</ele>
        <time>2022-07-31T08:27:14Z</time>
      </trkpt>
      <trkpt lat="46.17551" lon="6.64701">
        <ele>1467</ele>
        <time>2022-07-31T08:27:15Z</time>
      </trkpt>
      <trkpt lat="46.17553" lon="6.647">
        <ele>1467</ele>
        <time>2022-07-31T08:27:16Z</time>
      </trkpt>
      <trkpt lat="46.17553" lon="6.64699">
        <ele>1467</ele>
        <time>2022-07-31T08:27:17Z</time>
      </trkpt>
      <trkpt lat="46.17554" lon="6.64698">
        <ele>1467</ele>
        <time>2022-07-31T08:27:18Z</time>
      </trkpt>
      <trkpt lat="46.17555" lon="6.64696">
        <ele>1467</ele>
        <time>2022-07-31T08:27:19Z</time>
      </trkpt>
      <trkpt lat="46.17556" lon="6.64695">
        <ele>1467</ele>
        <time>2022-07-31T08:27:20Z</time>
      </trkpt>
      <trkpt lat="46.17557" lon="6.64694">
        <ele>1467</ele>
        <time>2022-07-31T08:27:21Z</time>
      </trkpt>
      <trkpt lat="46.17557" lon="6.64693">
        <ele>1467</ele>
        <time>2022-07-31T08:27:22Z</time>
      </trkpt>
      <trkpt lat="46.17558" lon="6.64691">
        <ele>1467</ele>
        <time>2022-07-31T08:27:23Z</time>
      </trkpt>
      <trkpt lat="46.17559" lon="6.64689">
        <ele>1467</ele>
        <time>2022-07-31T08:27:24Z</time>
      </trkpt>
      <trkpt lat="46.17559" lon="6.64688">
        <ele>1467</ele>
        <time>2022-07-31T08:27:25Z</time>
      </trkpt>
      <trkpt lat="46.1756" lon="6.64686">
        <ele>1467</ele>
        <time>2022-07-31T08:27:26Z</time>
      </trkpt>
      <trkpt lat="46.17561" lon="6.64685">
        <ele>1467</ele>
        <time>2022-07-31T08:27:27Z</time>
      </trkpt>
      <trkpt lat="46.17561" lon="6.64683">
        <ele>1466</ele>
        <time>2022-07-31T08:27:28Z</time>
      </trkpt>
      <trkpt lat="46.17562" lon="6.64682">
        <ele>1466</ele>
        <time>2022-07-31T08:27:29Z</time>
      </trkpt>
      <trkpt lat="46.17562" lon="6.6468">
        <ele>1466</ele>
        <time>2022-07-31T08:27:30Z</time>
      </trkpt>
      <trkpt lat="46.17563" lon="6.64678">
        <ele>1466</ele>
        <time>2022-07-31T08:27:31Z</time>
      </trkpt>
      <trkpt lat="46.17563" lon="6.64677">
        <ele>1466</ele>
        <time>2022-07-31T08:27:32Z</time>
      </trkpt>
      <trkpt lat="46.17564" lon="6.64674">
        <ele>1466</ele>
        <time>2022-07-31T08:27:33Z</time>
      </trkpt>
      <trkpt lat="46.17564" lon="6.64672">
        <ele>1466</ele>
        <time>2022-07-31T08:27:34Z</time>
      </trkpt>
      <trkpt lat="46.17564" lon="6.6467">
        <ele>1466</ele>
        <time>2022-07-31T08:27:35Z</time>
      </trkpt>
      <trkpt lat="46.17565" lon="6.64668">
        <ele>1466</ele>
        <time>2022-07-31T08:27:36Z</time>
      </trkpt>
      <trkpt lat="46.17566" lon="6.64666">
        <ele>1466</ele>
        <time>2022-07-31T08:27:37Z</time>
      </trkpt>
      <trkpt lat="46.17566" lon="6.64665">
        <ele>1466</ele>
        <time>2022-07-31T08:27:38Z</time>
      </trkpt>
      <trkpt lat="46.17566" lon="6.64663">
        <ele>1466</ele>
        <time>2022-07-31T08:27:39Z</time>
      </trkpt>
      <trkpt lat="46.17566" lon="6.64661">
        <ele>1466</ele>
        <time>2022-07-31T08:27:40Z</time>
      </trkpt>
      <trkpt lat="46.17566" lon="6.64658">
        <ele>1466</ele>
        <time>2022-07-31T08:27:41Z</time>
      </trkpt>
      <trkpt lat="46.17566" lon="6.64655">
        <ele>1466</ele>
        <time>2022-07-31T08:27:42Z</time>
      </trkpt>
      <trkpt lat="46.17566" lon="6.64653">
        <ele>1466</ele>
        <time>2022-07-31T08:27:43Z</time>
      </trkpt>
      <trkpt lat="46.17566" lon="6.6465">
        <ele>1466</ele>
        <time>2022-07-31T08:27:44Z</time>
      </trkpt>
      <trkpt lat="46.17565" lon="6.64647">
        <ele>1466</ele>
        <time>2022-07-31T08:27:45Z</time>
      </trkpt>
      <trkpt lat="46.17566" lon="6.64645">
        <ele>1466</ele>
        <time>2022-07-31T08:27:46Z</time>
      </trkpt>
      <trkpt lat="46.17566" lon="6.64644">
        <ele>1466</ele>
        <time>2022-07-31T08:27:47Z</time>
      </trkpt>
      <trkpt lat="46.17565" lon="6.64642">
        <ele>1466</ele>
        <time>2022-07-31T08:27:48Z</time>
      </trkpt>
      <trkpt lat="46.17565" lon="6.64641">
        <ele>1466</ele>
        <time>2022-07-31T08:27:49Z</time>
      </trkpt>
      <trkpt lat="46.17564" lon="6.6464">
        <ele>1466</ele>
        <time>2022-07-31T08:27:50Z</time>
      </trkpt>
      <trkpt lat="46.17564" lon="6.6464">
        <ele>1466</ele>
        <time>2022-07-31T08:27:51Z</time>
      </trkpt>
      <trkpt lat="46.17564" lon="6.6464">
        <ele>1466</ele>
        <time>2022-07-31T08:27:52Z</time>
      </trkpt>
      <trkpt lat="46.17564" lon="6.64639">
        <ele>1466</ele>
        <time>2022-07-31T08:27:53Z</time>
      </trkpt>
      <trkpt lat="46.17563" lon="6.64639">
        <ele>1466</ele>
        <time>2022-07-31T08:27:54Z</time>
      </trkpt>
      <trkpt lat="46.17563" lon="6.64637">
        <ele>1465</ele>
        <time>2022-07-31T08:27:55Z</time>
      </trkpt>
      <trkpt lat="46.17562" lon="6.64634">
        <ele>1465</ele>
        <time>2022-07-31T08:27:56Z</time>
      </trkpt>
      <trkpt lat="46.17561" lon="6.64632">
        <ele>1465</ele>
        <time>2022-07-31T08:27:57Z</time>
      </trkpt>
      <trkpt lat="46.17561" lon="6.64631">
        <ele>1465</ele>
        <time>2022-07-31T08:27:58Z</time>
      </trkpt>
      <trkpt lat="46.17561" lon="6.6463">
        <ele>1465</ele>
        <time>2022-07-31T08:27:59Z</time>
      </trkpt>
      <trkpt lat="46.17561" lon="6.64628">
        <ele>1465</ele>
        <time>2022-07-31T08:28:00Z</time>
      </trkpt>
      <trkpt lat="46.17561" lon="6.64626">
        <ele>1465</ele>
        <time>2022-07-31T08:28:01Z</time>
      </trkpt>
      <trkpt lat="46.17562" lon="6.64624">
        <ele>1464</ele>
        <time>2022-07-31T08:28:02Z</time>
      </trkpt>
      <trkpt lat="46.17561" lon="6.64621">
        <ele>1464</ele>
        <time>2022-07-31T08:28:03Z</time>
      </trkpt>
      <trkpt lat="46.17561" lon="6.64619">
        <ele>1464</ele>
        <time>2022-07-31T08:28:04Z</time>
      </trkpt>
      <trkpt lat="46.17561" lon="6.64618">
        <ele>1464</ele>
        <time>2022-07-31T08:28:05Z</time>
      </trkpt>
      <trkpt lat="46.1756" lon="6.64617">
        <ele>1464</ele>
        <time>2022-07-31T08:28:06Z</time>
      </trkpt>
      <trkpt lat="46.1756" lon="6.64616">
        <ele>1464</ele>
        <time>2022-07-31T08:28:07Z</time>
      </trkpt>
      <trkpt lat="46.17559" lon="6.64615">
        <ele>1464</ele>
        <time>2022-07-31T08:28:08Z</time>
      </trkpt>
      <trkpt lat="46.17559" lon="6.64614">
        <ele>1464</ele>
        <time>2022-07-31T08:28:09Z</time>
      </trkpt>
      <trkpt lat="46.17559" lon="6.64612">
        <ele>1464</ele>
        <time>2022-07-31T08:28:10Z</time>
      </trkpt>
      <trkpt lat="46.17558" lon="6.64611">
        <ele>1463</ele>
        <time>2022-07-31T08:28:11Z</time>
      </trkpt>
      <trkpt lat="46.17557" lon="6.6461">
        <ele>1463</ele>
        <time>2022-07-31T08:28:12Z</time>
      </trkpt>
      <trkpt lat="46.17556" lon="6.64609">
        <ele>1463</ele>
        <time>2022-07-31T08:28:13Z</time>
      </trkpt>
      <trkpt lat="46.17555" lon="6.64607">
        <ele>1463</ele>
        <time>2022-07-31T08:28:14Z</time>
      </trkpt>
      <trkpt lat="46.17554" lon="6.64606">
        <ele>1463</ele>
        <time>2022-07-31T08:28:15Z</time>
      </trkpt>
      <trkpt lat="46.17552" lon="6.64604">
        <ele>1463</ele>
        <time>2022-07-31T08:28:16Z</time>
      </trkpt>
      <trkpt lat="46.1755" lon="6.64603">
        <ele>1462</ele>
        <time>2022-07-31T08:28:17Z</time>
      </trkpt>
      <trkpt lat="46.17548" lon="6.64601">
        <ele>1462</ele>
        <time>2022-07-31T08:28:18Z</time>
      </trkpt>
      <trkpt lat="46.17548" lon="6.64599">
        <ele>1462</ele>
        <time>2022-07-31T08:28:19Z</time>
      </trkpt>
      <trkpt lat="46.17547" lon="6.64599">
        <ele>1462</ele>
        <time>2022-07-31T08:28:20Z</time>
      </trkpt>
      <trkpt lat="46.17547" lon="6.64598">
        <ele>1462</ele>
        <time>2022-07-31T08:28:21Z</time>
      </trkpt>
      <trkpt lat="46.17546" lon="6.64596">
        <ele>1462</ele>
        <time>2022-07-31T08:28:22Z</time>
      </trkpt>
      <trkpt lat="46.17544" lon="6.64596">
        <ele>1462</ele>
        <time>2022-07-31T08:28:23Z</time>
      </trkpt>
      <trkpt lat="46.17543" lon="6.64596">
        <ele>1462</ele>
        <time>2022-07-31T08:28:24Z</time>
      </trkpt>
      <trkpt lat="46.17542" lon="6.64596">
        <ele>1462</ele>
        <time>2022-07-31T08:28:25Z</time>
      </trkpt>
      <trkpt lat="46.17541" lon="6.64596">
        <ele>1462</ele>
        <time>2022-07-31T08:28:26Z</time>
      </trkpt>
      <trkpt lat="46.1754" lon="6.64596">
        <ele>1462</ele>
        <time>2022-07-31T08:28:27Z</time>
      </trkpt>
      <trkpt lat="46.17539" lon="6.64595">
        <ele>1462</ele>
        <time>2022-07-31T08:28:28Z</time>
      </trkpt>
      <trkpt lat="46.17538" lon="6.64595">
        <ele>1462</ele>
        <time>2022-07-31T08:28:29Z</time>
      </trkpt>
      <trkpt lat="46.17537" lon="6.64594">
        <ele>1462</ele>
        <time>2022-07-31T08:28:30Z</time>
      </trkpt>
      <trkpt lat="46.17537" lon="6.64593">
        <ele>1461</ele>
        <time>2022-07-31T08:28:31Z</time>
      </trkpt>
      <trkpt lat="46.17538" lon="6.64592">
        <ele>1461</ele>
        <time>2022-07-31T08:28:32Z</time>
      </trkpt>
      <trkpt lat="46.17538" lon="6.64592">
        <ele>1461</ele>
        <time>2022-07-31T08:28:33Z</time>
      </trkpt>
      <trkpt lat="46.17538" lon="6.6459">
        <ele>1461</ele>
        <time>2022-07-31T08:28:34Z</time>
      </trkpt>
      <trkpt lat="46.17539" lon="6.64588">
        <ele>1461</ele>
        <time>2022-07-31T08:28:35Z</time>
      </trkpt>
      <trkpt lat="46.17539" lon="6.64587">
        <ele>1461</ele>
        <time>2022-07-31T08:28:36Z</time>
      </trkpt>
      <trkpt lat="46.17539" lon="6.64586">
        <ele>1461</ele>
        <time>2022-07-31T08:28:37Z</time>
      </trkpt>
      <trkpt lat="46.17539" lon="6.64586">
        <ele>1461</ele>
        <time>2022-07-31T08:28:38Z</time>
      </trkpt>
      <trkpt lat="46.17538" lon="6.64585">
        <ele>1461</ele>
        <time>2022-07-31T08:28:39Z</time>
      </trkpt>
      <trkpt lat="46.17537" lon="6.64584">
        <ele>1461</ele>
        <time>2022-07-31T08:28:40Z</time>
      </trkpt>
      <trkpt lat="46.17535" lon="6.64584">
        <ele>1461</ele>
        <time>2022-07-31T08:28:41Z</time>
      </trkpt>
      <trkpt lat="46.17534" lon="6.64583">
        <ele>1461</ele>
        <time>2022-07-31T08:28:42Z</time>
      </trkpt>
      <trkpt lat="46.17532" lon="6.64581">
        <ele>1461</ele>
        <time>2022-07-31T08:28:43Z</time>
      </trkpt>
      <trkpt lat="46.17531" lon="6.64579">
        <ele>1461</ele>
        <time>2022-07-31T08:28:44Z</time>
      </trkpt>
      <trkpt lat="46.17531" lon="6.64577">
        <ele>1461</ele>
        <time>2022-07-31T08:28:45Z</time>
      </trkpt>
      <trkpt lat="46.1753" lon="6.64576">
        <ele>1461</ele>
        <time>2022-07-31T08:28:46Z</time>
      </trkpt>
      <trkpt lat="46.1753" lon="6.64574">
        <ele>1461</ele>
        <time>2022-07-31T08:28:47Z</time>
      </trkpt>
      <trkpt lat="46.1753" lon="6.64572">
        <ele>1461</ele>
        <time>2022-07-31T08:28:48Z</time>
      </trkpt>
      <trkpt lat="46.1753" lon="6.64571">
        <ele>1461</ele>
        <time>2022-07-31T08:28:49Z</time>
      </trkpt>
      <trkpt lat="46.1753" lon="6.64569">
        <ele>1461</ele>
        <time>2022-07-31T08:28:50Z</time>
      </trkpt>
      <trkpt lat="46.1753" lon="6.64567">
        <ele>1462</ele>
        <time>2022-07-31T08:28:51Z</time>
      </trkpt>
      <trkpt lat="46.1753" lon="6.64564">
        <ele>1462</ele>
        <time>2022-07-31T08:28:52Z</time>
      </trkpt>
      <trkpt lat="46.1753" lon="6.64563">
        <ele>1462</ele>
        <time>2022-07-31T08:28:53Z</time>
      </trkpt>
      <trkpt lat="46.17529" lon="6.64562">
        <ele>1462</ele>
        <time>2022-07-31T08:28:54Z</time>
      </trkpt>
      <trkpt lat="46.17528" lon="6.6456">
        <ele>1462</ele>
        <time>2022-07-31T08:28:55Z</time>
      </trkpt>
      <trkpt lat="46.17528" lon="6.64558">
        <ele>1462</ele>
        <time>2022-07-31T08:28:56Z</time>
      </trkpt>
      <trkpt lat="46.17528" lon="6.64557">
        <ele>1462</ele>
        <time>2022-07-31T08:28:57Z</time>
      </trkpt>
      <trkpt lat="46.17528" lon="6.64555">
        <ele>1462</ele>
        <time>2022-07-31T08:28:58Z</time>
      </trkpt>
      <trkpt lat="46.17528" lon="6.64553">
        <ele>1462</ele>
        <time>2022-07-31T08:28:59Z</time>
      </trkpt>
      <trkpt lat="46.17529" lon="6.64551">
        <ele>1462</ele>
        <time>2022-07-31T08:29:00Z</time>
      </trkpt>
      <trkpt lat="46.17529" lon="6.6455">
        <ele>1462</ele>
        <time>2022-07-31T08:29:01Z</time>
      </trkpt>
      <trkpt lat="46.17529" lon="6.64548">
        <ele>1462</ele>
        <time>2022-07-31T08:29:02Z</time>
      </trkpt>
      <trkpt lat="46.17529" lon="6.64546">
        <ele>1462</ele>
        <time>2022-07-31T08:29:03Z</time>
      </trkpt>
      <trkpt lat="46.1753" lon="6.64544">
        <ele>1462</ele>
        <time>2022-07-31T08:29:04Z</time>
      </trkpt>
      <trkpt lat="46.1753" lon="6.64542">
        <ele>1462</ele>
        <time>2022-07-31T08:29:05Z</time>
      </trkpt>
      <trkpt lat="46.1753" lon="6.64541">
        <ele>1462</ele>
        <time>2022-07-31T08:29:06Z</time>
      </trkpt>
      <trkpt lat="46.17529" lon="6.6454">
        <ele>1462</ele>
        <time>2022-07-31T08:29:07Z</time>
      </trkpt>
      <trkpt lat="46.17528" lon="6.64539">
        <ele>1462</ele>
        <time>2022-07-31T08:29:08Z</time>
      </trkpt>
      <trkpt lat="46.17526" lon="6.64538">
        <ele>1463</ele>
        <time>2022-07-31T08:29:09Z</time>
      </trkpt>
      <trkpt lat="46.17526" lon="6.64537">
        <ele>1463</ele>
        <time>2022-07-31T08:29:10Z</time>
      </trkpt>
      <trkpt lat="46.17526" lon="6.64536">
        <ele>1463</ele>
        <time>2022-07-31T08:29:11Z</time>
      </trkpt>
      <trkpt lat="46.17526" lon="6.64536">
        <ele>1463</ele>
        <time>2022-07-31T08:29:12Z</time>
      </trkpt>
      <trkpt lat="46.17526" lon="6.64535">
        <ele>1463</ele>
        <time>2022-07-31T08:29:13Z</time>
      </trkpt>
      <trkpt lat="46.17527" lon="6.64534">
        <ele>1463</ele>
        <time>2022-07-31T08:29:14Z</time>
      </trkpt>
      <trkpt lat="46.17526" lon="6.64533">
        <ele>1463</ele>
        <time>2022-07-31T08:29:15Z</time>
      </trkpt>
      <trkpt lat="46.17526" lon="6.64531">
        <ele>1463</ele>
        <time>2022-07-31T08:29:16Z</time>
      </trkpt>
      <trkpt lat="46.17525" lon="6.6453">
        <ele>1463</ele>
        <time>2022-07-31T08:29:17Z</time>
      </trkpt>
      <trkpt lat="46.17524" lon="6.64529">
        <ele>1463</ele>
        <time>2022-07-31T08:29:18Z</time>
      </trkpt>
      <trkpt lat="46.17523" lon="6.64528">
        <ele>1463</ele>
        <time>2022-07-31T08:29:19Z</time>
      </trkpt>
      <trkpt lat="46.17522" lon="6.64526">
        <ele>1463</ele>
        <time>2022-07-31T08:29:20Z</time>
      </trkpt>
      <trkpt lat="46.17522" lon="6.64525">
        <ele>1463</ele>
        <time>2022-07-31T08:29:21Z</time>
      </trkpt>
      <trkpt lat="46.17522" lon="6.64523">
        <ele>1463</ele>
        <time>2022-07-31T08:29:22Z</time>
      </trkpt>
      <trkpt lat="46.17522" lon="6.64521">
        <ele>1463</ele>
        <time>2022-07-31T08:29:23Z</time>
      </trkpt>
      <trkpt lat="46.17522" lon="6.64519">
        <ele>1463</ele>
        <time>2022-07-31T08:29:24Z</time>
      </trkpt>
      <trkpt lat="46.17522" lon="6.64519">
        <ele>1463</ele>
        <time>2022-07-31T08:29:25Z</time>
      </trkpt>
      <trkpt lat="46.17522" lon="6.64518">
        <ele>1463</ele>
        <time>2022-07-31T08:29:26Z</time>
      </trkpt>
      <trkpt lat="46.17521" lon="6.64516">
        <ele>1463</ele>
        <time>2022-07-31T08:29:27Z</time>
      </trkpt>
      <trkpt lat="46.17521" lon="6.64515">
        <ele>1463</ele>
        <time>2022-07-31T08:29:28Z</time>
      </trkpt>
      <trkpt lat="46.1752" lon="6.64514">
        <ele>1463</ele>
        <time>2022-07-31T08:29:29Z</time>
      </trkpt>
      <trkpt lat="46.1752" lon="6.64512">
        <ele>1463</ele>
        <time>2022-07-31T08:29:30Z</time>
      </trkpt>
      <trkpt lat="46.1752" lon="6.6451">
        <ele>1462</ele>
        <time>2022-07-31T08:29:31Z</time>
      </trkpt>
      <trkpt lat="46.17519" lon="6.64508">
        <ele>1462</ele>
        <time>2022-07-31T08:29:32Z</time>
      </trkpt>
      <trkpt lat="46.1752" lon="6.64506">
        <ele>1462</ele>
        <time>2022-07-31T08:29:33Z</time>
      </trkpt>
      <trkpt lat="46.1752" lon="6.64504">
        <ele>1462</ele>
        <time>2022-07-31T08:29:34Z</time>
      </trkpt>
      <trkpt lat="46.17519" lon="6.64502">
        <ele>1462</ele>
        <time>2022-07-31T08:29:35Z</time>
      </trkpt>
      <trkpt lat="46.1752" lon="6.64502">
        <ele>1463</ele>
        <time>2022-07-31T08:29:36Z</time>
      </trkpt>
      <trkpt lat="46.1752" lon="6.64502">
        <ele>1463</ele>
        <time>2022-07-31T08:29:37Z</time>
      </trkpt>
      <trkpt lat="46.1752" lon="6.645">
        <ele>1463</ele>
        <time>2022-07-31T08:29:38Z</time>
      </trkpt>
      <trkpt lat="46.1752" lon="6.64499">
        <ele>1463</ele>
        <time>2022-07-31T08:29:39Z</time>
      </trkpt>
      <trkpt lat="46.17518" lon="6.64498">
        <ele>1463</ele>
        <time>2022-07-31T08:29:40Z</time>
      </trkpt>
      <trkpt lat="46.17518" lon="6.64496">
        <ele>1463</ele>
        <time>2022-07-31T08:29:41Z</time>
      </trkpt>
      <trkpt lat="46.17518" lon="6.64496">
        <ele>1463</ele>
        <time>2022-07-31T08:29:42Z</time>
      </trkpt>
      <trkpt lat="46.17518" lon="6.64496">
        <ele>1463</ele>
        <time>2022-07-31T08:29:43Z</time>
      </trkpt>
      <trkpt lat="46.17517" lon="6.64494">
        <ele>1463</ele>
        <time>2022-07-31T08:29:44Z</time>
      </trkpt>
      <trkpt lat="46.17517" lon="6.64494">
        <ele>1463</ele>
        <time>2022-07-31T08:29:45Z</time>
      </trkpt>
      <trkpt lat="46.17516" lon="6.64492">
        <ele>1464</ele>
        <time>2022-07-31T08:29:46Z</time>
      </trkpt>
      <trkpt lat="46.17515" lon="6.64491">
        <ele>1464</ele>
        <time>2022-07-31T08:29:47Z</time>
      </trkpt>
      <trkpt lat="46.17515" lon="6.6449">
        <ele>1464</ele>
        <time>2022-07-31T08:29:48Z</time>
      </trkpt>
      <trkpt lat="46.17515" lon="6.64489">
        <ele>1464</ele>
        <time>2022-07-31T08:29:49Z</time>
      </trkpt>
      <trkpt lat="46.17516" lon="6.64488">
        <ele>1464</ele>
        <time>2022-07-31T08:29:50Z</time>
      </trkpt>
      <trkpt lat="46.17516" lon="6.64486">
        <ele>1465</ele>
        <time>2022-07-31T08:29:51Z</time>
      </trkpt>
      <trkpt lat="46.17516" lon="6.64484">
        <ele>1465</ele>
        <time>2022-07-31T08:29:52Z</time>
      </trkpt>
      <trkpt lat="46.17515" lon="6.64482">
        <ele>1465</ele>
        <time>2022-07-31T08:29:53Z</time>
      </trkpt>
      <trkpt lat="46.17515" lon="6.6448">
        <ele>1465</ele>
        <time>2022-07-31T08:29:54Z</time>
      </trkpt>
      <trkpt lat="46.17514" lon="6.64479">
        <ele>1465</ele>
        <time>2022-07-31T08:29:55Z</time>
      </trkpt>
      <trkpt lat="46.17513" lon="6.64478">
        <ele>1466</ele>
        <time>2022-07-31T08:29:56Z</time>
      </trkpt>
      <trkpt lat="46.17512" lon="6.64475">
        <ele>1466</ele>
        <time>2022-07-31T08:29:57Z</time>
      </trkpt>
      <trkpt lat="46.17512" lon="6.64474">
        <ele>1466</ele>
        <time>2022-07-31T08:29:58Z</time>
      </trkpt>
      <trkpt lat="46.17512" lon="6.64472">
        <ele>1466</ele>
        <time>2022-07-31T08:29:59Z</time>
      </trkpt>
      <trkpt lat="46.17513" lon="6.64469">
        <ele>1466</ele>
        <time>2022-07-31T08:30:00Z</time>
      </trkpt>
      <trkpt lat="46.17513" lon="6.64468">
        <ele>1466</ele>
        <time>2022-07-31T08:30:01Z</time>
      </trkpt>
      <trkpt lat="46.17512" lon="6.64467">
        <ele>1467</ele>
        <time>2022-07-31T08:30:02Z</time>
      </trkpt>
      <trkpt lat="46.17511" lon="6.64465">
        <ele>1467</ele>
        <time>2022-07-31T08:30:03Z</time>
      </trkpt>
      <trkpt lat="46.17511" lon="6.64463">
        <ele>1467</ele>
        <time>2022-07-31T08:30:04Z</time>
      </trkpt>
      <trkpt lat="46.17511" lon="6.64464">
        <ele>1467</ele>
        <time>2022-07-31T08:30:05Z</time>
      </trkpt>
      <trkpt lat="46.17511" lon="6.64464">
        <ele>1468</ele>
        <time>2022-07-31T08:30:06Z</time>
      </trkpt>
      <trkpt lat="46.17512" lon="6.64463">
        <ele>1468</ele>
        <time>2022-07-31T08:30:07Z</time>
      </trkpt>
      <trkpt lat="46.17512" lon="6.64463">
        <ele>1468</ele>
        <time>2022-07-31T08:30:08Z</time>
      </trkpt>
      <trkpt lat="46.17512" lon="6.64462">
        <ele>1469</ele>
        <time>2022-07-31T08:30:09Z</time>
      </trkpt>
      <trkpt lat="46.17512" lon="6.6446">
        <ele>1469</ele>
        <time>2022-07-31T08:30:10Z</time>
      </trkpt>
      <trkpt lat="46.17511" lon="6.64459">
        <ele>1469</ele>
        <time>2022-07-31T08:30:11Z</time>
      </trkpt>
      <trkpt lat="46.17511" lon="6.64457">
        <ele>1470</ele>
        <time>2022-07-31T08:30:12Z</time>
      </trkpt>
      <trkpt lat="46.17511" lon="6.64456">
        <ele>1470</ele>
        <time>2022-07-31T08:30:13Z</time>
      </trkpt>
      <trkpt lat="46.17511" lon="6.64454">
        <ele>1470</ele>
        <time>2022-07-31T08:30:14Z</time>
      </trkpt>
      <trkpt lat="46.1751" lon="6.64453">
        <ele>1470</ele>
        <time>2022-07-31T08:30:15Z</time>
      </trkpt>
      <trkpt lat="46.1751" lon="6.64451">
        <ele>1470</ele>
        <time>2022-07-31T08:30:16Z</time>
      </trkpt>
      <trkpt lat="46.17509" lon="6.64449">
        <ele>1471</ele>
        <time>2022-07-31T08:30:17Z</time>
      </trkpt>
      <trkpt lat="46.17508" lon="6.64447">
        <ele>1471</ele>
        <time>2022-07-31T08:30:18Z</time>
      </trkpt>
      <trkpt lat="46.17507" lon="6.64445">
        <ele>1471</ele>
        <time>2022-07-31T08:30:19Z</time>
      </trkpt>
      <trkpt lat="46.17507" lon="6.64442">
        <ele>1471</ele>
        <time>2022-07-31T08:30:20Z</time>
      </trkpt>
      <trkpt lat="46.17506" lon="6.64441">
        <ele>1471</ele>
        <time>2022-07-31T08:30:21Z</time>
      </trkpt>
      <trkpt lat="46.17506" lon="6.6444">
        <ele>1471</ele>
        <time>2022-07-31T08:30:22Z</time>
      </trkpt>
      <trkpt lat="46.17505" lon="6.64438">
        <ele>1472</ele>
        <time>2022-07-31T08:30:23Z</time>
      </trkpt>
      <trkpt lat="46.17505" lon="6.64437">
        <ele>1472</ele>
        <time>2022-07-31T08:30:24Z</time>
      </trkpt>
      <trkpt lat="46.17504" lon="6.64436">
        <ele>1472</ele>
        <time>2022-07-31T08:30:25Z</time>
      </trkpt>
      <trkpt lat="46.17505" lon="6.64436">
        <ele>1472</ele>
        <time>2022-07-31T08:30:26Z</time>
      </trkpt>
      <trkpt lat="46.17505" lon="6.64434">
        <ele>1472</ele>
        <time>2022-07-31T08:30:27Z</time>
      </trkpt>
      <trkpt lat="46.17504" lon="6.64433">
        <ele>1473</ele>
        <time>2022-07-31T08:30:28Z</time>
      </trkpt>
      <trkpt lat="46.17504" lon="6.64432">
        <ele>1473</ele>
        <time>2022-07-31T08:30:29Z</time>
      </trkpt>
      <trkpt lat="46.17504" lon="6.64431">
        <ele>1473</ele>
        <time>2022-07-31T08:30:30Z</time>
      </trkpt>
      <trkpt lat="46.17504" lon="6.64429">
        <ele>1473</ele>
        <time>2022-07-31T08:30:31Z</time>
      </trkpt>
      <trkpt lat="46.17504" lon="6.64428">
        <ele>1473</ele>
        <time>2022-07-31T08:30:32Z</time>
      </trkpt>
      <trkpt lat="46.17504" lon="6.64427">
        <ele>1473</ele>
        <time>2022-07-31T08:30:33Z</time>
      </trkpt>
      <trkpt lat="46.17505" lon="6.64425">
        <ele>1473</ele>
        <time>2022-07-31T08:30:34Z</time>
      </trkpt>
      <trkpt lat="46.17505" lon="6.64423">
        <ele>1474</ele>
        <time>2022-07-31T08:30:35Z</time>
      </trkpt>
      <trkpt lat="46.17505" lon="6.64422">
        <ele>1474</ele>
        <time>2022-07-31T08:30:36Z</time>
      </trkpt>
      <trkpt lat="46.17505" lon="6.64421">
        <ele>1474</ele>
        <time>2022-07-31T08:30:37Z</time>
      </trkpt>
      <trkpt lat="46.17506" lon="6.6442">
        <ele>1474</ele>
        <time>2022-07-31T08:30:38Z</time>
      </trkpt>
      <trkpt lat="46.17506" lon="6.64419">
        <ele>1474</ele>
        <time>2022-07-31T08:30:39Z</time>
      </trkpt>
      <trkpt lat="46.17506" lon="6.64418">
        <ele>1474</ele>
        <time>2022-07-31T08:30:40Z</time>
      </trkpt>
      <trkpt lat="46.17506" lon="6.64417">
        <ele>1474</ele>
        <time>2022-07-31T08:30:41Z</time>
      </trkpt>
      <trkpt lat="46.17506" lon="6.64416">
        <ele>1474</ele>
        <time>2022-07-31T08:30:42Z</time>
      </trkpt>
      <trkpt lat="46.17506" lon="6.64414">
        <ele>1474</ele>
        <time>2022-07-31T08:30:43Z</time>
      </trkpt>
      <trkpt lat="46.17507" lon="6.64413">
        <ele>1474</ele>
        <time>2022-07-31T08:30:44Z</time>
      </trkpt>
      <trkpt lat="46.17507" lon="6.64411">
        <ele>1474</ele>
        <time>2022-07-31T08:30:45Z</time>
      </trkpt>
      <trkpt lat="46.17507" lon="6.64411">
        <ele>1474</ele>
        <time>2022-07-31T08:30:46Z</time>
      </trkpt>
      <trkpt lat="46.17508" lon="6.6441">
        <ele>1474</ele>
        <time>2022-07-31T08:30:47Z</time>
      </trkpt>
      <trkpt lat="46.17508" lon="6.64409">
        <ele>1474</ele>
        <time>2022-07-31T08:30:48Z</time>
      </trkpt>
      <trkpt lat="46.17508" lon="6.64408">
        <ele>1474</ele>
        <time>2022-07-31T08:30:49Z</time>
      </trkpt>
      <trkpt lat="46.17508" lon="6.64407">
        <ele>1474</ele>
        <time>2022-07-31T08:30:50Z</time>
      </trkpt>
      <trkpt lat="46.17508" lon="6.64405">
        <ele>1474</ele>
        <time>2022-07-31T08:30:51Z</time>
      </trkpt>
      <trkpt lat="46.17508" lon="6.64404">
        <ele>1474</ele>
        <time>2022-07-31T08:30:52Z</time>
      </trkpt>
      <trkpt lat="46.17508" lon="6.64402">
        <ele>1474</ele>
        <time>2022-07-31T08:30:53Z</time>
      </trkpt>
      <trkpt lat="46.17508" lon="6.644">
        <ele>1474</ele>
        <time>2022-07-31T08:30:54Z</time>
      </trkpt>
      <trkpt lat="46.17508" lon="6.64399">
        <ele>1474</ele>
        <time>2022-07-31T08:30:55Z</time>
      </trkpt>
      <trkpt lat="46.17507" lon="6.64398">
        <ele>1474</ele>
        <time>2022-07-31T08:30:56Z</time>
      </trkpt>
      <trkpt lat="46.17507" lon="6.64396">
        <ele>1474</ele>
        <time>2022-07-31T08:30:57Z</time>
      </trkpt>
      <trkpt lat="46.17508" lon="6.64395">
        <ele>1474</ele>
        <time>2022-07-31T08:30:58Z</time>
      </trkpt>
      <trkpt lat="46.17509" lon="6.64393">
        <ele>1474</ele>
        <time>2022-07-31T08:30:59Z</time>
      </trkpt>
      <trkpt lat="46.17509" lon="6.64391">
        <ele>1474</ele>
        <time>2022-07-31T08:31:00Z</time>
      </trkpt>
      <trkpt lat="46.17509" lon="6.64389">
        <ele>1474</ele>
        <time>2022-07-31T08:31:01Z</time>
      </trkpt>
      <trkpt lat="46.17509" lon="6.64388">
        <ele>1474</ele>
        <time>2022-07-31T08:31:02Z</time>
      </trkpt>
      <trkpt lat="46.17509" lon="6.64387">
        <ele>1474</ele>
        <time>2022-07-31T08:31:03Z</time>
      </trkpt>
      <trkpt lat="46.1751" lon="6.64386">
        <ele>1474</ele>
        <time>2022-07-31T08:31:04Z</time>
      </trkpt>
      <trkpt lat="46.1751" lon="6.64384">
        <ele>1474</ele>
        <time>2022-07-31T08:31:05Z</time>
      </trkpt>
      <trkpt lat="46.17509" lon="6.64382">
        <ele>1475</ele>
        <time>2022-07-31T08:31:06Z</time>
      </trkpt>
      <trkpt lat="46.17509" lon="6.6438">
        <ele>1475</ele>
        <time>2022-07-31T08:31:07Z</time>
      </trkpt>
      <trkpt lat="46.17508" lon="6.64378">
        <ele>1475</ele>
        <time>2022-07-31T08:31:08Z</time>
      </trkpt>
      <trkpt lat="46.17507" lon="6.64376">
        <ele>1475</ele>
        <time>2022-07-31T08:31:09Z</time>
      </trkpt>
      <trkpt lat="46.17507" lon="6.64374">
        <ele>1475</ele>
        <time>2022-07-31T08:31:10Z</time>
      </trkpt>
      <trkpt lat="46.17507" lon="6.64372">
        <ele>1475</ele>
        <time>2022-07-31T08:31:11Z</time>
      </trkpt>
      <trkpt lat="46.17507" lon="6.64371">
        <ele>1475</ele>
        <time>2022-07-31T08:31:12Z</time>
      </trkpt>
      <trkpt lat="46.17507" lon="6.6437">
        <ele>1475</ele>
        <time>2022-07-31T08:31:13Z</time>
      </trkpt>
      <trkpt lat="46.17506" lon="6.64369">
        <ele>1474</ele>
        <time>2022-07-31T08:31:14Z</time>
      </trkpt>
      <trkpt lat="46.17505" lon="6.64367">
        <ele>1474</ele>
        <time>2022-07-31T08:31:15Z</time>
      </trkpt>
      <trkpt lat="46.17504" lon="6.64365">
        <ele>1474</ele>
        <time>2022-07-31T08:31:16Z</time>
      </trkpt>
      <trkpt lat="46.17503" lon="6.64364">
        <ele>1474</ele>
        <time>2022-07-31T08:31:17Z</time>
      </trkpt>
      <trkpt lat="46.17502" lon="6.64362">
        <ele>1474</ele>
        <time>2022-07-31T08:31:18Z</time>
      </trkpt>
      <trkpt lat="46.17501" lon="6.64361">
        <ele>1474</ele>
        <time>2022-07-31T08:31:19Z</time>
      </trkpt>
      <trkpt lat="46.175" lon="6.6436">
        <ele>1474</ele>
        <time>2022-07-31T08:31:20Z</time>
      </trkpt>
      <trkpt lat="46.175" lon="6.64359">
        <ele>1474</ele>
        <time>2022-07-31T08:31:21Z</time>
      </trkpt>
      <trkpt lat="46.17498" lon="6.64358">
        <ele>1474</ele>
        <time>2022-07-31T08:31:22Z</time>
      </trkpt>
      <trkpt lat="46.17497" lon="6.64356">
        <ele>1474</ele>
        <time>2022-07-31T08:31:23Z</time>
      </trkpt>
      <trkpt lat="46.17497" lon="6.64355">
        <ele>1474</ele>
        <time>2022-07-31T08:31:24Z</time>
      </trkpt>
      <trkpt lat="46.17495" lon="6.64353">
        <ele>1474</ele>
        <time>2022-07-31T08:31:25Z</time>
      </trkpt>
      <trkpt lat="46.17494" lon="6.64352">
        <ele>1474</ele>
        <time>2022-07-31T08:31:26Z</time>
      </trkpt>
      <trkpt lat="46.17493" lon="6.64351">
        <ele>1474</ele>
        <time>2022-07-31T08:31:27Z</time>
      </trkpt>
      <trkpt lat="46.17492" lon="6.64349">
        <ele>1474</ele>
        <time>2022-07-31T08:31:28Z</time>
      </trkpt>
      <trkpt lat="46.17491" lon="6.64346">
        <ele>1474</ele>
        <time>2022-07-31T08:31:29Z</time>
      </trkpt>
      <trkpt lat="46.1749" lon="6.64345">
        <ele>1475</ele>
        <time>2022-07-31T08:31:30Z</time>
      </trkpt>
      <trkpt lat="46.17489" lon="6.64343">
        <ele>1475</ele>
        <time>2022-07-31T08:31:31Z</time>
      </trkpt>
      <trkpt lat="46.17489" lon="6.64342">
        <ele>1475</ele>
        <time>2022-07-31T08:31:32Z</time>
      </trkpt>
      <trkpt lat="46.17489" lon="6.6434">
        <ele>1475</ele>
        <time>2022-07-31T08:31:33Z</time>
      </trkpt>
      <trkpt lat="46.17489" lon="6.6434">
        <ele>1475</ele>
        <time>2022-07-31T08:31:34Z</time>
      </trkpt>
      <trkpt lat="46.17489" lon="6.6434">
        <ele>1475</ele>
        <time>2022-07-31T08:31:35Z</time>
      </trkpt>
      <trkpt lat="46.17489" lon="6.64339">
        <ele>1475</ele>
        <time>2022-07-31T08:31:36Z</time>
      </trkpt>
      <trkpt lat="46.17489" lon="6.64338">
        <ele>1476</ele>
        <time>2022-07-31T08:31:37Z</time>
      </trkpt>
      <trkpt lat="46.17489" lon="6.64337">
        <ele>1476</ele>
        <time>2022-07-31T08:31:38Z</time>
      </trkpt>
      <trkpt lat="46.17489" lon="6.64335">
        <ele>1476</ele>
        <time>2022-07-31T08:31:39Z</time>
      </trkpt>
      <trkpt lat="46.1749" lon="6.64333">
        <ele>1476</ele>
        <time>2022-07-31T08:31:40Z</time>
      </trkpt>
      <trkpt lat="46.1749" lon="6.64331">
        <ele>1477</ele>
        <time>2022-07-31T08:31:41Z</time>
      </trkpt>
      <trkpt lat="46.1749" lon="6.6433">
        <ele>1477</ele>
        <time>2022-07-31T08:31:42Z</time>
      </trkpt>
      <trkpt lat="46.1749" lon="6.6433">
        <ele>1477</ele>
        <time>2022-07-31T08:31:43Z</time>
      </trkpt>
      <trkpt lat="46.1749" lon="6.64328">
        <ele>1477</ele>
        <time>2022-07-31T08:31:44Z</time>
      </trkpt>
      <trkpt lat="46.17491" lon="6.64326">
        <ele>1477</ele>
        <time>2022-07-31T08:31:45Z</time>
      </trkpt>
      <trkpt lat="46.17491" lon="6.64324">
        <ele>1478</ele>
        <time>2022-07-31T08:31:46Z</time>
      </trkpt>
      <trkpt lat="46.17491" lon="6.64323">
        <ele>1478</ele>
        <time>2022-07-31T08:31:47Z</time>
      </trkpt>
      <trkpt lat="46.17492" lon="6.64322">
        <ele>1478</ele>
        <time>2022-07-31T08:31:48Z</time>
      </trkpt>
      <trkpt lat="46.17492" lon="6.64321">
        <ele>1478</ele>
        <time>2022-07-31T08:31:49Z</time>
      </trkpt>
      <trkpt lat="46.17492" lon="6.64319">
        <ele>1478</ele>
        <time>2022-07-31T08:31:50Z</time>
      </trkpt>
      <trkpt lat="46.17492" lon="6.64318">
        <ele>1479</ele>
        <time>2022-07-31T08:31:51Z</time>
      </trkpt>
      <trkpt lat="46.17493" lon="6.64317">
        <ele>1479</ele>
        <time>2022-07-31T08:31:52Z</time>
      </trkpt>
      <trkpt lat="46.17493" lon="6.64316">
        <ele>1479</ele>
        <time>2022-07-31T08:31:53Z</time>
      </trkpt>
      <trkpt lat="46.17493" lon="6.64316">
        <ele>1479</ele>
        <time>2022-07-31T08:31:54Z</time>
      </trkpt>
      <trkpt lat="46.17493" lon="6.64315">
        <ele>1479</ele>
        <time>2022-07-31T08:31:55Z</time>
      </trkpt>
      <trkpt lat="46.17493" lon="6.64314">
        <ele>1479</ele>
        <time>2022-07-31T08:31:56Z</time>
      </trkpt>
      <trkpt lat="46.17493" lon="6.64312">
        <ele>1479</ele>
        <time>2022-07-31T08:31:57Z</time>
      </trkpt>
      <trkpt lat="46.17493" lon="6.64311">
        <ele>1479</ele>
        <time>2022-07-31T08:31:58Z</time>
      </trkpt>
      <trkpt lat="46.17493" lon="6.6431">
        <ele>1479</ele>
        <time>2022-07-31T08:31:59Z</time>
      </trkpt>
      <trkpt lat="46.17494" lon="6.64309">
        <ele>1479</ele>
        <time>2022-07-31T08:32:00Z</time>
      </trkpt>
      <trkpt lat="46.17493" lon="6.64308">
        <ele>1479</ele>
        <time>2022-07-31T08:32:01Z</time>
      </trkpt>
      <trkpt lat="46.17493" lon="6.64307">
        <ele>1479</ele>
        <time>2022-07-31T08:32:02Z</time>
      </trkpt>
      <trkpt lat="46.17493" lon="6.64305">
        <ele>1479</ele>
        <time>2022-07-31T08:32:03Z</time>
      </trkpt>
      <trkpt lat="46.17493" lon="6.64304">
        <ele>1479</ele>
        <time>2022-07-31T08:32:04Z</time>
      </trkpt>
      <trkpt lat="46.17492" lon="6.64303">
        <ele>1479</ele>
        <time>2022-07-31T08:32:05Z</time>
      </trkpt>
      <trkpt lat="46.17491" lon="6.64302">
        <ele>1479</ele>
        <time>2022-07-31T08:32:06Z</time>
      </trkpt>
      <trkpt lat="46.1749" lon="6.64301">
        <ele>1479</ele>
        <time>2022-07-31T08:32:07Z</time>
      </trkpt>
      <trkpt lat="46.1749" lon="6.643">
        <ele>1479</ele>
        <time>2022-07-31T08:32:08Z</time>
      </trkpt>
      <trkpt lat="46.17489" lon="6.64298">
        <ele>1479</ele>
        <time>2022-07-31T08:32:09Z</time>
      </trkpt>
      <trkpt lat="46.17489" lon="6.64296">
        <ele>1479</ele>
        <time>2022-07-31T08:32:10Z</time>
      </trkpt>
      <trkpt lat="46.17489" lon="6.64294">
        <ele>1479</ele>
        <time>2022-07-31T08:32:11Z</time>
      </trkpt>
      <trkpt lat="46.17489" lon="6.64293">
        <ele>1479</ele>
        <time>2022-07-31T08:32:12Z</time>
      </trkpt>
      <trkpt lat="46.17489" lon="6.64292">
        <ele>1479</ele>
        <time>2022-07-31T08:32:13Z</time>
      </trkpt>
      <trkpt lat="46.17489" lon="6.64291">
        <ele>1479</ele>
        <time>2022-07-31T08:32:14Z</time>
      </trkpt>
      <trkpt lat="46.17488" lon="6.64288">
        <ele>1479</ele>
        <time>2022-07-31T08:32:15Z</time>
      </trkpt>
      <trkpt lat="46.17487" lon="6.64287">
        <ele>1479</ele>
        <time>2022-07-31T08:32:16Z</time>
      </trkpt>
      <trkpt lat="46.17487" lon="6.64285">
        <ele>1479</ele>
        <time>2022-07-31T08:32:17Z</time>
      </trkpt>
      <trkpt lat="46.17487" lon="6.64284">
        <ele>1479</ele>
        <time>2022-07-31T08:32:18Z</time>
      </trkpt>
      <trkpt lat="46.17486" lon="6.64283">
        <ele>1479</ele>
        <time>2022-07-31T08:32:19Z</time>
      </trkpt>
      <trkpt lat="46.17486" lon="6.64282">
        <ele>1479</ele>
        <time>2022-07-31T08:32:20Z</time>
      </trkpt>
      <trkpt lat="46.17486" lon="6.64281">
        <ele>1479</ele>
        <time>2022-07-31T08:32:21Z</time>
      </trkpt>
      <trkpt lat="46.17486" lon="6.6428">
        <ele>1479</ele>
        <time>2022-07-31T08:32:22Z</time>
      </trkpt>
      <trkpt lat="46.17487" lon="6.64279">
        <ele>1479</ele>
        <time>2022-07-31T08:32:23Z</time>
      </trkpt>
      <trkpt lat="46.17487" lon="6.64278">
        <ele>1479</ele>
        <time>2022-07-31T08:32:24Z</time>
      </trkpt>
      <trkpt lat="46.17488" lon="6.64277">
        <ele>1479</ele>
        <time>2022-07-31T08:32:25Z</time>
      </trkpt>
      <trkpt lat="46.17487" lon="6.64276">
        <ele>1478</ele>
        <time>2022-07-31T08:32:26Z</time>
      </trkpt>
      <trkpt lat="46.17487" lon="6.64274">
        <ele>1478</ele>
        <time>2022-07-31T08:32:27Z</time>
      </trkpt>
      <trkpt lat="46.17487" lon="6.64273">
        <ele>1478</ele>
        <time>2022-07-31T08:32:28Z</time>
      </trkpt>
      <trkpt lat="46.17487" lon="6.64272">
        <ele>1478</ele>
        <time>2022-07-31T08:32:29Z</time>
      </trkpt>
      <trkpt lat="46.17487" lon="6.64271">
        <ele>1478</ele>
        <time>2022-07-31T08:32:30Z</time>
      </trkpt>
      <trkpt lat="46.17487" lon="6.64269">
        <ele>1478</ele>
        <time>2022-07-31T08:32:31Z</time>
      </trkpt>
      <trkpt lat="46.17487" lon="6.64268">
        <ele>1478</ele>
        <time>2022-07-31T08:32:32Z</time>
      </trkpt>
      <trkpt lat="46.17487" lon="6.64267">
        <ele>1478</ele>
        <time>2022-07-31T08:32:33Z</time>
      </trkpt>
      <trkpt lat="46.17487" lon="6.64266">
        <ele>1478</ele>
        <time>2022-07-31T08:32:34Z</time>
      </trkpt>
      <trkpt lat="46.17488" lon="6.64265">
        <ele>1478</ele>
        <time>2022-07-31T08:32:35Z</time>
      </trkpt>
      <trkpt lat="46.17488" lon="6.64264">
        <ele>1478</ele>
        <time>2022-07-31T08:32:36Z</time>
      </trkpt>
      <trkpt lat="46.17488" lon="6.64262">
        <ele>1478</ele>
        <time>2022-07-31T08:32:37Z</time>
      </trkpt>
      <trkpt lat="46.17487" lon="6.6426">
        <ele>1478</ele>
        <time>2022-07-31T08:32:38Z</time>
      </trkpt>
      <trkpt lat="46.17487" lon="6.64258">
        <ele>1478</ele>
        <time>2022-07-31T08:32:39Z</time>
      </trkpt>
      <trkpt lat="46.17487" lon="6.64255">
        <ele>1478</ele>
        <time>2022-07-31T08:32:40Z</time>
      </trkpt>
      <trkpt lat="46.17486" lon="6.64253">
        <ele>1478</ele>
        <time>2022-07-31T08:32:41Z</time>
      </trkpt>
      <trkpt lat="46.17485" lon="6.64251">
        <ele>1478</ele>
        <time>2022-07-31T08:32:42Z</time>
      </trkpt>
      <trkpt lat="46.17485" lon="6.6425">
        <ele>1478</ele>
        <time>2022-07-31T08:32:43Z</time>
      </trkpt>
      <trkpt lat="46.17483" lon="6.64247">
        <ele>1478</ele>
        <time>2022-07-31T08:32:44Z</time>
      </trkpt>
      <trkpt lat="46.17483" lon="6.64246">
        <ele>1478</ele>
        <time>2022-07-31T08:32:45Z</time>
      </trkpt>
      <trkpt lat="46.17483" lon="6.64245">
        <ele>1478</ele>
        <time>2022-07-31T08:32:46Z</time>
      </trkpt>
      <trkpt lat="46.17483" lon="6.64243">
        <ele>1478</ele>
        <time>2022-07-31T08:32:47Z</time>
      </trkpt>
      <trkpt lat="46.17482" lon="6.64242">
        <ele>1478</ele>
        <time>2022-07-31T08:32:48Z</time>
      </trkpt>
      <trkpt lat="46.17482" lon="6.6424">
        <ele>1478</ele>
        <time>2022-07-31T08:32:49Z</time>
      </trkpt>
      <trkpt lat="46.17482" lon="6.64238">
        <ele>1478</ele>
        <time>2022-07-31T08:32:50Z</time>
      </trkpt>
      <trkpt lat="46.17482" lon="6.64237">
        <ele>1478</ele>
        <time>2022-07-31T08:32:51Z</time>
      </trkpt>
      <trkpt lat="46.17482" lon="6.64236">
        <ele>1478</ele>
        <time>2022-07-31T08:32:52Z</time>
      </trkpt>
      <trkpt lat="46.17482" lon="6.64235">
        <ele>1478</ele>
        <time>2022-07-31T08:32:53Z</time>
      </trkpt>
      <trkpt lat="46.17482" lon="6.64234">
        <ele>1478</ele>
        <time>2022-07-31T08:32:54Z</time>
      </trkpt>
      <trkpt lat="46.17482" lon="6.64234">
        <ele>1478</ele>
        <time>2022-07-31T08:32:55Z</time>
      </trkpt>
      <trkpt lat="46.17483" lon="6.64233">
        <ele>1478</ele>
        <time>2022-07-31T08:32:56Z</time>
      </trkpt>
      <trkpt lat="46.17483" lon="6.64232">
        <ele>1478</ele>
        <time>2022-07-31T08:32:57Z</time>
      </trkpt>
      <trkpt lat="46.17483" lon="6.64231">
        <ele>1478</ele>
        <time>2022-07-31T08:32:58Z</time>
      </trkpt>
      <trkpt lat="46.17483" lon="6.64231">
        <ele>1478</ele>
        <time>2022-07-31T08:32:59Z</time>
      </trkpt>
      <trkpt lat="46.17484" lon="6.6423">
        <ele>1478</ele>
        <time>2022-07-31T08:33:00Z</time>
      </trkpt>
      <trkpt lat="46.17484" lon="6.64229">
        <ele>1478</ele>
        <time>2022-07-31T08:33:01Z</time>
      </trkpt>
      <trkpt lat="46.17483" lon="6.64229">
        <ele>1478</ele>
        <time>2022-07-31T08:33:02Z</time>
      </trkpt>
      <trkpt lat="46.17483" lon="6.64229">
        <ele>1478</ele>
        <time>2022-07-31T08:33:03Z</time>
      </trkpt>
      <trkpt lat="46.17483" lon="6.64229">
        <ele>1478</ele>
        <time>2022-07-31T08:33:04Z</time>
      </trkpt>
      <trkpt lat="46.17482" lon="6.64229">
        <ele>1478</ele>
        <time>2022-07-31T08:33:05Z</time>
      </trkpt>
      <trkpt lat="46.17482" lon="6.64229">
        <ele>1478</ele>
        <time>2022-07-31T08:33:06Z</time>
      </trkpt>
      <trkpt lat="46.17482" lon="6.64229">
        <ele>1479</ele>
        <time>2022-07-31T08:33:07Z</time>
      </trkpt>
      <trkpt lat="46.17482" lon="6.64227">
        <ele>1479</ele>
        <time>2022-07-31T08:33:08Z</time>
      </trkpt>
      <trkpt lat="46.17482" lon="6.64225">
        <ele>1479</ele>
        <time>2022-07-31T08:33:09Z</time>
      </trkpt>
      <trkpt lat="46.17481" lon="6.64224">
        <ele>1479</ele>
        <time>2022-07-31T08:33:10Z</time>
      </trkpt>
      <trkpt lat="46.17481" lon="6.64223">
        <ele>1479</ele>
        <time>2022-07-31T08:33:11Z</time>
      </trkpt>
      <trkpt lat="46.1748" lon="6.64223">
        <ele>1479</ele>
        <time>2022-07-31T08:33:12Z</time>
      </trkpt>
      <trkpt lat="46.1748" lon="6.64222">
        <ele>1479</ele>
        <time>2022-07-31T08:33:13Z</time>
      </trkpt>
      <trkpt lat="46.17478" lon="6.64221">
        <ele>1479</ele>
        <time>2022-07-31T08:33:14Z</time>
      </trkpt>
      <trkpt lat="46.17477" lon="6.6422">
        <ele>1480</ele>
        <time>2022-07-31T08:33:15Z</time>
      </trkpt>
      <trkpt lat="46.17476" lon="6.64219">
        <ele>1480</ele>
        <time>2022-07-31T08:33:16Z</time>
      </trkpt>
      <trkpt lat="46.17475" lon="6.64218">
        <ele>1480</ele>
        <time>2022-07-31T08:33:17Z</time>
      </trkpt>
      <trkpt lat="46.17475" lon="6.64217">
        <ele>1480</ele>
        <time>2022-07-31T08:33:18Z</time>
      </trkpt>
      <trkpt lat="46.17475" lon="6.64216">
        <ele>1480</ele>
        <time>2022-07-31T08:33:19Z</time>
      </trkpt>
      <trkpt lat="46.17475" lon="6.64215">
        <ele>1480</ele>
        <time>2022-07-31T08:33:20Z</time>
      </trkpt>
      <trkpt lat="46.17474" lon="6.64214">
        <ele>1480</ele>
        <time>2022-07-31T08:33:21Z</time>
      </trkpt>
      <trkpt lat="46.17474" lon="6.64212">
        <ele>1480</ele>
        <time>2022-07-31T08:33:22Z</time>
      </trkpt>
      <trkpt lat="46.17474" lon="6.6421">
        <ele>1480</ele>
        <time>2022-07-31T08:33:23Z</time>
      </trkpt>
      <trkpt lat="46.17474" lon="6.64209">
        <ele>1480</ele>
        <time>2022-07-31T08:33:24Z</time>
      </trkpt>
      <trkpt lat="46.17474" lon="6.64208">
        <ele>1480</ele>
        <time>2022-07-31T08:33:25Z</time>
      </trkpt>
      <trkpt lat="46.17474" lon="6.64206">
        <ele>1480</ele>
        <time>2022-07-31T08:33:26Z</time>
      </trkpt>
      <trkpt lat="46.17473" lon="6.64205">
        <ele>1480</ele>
        <time>2022-07-31T08:33:27Z</time>
      </trkpt>
      <trkpt lat="46.17473" lon="6.64203">
        <ele>1480</ele>
        <time>2022-07-31T08:33:28Z</time>
      </trkpt>
      <trkpt lat="46.17472" lon="6.64201">
        <ele>1480</ele>
        <time>2022-07-31T08:33:29Z</time>
      </trkpt>
      <trkpt lat="46.17472" lon="6.64199">
        <ele>1481</ele>
        <time>2022-07-31T08:33:30Z</time>
      </trkpt>
      <trkpt lat="46.17471" lon="6.64198">
        <ele>1481</ele>
        <time>2022-07-31T08:33:31Z</time>
      </trkpt>
      <trkpt lat="46.1747" lon="6.64196">
        <ele>1481</ele>
        <time>2022-07-31T08:33:32Z</time>
      </trkpt>
      <trkpt lat="46.17469" lon="6.64194">
        <ele>1481</ele>
        <time>2022-07-31T08:33:33Z</time>
      </trkpt>
      <trkpt lat="46.17468" lon="6.64192">
        <ele>1481</ele>
        <time>2022-07-31T08:33:34Z</time>
      </trkpt>
      <trkpt lat="46.17468" lon="6.64191">
        <ele>1481</ele>
        <time>2022-07-31T08:33:35Z</time>
      </trkpt>
      <trkpt lat="46.17468" lon="6.6419">
        <ele>1482</ele>
        <time>2022-07-31T08:33:36Z</time>
      </trkpt>
      <trkpt lat="46.17467" lon="6.64189">
        <ele>1482</ele>
        <time>2022-07-31T08:33:37Z</time>
      </trkpt>
      <trkpt lat="46.17467" lon="6.64188">
        <ele>1482</ele>
        <time>2022-07-31T08:33:38Z</time>
      </trkpt>
      <trkpt lat="46.17467" lon="6.64186">
        <ele>1482</ele>
        <time>2022-07-31T08:33:39Z</time>
      </trkpt>
      <trkpt lat="46.17467" lon="6.64185">
        <ele>1482</ele>
        <time>2022-07-31T08:33:40Z</time>
      </trkpt>
      <trkpt lat="46.17468" lon="6.64183">
        <ele>1482</ele>
        <time>2022-07-31T08:33:41Z</time>
      </trkpt>
      <trkpt lat="46.17468" lon="6.64181">
        <ele>1483</ele>
        <time>2022-07-31T08:33:42Z</time>
      </trkpt>
      <trkpt lat="46.17468" lon="6.64179">
        <ele>1483</ele>
        <time>2022-07-31T08:33:43Z</time>
      </trkpt>
      <trkpt lat="46.17468" lon="6.64177">
        <ele>1483</ele>
        <time>2022-07-31T08:33:44Z</time>
      </trkpt>
      <trkpt lat="46.17468" lon="6.64175">
        <ele>1483</ele>
        <time>2022-07-31T08:33:45Z</time>
      </trkpt>
      <trkpt lat="46.17467" lon="6.64173">
        <ele>1483</ele>
        <time>2022-07-31T08:33:46Z</time>
      </trkpt>
      <trkpt lat="46.17467" lon="6.64172">
        <ele>1484</ele>
        <time>2022-07-31T08:33:47Z</time>
      </trkpt>
      <trkpt lat="46.17467" lon="6.6417">
        <ele>1484</ele>
        <time>2022-07-31T08:33:48Z</time>
      </trkpt>
      <trkpt lat="46.17467" lon="6.64169">
        <ele>1484</ele>
        <time>2022-07-31T08:33:49Z</time>
      </trkpt>
      <trkpt lat="46.17467" lon="6.64167">
        <ele>1484</ele>
        <time>2022-07-31T08:33:50Z</time>
      </trkpt>
      <trkpt lat="46.17467" lon="6.64165">
        <ele>1484</ele>
        <time>2022-07-31T08:33:51Z</time>
      </trkpt>
      <trkpt lat="46.17468" lon="6.64163">
        <ele>1484</ele>
        <time>2022-07-31T08:33:52Z</time>
      </trkpt>
      <trkpt lat="46.17468" lon="6.64162">
        <ele>1484</ele>
        <time>2022-07-31T08:33:53Z</time>
      </trkpt>
      <trkpt lat="46.17467" lon="6.64161">
        <ele>1484</ele>
        <time>2022-07-31T08:33:54Z</time>
      </trkpt>
      <trkpt lat="46.17466" lon="6.64159">
        <ele>1484</ele>
        <time>2022-07-31T08:33:55Z</time>
      </trkpt>
      <trkpt lat="46.17465" lon="6.64157">
        <ele>1484</ele>
        <time>2022-07-31T08:33:56Z</time>
      </trkpt>
      <trkpt lat="46.17464" lon="6.64155">
        <ele>1484</ele>
        <time>2022-07-31T08:33:57Z</time>
      </trkpt>
      <trkpt lat="46.17463" lon="6.64153">
        <ele>1485</ele>
        <time>2022-07-31T08:33:58Z</time>
      </trkpt>
      <trkpt lat="46.17461" lon="6.6415">
        <ele>1485</ele>
        <time>2022-07-31T08:33:59Z</time>
      </trkpt>
      <trkpt lat="46.1746" lon="6.64148">
        <ele>1485</ele>
        <time>2022-07-31T08:34:00Z</time>
      </trkpt>
      <trkpt lat="46.1746" lon="6.64148">
        <ele>1485</ele>
        <time>2022-07-31T08:34:01Z</time>
      </trkpt>
      <trkpt lat="46.17461" lon="6.64146">
        <ele>1485</ele>
        <time>2022-07-31T08:34:02Z</time>
      </trkpt>
      <trkpt lat="46.17461" lon="6.64145">
        <ele>1485</ele>
        <time>2022-07-31T08:34:03Z</time>
      </trkpt>
      <trkpt lat="46.1746" lon="6.64143">
        <ele>1485</ele>
        <time>2022-07-31T08:34:04Z</time>
      </trkpt>
      <trkpt lat="46.1746" lon="6.64141">
        <ele>1485</ele>
        <time>2022-07-31T08:34:05Z</time>
      </trkpt>
      <trkpt lat="46.17459" lon="6.64139">
        <ele>1485</ele>
        <time>2022-07-31T08:34:06Z</time>
      </trkpt>
      <trkpt lat="46.17458" lon="6.64137">
        <ele>1485</ele>
        <time>2022-07-31T08:34:07Z</time>
      </trkpt>
      <trkpt lat="46.17458" lon="6.64135">
        <ele>1485</ele>
        <time>2022-07-31T08:34:08Z</time>
      </trkpt>
      <trkpt lat="46.17458" lon="6.64134">
        <ele>1485</ele>
        <time>2022-07-31T08:34:09Z</time>
      </trkpt>
      <trkpt lat="46.17458" lon="6.64132">
        <ele>1485</ele>
        <time>2022-07-31T08:34:10Z</time>
      </trkpt>
      <trkpt lat="46.17458" lon="6.64131">
        <ele>1485</ele>
        <time>2022-07-31T08:34:11Z</time>
      </trkpt>
      <trkpt lat="46.17458" lon="6.64129">
        <ele>1485</ele>
        <time>2022-07-31T08:34:12Z</time>
      </trkpt>
      <trkpt lat="46.17458" lon="6.64128">
        <ele>1484</ele>
        <time>2022-07-31T08:34:13Z</time>
      </trkpt>
      <trkpt lat="46.17458" lon="6.64127">
        <ele>1484</ele>
        <time>2022-07-31T08:34:14Z</time>
      </trkpt>
      <trkpt lat="46.17458" lon="6.64126">
        <ele>1484</ele>
        <time>2022-07-31T08:34:15Z</time>
      </trkpt>
      <trkpt lat="46.17457" lon="6.64125">
        <ele>1484</ele>
        <time>2022-07-31T08:34:16Z</time>
      </trkpt>
      <trkpt lat="46.17457" lon="6.64123">
        <ele>1484</ele>
        <time>2022-07-31T08:34:17Z</time>
      </trkpt>
      <trkpt lat="46.17457" lon="6.64123">
        <ele>1484</ele>
        <time>2022-07-31T08:34:18Z</time>
      </trkpt>
      <trkpt lat="46.17457" lon="6.64121">
        <ele>1484</ele>
        <time>2022-07-31T08:34:19Z</time>
      </trkpt>
      <trkpt lat="46.17457" lon="6.6412">
        <ele>1484</ele>
        <time>2022-07-31T08:34:20Z</time>
      </trkpt>
      <trkpt lat="46.17456" lon="6.64118">
        <ele>1483</ele>
        <time>2022-07-31T08:34:21Z</time>
      </trkpt>
      <trkpt lat="46.17456" lon="6.64116">
        <ele>1483</ele>
        <time>2022-07-31T08:34:22Z</time>
      </trkpt>
      <trkpt lat="46.17454" lon="6.64114">
        <ele>1483</ele>
        <time>2022-07-31T08:34:23Z</time>
      </trkpt>
      <trkpt lat="46.17454" lon="6.64112">
        <ele>1483</ele>
        <time>2022-07-31T08:34:24Z</time>
      </trkpt>
      <trkpt lat="46.17454" lon="6.64111">
        <ele>1483</ele>
        <time>2022-07-31T08:34:25Z</time>
      </trkpt>
      <trkpt lat="46.17453" lon="6.6411">
        <ele>1483</ele>
        <time>2022-07-31T08:34:26Z</time>
      </trkpt>
      <trkpt lat="46.17453" lon="6.64109">
        <ele>1483</ele>
        <time>2022-07-31T08:34:27Z</time>
      </trkpt>
      <trkpt lat="46.17454" lon="6.64108">
        <ele>1483</ele>
        <time>2022-07-31T08:34:28Z</time>
      </trkpt>
      <trkpt lat="46.17454" lon="6.64106">
        <ele>1483</ele>
        <time>2022-07-31T08:34:29Z</time>
      </trkpt>
      <trkpt lat="46.17453" lon="6.64104">
        <ele>1483</ele>
        <time>2022-07-31T08:34:30Z</time>
      </trkpt>
      <trkpt lat="46.17453" lon="6.64103">
        <ele>1482</ele>
        <time>2022-07-31T08:34:31Z</time>
      </trkpt>
      <trkpt lat="46.17452" lon="6.64101">
        <ele>1482</ele>
        <time>2022-07-31T08:34:32Z</time>
      </trkpt>
      <trkpt lat="46.1745" lon="6.641">
        <ele>1482</ele>
        <time>2022-07-31T08:34:33Z</time>
      </trkpt>
      <trkpt lat="46.17449" lon="6.64098">
        <ele>1482</ele>
        <time>2022-07-31T08:34:34Z</time>
      </trkpt>
      <trkpt lat="46.17448" lon="6.64097">
        <ele>1482</ele>
        <time>2022-07-31T08:34:35Z</time>
      </trkpt>
      <trkpt lat="46.17446" lon="6.64096">
        <ele>1482</ele>
        <time>2022-07-31T08:34:36Z</time>
      </trkpt>
      <trkpt lat="46.17446" lon="6.64095">
        <ele>1482</ele>
        <time>2022-07-31T08:34:37Z</time>
      </trkpt>
      <trkpt lat="46.17445" lon="6.64093">
        <ele>1482</ele>
        <time>2022-07-31T08:34:38Z</time>
      </trkpt>
      <trkpt lat="46.17444" lon="6.64091">
        <ele>1482</ele>
        <time>2022-07-31T08:34:39Z</time>
      </trkpt>
      <trkpt lat="46.17443" lon="6.64089">
        <ele>1481</ele>
        <time>2022-07-31T08:34:40Z</time>
      </trkpt>
      <trkpt lat="46.17443" lon="6.64087">
        <ele>1481</ele>
        <time>2022-07-31T08:34:41Z</time>
      </trkpt>
      <trkpt lat="46.17443" lon="6.64087">
        <ele>1481</ele>
        <time>2022-07-31T08:34:42Z</time>
      </trkpt>
      <trkpt lat="46.17442" lon="6.64087">
        <ele>1481</ele>
        <time>2022-07-31T08:34:43Z</time>
      </trkpt>
      <trkpt lat="46.17442" lon="6.64086">
        <ele>1481</ele>
        <time>2022-07-31T08:34:44Z</time>
      </trkpt>
      <trkpt lat="46.17441" lon="6.64085">
        <ele>1481</ele>
        <time>2022-07-31T08:34:45Z</time>
      </trkpt>
      <trkpt lat="46.17441" lon="6.64083">
        <ele>1481</ele>
        <time>2022-07-31T08:34:46Z</time>
      </trkpt>
      <trkpt lat="46.17441" lon="6.64081">
        <ele>1481</ele>
        <time>2022-07-31T08:34:47Z</time>
      </trkpt>
      <trkpt lat="46.17441" lon="6.6408">
        <ele>1481</ele>
        <time>2022-07-31T08:34:48Z</time>
      </trkpt>
      <trkpt lat="46.17442" lon="6.64079">
        <ele>1481</ele>
        <time>2022-07-31T08:34:49Z</time>
      </trkpt>
      <trkpt lat="46.17442" lon="6.64078">
        <ele>1481</ele>
        <time>2022-07-31T08:34:50Z</time>
      </trkpt>
      <trkpt lat="46.17442" lon="6.64077">
        <ele>1481</ele>
        <time>2022-07-31T08:34:51Z</time>
      </trkpt>
      <trkpt lat="46.17442" lon="6.64077">
        <ele>1481</ele>
        <time>2022-07-31T08:34:52Z</time>
      </trkpt>
      <trkpt lat="46.17442" lon="6.64076">
        <ele>1481</ele>
        <time>2022-07-31T08:34:53Z</time>
      </trkpt>
      <trkpt lat="46.17443" lon="6.64076">
        <ele>1482</ele>
        <time>2022-07-31T08:34:54Z</time>
      </trkpt>
      <trkpt lat="46.17442" lon="6.64074">
        <ele>1482</ele>
        <time>2022-07-31T08:34:55Z</time>
      </trkpt>
      <trkpt lat="46.17441" lon="6.64073">
        <ele>1482</ele>
        <time>2022-07-31T08:34:56Z</time>
      </trkpt>
      <trkpt lat="46.17442" lon="6.64072">
        <ele>1482</ele>
        <time>2022-07-31T08:34:57Z</time>
      </trkpt>
      <trkpt lat="46.17441" lon="6.64071">
        <ele>1482</ele>
        <time>2022-07-31T08:34:58Z</time>
      </trkpt>
      <trkpt lat="46.17441" lon="6.64069">
        <ele>1482</ele>
        <time>2022-07-31T08:34:59Z</time>
      </trkpt>
      <trkpt lat="46.1744" lon="6.64067">
        <ele>1482</ele>
        <time>2022-07-31T08:35:00Z</time>
      </trkpt>
      <trkpt lat="46.1744" lon="6.64065">
        <ele>1482</ele>
        <time>2022-07-31T08:35:01Z</time>
      </trkpt>
      <trkpt lat="46.17439" lon="6.64062">
        <ele>1482</ele>
        <time>2022-07-31T08:35:02Z</time>
      </trkpt>
      <trkpt lat="46.17439" lon="6.6406">
        <ele>1482</ele>
        <time>2022-07-31T08:35:03Z</time>
      </trkpt>
      <trkpt lat="46.17438" lon="6.64059">
        <ele>1482</ele>
        <time>2022-07-31T08:35:04Z</time>
      </trkpt>
      <trkpt lat="46.17438" lon="6.64056">
        <ele>1482</ele>
        <time>2022-07-31T08:35:05Z</time>
      </trkpt>
      <trkpt lat="46.17438" lon="6.64054">
        <ele>1482</ele>
        <time>2022-07-31T08:35:06Z</time>
      </trkpt>
      <trkpt lat="46.17437" lon="6.64052">
        <ele>1482</ele>
        <time>2022-07-31T08:35:07Z</time>
      </trkpt>
      <trkpt lat="46.17437" lon="6.64051">
        <ele>1483</ele>
        <time>2022-07-31T08:35:08Z</time>
      </trkpt>
      <trkpt lat="46.17437" lon="6.64049">
        <ele>1483</ele>
        <time>2022-07-31T08:35:09Z</time>
      </trkpt>
      <trkpt lat="46.17436" lon="6.64048">
        <ele>1482</ele>
        <time>2022-07-31T08:35:10Z</time>
      </trkpt>
      <trkpt lat="46.17436" lon="6.64046">
        <ele>1482</ele>
        <time>2022-07-31T08:35:11Z</time>
      </trkpt>
      <trkpt lat="46.17435" lon="6.64044">
        <ele>1482</ele>
        <time>2022-07-31T08:35:12Z</time>
      </trkpt>
      <trkpt lat="46.17434" lon="6.64043">
        <ele>1482</ele>
        <time>2022-07-31T08:35:13Z</time>
      </trkpt>
      <trkpt lat="46.17434" lon="6.64041">
        <ele>1482</ele>
        <time>2022-07-31T08:35:14Z</time>
      </trkpt>
      <trkpt lat="46.17434" lon="6.64039">
        <ele>1482</ele>
        <time>2022-07-31T08:35:15Z</time>
      </trkpt>
      <trkpt lat="46.17434" lon="6.64038">
        <ele>1482</ele>
        <time>2022-07-31T08:35:16Z</time>
      </trkpt>
      <trkpt lat="46.17433" lon="6.64036">
        <ele>1482</ele>
        <time>2022-07-31T08:35:17Z</time>
      </trkpt>
      <trkpt lat="46.17433" lon="6.64035">
        <ele>1482</ele>
        <time>2022-07-31T08:35:18Z</time>
      </trkpt>
      <trkpt lat="46.17432" lon="6.64033">
        <ele>1482</ele>
        <time>2022-07-31T08:35:19Z</time>
      </trkpt>
      <trkpt lat="46.17432" lon="6.64031">
        <ele>1482</ele>
        <time>2022-07-31T08:35:20Z</time>
      </trkpt>
      <trkpt lat="46.17431" lon="6.6403">
        <ele>1482</ele>
        <time>2022-07-31T08:35:21Z</time>
      </trkpt>
      <trkpt lat="46.17431" lon="6.64028">
        <ele>1482</ele>
        <time>2022-07-31T08:35:22Z</time>
      </trkpt>
      <trkpt lat="46.17431" lon="6.64027">
        <ele>1482</ele>
        <time>2022-07-31T08:35:23Z</time>
      </trkpt>
      <trkpt lat="46.17431" lon="6.64026">
        <ele>1482</ele>
        <time>2022-07-31T08:35:24Z</time>
      </trkpt>
      <trkpt lat="46.17431" lon="6.64023">
        <ele>1482</ele>
        <time>2022-07-31T08:35:25Z</time>
      </trkpt>
      <trkpt lat="46.17431" lon="6.64021">
        <ele>1482</ele>
        <time>2022-07-31T08:35:26Z</time>
      </trkpt>
      <trkpt lat="46.17431" lon="6.6402">
        <ele>1482</ele>
        <time>2022-07-31T08:35:27Z</time>
      </trkpt>
      <trkpt lat="46.17431" lon="6.64018">
        <ele>1481</ele>
        <time>2022-07-31T08:35:28Z</time>
      </trkpt>
      <trkpt lat="46.1743" lon="6.64017">
        <ele>1482</ele>
        <time>2022-07-31T08:35:29Z</time>
      </trkpt>
      <trkpt lat="46.1743" lon="6.64015">
        <ele>1482</ele>
        <time>2022-07-31T08:35:30Z</time>
      </trkpt>
      <trkpt lat="46.17429" lon="6.64013">
        <ele>1482</ele>
        <time>2022-07-31T08:35:31Z</time>
      </trkpt>
      <trkpt lat="46.17429" lon="6.64011">
        <ele>1482</ele>
        <time>2022-07-31T08:35:32Z</time>
      </trkpt>
      <trkpt lat="46.17429" lon="6.64009">
        <ele>1482</ele>
        <time>2022-07-31T08:35:33Z</time>
      </trkpt>
      <trkpt lat="46.17428" lon="6.64007">
        <ele>1482</ele>
        <time>2022-07-31T08:35:34Z</time>
      </trkpt>
      <trkpt lat="46.17427" lon="6.64006">
        <ele>1482</ele>
        <time>2022-07-31T08:35:35Z</time>
      </trkpt>
      <trkpt lat="46.17427" lon="6.64004">
        <ele>1482</ele>
        <time>2022-07-31T08:35:36Z</time>
      </trkpt>
      <trkpt lat="46.17426" lon="6.64003">
        <ele>1483</ele>
        <time>2022-07-31T08:35:37Z</time>
      </trkpt>
      <trkpt lat="46.17426" lon="6.64001">
        <ele>1483</ele>
        <time>2022-07-31T08:35:38Z</time>
      </trkpt>
      <trkpt lat="46.17424" lon="6.63999">
        <ele>1483</ele>
        <time>2022-07-31T08:35:39Z</time>
      </trkpt>
      <trkpt lat="46.17423" lon="6.63998">
        <ele>1483</ele>
        <time>2022-07-31T08:35:40Z</time>
      </trkpt>
      <trkpt lat="46.17423" lon="6.63997">
        <ele>1483</ele>
        <time>2022-07-31T08:35:41Z</time>
      </trkpt>
      <trkpt lat="46.17422" lon="6.63995">
        <ele>1483</ele>
        <time>2022-07-31T08:35:42Z</time>
      </trkpt>
      <trkpt lat="46.17421" lon="6.63993">
        <ele>1483</ele>
        <time>2022-07-31T08:35:43Z</time>
      </trkpt>
      <trkpt lat="46.17421" lon="6.6399">
        <ele>1483</ele>
        <time>2022-07-31T08:35:44Z</time>
      </trkpt>
      <trkpt lat="46.17421" lon="6.63989">
        <ele>1483</ele>
        <time>2022-07-31T08:35:45Z</time>
      </trkpt>
      <trkpt lat="46.17421" lon="6.63987">
        <ele>1483</ele>
        <time>2022-07-31T08:35:46Z</time>
      </trkpt>
      <trkpt lat="46.1742" lon="6.63985">
        <ele>1483</ele>
        <time>2022-07-31T08:35:47Z</time>
      </trkpt>
      <trkpt lat="46.17419" lon="6.63983">
        <ele>1483</ele>
        <time>2022-07-31T08:35:48Z</time>
      </trkpt>
      <trkpt lat="46.17419" lon="6.63981">
        <ele>1483</ele>
        <time>2022-07-31T08:35:49Z</time>
      </trkpt>
      <trkpt lat="46.17417" lon="6.6398">
        <ele>1483</ele>
        <time>2022-07-31T08:35:50Z</time>
      </trkpt>
      <trkpt lat="46.17417" lon="6.6398">
        <ele>1483</ele>
        <time>2022-07-31T08:35:51Z</time>
      </trkpt>
      <trkpt lat="46.17416" lon="6.63978">
        <ele>1483</ele>
        <time>2022-07-31T08:35:52Z</time>
      </trkpt>
      <trkpt lat="46.17415" lon="6.63977">
        <ele>1482</ele>
        <time>2022-07-31T08:35:53Z</time>
      </trkpt>
      <trkpt lat="46.17414" lon="6.63976">
        <ele>1482</ele>
        <time>2022-07-31T08:35:54Z</time>
      </trkpt>
      <trkpt lat="46.17413" lon="6.63976">
        <ele>1482</ele>
        <time>2022-07-31T08:35:55Z</time>
      </trkpt>
      <trkpt lat="46.17412" lon="6.63976">
        <ele>1482</ele>
        <time>2022-07-31T08:35:56Z</time>
      </trkpt>
      <trkpt lat="46.17412" lon="6.63975">
        <ele>1482</ele>
        <time>2022-07-31T08:35:57Z</time>
      </trkpt>
      <trkpt lat="46.17411" lon="6.63975">
        <ele>1482</ele>
        <time>2022-07-31T08:35:58Z</time>
      </trkpt>
      <trkpt lat="46.1741" lon="6.63974">
        <ele>1482</ele>
        <time>2022-07-31T08:35:59Z</time>
      </trkpt>
      <trkpt lat="46.1741" lon="6.63973">
        <ele>1481</ele>
        <time>2022-07-31T08:36:00Z</time>
      </trkpt>
      <trkpt lat="46.1741" lon="6.63972">
        <ele>1481</ele>
        <time>2022-07-31T08:36:01Z</time>
      </trkpt>
      <trkpt lat="46.17409" lon="6.63969">
        <ele>1481</ele>
        <time>2022-07-31T08:36:02Z</time>
      </trkpt>
      <trkpt lat="46.17409" lon="6.63968">
        <ele>1481</ele>
        <time>2022-07-31T08:36:03Z</time>
      </trkpt>
      <trkpt lat="46.17409" lon="6.63967">
        <ele>1481</ele>
        <time>2022-07-31T08:36:04Z</time>
      </trkpt>
      <trkpt lat="46.17409" lon="6.63966">
        <ele>1481</ele>
        <time>2022-07-31T08:36:05Z</time>
      </trkpt>
      <trkpt lat="46.17409" lon="6.63964">
        <ele>1481</ele>
        <time>2022-07-31T08:36:06Z</time>
      </trkpt>
      <trkpt lat="46.17409" lon="6.63963">
        <ele>1481</ele>
        <time>2022-07-31T08:36:07Z</time>
      </trkpt>
      <trkpt lat="46.1741" lon="6.63962">
        <ele>1481</ele>
        <time>2022-07-31T08:36:08Z</time>
      </trkpt>
      <trkpt lat="46.1741" lon="6.6396">
        <ele>1480</ele>
        <time>2022-07-31T08:36:09Z</time>
      </trkpt>
      <trkpt lat="46.1741" lon="6.63958">
        <ele>1480</ele>
        <time>2022-07-31T08:36:10Z</time>
      </trkpt>
      <trkpt lat="46.1741" lon="6.63955">
        <ele>1480</ele>
        <time>2022-07-31T08:36:11Z</time>
      </trkpt>
      <trkpt lat="46.17411" lon="6.63952">
        <ele>1480</ele>
        <time>2022-07-31T08:36:12Z</time>
      </trkpt>
      <trkpt lat="46.17411" lon="6.6395">
        <ele>1480</ele>
        <time>2022-07-31T08:36:13Z</time>
      </trkpt>
      <trkpt lat="46.17411" lon="6.63948">
        <ele>1480</ele>
        <time>2022-07-31T08:36:14Z</time>
      </trkpt>
      <trkpt lat="46.17411" lon="6.63946">
        <ele>1480</ele>
        <time>2022-07-31T08:36:15Z</time>
      </trkpt>
      <trkpt lat="46.17412" lon="6.63944">
        <ele>1480</ele>
        <time>2022-07-31T08:36:16Z</time>
      </trkpt>
      <trkpt lat="46.17412" lon="6.63943">
        <ele>1480</ele>
        <time>2022-07-31T08:36:17Z</time>
      </trkpt>
      <trkpt lat="46.17413" lon="6.63942">
        <ele>1479</ele>
        <time>2022-07-31T08:36:18Z</time>
      </trkpt>
      <trkpt lat="46.17412" lon="6.63941">
        <ele>1479</ele>
        <time>2022-07-31T08:36:19Z</time>
      </trkpt>
      <trkpt lat="46.17412" lon="6.6394">
        <ele>1479</ele>
        <time>2022-07-31T08:36:20Z</time>
      </trkpt>
      <trkpt lat="46.17411" lon="6.63938">
        <ele>1479</ele>
        <time>2022-07-31T08:36:21Z</time>
      </trkpt>
      <trkpt lat="46.1741" lon="6.63937">
        <ele>1479</ele>
        <time>2022-07-31T08:36:22Z</time>
      </trkpt>
      <trkpt lat="46.1741" lon="6.63936">
        <ele>1478</ele>
        <time>2022-07-31T08:36:23Z</time>
      </trkpt>
      <trkpt lat="46.17409" lon="6.63935">
        <ele>1478</ele>
        <time>2022-07-31T08:36:24Z</time>
      </trkpt>
      <trkpt lat="46.17408" lon="6.63934">
        <ele>1478</ele>
        <time>2022-07-31T08:36:25Z</time>
      </trkpt>
      <trkpt lat="46.17407" lon="6.63932">
        <ele>1478</ele>
        <time>2022-07-31T08:36:26Z</time>
      </trkpt>
      <trkpt lat="46.17407" lon="6.63931">
        <ele>1478</ele>
        <time>2022-07-31T08:36:27Z</time>
      </trkpt>
      <trkpt lat="46.17406" lon="6.63929">
        <ele>1478</ele>
        <time>2022-07-31T08:36:28Z</time>
      </trkpt>
      <trkpt lat="46.17406" lon="6.63928">
        <ele>1478</ele>
        <time>2022-07-31T08:36:29Z</time>
      </trkpt>
      <trkpt lat="46.17406" lon="6.63927">
        <ele>1477</ele>
        <time>2022-07-31T08:36:30Z</time>
      </trkpt>
      <trkpt lat="46.17406" lon="6.63926">
        <ele>1477</ele>
        <time>2022-07-31T08:36:31Z</time>
      </trkpt>
      <trkpt lat="46.17405" lon="6.63926">
        <ele>1477</ele>
        <time>2022-07-31T08:36:32Z</time>
      </trkpt>
      <trkpt lat="46.17403" lon="6.63924">
        <ele>1477</ele>
        <time>2022-07-31T08:36:33Z</time>
      </trkpt>
      <trkpt lat="46.17402" lon="6.63923">
        <ele>1477</ele>
        <time>2022-07-31T08:36:34Z</time>
      </trkpt>
      <trkpt lat="46.17402" lon="6.63921">
        <ele>1477</ele>
        <time>2022-07-31T08:36:35Z</time>
      </trkpt>
      <trkpt lat="46.17401" lon="6.6392">
        <ele>1477</ele>
        <time>2022-07-31T08:36:36Z</time>
      </trkpt>
      <trkpt lat="46.17401" lon="6.63918">
        <ele>1477</ele>
        <time>2022-07-31T08:36:37Z</time>
      </trkpt>
      <trkpt lat="46.17401" lon="6.63917">
        <ele>1477</ele>
        <time>2022-07-31T08:36:38Z</time>
      </trkpt>
      <trkpt lat="46.17401" lon="6.63915">
        <ele>1477</ele>
        <time>2022-07-31T08:36:39Z</time>
      </trkpt>
      <trkpt lat="46.17401" lon="6.63914">
        <ele>1477</ele>
        <time>2022-07-31T08:36:40Z</time>
      </trkpt>
      <trkpt lat="46.174" lon="6.63913">
        <ele>1477</ele>
        <time>2022-07-31T08:36:41Z</time>
      </trkpt>
      <trkpt lat="46.174" lon="6.63912">
        <ele>1477</ele>
        <time>2022-07-31T08:36:42Z</time>
      </trkpt>
      <trkpt lat="46.174" lon="6.63911">
        <ele>1477</ele>
        <time>2022-07-31T08:36:43Z</time>
      </trkpt>
      <trkpt lat="46.17399" lon="6.6391">
        <ele>1477</ele>
        <time>2022-07-31T08:36:44Z</time>
      </trkpt>
      <trkpt lat="46.17398" lon="6.63908">
        <ele>1477</ele>
        <time>2022-07-31T08:36:45Z</time>
      </trkpt>
      <trkpt lat="46.17398" lon="6.63907">
        <ele>1477</ele>
        <time>2022-07-31T08:36:46Z</time>
      </trkpt>
      <trkpt lat="46.17397" lon="6.63906">
        <ele>1477</ele>
        <time>2022-07-31T08:36:47Z</time>
      </trkpt>
      <trkpt lat="46.17397" lon="6.63906">
        <ele>1477</ele>
        <time>2022-07-31T08:36:48Z</time>
      </trkpt>
      <trkpt lat="46.17395" lon="6.63904">
        <ele>1477</ele>
        <time>2022-07-31T08:36:49Z</time>
      </trkpt>
      <trkpt lat="46.17394" lon="6.63903">
        <ele>1477</ele>
        <time>2022-07-31T08:36:50Z</time>
      </trkpt>
      <trkpt lat="46.17394" lon="6.63902">
        <ele>1478</ele>
        <time>2022-07-31T08:36:51Z</time>
      </trkpt>
      <trkpt lat="46.17392" lon="6.63901">
        <ele>1478</ele>
        <time>2022-07-31T08:36:52Z</time>
      </trkpt>
      <trkpt lat="46.17392" lon="6.63899">
        <ele>1478</ele>
        <time>2022-07-31T08:36:53Z</time>
      </trkpt>
      <trkpt lat="46.17391" lon="6.63898">
        <ele>1478</ele>
        <time>2022-07-31T08:36:54Z</time>
      </trkpt>
      <trkpt lat="46.1739" lon="6.63897">
        <ele>1478</ele>
        <time>2022-07-31T08:36:55Z</time>
      </trkpt>
      <trkpt lat="46.17389" lon="6.63896">
        <ele>1478</ele>
        <time>2022-07-31T08:36:56Z</time>
      </trkpt>
      <trkpt lat="46.17387" lon="6.63894">
        <ele>1478</ele>
        <time>2022-07-31T08:36:57Z</time>
      </trkpt>
      <trkpt lat="46.17386" lon="6.63893">
        <ele>1478</ele>
        <time>2022-07-31T08:36:58Z</time>
      </trkpt>
      <trkpt lat="46.17385" lon="6.63892">
        <ele>1478</ele>
        <time>2022-07-31T08:36:59Z</time>
      </trkpt>
      <trkpt lat="46.17384" lon="6.63891">
        <ele>1478</ele>
        <time>2022-07-31T08:37:00Z</time>
      </trkpt>
      <trkpt lat="46.17383" lon="6.63891">
        <ele>1478</ele>
        <time>2022-07-31T08:37:01Z</time>
      </trkpt>
      <trkpt lat="46.17382" lon="6.63889">
        <ele>1478</ele>
        <time>2022-07-31T08:37:02Z</time>
      </trkpt>
      <trkpt lat="46.1738" lon="6.63886">
        <ele>1478</ele>
        <time>2022-07-31T08:37:03Z</time>
      </trkpt>
      <trkpt lat="46.17378" lon="6.63884">
        <ele>1478</ele>
        <time>2022-07-31T08:37:04Z</time>
      </trkpt>
      <trkpt lat="46.17377" lon="6.63882">
        <ele>1478</ele>
        <time>2022-07-31T08:37:05Z</time>
      </trkpt>
      <trkpt lat="46.17376" lon="6.63881">
        <ele>1478</ele>
        <time>2022-07-31T08:37:06Z</time>
      </trkpt>
      <trkpt lat="46.17376" lon="6.6388">
        <ele>1478</ele>
        <time>2022-07-31T08:37:07Z</time>
      </trkpt>
      <trkpt lat="46.17376" lon="6.6388">
        <ele>1478</ele>
        <time>2022-07-31T08:37:08Z</time>
      </trkpt>
      <trkpt lat="46.17376" lon="6.63879">
        <ele>1478</ele>
        <time>2022-07-31T08:37:09Z</time>
      </trkpt>
      <trkpt lat="46.17376" lon="6.63877">
        <ele>1478</ele>
        <time>2022-07-31T08:37:10Z</time>
      </trkpt>
      <trkpt lat="46.17377" lon="6.63876">
        <ele>1478</ele>
        <time>2022-07-31T08:37:11Z</time>
      </trkpt>
      <trkpt lat="46.17377" lon="6.63875">
        <ele>1478</ele>
        <time>2022-07-31T08:37:12Z</time>
      </trkpt>
      <trkpt lat="46.17376" lon="6.63875">
        <ele>1478</ele>
        <time>2022-07-31T08:37:13Z</time>
      </trkpt>
      <trkpt lat="46.17376" lon="6.63874">
        <ele>1478</ele>
        <time>2022-07-31T08:37:14Z</time>
      </trkpt>
      <trkpt lat="46.17375" lon="6.63873">
        <ele>1478</ele>
        <time>2022-07-31T08:37:15Z</time>
      </trkpt>
      <trkpt lat="46.17375" lon="6.63873">
        <ele>1478</ele>
        <time>2022-07-31T08:37:16Z</time>
      </trkpt>
      <trkpt lat="46.17374" lon="6.63872">
        <ele>1479</ele>
        <time>2022-07-31T08:37:17Z</time>
      </trkpt>
      <trkpt lat="46.17373" lon="6.63872">
        <ele>1479</ele>
        <time>2022-07-31T08:37:18Z</time>
      </trkpt>
      <trkpt lat="46.17372" lon="6.63871">
        <ele>1479</ele>
        <time>2022-07-31T08:37:19Z</time>
      </trkpt>
      <trkpt lat="46.17372" lon="6.63869">
        <ele>1479</ele>
        <time>2022-07-31T08:37:20Z</time>
      </trkpt>
      <trkpt lat="46.1737" lon="6.63869">
        <ele>1479</ele>
        <time>2022-07-31T08:37:21Z</time>
      </trkpt>
      <trkpt lat="46.17369" lon="6.63868">
        <ele>1479</ele>
        <time>2022-07-31T08:37:22Z</time>
      </trkpt>
      <trkpt lat="46.17368" lon="6.63868">
        <ele>1479</ele>
        <time>2022-07-31T08:37:23Z</time>
      </trkpt>
      <trkpt lat="46.17366" lon="6.63866">
        <ele>1479</ele>
        <time>2022-07-31T08:37:24Z</time>
      </trkpt>
      <trkpt lat="46.17366" lon="6.63865">
        <ele>1479</ele>
        <time>2022-07-31T08:37:25Z</time>
      </trkpt>
      <trkpt lat="46.17364" lon="6.63864">
        <ele>1479</ele>
        <time>2022-07-31T08:37:26Z</time>
      </trkpt>
      <trkpt lat="46.17364" lon="6.63863">
        <ele>1479</ele>
        <time>2022-07-31T08:37:27Z</time>
      </trkpt>
      <trkpt lat="46.17362" lon="6.63862">
        <ele>1479</ele>
        <time>2022-07-31T08:37:28Z</time>
      </trkpt>
      <trkpt lat="46.17362" lon="6.63862">
        <ele>1479</ele>
        <time>2022-07-31T08:37:29Z</time>
      </trkpt>
      <trkpt lat="46.17361" lon="6.63861">
        <ele>1479</ele>
        <time>2022-07-31T08:37:30Z</time>
      </trkpt>
      <trkpt lat="46.1736" lon="6.6386">
        <ele>1479</ele>
        <time>2022-07-31T08:37:31Z</time>
      </trkpt>
      <trkpt lat="46.17358" lon="6.63859">
        <ele>1479</ele>
        <time>2022-07-31T08:37:32Z</time>
      </trkpt>
      <trkpt lat="46.17357" lon="6.63857">
        <ele>1479</ele>
        <time>2022-07-31T08:37:33Z</time>
      </trkpt>
      <trkpt lat="46.17356" lon="6.63856">
        <ele>1479</ele>
        <time>2022-07-31T08:37:34Z</time>
      </trkpt>
      <trkpt lat="46.17355" lon="6.63854">
        <ele>1479</ele>
        <time>2022-07-31T08:37:35Z</time>
      </trkpt>
      <trkpt lat="46.17354" lon="6.63853">
        <ele>1479</ele>
        <time>2022-07-31T08:37:36Z</time>
      </trkpt>
      <trkpt lat="46.17353" lon="6.63851">
        <ele>1479</ele>
        <time>2022-07-31T08:37:37Z</time>
      </trkpt>
      <trkpt lat="46.17353" lon="6.6385">
        <ele>1479</ele>
        <time>2022-07-31T08:37:38Z</time>
      </trkpt>
      <trkpt lat="46.17352" lon="6.63849">
        <ele>1479</ele>
        <time>2022-07-31T08:37:39Z</time>
      </trkpt>
      <trkpt lat="46.17351" lon="6.63847">
        <ele>1479</ele>
        <time>2022-07-31T08:37:40Z</time>
      </trkpt>
      <trkpt lat="46.17351" lon="6.63845">
        <ele>1479</ele>
        <time>2022-07-31T08:37:41Z</time>
      </trkpt>
      <trkpt lat="46.1735" lon="6.63843">
        <ele>1479</ele>
        <time>2022-07-31T08:37:42Z</time>
      </trkpt>
      <trkpt lat="46.1735" lon="6.63842">
        <ele>1480</ele>
        <time>2022-07-31T08:37:43Z</time>
      </trkpt>
      <trkpt lat="46.17349" lon="6.63842">
        <ele>1480</ele>
        <time>2022-07-31T08:37:44Z</time>
      </trkpt>
      <trkpt lat="46.17348" lon="6.6384">
        <ele>1480</ele>
        <time>2022-07-31T08:37:45Z</time>
      </trkpt>
      <trkpt lat="46.17347" lon="6.6384">
        <ele>1480</ele>
        <time>2022-07-31T08:37:46Z</time>
      </trkpt>
      <trkpt lat="46.17347" lon="6.63839">
        <ele>1480</ele>
        <time>2022-07-31T08:37:47Z</time>
      </trkpt>
      <trkpt lat="46.17347" lon="6.63837">
        <ele>1480</ele>
        <time>2022-07-31T08:37:48Z</time>
      </trkpt>
      <trkpt lat="46.17347" lon="6.63836">
        <ele>1480</ele>
        <time>2022-07-31T08:37:49Z</time>
      </trkpt>
      <trkpt lat="46.17346" lon="6.63835">
        <ele>1481</ele>
        <time>2022-07-31T08:37:50Z</time>
      </trkpt>
      <trkpt lat="46.17345" lon="6.63835">
        <ele>1481</ele>
        <time>2022-07-31T08:37:51Z</time>
      </trkpt>
      <trkpt lat="46.17345" lon="6.63834">
        <ele>1481</ele>
        <time>2022-07-31T08:37:52Z</time>
      </trkpt>
      <trkpt lat="46.17343" lon="6.63833">
        <ele>1481</ele>
        <time>2022-07-31T08:37:53Z</time>
      </trkpt>
      <trkpt lat="46.17342" lon="6.63832">
        <ele>1481</ele>
        <time>2022-07-31T08:37:54Z</time>
      </trkpt>
      <trkpt lat="46.17341" lon="6.6383">
        <ele>1481</ele>
        <time>2022-07-31T08:37:55Z</time>
      </trkpt>
      <trkpt lat="46.1734" lon="6.63829">
        <ele>1481</ele>
        <time>2022-07-31T08:37:56Z</time>
      </trkpt>
      <trkpt lat="46.17338" lon="6.63828">
        <ele>1481</ele>
        <time>2022-07-31T08:37:57Z</time>
      </trkpt>
      <trkpt lat="46.17337" lon="6.63825">
        <ele>1481</ele>
        <time>2022-07-31T08:37:58Z</time>
      </trkpt>
      <trkpt lat="46.17336" lon="6.63823">
        <ele>1481</ele>
        <time>2022-07-31T08:37:59Z</time>
      </trkpt>
      <trkpt lat="46.17335" lon="6.63821">
        <ele>1481</ele>
        <time>2022-07-31T08:38:00Z</time>
      </trkpt>
      <trkpt lat="46.17334" lon="6.63819">
        <ele>1481</ele>
        <time>2022-07-31T08:38:01Z</time>
      </trkpt>
      <trkpt lat="46.17333" lon="6.63817">
        <ele>1481</ele>
        <time>2022-07-31T08:38:02Z</time>
      </trkpt>
      <trkpt lat="46.17332" lon="6.63816">
        <ele>1482</ele>
        <time>2022-07-31T08:38:03Z</time>
      </trkpt>
      <trkpt lat="46.17331" lon="6.63814">
        <ele>1482</ele>
        <time>2022-07-31T08:38:04Z</time>
      </trkpt>
      <trkpt lat="46.1733" lon="6.63813">
        <ele>1482</ele>
        <time>2022-07-31T08:38:05Z</time>
      </trkpt>
      <trkpt lat="46.1733" lon="6.63812">
        <ele>1482</ele>
        <time>2022-07-31T08:38:06Z</time>
      </trkpt>
      <trkpt lat="46.17329" lon="6.63811">
        <ele>1482</ele>
        <time>2022-07-31T08:38:07Z</time>
      </trkpt>
      <trkpt lat="46.17329" lon="6.63809">
        <ele>1482</ele>
        <time>2022-07-31T08:38:08Z</time>
      </trkpt>
      <trkpt lat="46.17329" lon="6.63808">
        <ele>1482</ele>
        <time>2022-07-31T08:38:09Z</time>
      </trkpt>
      <trkpt lat="46.17328" lon="6.63806">
        <ele>1482</ele>
        <time>2022-07-31T08:38:10Z</time>
      </trkpt>
      <trkpt lat="46.17328" lon="6.63805">
        <ele>1482</ele>
        <time>2022-07-31T08:38:11Z</time>
      </trkpt>
      <trkpt lat="46.17328" lon="6.63804">
        <ele>1482</ele>
        <time>2022-07-31T08:38:12Z</time>
      </trkpt>
      <trkpt lat="46.17327" lon="6.63803">
        <ele>1482</ele>
        <time>2022-07-31T08:38:13Z</time>
      </trkpt>
      <trkpt lat="46.17327" lon="6.63802">
        <ele>1482</ele>
        <time>2022-07-31T08:38:14Z</time>
      </trkpt>
      <trkpt lat="46.17326" lon="6.638">
        <ele>1482</ele>
        <time>2022-07-31T08:38:15Z</time>
      </trkpt>
      <trkpt lat="46.17325" lon="6.63799">
        <ele>1482</ele>
        <time>2022-07-31T08:38:16Z</time>
      </trkpt>
      <trkpt lat="46.17324" lon="6.63797">
        <ele>1482</ele>
        <time>2022-07-31T08:38:17Z</time>
      </trkpt>
      <trkpt lat="46.17325" lon="6.63796">
        <ele>1482</ele>
        <time>2022-07-31T08:38:18Z</time>
      </trkpt>
      <trkpt lat="46.17325" lon="6.63795">
        <ele>1482</ele>
        <time>2022-07-31T08:38:19Z</time>
      </trkpt>
      <trkpt lat="46.17325" lon="6.63794">
        <ele>1482</ele>
        <time>2022-07-31T08:38:20Z</time>
      </trkpt>
      <trkpt lat="46.17325" lon="6.63793">
        <ele>1482</ele>
        <time>2022-07-31T08:38:21Z</time>
      </trkpt>
      <trkpt lat="46.17326" lon="6.63792">
        <ele>1482</ele>
        <time>2022-07-31T08:38:22Z</time>
      </trkpt>
      <trkpt lat="46.17325" lon="6.6379">
        <ele>1481</ele>
        <time>2022-07-31T08:38:23Z</time>
      </trkpt>
      <trkpt lat="46.17325" lon="6.6379">
        <ele>1481</ele>
        <time>2022-07-31T08:38:24Z</time>
      </trkpt>
      <trkpt lat="46.17324" lon="6.63789">
        <ele>1481</ele>
        <time>2022-07-31T08:38:25Z</time>
      </trkpt>
      <trkpt lat="46.17324" lon="6.63788">
        <ele>1481</ele>
        <time>2022-07-31T08:38:26Z</time>
      </trkpt>
      <trkpt lat="46.17323" lon="6.63788">
        <ele>1481</ele>
        <time>2022-07-31T08:38:27Z</time>
      </trkpt>
      <trkpt lat="46.17322" lon="6.63786">
        <ele>1481</ele>
        <time>2022-07-31T08:38:28Z</time>
      </trkpt>
      <trkpt lat="46.17321" lon="6.63785">
        <ele>1481</ele>
        <time>2022-07-31T08:38:29Z</time>
      </trkpt>
      <trkpt lat="46.1732" lon="6.63784">
        <ele>1481</ele>
        <time>2022-07-31T08:38:30Z</time>
      </trkpt>
      <trkpt lat="46.17318" lon="6.63784">
        <ele>1481</ele>
        <time>2022-07-31T08:38:31Z</time>
      </trkpt>
      <trkpt lat="46.17317" lon="6.63783">
        <ele>1481</ele>
        <time>2022-07-31T08:38:32Z</time>
      </trkpt>
      <trkpt lat="46.17317" lon="6.63783">
        <ele>1481</ele>
        <time>2022-07-31T08:38:33Z</time>
      </trkpt>
      <trkpt lat="46.17316" lon="6.63782">
        <ele>1480</ele>
        <time>2022-07-31T08:38:34Z</time>
      </trkpt>
      <trkpt lat="46.17315" lon="6.6378">
        <ele>1480</ele>
        <time>2022-07-31T08:38:35Z</time>
      </trkpt>
      <trkpt lat="46.17314" lon="6.63779">
        <ele>1480</ele>
        <time>2022-07-31T08:38:36Z</time>
      </trkpt>
      <trkpt lat="46.17313" lon="6.63777">
        <ele>1480</ele>
        <time>2022-07-31T08:38:37Z</time>
      </trkpt>
      <trkpt lat="46.17312" lon="6.63774">
        <ele>1480</ele>
        <time>2022-07-31T08:38:38Z</time>
      </trkpt>
      <trkpt lat="46.17312" lon="6.63772">
        <ele>1480</ele>
        <time>2022-07-31T08:38:39Z</time>
      </trkpt>
      <trkpt lat="46.17312" lon="6.6377">
        <ele>1480</ele>
        <time>2022-07-31T08:38:40Z</time>
      </trkpt>
      <trkpt lat="46.17311" lon="6.63768">
        <ele>1480</ele>
        <time>2022-07-31T08:38:41Z</time>
      </trkpt>
      <trkpt lat="46.1731" lon="6.63766">
        <ele>1480</ele>
        <time>2022-07-31T08:38:42Z</time>
      </trkpt>
      <trkpt lat="46.17309" lon="6.63765">
        <ele>1480</ele>
        <time>2022-07-31T08:38:43Z</time>
      </trkpt>
      <trkpt lat="46.17309" lon="6.63764">
        <ele>1480</ele>
        <time>2022-07-31T08:38:44Z</time>
      </trkpt>
      <trkpt lat="46.17308" lon="6.63764">
        <ele>1480</ele>
        <time>2022-07-31T08:38:45Z</time>
      </trkpt>
      <trkpt lat="46.17308" lon="6.63763">
        <ele>1480</ele>
        <time>2022-07-31T08:38:46Z</time>
      </trkpt>
      <trkpt lat="46.17308" lon="6.63762">
        <ele>1480</ele>
        <time>2022-07-31T08:38:47Z</time>
      </trkpt>
      <trkpt lat="46.17308" lon="6.6376">
        <ele>1481</ele>
        <time>2022-07-31T08:38:48Z</time>
      </trkpt>
      <trkpt lat="46.17307" lon="6.63759">
        <ele>1481</ele>
        <time>2022-07-31T08:38:49Z</time>
      </trkpt>
      <trkpt lat="46.17306" lon="6.63757">
        <ele>1481</ele>
        <time>2022-07-31T08:38:50Z</time>
      </trkpt>
      <trkpt lat="46.17306" lon="6.63755">
        <ele>1481</ele>
        <time>2022-07-31T08:38:51Z</time>
      </trkpt>
      <trkpt lat="46.17306" lon="6.63752">
        <ele>1481</ele>
        <time>2022-07-31T08:38:52Z</time>
      </trkpt>
      <trkpt lat="46.17305" lon="6.6375">
        <ele>1481</ele>
        <time>2022-07-31T08:38:53Z</time>
      </trkpt>
      <trkpt lat="46.17305" lon="6.63748">
        <ele>1481</ele>
        <time>2022-07-31T08:38:54Z</time>
      </trkpt>
      <trkpt lat="46.17304" lon="6.63747">
        <ele>1481</ele>
        <time>2022-07-31T08:38:55Z</time>
      </trkpt>
      <trkpt lat="46.17303" lon="6.63746">
        <ele>1481</ele>
        <time>2022-07-31T08:38:56Z</time>
      </trkpt>
      <trkpt lat="46.17302" lon="6.63744">
        <ele>1481</ele>
        <time>2022-07-31T08:38:57Z</time>
      </trkpt>
      <trkpt lat="46.17302" lon="6.63743">
        <ele>1482</ele>
        <time>2022-07-31T08:38:58Z</time>
      </trkpt>
      <trkpt lat="46.17302" lon="6.63741">
        <ele>1482</ele>
        <time>2022-07-31T08:38:59Z</time>
      </trkpt>
      <trkpt lat="46.17301" lon="6.6374">
        <ele>1482</ele>
        <time>2022-07-31T08:39:00Z</time>
      </trkpt>
      <trkpt lat="46.17301" lon="6.63738">
        <ele>1482</ele>
        <time>2022-07-31T08:39:01Z</time>
      </trkpt>
      <trkpt lat="46.17301" lon="6.63736">
        <ele>1482</ele>
        <time>2022-07-31T08:39:02Z</time>
      </trkpt>
      <trkpt lat="46.17301" lon="6.63735">
        <ele>1482</ele>
        <time>2022-07-31T08:39:03Z</time>
      </trkpt>
      <trkpt lat="46.17301" lon="6.63734">
        <ele>1482</ele>
        <time>2022-07-31T08:39:04Z</time>
      </trkpt>
      <trkpt lat="46.17301" lon="6.63732">
        <ele>1482</ele>
        <time>2022-07-31T08:39:05Z</time>
      </trkpt>
      <trkpt lat="46.173" lon="6.63731">
        <ele>1482</ele>
        <time>2022-07-31T08:39:06Z</time>
      </trkpt>
      <trkpt lat="46.173" lon="6.63729">
        <ele>1482</ele>
        <time>2022-07-31T08:39:07Z</time>
      </trkpt>
      <trkpt lat="46.173" lon="6.63728">
        <ele>1482</ele>
        <time>2022-07-31T08:39:08Z</time>
      </trkpt>
      <trkpt lat="46.17299" lon="6.63725">
        <ele>1482</ele>
        <time>2022-07-31T08:39:09Z</time>
      </trkpt>
      <trkpt lat="46.17298" lon="6.63724">
        <ele>1482</ele>
        <time>2022-07-31T08:39:10Z</time>
      </trkpt>
      <trkpt lat="46.17298" lon="6.63723">
        <ele>1482</ele>
        <time>2022-07-31T08:39:11Z</time>
      </trkpt>
      <trkpt lat="46.17297" lon="6.63721">
        <ele>1483</ele>
        <time>2022-07-31T08:39:12Z</time>
      </trkpt>
      <trkpt lat="46.17297" lon="6.6372">
        <ele>1483</ele>
        <time>2022-07-31T08:39:13Z</time>
      </trkpt>
      <trkpt lat="46.17297" lon="6.63719">
        <ele>1483</ele>
        <time>2022-07-31T08:39:14Z</time>
      </trkpt>
      <trkpt lat="46.17297" lon="6.63718">
        <ele>1483</ele>
        <time>2022-07-31T08:39:15Z</time>
      </trkpt>
      <trkpt lat="46.17297" lon="6.63716">
        <ele>1483</ele>
        <time>2022-07-31T08:39:16Z</time>
      </trkpt>
      <trkpt lat="46.17296" lon="6.63715">
        <ele>1484</ele>
        <time>2022-07-31T08:39:17Z</time>
      </trkpt>
      <trkpt lat="46.17297" lon="6.63714">
        <ele>1484</ele>
        <time>2022-07-31T08:39:18Z</time>
      </trkpt>
      <trkpt lat="46.17297" lon="6.63713">
        <ele>1484</ele>
        <time>2022-07-31T08:39:19Z</time>
      </trkpt>
      <trkpt lat="46.17296" lon="6.63712">
        <ele>1484</ele>
        <time>2022-07-31T08:39:20Z</time>
      </trkpt>
      <trkpt lat="46.17296" lon="6.63711">
        <ele>1484</ele>
        <time>2022-07-31T08:39:21Z</time>
      </trkpt>
      <trkpt lat="46.17296" lon="6.6371">
        <ele>1484</ele>
        <time>2022-07-31T08:39:22Z</time>
      </trkpt>
      <trkpt lat="46.17295" lon="6.63709">
        <ele>1484</ele>
        <time>2022-07-31T08:39:23Z</time>
      </trkpt>
      <trkpt lat="46.17294" lon="6.63708">
        <ele>1485</ele>
        <time>2022-07-31T08:39:24Z</time>
      </trkpt>
      <trkpt lat="46.17294" lon="6.63707">
        <ele>1485</ele>
        <time>2022-07-31T08:39:25Z</time>
      </trkpt>
      <trkpt lat="46.17294" lon="6.63705">
        <ele>1485</ele>
        <time>2022-07-31T08:39:26Z</time>
      </trkpt>
      <trkpt lat="46.17294" lon="6.63703">
        <ele>1485</ele>
        <time>2022-07-31T08:39:27Z</time>
      </trkpt>
      <trkpt lat="46.17294" lon="6.63702">
        <ele>1485</ele>
        <time>2022-07-31T08:39:28Z</time>
      </trkpt>
      <trkpt lat="46.17294" lon="6.63702">
        <ele>1485</ele>
        <time>2022-07-31T08:39:29Z</time>
      </trkpt>
      <trkpt lat="46.17293" lon="6.63701">
        <ele>1485</ele>
        <time>2022-07-31T08:39:30Z</time>
      </trkpt>
      <trkpt lat="46.17292" lon="6.637">
        <ele>1485</ele>
        <time>2022-07-31T08:39:31Z</time>
      </trkpt>
      <trkpt lat="46.17293" lon="6.63699">
        <ele>1485</ele>
        <time>2022-07-31T08:39:32Z</time>
      </trkpt>
      <trkpt lat="46.17294" lon="6.63698">
        <ele>1485</ele>
        <time>2022-07-31T08:39:33Z</time>
      </trkpt>
      <trkpt lat="46.17294" lon="6.63697">
        <ele>1485</ele>
        <time>2022-07-31T08:39:34Z</time>
      </trkpt>
      <trkpt lat="46.17294" lon="6.63696">
        <ele>1485</ele>
        <time>2022-07-31T08:39:35Z</time>
      </trkpt>
      <trkpt lat="46.17294" lon="6.63694">
        <ele>1485</ele>
        <time>2022-07-31T08:39:36Z</time>
      </trkpt>
      <trkpt lat="46.17294" lon="6.63693">
        <ele>1485</ele>
        <time>2022-07-31T08:39:37Z</time>
      </trkpt>
      <trkpt lat="46.17295" lon="6.63691">
        <ele>1485</ele>
        <time>2022-07-31T08:39:38Z</time>
      </trkpt>
      <trkpt lat="46.17294" lon="6.6369">
        <ele>1485</ele>
        <time>2022-07-31T08:39:39Z</time>
      </trkpt>
      <trkpt lat="46.17294" lon="6.63689">
        <ele>1485</ele>
        <time>2022-07-31T08:39:40Z</time>
      </trkpt>
      <trkpt lat="46.17293" lon="6.63687">
        <ele>1485</ele>
        <time>2022-07-31T08:39:41Z</time>
      </trkpt>
      <trkpt lat="46.17292" lon="6.63685">
        <ele>1485</ele>
        <time>2022-07-31T08:39:42Z</time>
      </trkpt>
      <trkpt lat="46.17292" lon="6.63684">
        <ele>1486</ele>
        <time>2022-07-31T08:39:43Z</time>
      </trkpt>
      <trkpt lat="46.17291" lon="6.63683">
        <ele>1486</ele>
        <time>2022-07-31T08:39:44Z</time>
      </trkpt>
      <trkpt lat="46.17291" lon="6.63682">
        <ele>1486</ele>
        <time>2022-07-31T08:39:45Z</time>
      </trkpt>
      <trkpt lat="46.17291" lon="6.6368">
        <ele>1486</ele>
        <time>2022-07-31T08:39:46Z</time>
      </trkpt>
      <trkpt lat="46.17291" lon="6.63678">
        <ele>1486</ele>
        <time>2022-07-31T08:39:47Z</time>
      </trkpt>
      <trkpt lat="46.1729" lon="6.63676">
        <ele>1486</ele>
        <time>2022-07-31T08:39:48Z</time>
      </trkpt>
      <trkpt lat="46.17289" lon="6.63674">
        <ele>1487</ele>
        <time>2022-07-31T08:39:49Z</time>
      </trkpt>
      <trkpt lat="46.17289" lon="6.63672">
        <ele>1487</ele>
        <time>2022-07-31T08:39:50Z</time>
      </trkpt>
      <trkpt lat="46.17288" lon="6.63672">
        <ele>1487</ele>
        <time>2022-07-31T08:39:51Z</time>
      </trkpt>
      <trkpt lat="46.17288" lon="6.6367">
        <ele>1487</ele>
        <time>2022-07-31T08:39:52Z</time>
      </trkpt>
      <trkpt lat="46.17288" lon="6.63669">
        <ele>1488</ele>
        <time>2022-07-31T08:39:53Z</time>
      </trkpt>
      <trkpt lat="46.17288" lon="6.63668">
        <ele>1488</ele>
        <time>2022-07-31T08:39:54Z</time>
      </trkpt>
      <trkpt lat="46.17287" lon="6.63667">
        <ele>1488</ele>
        <time>2022-07-31T08:39:55Z</time>
      </trkpt>
      <trkpt lat="46.17288" lon="6.63665">
        <ele>1488</ele>
        <time>2022-07-31T08:39:56Z</time>
      </trkpt>
      <trkpt lat="46.17288" lon="6.63664">
        <ele>1488</ele>
        <time>2022-07-31T08:39:57Z</time>
      </trkpt>
      <trkpt lat="46.17288" lon="6.63663">
        <ele>1488</ele>
        <time>2022-07-31T08:39:58Z</time>
      </trkpt>
      <trkpt lat="46.17289" lon="6.63662">
        <ele>1489</ele>
        <time>2022-07-31T08:39:59Z</time>
      </trkpt>
      <trkpt lat="46.17289" lon="6.63661">
        <ele>1489</ele>
        <time>2022-07-31T08:40:00Z</time>
      </trkpt>
      <trkpt lat="46.17289" lon="6.63659">
        <ele>1489</ele>
        <time>2022-07-31T08:40:01Z</time>
      </trkpt>
      <trkpt lat="46.17288" lon="6.63658">
        <ele>1490</ele>
        <time>2022-07-31T08:40:02Z</time>
      </trkpt>
      <trkpt lat="46.17288" lon="6.63656">
        <ele>1490</ele>
        <time>2022-07-31T08:40:03Z</time>
      </trkpt>
      <trkpt lat="46.17287" lon="6.63654">
        <ele>1490</ele>
        <time>2022-07-31T08:40:04Z</time>
      </trkpt>
      <trkpt lat="46.17287" lon="6.63653">
        <ele>1490</ele>
        <time>2022-07-31T08:40:05Z</time>
      </trkpt>
      <trkpt lat="46.17285" lon="6.63652">
        <ele>1491</ele>
        <time>2022-07-31T08:40:06Z</time>
      </trkpt>
      <trkpt lat="46.17284" lon="6.6365">
        <ele>1491</ele>
        <time>2022-07-31T08:40:07Z</time>
      </trkpt>
      <trkpt lat="46.17284" lon="6.63649">
        <ele>1492</ele>
        <time>2022-07-31T08:40:08Z</time>
      </trkpt>
      <trkpt lat="46.17284" lon="6.63647">
        <ele>1492</ele>
        <time>2022-07-31T08:40:09Z</time>
      </trkpt>
      <trkpt lat="46.17284" lon="6.63646">
        <ele>1492</ele>
        <time>2022-07-31T08:40:10Z</time>
      </trkpt>
      <trkpt lat="46.17284" lon="6.63645">
        <ele>1493</ele>
        <time>2022-07-31T08:40:11Z</time>
      </trkpt>
      <trkpt lat="46.17284" lon="6.63644">
        <ele>1493</ele>
        <time>2022-07-31T08:40:12Z</time>
      </trkpt>
      <trkpt lat="46.17283" lon="6.63642">
        <ele>1493</ele>
        <time>2022-07-31T08:40:13Z</time>
      </trkpt>
      <trkpt lat="46.17283" lon="6.63641">
        <ele>1493</ele>
        <time>2022-07-31T08:40:14Z</time>
      </trkpt>
      <trkpt lat="46.17284" lon="6.6364">
        <ele>1494</ele>
        <time>2022-07-31T08:40:15Z</time>
      </trkpt>
      <trkpt lat="46.17284" lon="6.63638">
        <ele>1494</ele>
        <time>2022-07-31T08:40:16Z</time>
      </trkpt>
      <trkpt lat="46.17284" lon="6.63636">
        <ele>1494</ele>
        <time>2022-07-31T08:40:17Z</time>
      </trkpt>
      <trkpt lat="46.17284" lon="6.63634">
        <ele>1495</ele>
        <time>2022-07-31T08:40:18Z</time>
      </trkpt>
      <trkpt lat="46.17283" lon="6.63633">
        <ele>1495</ele>
        <time>2022-07-31T08:40:19Z</time>
      </trkpt>
      <trkpt lat="46.17283" lon="6.63632">
        <ele>1495</ele>
        <time>2022-07-31T08:40:20Z</time>
      </trkpt>
      <trkpt lat="46.17282" lon="6.6363">
        <ele>1496</ele>
        <time>2022-07-31T08:40:21Z</time>
      </trkpt>
      <trkpt lat="46.17282" lon="6.63629">
        <ele>1496</ele>
        <time>2022-07-31T08:40:22Z</time>
      </trkpt>
      <trkpt lat="46.17281" lon="6.63628">
        <ele>1496</ele>
        <time>2022-07-31T08:40:23Z</time>
      </trkpt>
      <trkpt lat="46.17281" lon="6.63627">
        <ele>1497</ele>
        <time>2022-07-31T08:40:24Z</time>
      </trkpt>
      <trkpt lat="46.17281" lon="6.63627">
        <ele>1497</ele>
        <time>2022-07-31T08:40:25Z</time>
      </trkpt>
      <trkpt lat="46.17281" lon="6.63626">
        <ele>1497</ele>
        <time>2022-07-31T08:40:26Z</time>
      </trkpt>
      <trkpt lat="46.17281" lon="6.63625">
        <ele>1497</ele>
        <time>2022-07-31T08:40:27Z</time>
      </trkpt>
      <trkpt lat="46.17281" lon="6.63625">
        <ele>1498</ele>
        <time>2022-07-31T08:40:28Z</time>
      </trkpt>
      <trkpt lat="46.17281" lon="6.63623">
        <ele>1498</ele>
        <time>2022-07-31T08:40:29Z</time>
      </trkpt>
      <trkpt lat="46.17281" lon="6.63622">
        <ele>1498</ele>
        <time>2022-07-31T08:40:30Z</time>
      </trkpt>
      <trkpt lat="46.1728" lon="6.63621">
        <ele>1498</ele>
        <time>2022-07-31T08:40:31Z</time>
      </trkpt>
      <trkpt lat="46.17279" lon="6.6362">
        <ele>1498</ele>
        <time>2022-07-31T08:40:32Z</time>
      </trkpt>
      <trkpt lat="46.17277" lon="6.63618">
        <ele>1498</ele>
        <time>2022-07-31T08:40:33Z</time>
      </trkpt>
      <trkpt lat="46.17277" lon="6.63617">
        <ele>1498</ele>
        <time>2022-07-31T08:40:34Z</time>
      </trkpt>
      <trkpt lat="46.17277" lon="6.63615">
        <ele>1498</ele>
        <time>2022-07-31T08:40:35Z</time>
      </trkpt>
      <trkpt lat="46.17276" lon="6.63613">
        <ele>1498</ele>
        <time>2022-07-31T08:40:36Z</time>
      </trkpt>
      <trkpt lat="46.17276" lon="6.63612">
        <ele>1498</ele>
        <time>2022-07-31T08:40:37Z</time>
      </trkpt>
      <trkpt lat="46.17275" lon="6.6361">
        <ele>1498</ele>
        <time>2022-07-31T08:40:38Z</time>
      </trkpt>
      <trkpt lat="46.17275" lon="6.63609">
        <ele>1498</ele>
        <time>2022-07-31T08:40:39Z</time>
      </trkpt>
      <trkpt lat="46.17275" lon="6.63608">
        <ele>1498</ele>
        <time>2022-07-31T08:40:40Z</time>
      </trkpt>
      <trkpt lat="46.17274" lon="6.63606">
        <ele>1498</ele>
        <time>2022-07-31T08:40:41Z</time>
      </trkpt>
      <trkpt lat="46.17274" lon="6.63605">
        <ele>1498</ele>
        <time>2022-07-31T08:40:42Z</time>
      </trkpt>
      <trkpt lat="46.17273" lon="6.63603">
        <ele>1498</ele>
        <time>2022-07-31T08:40:43Z</time>
      </trkpt>
      <trkpt lat="46.17272" lon="6.63601">
        <ele>1498</ele>
        <time>2022-07-31T08:40:44Z</time>
      </trkpt>
      <trkpt lat="46.1727" lon="6.636">
        <ele>1498</ele>
        <time>2022-07-31T08:40:45Z</time>
      </trkpt>
      <trkpt lat="46.17269" lon="6.63599">
        <ele>1498</ele>
        <time>2022-07-31T08:40:46Z</time>
      </trkpt>
      <trkpt lat="46.17268" lon="6.63598">
        <ele>1498</ele>
        <time>2022-07-31T08:40:47Z</time>
      </trkpt>
      <trkpt lat="46.17268" lon="6.63597">
        <ele>1498</ele>
        <time>2022-07-31T08:40:48Z</time>
      </trkpt>
      <trkpt lat="46.17268" lon="6.63596">
        <ele>1498</ele>
        <time>2022-07-31T08:40:49Z</time>
      </trkpt>
      <trkpt lat="46.17267" lon="6.63595">
        <ele>1498</ele>
        <time>2022-07-31T08:40:50Z</time>
      </trkpt>
      <trkpt lat="46.17266" lon="6.63595">
        <ele>1498</ele>
        <time>2022-07-31T08:40:51Z</time>
      </trkpt>
      <trkpt lat="46.17265" lon="6.63595">
        <ele>1498</ele>
        <time>2022-07-31T08:40:52Z</time>
      </trkpt>
      <trkpt lat="46.17263" lon="6.63595">
        <ele>1498</ele>
        <time>2022-07-31T08:40:53Z</time>
      </trkpt>
      <trkpt lat="46.17262" lon="6.63594">
        <ele>1498</ele>
        <time>2022-07-31T08:40:54Z</time>
      </trkpt>
      <trkpt lat="46.17261" lon="6.63594">
        <ele>1498</ele>
        <time>2022-07-31T08:40:55Z</time>
      </trkpt>
      <trkpt lat="46.1726" lon="6.63594">
        <ele>1498</ele>
        <time>2022-07-31T08:40:56Z</time>
      </trkpt>
      <trkpt lat="46.17259" lon="6.63593">
        <ele>1499</ele>
        <time>2022-07-31T08:40:57Z</time>
      </trkpt>
      <trkpt lat="46.17258" lon="6.63593">
        <ele>1499</ele>
        <time>2022-07-31T08:40:58Z</time>
      </trkpt>
      <trkpt lat="46.17258" lon="6.63592">
        <ele>1499</ele>
        <time>2022-07-31T08:40:59Z</time>
      </trkpt>
      <trkpt lat="46.17257" lon="6.63591">
        <ele>1499</ele>
        <time>2022-07-31T08:41:00Z</time>
      </trkpt>
      <trkpt lat="46.17257" lon="6.63591">
        <ele>1499</ele>
        <time>2022-07-31T08:41:01Z</time>
      </trkpt>
      <trkpt lat="46.17255" lon="6.6359">
        <ele>1499</ele>
        <time>2022-07-31T08:41:02Z</time>
      </trkpt>
      <trkpt lat="46.17255" lon="6.63589">
        <ele>1499</ele>
        <time>2022-07-31T08:41:03Z</time>
      </trkpt>
      <trkpt lat="46.17254" lon="6.63588">
        <ele>1499</ele>
        <time>2022-07-31T08:41:04Z</time>
      </trkpt>
      <trkpt lat="46.17254" lon="6.63587">
        <ele>1500</ele>
        <time>2022-07-31T08:41:05Z</time>
      </trkpt>
      <trkpt lat="46.17253" lon="6.63586">
        <ele>1500</ele>
        <time>2022-07-31T08:41:06Z</time>
      </trkpt>
      <trkpt lat="46.17253" lon="6.63584">
        <ele>1500</ele>
        <time>2022-07-31T08:41:07Z</time>
      </trkpt>
      <trkpt lat="46.17252" lon="6.63582">
        <ele>1500</ele>
        <time>2022-07-31T08:41:08Z</time>
      </trkpt>
      <trkpt lat="46.17252" lon="6.6358">
        <ele>1500</ele>
        <time>2022-07-31T08:41:09Z</time>
      </trkpt>
      <trkpt lat="46.17252" lon="6.63578">
        <ele>1500</ele>
        <time>2022-07-31T08:41:10Z</time>
      </trkpt>
      <trkpt lat="46.17251" lon="6.63576">
        <ele>1500</ele>
        <time>2022-07-31T08:41:11Z</time>
      </trkpt>
      <trkpt lat="46.1725" lon="6.63575">
        <ele>1500</ele>
        <time>2022-07-31T08:41:12Z</time>
      </trkpt>
      <trkpt lat="46.1725" lon="6.63574">
        <ele>1501</ele>
        <time>2022-07-31T08:41:13Z</time>
      </trkpt>
      <trkpt lat="46.17249" lon="6.63571">
        <ele>1501</ele>
        <time>2022-07-31T08:41:14Z</time>
      </trkpt>
      <trkpt lat="46.17249" lon="6.6357">
        <ele>1501</ele>
        <time>2022-07-31T08:41:15Z</time>
      </trkpt>
      <trkpt lat="46.1725" lon="6.63569">
        <ele>1501</ele>
        <time>2022-07-31T08:41:16Z</time>
      </trkpt>
      <trkpt lat="46.17251" lon="6.63569">
        <ele>1501</ele>
        <time>2022-07-31T08:41:17Z</time>
      </trkpt>
      <trkpt lat="46.17252" lon="6.63569">
        <ele>1501</ele>
        <time>2022-07-31T08:41:18Z</time>
      </trkpt>
      <trkpt lat="46.17253" lon="6.63569">
        <ele>1502</ele>
        <time>2022-07-31T08:41:19Z</time>
      </trkpt>
      <trkpt lat="46.17253" lon="6.63568">
        <ele>1502</ele>
        <time>2022-07-31T08:41:20Z</time>
      </trkpt>
      <trkpt lat="46.17252" lon="6.63567">
        <ele>1502</ele>
        <time>2022-07-31T08:41:21Z</time>
      </trkpt>
      <trkpt lat="46.17252" lon="6.63566">
        <ele>1503</ele>
        <time>2022-07-31T08:41:22Z</time>
      </trkpt>
      <trkpt lat="46.17252" lon="6.63565">
        <ele>1503</ele>
        <time>2022-07-31T08:41:23Z</time>
      </trkpt>
      <trkpt lat="46.17252" lon="6.63565">
        <ele>1503</ele>
        <time>2022-07-31T08:41:24Z</time>
      </trkpt>
      <trkpt lat="46.17253" lon="6.63564">
        <ele>1504</ele>
        <time>2022-07-31T08:41:25Z</time>
      </trkpt>
      <trkpt lat="46.17252" lon="6.63563">
        <ele>1504</ele>
        <time>2022-07-31T08:41:26Z</time>
      </trkpt>
      <trkpt lat="46.17251" lon="6.63562">
        <ele>1504</ele>
        <time>2022-07-31T08:41:27Z</time>
      </trkpt>
      <trkpt lat="46.17251" lon="6.63562">
        <ele>1504</ele>
        <time>2022-07-31T08:41:28Z</time>
      </trkpt>
      <trkpt lat="46.1725" lon="6.63561">
        <ele>1505</ele>
        <time>2022-07-31T08:41:29Z</time>
      </trkpt>
      <trkpt lat="46.1725" lon="6.63561">
        <ele>1505</ele>
        <time>2022-07-31T08:41:30Z</time>
      </trkpt>
      <trkpt lat="46.1725" lon="6.6356">
        <ele>1505</ele>
        <time>2022-07-31T08:41:31Z</time>
      </trkpt>
      <trkpt lat="46.1725" lon="6.63559">
        <ele>1505</ele>
        <time>2022-07-31T08:41:32Z</time>
      </trkpt>
      <trkpt lat="46.17249" lon="6.63558">
        <ele>1505</ele>
        <time>2022-07-31T08:41:33Z</time>
      </trkpt>
      <trkpt lat="46.17248" lon="6.63557">
        <ele>1505</ele>
        <time>2022-07-31T08:41:34Z</time>
      </trkpt>
      <trkpt lat="46.17249" lon="6.63555">
        <ele>1506</ele>
        <time>2022-07-31T08:41:35Z</time>
      </trkpt>
      <trkpt lat="46.17248" lon="6.63554">
        <ele>1506</ele>
        <time>2022-07-31T08:41:36Z</time>
      </trkpt>
      <trkpt lat="46.17248" lon="6.63552">
        <ele>1506</ele>
        <time>2022-07-31T08:41:37Z</time>
      </trkpt>
      <trkpt lat="46.17247" lon="6.63551">
        <ele>1506</ele>
        <time>2022-07-31T08:41:38Z</time>
      </trkpt>
      <trkpt lat="46.17246" lon="6.6355">
        <ele>1506</ele>
        <time>2022-07-31T08:41:39Z</time>
      </trkpt>
      <trkpt lat="46.17245" lon="6.63549">
        <ele>1506</ele>
        <time>2022-07-31T08:41:40Z</time>
      </trkpt>
      <trkpt lat="46.17245" lon="6.63549">
        <ele>1506</ele>
        <time>2022-07-31T08:41:41Z</time>
      </trkpt>
      <trkpt lat="46.17246" lon="6.63548">
        <ele>1506</ele>
        <time>2022-07-31T08:41:42Z</time>
      </trkpt>
      <trkpt lat="46.17246" lon="6.63548">
        <ele>1507</ele>
        <time>2022-07-31T08:41:43Z</time>
      </trkpt>
      <trkpt lat="46.17246" lon="6.63548">
        <ele>1507</ele>
        <time>2022-07-31T08:41:44Z</time>
      </trkpt>
      <trkpt lat="46.17245" lon="6.63547">
        <ele>1507</ele>
        <time>2022-07-31T08:41:45Z</time>
      </trkpt>
      <trkpt lat="46.17244" lon="6.63547">
        <ele>1507</ele>
        <time>2022-07-31T08:41:46Z</time>
      </trkpt>
      <trkpt lat="46.17243" lon="6.63546">
        <ele>1507</ele>
        <time>2022-07-31T08:41:47Z</time>
      </trkpt>
      <trkpt lat="46.17243" lon="6.63545">
        <ele>1507</ele>
        <time>2022-07-31T08:41:48Z</time>
      </trkpt>
      <trkpt lat="46.17242" lon="6.63544">
        <ele>1507</ele>
        <time>2022-07-31T08:41:49Z</time>
      </trkpt>
      <trkpt lat="46.17241" lon="6.63544">
        <ele>1507</ele>
        <time>2022-07-31T08:41:50Z</time>
      </trkpt>
      <trkpt lat="46.17239" lon="6.63543">
        <ele>1507</ele>
        <time>2022-07-31T08:41:51Z</time>
      </trkpt>
      <trkpt lat="46.17238" lon="6.63542">
        <ele>1507</ele>
        <time>2022-07-31T08:41:52Z</time>
      </trkpt>
      <trkpt lat="46.17237" lon="6.63542">
        <ele>1507</ele>
        <time>2022-07-31T08:41:53Z</time>
      </trkpt>
      <trkpt lat="46.17236" lon="6.6354">
        <ele>1507</ele>
        <time>2022-07-31T08:41:54Z</time>
      </trkpt>
      <trkpt lat="46.17235" lon="6.6354">
        <ele>1507</ele>
        <time>2022-07-31T08:41:55Z</time>
      </trkpt>
      <trkpt lat="46.17234" lon="6.63538">
        <ele>1507</ele>
        <time>2022-07-31T08:41:56Z</time>
      </trkpt>
      <trkpt lat="46.17234" lon="6.63537">
        <ele>1507</ele>
        <time>2022-07-31T08:41:57Z</time>
      </trkpt>
      <trkpt lat="46.17234" lon="6.63535">
        <ele>1507</ele>
        <time>2022-07-31T08:41:58Z</time>
      </trkpt>
      <trkpt lat="46.17234" lon="6.63533">
        <ele>1507</ele>
        <time>2022-07-31T08:41:59Z</time>
      </trkpt>
      <trkpt lat="46.17234" lon="6.63531">
        <ele>1507</ele>
        <time>2022-07-31T08:42:00Z</time>
      </trkpt>
      <trkpt lat="46.17234" lon="6.63529">
        <ele>1507</ele>
        <time>2022-07-31T08:42:01Z</time>
      </trkpt>
      <trkpt lat="46.17234" lon="6.63528">
        <ele>1507</ele>
        <time>2022-07-31T08:42:02Z</time>
      </trkpt>
      <trkpt lat="46.17233" lon="6.63526">
        <ele>1508</ele>
        <time>2022-07-31T08:42:03Z</time>
      </trkpt>
      <trkpt lat="46.17232" lon="6.63525">
        <ele>1508</ele>
        <time>2022-07-31T08:42:04Z</time>
      </trkpt>
      <trkpt lat="46.1723" lon="6.63524">
        <ele>1508</ele>
        <time>2022-07-31T08:42:05Z</time>
      </trkpt>
      <trkpt lat="46.17229" lon="6.63522">
        <ele>1508</ele>
        <time>2022-07-31T08:42:06Z</time>
      </trkpt>
      <trkpt lat="46.17228" lon="6.63521">
        <ele>1508</ele>
        <time>2022-07-31T08:42:07Z</time>
      </trkpt>
      <trkpt lat="46.17226" lon="6.6352">
        <ele>1508</ele>
        <time>2022-07-31T08:42:08Z</time>
      </trkpt>
      <trkpt lat="46.17226" lon="6.6352">
        <ele>1508</ele>
        <time>2022-07-31T08:42:09Z</time>
      </trkpt>
      <trkpt lat="46.17225" lon="6.63519">
        <ele>1508</ele>
        <time>2022-07-31T08:42:10Z</time>
      </trkpt>
      <trkpt lat="46.17224" lon="6.63519">
        <ele>1508</ele>
        <time>2022-07-31T08:42:11Z</time>
      </trkpt>
      <trkpt lat="46.17223" lon="6.63518">
        <ele>1508</ele>
        <time>2022-07-31T08:42:12Z</time>
      </trkpt>
      <trkpt lat="46.17222" lon="6.63518">
        <ele>1508</ele>
        <time>2022-07-31T08:42:13Z</time>
      </trkpt>
      <trkpt lat="46.17222" lon="6.63517">
        <ele>1508</ele>
        <time>2022-07-31T08:42:14Z</time>
      </trkpt>
      <trkpt lat="46.17222" lon="6.63516">
        <ele>1508</ele>
        <time>2022-07-31T08:42:15Z</time>
      </trkpt>
      <trkpt lat="46.17221" lon="6.63515">
        <ele>1508</ele>
        <time>2022-07-31T08:42:16Z</time>
      </trkpt>
      <trkpt lat="46.17221" lon="6.63513">
        <ele>1508</ele>
        <time>2022-07-31T08:42:17Z</time>
      </trkpt>
      <trkpt lat="46.17221" lon="6.63512">
        <ele>1508</ele>
        <time>2022-07-31T08:42:18Z</time>
      </trkpt>
      <trkpt lat="46.17221" lon="6.63511">
        <ele>1508</ele>
        <time>2022-07-31T08:42:19Z</time>
      </trkpt>
      <trkpt lat="46.1722" lon="6.63511">
        <ele>1508</ele>
        <time>2022-07-31T08:42:20Z</time>
      </trkpt>
      <trkpt lat="46.1722" lon="6.63509">
        <ele>1508</ele>
        <time>2022-07-31T08:42:21Z</time>
      </trkpt>
      <trkpt lat="46.1722" lon="6.63507">
        <ele>1508</ele>
        <time>2022-07-31T08:42:22Z</time>
      </trkpt>
      <trkpt lat="46.17219" lon="6.63505">
        <ele>1508</ele>
        <time>2022-07-31T08:42:23Z</time>
      </trkpt>
      <trkpt lat="46.17218" lon="6.63502">
        <ele>1508</ele>
        <time>2022-07-31T08:42:24Z</time>
      </trkpt>
      <trkpt lat="46.17218" lon="6.635">
        <ele>1507</ele>
        <time>2022-07-31T08:42:25Z</time>
      </trkpt>
      <trkpt lat="46.17218" lon="6.63498">
        <ele>1507</ele>
        <time>2022-07-31T08:42:26Z</time>
      </trkpt>
      <trkpt lat="46.17217" lon="6.63496">
        <ele>1507</ele>
        <time>2022-07-31T08:42:27Z</time>
      </trkpt>
      <trkpt lat="46.17217" lon="6.63495">
        <ele>1507</ele>
        <time>2022-07-31T08:42:28Z</time>
      </trkpt>
      <trkpt lat="46.17216" lon="6.63494">
        <ele>1507</ele>
        <time>2022-07-31T08:42:29Z</time>
      </trkpt>
      <trkpt lat="46.17215" lon="6.63493">
        <ele>1507</ele>
        <time>2022-07-31T08:42:30Z</time>
      </trkpt>
      <trkpt lat="46.17215" lon="6.63493">
        <ele>1507</ele>
        <time>2022-07-31T08:42:31Z</time>
      </trkpt>
      <trkpt lat="46.17213" lon="6.63492">
        <ele>1507</ele>
        <time>2022-07-31T08:42:32Z</time>
      </trkpt>
      <trkpt lat="46.17213" lon="6.63493">
        <ele>1507</ele>
        <time>2022-07-31T08:42:33Z</time>
      </trkpt>
      <trkpt lat="46.17212" lon="6.63493">
        <ele>1506</ele>
        <time>2022-07-31T08:42:34Z</time>
      </trkpt>
      <trkpt lat="46.17213" lon="6.63492">
        <ele>1506</ele>
        <time>2022-07-31T08:42:35Z</time>
      </trkpt>
      <trkpt lat="46.17212" lon="6.63492">
        <ele>1506</ele>
        <time>2022-07-31T08:42:36Z</time>
      </trkpt>
      <trkpt lat="46.17212" lon="6.63491">
        <ele>1506</ele>
        <time>2022-07-31T08:42:37Z</time>
      </trkpt>
      <trkpt lat="46.17211" lon="6.63491">
        <ele>1506</ele>
        <time>2022-07-31T08:42:38Z</time>
      </trkpt>
      <trkpt lat="46.17211" lon="6.6349">
        <ele>1506</ele>
        <time>2022-07-31T08:42:39Z</time>
      </trkpt>
      <trkpt lat="46.1721" lon="6.6349">
        <ele>1506</ele>
        <time>2022-07-31T08:42:40Z</time>
      </trkpt>
      <trkpt lat="46.1721" lon="6.63491">
        <ele>1506</ele>
        <time>2022-07-31T08:42:41Z</time>
      </trkpt>
      <trkpt lat="46.1721" lon="6.6349">
        <ele>1506</ele>
        <time>2022-07-31T08:42:42Z</time>
      </trkpt>
      <trkpt lat="46.1721" lon="6.63489">
        <ele>1506</ele>
        <time>2022-07-31T08:42:43Z</time>
      </trkpt>
      <trkpt lat="46.1721" lon="6.63488">
        <ele>1506</ele>
        <time>2022-07-31T08:42:44Z</time>
      </trkpt>
      <trkpt lat="46.1721" lon="6.63488">
        <ele>1506</ele>
        <time>2022-07-31T08:42:45Z</time>
      </trkpt>
      <trkpt lat="46.17209" lon="6.63488">
        <ele>1506</ele>
        <time>2022-07-31T08:42:46Z</time>
      </trkpt>
      <trkpt lat="46.17209" lon="6.63488">
        <ele>1506</ele>
        <time>2022-07-31T08:42:47Z</time>
      </trkpt>
      <trkpt lat="46.17209" lon="6.63487">
        <ele>1506</ele>
        <time>2022-07-31T08:42:48Z</time>
      </trkpt>
      <trkpt lat="46.17208" lon="6.63487">
        <ele>1506</ele>
        <time>2022-07-31T08:42:49Z</time>
      </trkpt>
      <trkpt lat="46.17208" lon="6.63487">
        <ele>1506</ele>
        <time>2022-07-31T08:42:50Z</time>
      </trkpt>
      <trkpt lat="46.17208" lon="6.63487">
        <ele>1506</ele>
        <time>2022-07-31T08:42:51Z</time>
      </trkpt>
      <trkpt lat="46.17208" lon="6.63487">
        <ele>1506</ele>
        <time>2022-07-31T08:42:52Z</time>
      </trkpt>
      <trkpt lat="46.17208" lon="6.63486">
        <ele>1506</ele>
        <time>2022-07-31T08:42:53Z</time>
      </trkpt>
      <trkpt lat="46.17208" lon="6.63486">
        <ele>1506</ele>
        <time>2022-07-31T08:42:54Z</time>
      </trkpt>
      <trkpt lat="46.17208" lon="6.63486">
        <ele>1506</ele>
        <time>2022-07-31T08:42:55Z</time>
      </trkpt>
      <trkpt lat="46.17208" lon="6.63486">
        <ele>1506</ele>
        <time>2022-07-31T08:42:56Z</time>
      </trkpt>
      <trkpt lat="46.17207" lon="6.63485">
        <ele>1506</ele>
        <time>2022-07-31T08:42:57Z</time>
      </trkpt>
      <trkpt lat="46.17207" lon="6.63486">
        <ele>1506</ele>
        <time>2022-07-31T08:42:58Z</time>
      </trkpt>
      <trkpt lat="46.17206" lon="6.63486">
        <ele>1506</ele>
        <time>2022-07-31T08:42:59Z</time>
      </trkpt>
      <trkpt lat="46.17206" lon="6.63487">
        <ele>1506</ele>
        <time>2022-07-31T08:43:00Z</time>
      </trkpt>
      <trkpt lat="46.17205" lon="6.63488">
        <ele>1505</ele>
        <time>2022-07-31T08:43:01Z</time>
      </trkpt>
      <trkpt lat="46.17204" lon="6.63489">
        <ele>1505</ele>
        <time>2022-07-31T08:43:02Z</time>
      </trkpt>
      <trkpt lat="46.17203" lon="6.63489">
        <ele>1505</ele>
        <time>2022-07-31T08:43:03Z</time>
      </trkpt>
      <trkpt lat="46.17203" lon="6.6349">
        <ele>1505</ele>
        <time>2022-07-31T08:43:04Z</time>
      </trkpt>
      <trkpt lat="46.17203" lon="6.63491">
        <ele>1505</ele>
        <time>2022-07-31T08:43:05Z</time>
      </trkpt>
      <trkpt lat="46.17203" lon="6.63491">
        <ele>1505</ele>
        <time>2022-07-31T08:43:06Z</time>
      </trkpt>
      <trkpt lat="46.17203" lon="6.63491">
        <ele>1505</ele>
        <time>2022-07-31T08:43:07Z</time>
      </trkpt>
      <trkpt lat="46.17203" lon="6.63492">
        <ele>1505</ele>
        <time>2022-07-31T08:43:08Z</time>
      </trkpt>
      <trkpt lat="46.17203" lon="6.63492">
        <ele>1505</ele>
        <time>2022-07-31T08:43:09Z</time>
      </trkpt>
      <trkpt lat="46.17202" lon="6.63492">
        <ele>1505</ele>
        <time>2022-07-31T08:43:10Z</time>
      </trkpt>
      <trkpt lat="46.17202" lon="6.63491">
        <ele>1505</ele>
        <time>2022-07-31T08:43:11Z</time>
      </trkpt>
      <trkpt lat="46.17201" lon="6.63491">
        <ele>1505</ele>
        <time>2022-07-31T08:43:12Z</time>
      </trkpt>
      <trkpt lat="46.17201" lon="6.63491">
        <ele>1505</ele>
        <time>2022-07-31T08:43:13Z</time>
      </trkpt>
      <trkpt lat="46.172" lon="6.63492">
        <ele>1505</ele>
        <time>2022-07-31T08:43:14Z</time>
      </trkpt>
      <trkpt lat="46.17199" lon="6.63492">
        <ele>1505</ele>
        <time>2022-07-31T08:43:15Z</time>
      </trkpt>
      <trkpt lat="46.17198" lon="6.63492">
        <ele>1505</ele>
        <time>2022-07-31T08:43:16Z</time>
      </trkpt>
      <trkpt lat="46.17198" lon="6.63493">
        <ele>1505</ele>
        <time>2022-07-31T08:43:17Z</time>
      </trkpt>
      <trkpt lat="46.17198" lon="6.63493">
        <ele>1505</ele>
        <time>2022-07-31T08:43:18Z</time>
      </trkpt>
      <trkpt lat="46.17198" lon="6.63494">
        <ele>1505</ele>
        <time>2022-07-31T08:43:19Z</time>
      </trkpt>
      <trkpt lat="46.17197" lon="6.63495">
        <ele>1505</ele>
        <time>2022-07-31T08:43:20Z</time>
      </trkpt>
      <trkpt lat="46.17196" lon="6.63495">
        <ele>1505</ele>
        <time>2022-07-31T08:43:21Z</time>
      </trkpt>
      <trkpt lat="46.17195" lon="6.63495">
        <ele>1505</ele>
        <time>2022-07-31T08:43:22Z</time>
      </trkpt>
      <trkpt lat="46.17195" lon="6.63493">
        <ele>1505</ele>
        <time>2022-07-31T08:43:23Z</time>
      </trkpt>
      <trkpt lat="46.17194" lon="6.63492">
        <ele>1504</ele>
        <time>2022-07-31T08:43:24Z</time>
      </trkpt>
      <trkpt lat="46.17194" lon="6.63491">
        <ele>1504</ele>
        <time>2022-07-31T08:43:25Z</time>
      </trkpt>
      <trkpt lat="46.17194" lon="6.63491">
        <ele>1504</ele>
        <time>2022-07-31T08:43:26Z</time>
      </trkpt>
      <trkpt lat="46.17193" lon="6.63491">
        <ele>1504</ele>
        <time>2022-07-31T08:43:27Z</time>
      </trkpt>
      <trkpt lat="46.17192" lon="6.63491">
        <ele>1504</ele>
        <time>2022-07-31T08:43:28Z</time>
      </trkpt>
      <trkpt lat="46.17192" lon="6.6349">
        <ele>1504</ele>
        <time>2022-07-31T08:43:29Z</time>
      </trkpt>
      <trkpt lat="46.17191" lon="6.63491">
        <ele>1504</ele>
        <time>2022-07-31T08:43:30Z</time>
      </trkpt>
      <trkpt lat="46.17191" lon="6.6349">
        <ele>1504</ele>
        <time>2022-07-31T08:43:31Z</time>
      </trkpt>
      <trkpt lat="46.17191" lon="6.63491">
        <ele>1504</ele>
        <time>2022-07-31T08:43:32Z</time>
      </trkpt>
      <trkpt lat="46.17191" lon="6.63493">
        <ele>1504</ele>
        <time>2022-07-31T08:43:33Z</time>
      </trkpt>
      <trkpt lat="46.17191" lon="6.63494">
        <ele>1504</ele>
        <time>2022-07-31T08:43:34Z</time>
      </trkpt>
      <trkpt lat="46.1719" lon="6.63496">
        <ele>1504</ele>
        <time>2022-07-31T08:43:35Z</time>
      </trkpt>
      <trkpt lat="46.17189" lon="6.63497">
        <ele>1504</ele>
        <time>2022-07-31T08:43:36Z</time>
      </trkpt>
      <trkpt lat="46.17188" lon="6.63497">
        <ele>1504</ele>
        <time>2022-07-31T08:43:37Z</time>
      </trkpt>
      <trkpt lat="46.17188" lon="6.63498">
        <ele>1504</ele>
        <time>2022-07-31T08:43:38Z</time>
      </trkpt>
      <trkpt lat="46.17187" lon="6.63499">
        <ele>1504</ele>
        <time>2022-07-31T08:43:39Z</time>
      </trkpt>
      <trkpt lat="46.17186" lon="6.63499">
        <ele>1504</ele>
        <time>2022-07-31T08:43:40Z</time>
      </trkpt>
      <trkpt lat="46.17185" lon="6.635">
        <ele>1504</ele>
        <time>2022-07-31T08:43:41Z</time>
      </trkpt>
      <trkpt lat="46.17185" lon="6.63501">
        <ele>1504</ele>
        <time>2022-07-31T08:43:42Z</time>
      </trkpt>
      <trkpt lat="46.17184" lon="6.63501">
        <ele>1504</ele>
        <time>2022-07-31T08:43:43Z</time>
      </trkpt>
      <trkpt lat="46.17183" lon="6.63501">
        <ele>1504</ele>
        <time>2022-07-31T08:43:44Z</time>
      </trkpt>
      <trkpt lat="46.17182" lon="6.63502">
        <ele>1504</ele>
        <time>2022-07-31T08:43:45Z</time>
      </trkpt>
      <trkpt lat="46.17182" lon="6.63503">
        <ele>1504</ele>
        <time>2022-07-31T08:43:46Z</time>
      </trkpt>
      <trkpt lat="46.17182" lon="6.63504">
        <ele>1505</ele>
        <time>2022-07-31T08:43:47Z</time>
      </trkpt>
      <trkpt lat="46.17182" lon="6.63505">
        <ele>1505</ele>
        <time>2022-07-31T08:43:48Z</time>
      </trkpt>
      <trkpt lat="46.17181" lon="6.63505">
        <ele>1505</ele>
        <time>2022-07-31T08:43:49Z</time>
      </trkpt>
      <trkpt lat="46.1718" lon="6.63505">
        <ele>1505</ele>
        <time>2022-07-31T08:43:50Z</time>
      </trkpt>
      <trkpt lat="46.1718" lon="6.63506">
        <ele>1505</ele>
        <time>2022-07-31T08:43:51Z</time>
      </trkpt>
      <trkpt lat="46.1718" lon="6.63506">
        <ele>1505</ele>
        <time>2022-07-31T08:43:52Z</time>
      </trkpt>
      <trkpt lat="46.1718" lon="6.63508">
        <ele>1505</ele>
        <time>2022-07-31T08:43:53Z</time>
      </trkpt>
      <trkpt lat="46.1718" lon="6.6351">
        <ele>1505</ele>
        <time>2022-07-31T08:43:54Z</time>
      </trkpt>
      <trkpt lat="46.1718" lon="6.6351">
        <ele>1505</ele>
        <time>2022-07-31T08:43:55Z</time>
      </trkpt>
      <trkpt lat="46.17179" lon="6.63511">
        <ele>1505</ele>
        <time>2022-07-31T08:43:56Z</time>
      </trkpt>
      <trkpt lat="46.17178" lon="6.63512">
        <ele>1505</ele>
        <time>2022-07-31T08:43:57Z</time>
      </trkpt>
      <trkpt lat="46.17178" lon="6.63512">
        <ele>1506</ele>
        <time>2022-07-31T08:43:58Z</time>
      </trkpt>
      <trkpt lat="46.17177" lon="6.63513">
        <ele>1506</ele>
        <time>2022-07-31T08:43:59Z</time>
      </trkpt>
      <trkpt lat="46.17177" lon="6.63514">
        <ele>1506</ele>
        <time>2022-07-31T08:44:00Z</time>
      </trkpt>
      <trkpt lat="46.17176" lon="6.63515">
        <ele>1506</ele>
        <time>2022-07-31T08:44:01Z</time>
      </trkpt>
      <trkpt lat="46.17176" lon="6.63516">
        <ele>1506</ele>
        <time>2022-07-31T08:44:02Z</time>
      </trkpt>
      <trkpt lat="46.17175" lon="6.63516">
        <ele>1506</ele>
        <time>2022-07-31T08:44:03Z</time>
      </trkpt>
      <trkpt lat="46.17174" lon="6.63516">
        <ele>1507</ele>
        <time>2022-07-31T08:44:04Z</time>
      </trkpt>
      <trkpt lat="46.17174" lon="6.63517">
        <ele>1507</ele>
        <time>2022-07-31T08:44:05Z</time>
      </trkpt>
      <trkpt lat="46.17174" lon="6.63518">
        <ele>1507</ele>
        <time>2022-07-31T08:44:06Z</time>
      </trkpt>
      <trkpt lat="46.17174" lon="6.63519">
        <ele>1507</ele>
        <time>2022-07-31T08:44:07Z</time>
      </trkpt>
      <trkpt lat="46.17173" lon="6.6352">
        <ele>1507</ele>
        <time>2022-07-31T08:44:08Z</time>
      </trkpt>
      <trkpt lat="46.17173" lon="6.6352">
        <ele>1507</ele>
        <time>2022-07-31T08:44:09Z</time>
      </trkpt>
      <trkpt lat="46.17172" lon="6.63522">
        <ele>1508</ele>
        <time>2022-07-31T08:44:10Z</time>
      </trkpt>
      <trkpt lat="46.17172" lon="6.63522">
        <ele>1508</ele>
        <time>2022-07-31T08:44:11Z</time>
      </trkpt>
      <trkpt lat="46.17172" lon="6.63522">
        <ele>1508</ele>
        <time>2022-07-31T08:44:12Z</time>
      </trkpt>
      <trkpt lat="46.17172" lon="6.63523">
        <ele>1508</ele>
        <time>2022-07-31T08:44:13Z</time>
      </trkpt>
      <trkpt lat="46.17172" lon="6.63524">
        <ele>1508</ele>
        <time>2022-07-31T08:44:14Z</time>
      </trkpt>
      <trkpt lat="46.17172" lon="6.63524">
        <ele>1508</ele>
        <time>2022-07-31T08:44:15Z</time>
      </trkpt>
      <trkpt lat="46.17171" lon="6.63525">
        <ele>1508</ele>
        <time>2022-07-31T08:44:16Z</time>
      </trkpt>
      <trkpt lat="46.17171" lon="6.63525">
        <ele>1508</ele>
        <time>2022-07-31T08:44:17Z</time>
      </trkpt>
      <trkpt lat="46.17171" lon="6.63527">
        <ele>1508</ele>
        <time>2022-07-31T08:44:18Z</time>
      </trkpt>
      <trkpt lat="46.17171" lon="6.63529">
        <ele>1508</ele>
        <time>2022-07-31T08:44:19Z</time>
      </trkpt>
      <trkpt lat="46.17171" lon="6.6353">
        <ele>1508</ele>
        <time>2022-07-31T08:44:20Z</time>
      </trkpt>
      <trkpt lat="46.1717" lon="6.63532">
        <ele>1509</ele>
        <time>2022-07-31T08:44:21Z</time>
      </trkpt>
      <trkpt lat="46.1717" lon="6.63532">
        <ele>1509</ele>
        <time>2022-07-31T08:44:22Z</time>
      </trkpt>
      <trkpt lat="46.17171" lon="6.63533">
        <ele>1509</ele>
        <time>2022-07-31T08:44:23Z</time>
      </trkpt>
      <trkpt lat="46.17171" lon="6.63535">
        <ele>1509</ele>
        <time>2022-07-31T08:44:24Z</time>
      </trkpt>
      <trkpt lat="46.17171" lon="6.63537">
        <ele>1509</ele>
        <time>2022-07-31T08:44:25Z</time>
      </trkpt>
      <trkpt lat="46.17171" lon="6.63537">
        <ele>1509</ele>
        <time>2022-07-31T08:44:26Z</time>
      </trkpt>
      <trkpt lat="46.17171" lon="6.63539">
        <ele>1510</ele>
        <time>2022-07-31T08:44:27Z</time>
      </trkpt>
      <trkpt lat="46.17171" lon="6.6354">
        <ele>1510</ele>
        <time>2022-07-31T08:44:28Z</time>
      </trkpt>
      <trkpt lat="46.1717" lon="6.63541">
        <ele>1510</ele>
        <time>2022-07-31T08:44:29Z</time>
      </trkpt>
      <trkpt lat="46.1717" lon="6.63541">
        <ele>1510</ele>
        <time>2022-07-31T08:44:30Z</time>
      </trkpt>
      <trkpt lat="46.17169" lon="6.63542">
        <ele>1511</ele>
        <time>2022-07-31T08:44:31Z</time>
      </trkpt>
      <trkpt lat="46.17168" lon="6.63542">
        <ele>1511</ele>
        <time>2022-07-31T08:44:32Z</time>
      </trkpt>
      <trkpt lat="46.17168" lon="6.63543">
        <ele>1511</ele>
        <time>2022-07-31T08:44:33Z</time>
      </trkpt>
      <trkpt lat="46.17168" lon="6.63544">
        <ele>1511</ele>
        <time>2022-07-31T08:44:34Z</time>
      </trkpt>
      <trkpt lat="46.17168" lon="6.63545">
        <ele>1511</ele>
        <time>2022-07-31T08:44:35Z</time>
      </trkpt>
      <trkpt lat="46.17169" lon="6.63546">
        <ele>1511</ele>
        <time>2022-07-31T08:44:36Z</time>
      </trkpt>
      <trkpt lat="46.17169" lon="6.63547">
        <ele>1512</ele>
        <time>2022-07-31T08:44:37Z</time>
      </trkpt>
      <trkpt lat="46.17171" lon="6.63548">
        <ele>1512</ele>
        <time>2022-07-31T08:44:38Z</time>
      </trkpt>
      <trkpt lat="46.17171" lon="6.63549">
        <ele>1512</ele>
        <time>2022-07-31T08:44:39Z</time>
      </trkpt>
      <trkpt lat="46.17171" lon="6.63549">
        <ele>1512</ele>
        <time>2022-07-31T08:44:40Z</time>
      </trkpt>
      <trkpt lat="46.17171" lon="6.63549">
        <ele>1512</ele>
        <time>2022-07-31T08:44:41Z</time>
      </trkpt>
      <trkpt lat="46.17171" lon="6.63549">
        <ele>1513</ele>
        <time>2022-07-31T08:44:42Z</time>
      </trkpt>
      <trkpt lat="46.17171" lon="6.63549">
        <ele>1513</ele>
        <time>2022-07-31T08:44:43Z</time>
      </trkpt>
      <trkpt lat="46.17171" lon="6.63549">
        <ele>1513</ele>
        <time>2022-07-31T08:44:44Z</time>
      </trkpt>
      <trkpt lat="46.17171" lon="6.6355">
        <ele>1513</ele>
        <time>2022-07-31T08:44:45Z</time>
      </trkpt>
      <trkpt lat="46.17171" lon="6.63549">
        <ele>1513</ele>
        <time>2022-07-31T08:44:46Z</time>
      </trkpt>
      <trkpt lat="46.17171" lon="6.63548">
        <ele>1514</ele>
        <time>2022-07-31T08:44:47Z</time>
      </trkpt>
      <trkpt lat="46.17171" lon="6.63547">
        <ele>1514</ele>
        <time>2022-07-31T08:44:48Z</time>
      </trkpt>
      <trkpt lat="46.17171" lon="6.63547">
        <ele>1514</ele>
        <time>2022-07-31T08:44:49Z</time>
      </trkpt>
      <trkpt lat="46.17171" lon="6.63546">
        <ele>1514</ele>
        <time>2022-07-31T08:44:50Z</time>
      </trkpt>
      <trkpt lat="46.17171" lon="6.63546">
        <ele>1514</ele>
        <time>2022-07-31T08:44:51Z</time>
      </trkpt>
      <trkpt lat="46.1717" lon="6.63546">
        <ele>1514</ele>
        <time>2022-07-31T08:44:52Z</time>
      </trkpt>
      <trkpt lat="46.1717" lon="6.63546">
        <ele>1515</ele>
        <time>2022-07-31T08:44:53Z</time>
      </trkpt>
      <trkpt lat="46.1717" lon="6.63546">
        <ele>1515</ele>
        <time>2022-07-31T08:44:54Z</time>
      </trkpt>
      <trkpt lat="46.17169" lon="6.63546">
        <ele>1515</ele>
        <time>2022-07-31T08:44:55Z</time>
      </trkpt>
      <trkpt lat="46.17169" lon="6.63546">
        <ele>1515</ele>
        <time>2022-07-31T08:44:56Z</time>
      </trkpt>
      <trkpt lat="46.17169" lon="6.63546">
        <ele>1515</ele>
        <time>2022-07-31T08:44:57Z</time>
      </trkpt>
      <trkpt lat="46.17169" lon="6.63547">
        <ele>1515</ele>
        <time>2022-07-31T08:44:58Z</time>
      </trkpt>
      <trkpt lat="46.17169" lon="6.63547">
        <ele>1515</ele>
        <time>2022-07-31T08:44:59Z</time>
      </trkpt>
      <trkpt lat="46.17169" lon="6.63547">
        <ele>1515</ele>
        <time>2022-07-31T08:45:00Z</time>
      </trkpt>
      <trkpt lat="46.17169" lon="6.63548">
        <ele>1515</ele>
        <time>2022-07-31T08:45:01Z</time>
      </trkpt>
      <trkpt lat="46.17169" lon="6.63548">
        <ele>1515</ele>
        <time>2022-07-31T08:45:02Z</time>
      </trkpt>
      <trkpt lat="46.17169" lon="6.63548">
        <ele>1515</ele>
        <time>2022-07-31T08:45:03Z</time>
      </trkpt>
      <trkpt lat="46.17169" lon="6.63548">
        <ele>1515</ele>
        <time>2022-07-31T08:45:04Z</time>
      </trkpt>
      <trkpt lat="46.1717" lon="6.63549">
        <ele>1515</ele>
        <time>2022-07-31T08:45:05Z</time>
      </trkpt>
      <trkpt lat="46.17171" lon="6.63549">
        <ele>1516</ele>
        <time>2022-07-31T08:45:06Z</time>
      </trkpt>
      <trkpt lat="46.17171" lon="6.6355">
        <ele>1516</ele>
        <time>2022-07-31T08:45:07Z</time>
      </trkpt>
      <trkpt lat="46.17171" lon="6.6355">
        <ele>1516</ele>
        <time>2022-07-31T08:45:08Z</time>
      </trkpt>
      <trkpt lat="46.17171" lon="6.63551">
        <ele>1516</ele>
        <time>2022-07-31T08:45:09Z</time>
      </trkpt>
      <trkpt lat="46.17172" lon="6.63552">
        <ele>1516</ele>
        <time>2022-07-31T08:45:10Z</time>
      </trkpt>
      <trkpt lat="46.17172" lon="6.63553">
        <ele>1516</ele>
        <time>2022-07-31T08:45:11Z</time>
      </trkpt>
      <trkpt lat="46.17172" lon="6.63555">
        <ele>1516</ele>
        <time>2022-07-31T08:45:12Z</time>
      </trkpt>
      <trkpt lat="46.17173" lon="6.63557">
        <ele>1516</ele>
        <time>2022-07-31T08:45:13Z</time>
      </trkpt>
      <trkpt lat="46.17174" lon="6.63558">
        <ele>1516</ele>
        <time>2022-07-31T08:45:14Z</time>
      </trkpt>
      <trkpt lat="46.17174" lon="6.6356">
        <ele>1516</ele>
        <time>2022-07-31T08:45:15Z</time>
      </trkpt>
      <trkpt lat="46.17174" lon="6.63561">
        <ele>1516</ele>
        <time>2022-07-31T08:45:16Z</time>
      </trkpt>
      <trkpt lat="46.17174" lon="6.63562">
        <ele>1516</ele>
        <time>2022-07-31T08:45:17Z</time>
      </trkpt>
      <trkpt lat="46.17174" lon="6.63564">
        <ele>1516</ele>
        <time>2022-07-31T08:45:18Z</time>
      </trkpt>
      <trkpt lat="46.17174" lon="6.63566">
        <ele>1516</ele>
        <time>2022-07-31T08:45:19Z</time>
      </trkpt>
      <trkpt lat="46.17174" lon="6.63568">
        <ele>1516</ele>
        <time>2022-07-31T08:45:20Z</time>
      </trkpt>
      <trkpt lat="46.17174" lon="6.63569">
        <ele>1517</ele>
        <time>2022-07-31T08:45:21Z</time>
      </trkpt>
      <trkpt lat="46.17174" lon="6.6357">
        <ele>1517</ele>
        <time>2022-07-31T08:45:22Z</time>
      </trkpt>
      <trkpt lat="46.17174" lon="6.6357">
        <ele>1517</ele>
        <time>2022-07-31T08:45:23Z</time>
      </trkpt>
      <trkpt lat="46.17174" lon="6.6357">
        <ele>1517</ele>
        <time>2022-07-31T08:45:24Z</time>
      </trkpt>
      <trkpt lat="46.17174" lon="6.63572">
        <ele>1517</ele>
        <time>2022-07-31T08:45:25Z</time>
      </trkpt>
      <trkpt lat="46.17174" lon="6.63572">
        <ele>1517</ele>
        <time>2022-07-31T08:45:26Z</time>
      </trkpt>
      <trkpt lat="46.17174" lon="6.63573">
        <ele>1516</ele>
        <time>2022-07-31T08:45:27Z</time>
      </trkpt>
      <trkpt lat="46.17173" lon="6.63574">
        <ele>1516</ele>
        <time>2022-07-31T08:45:28Z</time>
      </trkpt>
      <trkpt lat="46.17174" lon="6.63574">
        <ele>1516</ele>
        <time>2022-07-31T08:45:29Z</time>
      </trkpt>
      <trkpt lat="46.17174" lon="6.63574">
        <ele>1516</ele>
        <time>2022-07-31T08:45:30Z</time>
      </trkpt>
      <trkpt lat="46.17174" lon="6.63575">
        <ele>1516</ele>
        <time>2022-07-31T08:45:31Z</time>
      </trkpt>
      <trkpt lat="46.17174" lon="6.63577">
        <ele>1516</ele>
        <time>2022-07-31T08:45:32Z</time>
      </trkpt>
      <trkpt lat="46.17174" lon="6.63579">
        <ele>1516</ele>
        <time>2022-07-31T08:45:33Z</time>
      </trkpt>
      <trkpt lat="46.17174" lon="6.63581">
        <ele>1516</ele>
        <time>2022-07-31T08:45:34Z</time>
      </trkpt>
      <trkpt lat="46.17176" lon="6.63583">
        <ele>1516</ele>
        <time>2022-07-31T08:45:35Z</time>
      </trkpt>
      <trkpt lat="46.17175" lon="6.63584">
        <ele>1516</ele>
        <time>2022-07-31T08:45:36Z</time>
      </trkpt>
      <trkpt lat="46.17175" lon="6.63586">
        <ele>1516</ele>
        <time>2022-07-31T08:45:37Z</time>
      </trkpt>
      <trkpt lat="46.17176" lon="6.63587">
        <ele>1516</ele>
        <time>2022-07-31T08:45:38Z</time>
      </trkpt>
      <trkpt lat="46.17176" lon="6.63587">
        <ele>1516</ele>
        <time>2022-07-31T08:45:39Z</time>
      </trkpt>
      <trkpt lat="46.17176" lon="6.63588">
        <ele>1516</ele>
        <time>2022-07-31T08:45:40Z</time>
      </trkpt>
      <trkpt lat="46.17176" lon="6.63589">
        <ele>1516</ele>
        <time>2022-07-31T08:45:41Z</time>
      </trkpt>
      <trkpt lat="46.17176" lon="6.63589">
        <ele>1516</ele>
        <time>2022-07-31T08:45:42Z</time>
      </trkpt>
      <trkpt lat="46.17176" lon="6.6359">
        <ele>1516</ele>
        <time>2022-07-31T08:45:43Z</time>
      </trkpt>
      <trkpt lat="46.17176" lon="6.63592">
        <ele>1517</ele>
        <time>2022-07-31T08:45:44Z</time>
      </trkpt>
      <trkpt lat="46.17176" lon="6.63592">
        <ele>1517</ele>
        <time>2022-07-31T08:45:45Z</time>
      </trkpt>
      <trkpt lat="46.17177" lon="6.63593">
        <ele>1517</ele>
        <time>2022-07-31T08:45:46Z</time>
      </trkpt>
      <trkpt lat="46.17177" lon="6.63594">
        <ele>1517</ele>
        <time>2022-07-31T08:45:47Z</time>
      </trkpt>
      <trkpt lat="46.17177" lon="6.63596">
        <ele>1518</ele>
        <time>2022-07-31T08:45:48Z</time>
      </trkpt>
      <trkpt lat="46.17178" lon="6.63596">
        <ele>1518</ele>
        <time>2022-07-31T08:45:49Z</time>
      </trkpt>
      <trkpt lat="46.17178" lon="6.63597">
        <ele>1518</ele>
        <time>2022-07-31T08:45:50Z</time>
      </trkpt>
      <trkpt lat="46.17179" lon="6.63599">
        <ele>1518</ele>
        <time>2022-07-31T08:45:51Z</time>
      </trkpt>
      <trkpt lat="46.17179" lon="6.63599">
        <ele>1519</ele>
        <time>2022-07-31T08:45:52Z</time>
      </trkpt>
      <trkpt lat="46.17179" lon="6.63601">
        <ele>1519</ele>
        <time>2022-07-31T08:45:53Z</time>
      </trkpt>
      <trkpt lat="46.17179" lon="6.63602">
        <ele>1519</ele>
        <time>2022-07-31T08:45:54Z</time>
      </trkpt>
      <trkpt lat="46.17179" lon="6.63603">
        <ele>1519</ele>
        <time>2022-07-31T08:45:55Z</time>
      </trkpt>
      <trkpt lat="46.17179" lon="6.63605">
        <ele>1519</ele>
        <time>2022-07-31T08:45:56Z</time>
      </trkpt>
      <trkpt lat="46.17179" lon="6.63607">
        <ele>1520</ele>
        <time>2022-07-31T08:45:57Z</time>
      </trkpt>
      <trkpt lat="46.1718" lon="6.63608">
        <ele>1520</ele>
        <time>2022-07-31T08:45:58Z</time>
      </trkpt>
      <trkpt lat="46.1718" lon="6.63609">
        <ele>1520</ele>
        <time>2022-07-31T08:45:59Z</time>
      </trkpt>
      <trkpt lat="46.1718" lon="6.63611">
        <ele>1520</ele>
        <time>2022-07-31T08:46:00Z</time>
      </trkpt>
      <trkpt lat="46.1718" lon="6.63612">
        <ele>1521</ele>
        <time>2022-07-31T08:46:01Z</time>
      </trkpt>
      <trkpt lat="46.1718" lon="6.63612">
        <ele>1521</ele>
        <time>2022-07-31T08:46:02Z</time>
      </trkpt>
      <trkpt lat="46.1718" lon="6.63614">
        <ele>1521</ele>
        <time>2022-07-31T08:46:03Z</time>
      </trkpt>
      <trkpt lat="46.1718" lon="6.63615">
        <ele>1522</ele>
        <time>2022-07-31T08:46:04Z</time>
      </trkpt>
      <trkpt lat="46.1718" lon="6.63616">
        <ele>1522</ele>
        <time>2022-07-31T08:46:05Z</time>
      </trkpt>
      <trkpt lat="46.1718" lon="6.63617">
        <ele>1522</ele>
        <time>2022-07-31T08:46:06Z</time>
      </trkpt>
      <trkpt lat="46.1718" lon="6.63619">
        <ele>1523</ele>
        <time>2022-07-31T08:46:07Z</time>
      </trkpt>
      <trkpt lat="46.1718" lon="6.63621">
        <ele>1523</ele>
        <time>2022-07-31T08:46:08Z</time>
      </trkpt>
      <trkpt lat="46.17181" lon="6.63622">
        <ele>1523</ele>
        <time>2022-07-31T08:46:09Z</time>
      </trkpt>
      <trkpt lat="46.17181" lon="6.63623">
        <ele>1524</ele>
        <time>2022-07-31T08:46:10Z</time>
      </trkpt>
      <trkpt lat="46.17181" lon="6.63624">
        <ele>1524</ele>
        <time>2022-07-31T08:46:11Z</time>
      </trkpt>
      <trkpt lat="46.17181" lon="6.63625">
        <ele>1524</ele>
        <time>2022-07-31T08:46:12Z</time>
      </trkpt>
      <trkpt lat="46.1718" lon="6.63626">
        <ele>1524</ele>
        <time>2022-07-31T08:46:13Z</time>
      </trkpt>
      <trkpt lat="46.1718" lon="6.63627">
        <ele>1524</ele>
        <time>2022-07-31T08:46:14Z</time>
      </trkpt>
      <trkpt lat="46.17179" lon="6.63627">
        <ele>1525</ele>
        <time>2022-07-31T08:46:15Z</time>
      </trkpt>
      <trkpt lat="46.17179" lon="6.63627">
        <ele>1525</ele>
        <time>2022-07-31T08:46:16Z</time>
      </trkpt>
      <trkpt lat="46.17179" lon="6.63627">
        <ele>1525</ele>
        <time>2022-07-31T08:46:17Z</time>
      </trkpt>
      <trkpt lat="46.1718" lon="6.63626">
        <ele>1525</ele>
        <time>2022-07-31T08:46:18Z</time>
      </trkpt>
      <trkpt lat="46.1718" lon="6.63626">
        <ele>1525</ele>
        <time>2022-07-31T08:46:19Z</time>
      </trkpt>
      <trkpt lat="46.1718" lon="6.63625">
        <ele>1526</ele>
        <time>2022-07-31T08:46:20Z</time>
      </trkpt>
      <trkpt lat="46.1718" lon="6.63624">
        <ele>1526</ele>
        <time>2022-07-31T08:46:21Z</time>
      </trkpt>
      <trkpt lat="46.1718" lon="6.63624">
        <ele>1526</ele>
        <time>2022-07-31T08:46:22Z</time>
      </trkpt>
      <trkpt lat="46.1718" lon="6.63623">
        <ele>1526</ele>
        <time>2022-07-31T08:46:23Z</time>
      </trkpt>
      <trkpt lat="46.1718" lon="6.63623">
        <ele>1526</ele>
        <time>2022-07-31T08:46:24Z</time>
      </trkpt>
      <trkpt lat="46.1718" lon="6.63623">
        <ele>1526</ele>
        <time>2022-07-31T08:46:25Z</time>
      </trkpt>
      <trkpt lat="46.1718" lon="6.63622">
        <ele>1527</ele>
        <time>2022-07-31T08:46:26Z</time>
      </trkpt>
      <trkpt lat="46.1718" lon="6.63622">
        <ele>1527</ele>
        <time>2022-07-31T08:46:27Z</time>
      </trkpt>
      <trkpt lat="46.1718" lon="6.63622">
        <ele>1527</ele>
        <time>2022-07-31T08:46:28Z</time>
      </trkpt>
      <trkpt lat="46.1718" lon="6.63622">
        <ele>1527</ele>
        <time>2022-07-31T08:46:29Z</time>
      </trkpt>
      <trkpt lat="46.1718" lon="6.63622">
        <ele>1527</ele>
        <time>2022-07-31T08:46:30Z</time>
      </trkpt>
      <trkpt lat="46.17181" lon="6.63622">
        <ele>1528</ele>
        <time>2022-07-31T08:46:31Z</time>
      </trkpt>
      <trkpt lat="46.17182" lon="6.63622">
        <ele>1528</ele>
        <time>2022-07-31T08:46:32Z</time>
      </trkpt>
      <trkpt lat="46.17182" lon="6.63622">
        <ele>1528</ele>
        <time>2022-07-31T08:46:33Z</time>
      </trkpt>
      <trkpt lat="46.17182" lon="6.63622">
        <ele>1528</ele>
        <time>2022-07-31T08:46:34Z</time>
      </trkpt>
      <trkpt lat="46.17182" lon="6.63621">
        <ele>1528</ele>
        <time>2022-07-31T08:46:35Z</time>
      </trkpt>
      <trkpt lat="46.17182" lon="6.63621">
        <ele>1528</ele>
        <time>2022-07-31T08:46:36Z</time>
      </trkpt>
      <trkpt lat="46.17182" lon="6.63621">
        <ele>1529</ele>
        <time>2022-07-31T08:46:37Z</time>
      </trkpt>
      <trkpt lat="46.17182" lon="6.63621">
        <ele>1529</ele>
        <time>2022-07-31T08:46:38Z</time>
      </trkpt>
      <trkpt lat="46.17182" lon="6.6362">
        <ele>1529</ele>
        <time>2022-07-31T08:46:39Z</time>
      </trkpt>
      <trkpt lat="46.17182" lon="6.6362">
        <ele>1529</ele>
        <time>2022-07-31T08:46:40Z</time>
      </trkpt>
      <trkpt lat="46.17182" lon="6.6362">
        <ele>1529</ele>
        <time>2022-07-31T08:46:41Z</time>
      </trkpt>
      <trkpt lat="46.17183" lon="6.6362">
        <ele>1529</ele>
        <time>2022-07-31T08:46:42Z</time>
      </trkpt>
      <trkpt lat="46.17183" lon="6.6362">
        <ele>1529</ele>
        <time>2022-07-31T08:46:43Z</time>
      </trkpt>
      <trkpt lat="46.17184" lon="6.6362">
        <ele>1529</ele>
        <time>2022-07-31T08:46:44Z</time>
      </trkpt>
      <trkpt lat="46.17184" lon="6.63619">
        <ele>1529</ele>
        <time>2022-07-31T08:46:45Z</time>
      </trkpt>
      <trkpt lat="46.17183" lon="6.63619">
        <ele>1530</ele>
        <time>2022-07-31T08:46:46Z</time>
      </trkpt>
      <trkpt lat="46.17183" lon="6.63619">
        <ele>1530</ele>
        <time>2022-07-31T08:46:47Z</time>
      </trkpt>
      <trkpt lat="46.17183" lon="6.63619">
        <ele>1530</ele>
        <time>2022-07-31T08:46:48Z</time>
      </trkpt>
      <trkpt lat="46.17184" lon="6.63619">
        <ele>1530</ele>
        <time>2022-07-31T08:46:49Z</time>
      </trkpt>
      <trkpt lat="46.17184" lon="6.63619">
        <ele>1530</ele>
        <time>2022-07-31T08:46:50Z</time>
      </trkpt>
      <trkpt lat="46.17184" lon="6.63619">
        <ele>1530</ele>
        <time>2022-07-31T08:46:51Z</time>
      </trkpt>
      <trkpt lat="46.17184" lon="6.63619">
        <ele>1530</ele>
        <time>2022-07-31T08:46:52Z</time>
      </trkpt>
      <trkpt lat="46.17184" lon="6.63618">
        <ele>1530</ele>
        <time>2022-07-31T08:46:53Z</time>
      </trkpt>
      <trkpt lat="46.17184" lon="6.63618">
        <ele>1530</ele>
        <time>2022-07-31T08:46:54Z</time>
      </trkpt>
      <trkpt lat="46.17184" lon="6.63618">
        <ele>1530</ele>
        <time>2022-07-31T08:46:55Z</time>
      </trkpt>
      <trkpt lat="46.17183" lon="6.63618">
        <ele>1530</ele>
        <time>2022-07-31T08:46:56Z</time>
      </trkpt>
      <trkpt lat="46.17183" lon="6.63618">
        <ele>1530</ele>
        <time>2022-07-31T08:46:57Z</time>
      </trkpt>
      <trkpt lat="46.17183" lon="6.63618">
        <ele>1530</ele>
        <time>2022-07-31T08:46:58Z</time>
      </trkpt>
      <trkpt lat="46.17184" lon="6.63618">
        <ele>1531</ele>
        <time>2022-07-31T08:46:59Z</time>
      </trkpt>
      <trkpt lat="46.17184" lon="6.63618">
        <ele>1531</ele>
        <time>2022-07-31T08:47:00Z</time>
      </trkpt>
      <trkpt lat="46.17184" lon="6.63618">
        <ele>1531</ele>
        <time>2022-07-31T08:47:01Z</time>
      </trkpt>
      <trkpt lat="46.17184" lon="6.63618">
        <ele>1531</ele>
        <time>2022-07-31T08:47:02Z</time>
      </trkpt>
      <trkpt lat="46.17184" lon="6.63618">
        <ele>1531</ele>
        <time>2022-07-31T08:47:03Z</time>
      </trkpt>
      <trkpt lat="46.17184" lon="6.63618">
        <ele>1531</ele>
        <time>2022-07-31T08:47:04Z</time>
      </trkpt>
      <trkpt lat="46.17184" lon="6.63618">
        <ele>1531</ele>
        <time>2022-07-31T08:47:05Z</time>
      </trkpt>
      <trkpt lat="46.17183" lon="6.63618">
        <ele>1531</ele>
        <time>2022-07-31T08:47:06Z</time>
      </trkpt>
      <trkpt lat="46.17182" lon="6.63618">
        <ele>1531</ele>
        <time>2022-07-31T08:47:07Z</time>
      </trkpt>
      <trkpt lat="46.17182" lon="6.63618">
        <ele>1531</ele>
        <time>2022-07-31T08:47:08Z</time>
      </trkpt>
      <trkpt lat="46.17182" lon="6.63618">
        <ele>1531</ele>
        <time>2022-07-31T08:47:09Z</time>
      </trkpt>
      <trkpt lat="46.17182" lon="6.63618">
        <ele>1531</ele>
        <time>2022-07-31T08:47:10Z</time>
      </trkpt>
      <trkpt lat="46.17182" lon="6.63618">
        <ele>1531</ele>
        <time>2022-07-31T08:47:11Z</time>
      </trkpt>
      <trkpt lat="46.17182" lon="6.63618">
        <ele>1531</ele>
        <time>2022-07-31T08:47:12Z</time>
      </trkpt>
      <trkpt lat="46.17182" lon="6.63617">
        <ele>1531</ele>
        <time>2022-07-31T08:47:13Z</time>
      </trkpt>
      <trkpt lat="46.17182" lon="6.63617">
        <ele>1531</ele>
        <time>2022-07-31T08:47:14Z</time>
      </trkpt>
      <trkpt lat="46.17182" lon="6.63618">
        <ele>1531</ele>
        <time>2022-07-31T08:47:15Z</time>
      </trkpt>
      <trkpt lat="46.17181" lon="6.63618">
        <ele>1531</ele>
        <time>2022-07-31T08:47:16Z</time>
      </trkpt>
      <trkpt lat="46.17181" lon="6.63619">
        <ele>1531</ele>
        <time>2022-07-31T08:47:17Z</time>
      </trkpt>
      <trkpt lat="46.17182" lon="6.6362">
        <ele>1531</ele>
        <time>2022-07-31T08:47:18Z</time>
      </trkpt>
      <trkpt lat="46.17182" lon="6.63622">
        <ele>1531</ele>
        <time>2022-07-31T08:47:19Z</time>
      </trkpt>
      <trkpt lat="46.17181" lon="6.63623">
        <ele>1531</ele>
        <time>2022-07-31T08:47:20Z</time>
      </trkpt>
      <trkpt lat="46.1718" lon="6.63624">
        <ele>1531</ele>
        <time>2022-07-31T08:47:21Z</time>
      </trkpt>
      <trkpt lat="46.1718" lon="6.63625">
        <ele>1531</ele>
        <time>2022-07-31T08:47:22Z</time>
      </trkpt>
      <trkpt lat="46.1718" lon="6.63627">
        <ele>1531</ele>
        <time>2022-07-31T08:47:23Z</time>
      </trkpt>
      <trkpt lat="46.1718" lon="6.63629">
        <ele>1531</ele>
        <time>2022-07-31T08:47:24Z</time>
      </trkpt>
      <trkpt lat="46.1718" lon="6.6363">
        <ele>1531</ele>
        <time>2022-07-31T08:47:25Z</time>
      </trkpt>
      <trkpt lat="46.1718" lon="6.63632">
        <ele>1531</ele>
        <time>2022-07-31T08:47:26Z</time>
      </trkpt>
      <trkpt lat="46.1718" lon="6.63634">
        <ele>1531</ele>
        <time>2022-07-31T08:47:27Z</time>
      </trkpt>
      <trkpt lat="46.1718" lon="6.63635">
        <ele>1531</ele>
        <time>2022-07-31T08:47:28Z</time>
      </trkpt>
      <trkpt lat="46.1718" lon="6.63636">
        <ele>1531</ele>
        <time>2022-07-31T08:47:29Z</time>
      </trkpt>
      <trkpt lat="46.17179" lon="6.63638">
        <ele>1531</ele>
        <time>2022-07-31T08:47:30Z</time>
      </trkpt>
      <trkpt lat="46.17178" lon="6.63639">
        <ele>1531</ele>
        <time>2022-07-31T08:47:31Z</time>
      </trkpt>
      <trkpt lat="46.17178" lon="6.63639">
        <ele>1532</ele>
        <time>2022-07-31T08:47:32Z</time>
      </trkpt>
      <trkpt lat="46.17177" lon="6.63639">
        <ele>1532</ele>
        <time>2022-07-31T08:47:33Z</time>
      </trkpt>
      <trkpt lat="46.17178" lon="6.63639">
        <ele>1532</ele>
        <time>2022-07-31T08:47:34Z</time>
      </trkpt>
      <trkpt lat="46.17178" lon="6.63638">
        <ele>1532</ele>
        <time>2022-07-31T08:47:35Z</time>
      </trkpt>
      <trkpt lat="46.17179" lon="6.63638">
        <ele>1532</ele>
        <time>2022-07-31T08:47:36Z</time>
      </trkpt>
      <trkpt lat="46.17179" lon="6.63638">
        <ele>1532</ele>
        <time>2022-07-31T08:47:37Z</time>
      </trkpt>
      <trkpt lat="46.1718" lon="6.63638">
        <ele>1532</ele>
        <time>2022-07-31T08:47:38Z</time>
      </trkpt>
      <trkpt lat="46.1718" lon="6.63638">
        <ele>1532</ele>
        <time>2022-07-31T08:47:39Z</time>
      </trkpt>
      <trkpt lat="46.1718" lon="6.63638">
        <ele>1532</ele>
        <time>2022-07-31T08:47:40Z</time>
      </trkpt>
      <trkpt lat="46.1718" lon="6.63638">
        <ele>1532</ele>
        <time>2022-07-31T08:47:41Z</time>
      </trkpt>
      <trkpt lat="46.17179" lon="6.63637">
        <ele>1533</ele>
        <time>2022-07-31T08:47:42Z</time>
      </trkpt>
      <trkpt lat="46.17178" lon="6.63637">
        <ele>1533</ele>
        <time>2022-07-31T08:47:43Z</time>
      </trkpt>
      <trkpt lat="46.17178" lon="6.63637">
        <ele>1533</ele>
        <time>2022-07-31T08:47:44Z</time>
      </trkpt>
      <trkpt lat="46.17178" lon="6.63637">
        <ele>1533</ele>
        <time>2022-07-31T08:47:45Z</time>
      </trkpt>
      <trkpt lat="46.17178" lon="6.63637">
        <ele>1533</ele>
        <time>2022-07-31T08:47:46Z</time>
      </trkpt>
      <trkpt lat="46.17178" lon="6.63637">
        <ele>1533</ele>
        <time>2022-07-31T08:47:47Z</time>
      </trkpt>
      <trkpt lat="46.17179" lon="6.63637">
        <ele>1533</ele>
        <time>2022-07-31T08:47:48Z</time>
      </trkpt>
      <trkpt lat="46.1718" lon="6.63638">
        <ele>1533</ele>
        <time>2022-07-31T08:47:49Z</time>
      </trkpt>
      <trkpt lat="46.17181" lon="6.63637">
        <ele>1533</ele>
        <time>2022-07-31T08:47:50Z</time>
      </trkpt>
      <trkpt lat="46.17182" lon="6.63638">
        <ele>1534</ele>
        <time>2022-07-31T08:47:51Z</time>
      </trkpt>
      <trkpt lat="46.17182" lon="6.63639">
        <ele>1534</ele>
        <time>2022-07-31T08:47:52Z</time>
      </trkpt>
      <trkpt lat="46.17182" lon="6.63639">
        <ele>1534</ele>
        <time>2022-07-31T08:47:53Z</time>
      </trkpt>
      <trkpt lat="46.17182" lon="6.63639">
        <ele>1534</ele>
        <time>2022-07-31T08:47:54Z</time>
      </trkpt>
      <trkpt lat="46.17182" lon="6.6364">
        <ele>1534</ele>
        <time>2022-07-31T08:47:55Z</time>
      </trkpt>
      <trkpt lat="46.17181" lon="6.6364">
        <ele>1534</ele>
        <time>2022-07-31T08:47:56Z</time>
      </trkpt>
      <trkpt lat="46.1718" lon="6.63639">
        <ele>1534</ele>
        <time>2022-07-31T08:47:57Z</time>
      </trkpt>
      <trkpt lat="46.1718" lon="6.63639">
        <ele>1534</ele>
        <time>2022-07-31T08:47:58Z</time>
      </trkpt>
      <trkpt lat="46.1718" lon="6.63639">
        <ele>1534</ele>
        <time>2022-07-31T08:47:59Z</time>
      </trkpt>
      <trkpt lat="46.1718" lon="6.6364">
        <ele>1534</ele>
        <time>2022-07-31T08:48:00Z</time>
      </trkpt>
      <trkpt lat="46.1718" lon="6.6364">
        <ele>1534</ele>
        <time>2022-07-31T08:48:01Z</time>
      </trkpt>
      <trkpt lat="46.17179" lon="6.6364">
        <ele>1535</ele>
        <time>2022-07-31T08:48:02Z</time>
      </trkpt>
      <trkpt lat="46.17179" lon="6.63641">
        <ele>1535</ele>
        <time>2022-07-31T08:48:03Z</time>
      </trkpt>
      <trkpt lat="46.17179" lon="6.63641">
        <ele>1535</ele>
        <time>2022-07-31T08:48:04Z</time>
      </trkpt>
      <trkpt lat="46.17179" lon="6.63641">
        <ele>1535</ele>
        <time>2022-07-31T08:48:05Z</time>
      </trkpt>
      <trkpt lat="46.17179" lon="6.63641">
        <ele>1535</ele>
        <time>2022-07-31T08:48:06Z</time>
      </trkpt>
      <trkpt lat="46.17178" lon="6.63641">
        <ele>1535</ele>
        <time>2022-07-31T08:48:07Z</time>
      </trkpt>
      <trkpt lat="46.17178" lon="6.63641">
        <ele>1535</ele>
        <time>2022-07-31T08:48:08Z</time>
      </trkpt>
      <trkpt lat="46.17178" lon="6.63641">
        <ele>1535</ele>
        <time>2022-07-31T08:48:09Z</time>
      </trkpt>
      <trkpt lat="46.17178" lon="6.63641">
        <ele>1536</ele>
        <time>2022-07-31T08:48:10Z</time>
      </trkpt>
      <trkpt lat="46.17178" lon="6.63641">
        <ele>1536</ele>
        <time>2022-07-31T08:48:11Z</time>
      </trkpt>
      <trkpt lat="46.17179" lon="6.63642">
        <ele>1536</ele>
        <time>2022-07-31T08:48:12Z</time>
      </trkpt>
      <trkpt lat="46.17179" lon="6.63642">
        <ele>1536</ele>
        <time>2022-07-31T08:48:13Z</time>
      </trkpt>
      <trkpt lat="46.17179" lon="6.63642">
        <ele>1536</ele>
        <time>2022-07-31T08:48:14Z</time>
      </trkpt>
      <trkpt lat="46.17178" lon="6.63642">
        <ele>1536</ele>
        <time>2022-07-31T08:48:15Z</time>
      </trkpt>
      <trkpt lat="46.17178" lon="6.63642">
        <ele>1537</ele>
        <time>2022-07-31T08:48:16Z</time>
      </trkpt>
      <trkpt lat="46.17178" lon="6.63642">
        <ele>1537</ele>
        <time>2022-07-31T08:48:17Z</time>
      </trkpt>
      <trkpt lat="46.17178" lon="6.63642">
        <ele>1537</ele>
        <time>2022-07-31T08:48:18Z</time>
      </trkpt>
      <trkpt lat="46.17179" lon="6.63641">
        <ele>1537</ele>
        <time>2022-07-31T08:48:19Z</time>
      </trkpt>
      <trkpt lat="46.17179" lon="6.63642">
        <ele>1537</ele>
        <time>2022-07-31T08:48:20Z</time>
      </trkpt>
      <trkpt lat="46.17178" lon="6.63642">
        <ele>1537</ele>
        <time>2022-07-31T08:48:21Z</time>
      </trkpt>
      <trkpt lat="46.17178" lon="6.63643">
        <ele>1537</ele>
        <time>2022-07-31T08:48:22Z</time>
      </trkpt>
      <trkpt lat="46.17178" lon="6.63643">
        <ele>1537</ele>
        <time>2022-07-31T08:48:23Z</time>
      </trkpt>
      <trkpt lat="46.17178" lon="6.63644">
        <ele>1537</ele>
        <time>2022-07-31T08:48:24Z</time>
      </trkpt>
      <trkpt lat="46.17178" lon="6.63644">
        <ele>1537</ele>
        <time>2022-07-31T08:48:25Z</time>
      </trkpt>
      <trkpt lat="46.17177" lon="6.63643">
        <ele>1537</ele>
        <time>2022-07-31T08:48:26Z</time>
      </trkpt>
      <trkpt lat="46.17177" lon="6.63643">
        <ele>1537</ele>
        <time>2022-07-31T08:48:27Z</time>
      </trkpt>
      <trkpt lat="46.17177" lon="6.63642">
        <ele>1537</ele>
        <time>2022-07-31T08:48:28Z</time>
      </trkpt>
      <trkpt lat="46.17177" lon="6.63642">
        <ele>1538</ele>
        <time>2022-07-31T08:48:29Z</time>
      </trkpt>
      <trkpt lat="46.17177" lon="6.63642">
        <ele>1538</ele>
        <time>2022-07-31T08:48:30Z</time>
      </trkpt>
      <trkpt lat="46.17177" lon="6.63643">
        <ele>1538</ele>
        <time>2022-07-31T08:48:31Z</time>
      </trkpt>
      <trkpt lat="46.17178" lon="6.63643">
        <ele>1538</ele>
        <time>2022-07-31T08:48:32Z</time>
      </trkpt>
      <trkpt lat="46.17178" lon="6.63643">
        <ele>1538</ele>
        <time>2022-07-31T08:48:33Z</time>
      </trkpt>
      <trkpt lat="46.17179" lon="6.63642">
        <ele>1538</ele>
        <time>2022-07-31T08:48:34Z</time>
      </trkpt>
      <trkpt lat="46.17179" lon="6.63642">
        <ele>1538</ele>
        <time>2022-07-31T08:48:35Z</time>
      </trkpt>
      <trkpt lat="46.1718" lon="6.63641">
        <ele>1538</ele>
        <time>2022-07-31T08:48:36Z</time>
      </trkpt>
      <trkpt lat="46.1718" lon="6.63641">
        <ele>1538</ele>
        <time>2022-07-31T08:48:37Z</time>
      </trkpt>
      <trkpt lat="46.17179" lon="6.63642">
        <ele>1538</ele>
        <time>2022-07-31T08:48:38Z</time>
      </trkpt>
      <trkpt lat="46.17179" lon="6.63642">
        <ele>1538</ele>
        <time>2022-07-31T08:48:39Z</time>
      </trkpt>
      <trkpt lat="46.17179" lon="6.63642">
        <ele>1538</ele>
        <time>2022-07-31T08:48:40Z</time>
      </trkpt>
      <trkpt lat="46.17178" lon="6.63642">
        <ele>1538</ele>
        <time>2022-07-31T08:48:41Z</time>
      </trkpt>
      <trkpt lat="46.17178" lon="6.63642">
        <ele>1539</ele>
        <time>2022-07-31T08:48:42Z</time>
      </trkpt>
      <trkpt lat="46.17178" lon="6.63642">
        <ele>1539</ele>
        <time>2022-07-31T08:48:43Z</time>
      </trkpt>
      <trkpt lat="46.17179" lon="6.63642">
        <ele>1539</ele>
        <time>2022-07-31T08:48:44Z</time>
      </trkpt>
      <trkpt lat="46.17179" lon="6.63642">
        <ele>1539</ele>
        <time>2022-07-31T08:48:45Z</time>
      </trkpt>
      <trkpt lat="46.17178" lon="6.63642">
        <ele>1539</ele>
        <time>2022-07-31T08:48:46Z</time>
      </trkpt>
      <trkpt lat="46.17178" lon="6.63642">
        <ele>1539</ele>
        <time>2022-07-31T08:48:47Z</time>
      </trkpt>
      <trkpt lat="46.17179" lon="6.63641">
        <ele>1539</ele>
        <time>2022-07-31T08:48:48Z</time>
      </trkpt>
      <trkpt lat="46.17179" lon="6.63641">
        <ele>1540</ele>
        <time>2022-07-31T08:48:49Z</time>
      </trkpt>
      <trkpt lat="46.1718" lon="6.63641">
        <ele>1540</ele>
        <time>2022-07-31T08:48:50Z</time>
      </trkpt>
      <trkpt lat="46.1718" lon="6.63642">
        <ele>1540</ele>
        <time>2022-07-31T08:48:51Z</time>
      </trkpt>
      <trkpt lat="46.1718" lon="6.63641">
        <ele>1540</ele>
        <time>2022-07-31T08:48:52Z</time>
      </trkpt>
      <trkpt lat="46.1718" lon="6.63641">
        <ele>1540</ele>
        <time>2022-07-31T08:48:53Z</time>
      </trkpt>
      <trkpt lat="46.1718" lon="6.6364">
        <ele>1540</ele>
        <time>2022-07-31T08:48:54Z</time>
      </trkpt>
      <trkpt lat="46.17179" lon="6.63639">
        <ele>1540</ele>
        <time>2022-07-31T08:48:55Z</time>
      </trkpt>
      <trkpt lat="46.17179" lon="6.63639">
        <ele>1541</ele>
        <time>2022-07-31T08:48:56Z</time>
      </trkpt>
      <trkpt lat="46.17178" lon="6.63638">
        <ele>1541</ele>
        <time>2022-07-31T08:48:57Z</time>
      </trkpt>
      <trkpt lat="46.17178" lon="6.63638">
        <ele>1541</ele>
        <time>2022-07-31T08:48:58Z</time>
      </trkpt>
      <trkpt lat="46.17177" lon="6.63638">
        <ele>1541</ele>
        <time>2022-07-31T08:48:59Z</time>
      </trkpt>
      <trkpt lat="46.17177" lon="6.63637">
        <ele>1541</ele>
        <time>2022-07-31T08:49:00Z</time>
      </trkpt>
      <trkpt lat="46.17177" lon="6.63637">
        <ele>1541</ele>
        <time>2022-07-31T08:49:01Z</time>
      </trkpt>
      <trkpt lat="46.17177" lon="6.63636">
        <ele>1541</ele>
        <time>2022-07-31T08:49:02Z</time>
      </trkpt>
      <trkpt lat="46.17177" lon="6.63636">
        <ele>1541</ele>
        <time>2022-07-31T08:49:03Z</time>
      </trkpt>
      <trkpt lat="46.17177" lon="6.63635">
        <ele>1541</ele>
        <time>2022-07-31T08:49:04Z</time>
      </trkpt>
      <trkpt lat="46.17178" lon="6.63635">
        <ele>1541</ele>
        <time>2022-07-31T08:49:05Z</time>
      </trkpt>
      <trkpt lat="46.17178" lon="6.63634">
        <ele>1541</ele>
        <time>2022-07-31T08:49:06Z</time>
      </trkpt>
      <trkpt lat="46.17177" lon="6.63634">
        <ele>1540</ele>
        <time>2022-07-31T08:49:07Z</time>
      </trkpt>
      <trkpt lat="46.17177" lon="6.63634">
        <ele>1540</ele>
        <time>2022-07-31T08:49:08Z</time>
      </trkpt>
      <trkpt lat="46.17177" lon="6.63634">
        <ele>1540</ele>
        <time>2022-07-31T08:49:09Z</time>
      </trkpt>
      <trkpt lat="46.17178" lon="6.63635">
        <ele>1540</ele>
        <time>2022-07-31T08:49:10Z</time>
      </trkpt>
      <trkpt lat="46.17179" lon="6.63635">
        <ele>1540</ele>
        <time>2022-07-31T08:49:11Z</time>
      </trkpt>
      <trkpt lat="46.17178" lon="6.63635">
        <ele>1540</ele>
        <time>2022-07-31T08:49:12Z</time>
      </trkpt>
      <trkpt lat="46.17179" lon="6.63635">
        <ele>1540</ele>
        <time>2022-07-31T08:49:13Z</time>
      </trkpt>
      <trkpt lat="46.17179" lon="6.63635">
        <ele>1540</ele>
        <time>2022-07-31T08:49:14Z</time>
      </trkpt>
      <trkpt lat="46.17179" lon="6.63635">
        <ele>1540</ele>
        <time>2022-07-31T08:49:15Z</time>
      </trkpt>
      <trkpt lat="46.17178" lon="6.63634">
        <ele>1540</ele>
        <time>2022-07-31T08:49:16Z</time>
      </trkpt>
      <trkpt lat="46.17179" lon="6.63635">
        <ele>1540</ele>
        <time>2022-07-31T08:49:17Z</time>
      </trkpt>
      <trkpt lat="46.17179" lon="6.63636">
        <ele>1540</ele>
        <time>2022-07-31T08:49:18Z</time>
      </trkpt>
      <trkpt lat="46.1718" lon="6.63636">
        <ele>1540</ele>
        <time>2022-07-31T08:49:19Z</time>
      </trkpt>
      <trkpt lat="46.17179" lon="6.63637">
        <ele>1540</ele>
        <time>2022-07-31T08:49:20Z</time>
      </trkpt>
      <trkpt lat="46.17179" lon="6.63637">
        <ele>1540</ele>
        <time>2022-07-31T08:49:21Z</time>
      </trkpt>
      <trkpt lat="46.17178" lon="6.63637">
        <ele>1540</ele>
        <time>2022-07-31T08:49:22Z</time>
      </trkpt>
      <trkpt lat="46.17178" lon="6.63637">
        <ele>1540</ele>
        <time>2022-07-31T08:49:23Z</time>
      </trkpt>
      <trkpt lat="46.17178" lon="6.63636">
        <ele>1540</ele>
        <time>2022-07-31T08:49:24Z</time>
      </trkpt>
      <trkpt lat="46.17178" lon="6.63636">
        <ele>1541</ele>
        <time>2022-07-31T08:49:25Z</time>
      </trkpt>
      <trkpt lat="46.17178" lon="6.63637">
        <ele>1541</ele>
        <time>2022-07-31T08:49:26Z</time>
      </trkpt>
      <trkpt lat="46.17178" lon="6.63637">
        <ele>1541</ele>
        <time>2022-07-31T08:49:27Z</time>
      </trkpt>
      <trkpt lat="46.17178" lon="6.63637">
        <ele>1541</ele>
        <time>2022-07-31T08:49:28Z</time>
      </trkpt>
      <trkpt lat="46.17178" lon="6.63637">
        <ele>1541</ele>
        <time>2022-07-31T08:49:29Z</time>
      </trkpt>
      <trkpt lat="46.17178" lon="6.63637">
        <ele>1541</ele>
        <time>2022-07-31T08:49:30Z</time>
      </trkpt>
      <trkpt lat="46.17179" lon="6.63637">
        <ele>1541</ele>
        <time>2022-07-31T08:49:31Z</time>
      </trkpt>
      <trkpt lat="46.17179" lon="6.63638">
        <ele>1541</ele>
        <time>2022-07-31T08:49:32Z</time>
      </trkpt>
      <trkpt lat="46.17178" lon="6.63638">
        <ele>1541</ele>
        <time>2022-07-31T08:49:33Z</time>
      </trkpt>
      <trkpt lat="46.17178" lon="6.63639">
        <ele>1541</ele>
        <time>2022-07-31T08:49:34Z</time>
      </trkpt>
      <trkpt lat="46.17179" lon="6.6364">
        <ele>1541</ele>
        <time>2022-07-31T08:49:35Z</time>
      </trkpt>
      <trkpt lat="46.1718" lon="6.63641">
        <ele>1541</ele>
        <time>2022-07-31T08:49:36Z</time>
      </trkpt>
      <trkpt lat="46.17181" lon="6.63641">
        <ele>1541</ele>
        <time>2022-07-31T08:49:37Z</time>
      </trkpt>
      <trkpt lat="46.17182" lon="6.63642">
        <ele>1541</ele>
        <time>2022-07-31T08:49:38Z</time>
      </trkpt>
      <trkpt lat="46.17182" lon="6.63643">
        <ele>1542</ele>
        <time>2022-07-31T08:49:39Z</time>
      </trkpt>
      <trkpt lat="46.17184" lon="6.63643">
        <ele>1542</ele>
        <time>2022-07-31T08:49:40Z</time>
      </trkpt>
      <trkpt lat="46.17184" lon="6.63644">
        <ele>1542</ele>
        <time>2022-07-31T08:49:41Z</time>
      </trkpt>
      <trkpt lat="46.17184" lon="6.63644">
        <ele>1542</ele>
        <time>2022-07-31T08:49:42Z</time>
      </trkpt>
      <trkpt lat="46.17184" lon="6.63644">
        <ele>1542</ele>
        <time>2022-07-31T08:49:43Z</time>
      </trkpt>
      <trkpt lat="46.17182" lon="6.63644">
        <ele>1542</ele>
        <time>2022-07-31T08:49:44Z</time>
      </trkpt>
      <trkpt lat="46.17182" lon="6.63644">
        <ele>1542</ele>
        <time>2022-07-31T08:49:45Z</time>
      </trkpt>
      <trkpt lat="46.17182" lon="6.63644">
        <ele>1542</ele>
        <time>2022-07-31T08:49:46Z</time>
      </trkpt>
      <trkpt lat="46.17182" lon="6.63645">
        <ele>1542</ele>
        <time>2022-07-31T08:49:47Z</time>
      </trkpt>
      <trkpt lat="46.17181" lon="6.63645">
        <ele>1542</ele>
        <time>2022-07-31T08:49:48Z</time>
      </trkpt>
      <trkpt lat="46.1718" lon="6.63645">
        <ele>1542</ele>
        <time>2022-07-31T08:49:49Z</time>
      </trkpt>
      <trkpt lat="46.1718" lon="6.63644">
        <ele>1542</ele>
        <time>2022-07-31T08:49:50Z</time>
      </trkpt>
      <trkpt lat="46.1718" lon="6.63644">
        <ele>1542</ele>
        <time>2022-07-31T08:49:51Z</time>
      </trkpt>
      <trkpt lat="46.17178" lon="6.63644">
        <ele>1542</ele>
        <time>2022-07-31T08:49:52Z</time>
      </trkpt>
      <trkpt lat="46.17178" lon="6.63643">
        <ele>1542</ele>
        <time>2022-07-31T08:49:53Z</time>
      </trkpt>
      <trkpt lat="46.17177" lon="6.63644">
        <ele>1542</ele>
        <time>2022-07-31T08:49:54Z</time>
      </trkpt>
      <trkpt lat="46.17176" lon="6.63645">
        <ele>1542</ele>
        <time>2022-07-31T08:49:55Z</time>
      </trkpt>
      <trkpt lat="46.17176" lon="6.63646">
        <ele>1543</ele>
        <time>2022-07-31T08:49:56Z</time>
      </trkpt>
      <trkpt lat="46.17176" lon="6.63647">
        <ele>1543</ele>
        <time>2022-07-31T08:49:57Z</time>
      </trkpt>
      <trkpt lat="46.17176" lon="6.63648">
        <ele>1543</ele>
        <time>2022-07-31T08:49:58Z</time>
      </trkpt>
      <trkpt lat="46.17176" lon="6.6365">
        <ele>1543</ele>
        <time>2022-07-31T08:49:59Z</time>
      </trkpt>
      <trkpt lat="46.17177" lon="6.63651">
        <ele>1543</ele>
        <time>2022-07-31T08:50:00Z</time>
      </trkpt>
      <trkpt lat="46.17178" lon="6.63652">
        <ele>1543</ele>
        <time>2022-07-31T08:50:01Z</time>
      </trkpt>
      <trkpt lat="46.17178" lon="6.63653">
        <ele>1543</ele>
        <time>2022-07-31T08:50:02Z</time>
      </trkpt>
      <trkpt lat="46.17178" lon="6.63654">
        <ele>1543</ele>
        <time>2022-07-31T08:50:03Z</time>
      </trkpt>
      <trkpt lat="46.17179" lon="6.63656">
        <ele>1543</ele>
        <time>2022-07-31T08:50:04Z</time>
      </trkpt>
      <trkpt lat="46.17179" lon="6.63657">
        <ele>1542</ele>
        <time>2022-07-31T08:50:05Z</time>
      </trkpt>
      <trkpt lat="46.17179" lon="6.63659">
        <ele>1542</ele>
        <time>2022-07-31T08:50:06Z</time>
      </trkpt>
      <trkpt lat="46.17179" lon="6.6366">
        <ele>1542</ele>
        <time>2022-07-31T08:50:07Z</time>
      </trkpt>
      <trkpt lat="46.17179" lon="6.63661">
        <ele>1542</ele>
        <time>2022-07-31T08:50:08Z</time>
      </trkpt>
      <trkpt lat="46.17179" lon="6.63663">
        <ele>1542</ele>
        <time>2022-07-31T08:50:09Z</time>
      </trkpt>
      <trkpt lat="46.1718" lon="6.63663">
        <ele>1542</ele>
        <time>2022-07-31T08:50:10Z</time>
      </trkpt>
      <trkpt lat="46.1718" lon="6.63663">
        <ele>1542</ele>
        <time>2022-07-31T08:50:11Z</time>
      </trkpt>
      <trkpt lat="46.1718" lon="6.63665">
        <ele>1542</ele>
        <time>2022-07-31T08:50:12Z</time>
      </trkpt>
      <trkpt lat="46.1718" lon="6.63666">
        <ele>1542</ele>
        <time>2022-07-31T08:50:13Z</time>
      </trkpt>
      <trkpt lat="46.17181" lon="6.63667">
        <ele>1542</ele>
        <time>2022-07-31T08:50:14Z</time>
      </trkpt>
      <trkpt lat="46.17181" lon="6.63669">
        <ele>1542</ele>
        <time>2022-07-31T08:50:15Z</time>
      </trkpt>
      <trkpt lat="46.17181" lon="6.63669">
        <ele>1542</ele>
        <time>2022-07-31T08:50:16Z</time>
      </trkpt>
      <trkpt lat="46.17181" lon="6.63669">
        <ele>1542</ele>
        <time>2022-07-31T08:50:17Z</time>
      </trkpt>
      <trkpt lat="46.17181" lon="6.6367">
        <ele>1542</ele>
        <time>2022-07-31T08:50:18Z</time>
      </trkpt>
      <trkpt lat="46.17181" lon="6.6367">
        <ele>1542</ele>
        <time>2022-07-31T08:50:19Z</time>
      </trkpt>
      <trkpt lat="46.1718" lon="6.6367">
        <ele>1542</ele>
        <time>2022-07-31T08:50:20Z</time>
      </trkpt>
      <trkpt lat="46.1718" lon="6.63672">
        <ele>1542</ele>
        <time>2022-07-31T08:50:21Z</time>
      </trkpt>
      <trkpt lat="46.1718" lon="6.63672">
        <ele>1542</ele>
        <time>2022-07-31T08:50:22Z</time>
      </trkpt>
      <trkpt lat="46.1718" lon="6.63674">
        <ele>1542</ele>
        <time>2022-07-31T08:50:23Z</time>
      </trkpt>
      <trkpt lat="46.1718" lon="6.63675">
        <ele>1542</ele>
        <time>2022-07-31T08:50:24Z</time>
      </trkpt>
      <trkpt lat="46.17181" lon="6.63676">
        <ele>1542</ele>
        <time>2022-07-31T08:50:25Z</time>
      </trkpt>
      <trkpt lat="46.17182" lon="6.63677">
        <ele>1542</ele>
        <time>2022-07-31T08:50:26Z</time>
      </trkpt>
      <trkpt lat="46.17182" lon="6.63678">
        <ele>1542</ele>
        <time>2022-07-31T08:50:27Z</time>
      </trkpt>
      <trkpt lat="46.17182" lon="6.6368">
        <ele>1542</ele>
        <time>2022-07-31T08:50:28Z</time>
      </trkpt>
      <trkpt lat="46.17182" lon="6.63681">
        <ele>1542</ele>
        <time>2022-07-31T08:50:29Z</time>
      </trkpt>
      <trkpt lat="46.17182" lon="6.63681">
        <ele>1542</ele>
        <time>2022-07-31T08:50:30Z</time>
      </trkpt>
      <trkpt lat="46.17182" lon="6.63682">
        <ele>1542</ele>
        <time>2022-07-31T08:50:31Z</time>
      </trkpt>
      <trkpt lat="46.17182" lon="6.63683">
        <ele>1542</ele>
        <time>2022-07-31T08:50:32Z</time>
      </trkpt>
      <trkpt lat="46.17184" lon="6.63684">
        <ele>1542</ele>
        <time>2022-07-31T08:50:33Z</time>
      </trkpt>
      <trkpt lat="46.17184" lon="6.63683">
        <ele>1542</ele>
        <time>2022-07-31T08:50:34Z</time>
      </trkpt>
      <trkpt lat="46.17184" lon="6.63684">
        <ele>1542</ele>
        <time>2022-07-31T08:50:35Z</time>
      </trkpt>
      <trkpt lat="46.17184" lon="6.63685">
        <ele>1542</ele>
        <time>2022-07-31T08:50:36Z</time>
      </trkpt>
      <trkpt lat="46.17185" lon="6.63686">
        <ele>1542</ele>
        <time>2022-07-31T08:50:37Z</time>
      </trkpt>
      <trkpt lat="46.17185" lon="6.63687">
        <ele>1543</ele>
        <time>2022-07-31T08:50:38Z</time>
      </trkpt>
      <trkpt lat="46.17185" lon="6.63688">
        <ele>1543</ele>
        <time>2022-07-31T08:50:39Z</time>
      </trkpt>
      <trkpt lat="46.17185" lon="6.63689">
        <ele>1543</ele>
        <time>2022-07-31T08:50:40Z</time>
      </trkpt>
      <trkpt lat="46.17185" lon="6.63689">
        <ele>1543</ele>
        <time>2022-07-31T08:50:41Z</time>
      </trkpt>
      <trkpt lat="46.17184" lon="6.6369">
        <ele>1543</ele>
        <time>2022-07-31T08:50:42Z</time>
      </trkpt>
      <trkpt lat="46.17184" lon="6.63691">
        <ele>1543</ele>
        <time>2022-07-31T08:50:43Z</time>
      </trkpt>
      <trkpt lat="46.17184" lon="6.63692">
        <ele>1544</ele>
        <time>2022-07-31T08:50:44Z</time>
      </trkpt>
      <trkpt lat="46.17184" lon="6.63693">
        <ele>1544</ele>
        <time>2022-07-31T08:50:45Z</time>
      </trkpt>
      <trkpt lat="46.17184" lon="6.63694">
        <ele>1544</ele>
        <time>2022-07-31T08:50:46Z</time>
      </trkpt>
      <trkpt lat="46.17185" lon="6.63694">
        <ele>1544</ele>
        <time>2022-07-31T08:50:47Z</time>
      </trkpt>
      <trkpt lat="46.17185" lon="6.63695">
        <ele>1545</ele>
        <time>2022-07-31T08:50:48Z</time>
      </trkpt>
      <trkpt lat="46.17185" lon="6.63696">
        <ele>1545</ele>
        <time>2022-07-31T08:50:49Z</time>
      </trkpt>
      <trkpt lat="46.17185" lon="6.63697">
        <ele>1545</ele>
        <time>2022-07-31T08:50:50Z</time>
      </trkpt>
      <trkpt lat="46.17185" lon="6.63698">
        <ele>1545</ele>
        <time>2022-07-31T08:50:51Z</time>
      </trkpt>
      <trkpt lat="46.17185" lon="6.63699">
        <ele>1545</ele>
        <time>2022-07-31T08:50:52Z</time>
      </trkpt>
      <trkpt lat="46.17185" lon="6.63699">
        <ele>1546</ele>
        <time>2022-07-31T08:50:53Z</time>
      </trkpt>
      <trkpt lat="46.17185" lon="6.637">
        <ele>1546</ele>
        <time>2022-07-31T08:50:54Z</time>
      </trkpt>
      <trkpt lat="46.17185" lon="6.63701">
        <ele>1546</ele>
        <time>2022-07-31T08:50:55Z</time>
      </trkpt>
      <trkpt lat="46.17185" lon="6.63701">
        <ele>1546</ele>
        <time>2022-07-31T08:50:56Z</time>
      </trkpt>
      <trkpt lat="46.17185" lon="6.63702">
        <ele>1546</ele>
        <time>2022-07-31T08:50:57Z</time>
      </trkpt>
      <trkpt lat="46.17185" lon="6.63704">
        <ele>1547</ele>
        <time>2022-07-31T08:50:58Z</time>
      </trkpt>
      <trkpt lat="46.17185" lon="6.63704">
        <ele>1547</ele>
        <time>2022-07-31T08:50:59Z</time>
      </trkpt>
      <trkpt lat="46.17185" lon="6.63705">
        <ele>1547</ele>
        <time>2022-07-31T08:51:00Z</time>
      </trkpt>
      <trkpt lat="46.17186" lon="6.63707">
        <ele>1547</ele>
        <time>2022-07-31T08:51:01Z</time>
      </trkpt>
      <trkpt lat="46.17185" lon="6.63708">
        <ele>1547</ele>
        <time>2022-07-31T08:51:02Z</time>
      </trkpt>
      <trkpt lat="46.17185" lon="6.6371">
        <ele>1548</ele>
        <time>2022-07-31T08:51:03Z</time>
      </trkpt>
      <trkpt lat="46.17185" lon="6.6371">
        <ele>1548</ele>
        <time>2022-07-31T08:51:04Z</time>
      </trkpt>
      <trkpt lat="46.17185" lon="6.63712">
        <ele>1548</ele>
        <time>2022-07-31T08:51:05Z</time>
      </trkpt>
      <trkpt lat="46.17185" lon="6.63712">
        <ele>1548</ele>
        <time>2022-07-31T08:51:06Z</time>
      </trkpt>
      <trkpt lat="46.17185" lon="6.63713">
        <ele>1548</ele>
        <time>2022-07-31T08:51:07Z</time>
      </trkpt>
      <trkpt lat="46.17185" lon="6.63714">
        <ele>1549</ele>
        <time>2022-07-31T08:51:08Z</time>
      </trkpt>
      <trkpt lat="46.17185" lon="6.63716">
        <ele>1549</ele>
        <time>2022-07-31T08:51:09Z</time>
      </trkpt>
      <trkpt lat="46.17185" lon="6.63717">
        <ele>1549</ele>
        <time>2022-07-31T08:51:10Z</time>
      </trkpt>
      <trkpt lat="46.17185" lon="6.63718">
        <ele>1549</ele>
        <time>2022-07-31T08:51:11Z</time>
      </trkpt>
      <trkpt lat="46.17185" lon="6.63718">
        <ele>1550</ele>
        <time>2022-07-31T08:51:12Z</time>
      </trkpt>
      <trkpt lat="46.17185" lon="6.63719">
        <ele>1550</ele>
        <time>2022-07-31T08:51:13Z</time>
      </trkpt>
      <trkpt lat="46.17185" lon="6.63721">
        <ele>1550</ele>
        <time>2022-07-31T08:51:14Z</time>
      </trkpt>
      <trkpt lat="46.17185" lon="6.63721">
        <ele>1550</ele>
        <time>2022-07-31T08:51:15Z</time>
      </trkpt>
      <trkpt lat="46.17185" lon="6.63723">
        <ele>1550</ele>
        <time>2022-07-31T08:51:16Z</time>
      </trkpt>
      <trkpt lat="46.17185" lon="6.63724">
        <ele>1550</ele>
        <time>2022-07-31T08:51:17Z</time>
      </trkpt>
      <trkpt lat="46.17186" lon="6.63724">
        <ele>1550</ele>
        <time>2022-07-31T08:51:18Z</time>
      </trkpt>
      <trkpt lat="46.17185" lon="6.63725">
        <ele>1551</ele>
        <time>2022-07-31T08:51:19Z</time>
      </trkpt>
      <trkpt lat="46.17185" lon="6.63725">
        <ele>1551</ele>
        <time>2022-07-31T08:51:20Z</time>
      </trkpt>
      <trkpt lat="46.17185" lon="6.63727">
        <ele>1551</ele>
        <time>2022-07-31T08:51:21Z</time>
      </trkpt>
      <trkpt lat="46.17185" lon="6.63728">
        <ele>1551</ele>
        <time>2022-07-31T08:51:22Z</time>
      </trkpt>
      <trkpt lat="46.17185" lon="6.63729">
        <ele>1551</ele>
        <time>2022-07-31T08:51:23Z</time>
      </trkpt>
      <trkpt lat="46.17186" lon="6.63731">
        <ele>1551</ele>
        <time>2022-07-31T08:51:24Z</time>
      </trkpt>
      <trkpt lat="46.17185" lon="6.63731">
        <ele>1552</ele>
        <time>2022-07-31T08:51:25Z</time>
      </trkpt>
      <trkpt lat="46.17185" lon="6.63733">
        <ele>1552</ele>
        <time>2022-07-31T08:51:26Z</time>
      </trkpt>
      <trkpt lat="46.17185" lon="6.63734">
        <ele>1552</ele>
        <time>2022-07-31T08:51:27Z</time>
      </trkpt>
      <trkpt lat="46.17186" lon="6.63734">
        <ele>1553</ele>
        <time>2022-07-31T08:51:28Z</time>
      </trkpt>
      <trkpt lat="46.17186" lon="6.63735">
        <ele>1553</ele>
        <time>2022-07-31T08:51:29Z</time>
      </trkpt>
      <trkpt lat="46.17186" lon="6.63736">
        <ele>1554</ele>
        <time>2022-07-31T08:51:30Z</time>
      </trkpt>
      <trkpt lat="46.17186" lon="6.63737">
        <ele>1554</ele>
        <time>2022-07-31T08:51:31Z</time>
      </trkpt>
      <trkpt lat="46.17185" lon="6.63739">
        <ele>1555</ele>
        <time>2022-07-31T08:51:32Z</time>
      </trkpt>
      <trkpt lat="46.17186" lon="6.63739">
        <ele>1555</ele>
        <time>2022-07-31T08:51:33Z</time>
      </trkpt>
      <trkpt lat="46.17186" lon="6.6374">
        <ele>1556</ele>
        <time>2022-07-31T08:51:34Z</time>
      </trkpt>
      <trkpt lat="46.17186" lon="6.63741">
        <ele>1556</ele>
        <time>2022-07-31T08:51:35Z</time>
      </trkpt>
      <trkpt lat="46.17186" lon="6.63742">
        <ele>1556</ele>
        <time>2022-07-31T08:51:36Z</time>
      </trkpt>
      <trkpt lat="46.17187" lon="6.63743">
        <ele>1556</ele>
        <time>2022-07-31T08:51:37Z</time>
      </trkpt>
      <trkpt lat="46.17187" lon="6.63745">
        <ele>1557</ele>
        <time>2022-07-31T08:51:38Z</time>
      </trkpt>
      <trkpt lat="46.17186" lon="6.63746">
        <ele>1557</ele>
        <time>2022-07-31T08:51:39Z</time>
      </trkpt>
      <trkpt lat="46.17186" lon="6.63747">
        <ele>1557</ele>
        <time>2022-07-31T08:51:40Z</time>
      </trkpt>
      <trkpt lat="46.17186" lon="6.63748">
        <ele>1557</ele>
        <time>2022-07-31T08:51:41Z</time>
      </trkpt>
      <trkpt lat="46.17186" lon="6.63748">
        <ele>1557</ele>
        <time>2022-07-31T08:51:42Z</time>
      </trkpt>
      <trkpt lat="46.17186" lon="6.63749">
        <ele>1557</ele>
        <time>2022-07-31T08:51:43Z</time>
      </trkpt>
      <trkpt lat="46.17186" lon="6.6375">
        <ele>1558</ele>
        <time>2022-07-31T08:51:44Z</time>
      </trkpt>
      <trkpt lat="46.17185" lon="6.6375">
        <ele>1558</ele>
        <time>2022-07-31T08:51:45Z</time>
      </trkpt>
      <trkpt lat="46.17185" lon="6.6375">
        <ele>1558</ele>
        <time>2022-07-31T08:51:46Z</time>
      </trkpt>
      <trkpt lat="46.17185" lon="6.63751">
        <ele>1558</ele>
        <time>2022-07-31T08:51:47Z</time>
      </trkpt>
      <trkpt lat="46.17185" lon="6.63752">
        <ele>1558</ele>
        <time>2022-07-31T08:51:48Z</time>
      </trkpt>
      <trkpt lat="46.17185" lon="6.63752">
        <ele>1558</ele>
        <time>2022-07-31T08:51:49Z</time>
      </trkpt>
      <trkpt lat="46.17185" lon="6.63754">
        <ele>1558</ele>
        <time>2022-07-31T08:51:50Z</time>
      </trkpt>
      <trkpt lat="46.17185" lon="6.63754">
        <ele>1558</ele>
        <time>2022-07-31T08:51:51Z</time>
      </trkpt>
      <trkpt lat="46.17185" lon="6.63756">
        <ele>1558</ele>
        <time>2022-07-31T08:51:52Z</time>
      </trkpt>
      <trkpt lat="46.17185" lon="6.63756">
        <ele>1558</ele>
        <time>2022-07-31T08:51:53Z</time>
      </trkpt>
      <trkpt lat="46.17185" lon="6.63757">
        <ele>1558</ele>
        <time>2022-07-31T08:51:54Z</time>
      </trkpt>
      <trkpt lat="46.17185" lon="6.63758">
        <ele>1558</ele>
        <time>2022-07-31T08:51:55Z</time>
      </trkpt>
      <trkpt lat="46.17185" lon="6.63758">
        <ele>1558</ele>
        <time>2022-07-31T08:51:56Z</time>
      </trkpt>
      <trkpt lat="46.17185" lon="6.6376">
        <ele>1558</ele>
        <time>2022-07-31T08:51:57Z</time>
      </trkpt>
      <trkpt lat="46.17185" lon="6.63761">
        <ele>1559</ele>
        <time>2022-07-31T08:51:58Z</time>
      </trkpt>
      <trkpt lat="46.17185" lon="6.63761">
        <ele>1559</ele>
        <time>2022-07-31T08:51:59Z</time>
      </trkpt>
      <trkpt lat="46.17185" lon="6.63762">
        <ele>1559</ele>
        <time>2022-07-31T08:52:00Z</time>
      </trkpt>
      <trkpt lat="46.17185" lon="6.63763">
        <ele>1559</ele>
        <time>2022-07-31T08:52:01Z</time>
      </trkpt>
      <trkpt lat="46.17185" lon="6.63765">
        <ele>1559</ele>
        <time>2022-07-31T08:52:02Z</time>
      </trkpt>
      <trkpt lat="46.17185" lon="6.63766">
        <ele>1559</ele>
        <time>2022-07-31T08:52:03Z</time>
      </trkpt>
      <trkpt lat="46.17186" lon="6.63767">
        <ele>1559</ele>
        <time>2022-07-31T08:52:04Z</time>
      </trkpt>
      <trkpt lat="46.17186" lon="6.63768">
        <ele>1559</ele>
        <time>2022-07-31T08:52:05Z</time>
      </trkpt>
      <trkpt lat="46.17186" lon="6.63769">
        <ele>1559</ele>
        <time>2022-07-31T08:52:06Z</time>
      </trkpt>
      <trkpt lat="46.17186" lon="6.63769">
        <ele>1559</ele>
        <time>2022-07-31T08:52:07Z</time>
      </trkpt>
      <trkpt lat="46.17186" lon="6.6377">
        <ele>1560</ele>
        <time>2022-07-31T08:52:08Z</time>
      </trkpt>
      <trkpt lat="46.17186" lon="6.6377">
        <ele>1560</ele>
        <time>2022-07-31T08:52:09Z</time>
      </trkpt>
      <trkpt lat="46.17186" lon="6.63772">
        <ele>1560</ele>
        <time>2022-07-31T08:52:10Z</time>
      </trkpt>
      <trkpt lat="46.17186" lon="6.63773">
        <ele>1560</ele>
        <time>2022-07-31T08:52:11Z</time>
      </trkpt>
      <trkpt lat="46.17186" lon="6.63774">
        <ele>1560</ele>
        <time>2022-07-31T08:52:12Z</time>
      </trkpt>
      <trkpt lat="46.17185" lon="6.63775">
        <ele>1560</ele>
        <time>2022-07-31T08:52:13Z</time>
      </trkpt>
      <trkpt lat="46.17185" lon="6.63776">
        <ele>1560</ele>
        <time>2022-07-31T08:52:14Z</time>
      </trkpt>
      <trkpt lat="46.17184" lon="6.63777">
        <ele>1560</ele>
        <time>2022-07-31T08:52:15Z</time>
      </trkpt>
      <trkpt lat="46.17184" lon="6.63778">
        <ele>1560</ele>
        <time>2022-07-31T08:52:16Z</time>
      </trkpt>
      <trkpt lat="46.17184" lon="6.63779">
        <ele>1560</ele>
        <time>2022-07-31T08:52:17Z</time>
      </trkpt>
      <trkpt lat="46.17184" lon="6.6378">
        <ele>1560</ele>
        <time>2022-07-31T08:52:18Z</time>
      </trkpt>
      <trkpt lat="46.17184" lon="6.63781">
        <ele>1561</ele>
        <time>2022-07-31T08:52:19Z</time>
      </trkpt>
      <trkpt lat="46.17184" lon="6.63783">
        <ele>1561</ele>
        <time>2022-07-31T08:52:20Z</time>
      </trkpt>
      <trkpt lat="46.17184" lon="6.63784">
        <ele>1561</ele>
        <time>2022-07-31T08:52:21Z</time>
      </trkpt>
      <trkpt lat="46.17184" lon="6.63785">
        <ele>1561</ele>
        <time>2022-07-31T08:52:22Z</time>
      </trkpt>
      <trkpt lat="46.17183" lon="6.63787">
        <ele>1561</ele>
        <time>2022-07-31T08:52:23Z</time>
      </trkpt>
      <trkpt lat="46.17184" lon="6.63788">
        <ele>1561</ele>
        <time>2022-07-31T08:52:24Z</time>
      </trkpt>
      <trkpt lat="46.17184" lon="6.63789">
        <ele>1561</ele>
        <time>2022-07-31T08:52:25Z</time>
      </trkpt>
      <trkpt lat="46.17184" lon="6.63791">
        <ele>1561</ele>
        <time>2022-07-31T08:52:26Z</time>
      </trkpt>
      <trkpt lat="46.17185" lon="6.63792">
        <ele>1561</ele>
        <time>2022-07-31T08:52:27Z</time>
      </trkpt>
      <trkpt lat="46.17185" lon="6.63793">
        <ele>1561</ele>
        <time>2022-07-31T08:52:28Z</time>
      </trkpt>
      <trkpt lat="46.17185" lon="6.63795">
        <ele>1561</ele>
        <time>2022-07-31T08:52:29Z</time>
      </trkpt>
      <trkpt lat="46.17184" lon="6.63795">
        <ele>1561</ele>
        <time>2022-07-31T08:52:30Z</time>
      </trkpt>
      <trkpt lat="46.17184" lon="6.63796">
        <ele>1561</ele>
        <time>2022-07-31T08:52:31Z</time>
      </trkpt>
      <trkpt lat="46.17184" lon="6.63798">
        <ele>1561</ele>
        <time>2022-07-31T08:52:32Z</time>
      </trkpt>
      <trkpt lat="46.17184" lon="6.63799">
        <ele>1561</ele>
        <time>2022-07-31T08:52:33Z</time>
      </trkpt>
      <trkpt lat="46.17184" lon="6.638">
        <ele>1562</ele>
        <time>2022-07-31T08:52:34Z</time>
      </trkpt>
      <trkpt lat="46.17184" lon="6.63801">
        <ele>1562</ele>
        <time>2022-07-31T08:52:35Z</time>
      </trkpt>
      <trkpt lat="46.17183" lon="6.63803">
        <ele>1562</ele>
        <time>2022-07-31T08:52:36Z</time>
      </trkpt>
      <trkpt lat="46.17182" lon="6.63805">
        <ele>1562</ele>
        <time>2022-07-31T08:52:37Z</time>
      </trkpt>
      <trkpt lat="46.17182" lon="6.63806">
        <ele>1562</ele>
        <time>2022-07-31T08:52:38Z</time>
      </trkpt>
      <trkpt lat="46.17182" lon="6.63807">
        <ele>1563</ele>
        <time>2022-07-31T08:52:39Z</time>
      </trkpt>
      <trkpt lat="46.17182" lon="6.63809">
        <ele>1563</ele>
        <time>2022-07-31T08:52:40Z</time>
      </trkpt>
      <trkpt lat="46.17181" lon="6.63811">
        <ele>1563</ele>
        <time>2022-07-31T08:52:41Z</time>
      </trkpt>
      <trkpt lat="46.17181" lon="6.63811">
        <ele>1563</ele>
        <time>2022-07-31T08:52:42Z</time>
      </trkpt>
      <trkpt lat="46.1718" lon="6.63812">
        <ele>1564</ele>
        <time>2022-07-31T08:52:43Z</time>
      </trkpt>
      <trkpt lat="46.17179" lon="6.63813">
        <ele>1564</ele>
        <time>2022-07-31T08:52:44Z</time>
      </trkpt>
      <trkpt lat="46.17179" lon="6.63814">
        <ele>1564</ele>
        <time>2022-07-31T08:52:45Z</time>
      </trkpt>
      <trkpt lat="46.17178" lon="6.63814">
        <ele>1564</ele>
        <time>2022-07-31T08:52:46Z</time>
      </trkpt>
      <trkpt lat="46.17178" lon="6.63815">
        <ele>1565</ele>
        <time>2022-07-31T08:52:47Z</time>
      </trkpt>
      <trkpt lat="46.17178" lon="6.63817">
        <ele>1565</ele>
        <time>2022-07-31T08:52:48Z</time>
      </trkpt>
      <trkpt lat="46.17178" lon="6.63818">
        <ele>1565</ele>
        <time>2022-07-31T08:52:49Z</time>
      </trkpt>
      <trkpt lat="46.17178" lon="6.63818">
        <ele>1565</ele>
        <time>2022-07-31T08:52:50Z</time>
      </trkpt>
      <trkpt lat="46.17177" lon="6.6382">
        <ele>1565</ele>
        <time>2022-07-31T08:52:51Z</time>
      </trkpt>
      <trkpt lat="46.17177" lon="6.63821">
        <ele>1566</ele>
        <time>2022-07-31T08:52:52Z</time>
      </trkpt>
      <trkpt lat="46.17176" lon="6.63822">
        <ele>1566</ele>
        <time>2022-07-31T08:52:53Z</time>
      </trkpt>
      <trkpt lat="46.17176" lon="6.63824">
        <ele>1566</ele>
        <time>2022-07-31T08:52:54Z</time>
      </trkpt>
      <trkpt lat="46.17176" lon="6.63825">
        <ele>1566</ele>
        <time>2022-07-31T08:52:55Z</time>
      </trkpt>
      <trkpt lat="46.17176" lon="6.63826">
        <ele>1567</ele>
        <time>2022-07-31T08:52:56Z</time>
      </trkpt>
      <trkpt lat="46.17176" lon="6.63827">
        <ele>1567</ele>
        <time>2022-07-31T08:52:57Z</time>
      </trkpt>
      <trkpt lat="46.17176" lon="6.63828">
        <ele>1567</ele>
        <time>2022-07-31T08:52:58Z</time>
      </trkpt>
      <trkpt lat="46.17176" lon="6.6383">
        <ele>1567</ele>
        <time>2022-07-31T08:52:59Z</time>
      </trkpt>
      <trkpt lat="46.17176" lon="6.63831">
        <ele>1567</ele>
        <time>2022-07-31T08:53:00Z</time>
      </trkpt>
      <trkpt lat="46.17176" lon="6.63832">
        <ele>1568</ele>
        <time>2022-07-31T08:53:01Z</time>
      </trkpt>
      <trkpt lat="46.17176" lon="6.63833">
        <ele>1568</ele>
        <time>2022-07-31T08:53:02Z</time>
      </trkpt>
      <trkpt lat="46.17176" lon="6.63834">
        <ele>1568</ele>
        <time>2022-07-31T08:53:03Z</time>
      </trkpt>
      <trkpt lat="46.17177" lon="6.63835">
        <ele>1568</ele>
        <time>2022-07-31T08:53:04Z</time>
      </trkpt>
      <trkpt lat="46.17176" lon="6.63836">
        <ele>1568</ele>
        <time>2022-07-31T08:53:05Z</time>
      </trkpt>
      <trkpt lat="46.17176" lon="6.63837">
        <ele>1568</ele>
        <time>2022-07-31T08:53:06Z</time>
      </trkpt>
      <trkpt lat="46.17177" lon="6.63838">
        <ele>1569</ele>
        <time>2022-07-31T08:53:07Z</time>
      </trkpt>
      <trkpt lat="46.17177" lon="6.63838">
        <ele>1569</ele>
        <time>2022-07-31T08:53:08Z</time>
      </trkpt>
      <trkpt lat="46.17177" lon="6.63839">
        <ele>1569</ele>
        <time>2022-07-31T08:53:09Z</time>
      </trkpt>
      <trkpt lat="46.17178" lon="6.6384">
        <ele>1569</ele>
        <time>2022-07-31T08:53:10Z</time>
      </trkpt>
      <trkpt lat="46.17178" lon="6.63841">
        <ele>1569</ele>
        <time>2022-07-31T08:53:11Z</time>
      </trkpt>
      <trkpt lat="46.17178" lon="6.63842">
        <ele>1570</ele>
        <time>2022-07-31T08:53:12Z</time>
      </trkpt>
      <trkpt lat="46.17178" lon="6.63844">
        <ele>1570</ele>
        <time>2022-07-31T08:53:13Z</time>
      </trkpt>
      <trkpt lat="46.17178" lon="6.63844">
        <ele>1570</ele>
        <time>2022-07-31T08:53:14Z</time>
      </trkpt>
      <trkpt lat="46.17179" lon="6.63845">
        <ele>1570</ele>
        <time>2022-07-31T08:53:15Z</time>
      </trkpt>
      <trkpt lat="46.17179" lon="6.63846">
        <ele>1570</ele>
        <time>2022-07-31T08:53:16Z</time>
      </trkpt>
      <trkpt lat="46.1718" lon="6.63847">
        <ele>1571</ele>
        <time>2022-07-31T08:53:17Z</time>
      </trkpt>
      <trkpt lat="46.1718" lon="6.63848">
        <ele>1571</ele>
        <time>2022-07-31T08:53:18Z</time>
      </trkpt>
      <trkpt lat="46.17179" lon="6.63849">
        <ele>1571</ele>
        <time>2022-07-31T08:53:19Z</time>
      </trkpt>
      <trkpt lat="46.17179" lon="6.6385">
        <ele>1571</ele>
        <time>2022-07-31T08:53:20Z</time>
      </trkpt>
      <trkpt lat="46.1718" lon="6.63851">
        <ele>1571</ele>
        <time>2022-07-31T08:53:21Z</time>
      </trkpt>
      <trkpt lat="46.1718" lon="6.63852">
        <ele>1572</ele>
        <time>2022-07-31T08:53:22Z</time>
      </trkpt>
      <trkpt lat="46.1718" lon="6.63852">
        <ele>1572</ele>
        <time>2022-07-31T08:53:23Z</time>
      </trkpt>
      <trkpt lat="46.1718" lon="6.63852">
        <ele>1572</ele>
        <time>2022-07-31T08:53:24Z</time>
      </trkpt>
      <trkpt lat="46.17178" lon="6.63853">
        <ele>1572</ele>
        <time>2022-07-31T08:53:25Z</time>
      </trkpt>
      <trkpt lat="46.17178" lon="6.63854">
        <ele>1573</ele>
        <time>2022-07-31T08:53:26Z</time>
      </trkpt>
      <trkpt lat="46.17179" lon="6.63854">
        <ele>1573</ele>
        <time>2022-07-31T08:53:27Z</time>
      </trkpt>
      <trkpt lat="46.17179" lon="6.63855">
        <ele>1573</ele>
        <time>2022-07-31T08:53:28Z</time>
      </trkpt>
      <trkpt lat="46.1718" lon="6.63858">
        <ele>1573</ele>
        <time>2022-07-31T08:53:29Z</time>
      </trkpt>
      <trkpt lat="46.1718" lon="6.63859">
        <ele>1574</ele>
        <time>2022-07-31T08:53:30Z</time>
      </trkpt>
      <trkpt lat="46.1718" lon="6.6386">
        <ele>1574</ele>
        <time>2022-07-31T08:53:31Z</time>
      </trkpt>
      <trkpt lat="46.1718" lon="6.63862">
        <ele>1574</ele>
        <time>2022-07-31T08:53:32Z</time>
      </trkpt>
      <trkpt lat="46.17181" lon="6.63864">
        <ele>1575</ele>
        <time>2022-07-31T08:53:33Z</time>
      </trkpt>
      <trkpt lat="46.17181" lon="6.63865">
        <ele>1575</ele>
        <time>2022-07-31T08:53:34Z</time>
      </trkpt>
      <trkpt lat="46.17181" lon="6.63866">
        <ele>1575</ele>
        <time>2022-07-31T08:53:35Z</time>
      </trkpt>
      <trkpt lat="46.17182" lon="6.63867">
        <ele>1575</ele>
        <time>2022-07-31T08:53:36Z</time>
      </trkpt>
      <trkpt lat="46.17182" lon="6.63867">
        <ele>1575</ele>
        <time>2022-07-31T08:53:37Z</time>
      </trkpt>
      <trkpt lat="46.17182" lon="6.63867">
        <ele>1576</ele>
        <time>2022-07-31T08:53:38Z</time>
      </trkpt>
      <trkpt lat="46.17182" lon="6.63867">
        <ele>1576</ele>
        <time>2022-07-31T08:53:39Z</time>
      </trkpt>
      <trkpt lat="46.17182" lon="6.63869">
        <ele>1576</ele>
        <time>2022-07-31T08:53:40Z</time>
      </trkpt>
      <trkpt lat="46.17182" lon="6.6387">
        <ele>1576</ele>
        <time>2022-07-31T08:53:41Z</time>
      </trkpt>
      <trkpt lat="46.17183" lon="6.63871">
        <ele>1576</ele>
        <time>2022-07-31T08:53:42Z</time>
      </trkpt>
      <trkpt lat="46.17183" lon="6.63872">
        <ele>1576</ele>
        <time>2022-07-31T08:53:43Z</time>
      </trkpt>
      <trkpt lat="46.17182" lon="6.63872">
        <ele>1577</ele>
        <time>2022-07-31T08:53:44Z</time>
      </trkpt>
      <trkpt lat="46.17182" lon="6.63873">
        <ele>1577</ele>
        <time>2022-07-31T08:53:45Z</time>
      </trkpt>
      <trkpt lat="46.17182" lon="6.63873">
        <ele>1577</ele>
        <time>2022-07-31T08:53:46Z</time>
      </trkpt>
      <trkpt lat="46.17182" lon="6.63873">
        <ele>1577</ele>
        <time>2022-07-31T08:53:47Z</time>
      </trkpt>
      <trkpt lat="46.17181" lon="6.63873">
        <ele>1577</ele>
        <time>2022-07-31T08:53:48Z</time>
      </trkpt>
      <trkpt lat="46.17181" lon="6.63874">
        <ele>1577</ele>
        <time>2022-07-31T08:53:49Z</time>
      </trkpt>
      <trkpt lat="46.17181" lon="6.63874">
        <ele>1577</ele>
        <time>2022-07-31T08:53:50Z</time>
      </trkpt>
      <trkpt lat="46.17181" lon="6.63875">
        <ele>1577</ele>
        <time>2022-07-31T08:53:51Z</time>
      </trkpt>
      <trkpt lat="46.17181" lon="6.63877">
        <ele>1578</ele>
        <time>2022-07-31T08:53:52Z</time>
      </trkpt>
      <trkpt lat="46.17181" lon="6.63878">
        <ele>1578</ele>
        <time>2022-07-31T08:53:53Z</time>
      </trkpt>
      <trkpt lat="46.17182" lon="6.63879">
        <ele>1578</ele>
        <time>2022-07-31T08:53:54Z</time>
      </trkpt>
      <trkpt lat="46.17181" lon="6.6388">
        <ele>1578</ele>
        <time>2022-07-31T08:53:55Z</time>
      </trkpt>
      <trkpt lat="46.17181" lon="6.63881">
        <ele>1579</ele>
        <time>2022-07-31T08:53:56Z</time>
      </trkpt>
      <trkpt lat="46.17181" lon="6.63882">
        <ele>1579</ele>
        <time>2022-07-31T08:53:57Z</time>
      </trkpt>
      <trkpt lat="46.17182" lon="6.63883">
        <ele>1579</ele>
        <time>2022-07-31T08:53:58Z</time>
      </trkpt>
      <trkpt lat="46.17182" lon="6.63884">
        <ele>1580</ele>
        <time>2022-07-31T08:53:59Z</time>
      </trkpt>
      <trkpt lat="46.17182" lon="6.63884">
        <ele>1580</ele>
        <time>2022-07-31T08:54:00Z</time>
      </trkpt>
      <trkpt lat="46.17182" lon="6.63885">
        <ele>1580</ele>
        <time>2022-07-31T08:54:01Z</time>
      </trkpt>
      <trkpt lat="46.17182" lon="6.63886">
        <ele>1580</ele>
        <time>2022-07-31T08:54:02Z</time>
      </trkpt>
      <trkpt lat="46.17182" lon="6.63889">
        <ele>1580</ele>
        <time>2022-07-31T08:54:03Z</time>
      </trkpt>
      <trkpt lat="46.17182" lon="6.6389">
        <ele>1581</ele>
        <time>2022-07-31T08:54:04Z</time>
      </trkpt>
      <trkpt lat="46.17182" lon="6.63891">
        <ele>1581</ele>
        <time>2022-07-31T08:54:05Z</time>
      </trkpt>
      <trkpt lat="46.17184" lon="6.63891">
        <ele>1581</ele>
        <time>2022-07-31T08:54:06Z</time>
      </trkpt>
      <trkpt lat="46.17183" lon="6.63892">
        <ele>1581</ele>
        <time>2022-07-31T08:54:07Z</time>
      </trkpt>
      <trkpt lat="46.17182" lon="6.63894">
        <ele>1582</ele>
        <time>2022-07-31T08:54:08Z</time>
      </trkpt>
      <trkpt lat="46.17182" lon="6.63896">
        <ele>1582</ele>
        <time>2022-07-31T08:54:09Z</time>
      </trkpt>
      <trkpt lat="46.17182" lon="6.63896">
        <ele>1582</ele>
        <time>2022-07-31T08:54:10Z</time>
      </trkpt>
      <trkpt lat="46.17182" lon="6.63898">
        <ele>1582</ele>
        <time>2022-07-31T08:54:11Z</time>
      </trkpt>
      <trkpt lat="46.17182" lon="6.63899">
        <ele>1583</ele>
        <time>2022-07-31T08:54:12Z</time>
      </trkpt>
      <trkpt lat="46.17182" lon="6.639">
        <ele>1583</ele>
        <time>2022-07-31T08:54:13Z</time>
      </trkpt>
      <trkpt lat="46.17182" lon="6.63901">
        <ele>1583</ele>
        <time>2022-07-31T08:54:14Z</time>
      </trkpt>
      <trkpt lat="46.17182" lon="6.63903">
        <ele>1583</ele>
        <time>2022-07-31T08:54:15Z</time>
      </trkpt>
      <trkpt lat="46.17181" lon="6.63905">
        <ele>1583</ele>
        <time>2022-07-31T08:54:16Z</time>
      </trkpt>
      <trkpt lat="46.17181" lon="6.63906">
        <ele>1584</ele>
        <time>2022-07-31T08:54:17Z</time>
      </trkpt>
      <trkpt lat="46.1718" lon="6.63907">
        <ele>1584</ele>
        <time>2022-07-31T08:54:18Z</time>
      </trkpt>
      <trkpt lat="46.1718" lon="6.63908">
        <ele>1584</ele>
        <time>2022-07-31T08:54:19Z</time>
      </trkpt>
      <trkpt lat="46.1718" lon="6.63909">
        <ele>1584</ele>
        <time>2022-07-31T08:54:20Z</time>
      </trkpt>
      <trkpt lat="46.1718" lon="6.63909">
        <ele>1584</ele>
        <time>2022-07-31T08:54:21Z</time>
      </trkpt>
      <trkpt lat="46.1718" lon="6.6391">
        <ele>1585</ele>
        <time>2022-07-31T08:54:22Z</time>
      </trkpt>
      <trkpt lat="46.1718" lon="6.63911">
        <ele>1585</ele>
        <time>2022-07-31T08:54:23Z</time>
      </trkpt>
      <trkpt lat="46.17179" lon="6.63912">
        <ele>1585</ele>
        <time>2022-07-31T08:54:24Z</time>
      </trkpt>
      <trkpt lat="46.17179" lon="6.63912">
        <ele>1585</ele>
        <time>2022-07-31T08:54:25Z</time>
      </trkpt>
      <trkpt lat="46.1718" lon="6.63913">
        <ele>1585</ele>
        <time>2022-07-31T08:54:26Z</time>
      </trkpt>
      <trkpt lat="46.1718" lon="6.63914">
        <ele>1586</ele>
        <time>2022-07-31T08:54:27Z</time>
      </trkpt>
      <trkpt lat="46.1718" lon="6.63915">
        <ele>1586</ele>
        <time>2022-07-31T08:54:28Z</time>
      </trkpt>
      <trkpt lat="46.1718" lon="6.63916">
        <ele>1586</ele>
        <time>2022-07-31T08:54:29Z</time>
      </trkpt>
      <trkpt lat="46.1718" lon="6.63917">
        <ele>1586</ele>
        <time>2022-07-31T08:54:30Z</time>
      </trkpt>
      <trkpt lat="46.1718" lon="6.63918">
        <ele>1586</ele>
        <time>2022-07-31T08:54:31Z</time>
      </trkpt>
      <trkpt lat="46.1718" lon="6.63918">
        <ele>1586</ele>
        <time>2022-07-31T08:54:32Z</time>
      </trkpt>
      <trkpt lat="46.1718" lon="6.63919">
        <ele>1586</ele>
        <time>2022-07-31T08:54:33Z</time>
      </trkpt>
      <trkpt lat="46.1718" lon="6.6392">
        <ele>1587</ele>
        <time>2022-07-31T08:54:34Z</time>
      </trkpt>
      <trkpt lat="46.1718" lon="6.63921">
        <ele>1587</ele>
        <time>2022-07-31T08:54:35Z</time>
      </trkpt>
      <trkpt lat="46.1718" lon="6.63922">
        <ele>1587</ele>
        <time>2022-07-31T08:54:36Z</time>
      </trkpt>
      <trkpt lat="46.1718" lon="6.63923">
        <ele>1587</ele>
        <time>2022-07-31T08:54:37Z</time>
      </trkpt>
      <trkpt lat="46.1718" lon="6.63924">
        <ele>1587</ele>
        <time>2022-07-31T08:54:38Z</time>
      </trkpt>
      <trkpt lat="46.1718" lon="6.63925">
        <ele>1587</ele>
        <time>2022-07-31T08:54:39Z</time>
      </trkpt>
      <trkpt lat="46.17179" lon="6.63926">
        <ele>1588</ele>
        <time>2022-07-31T08:54:40Z</time>
      </trkpt>
      <trkpt lat="46.17179" lon="6.63928">
        <ele>1588</ele>
        <time>2022-07-31T08:54:41Z</time>
      </trkpt>
      <trkpt lat="46.17179" lon="6.63928">
        <ele>1588</ele>
        <time>2022-07-31T08:54:42Z</time>
      </trkpt>
      <trkpt lat="46.17179" lon="6.63929">
        <ele>1588</ele>
        <time>2022-07-31T08:54:43Z</time>
      </trkpt>
      <trkpt lat="46.17179" lon="6.6393">
        <ele>1589</ele>
        <time>2022-07-31T08:54:44Z</time>
      </trkpt>
      <trkpt lat="46.17179" lon="6.63931">
        <ele>1589</ele>
        <time>2022-07-31T08:54:45Z</time>
      </trkpt>
      <trkpt lat="46.17179" lon="6.63933">
        <ele>1589</ele>
        <time>2022-07-31T08:54:46Z</time>
      </trkpt>
      <trkpt lat="46.17179" lon="6.63934">
        <ele>1590</ele>
        <time>2022-07-31T08:54:47Z</time>
      </trkpt>
      <trkpt lat="46.17178" lon="6.63935">
        <ele>1590</ele>
        <time>2022-07-31T08:54:48Z</time>
      </trkpt>
      <trkpt lat="46.17178" lon="6.63937">
        <ele>1590</ele>
        <time>2022-07-31T08:54:49Z</time>
      </trkpt>
      <trkpt lat="46.17178" lon="6.63938">
        <ele>1591</ele>
        <time>2022-07-31T08:54:50Z</time>
      </trkpt>
      <trkpt lat="46.17178" lon="6.63939">
        <ele>1591</ele>
        <time>2022-07-31T08:54:51Z</time>
      </trkpt>
      <trkpt lat="46.17178" lon="6.6394">
        <ele>1591</ele>
        <time>2022-07-31T08:54:52Z</time>
      </trkpt>
      <trkpt lat="46.17178" lon="6.63941">
        <ele>1591</ele>
        <time>2022-07-31T08:54:53Z</time>
      </trkpt>
      <trkpt lat="46.17178" lon="6.63943">
        <ele>1592</ele>
        <time>2022-07-31T08:54:54Z</time>
      </trkpt>
      <trkpt lat="46.17179" lon="6.63944">
        <ele>1592</ele>
        <time>2022-07-31T08:54:55Z</time>
      </trkpt>
      <trkpt lat="46.17179" lon="6.63946">
        <ele>1592</ele>
        <time>2022-07-31T08:54:56Z</time>
      </trkpt>
      <trkpt lat="46.1718" lon="6.63946">
        <ele>1592</ele>
        <time>2022-07-31T08:54:57Z</time>
      </trkpt>
      <trkpt lat="46.1718" lon="6.63947">
        <ele>1593</ele>
        <time>2022-07-31T08:54:58Z</time>
      </trkpt>
      <trkpt lat="46.17181" lon="6.63948">
        <ele>1593</ele>
        <time>2022-07-31T08:54:59Z</time>
      </trkpt>
      <trkpt lat="46.17181" lon="6.63948">
        <ele>1593</ele>
        <time>2022-07-31T08:55:00Z</time>
      </trkpt>
      <trkpt lat="46.17181" lon="6.63949">
        <ele>1593</ele>
        <time>2022-07-31T08:55:01Z</time>
      </trkpt>
      <trkpt lat="46.17181" lon="6.6395">
        <ele>1593</ele>
        <time>2022-07-31T08:55:02Z</time>
      </trkpt>
      <trkpt lat="46.17182" lon="6.6395">
        <ele>1593</ele>
        <time>2022-07-31T08:55:03Z</time>
      </trkpt>
      <trkpt lat="46.17182" lon="6.6395">
        <ele>1593</ele>
        <time>2022-07-31T08:55:04Z</time>
      </trkpt>
      <trkpt lat="46.17182" lon="6.63951">
        <ele>1594</ele>
        <time>2022-07-31T08:55:05Z</time>
      </trkpt>
      <trkpt lat="46.17182" lon="6.63952">
        <ele>1594</ele>
        <time>2022-07-31T08:55:06Z</time>
      </trkpt>
      <trkpt lat="46.17182" lon="6.63953">
        <ele>1594</ele>
        <time>2022-07-31T08:55:07Z</time>
      </trkpt>
      <trkpt lat="46.17182" lon="6.63953">
        <ele>1594</ele>
        <time>2022-07-31T08:55:08Z</time>
      </trkpt>
      <trkpt lat="46.17182" lon="6.63954">
        <ele>1594</ele>
        <time>2022-07-31T08:55:09Z</time>
      </trkpt>
      <trkpt lat="46.17182" lon="6.63956">
        <ele>1594</ele>
        <time>2022-07-31T08:55:10Z</time>
      </trkpt>
      <trkpt lat="46.17182" lon="6.63957">
        <ele>1594</ele>
        <time>2022-07-31T08:55:11Z</time>
      </trkpt>
      <trkpt lat="46.17182" lon="6.63959">
        <ele>1595</ele>
        <time>2022-07-31T08:55:12Z</time>
      </trkpt>
      <trkpt lat="46.17182" lon="6.6396">
        <ele>1595</ele>
        <time>2022-07-31T08:55:13Z</time>
      </trkpt>
      <trkpt lat="46.17182" lon="6.63961">
        <ele>1595</ele>
        <time>2022-07-31T08:55:14Z</time>
      </trkpt>
      <trkpt lat="46.17182" lon="6.63961">
        <ele>1595</ele>
        <time>2022-07-31T08:55:15Z</time>
      </trkpt>
      <trkpt lat="46.17182" lon="6.63962">
        <ele>1595</ele>
        <time>2022-07-31T08:55:16Z</time>
      </trkpt>
      <trkpt lat="46.17182" lon="6.63962">
        <ele>1596</ele>
        <time>2022-07-31T08:55:17Z</time>
      </trkpt>
      <trkpt lat="46.17182" lon="6.63963">
        <ele>1596</ele>
        <time>2022-07-31T08:55:18Z</time>
      </trkpt>
      <trkpt lat="46.17182" lon="6.63963">
        <ele>1596</ele>
        <time>2022-07-31T08:55:19Z</time>
      </trkpt>
      <trkpt lat="46.17182" lon="6.63964">
        <ele>1596</ele>
        <time>2022-07-31T08:55:20Z</time>
      </trkpt>
      <trkpt lat="46.17182" lon="6.63965">
        <ele>1596</ele>
        <time>2022-07-31T08:55:21Z</time>
      </trkpt>
      <trkpt lat="46.17182" lon="6.63966">
        <ele>1597</ele>
        <time>2022-07-31T08:55:22Z</time>
      </trkpt>
      <trkpt lat="46.17182" lon="6.63967">
        <ele>1597</ele>
        <time>2022-07-31T08:55:23Z</time>
      </trkpt>
      <trkpt lat="46.17181" lon="6.63967">
        <ele>1597</ele>
        <time>2022-07-31T08:55:24Z</time>
      </trkpt>
      <trkpt lat="46.17182" lon="6.63968">
        <ele>1597</ele>
        <time>2022-07-31T08:55:25Z</time>
      </trkpt>
      <trkpt lat="46.17181" lon="6.63969">
        <ele>1598</ele>
        <time>2022-07-31T08:55:26Z</time>
      </trkpt>
      <trkpt lat="46.17181" lon="6.6397">
        <ele>1598</ele>
        <time>2022-07-31T08:55:27Z</time>
      </trkpt>
      <trkpt lat="46.17181" lon="6.63971">
        <ele>1598</ele>
        <time>2022-07-31T08:55:28Z</time>
      </trkpt>
      <trkpt lat="46.17181" lon="6.63973">
        <ele>1598</ele>
        <time>2022-07-31T08:55:29Z</time>
      </trkpt>
      <trkpt lat="46.17181" lon="6.63974">
        <ele>1599</ele>
        <time>2022-07-31T08:55:30Z</time>
      </trkpt>
      <trkpt lat="46.17181" lon="6.63975">
        <ele>1599</ele>
        <time>2022-07-31T08:55:31Z</time>
      </trkpt>
      <trkpt lat="46.17181" lon="6.63976">
        <ele>1599</ele>
        <time>2022-07-31T08:55:32Z</time>
      </trkpt>
      <trkpt lat="46.17181" lon="6.63977">
        <ele>1599</ele>
        <time>2022-07-31T08:55:33Z</time>
      </trkpt>
      <trkpt lat="46.1718" lon="6.63979">
        <ele>1599</ele>
        <time>2022-07-31T08:55:34Z</time>
      </trkpt>
      <trkpt lat="46.1718" lon="6.63979">
        <ele>1599</ele>
        <time>2022-07-31T08:55:35Z</time>
      </trkpt>
      <trkpt lat="46.1718" lon="6.63981">
        <ele>1600</ele>
        <time>2022-07-31T08:55:36Z</time>
      </trkpt>
      <trkpt lat="46.17181" lon="6.63982">
        <ele>1600</ele>
        <time>2022-07-31T08:55:37Z</time>
      </trkpt>
      <trkpt lat="46.1718" lon="6.63982">
        <ele>1600</ele>
        <time>2022-07-31T08:55:38Z</time>
      </trkpt>
      <trkpt lat="46.1718" lon="6.63982">
        <ele>1600</ele>
        <time>2022-07-31T08:55:39Z</time>
      </trkpt>
      <trkpt lat="46.17179" lon="6.63983">
        <ele>1600</ele>
        <time>2022-07-31T08:55:40Z</time>
      </trkpt>
      <trkpt lat="46.17179" lon="6.63984">
        <ele>1600</ele>
        <time>2022-07-31T08:55:41Z</time>
      </trkpt>
      <trkpt lat="46.17179" lon="6.63984">
        <ele>1600</ele>
        <time>2022-07-31T08:55:42Z</time>
      </trkpt>
      <trkpt lat="46.17178" lon="6.63985">
        <ele>1600</ele>
        <time>2022-07-31T08:55:43Z</time>
      </trkpt>
      <trkpt lat="46.17178" lon="6.63986">
        <ele>1601</ele>
        <time>2022-07-31T08:55:44Z</time>
      </trkpt>
      <trkpt lat="46.17178" lon="6.63987">
        <ele>1601</ele>
        <time>2022-07-31T08:55:45Z</time>
      </trkpt>
      <trkpt lat="46.17177" lon="6.63988">
        <ele>1601</ele>
        <time>2022-07-31T08:55:46Z</time>
      </trkpt>
      <trkpt lat="46.17177" lon="6.63989">
        <ele>1601</ele>
        <time>2022-07-31T08:55:47Z</time>
      </trkpt>
      <trkpt lat="46.17176" lon="6.6399">
        <ele>1601</ele>
        <time>2022-07-31T08:55:48Z</time>
      </trkpt>
      <trkpt lat="46.17176" lon="6.63991">
        <ele>1602</ele>
        <time>2022-07-31T08:55:49Z</time>
      </trkpt>
      <trkpt lat="46.17176" lon="6.63992">
        <ele>1602</ele>
        <time>2022-07-31T08:55:50Z</time>
      </trkpt>
      <trkpt lat="46.17176" lon="6.63994">
        <ele>1602</ele>
        <time>2022-07-31T08:55:51Z</time>
      </trkpt>
      <trkpt lat="46.17176" lon="6.63995">
        <ele>1602</ele>
        <time>2022-07-31T08:55:52Z</time>
      </trkpt>
      <trkpt lat="46.17175" lon="6.63996">
        <ele>1602</ele>
        <time>2022-07-31T08:55:53Z</time>
      </trkpt>
      <trkpt lat="46.17176" lon="6.63997">
        <ele>1603</ele>
        <time>2022-07-31T08:55:54Z</time>
      </trkpt>
      <trkpt lat="46.17176" lon="6.63998">
        <ele>1603</ele>
        <time>2022-07-31T08:55:55Z</time>
      </trkpt>
      <trkpt lat="46.17177" lon="6.63999">
        <ele>1603</ele>
        <time>2022-07-31T08:55:56Z</time>
      </trkpt>
      <trkpt lat="46.17177" lon="6.64">
        <ele>1603</ele>
        <time>2022-07-31T08:55:57Z</time>
      </trkpt>
      <trkpt lat="46.17177" lon="6.64001">
        <ele>1603</ele>
        <time>2022-07-31T08:55:58Z</time>
      </trkpt>
      <trkpt lat="46.17177" lon="6.64002">
        <ele>1604</ele>
        <time>2022-07-31T08:55:59Z</time>
      </trkpt>
      <trkpt lat="46.17177" lon="6.64004">
        <ele>1604</ele>
        <time>2022-07-31T08:56:00Z</time>
      </trkpt>
      <trkpt lat="46.17177" lon="6.64006">
        <ele>1604</ele>
        <time>2022-07-31T08:56:01Z</time>
      </trkpt>
      <trkpt lat="46.17177" lon="6.64007">
        <ele>1604</ele>
        <time>2022-07-31T08:56:02Z</time>
      </trkpt>
      <trkpt lat="46.17177" lon="6.64008">
        <ele>1604</ele>
        <time>2022-07-31T08:56:03Z</time>
      </trkpt>
      <trkpt lat="46.17177" lon="6.64009">
        <ele>1604</ele>
        <time>2022-07-31T08:56:04Z</time>
      </trkpt>
      <trkpt lat="46.17178" lon="6.6401">
        <ele>1605</ele>
        <time>2022-07-31T08:56:05Z</time>
      </trkpt>
      <trkpt lat="46.17178" lon="6.64011">
        <ele>1605</ele>
        <time>2022-07-31T08:56:06Z</time>
      </trkpt>
      <trkpt lat="46.17179" lon="6.64012">
        <ele>1605</ele>
        <time>2022-07-31T08:56:07Z</time>
      </trkpt>
      <trkpt lat="46.1718" lon="6.64014">
        <ele>1605</ele>
        <time>2022-07-31T08:56:08Z</time>
      </trkpt>
      <trkpt lat="46.1718" lon="6.64014">
        <ele>1605</ele>
        <time>2022-07-31T08:56:09Z</time>
      </trkpt>
      <trkpt lat="46.1718" lon="6.64015">
        <ele>1605</ele>
        <time>2022-07-31T08:56:10Z</time>
      </trkpt>
      <trkpt lat="46.17181" lon="6.64016">
        <ele>1605</ele>
        <time>2022-07-31T08:56:11Z</time>
      </trkpt>
      <trkpt lat="46.17181" lon="6.64017">
        <ele>1605</ele>
        <time>2022-07-31T08:56:12Z</time>
      </trkpt>
      <trkpt lat="46.1718" lon="6.64017">
        <ele>1606</ele>
        <time>2022-07-31T08:56:13Z</time>
      </trkpt>
      <trkpt lat="46.1718" lon="6.64017">
        <ele>1606</ele>
        <time>2022-07-31T08:56:14Z</time>
      </trkpt>
      <trkpt lat="46.1718" lon="6.64018">
        <ele>1606</ele>
        <time>2022-07-31T08:56:15Z</time>
      </trkpt>
      <trkpt lat="46.17178" lon="6.6402">
        <ele>1606</ele>
        <time>2022-07-31T08:56:16Z</time>
      </trkpt>
      <trkpt lat="46.17178" lon="6.64021">
        <ele>1606</ele>
        <time>2022-07-31T08:56:17Z</time>
      </trkpt>
      <trkpt lat="46.17177" lon="6.64021">
        <ele>1606</ele>
        <time>2022-07-31T08:56:18Z</time>
      </trkpt>
      <trkpt lat="46.17177" lon="6.64022">
        <ele>1607</ele>
        <time>2022-07-31T08:56:19Z</time>
      </trkpt>
      <trkpt lat="46.17177" lon="6.64023">
        <ele>1607</ele>
        <time>2022-07-31T08:56:20Z</time>
      </trkpt>
      <trkpt lat="46.17177" lon="6.64024">
        <ele>1607</ele>
        <time>2022-07-31T08:56:21Z</time>
      </trkpt>
      <trkpt lat="46.17177" lon="6.64025">
        <ele>1607</ele>
        <time>2022-07-31T08:56:22Z</time>
      </trkpt>
      <trkpt lat="46.17177" lon="6.64026">
        <ele>1607</ele>
        <time>2022-07-31T08:56:23Z</time>
      </trkpt>
      <trkpt lat="46.17176" lon="6.64026">
        <ele>1608</ele>
        <time>2022-07-31T08:56:24Z</time>
      </trkpt>
      <trkpt lat="46.17176" lon="6.64027">
        <ele>1608</ele>
        <time>2022-07-31T08:56:25Z</time>
      </trkpt>
      <trkpt lat="46.17176" lon="6.64028">
        <ele>1608</ele>
        <time>2022-07-31T08:56:26Z</time>
      </trkpt>
      <trkpt lat="46.17176" lon="6.64029">
        <ele>1608</ele>
        <time>2022-07-31T08:56:27Z</time>
      </trkpt>
      <trkpt lat="46.17176" lon="6.64031">
        <ele>1608</ele>
        <time>2022-07-31T08:56:28Z</time>
      </trkpt>
      <trkpt lat="46.17176" lon="6.64033">
        <ele>1608</ele>
        <time>2022-07-31T08:56:29Z</time>
      </trkpt>
      <trkpt lat="46.17176" lon="6.64033">
        <ele>1608</ele>
        <time>2022-07-31T08:56:30Z</time>
      </trkpt>
      <trkpt lat="46.17176" lon="6.64034">
        <ele>1608</ele>
        <time>2022-07-31T08:56:31Z</time>
      </trkpt>
      <trkpt lat="46.17176" lon="6.64035">
        <ele>1609</ele>
        <time>2022-07-31T08:56:32Z</time>
      </trkpt>
      <trkpt lat="46.17176" lon="6.64035">
        <ele>1609</ele>
        <time>2022-07-31T08:56:33Z</time>
      </trkpt>
      <trkpt lat="46.17176" lon="6.64035">
        <ele>1609</ele>
        <time>2022-07-31T08:56:34Z</time>
      </trkpt>
      <trkpt lat="46.17176" lon="6.64036">
        <ele>1609</ele>
        <time>2022-07-31T08:56:35Z</time>
      </trkpt>
      <trkpt lat="46.17176" lon="6.64037">
        <ele>1609</ele>
        <time>2022-07-31T08:56:36Z</time>
      </trkpt>
      <trkpt lat="46.17176" lon="6.64038">
        <ele>1609</ele>
        <time>2022-07-31T08:56:37Z</time>
      </trkpt>
      <trkpt lat="46.17174" lon="6.64039">
        <ele>1609</ele>
        <time>2022-07-31T08:56:38Z</time>
      </trkpt>
      <trkpt lat="46.17175" lon="6.64041">
        <ele>1610</ele>
        <time>2022-07-31T08:56:39Z</time>
      </trkpt>
      <trkpt lat="46.17176" lon="6.64042">
        <ele>1610</ele>
        <time>2022-07-31T08:56:40Z</time>
      </trkpt>
      <trkpt lat="46.17176" lon="6.64043">
        <ele>1610</ele>
        <time>2022-07-31T08:56:41Z</time>
      </trkpt>
      <trkpt lat="46.17176" lon="6.64043">
        <ele>1610</ele>
        <time>2022-07-31T08:56:42Z</time>
      </trkpt>
      <trkpt lat="46.17176" lon="6.64044">
        <ele>1610</ele>
        <time>2022-07-31T08:56:43Z</time>
      </trkpt>
      <trkpt lat="46.17176" lon="6.64044">
        <ele>1610</ele>
        <time>2022-07-31T08:56:44Z</time>
      </trkpt>
      <trkpt lat="46.17177" lon="6.64044">
        <ele>1611</ele>
        <time>2022-07-31T08:56:45Z</time>
      </trkpt>
      <trkpt lat="46.17178" lon="6.64045">
        <ele>1611</ele>
        <time>2022-07-31T08:56:46Z</time>
      </trkpt>
      <trkpt lat="46.17178" lon="6.64045">
        <ele>1611</ele>
        <time>2022-07-31T08:56:47Z</time>
      </trkpt>
      <trkpt lat="46.17178" lon="6.64045">
        <ele>1611</ele>
        <time>2022-07-31T08:56:48Z</time>
      </trkpt>
      <trkpt lat="46.17178" lon="6.64045">
        <ele>1611</ele>
        <time>2022-07-31T08:56:49Z</time>
      </trkpt>
      <trkpt lat="46.17178" lon="6.64045">
        <ele>1612</ele>
        <time>2022-07-31T08:56:50Z</time>
      </trkpt>
      <trkpt lat="46.17178" lon="6.64045">
        <ele>1612</ele>
        <time>2022-07-31T08:56:51Z</time>
      </trkpt>
      <trkpt lat="46.17178" lon="6.64044">
        <ele>1612</ele>
        <time>2022-07-31T08:56:52Z</time>
      </trkpt>
      <trkpt lat="46.17178" lon="6.64044">
        <ele>1612</ele>
        <time>2022-07-31T08:56:53Z</time>
      </trkpt>
      <trkpt lat="46.17178" lon="6.64044">
        <ele>1612</ele>
        <time>2022-07-31T08:56:54Z</time>
      </trkpt>
      <trkpt lat="46.17178" lon="6.64044">
        <ele>1613</ele>
        <time>2022-07-31T08:56:55Z</time>
      </trkpt>
      <trkpt lat="46.17178" lon="6.64043">
        <ele>1613</ele>
        <time>2022-07-31T08:56:56Z</time>
      </trkpt>
      <trkpt lat="46.17178" lon="6.64044">
        <ele>1613</ele>
        <time>2022-07-31T08:56:57Z</time>
      </trkpt>
      <trkpt lat="46.17178" lon="6.64044">
        <ele>1613</ele>
        <time>2022-07-31T08:56:58Z</time>
      </trkpt>
      <trkpt lat="46.17178" lon="6.64044">
        <ele>1613</ele>
        <time>2022-07-31T08:56:59Z</time>
      </trkpt>
      <trkpt lat="46.17178" lon="6.64044">
        <ele>1613</ele>
        <time>2022-07-31T08:57:00Z</time>
      </trkpt>
      <trkpt lat="46.17178" lon="6.64044">
        <ele>1613</ele>
        <time>2022-07-31T08:57:01Z</time>
      </trkpt>
      <trkpt lat="46.17178" lon="6.64043">
        <ele>1613</ele>
        <time>2022-07-31T08:57:02Z</time>
      </trkpt>
      <trkpt lat="46.17178" lon="6.64043">
        <ele>1614</ele>
        <time>2022-07-31T08:57:03Z</time>
      </trkpt>
      <trkpt lat="46.17178" lon="6.64043">
        <ele>1614</ele>
        <time>2022-07-31T08:57:04Z</time>
      </trkpt>
      <trkpt lat="46.17178" lon="6.64043">
        <ele>1614</ele>
        <time>2022-07-31T08:57:05Z</time>
      </trkpt>
      <trkpt lat="46.17178" lon="6.64043">
        <ele>1614</ele>
        <time>2022-07-31T08:57:06Z</time>
      </trkpt>
      <trkpt lat="46.17178" lon="6.64044">
        <ele>1614</ele>
        <time>2022-07-31T08:57:07Z</time>
      </trkpt>
      <trkpt lat="46.17178" lon="6.64043">
        <ele>1614</ele>
        <time>2022-07-31T08:57:08Z</time>
      </trkpt>
      <trkpt lat="46.17179" lon="6.64043">
        <ele>1614</ele>
        <time>2022-07-31T08:57:09Z</time>
      </trkpt>
      <trkpt lat="46.17179" lon="6.64043">
        <ele>1615</ele>
        <time>2022-07-31T08:57:10Z</time>
      </trkpt>
      <trkpt lat="46.17179" lon="6.64043">
        <ele>1615</ele>
        <time>2022-07-31T08:57:11Z</time>
      </trkpt>
      <trkpt lat="46.17179" lon="6.64043">
        <ele>1615</ele>
        <time>2022-07-31T08:57:12Z</time>
      </trkpt>
      <trkpt lat="46.1718" lon="6.64043">
        <ele>1615</ele>
        <time>2022-07-31T08:57:13Z</time>
      </trkpt>
      <trkpt lat="46.17179" lon="6.64043">
        <ele>1615</ele>
        <time>2022-07-31T08:57:14Z</time>
      </trkpt>
      <trkpt lat="46.17179" lon="6.64043">
        <ele>1615</ele>
        <time>2022-07-31T08:57:15Z</time>
      </trkpt>
      <trkpt lat="46.17179" lon="6.64042">
        <ele>1615</ele>
        <time>2022-07-31T08:57:16Z</time>
      </trkpt>
      <trkpt lat="46.17178" lon="6.64041">
        <ele>1615</ele>
        <time>2022-07-31T08:57:17Z</time>
      </trkpt>
      <trkpt lat="46.17178" lon="6.6404">
        <ele>1615</ele>
        <time>2022-07-31T08:57:18Z</time>
      </trkpt>
      <trkpt lat="46.17178" lon="6.64041">
        <ele>1615</ele>
        <time>2022-07-31T08:57:19Z</time>
      </trkpt>
      <trkpt lat="46.17178" lon="6.64041">
        <ele>1615</ele>
        <time>2022-07-31T08:57:20Z</time>
      </trkpt>
      <trkpt lat="46.17178" lon="6.64041">
        <ele>1615</ele>
        <time>2022-07-31T08:57:21Z</time>
      </trkpt>
      <trkpt lat="46.17178" lon="6.64042">
        <ele>1615</ele>
        <time>2022-07-31T08:57:22Z</time>
      </trkpt>
      <trkpt lat="46.17178" lon="6.64042">
        <ele>1616</ele>
        <time>2022-07-31T08:57:23Z</time>
      </trkpt>
      <trkpt lat="46.17178" lon="6.64042">
        <ele>1616</ele>
        <time>2022-07-31T08:57:24Z</time>
      </trkpt>
      <trkpt lat="46.17177" lon="6.64042">
        <ele>1616</ele>
        <time>2022-07-31T08:57:25Z</time>
      </trkpt>
      <trkpt lat="46.17177" lon="6.64043">
        <ele>1616</ele>
        <time>2022-07-31T08:57:26Z</time>
      </trkpt>
      <trkpt lat="46.17177" lon="6.64043">
        <ele>1616</ele>
        <time>2022-07-31T08:57:27Z</time>
      </trkpt>
      <trkpt lat="46.17177" lon="6.64043">
        <ele>1616</ele>
        <time>2022-07-31T08:57:28Z</time>
      </trkpt>
      <trkpt lat="46.17176" lon="6.64043">
        <ele>1616</ele>
        <time>2022-07-31T08:57:29Z</time>
      </trkpt>
      <trkpt lat="46.17176" lon="6.64043">
        <ele>1616</ele>
        <time>2022-07-31T08:57:30Z</time>
      </trkpt>
      <trkpt lat="46.17176" lon="6.64044">
        <ele>1616</ele>
        <time>2022-07-31T08:57:31Z</time>
      </trkpt>
      <trkpt lat="46.17176" lon="6.64044">
        <ele>1616</ele>
        <time>2022-07-31T08:57:32Z</time>
      </trkpt>
      <trkpt lat="46.17176" lon="6.64044">
        <ele>1616</ele>
        <time>2022-07-31T08:57:33Z</time>
      </trkpt>
      <trkpt lat="46.17176" lon="6.64044">
        <ele>1616</ele>
        <time>2022-07-31T08:57:34Z</time>
      </trkpt>
      <trkpt lat="46.17176" lon="6.64044">
        <ele>1617</ele>
        <time>2022-07-31T08:57:35Z</time>
      </trkpt>
      <trkpt lat="46.17175" lon="6.64044">
        <ele>1617</ele>
        <time>2022-07-31T08:57:36Z</time>
      </trkpt>
      <trkpt lat="46.17174" lon="6.64044">
        <ele>1617</ele>
        <time>2022-07-31T08:57:37Z</time>
      </trkpt>
      <trkpt lat="46.17174" lon="6.64044">
        <ele>1617</ele>
        <time>2022-07-31T08:57:38Z</time>
      </trkpt>
      <trkpt lat="46.17174" lon="6.64044">
        <ele>1617</ele>
        <time>2022-07-31T08:57:39Z</time>
      </trkpt>
      <trkpt lat="46.17174" lon="6.64044">
        <ele>1617</ele>
        <time>2022-07-31T08:57:40Z</time>
      </trkpt>
      <trkpt lat="46.17174" lon="6.64044">
        <ele>1617</ele>
        <time>2022-07-31T08:57:41Z</time>
      </trkpt>
      <trkpt lat="46.17174" lon="6.64044">
        <ele>1617</ele>
        <time>2022-07-31T08:57:42Z</time>
      </trkpt>
      <trkpt lat="46.17174" lon="6.64044">
        <ele>1617</ele>
        <time>2022-07-31T08:57:43Z</time>
      </trkpt>
      <trkpt lat="46.17174" lon="6.64044">
        <ele>1617</ele>
        <time>2022-07-31T08:57:44Z</time>
      </trkpt>
      <trkpt lat="46.17174" lon="6.64044">
        <ele>1617</ele>
        <time>2022-07-31T08:57:45Z</time>
      </trkpt>
      <trkpt lat="46.17174" lon="6.64044">
        <ele>1617</ele>
        <time>2022-07-31T08:57:46Z</time>
      </trkpt>
      <trkpt lat="46.17173" lon="6.64044">
        <ele>1617</ele>
        <time>2022-07-31T08:57:47Z</time>
      </trkpt>
      <trkpt lat="46.17173" lon="6.64044">
        <ele>1617</ele>
        <time>2022-07-31T08:57:48Z</time>
      </trkpt>
      <trkpt lat="46.17173" lon="6.64044">
        <ele>1618</ele>
        <time>2022-07-31T08:57:49Z</time>
      </trkpt>
      <trkpt lat="46.17173" lon="6.64044">
        <ele>1618</ele>
        <time>2022-07-31T08:57:50Z</time>
      </trkpt>
      <trkpt lat="46.17173" lon="6.64044">
        <ele>1618</ele>
        <time>2022-07-31T08:57:51Z</time>
      </trkpt>
      <trkpt lat="46.17172" lon="6.64044">
        <ele>1618</ele>
        <time>2022-07-31T08:57:52Z</time>
      </trkpt>
      <trkpt lat="46.17172" lon="6.64044">
        <ele>1618</ele>
        <time>2022-07-31T08:57:53Z</time>
      </trkpt>
      <trkpt lat="46.17172" lon="6.64044">
        <ele>1618</ele>
        <time>2022-07-31T08:57:54Z</time>
      </trkpt>
      <trkpt lat="46.17172" lon="6.64044">
        <ele>1618</ele>
        <time>2022-07-31T08:57:55Z</time>
      </trkpt>
      <trkpt lat="46.17172" lon="6.64044">
        <ele>1618</ele>
        <time>2022-07-31T08:57:56Z</time>
      </trkpt>
      <trkpt lat="46.17172" lon="6.64044">
        <ele>1618</ele>
        <time>2022-07-31T08:57:57Z</time>
      </trkpt>
      <trkpt lat="46.17172" lon="6.64044">
        <ele>1618</ele>
        <time>2022-07-31T08:57:58Z</time>
      </trkpt>
      <trkpt lat="46.17172" lon="6.64044">
        <ele>1618</ele>
        <time>2022-07-31T08:57:59Z</time>
      </trkpt>
      <trkpt lat="46.17172" lon="6.64044">
        <ele>1618</ele>
        <time>2022-07-31T08:58:00Z</time>
      </trkpt>
      <trkpt lat="46.17172" lon="6.64044">
        <ele>1618</ele>
        <time>2022-07-31T08:58:01Z</time>
      </trkpt>
      <trkpt lat="46.17172" lon="6.64044">
        <ele>1618</ele>
        <time>2022-07-31T08:58:02Z</time>
      </trkpt>
      <trkpt lat="46.17172" lon="6.64044">
        <ele>1618</ele>
        <time>2022-07-31T08:58:03Z</time>
      </trkpt>
      <trkpt lat="46.17172" lon="6.64044">
        <ele>1618</ele>
        <time>2022-07-31T08:58:04Z</time>
      </trkpt>
      <trkpt lat="46.17172" lon="6.64044">
        <ele>1618</ele>
        <time>2022-07-31T08:58:05Z</time>
      </trkpt>
      <trkpt lat="46.17172" lon="6.64044">
        <ele>1618</ele>
        <time>2022-07-31T08:58:06Z</time>
      </trkpt>
      <trkpt lat="46.17172" lon="6.64044">
        <ele>1618</ele>
        <time>2022-07-31T08:58:07Z</time>
      </trkpt>
      <trkpt lat="46.17172" lon="6.64044">
        <ele>1618</ele>
        <time>2022-07-31T08:58:08Z</time>
      </trkpt>
      <trkpt lat="46.17172" lon="6.64044">
        <ele>1618</ele>
        <time>2022-07-31T08:58:09Z</time>
      </trkpt>
      <trkpt lat="46.17172" lon="6.64043">
        <ele>1618</ele>
        <time>2022-07-31T08:58:10Z</time>
      </trkpt>
      <trkpt lat="46.17172" lon="6.64043">
        <ele>1618</ele>
        <time>2022-07-31T08:58:11Z</time>
      </trkpt>
      <trkpt lat="46.17172" lon="6.64043">
        <ele>1618</ele>
        <time>2022-07-31T08:58:12Z</time>
      </trkpt>
      <trkpt lat="46.17172" lon="6.64043">
        <ele>1618</ele>
        <time>2022-07-31T08:58:13Z</time>
      </trkpt>
      <trkpt lat="46.17172" lon="6.64043">
        <ele>1619</ele>
        <time>2022-07-31T08:58:14Z</time>
      </trkpt>
      <trkpt lat="46.17172" lon="6.64043">
        <ele>1619</ele>
        <time>2022-07-31T08:58:15Z</time>
      </trkpt>
      <trkpt lat="46.17172" lon="6.64043">
        <ele>1619</ele>
        <time>2022-07-31T08:58:16Z</time>
      </trkpt>
      <trkpt lat="46.17172" lon="6.64043">
        <ele>1619</ele>
        <time>2022-07-31T08:58:17Z</time>
      </trkpt>
      <trkpt lat="46.17172" lon="6.64043">
        <ele>1619</ele>
        <time>2022-07-31T08:58:18Z</time>
      </trkpt>
      <trkpt lat="46.17172" lon="6.64044">
        <ele>1619</ele>
        <time>2022-07-31T08:58:19Z</time>
      </trkpt>
      <trkpt lat="46.17173" lon="6.64044">
        <ele>1619</ele>
        <time>2022-07-31T08:58:20Z</time>
      </trkpt>
      <trkpt lat="46.17173" lon="6.64044">
        <ele>1619</ele>
        <time>2022-07-31T08:58:21Z</time>
      </trkpt>
      <trkpt lat="46.17173" lon="6.64044">
        <ele>1619</ele>
        <time>2022-07-31T08:58:22Z</time>
      </trkpt>
      <trkpt lat="46.17172" lon="6.64044">
        <ele>1619</ele>
        <time>2022-07-31T08:58:23Z</time>
      </trkpt>
      <trkpt lat="46.17172" lon="6.64044">
        <ele>1619</ele>
        <time>2022-07-31T08:58:24Z</time>
      </trkpt>
      <trkpt lat="46.17172" lon="6.64044">
        <ele>1619</ele>
        <time>2022-07-31T08:58:25Z</time>
      </trkpt>
      <trkpt lat="46.17172" lon="6.64044">
        <ele>1619</ele>
        <time>2022-07-31T08:58:26Z</time>
      </trkpt>
      <trkpt lat="46.17172" lon="6.64043">
        <ele>1619</ele>
        <time>2022-07-31T08:58:27Z</time>
      </trkpt>
      <trkpt lat="46.17172" lon="6.64043">
        <ele>1619</ele>
        <time>2022-07-31T08:58:28Z</time>
      </trkpt>
      <trkpt lat="46.17172" lon="6.64043">
        <ele>1619</ele>
        <time>2022-07-31T08:58:29Z</time>
      </trkpt>
      <trkpt lat="46.17172" lon="6.64043">
        <ele>1619</ele>
        <time>2022-07-31T08:58:30Z</time>
      </trkpt>
      <trkpt lat="46.17172" lon="6.64043">
        <ele>1619</ele>
        <time>2022-07-31T08:58:31Z</time>
      </trkpt>
      <trkpt lat="46.17172" lon="6.64043">
        <ele>1619</ele>
        <time>2022-07-31T08:58:32Z</time>
      </trkpt>
      <trkpt lat="46.17172" lon="6.64043">
        <ele>1619</ele>
        <time>2022-07-31T08:58:33Z</time>
      </trkpt>
      <trkpt lat="46.17172" lon="6.64043">
        <ele>1619</ele>
        <time>2022-07-31T08:58:34Z</time>
      </trkpt>
      <trkpt lat="46.17172" lon="6.64043">
        <ele>1619</ele>
        <time>2022-07-31T08:58:35Z</time>
      </trkpt>
      <trkpt lat="46.17172" lon="6.64043">
        <ele>1619</ele>
        <time>2022-07-31T08:58:36Z</time>
      </trkpt>
      <trkpt lat="46.17172" lon="6.64043">
        <ele>1619</ele>
        <time>2022-07-31T08:58:37Z</time>
      </trkpt>
      <trkpt lat="46.17172" lon="6.64043">
        <ele>1619</ele>
        <time>2022-07-31T08:58:38Z</time>
      </trkpt>
      <trkpt lat="46.17172" lon="6.64043">
        <ele>1619</ele>
        <time>2022-07-31T08:58:39Z</time>
      </trkpt>
      <trkpt lat="46.17172" lon="6.64043">
        <ele>1619</ele>
        <time>2022-07-31T08:58:40Z</time>
      </trkpt>
      <trkpt lat="46.17172" lon="6.64043">
        <ele>1619</ele>
        <time>2022-07-31T08:58:41Z</time>
      </trkpt>
      <trkpt lat="46.17172" lon="6.64043">
        <ele>1619</ele>
        <time>2022-07-31T08:58:42Z</time>
      </trkpt>
      <trkpt lat="46.17173" lon="6.64043">
        <ele>1619</ele>
        <time>2022-07-31T08:58:43Z</time>
      </trkpt>
      <trkpt lat="46.17173" lon="6.64043">
        <ele>1619</ele>
        <time>2022-07-31T08:58:44Z</time>
      </trkpt>
      <trkpt lat="46.17173" lon="6.64043">
        <ele>1619</ele>
        <time>2022-07-31T08:58:45Z</time>
      </trkpt>
      <trkpt lat="46.17173" lon="6.64043">
        <ele>1619</ele>
        <time>2022-07-31T08:58:46Z</time>
      </trkpt>
      <trkpt lat="46.17172" lon="6.64043">
        <ele>1619</ele>
        <time>2022-07-31T08:58:47Z</time>
      </trkpt>
      <trkpt lat="46.17172" lon="6.64043">
        <ele>1619</ele>
        <time>2022-07-31T08:58:48Z</time>
      </trkpt>
      <trkpt lat="46.17172" lon="6.64043">
        <ele>1619</ele>
        <time>2022-07-31T08:58:49Z</time>
      </trkpt>
      <trkpt lat="46.17172" lon="6.64043">
        <ele>1619</ele>
        <time>2022-07-31T08:58:50Z</time>
      </trkpt>
      <trkpt lat="46.17172" lon="6.64043">
        <ele>1619</ele>
        <time>2022-07-31T08:58:51Z</time>
      </trkpt>
      <trkpt lat="46.17172" lon="6.64043">
        <ele>1619</ele>
        <time>2022-07-31T08:58:52Z</time>
      </trkpt>
      <trkpt lat="46.17173" lon="6.64043">
        <ele>1619</ele>
        <time>2022-07-31T08:58:53Z</time>
      </trkpt>
      <trkpt lat="46.17173" lon="6.64043">
        <ele>1620</ele>
        <time>2022-07-31T08:58:54Z</time>
      </trkpt>
      <trkpt lat="46.17173" lon="6.64043">
        <ele>1620</ele>
        <time>2022-07-31T08:58:55Z</time>
      </trkpt>
      <trkpt lat="46.17173" lon="6.64043">
        <ele>1620</ele>
        <time>2022-07-31T08:58:56Z</time>
      </trkpt>
      <trkpt lat="46.17173" lon="6.64043">
        <ele>1620</ele>
        <time>2022-07-31T08:58:57Z</time>
      </trkpt>
      <trkpt lat="46.17173" lon="6.64043">
        <ele>1620</ele>
        <time>2022-07-31T08:58:58Z</time>
      </trkpt>
      <trkpt lat="46.17173" lon="6.64043">
        <ele>1620</ele>
        <time>2022-07-31T08:58:59Z</time>
      </trkpt>
      <trkpt lat="46.17173" lon="6.64043">
        <ele>1620</ele>
        <time>2022-07-31T08:59:00Z</time>
      </trkpt>
      <trkpt lat="46.17173" lon="6.64043">
        <ele>1620</ele>
        <time>2022-07-31T08:59:01Z</time>
      </trkpt>
      <trkpt lat="46.17174" lon="6.64043">
        <ele>1620</ele>
        <time>2022-07-31T08:59:02Z</time>
      </trkpt>
      <trkpt lat="46.17174" lon="6.64043">
        <ele>1620</ele>
        <time>2022-07-31T08:59:03Z</time>
      </trkpt>
      <trkpt lat="46.17174" lon="6.64043">
        <ele>1620</ele>
        <time>2022-07-31T08:59:04Z</time>
      </trkpt>
      <trkpt lat="46.17174" lon="6.64043">
        <ele>1620</ele>
        <time>2022-07-31T08:59:05Z</time>
      </trkpt>
      <trkpt lat="46.17174" lon="6.64043">
        <ele>1620</ele>
        <time>2022-07-31T08:59:06Z</time>
      </trkpt>
      <trkpt lat="46.17174" lon="6.64043">
        <ele>1620</ele>
        <time>2022-07-31T08:59:07Z</time>
      </trkpt>
      <trkpt lat="46.17174" lon="6.64043">
        <ele>1620</ele>
        <time>2022-07-31T08:59:08Z</time>
      </trkpt>
      <trkpt lat="46.17174" lon="6.64043">
        <ele>1620</ele>
        <time>2022-07-31T08:59:09Z</time>
      </trkpt>
      <trkpt lat="46.17174" lon="6.64043">
        <ele>1620</ele>
        <time>2022-07-31T08:59:10Z</time>
      </trkpt>
      <trkpt lat="46.17174" lon="6.64043">
        <ele>1620</ele>
        <time>2022-07-31T08:59:11Z</time>
      </trkpt>
      <trkpt lat="46.17174" lon="6.64043">
        <ele>1620</ele>
        <time>2022-07-31T08:59:12Z</time>
      </trkpt>
      <trkpt lat="46.17174" lon="6.64043">
        <ele>1620</ele>
        <time>2022-07-31T08:59:13Z</time>
      </trkpt>
      <trkpt lat="46.17174" lon="6.64043">
        <ele>1620</ele>
        <time>2022-07-31T08:59:14Z</time>
      </trkpt>
      <trkpt lat="46.17174" lon="6.64043">
        <ele>1620</ele>
        <time>2022-07-31T08:59:15Z</time>
      </trkpt>
      <trkpt lat="46.17174" lon="6.64043">
        <ele>1620</ele>
        <time>2022-07-31T08:59:16Z</time>
      </trkpt>
      <trkpt lat="46.17174" lon="6.64042">
        <ele>1620</ele>
        <time>2022-07-31T08:59:17Z</time>
      </trkpt>
      <trkpt lat="46.17174" lon="6.64042">
        <ele>1620</ele>
        <time>2022-07-31T08:59:18Z</time>
      </trkpt>
      <trkpt lat="46.17174" lon="6.64042">
        <ele>1620</ele>
        <time>2022-07-31T08:59:19Z</time>
      </trkpt>
      <trkpt lat="46.17174" lon="6.64042">
        <ele>1620</ele>
        <time>2022-07-31T08:59:20Z</time>
      </trkpt>
      <trkpt lat="46.17174" lon="6.64042">
        <ele>1620</ele>
        <time>2022-07-31T08:59:21Z</time>
      </trkpt>
      <trkpt lat="46.17174" lon="6.64042">
        <ele>1620</ele>
        <time>2022-07-31T08:59:22Z</time>
      </trkpt>
      <trkpt lat="46.17174" lon="6.64042">
        <ele>1620</ele>
        <time>2022-07-31T08:59:23Z</time>
      </trkpt>
      <trkpt lat="46.17174" lon="6.64042">
        <ele>1620</ele>
        <time>2022-07-31T08:59:24Z</time>
      </trkpt>
      <trkpt lat="46.17174" lon="6.64042">
        <ele>1620</ele>
        <time>2022-07-31T08:59:25Z</time>
      </trkpt>
      <trkpt lat="46.17174" lon="6.64042">
        <ele>1620</ele>
        <time>2022-07-31T08:59:26Z</time>
      </trkpt>
      <trkpt lat="46.17174" lon="6.64042">
        <ele>1620</ele>
        <time>2022-07-31T08:59:27Z</time>
      </trkpt>
      <trkpt lat="46.17174" lon="6.64042">
        <ele>1620</ele>
        <time>2022-07-31T08:59:28Z</time>
      </trkpt>
      <trkpt lat="46.17174" lon="6.64042">
        <ele>1620</ele>
        <time>2022-07-31T08:59:29Z</time>
      </trkpt>
      <trkpt lat="46.17174" lon="6.64042">
        <ele>1620</ele>
        <time>2022-07-31T08:59:30Z</time>
      </trkpt>
      <trkpt lat="46.17174" lon="6.64042">
        <ele>1620</ele>
        <time>2022-07-31T08:59:31Z</time>
      </trkpt>
      <trkpt lat="46.17174" lon="6.64042">
        <ele>1620</ele>
        <time>2022-07-31T08:59:32Z</time>
      </trkpt>
      <trkpt lat="46.17174" lon="6.64042">
        <ele>1620</ele>
        <time>2022-07-31T08:59:33Z</time>
      </trkpt>
      <trkpt lat="46.17174" lon="6.64042">
        <ele>1620</ele>
        <time>2022-07-31T08:59:34Z</time>
      </trkpt>
      <trkpt lat="46.17174" lon="6.64042">
        <ele>1620</ele>
        <time>2022-07-31T08:59:35Z</time>
      </trkpt>
      <trkpt lat="46.17174" lon="6.64042">
        <ele>1620</ele>
        <time>2022-07-31T08:59:36Z</time>
      </trkpt>
      <trkpt lat="46.17174" lon="6.64042">
        <ele>1620</ele>
        <time>2022-07-31T08:59:37Z</time>
      </trkpt>
      <trkpt lat="46.17174" lon="6.64042">
        <ele>1620</ele>
        <time>2022-07-31T08:59:38Z</time>
      </trkpt>
      <trkpt lat="46.17174" lon="6.64042">
        <ele>1620</ele>
        <time>2022-07-31T08:59:39Z</time>
      </trkpt>
      <trkpt lat="46.17174" lon="6.64042">
        <ele>1620</ele>
        <time>2022-07-31T08:59:40Z</time>
      </trkpt>
      <trkpt lat="46.17174" lon="6.64042">
        <ele>1620</ele>
        <time>2022-07-31T08:59:41Z</time>
      </trkpt>
      <trkpt lat="46.17174" lon="6.64042">
        <ele>1620</ele>
        <time>2022-07-31T08:59:42Z</time>
      </trkpt>
      <trkpt lat="46.17174" lon="6.64042">
        <ele>1620</ele>
        <time>2022-07-31T08:59:43Z</time>
      </trkpt>
      <trkpt lat="46.17174" lon="6.64042">
        <ele>1620</ele>
        <time>2022-07-31T08:59:44Z</time>
      </trkpt>
      <trkpt lat="46.17174" lon="6.64042">
        <ele>1620</ele>
        <time>2022-07-31T08:59:45Z</time>
      </trkpt>
      <trkpt lat="46.17174" lon="6.64042">
        <ele>1620</ele>
        <time>2022-07-31T08:59:46Z</time>
      </trkpt>
      <trkpt lat="46.17174" lon="6.64042">
        <ele>1620</ele>
        <time>2022-07-31T08:59:47Z</time>
      </trkpt>
      <trkpt lat="46.17174" lon="6.64042">
        <ele>1620</ele>
        <time>2022-07-31T08:59:48Z</time>
      </trkpt>
      <trkpt lat="46.17174" lon="6.64042">
        <ele>1620</ele>
        <time>2022-07-31T08:59:49Z</time>
      </trkpt>
      <trkpt lat="46.17174" lon="6.64043">
        <ele>1620</ele>
        <time>2022-07-31T08:59:50Z</time>
      </trkpt>
      <trkpt lat="46.17174" lon="6.64044">
        <ele>1620</ele>
        <time>2022-07-31T08:59:51Z</time>
      </trkpt>
      <trkpt lat="46.17174" lon="6.64045">
        <ele>1620</ele>
        <time>2022-07-31T08:59:52Z</time>
      </trkpt>
      <trkpt lat="46.17174" lon="6.64046">
        <ele>1620</ele>
        <time>2022-07-31T08:59:53Z</time>
      </trkpt>
      <trkpt lat="46.17174" lon="6.64048">
        <ele>1620</ele>
        <time>2022-07-31T08:59:54Z</time>
      </trkpt>
      <trkpt lat="46.17174" lon="6.64049">
        <ele>1620</ele>
        <time>2022-07-31T08:59:55Z</time>
      </trkpt>
      <trkpt lat="46.17174" lon="6.6405">
        <ele>1620</ele>
        <time>2022-07-31T08:59:56Z</time>
      </trkpt>
      <trkpt lat="46.17174" lon="6.64051">
        <ele>1620</ele>
        <time>2022-07-31T08:59:57Z</time>
      </trkpt>
      <trkpt lat="46.17174" lon="6.64052">
        <ele>1621</ele>
        <time>2022-07-31T08:59:58Z</time>
      </trkpt>
      <trkpt lat="46.17174" lon="6.64053">
        <ele>1621</ele>
        <time>2022-07-31T08:59:59Z</time>
      </trkpt>
      <trkpt lat="46.17174" lon="6.64054">
        <ele>1621</ele>
        <time>2022-07-31T09:00:00Z</time>
      </trkpt>
      <trkpt lat="46.17174" lon="6.64056">
        <ele>1621</ele>
        <time>2022-07-31T09:00:01Z</time>
      </trkpt>
      <trkpt lat="46.17173" lon="6.64056">
        <ele>1621</ele>
        <time>2022-07-31T09:00:02Z</time>
      </trkpt>
      <trkpt lat="46.17173" lon="6.64057">
        <ele>1621</ele>
        <time>2022-07-31T09:00:03Z</time>
      </trkpt>
      <trkpt lat="46.17172" lon="6.64058">
        <ele>1621</ele>
        <time>2022-07-31T09:00:04Z</time>
      </trkpt>
      <trkpt lat="46.17172" lon="6.64059">
        <ele>1621</ele>
        <time>2022-07-31T09:00:05Z</time>
      </trkpt>
      <trkpt lat="46.17172" lon="6.6406">
        <ele>1622</ele>
        <time>2022-07-31T09:00:06Z</time>
      </trkpt>
      <trkpt lat="46.17172" lon="6.64061">
        <ele>1622</ele>
        <time>2022-07-31T09:00:07Z</time>
      </trkpt>
      <trkpt lat="46.17172" lon="6.64062">
        <ele>1622</ele>
        <time>2022-07-31T09:00:08Z</time>
      </trkpt>
      <trkpt lat="46.17172" lon="6.64064">
        <ele>1622</ele>
        <time>2022-07-31T09:00:09Z</time>
      </trkpt>
      <trkpt lat="46.17172" lon="6.64065">
        <ele>1623</ele>
        <time>2022-07-31T09:00:10Z</time>
      </trkpt>
      <trkpt lat="46.17172" lon="6.64066">
        <ele>1623</ele>
        <time>2022-07-31T09:00:11Z</time>
      </trkpt>
      <trkpt lat="46.17172" lon="6.64066">
        <ele>1623</ele>
        <time>2022-07-31T09:00:12Z</time>
      </trkpt>
      <trkpt lat="46.17172" lon="6.64067">
        <ele>1623</ele>
        <time>2022-07-31T09:00:13Z</time>
      </trkpt>
      <trkpt lat="46.17171" lon="6.64068">
        <ele>1624</ele>
        <time>2022-07-31T09:00:14Z</time>
      </trkpt>
      <trkpt lat="46.17172" lon="6.64068">
        <ele>1624</ele>
        <time>2022-07-31T09:00:15Z</time>
      </trkpt>
      <trkpt lat="46.17172" lon="6.64069">
        <ele>1624</ele>
        <time>2022-07-31T09:00:16Z</time>
      </trkpt>
      <trkpt lat="46.17172" lon="6.6407">
        <ele>1624</ele>
        <time>2022-07-31T09:00:17Z</time>
      </trkpt>
      <trkpt lat="46.17172" lon="6.64071">
        <ele>1624</ele>
        <time>2022-07-31T09:00:18Z</time>
      </trkpt>
      <trkpt lat="46.17172" lon="6.64073">
        <ele>1624</ele>
        <time>2022-07-31T09:00:19Z</time>
      </trkpt>
      <trkpt lat="46.17172" lon="6.64074">
        <ele>1625</ele>
        <time>2022-07-31T09:00:20Z</time>
      </trkpt>
      <trkpt lat="46.17172" lon="6.64076">
        <ele>1625</ele>
        <time>2022-07-31T09:00:21Z</time>
      </trkpt>
      <trkpt lat="46.17173" lon="6.64077">
        <ele>1625</ele>
        <time>2022-07-31T09:00:22Z</time>
      </trkpt>
      <trkpt lat="46.17172" lon="6.64078">
        <ele>1625</ele>
        <time>2022-07-31T09:00:23Z</time>
      </trkpt>
      <trkpt lat="46.17172" lon="6.64078">
        <ele>1625</ele>
        <time>2022-07-31T09:00:24Z</time>
      </trkpt>
      <trkpt lat="46.17172" lon="6.64079">
        <ele>1625</ele>
        <time>2022-07-31T09:00:25Z</time>
      </trkpt>
      <trkpt lat="46.17172" lon="6.6408">
        <ele>1626</ele>
        <time>2022-07-31T09:00:26Z</time>
      </trkpt>
      <trkpt lat="46.17173" lon="6.64081">
        <ele>1626</ele>
        <time>2022-07-31T09:00:27Z</time>
      </trkpt>
      <trkpt lat="46.17173" lon="6.64082">
        <ele>1626</ele>
        <time>2022-07-31T09:00:28Z</time>
      </trkpt>
      <trkpt lat="46.17173" lon="6.64083">
        <ele>1626</ele>
        <time>2022-07-31T09:00:29Z</time>
      </trkpt>
      <trkpt lat="46.17172" lon="6.64084">
        <ele>1627</ele>
        <time>2022-07-31T09:00:30Z</time>
      </trkpt>
      <trkpt lat="46.17172" lon="6.64085">
        <ele>1627</ele>
        <time>2022-07-31T09:00:31Z</time>
      </trkpt>
      <trkpt lat="46.17173" lon="6.64086">
        <ele>1627</ele>
        <time>2022-07-31T09:00:32Z</time>
      </trkpt>
      <trkpt lat="46.17173" lon="6.64086">
        <ele>1627</ele>
        <time>2022-07-31T09:00:33Z</time>
      </trkpt>
      <trkpt lat="46.17173" lon="6.64086">
        <ele>1628</ele>
        <time>2022-07-31T09:00:34Z</time>
      </trkpt>
      <trkpt lat="46.17173" lon="6.64086">
        <ele>1628</ele>
        <time>2022-07-31T09:00:35Z</time>
      </trkpt>
      <trkpt lat="46.17173" lon="6.64087">
        <ele>1628</ele>
        <time>2022-07-31T09:00:36Z</time>
      </trkpt>
      <trkpt lat="46.17173" lon="6.64088">
        <ele>1628</ele>
        <time>2022-07-31T09:00:37Z</time>
      </trkpt>
      <trkpt lat="46.17173" lon="6.64088">
        <ele>1628</ele>
        <time>2022-07-31T09:00:38Z</time>
      </trkpt>
      <trkpt lat="46.17173" lon="6.64089">
        <ele>1628</ele>
        <time>2022-07-31T09:00:39Z</time>
      </trkpt>
      <trkpt lat="46.17173" lon="6.6409">
        <ele>1629</ele>
        <time>2022-07-31T09:00:40Z</time>
      </trkpt>
      <trkpt lat="46.17173" lon="6.64091">
        <ele>1629</ele>
        <time>2022-07-31T09:00:41Z</time>
      </trkpt>
      <trkpt lat="46.17173" lon="6.64091">
        <ele>1629</ele>
        <time>2022-07-31T09:00:42Z</time>
      </trkpt>
      <trkpt lat="46.17173" lon="6.64091">
        <ele>1629</ele>
        <time>2022-07-31T09:00:43Z</time>
      </trkpt>
      <trkpt lat="46.17173" lon="6.64092">
        <ele>1629</ele>
        <time>2022-07-31T09:00:44Z</time>
      </trkpt>
      <trkpt lat="46.17173" lon="6.64093">
        <ele>1630</ele>
        <time>2022-07-31T09:00:45Z</time>
      </trkpt>
      <trkpt lat="46.17173" lon="6.64094">
        <ele>1630</ele>
        <time>2022-07-31T09:00:46Z</time>
      </trkpt>
      <trkpt lat="46.17172" lon="6.64095">
        <ele>1630</ele>
        <time>2022-07-31T09:00:47Z</time>
      </trkpt>
      <trkpt lat="46.17172" lon="6.64097">
        <ele>1630</ele>
        <time>2022-07-31T09:00:48Z</time>
      </trkpt>
      <trkpt lat="46.17172" lon="6.64098">
        <ele>1630</ele>
        <time>2022-07-31T09:00:49Z</time>
      </trkpt>
      <trkpt lat="46.17172" lon="6.64099">
        <ele>1630</ele>
        <time>2022-07-31T09:00:50Z</time>
      </trkpt>
      <trkpt lat="46.17171" lon="6.641">
        <ele>1630</ele>
        <time>2022-07-31T09:00:51Z</time>
      </trkpt>
      <trkpt lat="46.17171" lon="6.64101">
        <ele>1631</ele>
        <time>2022-07-31T09:00:52Z</time>
      </trkpt>
      <trkpt lat="46.17171" lon="6.64102">
        <ele>1631</ele>
        <time>2022-07-31T09:00:53Z</time>
      </trkpt>
      <trkpt lat="46.17171" lon="6.64103">
        <ele>1631</ele>
        <time>2022-07-31T09:00:54Z</time>
      </trkpt>
      <trkpt lat="46.17172" lon="6.64105">
        <ele>1631</ele>
        <time>2022-07-31T09:00:55Z</time>
      </trkpt>
      <trkpt lat="46.17172" lon="6.64105">
        <ele>1631</ele>
        <time>2022-07-31T09:00:56Z</time>
      </trkpt>
      <trkpt lat="46.17172" lon="6.64106">
        <ele>1631</ele>
        <time>2022-07-31T09:00:57Z</time>
      </trkpt>
      <trkpt lat="46.17172" lon="6.64107">
        <ele>1631</ele>
        <time>2022-07-31T09:00:58Z</time>
      </trkpt>
      <trkpt lat="46.17172" lon="6.64108">
        <ele>1632</ele>
        <time>2022-07-31T09:00:59Z</time>
      </trkpt>
      <trkpt lat="46.17171" lon="6.64108">
        <ele>1632</ele>
        <time>2022-07-31T09:01:00Z</time>
      </trkpt>
      <trkpt lat="46.1717" lon="6.6411">
        <ele>1632</ele>
        <time>2022-07-31T09:01:01Z</time>
      </trkpt>
      <trkpt lat="46.1717" lon="6.64111">
        <ele>1632</ele>
        <time>2022-07-31T09:01:02Z</time>
      </trkpt>
      <trkpt lat="46.17169" lon="6.64111">
        <ele>1632</ele>
        <time>2022-07-31T09:01:03Z</time>
      </trkpt>
      <trkpt lat="46.17169" lon="6.64112">
        <ele>1632</ele>
        <time>2022-07-31T09:01:04Z</time>
      </trkpt>
      <trkpt lat="46.17168" lon="6.64113">
        <ele>1632</ele>
        <time>2022-07-31T09:01:05Z</time>
      </trkpt>
      <trkpt lat="46.17168" lon="6.64114">
        <ele>1632</ele>
        <time>2022-07-31T09:01:06Z</time>
      </trkpt>
      <trkpt lat="46.17168" lon="6.64114">
        <ele>1632</ele>
        <time>2022-07-31T09:01:07Z</time>
      </trkpt>
      <trkpt lat="46.17169" lon="6.64116">
        <ele>1632</ele>
        <time>2022-07-31T09:01:08Z</time>
      </trkpt>
      <trkpt lat="46.17169" lon="6.64116">
        <ele>1632</ele>
        <time>2022-07-31T09:01:09Z</time>
      </trkpt>
      <trkpt lat="46.17168" lon="6.64118">
        <ele>1633</ele>
        <time>2022-07-31T09:01:10Z</time>
      </trkpt>
      <trkpt lat="46.17168" lon="6.64119">
        <ele>1633</ele>
        <time>2022-07-31T09:01:11Z</time>
      </trkpt>
      <trkpt lat="46.17168" lon="6.6412">
        <ele>1633</ele>
        <time>2022-07-31T09:01:12Z</time>
      </trkpt>
      <trkpt lat="46.17168" lon="6.64121">
        <ele>1633</ele>
        <time>2022-07-31T09:01:13Z</time>
      </trkpt>
      <trkpt lat="46.17168" lon="6.64121">
        <ele>1633</ele>
        <time>2022-07-31T09:01:14Z</time>
      </trkpt>
      <trkpt lat="46.17167" lon="6.64122">
        <ele>1633</ele>
        <time>2022-07-31T09:01:15Z</time>
      </trkpt>
      <trkpt lat="46.17167" lon="6.64122">
        <ele>1634</ele>
        <time>2022-07-31T09:01:16Z</time>
      </trkpt>
      <trkpt lat="46.17167" lon="6.64123">
        <ele>1634</ele>
        <time>2022-07-31T09:01:17Z</time>
      </trkpt>
      <trkpt lat="46.17167" lon="6.64124">
        <ele>1634</ele>
        <time>2022-07-31T09:01:18Z</time>
      </trkpt>
      <trkpt lat="46.17167" lon="6.64125">
        <ele>1634</ele>
        <time>2022-07-31T09:01:19Z</time>
      </trkpt>
      <trkpt lat="46.17167" lon="6.64126">
        <ele>1634</ele>
        <time>2022-07-31T09:01:20Z</time>
      </trkpt>
      <trkpt lat="46.17166" lon="6.64127">
        <ele>1634</ele>
        <time>2022-07-31T09:01:21Z</time>
      </trkpt>
      <trkpt lat="46.17166" lon="6.64128">
        <ele>1635</ele>
        <time>2022-07-31T09:01:22Z</time>
      </trkpt>
      <trkpt lat="46.17166" lon="6.6413">
        <ele>1635</ele>
        <time>2022-07-31T09:01:23Z</time>
      </trkpt>
      <trkpt lat="46.17166" lon="6.64131">
        <ele>1635</ele>
        <time>2022-07-31T09:01:24Z</time>
      </trkpt>
      <trkpt lat="46.17167" lon="6.64132">
        <ele>1635</ele>
        <time>2022-07-31T09:01:25Z</time>
      </trkpt>
      <trkpt lat="46.17167" lon="6.64134">
        <ele>1636</ele>
        <time>2022-07-31T09:01:26Z</time>
      </trkpt>
      <trkpt lat="46.17167" lon="6.64134">
        <ele>1636</ele>
        <time>2022-07-31T09:01:27Z</time>
      </trkpt>
      <trkpt lat="46.17167" lon="6.64135">
        <ele>1636</ele>
        <time>2022-07-31T09:01:28Z</time>
      </trkpt>
      <trkpt lat="46.17166" lon="6.64136">
        <ele>1636</ele>
        <time>2022-07-31T09:01:29Z</time>
      </trkpt>
      <trkpt lat="46.17166" lon="6.64136">
        <ele>1637</ele>
        <time>2022-07-31T09:01:30Z</time>
      </trkpt>
      <trkpt lat="46.17166" lon="6.64136">
        <ele>1637</ele>
        <time>2022-07-31T09:01:31Z</time>
      </trkpt>
      <trkpt lat="46.17166" lon="6.64137">
        <ele>1637</ele>
        <time>2022-07-31T09:01:32Z</time>
      </trkpt>
      <trkpt lat="46.17166" lon="6.64139">
        <ele>1637</ele>
        <time>2022-07-31T09:01:33Z</time>
      </trkpt>
      <trkpt lat="46.17166" lon="6.6414">
        <ele>1638</ele>
        <time>2022-07-31T09:01:34Z</time>
      </trkpt>
      <trkpt lat="46.17166" lon="6.64141">
        <ele>1638</ele>
        <time>2022-07-31T09:01:35Z</time>
      </trkpt>
      <trkpt lat="46.17166" lon="6.64142">
        <ele>1638</ele>
        <time>2022-07-31T09:01:36Z</time>
      </trkpt>
      <trkpt lat="46.17167" lon="6.64143">
        <ele>1638</ele>
        <time>2022-07-31T09:01:37Z</time>
      </trkpt>
      <trkpt lat="46.17168" lon="6.64143">
        <ele>1638</ele>
        <time>2022-07-31T09:01:38Z</time>
      </trkpt>
      <trkpt lat="46.17169" lon="6.64144">
        <ele>1639</ele>
        <time>2022-07-31T09:01:39Z</time>
      </trkpt>
      <trkpt lat="46.17169" lon="6.64145">
        <ele>1639</ele>
        <time>2022-07-31T09:01:40Z</time>
      </trkpt>
      <trkpt lat="46.17169" lon="6.64146">
        <ele>1639</ele>
        <time>2022-07-31T09:01:41Z</time>
      </trkpt>
      <trkpt lat="46.17169" lon="6.64147">
        <ele>1639</ele>
        <time>2022-07-31T09:01:42Z</time>
      </trkpt>
      <trkpt lat="46.17169" lon="6.64147">
        <ele>1640</ele>
        <time>2022-07-31T09:01:43Z</time>
      </trkpt>
      <trkpt lat="46.17169" lon="6.64148">
        <ele>1640</ele>
        <time>2022-07-31T09:01:44Z</time>
      </trkpt>
      <trkpt lat="46.17169" lon="6.64148">
        <ele>1640</ele>
        <time>2022-07-31T09:01:45Z</time>
      </trkpt>
      <trkpt lat="46.17169" lon="6.64149">
        <ele>1640</ele>
        <time>2022-07-31T09:01:46Z</time>
      </trkpt>
      <trkpt lat="46.17169" lon="6.6415">
        <ele>1640</ele>
        <time>2022-07-31T09:01:47Z</time>
      </trkpt>
      <trkpt lat="46.17169" lon="6.64152">
        <ele>1640</ele>
        <time>2022-07-31T09:01:48Z</time>
      </trkpt>
      <trkpt lat="46.17168" lon="6.64153">
        <ele>1641</ele>
        <time>2022-07-31T09:01:49Z</time>
      </trkpt>
      <trkpt lat="46.17168" lon="6.64154">
        <ele>1641</ele>
        <time>2022-07-31T09:01:50Z</time>
      </trkpt>
      <trkpt lat="46.17168" lon="6.64154">
        <ele>1641</ele>
        <time>2022-07-31T09:01:51Z</time>
      </trkpt>
      <trkpt lat="46.17169" lon="6.64155">
        <ele>1641</ele>
        <time>2022-07-31T09:01:52Z</time>
      </trkpt>
      <trkpt lat="46.17168" lon="6.64157">
        <ele>1641</ele>
        <time>2022-07-31T09:01:53Z</time>
      </trkpt>
      <trkpt lat="46.17169" lon="6.64157">
        <ele>1642</ele>
        <time>2022-07-31T09:01:54Z</time>
      </trkpt>
      <trkpt lat="46.17168" lon="6.64158">
        <ele>1642</ele>
        <time>2022-07-31T09:01:55Z</time>
      </trkpt>
      <trkpt lat="46.17168" lon="6.64158">
        <ele>1642</ele>
        <time>2022-07-31T09:01:56Z</time>
      </trkpt>
      <trkpt lat="46.17167" lon="6.64159">
        <ele>1642</ele>
        <time>2022-07-31T09:01:57Z</time>
      </trkpt>
      <trkpt lat="46.17167" lon="6.6416">
        <ele>1642</ele>
        <time>2022-07-31T09:01:58Z</time>
      </trkpt>
      <trkpt lat="46.17166" lon="6.64161">
        <ele>1642</ele>
        <time>2022-07-31T09:01:59Z</time>
      </trkpt>
      <trkpt lat="46.17166" lon="6.64162">
        <ele>1643</ele>
        <time>2022-07-31T09:02:00Z</time>
      </trkpt>
      <trkpt lat="46.17166" lon="6.64163">
        <ele>1643</ele>
        <time>2022-07-31T09:02:01Z</time>
      </trkpt>
      <trkpt lat="46.17166" lon="6.64164">
        <ele>1643</ele>
        <time>2022-07-31T09:02:02Z</time>
      </trkpt>
      <trkpt lat="46.17166" lon="6.64165">
        <ele>1643</ele>
        <time>2022-07-31T09:02:03Z</time>
      </trkpt>
      <trkpt lat="46.17166" lon="6.64166">
        <ele>1643</ele>
        <time>2022-07-31T09:02:04Z</time>
      </trkpt>
      <trkpt lat="46.17166" lon="6.64167">
        <ele>1643</ele>
        <time>2022-07-31T09:02:05Z</time>
      </trkpt>
      <trkpt lat="46.17166" lon="6.64169">
        <ele>1644</ele>
        <time>2022-07-31T09:02:06Z</time>
      </trkpt>
      <trkpt lat="46.17166" lon="6.6417">
        <ele>1644</ele>
        <time>2022-07-31T09:02:07Z</time>
      </trkpt>
      <trkpt lat="46.17165" lon="6.64171">
        <ele>1644</ele>
        <time>2022-07-31T09:02:08Z</time>
      </trkpt>
      <trkpt lat="46.17165" lon="6.64173">
        <ele>1644</ele>
        <time>2022-07-31T09:02:09Z</time>
      </trkpt>
      <trkpt lat="46.17165" lon="6.64173">
        <ele>1644</ele>
        <time>2022-07-31T09:02:10Z</time>
      </trkpt>
      <trkpt lat="46.17165" lon="6.64174">
        <ele>1644</ele>
        <time>2022-07-31T09:02:11Z</time>
      </trkpt>
      <trkpt lat="46.17165" lon="6.64175">
        <ele>1644</ele>
        <time>2022-07-31T09:02:12Z</time>
      </trkpt>
      <trkpt lat="46.17165" lon="6.64176">
        <ele>1644</ele>
        <time>2022-07-31T09:02:13Z</time>
      </trkpt>
      <trkpt lat="46.17164" lon="6.64177">
        <ele>1645</ele>
        <time>2022-07-31T09:02:14Z</time>
      </trkpt>
      <trkpt lat="46.17164" lon="6.64178">
        <ele>1645</ele>
        <time>2022-07-31T09:02:15Z</time>
      </trkpt>
      <trkpt lat="46.17164" lon="6.64179">
        <ele>1645</ele>
        <time>2022-07-31T09:02:16Z</time>
      </trkpt>
      <trkpt lat="46.17163" lon="6.6418">
        <ele>1645</ele>
        <time>2022-07-31T09:02:17Z</time>
      </trkpt>
      <trkpt lat="46.17163" lon="6.64181">
        <ele>1645</ele>
        <time>2022-07-31T09:02:18Z</time>
      </trkpt>
      <trkpt lat="46.17163" lon="6.64182">
        <ele>1645</ele>
        <time>2022-07-31T09:02:19Z</time>
      </trkpt>
      <trkpt lat="46.17162" lon="6.64183">
        <ele>1645</ele>
        <time>2022-07-31T09:02:20Z</time>
      </trkpt>
      <trkpt lat="46.17162" lon="6.64184">
        <ele>1645</ele>
        <time>2022-07-31T09:02:21Z</time>
      </trkpt>
      <trkpt lat="46.17161" lon="6.64185">
        <ele>1646</ele>
        <time>2022-07-31T09:02:22Z</time>
      </trkpt>
      <trkpt lat="46.17162" lon="6.64186">
        <ele>1646</ele>
        <time>2022-07-31T09:02:23Z</time>
      </trkpt>
      <trkpt lat="46.17162" lon="6.64187">
        <ele>1646</ele>
        <time>2022-07-31T09:02:24Z</time>
      </trkpt>
      <trkpt lat="46.17162" lon="6.64188">
        <ele>1646</ele>
        <time>2022-07-31T09:02:25Z</time>
      </trkpt>
      <trkpt lat="46.17162" lon="6.64189">
        <ele>1646</ele>
        <time>2022-07-31T09:02:26Z</time>
      </trkpt>
      <trkpt lat="46.17162" lon="6.6419">
        <ele>1646</ele>
        <time>2022-07-31T09:02:27Z</time>
      </trkpt>
      <trkpt lat="46.17163" lon="6.64191">
        <ele>1647</ele>
        <time>2022-07-31T09:02:28Z</time>
      </trkpt>
      <trkpt lat="46.17162" lon="6.64192">
        <ele>1647</ele>
        <time>2022-07-31T09:02:29Z</time>
      </trkpt>
      <trkpt lat="46.17162" lon="6.64192">
        <ele>1647</ele>
        <time>2022-07-31T09:02:30Z</time>
      </trkpt>
      <trkpt lat="46.17161" lon="6.64193">
        <ele>1647</ele>
        <time>2022-07-31T09:02:31Z</time>
      </trkpt>
      <trkpt lat="46.17161" lon="6.64194">
        <ele>1647</ele>
        <time>2022-07-31T09:02:32Z</time>
      </trkpt>
      <trkpt lat="46.17161" lon="6.64195">
        <ele>1647</ele>
        <time>2022-07-31T09:02:33Z</time>
      </trkpt>
      <trkpt lat="46.17161" lon="6.64196">
        <ele>1648</ele>
        <time>2022-07-31T09:02:34Z</time>
      </trkpt>
      <trkpt lat="46.17161" lon="6.64198">
        <ele>1648</ele>
        <time>2022-07-31T09:02:35Z</time>
      </trkpt>
      <trkpt lat="46.1716" lon="6.64199">
        <ele>1648</ele>
        <time>2022-07-31T09:02:36Z</time>
      </trkpt>
      <trkpt lat="46.1716" lon="6.64199">
        <ele>1648</ele>
        <time>2022-07-31T09:02:37Z</time>
      </trkpt>
      <trkpt lat="46.1716" lon="6.642">
        <ele>1648</ele>
        <time>2022-07-31T09:02:38Z</time>
      </trkpt>
      <trkpt lat="46.1716" lon="6.64201">
        <ele>1649</ele>
        <time>2022-07-31T09:02:39Z</time>
      </trkpt>
      <trkpt lat="46.1716" lon="6.64202">
        <ele>1649</ele>
        <time>2022-07-31T09:02:40Z</time>
      </trkpt>
      <trkpt lat="46.1716" lon="6.64203">
        <ele>1649</ele>
        <time>2022-07-31T09:02:41Z</time>
      </trkpt>
      <trkpt lat="46.1716" lon="6.64204">
        <ele>1649</ele>
        <time>2022-07-31T09:02:42Z</time>
      </trkpt>
      <trkpt lat="46.1716" lon="6.64205">
        <ele>1649</ele>
        <time>2022-07-31T09:02:43Z</time>
      </trkpt>
      <trkpt lat="46.1716" lon="6.64206">
        <ele>1649</ele>
        <time>2022-07-31T09:02:44Z</time>
      </trkpt>
      <trkpt lat="46.1716" lon="6.64207">
        <ele>1649</ele>
        <time>2022-07-31T09:02:45Z</time>
      </trkpt>
      <trkpt lat="46.1716" lon="6.64208">
        <ele>1650</ele>
        <time>2022-07-31T09:02:46Z</time>
      </trkpt>
      <trkpt lat="46.1716" lon="6.64209">
        <ele>1650</ele>
        <time>2022-07-31T09:02:47Z</time>
      </trkpt>
      <trkpt lat="46.1716" lon="6.64209">
        <ele>1650</ele>
        <time>2022-07-31T09:02:48Z</time>
      </trkpt>
      <trkpt lat="46.1716" lon="6.6421">
        <ele>1650</ele>
        <time>2022-07-31T09:02:49Z</time>
      </trkpt>
      <trkpt lat="46.1716" lon="6.64211">
        <ele>1650</ele>
        <time>2022-07-31T09:02:50Z</time>
      </trkpt>
      <trkpt lat="46.1716" lon="6.64212">
        <ele>1650</ele>
        <time>2022-07-31T09:02:51Z</time>
      </trkpt>
      <trkpt lat="46.1716" lon="6.64212">
        <ele>1650</ele>
        <time>2022-07-31T09:02:52Z</time>
      </trkpt>
      <trkpt lat="46.1716" lon="6.64214">
        <ele>1650</ele>
        <time>2022-07-31T09:02:53Z</time>
      </trkpt>
      <trkpt lat="46.1716" lon="6.64215">
        <ele>1650</ele>
        <time>2022-07-31T09:02:54Z</time>
      </trkpt>
      <trkpt lat="46.1716" lon="6.64216">
        <ele>1650</ele>
        <time>2022-07-31T09:02:55Z</time>
      </trkpt>
      <trkpt lat="46.1716" lon="6.64216">
        <ele>1651</ele>
        <time>2022-07-31T09:02:56Z</time>
      </trkpt>
      <trkpt lat="46.17159" lon="6.64217">
        <ele>1651</ele>
        <time>2022-07-31T09:02:57Z</time>
      </trkpt>
      <trkpt lat="46.17159" lon="6.64218">
        <ele>1651</ele>
        <time>2022-07-31T09:02:58Z</time>
      </trkpt>
      <trkpt lat="46.1716" lon="6.64219">
        <ele>1651</ele>
        <time>2022-07-31T09:02:59Z</time>
      </trkpt>
      <trkpt lat="46.1716" lon="6.6422">
        <ele>1651</ele>
        <time>2022-07-31T09:03:00Z</time>
      </trkpt>
      <trkpt lat="46.17159" lon="6.64221">
        <ele>1651</ele>
        <time>2022-07-31T09:03:01Z</time>
      </trkpt>
      <trkpt lat="46.1716" lon="6.64223">
        <ele>1651</ele>
        <time>2022-07-31T09:03:02Z</time>
      </trkpt>
      <trkpt lat="46.1716" lon="6.64224">
        <ele>1652</ele>
        <time>2022-07-31T09:03:03Z</time>
      </trkpt>
      <trkpt lat="46.1716" lon="6.64225">
        <ele>1652</ele>
        <time>2022-07-31T09:03:04Z</time>
      </trkpt>
      <trkpt lat="46.17159" lon="6.64227">
        <ele>1652</ele>
        <time>2022-07-31T09:03:05Z</time>
      </trkpt>
      <trkpt lat="46.1716" lon="6.64227">
        <ele>1652</ele>
        <time>2022-07-31T09:03:06Z</time>
      </trkpt>
      <trkpt lat="46.17159" lon="6.64229">
        <ele>1652</ele>
        <time>2022-07-31T09:03:07Z</time>
      </trkpt>
      <trkpt lat="46.1716" lon="6.6423">
        <ele>1653</ele>
        <time>2022-07-31T09:03:08Z</time>
      </trkpt>
      <trkpt lat="46.17159" lon="6.6423">
        <ele>1653</ele>
        <time>2022-07-31T09:03:09Z</time>
      </trkpt>
      <trkpt lat="46.17159" lon="6.64231">
        <ele>1653</ele>
        <time>2022-07-31T09:03:10Z</time>
      </trkpt>
      <trkpt lat="46.17158" lon="6.64232">
        <ele>1653</ele>
        <time>2022-07-31T09:03:11Z</time>
      </trkpt>
      <trkpt lat="46.17158" lon="6.64232">
        <ele>1654</ele>
        <time>2022-07-31T09:03:12Z</time>
      </trkpt>
      <trkpt lat="46.17158" lon="6.64234">
        <ele>1654</ele>
        <time>2022-07-31T09:03:13Z</time>
      </trkpt>
      <trkpt lat="46.17157" lon="6.64235">
        <ele>1654</ele>
        <time>2022-07-31T09:03:14Z</time>
      </trkpt>
      <trkpt lat="46.17157" lon="6.64236">
        <ele>1654</ele>
        <time>2022-07-31T09:03:15Z</time>
      </trkpt>
      <trkpt lat="46.17157" lon="6.64237">
        <ele>1655</ele>
        <time>2022-07-31T09:03:16Z</time>
      </trkpt>
      <trkpt lat="46.17158" lon="6.64237">
        <ele>1655</ele>
        <time>2022-07-31T09:03:17Z</time>
      </trkpt>
      <trkpt lat="46.17158" lon="6.64235">
        <ele>1655</ele>
        <time>2022-07-31T09:03:18Z</time>
      </trkpt>
      <trkpt lat="46.17158" lon="6.64233">
        <ele>1655</ele>
        <time>2022-07-31T09:03:19Z</time>
      </trkpt>
      <trkpt lat="46.17157" lon="6.64232">
        <ele>1656</ele>
        <time>2022-07-31T09:03:20Z</time>
      </trkpt>
      <trkpt lat="46.17157" lon="6.64231">
        <ele>1656</ele>
        <time>2022-07-31T09:03:21Z</time>
      </trkpt>
      <trkpt lat="46.17158" lon="6.64231">
        <ele>1656</ele>
        <time>2022-07-31T09:03:22Z</time>
      </trkpt>
      <trkpt lat="46.17157" lon="6.64231">
        <ele>1656</ele>
        <time>2022-07-31T09:03:23Z</time>
      </trkpt>
      <trkpt lat="46.17157" lon="6.6423">
        <ele>1656</ele>
        <time>2022-07-31T09:03:24Z</time>
      </trkpt>
      <trkpt lat="46.17157" lon="6.6423">
        <ele>1656</ele>
        <time>2022-07-31T09:03:25Z</time>
      </trkpt>
      <trkpt lat="46.17156" lon="6.64229">
        <ele>1656</ele>
        <time>2022-07-31T09:03:26Z</time>
      </trkpt>
      <trkpt lat="46.17156" lon="6.64229">
        <ele>1657</ele>
        <time>2022-07-31T09:03:27Z</time>
      </trkpt>
      <trkpt lat="46.17156" lon="6.64228">
        <ele>1657</ele>
        <time>2022-07-31T09:03:28Z</time>
      </trkpt>
      <trkpt lat="46.17156" lon="6.64228">
        <ele>1657</ele>
        <time>2022-07-31T09:03:29Z</time>
      </trkpt>
      <trkpt lat="46.17156" lon="6.64228">
        <ele>1657</ele>
        <time>2022-07-31T09:03:30Z</time>
      </trkpt>
      <trkpt lat="46.17157" lon="6.64228">
        <ele>1657</ele>
        <time>2022-07-31T09:03:31Z</time>
      </trkpt>
      <trkpt lat="46.17157" lon="6.64228">
        <ele>1657</ele>
        <time>2022-07-31T09:03:32Z</time>
      </trkpt>
      <trkpt lat="46.17157" lon="6.64228">
        <ele>1657</ele>
        <time>2022-07-31T09:03:33Z</time>
      </trkpt>
      <trkpt lat="46.17157" lon="6.64228">
        <ele>1657</ele>
        <time>2022-07-31T09:03:34Z</time>
      </trkpt>
      <trkpt lat="46.17157" lon="6.64228">
        <ele>1657</ele>
        <time>2022-07-31T09:03:35Z</time>
      </trkpt>
      <trkpt lat="46.17158" lon="6.64228">
        <ele>1658</ele>
        <time>2022-07-31T09:03:36Z</time>
      </trkpt>
      <trkpt lat="46.17158" lon="6.64228">
        <ele>1658</ele>
        <time>2022-07-31T09:03:37Z</time>
      </trkpt>
      <trkpt lat="46.17158" lon="6.64228">
        <ele>1658</ele>
        <time>2022-07-31T09:03:38Z</time>
      </trkpt>
      <trkpt lat="46.17158" lon="6.64228">
        <ele>1658</ele>
        <time>2022-07-31T09:03:39Z</time>
      </trkpt>
      <trkpt lat="46.17158" lon="6.64228">
        <ele>1658</ele>
        <time>2022-07-31T09:03:40Z</time>
      </trkpt>
      <trkpt lat="46.17158" lon="6.64228">
        <ele>1658</ele>
        <time>2022-07-31T09:03:41Z</time>
      </trkpt>
      <trkpt lat="46.17158" lon="6.64228">
        <ele>1658</ele>
        <time>2022-07-31T09:03:42Z</time>
      </trkpt>
      <trkpt lat="46.17158" lon="6.64228">
        <ele>1658</ele>
        <time>2022-07-31T09:03:43Z</time>
      </trkpt>
      <trkpt lat="46.17158" lon="6.64228">
        <ele>1658</ele>
        <time>2022-07-31T09:03:44Z</time>
      </trkpt>
      <trkpt lat="46.17158" lon="6.64228">
        <ele>1658</ele>
        <time>2022-07-31T09:03:45Z</time>
      </trkpt>
      <trkpt lat="46.17158" lon="6.64228">
        <ele>1658</ele>
        <time>2022-07-31T09:03:46Z</time>
      </trkpt>
      <trkpt lat="46.17158" lon="6.64228">
        <ele>1658</ele>
        <time>2022-07-31T09:03:47Z</time>
      </trkpt>
      <trkpt lat="46.17157" lon="6.64228">
        <ele>1659</ele>
        <time>2022-07-31T09:03:48Z</time>
      </trkpt>
      <trkpt lat="46.17157" lon="6.64228">
        <ele>1659</ele>
        <time>2022-07-31T09:03:49Z</time>
      </trkpt>
      <trkpt lat="46.17157" lon="6.64228">
        <ele>1659</ele>
        <time>2022-07-31T09:03:50Z</time>
      </trkpt>
      <trkpt lat="46.17157" lon="6.64228">
        <ele>1659</ele>
        <time>2022-07-31T09:03:51Z</time>
      </trkpt>
      <trkpt lat="46.17157" lon="6.64228">
        <ele>1659</ele>
        <time>2022-07-31T09:03:52Z</time>
      </trkpt>
      <trkpt lat="46.17157" lon="6.64228">
        <ele>1659</ele>
        <time>2022-07-31T09:03:53Z</time>
      </trkpt>
      <trkpt lat="46.17157" lon="6.64228">
        <ele>1659</ele>
        <time>2022-07-31T09:03:54Z</time>
      </trkpt>
      <trkpt lat="46.17157" lon="6.64228">
        <ele>1659</ele>
        <time>2022-07-31T09:03:55Z</time>
      </trkpt>
      <trkpt lat="46.17157" lon="6.64228">
        <ele>1659</ele>
        <time>2022-07-31T09:03:56Z</time>
      </trkpt>
      <trkpt lat="46.17157" lon="6.64228">
        <ele>1659</ele>
        <time>2022-07-31T09:03:57Z</time>
      </trkpt>
      <trkpt lat="46.17157" lon="6.64228">
        <ele>1659</ele>
        <time>2022-07-31T09:03:58Z</time>
      </trkpt>
      <trkpt lat="46.17157" lon="6.64228">
        <ele>1659</ele>
        <time>2022-07-31T09:03:59Z</time>
      </trkpt>
      <trkpt lat="46.17157" lon="6.64228">
        <ele>1660</ele>
        <time>2022-07-31T09:04:00Z</time>
      </trkpt>
      <trkpt lat="46.17157" lon="6.64228">
        <ele>1660</ele>
        <time>2022-07-31T09:04:01Z</time>
      </trkpt>
      <trkpt lat="46.17157" lon="6.64228">
        <ele>1660</ele>
        <time>2022-07-31T09:04:02Z</time>
      </trkpt>
      <trkpt lat="46.17158" lon="6.64228">
        <ele>1660</ele>
        <time>2022-07-31T09:04:03Z</time>
      </trkpt>
      <trkpt lat="46.17158" lon="6.64228">
        <ele>1660</ele>
        <time>2022-07-31T09:04:04Z</time>
      </trkpt>
      <trkpt lat="46.17157" lon="6.64228">
        <ele>1660</ele>
        <time>2022-07-31T09:04:05Z</time>
      </trkpt>
      <trkpt lat="46.17157" lon="6.64228">
        <ele>1660</ele>
        <time>2022-07-31T09:04:06Z</time>
      </trkpt>
      <trkpt lat="46.17157" lon="6.64228">
        <ele>1660</ele>
        <time>2022-07-31T09:04:07Z</time>
      </trkpt>
      <trkpt lat="46.17157" lon="6.64228">
        <ele>1660</ele>
        <time>2022-07-31T09:04:08Z</time>
      </trkpt>
      <trkpt lat="46.17157" lon="6.64228">
        <ele>1660</ele>
        <time>2022-07-31T09:04:09Z</time>
      </trkpt>
      <trkpt lat="46.17157" lon="6.64228">
        <ele>1660</ele>
        <time>2022-07-31T09:04:10Z</time>
      </trkpt>
      <trkpt lat="46.17157" lon="6.64228">
        <ele>1660</ele>
        <time>2022-07-31T09:04:11Z</time>
      </trkpt>
      <trkpt lat="46.17157" lon="6.64228">
        <ele>1660</ele>
        <time>2022-07-31T09:04:12Z</time>
      </trkpt>
      <trkpt lat="46.17157" lon="6.64228">
        <ele>1660</ele>
        <time>2022-07-31T09:04:13Z</time>
      </trkpt>
      <trkpt lat="46.17157" lon="6.64228">
        <ele>1660</ele>
        <time>2022-07-31T09:04:14Z</time>
      </trkpt>
      <trkpt lat="46.17157" lon="6.64228">
        <ele>1660</ele>
        <time>2022-07-31T09:04:15Z</time>
      </trkpt>
      <trkpt lat="46.17157" lon="6.64228">
        <ele>1660</ele>
        <time>2022-07-31T09:04:16Z</time>
      </trkpt>
      <trkpt lat="46.17157" lon="6.64228">
        <ele>1660</ele>
        <time>2022-07-31T09:04:17Z</time>
      </trkpt>
      <trkpt lat="46.17157" lon="6.64228">
        <ele>1660</ele>
        <time>2022-07-31T09:04:18Z</time>
      </trkpt>
      <trkpt lat="46.17157" lon="6.64228">
        <ele>1660</ele>
        <time>2022-07-31T09:04:19Z</time>
      </trkpt>
      <trkpt lat="46.17157" lon="6.64228">
        <ele>1660</ele>
        <time>2022-07-31T09:04:20Z</time>
      </trkpt>
      <trkpt lat="46.17157" lon="6.64228">
        <ele>1660</ele>
        <time>2022-07-31T09:04:21Z</time>
      </trkpt>
      <trkpt lat="46.17157" lon="6.64228">
        <ele>1660</ele>
        <time>2022-07-31T09:04:22Z</time>
      </trkpt>
      <trkpt lat="46.17157" lon="6.64228">
        <ele>1660</ele>
        <time>2022-07-31T09:04:23Z</time>
      </trkpt>
      <trkpt lat="46.17157" lon="6.64228">
        <ele>1660</ele>
        <time>2022-07-31T09:04:24Z</time>
      </trkpt>
      <trkpt lat="46.17157" lon="6.64228">
        <ele>1660</ele>
        <time>2022-07-31T09:04:25Z</time>
      </trkpt>
      <trkpt lat="46.17157" lon="6.64228">
        <ele>1660</ele>
        <time>2022-07-31T09:04:26Z</time>
      </trkpt>
      <trkpt lat="46.17158" lon="6.64228">
        <ele>1660</ele>
        <time>2022-07-31T09:04:27Z</time>
      </trkpt>
      <trkpt lat="46.17158" lon="6.64228">
        <ele>1660</ele>
        <time>2022-07-31T09:04:28Z</time>
      </trkpt>
      <trkpt lat="46.17158" lon="6.64228">
        <ele>1661</ele>
        <time>2022-07-31T09:04:29Z</time>
      </trkpt>
      <trkpt lat="46.17158" lon="6.64228">
        <ele>1661</ele>
        <time>2022-07-31T09:04:30Z</time>
      </trkpt>
      <trkpt lat="46.17158" lon="6.64228">
        <ele>1661</ele>
        <time>2022-07-31T09:04:31Z</time>
      </trkpt>
      <trkpt lat="46.17158" lon="6.64228">
        <ele>1661</ele>
        <time>2022-07-31T09:04:32Z</time>
      </trkpt>
      <trkpt lat="46.17158" lon="6.64228">
        <ele>1661</ele>
        <time>2022-07-31T09:04:33Z</time>
      </trkpt>
      <trkpt lat="46.17158" lon="6.64228">
        <ele>1661</ele>
        <time>2022-07-31T09:04:34Z</time>
      </trkpt>
      <trkpt lat="46.17158" lon="6.64228">
        <ele>1661</ele>
        <time>2022-07-31T09:04:35Z</time>
      </trkpt>
      <trkpt lat="46.17158" lon="6.64228">
        <ele>1661</ele>
        <time>2022-07-31T09:04:36Z</time>
      </trkpt>
      <trkpt lat="46.17158" lon="6.64228">
        <ele>1661</ele>
        <time>2022-07-31T09:04:37Z</time>
      </trkpt>
      <trkpt lat="46.17158" lon="6.64228">
        <ele>1661</ele>
        <time>2022-07-31T09:04:38Z</time>
      </trkpt>
      <trkpt lat="46.17158" lon="6.64228">
        <ele>1661</ele>
        <time>2022-07-31T09:04:39Z</time>
      </trkpt>
      <trkpt lat="46.17158" lon="6.64228">
        <ele>1661</ele>
        <time>2022-07-31T09:04:40Z</time>
      </trkpt>
      <trkpt lat="46.17158" lon="6.64228">
        <ele>1661</ele>
        <time>2022-07-31T09:04:41Z</time>
      </trkpt>
      <trkpt lat="46.17157" lon="6.64228">
        <ele>1661</ele>
        <time>2022-07-31T09:04:42Z</time>
      </trkpt>
      <trkpt lat="46.17157" lon="6.64228">
        <ele>1661</ele>
        <time>2022-07-31T09:04:43Z</time>
      </trkpt>
      <trkpt lat="46.17157" lon="6.64228">
        <ele>1661</ele>
        <time>2022-07-31T09:04:44Z</time>
      </trkpt>
      <trkpt lat="46.17157" lon="6.64228">
        <ele>1661</ele>
        <time>2022-07-31T09:04:45Z</time>
      </trkpt>
      <trkpt lat="46.17157" lon="6.64227">
        <ele>1661</ele>
        <time>2022-07-31T09:04:46Z</time>
      </trkpt>
      <trkpt lat="46.17157" lon="6.64227">
        <ele>1661</ele>
        <time>2022-07-31T09:04:47Z</time>
      </trkpt>
      <trkpt lat="46.17157" lon="6.64227">
        <ele>1661</ele>
        <time>2022-07-31T09:04:48Z</time>
      </trkpt>
      <trkpt lat="46.17158" lon="6.64227">
        <ele>1661</ele>
        <time>2022-07-31T09:04:49Z</time>
      </trkpt>
      <trkpt lat="46.17158" lon="6.64227">
        <ele>1661</ele>
        <time>2022-07-31T09:04:50Z</time>
      </trkpt>
      <trkpt lat="46.17158" lon="6.64227">
        <ele>1661</ele>
        <time>2022-07-31T09:04:51Z</time>
      </trkpt>
      <trkpt lat="46.17158" lon="6.64227">
        <ele>1661</ele>
        <time>2022-07-31T09:04:52Z</time>
      </trkpt>
      <trkpt lat="46.17158" lon="6.64227">
        <ele>1661</ele>
        <time>2022-07-31T09:04:53Z</time>
      </trkpt>
      <trkpt lat="46.17158" lon="6.64227">
        <ele>1661</ele>
        <time>2022-07-31T09:04:54Z</time>
      </trkpt>
      <trkpt lat="46.17158" lon="6.64227">
        <ele>1661</ele>
        <time>2022-07-31T09:04:55Z</time>
      </trkpt>
      <trkpt lat="46.17158" lon="6.64227">
        <ele>1661</ele>
        <time>2022-07-31T09:04:56Z</time>
      </trkpt>
      <trkpt lat="46.17158" lon="6.64227">
        <ele>1661</ele>
        <time>2022-07-31T09:04:57Z</time>
      </trkpt>
      <trkpt lat="46.17158" lon="6.64227">
        <ele>1662</ele>
        <time>2022-07-31T09:04:58Z</time>
      </trkpt>
      <trkpt lat="46.17158" lon="6.64227">
        <ele>1662</ele>
        <time>2022-07-31T09:04:59Z</time>
      </trkpt>
      <trkpt lat="46.17158" lon="6.64227">
        <ele>1662</ele>
        <time>2022-07-31T09:05:00Z</time>
      </trkpt>
      <trkpt lat="46.17158" lon="6.64227">
        <ele>1662</ele>
        <time>2022-07-31T09:05:01Z</time>
      </trkpt>
      <trkpt lat="46.17158" lon="6.64227">
        <ele>1662</ele>
        <time>2022-07-31T09:05:02Z</time>
      </trkpt>
      <trkpt lat="46.17158" lon="6.64228">
        <ele>1662</ele>
        <time>2022-07-31T09:05:03Z</time>
      </trkpt>
      <trkpt lat="46.17158" lon="6.64228">
        <ele>1662</ele>
        <time>2022-07-31T09:05:04Z</time>
      </trkpt>
      <trkpt lat="46.17158" lon="6.64228">
        <ele>1662</ele>
        <time>2022-07-31T09:05:05Z</time>
      </trkpt>
      <trkpt lat="46.17158" lon="6.64228">
        <ele>1662</ele>
        <time>2022-07-31T09:05:06Z</time>
      </trkpt>
      <trkpt lat="46.17158" lon="6.64228">
        <ele>1662</ele>
        <time>2022-07-31T09:05:07Z</time>
      </trkpt>
      <trkpt lat="46.17158" lon="6.64228">
        <ele>1662</ele>
        <time>2022-07-31T09:05:08Z</time>
      </trkpt>
      <trkpt lat="46.17158" lon="6.64228">
        <ele>1662</ele>
        <time>2022-07-31T09:05:09Z</time>
      </trkpt>
      <trkpt lat="46.17158" lon="6.64228">
        <ele>1662</ele>
        <time>2022-07-31T09:05:10Z</time>
      </trkpt>
      <trkpt lat="46.17158" lon="6.64228">
        <ele>1662</ele>
        <time>2022-07-31T09:05:11Z</time>
      </trkpt>
      <trkpt lat="46.17158" lon="6.64228">
        <ele>1662</ele>
        <time>2022-07-31T09:05:12Z</time>
      </trkpt>
      <trkpt lat="46.17158" lon="6.64228">
        <ele>1662</ele>
        <time>2022-07-31T09:05:13Z</time>
      </trkpt>
      <trkpt lat="46.17157" lon="6.64228">
        <ele>1662</ele>
        <time>2022-07-31T09:05:14Z</time>
      </trkpt>
      <trkpt lat="46.17157" lon="6.6423">
        <ele>1662</ele>
        <time>2022-07-31T09:05:15Z</time>
      </trkpt>
      <trkpt lat="46.17156" lon="6.64232">
        <ele>1662</ele>
        <time>2022-07-31T09:05:16Z</time>
      </trkpt>
      <trkpt lat="46.17156" lon="6.64234">
        <ele>1662</ele>
        <time>2022-07-31T09:05:17Z</time>
      </trkpt>
      <trkpt lat="46.17155" lon="6.64235">
        <ele>1662</ele>
        <time>2022-07-31T09:05:18Z</time>
      </trkpt>
      <trkpt lat="46.17155" lon="6.64237">
        <ele>1662</ele>
        <time>2022-07-31T09:05:19Z</time>
      </trkpt>
      <trkpt lat="46.17154" lon="6.6424">
        <ele>1662</ele>
        <time>2022-07-31T09:05:20Z</time>
      </trkpt>
      <trkpt lat="46.17154" lon="6.64241">
        <ele>1662</ele>
        <time>2022-07-31T09:05:21Z</time>
      </trkpt>
      <trkpt lat="46.17154" lon="6.64244">
        <ele>1662</ele>
        <time>2022-07-31T09:05:22Z</time>
      </trkpt>
      <trkpt lat="46.17152" lon="6.64246">
        <ele>1663</ele>
        <time>2022-07-31T09:05:23Z</time>
      </trkpt>
      <trkpt lat="46.17152" lon="6.64248">
        <ele>1663</ele>
        <time>2022-07-31T09:05:24Z</time>
      </trkpt>
      <trkpt lat="46.17152" lon="6.6425">
        <ele>1663</ele>
        <time>2022-07-31T09:05:25Z</time>
      </trkpt>
      <trkpt lat="46.17152" lon="6.64252">
        <ele>1663</ele>
        <time>2022-07-31T09:05:26Z</time>
      </trkpt>
      <trkpt lat="46.17152" lon="6.64254">
        <ele>1664</ele>
        <time>2022-07-31T09:05:27Z</time>
      </trkpt>
      <trkpt lat="46.17152" lon="6.64255">
        <ele>1664</ele>
        <time>2022-07-31T09:05:28Z</time>
      </trkpt>
      <trkpt lat="46.17151" lon="6.64256">
        <ele>1664</ele>
        <time>2022-07-31T09:05:29Z</time>
      </trkpt>
      <trkpt lat="46.17151" lon="6.64256">
        <ele>1664</ele>
        <time>2022-07-31T09:05:30Z</time>
      </trkpt>
      <trkpt lat="46.17151" lon="6.64257">
        <ele>1665</ele>
        <time>2022-07-31T09:05:31Z</time>
      </trkpt>
      <trkpt lat="46.17151" lon="6.64258">
        <ele>1665</ele>
        <time>2022-07-31T09:05:32Z</time>
      </trkpt>
      <trkpt lat="46.1715" lon="6.64258">
        <ele>1665</ele>
        <time>2022-07-31T09:05:33Z</time>
      </trkpt>
      <trkpt lat="46.17151" lon="6.6426">
        <ele>1665</ele>
        <time>2022-07-31T09:05:34Z</time>
      </trkpt>
      <trkpt lat="46.17151" lon="6.64262">
        <ele>1666</ele>
        <time>2022-07-31T09:05:35Z</time>
      </trkpt>
      <trkpt lat="46.17151" lon="6.64263">
        <ele>1666</ele>
        <time>2022-07-31T09:05:36Z</time>
      </trkpt>
      <trkpt lat="46.17151" lon="6.64263">
        <ele>1666</ele>
        <time>2022-07-31T09:05:37Z</time>
      </trkpt>
      <trkpt lat="46.17151" lon="6.64264">
        <ele>1666</ele>
        <time>2022-07-31T09:05:38Z</time>
      </trkpt>
      <trkpt lat="46.17152" lon="6.64265">
        <ele>1667</ele>
        <time>2022-07-31T09:05:39Z</time>
      </trkpt>
      <trkpt lat="46.17152" lon="6.64265">
        <ele>1667</ele>
        <time>2022-07-31T09:05:40Z</time>
      </trkpt>
      <trkpt lat="46.17153" lon="6.64266">
        <ele>1667</ele>
        <time>2022-07-31T09:05:41Z</time>
      </trkpt>
      <trkpt lat="46.17154" lon="6.64268">
        <ele>1668</ele>
        <time>2022-07-31T09:05:42Z</time>
      </trkpt>
      <trkpt lat="46.17154" lon="6.64269">
        <ele>1668</ele>
        <time>2022-07-31T09:05:43Z</time>
      </trkpt>
      <trkpt lat="46.17154" lon="6.6427">
        <ele>1668</ele>
        <time>2022-07-31T09:05:44Z</time>
      </trkpt>
      <trkpt lat="46.17154" lon="6.64271">
        <ele>1668</ele>
        <time>2022-07-31T09:05:45Z</time>
      </trkpt>
      <trkpt lat="46.17154" lon="6.64272">
        <ele>1669</ele>
        <time>2022-07-31T09:05:46Z</time>
      </trkpt>
      <trkpt lat="46.17154" lon="6.64273">
        <ele>1669</ele>
        <time>2022-07-31T09:05:47Z</time>
      </trkpt>
      <trkpt lat="46.17154" lon="6.64274">
        <ele>1669</ele>
        <time>2022-07-31T09:05:48Z</time>
      </trkpt>
      <trkpt lat="46.17154" lon="6.64275">
        <ele>1670</ele>
        <time>2022-07-31T09:05:49Z</time>
      </trkpt>
      <trkpt lat="46.17154" lon="6.64276">
        <ele>1670</ele>
        <time>2022-07-31T09:05:50Z</time>
      </trkpt>
      <trkpt lat="46.17154" lon="6.64276">
        <ele>1670</ele>
        <time>2022-07-31T09:05:51Z</time>
      </trkpt>
      <trkpt lat="46.17153" lon="6.64277">
        <ele>1670</ele>
        <time>2022-07-31T09:05:52Z</time>
      </trkpt>
      <trkpt lat="46.17153" lon="6.64278">
        <ele>1671</ele>
        <time>2022-07-31T09:05:53Z</time>
      </trkpt>
      <trkpt lat="46.17152" lon="6.64278">
        <ele>1671</ele>
        <time>2022-07-31T09:05:54Z</time>
      </trkpt>
      <trkpt lat="46.17152" lon="6.64279">
        <ele>1671</ele>
        <time>2022-07-31T09:05:55Z</time>
      </trkpt>
      <trkpt lat="46.17152" lon="6.64281">
        <ele>1671</ele>
        <time>2022-07-31T09:05:56Z</time>
      </trkpt>
      <trkpt lat="46.17152" lon="6.64281">
        <ele>1672</ele>
        <time>2022-07-31T09:05:57Z</time>
      </trkpt>
      <trkpt lat="46.17152" lon="6.64282">
        <ele>1672</ele>
        <time>2022-07-31T09:05:58Z</time>
      </trkpt>
      <trkpt lat="46.17153" lon="6.64282">
        <ele>1672</ele>
        <time>2022-07-31T09:05:59Z</time>
      </trkpt>
      <trkpt lat="46.17152" lon="6.64283">
        <ele>1672</ele>
        <time>2022-07-31T09:06:00Z</time>
      </trkpt>
      <trkpt lat="46.17153" lon="6.64283">
        <ele>1672</ele>
        <time>2022-07-31T09:06:01Z</time>
      </trkpt>
      <trkpt lat="46.17153" lon="6.64283">
        <ele>1673</ele>
        <time>2022-07-31T09:06:02Z</time>
      </trkpt>
      <trkpt lat="46.17152" lon="6.64285">
        <ele>1673</ele>
        <time>2022-07-31T09:06:03Z</time>
      </trkpt>
      <trkpt lat="46.17154" lon="6.64286">
        <ele>1673</ele>
        <time>2022-07-31T09:06:04Z</time>
      </trkpt>
      <trkpt lat="46.17154" lon="6.64287">
        <ele>1673</ele>
        <time>2022-07-31T09:06:05Z</time>
      </trkpt>
      <trkpt lat="46.17154" lon="6.64287">
        <ele>1673</ele>
        <time>2022-07-31T09:06:06Z</time>
      </trkpt>
      <trkpt lat="46.17152" lon="6.64288">
        <ele>1673</ele>
        <time>2022-07-31T09:06:07Z</time>
      </trkpt>
      <trkpt lat="46.17152" lon="6.64289">
        <ele>1674</ele>
        <time>2022-07-31T09:06:08Z</time>
      </trkpt>
      <trkpt lat="46.17152" lon="6.6429">
        <ele>1674</ele>
        <time>2022-07-31T09:06:09Z</time>
      </trkpt>
      <trkpt lat="46.17151" lon="6.64291">
        <ele>1674</ele>
        <time>2022-07-31T09:06:10Z</time>
      </trkpt>
      <trkpt lat="46.17151" lon="6.64292">
        <ele>1674</ele>
        <time>2022-07-31T09:06:11Z</time>
      </trkpt>
      <trkpt lat="46.17151" lon="6.64293">
        <ele>1674</ele>
        <time>2022-07-31T09:06:12Z</time>
      </trkpt>
      <trkpt lat="46.17152" lon="6.64294">
        <ele>1675</ele>
        <time>2022-07-31T09:06:13Z</time>
      </trkpt>
      <trkpt lat="46.17152" lon="6.64295">
        <ele>1675</ele>
        <time>2022-07-31T09:06:14Z</time>
      </trkpt>
      <trkpt lat="46.17152" lon="6.64296">
        <ele>1675</ele>
        <time>2022-07-31T09:06:15Z</time>
      </trkpt>
      <trkpt lat="46.17152" lon="6.64298">
        <ele>1675</ele>
        <time>2022-07-31T09:06:16Z</time>
      </trkpt>
      <trkpt lat="46.17152" lon="6.64299">
        <ele>1676</ele>
        <time>2022-07-31T09:06:17Z</time>
      </trkpt>
      <trkpt lat="46.17153" lon="6.643">
        <ele>1676</ele>
        <time>2022-07-31T09:06:18Z</time>
      </trkpt>
      <trkpt lat="46.17154" lon="6.64301">
        <ele>1676</ele>
        <time>2022-07-31T09:06:19Z</time>
      </trkpt>
      <trkpt lat="46.17154" lon="6.64302">
        <ele>1677</ele>
        <time>2022-07-31T09:06:20Z</time>
      </trkpt>
      <trkpt lat="46.17154" lon="6.64304">
        <ele>1677</ele>
        <time>2022-07-31T09:06:21Z</time>
      </trkpt>
      <trkpt lat="46.17154" lon="6.64304">
        <ele>1677</ele>
        <time>2022-07-31T09:06:22Z</time>
      </trkpt>
      <trkpt lat="46.17154" lon="6.64304">
        <ele>1678</ele>
        <time>2022-07-31T09:06:23Z</time>
      </trkpt>
      <trkpt lat="46.17154" lon="6.64305">
        <ele>1678</ele>
        <time>2022-07-31T09:06:24Z</time>
      </trkpt>
      <trkpt lat="46.17154" lon="6.64305">
        <ele>1678</ele>
        <time>2022-07-31T09:06:25Z</time>
      </trkpt>
      <trkpt lat="46.17154" lon="6.64306">
        <ele>1678</ele>
        <time>2022-07-31T09:06:26Z</time>
      </trkpt>
      <trkpt lat="46.17154" lon="6.64306">
        <ele>1679</ele>
        <time>2022-07-31T09:06:27Z</time>
      </trkpt>
      <trkpt lat="46.17153" lon="6.64306">
        <ele>1679</ele>
        <time>2022-07-31T09:06:28Z</time>
      </trkpt>
      <trkpt lat="46.17153" lon="6.64306">
        <ele>1679</ele>
        <time>2022-07-31T09:06:29Z</time>
      </trkpt>
      <trkpt lat="46.17153" lon="6.64307">
        <ele>1679</ele>
        <time>2022-07-31T09:06:30Z</time>
      </trkpt>
      <trkpt lat="46.17152" lon="6.64308">
        <ele>1679</ele>
        <time>2022-07-31T09:06:31Z</time>
      </trkpt>
      <trkpt lat="46.17152" lon="6.64309">
        <ele>1680</ele>
        <time>2022-07-31T09:06:32Z</time>
      </trkpt>
      <trkpt lat="46.17152" lon="6.64311">
        <ele>1680</ele>
        <time>2022-07-31T09:06:33Z</time>
      </trkpt>
      <trkpt lat="46.17153" lon="6.64312">
        <ele>1680</ele>
        <time>2022-07-31T09:06:34Z</time>
      </trkpt>
      <trkpt lat="46.17152" lon="6.64312">
        <ele>1680</ele>
        <time>2022-07-31T09:06:35Z</time>
      </trkpt>
      <trkpt lat="46.17153" lon="6.64313">
        <ele>1681</ele>
        <time>2022-07-31T09:06:36Z</time>
      </trkpt>
      <trkpt lat="46.17153" lon="6.64313">
        <ele>1681</ele>
        <time>2022-07-31T09:06:37Z</time>
      </trkpt>
      <trkpt lat="46.17154" lon="6.64314">
        <ele>1681</ele>
        <time>2022-07-31T09:06:38Z</time>
      </trkpt>
      <trkpt lat="46.17153" lon="6.64314">
        <ele>1681</ele>
        <time>2022-07-31T09:06:39Z</time>
      </trkpt>
      <trkpt lat="46.17153" lon="6.64315">
        <ele>1681</ele>
        <time>2022-07-31T09:06:40Z</time>
      </trkpt>
      <trkpt lat="46.17153" lon="6.64316">
        <ele>1682</ele>
        <time>2022-07-31T09:06:41Z</time>
      </trkpt>
      <trkpt lat="46.17152" lon="6.64317">
        <ele>1682</ele>
        <time>2022-07-31T09:06:42Z</time>
      </trkpt>
      <trkpt lat="46.17152" lon="6.64318">
        <ele>1682</ele>
        <time>2022-07-31T09:06:43Z</time>
      </trkpt>
      <trkpt lat="46.17152" lon="6.6432">
        <ele>1682</ele>
        <time>2022-07-31T09:06:44Z</time>
      </trkpt>
      <trkpt lat="46.17152" lon="6.64321">
        <ele>1682</ele>
        <time>2022-07-31T09:06:45Z</time>
      </trkpt>
      <trkpt lat="46.17152" lon="6.64322">
        <ele>1683</ele>
        <time>2022-07-31T09:06:46Z</time>
      </trkpt>
      <trkpt lat="46.17152" lon="6.64323">
        <ele>1683</ele>
        <time>2022-07-31T09:06:47Z</time>
      </trkpt>
      <trkpt lat="46.17152" lon="6.64324">
        <ele>1683</ele>
        <time>2022-07-31T09:06:48Z</time>
      </trkpt>
      <trkpt lat="46.17152" lon="6.64324">
        <ele>1683</ele>
        <time>2022-07-31T09:06:49Z</time>
      </trkpt>
      <trkpt lat="46.17152" lon="6.64325">
        <ele>1684</ele>
        <time>2022-07-31T09:06:50Z</time>
      </trkpt>
      <trkpt lat="46.17152" lon="6.64325">
        <ele>1684</ele>
        <time>2022-07-31T09:06:51Z</time>
      </trkpt>
      <trkpt lat="46.17152" lon="6.64326">
        <ele>1684</ele>
        <time>2022-07-31T09:06:52Z</time>
      </trkpt>
      <trkpt lat="46.17153" lon="6.64327">
        <ele>1684</ele>
        <time>2022-07-31T09:06:53Z</time>
      </trkpt>
      <trkpt lat="46.17153" lon="6.64328">
        <ele>1685</ele>
        <time>2022-07-31T09:06:54Z</time>
      </trkpt>
      <trkpt lat="46.17153" lon="6.6433">
        <ele>1685</ele>
        <time>2022-07-31T09:06:55Z</time>
      </trkpt>
      <trkpt lat="46.17152" lon="6.6433">
        <ele>1685</ele>
        <time>2022-07-31T09:06:56Z</time>
      </trkpt>
      <trkpt lat="46.17152" lon="6.6433">
        <ele>1685</ele>
        <time>2022-07-31T09:06:57Z</time>
      </trkpt>
      <trkpt lat="46.17152" lon="6.64331">
        <ele>1686</ele>
        <time>2022-07-31T09:06:58Z</time>
      </trkpt>
      <trkpt lat="46.17152" lon="6.64331">
        <ele>1686</ele>
        <time>2022-07-31T09:06:59Z</time>
      </trkpt>
      <trkpt lat="46.17152" lon="6.64332">
        <ele>1686</ele>
        <time>2022-07-31T09:07:00Z</time>
      </trkpt>
      <trkpt lat="46.17152" lon="6.64333">
        <ele>1686</ele>
        <time>2022-07-31T09:07:01Z</time>
      </trkpt>
      <trkpt lat="46.17152" lon="6.64335">
        <ele>1687</ele>
        <time>2022-07-31T09:07:02Z</time>
      </trkpt>
      <trkpt lat="46.17153" lon="6.64335">
        <ele>1687</ele>
        <time>2022-07-31T09:07:03Z</time>
      </trkpt>
      <trkpt lat="46.17153" lon="6.64336">
        <ele>1687</ele>
        <time>2022-07-31T09:07:04Z</time>
      </trkpt>
      <trkpt lat="46.17154" lon="6.64338">
        <ele>1687</ele>
        <time>2022-07-31T09:07:05Z</time>
      </trkpt>
      <trkpt lat="46.17154" lon="6.64339">
        <ele>1688</ele>
        <time>2022-07-31T09:07:06Z</time>
      </trkpt>
      <trkpt lat="46.17154" lon="6.6434">
        <ele>1688</ele>
        <time>2022-07-31T09:07:07Z</time>
      </trkpt>
      <trkpt lat="46.17154" lon="6.64341">
        <ele>1688</ele>
        <time>2022-07-31T09:07:08Z</time>
      </trkpt>
      <trkpt lat="46.17154" lon="6.64342">
        <ele>1688</ele>
        <time>2022-07-31T09:07:09Z</time>
      </trkpt>
      <trkpt lat="46.17153" lon="6.64343">
        <ele>1689</ele>
        <time>2022-07-31T09:07:10Z</time>
      </trkpt>
      <trkpt lat="46.17153" lon="6.64344">
        <ele>1689</ele>
        <time>2022-07-31T09:07:11Z</time>
      </trkpt>
      <trkpt lat="46.17152" lon="6.64345">
        <ele>1689</ele>
        <time>2022-07-31T09:07:12Z</time>
      </trkpt>
      <trkpt lat="46.17152" lon="6.64345">
        <ele>1689</ele>
        <time>2022-07-31T09:07:13Z</time>
      </trkpt>
      <trkpt lat="46.17151" lon="6.64346">
        <ele>1690</ele>
        <time>2022-07-31T09:07:14Z</time>
      </trkpt>
      <trkpt lat="46.17151" lon="6.64348">
        <ele>1690</ele>
        <time>2022-07-31T09:07:15Z</time>
      </trkpt>
      <trkpt lat="46.1715" lon="6.64349">
        <ele>1690</ele>
        <time>2022-07-31T09:07:16Z</time>
      </trkpt>
      <trkpt lat="46.17151" lon="6.6435">
        <ele>1691</ele>
        <time>2022-07-31T09:07:17Z</time>
      </trkpt>
      <trkpt lat="46.17151" lon="6.64351">
        <ele>1691</ele>
        <time>2022-07-31T09:07:18Z</time>
      </trkpt>
      <trkpt lat="46.17151" lon="6.64351">
        <ele>1691</ele>
        <time>2022-07-31T09:07:19Z</time>
      </trkpt>
      <trkpt lat="46.17151" lon="6.64352">
        <ele>1691</ele>
        <time>2022-07-31T09:07:20Z</time>
      </trkpt>
      <trkpt lat="46.1715" lon="6.64352">
        <ele>1692</ele>
        <time>2022-07-31T09:07:21Z</time>
      </trkpt>
      <trkpt lat="46.1715" lon="6.64353">
        <ele>1692</ele>
        <time>2022-07-31T09:07:22Z</time>
      </trkpt>
      <trkpt lat="46.1715" lon="6.64354">
        <ele>1692</ele>
        <time>2022-07-31T09:07:23Z</time>
      </trkpt>
      <trkpt lat="46.17149" lon="6.64354">
        <ele>1692</ele>
        <time>2022-07-31T09:07:24Z</time>
      </trkpt>
      <trkpt lat="46.17149" lon="6.64355">
        <ele>1692</ele>
        <time>2022-07-31T09:07:25Z</time>
      </trkpt>
      <trkpt lat="46.17149" lon="6.64356">
        <ele>1692</ele>
        <time>2022-07-31T09:07:26Z</time>
      </trkpt>
      <trkpt lat="46.17149" lon="6.64357">
        <ele>1692</ele>
        <time>2022-07-31T09:07:27Z</time>
      </trkpt>
      <trkpt lat="46.17149" lon="6.64358">
        <ele>1693</ele>
        <time>2022-07-31T09:07:28Z</time>
      </trkpt>
      <trkpt lat="46.17149" lon="6.6436">
        <ele>1693</ele>
        <time>2022-07-31T09:07:29Z</time>
      </trkpt>
      <trkpt lat="46.17149" lon="6.64362">
        <ele>1693</ele>
        <time>2022-07-31T09:07:30Z</time>
      </trkpt>
      <trkpt lat="46.17149" lon="6.64362">
        <ele>1693</ele>
        <time>2022-07-31T09:07:31Z</time>
      </trkpt>
      <trkpt lat="46.17148" lon="6.64364">
        <ele>1694</ele>
        <time>2022-07-31T09:07:32Z</time>
      </trkpt>
      <trkpt lat="46.17148" lon="6.64365">
        <ele>1694</ele>
        <time>2022-07-31T09:07:33Z</time>
      </trkpt>
      <trkpt lat="46.17148" lon="6.64365">
        <ele>1694</ele>
        <time>2022-07-31T09:07:34Z</time>
      </trkpt>
      <trkpt lat="46.17147" lon="6.64366">
        <ele>1694</ele>
        <time>2022-07-31T09:07:35Z</time>
      </trkpt>
      <trkpt lat="46.17147" lon="6.64367">
        <ele>1695</ele>
        <time>2022-07-31T09:07:36Z</time>
      </trkpt>
      <trkpt lat="46.17147" lon="6.64368">
        <ele>1695</ele>
        <time>2022-07-31T09:07:37Z</time>
      </trkpt>
      <trkpt lat="46.17145" lon="6.64369">
        <ele>1695</ele>
        <time>2022-07-31T09:07:38Z</time>
      </trkpt>
      <trkpt lat="46.17145" lon="6.6437">
        <ele>1696</ele>
        <time>2022-07-31T09:07:39Z</time>
      </trkpt>
      <trkpt lat="46.17145" lon="6.64371">
        <ele>1696</ele>
        <time>2022-07-31T09:07:40Z</time>
      </trkpt>
      <trkpt lat="46.17144" lon="6.64373">
        <ele>1696</ele>
        <time>2022-07-31T09:07:41Z</time>
      </trkpt>
      <trkpt lat="46.17144" lon="6.64374">
        <ele>1696</ele>
        <time>2022-07-31T09:07:42Z</time>
      </trkpt>
      <trkpt lat="46.17144" lon="6.64375">
        <ele>1697</ele>
        <time>2022-07-31T09:07:43Z</time>
      </trkpt>
      <trkpt lat="46.17144" lon="6.64376">
        <ele>1697</ele>
        <time>2022-07-31T09:07:44Z</time>
      </trkpt>
      <trkpt lat="46.17143" lon="6.64377">
        <ele>1697</ele>
        <time>2022-07-31T09:07:45Z</time>
      </trkpt>
      <trkpt lat="46.17143" lon="6.64377">
        <ele>1697</ele>
        <time>2022-07-31T09:07:46Z</time>
      </trkpt>
      <trkpt lat="46.17143" lon="6.64378">
        <ele>1698</ele>
        <time>2022-07-31T09:07:47Z</time>
      </trkpt>
      <trkpt lat="46.17143" lon="6.6438">
        <ele>1698</ele>
        <time>2022-07-31T09:07:48Z</time>
      </trkpt>
      <trkpt lat="46.17143" lon="6.6438">
        <ele>1698</ele>
        <time>2022-07-31T09:07:49Z</time>
      </trkpt>
      <trkpt lat="46.17143" lon="6.64381">
        <ele>1698</ele>
        <time>2022-07-31T09:07:50Z</time>
      </trkpt>
      <trkpt lat="46.17143" lon="6.64382">
        <ele>1699</ele>
        <time>2022-07-31T09:07:51Z</time>
      </trkpt>
      <trkpt lat="46.17143" lon="6.64384">
        <ele>1699</ele>
        <time>2022-07-31T09:07:52Z</time>
      </trkpt>
      <trkpt lat="46.17143" lon="6.64385">
        <ele>1699</ele>
        <time>2022-07-31T09:07:53Z</time>
      </trkpt>
      <trkpt lat="46.17143" lon="6.64386">
        <ele>1699</ele>
        <time>2022-07-31T09:07:54Z</time>
      </trkpt>
      <trkpt lat="46.17142" lon="6.64388">
        <ele>1700</ele>
        <time>2022-07-31T09:07:55Z</time>
      </trkpt>
      <trkpt lat="46.17142" lon="6.64389">
        <ele>1700</ele>
        <time>2022-07-31T09:07:56Z</time>
      </trkpt>
      <trkpt lat="46.17142" lon="6.6439">
        <ele>1700</ele>
        <time>2022-07-31T09:07:57Z</time>
      </trkpt>
      <trkpt lat="46.17142" lon="6.64391">
        <ele>1701</ele>
        <time>2022-07-31T09:07:58Z</time>
      </trkpt>
      <trkpt lat="46.17142" lon="6.64392">
        <ele>1701</ele>
        <time>2022-07-31T09:07:59Z</time>
      </trkpt>
      <trkpt lat="46.17142" lon="6.64393">
        <ele>1701</ele>
        <time>2022-07-31T09:08:00Z</time>
      </trkpt>
      <trkpt lat="46.17141" lon="6.64394">
        <ele>1701</ele>
        <time>2022-07-31T09:08:01Z</time>
      </trkpt>
      <trkpt lat="46.17141" lon="6.64396">
        <ele>1702</ele>
        <time>2022-07-31T09:08:02Z</time>
      </trkpt>
      <trkpt lat="46.17141" lon="6.64397">
        <ele>1702</ele>
        <time>2022-07-31T09:08:03Z</time>
      </trkpt>
      <trkpt lat="46.17141" lon="6.64397">
        <ele>1702</ele>
        <time>2022-07-31T09:08:04Z</time>
      </trkpt>
      <trkpt lat="46.17141" lon="6.64399">
        <ele>1702</ele>
        <time>2022-07-31T09:08:05Z</time>
      </trkpt>
      <trkpt lat="46.17141" lon="6.644">
        <ele>1703</ele>
        <time>2022-07-31T09:08:06Z</time>
      </trkpt>
      <trkpt lat="46.17141" lon="6.64401">
        <ele>1703</ele>
        <time>2022-07-31T09:08:07Z</time>
      </trkpt>
      <trkpt lat="46.1714" lon="6.64401">
        <ele>1703</ele>
        <time>2022-07-31T09:08:08Z</time>
      </trkpt>
      <trkpt lat="46.1714" lon="6.64401">
        <ele>1703</ele>
        <time>2022-07-31T09:08:09Z</time>
      </trkpt>
      <trkpt lat="46.17139" lon="6.64402">
        <ele>1704</ele>
        <time>2022-07-31T09:08:10Z</time>
      </trkpt>
      <trkpt lat="46.17139" lon="6.64403">
        <ele>1704</ele>
        <time>2022-07-31T09:08:11Z</time>
      </trkpt>
      <trkpt lat="46.17139" lon="6.64404">
        <ele>1704</ele>
        <time>2022-07-31T09:08:12Z</time>
      </trkpt>
      <trkpt lat="46.17139" lon="6.64404">
        <ele>1704</ele>
        <time>2022-07-31T09:08:13Z</time>
      </trkpt>
      <trkpt lat="46.17139" lon="6.64406">
        <ele>1705</ele>
        <time>2022-07-31T09:08:14Z</time>
      </trkpt>
      <trkpt lat="46.17139" lon="6.64407">
        <ele>1705</ele>
        <time>2022-07-31T09:08:15Z</time>
      </trkpt>
      <trkpt lat="46.17138" lon="6.64408">
        <ele>1705</ele>
        <time>2022-07-31T09:08:16Z</time>
      </trkpt>
      <trkpt lat="46.17137" lon="6.64409">
        <ele>1705</ele>
        <time>2022-07-31T09:08:17Z</time>
      </trkpt>
      <trkpt lat="46.17137" lon="6.6441">
        <ele>1705</ele>
        <time>2022-07-31T09:08:18Z</time>
      </trkpt>
      <trkpt lat="46.17136" lon="6.64412">
        <ele>1706</ele>
        <time>2022-07-31T09:08:19Z</time>
      </trkpt>
      <trkpt lat="46.17136" lon="6.64413">
        <ele>1706</ele>
        <time>2022-07-31T09:08:20Z</time>
      </trkpt>
      <trkpt lat="46.17135" lon="6.64414">
        <ele>1706</ele>
        <time>2022-07-31T09:08:21Z</time>
      </trkpt>
      <trkpt lat="46.17135" lon="6.64414">
        <ele>1706</ele>
        <time>2022-07-31T09:08:22Z</time>
      </trkpt>
      <trkpt lat="46.17135" lon="6.64415">
        <ele>1706</ele>
        <time>2022-07-31T09:08:23Z</time>
      </trkpt>
      <trkpt lat="46.17135" lon="6.64416">
        <ele>1706</ele>
        <time>2022-07-31T09:08:24Z</time>
      </trkpt>
      <trkpt lat="46.17134" lon="6.64417">
        <ele>1706</ele>
        <time>2022-07-31T09:08:25Z</time>
      </trkpt>
      <trkpt lat="46.17133" lon="6.64418">
        <ele>1707</ele>
        <time>2022-07-31T09:08:26Z</time>
      </trkpt>
      <trkpt lat="46.17133" lon="6.64419">
        <ele>1707</ele>
        <time>2022-07-31T09:08:27Z</time>
      </trkpt>
      <trkpt lat="46.17132" lon="6.64419">
        <ele>1707</ele>
        <time>2022-07-31T09:08:28Z</time>
      </trkpt>
      <trkpt lat="46.17132" lon="6.64419">
        <ele>1707</ele>
        <time>2022-07-31T09:08:29Z</time>
      </trkpt>
      <trkpt lat="46.17131" lon="6.6442">
        <ele>1707</ele>
        <time>2022-07-31T09:08:30Z</time>
      </trkpt>
      <trkpt lat="46.17131" lon="6.64421">
        <ele>1707</ele>
        <time>2022-07-31T09:08:31Z</time>
      </trkpt>
      <trkpt lat="46.1713" lon="6.64421">
        <ele>1707</ele>
        <time>2022-07-31T09:08:32Z</time>
      </trkpt>
      <trkpt lat="46.1713" lon="6.64422">
        <ele>1707</ele>
        <time>2022-07-31T09:08:33Z</time>
      </trkpt>
      <trkpt lat="46.1713" lon="6.64423">
        <ele>1708</ele>
        <time>2022-07-31T09:08:34Z</time>
      </trkpt>
      <trkpt lat="46.1713" lon="6.64424">
        <ele>1708</ele>
        <time>2022-07-31T09:08:35Z</time>
      </trkpt>
      <trkpt lat="46.1713" lon="6.64425">
        <ele>1708</ele>
        <time>2022-07-31T09:08:36Z</time>
      </trkpt>
      <trkpt lat="46.17129" lon="6.64426">
        <ele>1708</ele>
        <time>2022-07-31T09:08:37Z</time>
      </trkpt>
      <trkpt lat="46.17129" lon="6.64428">
        <ele>1709</ele>
        <time>2022-07-31T09:08:38Z</time>
      </trkpt>
      <trkpt lat="46.17129" lon="6.64429">
        <ele>1709</ele>
        <time>2022-07-31T09:08:39Z</time>
      </trkpt>
      <trkpt lat="46.17129" lon="6.64429">
        <ele>1709</ele>
        <time>2022-07-31T09:08:40Z</time>
      </trkpt>
      <trkpt lat="46.17128" lon="6.64431">
        <ele>1709</ele>
        <time>2022-07-31T09:08:41Z</time>
      </trkpt>
      <trkpt lat="46.17128" lon="6.64431">
        <ele>1710</ele>
        <time>2022-07-31T09:08:42Z</time>
      </trkpt>
      <trkpt lat="46.17128" lon="6.64433">
        <ele>1710</ele>
        <time>2022-07-31T09:08:43Z</time>
      </trkpt>
      <trkpt lat="46.17128" lon="6.64434">
        <ele>1710</ele>
        <time>2022-07-31T09:08:44Z</time>
      </trkpt>
      <trkpt lat="46.17127" lon="6.64436">
        <ele>1710</ele>
        <time>2022-07-31T09:08:45Z</time>
      </trkpt>
      <trkpt lat="46.17128" lon="6.64437">
        <ele>1711</ele>
        <time>2022-07-31T09:08:46Z</time>
      </trkpt>
      <trkpt lat="46.17128" lon="6.64438">
        <ele>1711</ele>
        <time>2022-07-31T09:08:47Z</time>
      </trkpt>
      <trkpt lat="46.17128" lon="6.64439">
        <ele>1711</ele>
        <time>2022-07-31T09:08:48Z</time>
      </trkpt>
      <trkpt lat="46.17128" lon="6.64439">
        <ele>1711</ele>
        <time>2022-07-31T09:08:49Z</time>
      </trkpt>
      <trkpt lat="46.17128" lon="6.64439">
        <ele>1711</ele>
        <time>2022-07-31T09:08:50Z</time>
      </trkpt>
      <trkpt lat="46.17128" lon="6.64441">
        <ele>1712</ele>
        <time>2022-07-31T09:08:51Z</time>
      </trkpt>
      <trkpt lat="46.17128" lon="6.64441">
        <ele>1712</ele>
        <time>2022-07-31T09:08:52Z</time>
      </trkpt>
      <trkpt lat="46.17128" lon="6.64442">
        <ele>1712</ele>
        <time>2022-07-31T09:08:53Z</time>
      </trkpt>
      <trkpt lat="46.17128" lon="6.64443">
        <ele>1712</ele>
        <time>2022-07-31T09:08:54Z</time>
      </trkpt>
      <trkpt lat="46.17129" lon="6.64444">
        <ele>1712</ele>
        <time>2022-07-31T09:08:55Z</time>
      </trkpt>
      <trkpt lat="46.17129" lon="6.64444">
        <ele>1713</ele>
        <time>2022-07-31T09:08:56Z</time>
      </trkpt>
      <trkpt lat="46.1713" lon="6.64445">
        <ele>1713</ele>
        <time>2022-07-31T09:08:57Z</time>
      </trkpt>
      <trkpt lat="46.1713" lon="6.64446">
        <ele>1713</ele>
        <time>2022-07-31T09:08:58Z</time>
      </trkpt>
      <trkpt lat="46.1713" lon="6.64447">
        <ele>1713</ele>
        <time>2022-07-31T09:08:59Z</time>
      </trkpt>
      <trkpt lat="46.17129" lon="6.64447">
        <ele>1713</ele>
        <time>2022-07-31T09:09:00Z</time>
      </trkpt>
      <trkpt lat="46.17129" lon="6.64448">
        <ele>1713</ele>
        <time>2022-07-31T09:09:01Z</time>
      </trkpt>
      <trkpt lat="46.17129" lon="6.64448">
        <ele>1713</ele>
        <time>2022-07-31T09:09:02Z</time>
      </trkpt>
      <trkpt lat="46.17129" lon="6.64449">
        <ele>1713</ele>
        <time>2022-07-31T09:09:03Z</time>
      </trkpt>
      <trkpt lat="46.17129" lon="6.64449">
        <ele>1713</ele>
        <time>2022-07-31T09:09:04Z</time>
      </trkpt>
      <trkpt lat="46.17129" lon="6.6445">
        <ele>1713</ele>
        <time>2022-07-31T09:09:05Z</time>
      </trkpt>
      <trkpt lat="46.17129" lon="6.6445">
        <ele>1713</ele>
        <time>2022-07-31T09:09:06Z</time>
      </trkpt>
      <trkpt lat="46.17129" lon="6.64449">
        <ele>1713</ele>
        <time>2022-07-31T09:09:07Z</time>
      </trkpt>
      <trkpt lat="46.17129" lon="6.64449">
        <ele>1714</ele>
        <time>2022-07-31T09:09:08Z</time>
      </trkpt>
      <trkpt lat="46.17128" lon="6.64449">
        <ele>1714</ele>
        <time>2022-07-31T09:09:09Z</time>
      </trkpt>
      <trkpt lat="46.17128" lon="6.64448">
        <ele>1714</ele>
        <time>2022-07-31T09:09:10Z</time>
      </trkpt>
      <trkpt lat="46.17128" lon="6.64449">
        <ele>1714</ele>
        <time>2022-07-31T09:09:11Z</time>
      </trkpt>
      <trkpt lat="46.17128" lon="6.64449">
        <ele>1714</ele>
        <time>2022-07-31T09:09:12Z</time>
      </trkpt>
      <trkpt lat="46.17128" lon="6.6445">
        <ele>1714</ele>
        <time>2022-07-31T09:09:13Z</time>
      </trkpt>
      <trkpt lat="46.17127" lon="6.64451">
        <ele>1714</ele>
        <time>2022-07-31T09:09:14Z</time>
      </trkpt>
      <trkpt lat="46.17127" lon="6.64451">
        <ele>1714</ele>
        <time>2022-07-31T09:09:15Z</time>
      </trkpt>
      <trkpt lat="46.17128" lon="6.64451">
        <ele>1715</ele>
        <time>2022-07-31T09:09:16Z</time>
      </trkpt>
      <trkpt lat="46.17128" lon="6.6445">
        <ele>1715</ele>
        <time>2022-07-31T09:09:17Z</time>
      </trkpt>
      <trkpt lat="46.17128" lon="6.6445">
        <ele>1715</ele>
        <time>2022-07-31T09:09:18Z</time>
      </trkpt>
      <trkpt lat="46.17128" lon="6.6445">
        <ele>1716</ele>
        <time>2022-07-31T09:09:19Z</time>
      </trkpt>
      <trkpt lat="46.17128" lon="6.6445">
        <ele>1716</ele>
        <time>2022-07-31T09:09:20Z</time>
      </trkpt>
      <trkpt lat="46.17128" lon="6.6445">
        <ele>1716</ele>
        <time>2022-07-31T09:09:21Z</time>
      </trkpt>
      <trkpt lat="46.17128" lon="6.64449">
        <ele>1716</ele>
        <time>2022-07-31T09:09:22Z</time>
      </trkpt>
      <trkpt lat="46.17128" lon="6.6445">
        <ele>1716</ele>
        <time>2022-07-31T09:09:23Z</time>
      </trkpt>
      <trkpt lat="46.17128" lon="6.6445">
        <ele>1717</ele>
        <time>2022-07-31T09:09:24Z</time>
      </trkpt>
      <trkpt lat="46.17128" lon="6.6445">
        <ele>1717</ele>
        <time>2022-07-31T09:09:25Z</time>
      </trkpt>
      <trkpt lat="46.17128" lon="6.6445">
        <ele>1717</ele>
        <time>2022-07-31T09:09:26Z</time>
      </trkpt>
      <trkpt lat="46.17128" lon="6.6445">
        <ele>1717</ele>
        <time>2022-07-31T09:09:27Z</time>
      </trkpt>
      <trkpt lat="46.17128" lon="6.6445">
        <ele>1717</ele>
        <time>2022-07-31T09:09:28Z</time>
      </trkpt>
      <trkpt lat="46.17128" lon="6.6445">
        <ele>1718</ele>
        <time>2022-07-31T09:09:29Z</time>
      </trkpt>
      <trkpt lat="46.17128" lon="6.6445">
        <ele>1718</ele>
        <time>2022-07-31T09:09:30Z</time>
      </trkpt>
      <trkpt lat="46.17128" lon="6.6445">
        <ele>1718</ele>
        <time>2022-07-31T09:09:31Z</time>
      </trkpt>
      <trkpt lat="46.17128" lon="6.6445">
        <ele>1718</ele>
        <time>2022-07-31T09:09:32Z</time>
      </trkpt>
      <trkpt lat="46.17128" lon="6.6445">
        <ele>1718</ele>
        <time>2022-07-31T09:09:33Z</time>
      </trkpt>
      <trkpt lat="46.17127" lon="6.6445">
        <ele>1718</ele>
        <time>2022-07-31T09:09:34Z</time>
      </trkpt>
      <trkpt lat="46.17127" lon="6.6445">
        <ele>1719</ele>
        <time>2022-07-31T09:09:35Z</time>
      </trkpt>
      <trkpt lat="46.17127" lon="6.6445">
        <ele>1719</ele>
        <time>2022-07-31T09:09:36Z</time>
      </trkpt>
      <trkpt lat="46.17127" lon="6.6445">
        <ele>1719</ele>
        <time>2022-07-31T09:09:37Z</time>
      </trkpt>
      <trkpt lat="46.17127" lon="6.6445">
        <ele>1719</ele>
        <time>2022-07-31T09:09:38Z</time>
      </trkpt>
      <trkpt lat="46.17128" lon="6.6445">
        <ele>1719</ele>
        <time>2022-07-31T09:09:39Z</time>
      </trkpt>
      <trkpt lat="46.17128" lon="6.6445">
        <ele>1719</ele>
        <time>2022-07-31T09:09:40Z</time>
      </trkpt>
      <trkpt lat="46.17128" lon="6.6445">
        <ele>1719</ele>
        <time>2022-07-31T09:09:41Z</time>
      </trkpt>
      <trkpt lat="46.17128" lon="6.6445">
        <ele>1719</ele>
        <time>2022-07-31T09:09:42Z</time>
      </trkpt>
      <trkpt lat="46.17128" lon="6.6445">
        <ele>1720</ele>
        <time>2022-07-31T09:09:43Z</time>
      </trkpt>
      <trkpt lat="46.17127" lon="6.6445">
        <ele>1720</ele>
        <time>2022-07-31T09:09:44Z</time>
      </trkpt>
      <trkpt lat="46.17128" lon="6.6445">
        <ele>1720</ele>
        <time>2022-07-31T09:09:45Z</time>
      </trkpt>
      <trkpt lat="46.17128" lon="6.6445">
        <ele>1720</ele>
        <time>2022-07-31T09:09:46Z</time>
      </trkpt>
      <trkpt lat="46.17128" lon="6.6445">
        <ele>1720</ele>
        <time>2022-07-31T09:09:47Z</time>
      </trkpt>
      <trkpt lat="46.17128" lon="6.6445">
        <ele>1720</ele>
        <time>2022-07-31T09:09:48Z</time>
      </trkpt>
      <trkpt lat="46.17128" lon="6.6445">
        <ele>1720</ele>
        <time>2022-07-31T09:09:49Z</time>
      </trkpt>
      <trkpt lat="46.17128" lon="6.6445">
        <ele>1720</ele>
        <time>2022-07-31T09:09:50Z</time>
      </trkpt>
      <trkpt lat="46.17128" lon="6.6445">
        <ele>1720</ele>
        <time>2022-07-31T09:09:51Z</time>
      </trkpt>
      <trkpt lat="46.17128" lon="6.6445">
        <ele>1720</ele>
        <time>2022-07-31T09:09:52Z</time>
      </trkpt>
      <trkpt lat="46.17128" lon="6.6445">
        <ele>1720</ele>
        <time>2022-07-31T09:09:53Z</time>
      </trkpt>
      <trkpt lat="46.17128" lon="6.6445">
        <ele>1720</ele>
        <time>2022-07-31T09:09:54Z</time>
      </trkpt>
      <trkpt lat="46.17128" lon="6.6445">
        <ele>1720</ele>
        <time>2022-07-31T09:09:55Z</time>
      </trkpt>
      <trkpt lat="46.17128" lon="6.6445">
        <ele>1720</ele>
        <time>2022-07-31T09:09:56Z</time>
      </trkpt>
      <trkpt lat="46.17128" lon="6.64449">
        <ele>1720</ele>
        <time>2022-07-31T09:09:57Z</time>
      </trkpt>
      <trkpt lat="46.17128" lon="6.64449">
        <ele>1720</ele>
        <time>2022-07-31T09:09:58Z</time>
      </trkpt>
      <trkpt lat="46.17128" lon="6.64449">
        <ele>1720</ele>
        <time>2022-07-31T09:09:59Z</time>
      </trkpt>
      <trkpt lat="46.17128" lon="6.64449">
        <ele>1721</ele>
        <time>2022-07-31T09:10:00Z</time>
      </trkpt>
      <trkpt lat="46.17128" lon="6.64449">
        <ele>1721</ele>
        <time>2022-07-31T09:10:01Z</time>
      </trkpt>
      <trkpt lat="46.17128" lon="6.64449">
        <ele>1721</ele>
        <time>2022-07-31T09:10:02Z</time>
      </trkpt>
      <trkpt lat="46.17128" lon="6.64449">
        <ele>1721</ele>
        <time>2022-07-31T09:10:03Z</time>
      </trkpt>
      <trkpt lat="46.17128" lon="6.64449">
        <ele>1721</ele>
        <time>2022-07-31T09:10:04Z</time>
      </trkpt>
      <trkpt lat="46.17128" lon="6.64449">
        <ele>1721</ele>
        <time>2022-07-31T09:10:05Z</time>
      </trkpt>
      <trkpt lat="46.17128" lon="6.64449">
        <ele>1721</ele>
        <time>2022-07-31T09:10:06Z</time>
      </trkpt>
      <trkpt lat="46.17128" lon="6.64449">
        <ele>1721</ele>
        <time>2022-07-31T09:10:07Z</time>
      </trkpt>
      <trkpt lat="46.17128" lon="6.64449">
        <ele>1721</ele>
        <time>2022-07-31T09:10:08Z</time>
      </trkpt>
      <trkpt lat="46.17128" lon="6.64449">
        <ele>1721</ele>
        <time>2022-07-31T09:10:09Z</time>
      </trkpt>
      <trkpt lat="46.17128" lon="6.64449">
        <ele>1721</ele>
        <time>2022-07-31T09:10:10Z</time>
      </trkpt>
      <trkpt lat="46.17128" lon="6.64449">
        <ele>1721</ele>
        <time>2022-07-31T09:10:11Z</time>
      </trkpt>
      <trkpt lat="46.17128" lon="6.64449">
        <ele>1721</ele>
        <time>2022-07-31T09:10:12Z</time>
      </trkpt>
      <trkpt lat="46.17128" lon="6.64449">
        <ele>1721</ele>
        <time>2022-07-31T09:10:13Z</time>
      </trkpt>
      <trkpt lat="46.17128" lon="6.64449">
        <ele>1721</ele>
        <time>2022-07-31T09:10:14Z</time>
      </trkpt>
      <trkpt lat="46.17128" lon="6.64449">
        <ele>1721</ele>
        <time>2022-07-31T09:10:15Z</time>
      </trkpt>
      <trkpt lat="46.17128" lon="6.64449">
        <ele>1721</ele>
        <time>2022-07-31T09:10:16Z</time>
      </trkpt>
      <trkpt lat="46.17128" lon="6.64449">
        <ele>1721</ele>
        <time>2022-07-31T09:10:17Z</time>
      </trkpt>
      <trkpt lat="46.17128" lon="6.64449">
        <ele>1721</ele>
        <time>2022-07-31T09:10:18Z</time>
      </trkpt>
      <trkpt lat="46.17128" lon="6.64449">
        <ele>1721</ele>
        <time>2022-07-31T09:10:19Z</time>
      </trkpt>
      <trkpt lat="46.17128" lon="6.64449">
        <ele>1721</ele>
        <time>2022-07-31T09:10:20Z</time>
      </trkpt>
      <trkpt lat="46.17128" lon="6.64449">
        <ele>1721</ele>
        <time>2022-07-31T09:10:21Z</time>
      </trkpt>
      <trkpt lat="46.17128" lon="6.64449">
        <ele>1721</ele>
        <time>2022-07-31T09:10:22Z</time>
      </trkpt>
      <trkpt lat="46.17128" lon="6.64449">
        <ele>1721</ele>
        <time>2022-07-31T09:10:23Z</time>
      </trkpt>
      <trkpt lat="46.17128" lon="6.64449">
        <ele>1721</ele>
        <time>2022-07-31T09:10:24Z</time>
      </trkpt>
      <trkpt lat="46.17128" lon="6.64449">
        <ele>1721</ele>
        <time>2022-07-31T09:10:25Z</time>
      </trkpt>
      <trkpt lat="46.17128" lon="6.64449">
        <ele>1721</ele>
        <time>2022-07-31T09:10:26Z</time>
      </trkpt>
      <trkpt lat="46.17128" lon="6.64449">
        <ele>1721</ele>
        <time>2022-07-31T09:10:27Z</time>
      </trkpt>
      <trkpt lat="46.17128" lon="6.64449">
        <ele>1721</ele>
        <time>2022-07-31T09:10:28Z</time>
      </trkpt>
      <trkpt lat="46.17128" lon="6.64449">
        <ele>1721</ele>
        <time>2022-07-31T09:10:29Z</time>
      </trkpt>
      <trkpt lat="46.17128" lon="6.64449">
        <ele>1721</ele>
        <time>2022-07-31T09:10:30Z</time>
      </trkpt>
      <trkpt lat="46.17128" lon="6.64449">
        <ele>1721</ele>
        <time>2022-07-31T09:10:31Z</time>
      </trkpt>
      <trkpt lat="46.17128" lon="6.64449">
        <ele>1721</ele>
        <time>2022-07-31T09:10:32Z</time>
      </trkpt>
      <trkpt lat="46.17128" lon="6.64449">
        <ele>1721</ele>
        <time>2022-07-31T09:10:33Z</time>
      </trkpt>
      <trkpt lat="46.17128" lon="6.64449">
        <ele>1721</ele>
        <time>2022-07-31T09:10:34Z</time>
      </trkpt>
      <trkpt lat="46.17128" lon="6.64448">
        <ele>1721</ele>
        <time>2022-07-31T09:10:35Z</time>
      </trkpt>
      <trkpt lat="46.17128" lon="6.64449">
        <ele>1721</ele>
        <time>2022-07-31T09:10:36Z</time>
      </trkpt>
      <trkpt lat="46.17128" lon="6.64449">
        <ele>1721</ele>
        <time>2022-07-31T09:10:37Z</time>
      </trkpt>
      <trkpt lat="46.17128" lon="6.64449">
        <ele>1721</ele>
        <time>2022-07-31T09:10:38Z</time>
      </trkpt>
      <trkpt lat="46.17129" lon="6.64449">
        <ele>1721</ele>
        <time>2022-07-31T09:10:39Z</time>
      </trkpt>
      <trkpt lat="46.17129" lon="6.64449">
        <ele>1721</ele>
        <time>2022-07-31T09:10:40Z</time>
      </trkpt>
      <trkpt lat="46.17129" lon="6.64449">
        <ele>1721</ele>
        <time>2022-07-31T09:10:41Z</time>
      </trkpt>
      <trkpt lat="46.17129" lon="6.64449">
        <ele>1721</ele>
        <time>2022-07-31T09:10:42Z</time>
      </trkpt>
      <trkpt lat="46.17129" lon="6.64449">
        <ele>1721</ele>
        <time>2022-07-31T09:10:43Z</time>
      </trkpt>
      <trkpt lat="46.17129" lon="6.64449">
        <ele>1721</ele>
        <time>2022-07-31T09:10:44Z</time>
      </trkpt>
      <trkpt lat="46.17129" lon="6.64449">
        <ele>1721</ele>
        <time>2022-07-31T09:10:45Z</time>
      </trkpt>
      <trkpt lat="46.17129" lon="6.64449">
        <ele>1721</ele>
        <time>2022-07-31T09:10:46Z</time>
      </trkpt>
      <trkpt lat="46.17129" lon="6.64449">
        <ele>1721</ele>
        <time>2022-07-31T09:10:47Z</time>
      </trkpt>
      <trkpt lat="46.17129" lon="6.64449">
        <ele>1721</ele>
        <time>2022-07-31T09:10:48Z</time>
      </trkpt>
      <trkpt lat="46.17128" lon="6.64449">
        <ele>1721</ele>
        <time>2022-07-31T09:10:49Z</time>
      </trkpt>
      <trkpt lat="46.17128" lon="6.64449">
        <ele>1721</ele>
        <time>2022-07-31T09:10:50Z</time>
      </trkpt>
      <trkpt lat="46.17128" lon="6.64449">
        <ele>1721</ele>
        <time>2022-07-31T09:10:51Z</time>
      </trkpt>
      <trkpt lat="46.17128" lon="6.64449">
        <ele>1721</ele>
        <time>2022-07-31T09:10:52Z</time>
      </trkpt>
      <trkpt lat="46.17128" lon="6.64449">
        <ele>1721</ele>
        <time>2022-07-31T09:10:53Z</time>
      </trkpt>
      <trkpt lat="46.17128" lon="6.64449">
        <ele>1721</ele>
        <time>2022-07-31T09:10:54Z</time>
      </trkpt>
      <trkpt lat="46.17128" lon="6.64449">
        <ele>1721</ele>
        <time>2022-07-31T09:10:55Z</time>
      </trkpt>
      <trkpt lat="46.17128" lon="6.64449">
        <ele>1721</ele>
        <time>2022-07-31T09:10:56Z</time>
      </trkpt>
      <trkpt lat="46.17128" lon="6.64449">
        <ele>1721</ele>
        <time>2022-07-31T09:10:57Z</time>
      </trkpt>
      <trkpt lat="46.17128" lon="6.64449">
        <ele>1721</ele>
        <time>2022-07-31T09:10:58Z</time>
      </trkpt>
      <trkpt lat="46.17128" lon="6.64449">
        <ele>1721</ele>
        <time>2022-07-31T09:10:59Z</time>
      </trkpt>
      <trkpt lat="46.17128" lon="6.64449">
        <ele>1721</ele>
        <time>2022-07-31T09:11:00Z</time>
      </trkpt>
      <trkpt lat="46.17128" lon="6.64449">
        <ele>1721</ele>
        <time>2022-07-31T09:11:01Z</time>
      </trkpt>
      <trkpt lat="46.17128" lon="6.64449">
        <ele>1721</ele>
        <time>2022-07-31T09:11:02Z</time>
      </trkpt>
      <trkpt lat="46.17128" lon="6.64449">
        <ele>1721</ele>
        <time>2022-07-31T09:11:03Z</time>
      </trkpt>
      <trkpt lat="46.17128" lon="6.64449">
        <ele>1722</ele>
        <time>2022-07-31T09:11:04Z</time>
      </trkpt>
      <trkpt lat="46.17128" lon="6.64449">
        <ele>1722</ele>
        <time>2022-07-31T09:11:05Z</time>
      </trkpt>
      <trkpt lat="46.17128" lon="6.64449">
        <ele>1722</ele>
        <time>2022-07-31T09:11:06Z</time>
      </trkpt>
      <trkpt lat="46.17128" lon="6.64449">
        <ele>1722</ele>
        <time>2022-07-31T09:11:07Z</time>
      </trkpt>
      <trkpt lat="46.17128" lon="6.64449">
        <ele>1722</ele>
        <time>2022-07-31T09:11:08Z</time>
      </trkpt>
      <trkpt lat="46.17128" lon="6.64449">
        <ele>1722</ele>
        <time>2022-07-31T09:11:09Z</time>
      </trkpt>
      <trkpt lat="46.17128" lon="6.64449">
        <ele>1722</ele>
        <time>2022-07-31T09:11:10Z</time>
      </trkpt>
      <trkpt lat="46.17128" lon="6.64449">
        <ele>1722</ele>
        <time>2022-07-31T09:11:11Z</time>
      </trkpt>
      <trkpt lat="46.17128" lon="6.64449">
        <ele>1722</ele>
        <time>2022-07-31T09:11:12Z</time>
      </trkpt>
      <trkpt lat="46.17128" lon="6.64449">
        <ele>1722</ele>
        <time>2022-07-31T09:11:13Z</time>
      </trkpt>
      <trkpt lat="46.17128" lon="6.64449">
        <ele>1722</ele>
        <time>2022-07-31T09:11:14Z</time>
      </trkpt>
      <trkpt lat="46.17128" lon="6.64449">
        <ele>1722</ele>
        <time>2022-07-31T09:11:15Z</time>
      </trkpt>
      <trkpt lat="46.17128" lon="6.64449">
        <ele>1722</ele>
        <time>2022-07-31T09:11:16Z</time>
      </trkpt>
      <trkpt lat="46.17128" lon="6.64449">
        <ele>1722</ele>
        <time>2022-07-31T09:11:17Z</time>
      </trkpt>
      <trkpt lat="46.17128" lon="6.64449">
        <ele>1722</ele>
        <time>2022-07-31T09:11:18Z</time>
      </trkpt>
      <trkpt lat="46.17128" lon="6.64449">
        <ele>1722</ele>
        <time>2022-07-31T09:11:19Z</time>
      </trkpt>
      <trkpt lat="46.17129" lon="6.6445">
        <ele>1722</ele>
        <time>2022-07-31T09:11:20Z</time>
      </trkpt>
      <trkpt lat="46.17129" lon="6.64451">
        <ele>1722</ele>
        <time>2022-07-31T09:11:21Z</time>
      </trkpt>
      <trkpt lat="46.17128" lon="6.64452">
        <ele>1722</ele>
        <time>2022-07-31T09:11:22Z</time>
      </trkpt>
      <trkpt lat="46.17128" lon="6.64454">
        <ele>1722</ele>
        <time>2022-07-31T09:11:23Z</time>
      </trkpt>
      <trkpt lat="46.17128" lon="6.64455">
        <ele>1722</ele>
        <time>2022-07-31T09:11:24Z</time>
      </trkpt>
      <trkpt lat="46.17128" lon="6.64456">
        <ele>1722</ele>
        <time>2022-07-31T09:11:25Z</time>
      </trkpt>
      <trkpt lat="46.17127" lon="6.64457">
        <ele>1722</ele>
        <time>2022-07-31T09:11:26Z</time>
      </trkpt>
      <trkpt lat="46.17127" lon="6.64459">
        <ele>1722</ele>
        <time>2022-07-31T09:11:27Z</time>
      </trkpt>
      <trkpt lat="46.17127" lon="6.6446">
        <ele>1722</ele>
        <time>2022-07-31T09:11:28Z</time>
      </trkpt>
      <trkpt lat="46.17127" lon="6.64461">
        <ele>1722</ele>
        <time>2022-07-31T09:11:29Z</time>
      </trkpt>
      <trkpt lat="46.17126" lon="6.64463">
        <ele>1722</ele>
        <time>2022-07-31T09:11:30Z</time>
      </trkpt>
      <trkpt lat="46.17126" lon="6.64463">
        <ele>1722</ele>
        <time>2022-07-31T09:11:31Z</time>
      </trkpt>
      <trkpt lat="46.17125" lon="6.64464">
        <ele>1722</ele>
        <time>2022-07-31T09:11:32Z</time>
      </trkpt>
      <trkpt lat="46.17124" lon="6.64465">
        <ele>1722</ele>
        <time>2022-07-31T09:11:33Z</time>
      </trkpt>
      <trkpt lat="46.17123" lon="6.64466">
        <ele>1722</ele>
        <time>2022-07-31T09:11:34Z</time>
      </trkpt>
      <trkpt lat="46.17122" lon="6.64467">
        <ele>1722</ele>
        <time>2022-07-31T09:11:35Z</time>
      </trkpt>
      <trkpt lat="46.17121" lon="6.64468">
        <ele>1723</ele>
        <time>2022-07-31T09:11:36Z</time>
      </trkpt>
      <trkpt lat="46.17121" lon="6.6447">
        <ele>1723</ele>
        <time>2022-07-31T09:11:37Z</time>
      </trkpt>
      <trkpt lat="46.17121" lon="6.64471">
        <ele>1723</ele>
        <time>2022-07-31T09:11:38Z</time>
      </trkpt>
      <trkpt lat="46.1712" lon="6.64472">
        <ele>1723</ele>
        <time>2022-07-31T09:11:39Z</time>
      </trkpt>
      <trkpt lat="46.1712" lon="6.64472">
        <ele>1724</ele>
        <time>2022-07-31T09:11:40Z</time>
      </trkpt>
      <trkpt lat="46.1712" lon="6.64471">
        <ele>1724</ele>
        <time>2022-07-31T09:11:41Z</time>
      </trkpt>
      <trkpt lat="46.17119" lon="6.64472">
        <ele>1724</ele>
        <time>2022-07-31T09:11:42Z</time>
      </trkpt>
      <trkpt lat="46.17119" lon="6.64473">
        <ele>1724</ele>
        <time>2022-07-31T09:11:43Z</time>
      </trkpt>
      <trkpt lat="46.17118" lon="6.64473">
        <ele>1725</ele>
        <time>2022-07-31T09:11:44Z</time>
      </trkpt>
      <trkpt lat="46.17118" lon="6.64474">
        <ele>1725</ele>
        <time>2022-07-31T09:11:45Z</time>
      </trkpt>
      <trkpt lat="46.17118" lon="6.64475">
        <ele>1725</ele>
        <time>2022-07-31T09:11:46Z</time>
      </trkpt>
      <trkpt lat="46.17118" lon="6.64475">
        <ele>1725</ele>
        <time>2022-07-31T09:11:47Z</time>
      </trkpt>
      <trkpt lat="46.17118" lon="6.64476">
        <ele>1726</ele>
        <time>2022-07-31T09:11:48Z</time>
      </trkpt>
      <trkpt lat="46.17117" lon="6.64477">
        <ele>1726</ele>
        <time>2022-07-31T09:11:49Z</time>
      </trkpt>
      <trkpt lat="46.17117" lon="6.64478">
        <ele>1726</ele>
        <time>2022-07-31T09:11:50Z</time>
      </trkpt>
      <trkpt lat="46.17117" lon="6.64479">
        <ele>1726</ele>
        <time>2022-07-31T09:11:51Z</time>
      </trkpt>
      <trkpt lat="46.17118" lon="6.6448">
        <ele>1726</ele>
        <time>2022-07-31T09:11:52Z</time>
      </trkpt>
      <trkpt lat="46.17117" lon="6.64482">
        <ele>1726</ele>
        <time>2022-07-31T09:11:53Z</time>
      </trkpt>
      <trkpt lat="46.17117" lon="6.64483">
        <ele>1726</ele>
        <time>2022-07-31T09:11:54Z</time>
      </trkpt>
      <trkpt lat="46.17117" lon="6.64484">
        <ele>1727</ele>
        <time>2022-07-31T09:11:55Z</time>
      </trkpt>
      <trkpt lat="46.17116" lon="6.64485">
        <ele>1727</ele>
        <time>2022-07-31T09:11:56Z</time>
      </trkpt>
      <trkpt lat="46.17115" lon="6.64487">
        <ele>1727</ele>
        <time>2022-07-31T09:11:57Z</time>
      </trkpt>
      <trkpt lat="46.17115" lon="6.64488">
        <ele>1727</ele>
        <time>2022-07-31T09:11:58Z</time>
      </trkpt>
      <trkpt lat="46.17115" lon="6.64489">
        <ele>1727</ele>
        <time>2022-07-31T09:11:59Z</time>
      </trkpt>
      <trkpt lat="46.17115" lon="6.6449">
        <ele>1727</ele>
        <time>2022-07-31T09:12:00Z</time>
      </trkpt>
      <trkpt lat="46.17117" lon="6.64491">
        <ele>1727</ele>
        <time>2022-07-31T09:12:01Z</time>
      </trkpt>
      <trkpt lat="46.17117" lon="6.64492">
        <ele>1727</ele>
        <time>2022-07-31T09:12:02Z</time>
      </trkpt>
      <trkpt lat="46.17117" lon="6.64493">
        <ele>1727</ele>
        <time>2022-07-31T09:12:03Z</time>
      </trkpt>
      <trkpt lat="46.17117" lon="6.64495">
        <ele>1727</ele>
        <time>2022-07-31T09:12:04Z</time>
      </trkpt>
      <trkpt lat="46.17117" lon="6.64496">
        <ele>1727</ele>
        <time>2022-07-31T09:12:05Z</time>
      </trkpt>
      <trkpt lat="46.17118" lon="6.64498">
        <ele>1727</ele>
        <time>2022-07-31T09:12:06Z</time>
      </trkpt>
      <trkpt lat="46.17118" lon="6.64499">
        <ele>1728</ele>
        <time>2022-07-31T09:12:07Z</time>
      </trkpt>
      <trkpt lat="46.17118" lon="6.645">
        <ele>1728</ele>
        <time>2022-07-31T09:12:08Z</time>
      </trkpt>
      <trkpt lat="46.17118" lon="6.64501">
        <ele>1728</ele>
        <time>2022-07-31T09:12:09Z</time>
      </trkpt>
      <trkpt lat="46.17118" lon="6.64501">
        <ele>1728</ele>
        <time>2022-07-31T09:12:10Z</time>
      </trkpt>
      <trkpt lat="46.17118" lon="6.64502">
        <ele>1728</ele>
        <time>2022-07-31T09:12:11Z</time>
      </trkpt>
      <trkpt lat="46.17117" lon="6.64503">
        <ele>1728</ele>
        <time>2022-07-31T09:12:12Z</time>
      </trkpt>
      <trkpt lat="46.17117" lon="6.64503">
        <ele>1728</ele>
        <time>2022-07-31T09:12:13Z</time>
      </trkpt>
      <trkpt lat="46.17116" lon="6.64503">
        <ele>1728</ele>
        <time>2022-07-31T09:12:14Z</time>
      </trkpt>
      <trkpt lat="46.17114" lon="6.64504">
        <ele>1728</ele>
        <time>2022-07-31T09:12:15Z</time>
      </trkpt>
      <trkpt lat="46.17115" lon="6.64504">
        <ele>1728</ele>
        <time>2022-07-31T09:12:16Z</time>
      </trkpt>
      <trkpt lat="46.17115" lon="6.64505">
        <ele>1728</ele>
        <time>2022-07-31T09:12:17Z</time>
      </trkpt>
      <trkpt lat="46.17115" lon="6.64506">
        <ele>1728</ele>
        <time>2022-07-31T09:12:18Z</time>
      </trkpt>
      <trkpt lat="46.17115" lon="6.64507">
        <ele>1728</ele>
        <time>2022-07-31T09:12:19Z</time>
      </trkpt>
      <trkpt lat="46.17115" lon="6.64507">
        <ele>1728</ele>
        <time>2022-07-31T09:12:20Z</time>
      </trkpt>
      <trkpt lat="46.17115" lon="6.64508">
        <ele>1728</ele>
        <time>2022-07-31T09:12:21Z</time>
      </trkpt>
      <trkpt lat="46.17115" lon="6.64509">
        <ele>1728</ele>
        <time>2022-07-31T09:12:22Z</time>
      </trkpt>
      <trkpt lat="46.17114" lon="6.6451">
        <ele>1727</ele>
        <time>2022-07-31T09:12:23Z</time>
      </trkpt>
      <trkpt lat="46.17114" lon="6.64511">
        <ele>1727</ele>
        <time>2022-07-31T09:12:24Z</time>
      </trkpt>
      <trkpt lat="46.17114" lon="6.64511">
        <ele>1728</ele>
        <time>2022-07-31T09:12:25Z</time>
      </trkpt>
      <trkpt lat="46.17114" lon="6.6451">
        <ele>1728</ele>
        <time>2022-07-31T09:12:26Z</time>
      </trkpt>
      <trkpt lat="46.17114" lon="6.6451">
        <ele>1728</ele>
        <time>2022-07-31T09:12:27Z</time>
      </trkpt>
      <trkpt lat="46.17114" lon="6.6451">
        <ele>1728</ele>
        <time>2022-07-31T09:12:28Z</time>
      </trkpt>
      <trkpt lat="46.17114" lon="6.6451">
        <ele>1728</ele>
        <time>2022-07-31T09:12:29Z</time>
      </trkpt>
      <trkpt lat="46.17114" lon="6.6451">
        <ele>1728</ele>
        <time>2022-07-31T09:12:30Z</time>
      </trkpt>
      <trkpt lat="46.17113" lon="6.6451">
        <ele>1729</ele>
        <time>2022-07-31T09:12:31Z</time>
      </trkpt>
      <trkpt lat="46.17113" lon="6.6451">
        <ele>1729</ele>
        <time>2022-07-31T09:12:32Z</time>
      </trkpt>
      <trkpt lat="46.17113" lon="6.6451">
        <ele>1729</ele>
        <time>2022-07-31T09:12:33Z</time>
      </trkpt>
      <trkpt lat="46.17112" lon="6.64511">
        <ele>1729</ele>
        <time>2022-07-31T09:12:34Z</time>
      </trkpt>
      <trkpt lat="46.17112" lon="6.64512">
        <ele>1729</ele>
        <time>2022-07-31T09:12:35Z</time>
      </trkpt>
      <trkpt lat="46.17112" lon="6.64512">
        <ele>1729</ele>
        <time>2022-07-31T09:12:36Z</time>
      </trkpt>
      <trkpt lat="46.17112" lon="6.64513">
        <ele>1729</ele>
        <time>2022-07-31T09:12:37Z</time>
      </trkpt>
      <trkpt lat="46.17111" lon="6.64514">
        <ele>1730</ele>
        <time>2022-07-31T09:12:38Z</time>
      </trkpt>
      <trkpt lat="46.17111" lon="6.64515">
        <ele>1730</ele>
        <time>2022-07-31T09:12:39Z</time>
      </trkpt>
      <trkpt lat="46.17111" lon="6.64516">
        <ele>1730</ele>
        <time>2022-07-31T09:12:40Z</time>
      </trkpt>
      <trkpt lat="46.17111" lon="6.64517">
        <ele>1730</ele>
        <time>2022-07-31T09:12:41Z</time>
      </trkpt>
      <trkpt lat="46.17111" lon="6.64518">
        <ele>1730</ele>
        <time>2022-07-31T09:12:42Z</time>
      </trkpt>
      <trkpt lat="46.17111" lon="6.64519">
        <ele>1731</ele>
        <time>2022-07-31T09:12:43Z</time>
      </trkpt>
      <trkpt lat="46.1711" lon="6.6452">
        <ele>1731</ele>
        <time>2022-07-31T09:12:44Z</time>
      </trkpt>
      <trkpt lat="46.1711" lon="6.64521">
        <ele>1731</ele>
        <time>2022-07-31T09:12:45Z</time>
      </trkpt>
      <trkpt lat="46.1711" lon="6.64522">
        <ele>1731</ele>
        <time>2022-07-31T09:12:46Z</time>
      </trkpt>
      <trkpt lat="46.1711" lon="6.64522">
        <ele>1732</ele>
        <time>2022-07-31T09:12:47Z</time>
      </trkpt>
      <trkpt lat="46.17109" lon="6.64523">
        <ele>1732</ele>
        <time>2022-07-31T09:12:48Z</time>
      </trkpt>
      <trkpt lat="46.17108" lon="6.64524">
        <ele>1732</ele>
        <time>2022-07-31T09:12:49Z</time>
      </trkpt>
      <trkpt lat="46.17108" lon="6.64524">
        <ele>1732</ele>
        <time>2022-07-31T09:12:50Z</time>
      </trkpt>
      <trkpt lat="46.17107" lon="6.64525">
        <ele>1732</ele>
        <time>2022-07-31T09:12:51Z</time>
      </trkpt>
      <trkpt lat="46.17107" lon="6.64525">
        <ele>1733</ele>
        <time>2022-07-31T09:12:52Z</time>
      </trkpt>
      <trkpt lat="46.17107" lon="6.64526">
        <ele>1733</ele>
        <time>2022-07-31T09:12:53Z</time>
      </trkpt>
      <trkpt lat="46.17106" lon="6.64527">
        <ele>1733</ele>
        <time>2022-07-31T09:12:54Z</time>
      </trkpt>
      <trkpt lat="46.17106" lon="6.64527">
        <ele>1733</ele>
        <time>2022-07-31T09:12:55Z</time>
      </trkpt>
      <trkpt lat="46.17106" lon="6.64528">
        <ele>1733</ele>
        <time>2022-07-31T09:12:56Z</time>
      </trkpt>
      <trkpt lat="46.17106" lon="6.64529">
        <ele>1733</ele>
        <time>2022-07-31T09:12:57Z</time>
      </trkpt>
      <trkpt lat="46.17105" lon="6.64529">
        <ele>1733</ele>
        <time>2022-07-31T09:12:58Z</time>
      </trkpt>
      <trkpt lat="46.17105" lon="6.6453">
        <ele>1733</ele>
        <time>2022-07-31T09:12:59Z</time>
      </trkpt>
      <trkpt lat="46.17104" lon="6.64532">
        <ele>1733</ele>
        <time>2022-07-31T09:13:00Z</time>
      </trkpt>
      <trkpt lat="46.17104" lon="6.64532">
        <ele>1733</ele>
        <time>2022-07-31T09:13:01Z</time>
      </trkpt>
      <trkpt lat="46.17103" lon="6.64533">
        <ele>1734</ele>
        <time>2022-07-31T09:13:02Z</time>
      </trkpt>
      <trkpt lat="46.17103" lon="6.64533">
        <ele>1734</ele>
        <time>2022-07-31T09:13:03Z</time>
      </trkpt>
      <trkpt lat="46.17103" lon="6.64534">
        <ele>1734</ele>
        <time>2022-07-31T09:13:04Z</time>
      </trkpt>
      <trkpt lat="46.17102" lon="6.64534">
        <ele>1734</ele>
        <time>2022-07-31T09:13:05Z</time>
      </trkpt>
      <trkpt lat="46.17102" lon="6.64534">
        <ele>1735</ele>
        <time>2022-07-31T09:13:06Z</time>
      </trkpt>
      <trkpt lat="46.17102" lon="6.64535">
        <ele>1735</ele>
        <time>2022-07-31T09:13:07Z</time>
      </trkpt>
      <trkpt lat="46.17101" lon="6.64536">
        <ele>1735</ele>
        <time>2022-07-31T09:13:08Z</time>
      </trkpt>
      <trkpt lat="46.17101" lon="6.64537">
        <ele>1736</ele>
        <time>2022-07-31T09:13:09Z</time>
      </trkpt>
      <trkpt lat="46.17101" lon="6.64537">
        <ele>1736</ele>
        <time>2022-07-31T09:13:10Z</time>
      </trkpt>
      <trkpt lat="46.17102" lon="6.64538">
        <ele>1736</ele>
        <time>2022-07-31T09:13:11Z</time>
      </trkpt>
      <trkpt lat="46.17102" lon="6.64539">
        <ele>1736</ele>
        <time>2022-07-31T09:13:12Z</time>
      </trkpt>
      <trkpt lat="46.17102" lon="6.64539">
        <ele>1737</ele>
        <time>2022-07-31T09:13:13Z</time>
      </trkpt>
      <trkpt lat="46.17103" lon="6.64539">
        <ele>1737</ele>
        <time>2022-07-31T09:13:14Z</time>
      </trkpt>
      <trkpt lat="46.17103" lon="6.64541">
        <ele>1737</ele>
        <time>2022-07-31T09:13:15Z</time>
      </trkpt>
      <trkpt lat="46.17103" lon="6.64542">
        <ele>1737</ele>
        <time>2022-07-31T09:13:16Z</time>
      </trkpt>
      <trkpt lat="46.17103" lon="6.64543">
        <ele>1737</ele>
        <time>2022-07-31T09:13:17Z</time>
      </trkpt>
      <trkpt lat="46.17103" lon="6.64543">
        <ele>1737</ele>
        <time>2022-07-31T09:13:18Z</time>
      </trkpt>
      <trkpt lat="46.17103" lon="6.64545">
        <ele>1738</ele>
        <time>2022-07-31T09:13:19Z</time>
      </trkpt>
      <trkpt lat="46.17103" lon="6.64546">
        <ele>1738</ele>
        <time>2022-07-31T09:13:20Z</time>
      </trkpt>
      <trkpt lat="46.17103" lon="6.64547">
        <ele>1738</ele>
        <time>2022-07-31T09:13:21Z</time>
      </trkpt>
      <trkpt lat="46.17102" lon="6.64548">
        <ele>1738</ele>
        <time>2022-07-31T09:13:22Z</time>
      </trkpt>
      <trkpt lat="46.17102" lon="6.64548">
        <ele>1738</ele>
        <time>2022-07-31T09:13:23Z</time>
      </trkpt>
      <trkpt lat="46.17102" lon="6.64549">
        <ele>1738</ele>
        <time>2022-07-31T09:13:24Z</time>
      </trkpt>
      <trkpt lat="46.17102" lon="6.6455">
        <ele>1738</ele>
        <time>2022-07-31T09:13:25Z</time>
      </trkpt>
      <trkpt lat="46.17103" lon="6.64551">
        <ele>1738</ele>
        <time>2022-07-31T09:13:26Z</time>
      </trkpt>
      <trkpt lat="46.17103" lon="6.64552">
        <ele>1738</ele>
        <time>2022-07-31T09:13:27Z</time>
      </trkpt>
      <trkpt lat="46.17103" lon="6.64552">
        <ele>1738</ele>
        <time>2022-07-31T09:13:28Z</time>
      </trkpt>
      <trkpt lat="46.17103" lon="6.64553">
        <ele>1738</ele>
        <time>2022-07-31T09:13:29Z</time>
      </trkpt>
      <trkpt lat="46.17102" lon="6.64553">
        <ele>1738</ele>
        <time>2022-07-31T09:13:30Z</time>
      </trkpt>
      <trkpt lat="46.17102" lon="6.64554">
        <ele>1739</ele>
        <time>2022-07-31T09:13:31Z</time>
      </trkpt>
      <trkpt lat="46.17101" lon="6.64555">
        <ele>1739</ele>
        <time>2022-07-31T09:13:32Z</time>
      </trkpt>
      <trkpt lat="46.17101" lon="6.64556">
        <ele>1739</ele>
        <time>2022-07-31T09:13:33Z</time>
      </trkpt>
      <trkpt lat="46.17101" lon="6.64556">
        <ele>1739</ele>
        <time>2022-07-31T09:13:34Z</time>
      </trkpt>
      <trkpt lat="46.171" lon="6.64556">
        <ele>1739</ele>
        <time>2022-07-31T09:13:35Z</time>
      </trkpt>
      <trkpt lat="46.171" lon="6.64557">
        <ele>1739</ele>
        <time>2022-07-31T09:13:36Z</time>
      </trkpt>
      <trkpt lat="46.17099" lon="6.64557">
        <ele>1740</ele>
        <time>2022-07-31T09:13:37Z</time>
      </trkpt>
      <trkpt lat="46.17099" lon="6.64557">
        <ele>1740</ele>
        <time>2022-07-31T09:13:38Z</time>
      </trkpt>
      <trkpt lat="46.17098" lon="6.64557">
        <ele>1740</ele>
        <time>2022-07-31T09:13:39Z</time>
      </trkpt>
      <trkpt lat="46.17098" lon="6.64558">
        <ele>1740</ele>
        <time>2022-07-31T09:13:40Z</time>
      </trkpt>
      <trkpt lat="46.17098" lon="6.64559">
        <ele>1741</ele>
        <time>2022-07-31T09:13:41Z</time>
      </trkpt>
      <trkpt lat="46.17097" lon="6.6456">
        <ele>1741</ele>
        <time>2022-07-31T09:13:42Z</time>
      </trkpt>
      <trkpt lat="46.17097" lon="6.64561">
        <ele>1742</ele>
        <time>2022-07-31T09:13:43Z</time>
      </trkpt>
      <trkpt lat="46.17097" lon="6.64562">
        <ele>1742</ele>
        <time>2022-07-31T09:13:44Z</time>
      </trkpt>
      <trkpt lat="46.17097" lon="6.64563">
        <ele>1742</ele>
        <time>2022-07-31T09:13:45Z</time>
      </trkpt>
      <trkpt lat="46.17096" lon="6.64564">
        <ele>1743</ele>
        <time>2022-07-31T09:13:46Z</time>
      </trkpt>
      <trkpt lat="46.17096" lon="6.64564">
        <ele>1743</ele>
        <time>2022-07-31T09:13:47Z</time>
      </trkpt>
      <trkpt lat="46.17096" lon="6.64565">
        <ele>1744</ele>
        <time>2022-07-31T09:13:48Z</time>
      </trkpt>
      <trkpt lat="46.17095" lon="6.64565">
        <ele>1744</ele>
        <time>2022-07-31T09:13:49Z</time>
      </trkpt>
      <trkpt lat="46.17096" lon="6.64566">
        <ele>1744</ele>
        <time>2022-07-31T09:13:50Z</time>
      </trkpt>
      <trkpt lat="46.17096" lon="6.64566">
        <ele>1745</ele>
        <time>2022-07-31T09:13:51Z</time>
      </trkpt>
      <trkpt lat="46.17096" lon="6.64567">
        <ele>1745</ele>
        <time>2022-07-31T09:13:52Z</time>
      </trkpt>
      <trkpt lat="46.17096" lon="6.64567">
        <ele>1746</ele>
        <time>2022-07-31T09:13:53Z</time>
      </trkpt>
      <trkpt lat="46.17095" lon="6.64568">
        <ele>1746</ele>
        <time>2022-07-31T09:13:54Z</time>
      </trkpt>
      <trkpt lat="46.17096" lon="6.64568">
        <ele>1746</ele>
        <time>2022-07-31T09:13:55Z</time>
      </trkpt>
      <trkpt lat="46.17096" lon="6.64569">
        <ele>1746</ele>
        <time>2022-07-31T09:13:56Z</time>
      </trkpt>
      <trkpt lat="46.17096" lon="6.6457">
        <ele>1747</ele>
        <time>2022-07-31T09:13:57Z</time>
      </trkpt>
      <trkpt lat="46.17095" lon="6.64571">
        <ele>1747</ele>
        <time>2022-07-31T09:13:58Z</time>
      </trkpt>
      <trkpt lat="46.17095" lon="6.64572">
        <ele>1747</ele>
        <time>2022-07-31T09:13:59Z</time>
      </trkpt>
      <trkpt lat="46.17095" lon="6.64573">
        <ele>1747</ele>
        <time>2022-07-31T09:14:00Z</time>
      </trkpt>
      <trkpt lat="46.17095" lon="6.64574">
        <ele>1748</ele>
        <time>2022-07-31T09:14:01Z</time>
      </trkpt>
      <trkpt lat="46.17095" lon="6.64574">
        <ele>1748</ele>
        <time>2022-07-31T09:14:02Z</time>
      </trkpt>
      <trkpt lat="46.17094" lon="6.64575">
        <ele>1748</ele>
        <time>2022-07-31T09:14:03Z</time>
      </trkpt>
      <trkpt lat="46.17093" lon="6.64575">
        <ele>1748</ele>
        <time>2022-07-31T09:14:04Z</time>
      </trkpt>
      <trkpt lat="46.17093" lon="6.64576">
        <ele>1748</ele>
        <time>2022-07-31T09:14:05Z</time>
      </trkpt>
      <trkpt lat="46.17093" lon="6.64576">
        <ele>1749</ele>
        <time>2022-07-31T09:14:06Z</time>
      </trkpt>
      <trkpt lat="46.17093" lon="6.64577">
        <ele>1749</ele>
        <time>2022-07-31T09:14:07Z</time>
      </trkpt>
      <trkpt lat="46.17092" lon="6.64579">
        <ele>1749</ele>
        <time>2022-07-31T09:14:08Z</time>
      </trkpt>
      <trkpt lat="46.17093" lon="6.64579">
        <ele>1749</ele>
        <time>2022-07-31T09:14:09Z</time>
      </trkpt>
      <trkpt lat="46.17093" lon="6.6458">
        <ele>1750</ele>
        <time>2022-07-31T09:14:10Z</time>
      </trkpt>
      <trkpt lat="46.17093" lon="6.6458">
        <ele>1750</ele>
        <time>2022-07-31T09:14:11Z</time>
      </trkpt>
      <trkpt lat="46.17093" lon="6.6458">
        <ele>1750</ele>
        <time>2022-07-31T09:14:12Z</time>
      </trkpt>
      <trkpt lat="46.17092" lon="6.6458">
        <ele>1750</ele>
        <time>2022-07-31T09:14:13Z</time>
      </trkpt>
      <trkpt lat="46.17092" lon="6.64582">
        <ele>1750</ele>
        <time>2022-07-31T09:14:14Z</time>
      </trkpt>
      <trkpt lat="46.17091" lon="6.64582">
        <ele>1751</ele>
        <time>2022-07-31T09:14:15Z</time>
      </trkpt>
      <trkpt lat="46.17091" lon="6.64582">
        <ele>1751</ele>
        <time>2022-07-31T09:14:16Z</time>
      </trkpt>
      <trkpt lat="46.1709" lon="6.64583">
        <ele>1751</ele>
        <time>2022-07-31T09:14:17Z</time>
      </trkpt>
      <trkpt lat="46.1709" lon="6.64585">
        <ele>1751</ele>
        <time>2022-07-31T09:14:18Z</time>
      </trkpt>
      <trkpt lat="46.1709" lon="6.64586">
        <ele>1751</ele>
        <time>2022-07-31T09:14:19Z</time>
      </trkpt>
      <trkpt lat="46.1709" lon="6.64588">
        <ele>1751</ele>
        <time>2022-07-31T09:14:20Z</time>
      </trkpt>
      <trkpt lat="46.1709" lon="6.64589">
        <ele>1751</ele>
        <time>2022-07-31T09:14:21Z</time>
      </trkpt>
      <trkpt lat="46.1709" lon="6.6459">
        <ele>1752</ele>
        <time>2022-07-31T09:14:22Z</time>
      </trkpt>
      <trkpt lat="46.1709" lon="6.6459">
        <ele>1752</ele>
        <time>2022-07-31T09:14:23Z</time>
      </trkpt>
      <trkpt lat="46.1709" lon="6.6459">
        <ele>1752</ele>
        <time>2022-07-31T09:14:24Z</time>
      </trkpt>
      <trkpt lat="46.1709" lon="6.64592">
        <ele>1752</ele>
        <time>2022-07-31T09:14:25Z</time>
      </trkpt>
      <trkpt lat="46.17089" lon="6.64592">
        <ele>1753</ele>
        <time>2022-07-31T09:14:26Z</time>
      </trkpt>
      <trkpt lat="46.17089" lon="6.64592">
        <ele>1753</ele>
        <time>2022-07-31T09:14:27Z</time>
      </trkpt>
      <trkpt lat="46.17089" lon="6.64592">
        <ele>1753</ele>
        <time>2022-07-31T09:14:28Z</time>
      </trkpt>
      <trkpt lat="46.17088" lon="6.64593">
        <ele>1754</ele>
        <time>2022-07-31T09:14:29Z</time>
      </trkpt>
      <trkpt lat="46.17088" lon="6.64593">
        <ele>1754</ele>
        <time>2022-07-31T09:14:30Z</time>
      </trkpt>
      <trkpt lat="46.17088" lon="6.64593">
        <ele>1754</ele>
        <time>2022-07-31T09:14:31Z</time>
      </trkpt>
      <trkpt lat="46.17088" lon="6.64594">
        <ele>1755</ele>
        <time>2022-07-31T09:14:32Z</time>
      </trkpt>
      <trkpt lat="46.17088" lon="6.64595">
        <ele>1755</ele>
        <time>2022-07-31T09:14:33Z</time>
      </trkpt>
      <trkpt lat="46.17087" lon="6.64595">
        <ele>1756</ele>
        <time>2022-07-31T09:14:34Z</time>
      </trkpt>
      <trkpt lat="46.17086" lon="6.64596">
        <ele>1756</ele>
        <time>2022-07-31T09:14:35Z</time>
      </trkpt>
      <trkpt lat="46.17086" lon="6.64596">
        <ele>1756</ele>
        <time>2022-07-31T09:14:36Z</time>
      </trkpt>
      <trkpt lat="46.17086" lon="6.64596">
        <ele>1757</ele>
        <time>2022-07-31T09:14:37Z</time>
      </trkpt>
      <trkpt lat="46.17085" lon="6.64597">
        <ele>1757</ele>
        <time>2022-07-31T09:14:38Z</time>
      </trkpt>
      <trkpt lat="46.17084" lon="6.64597">
        <ele>1757</ele>
        <time>2022-07-31T09:14:39Z</time>
      </trkpt>
      <trkpt lat="46.17084" lon="6.64599">
        <ele>1758</ele>
        <time>2022-07-31T09:14:40Z</time>
      </trkpt>
      <trkpt lat="46.17084" lon="6.64599">
        <ele>1758</ele>
        <time>2022-07-31T09:14:41Z</time>
      </trkpt>
      <trkpt lat="46.17084" lon="6.646">
        <ele>1759</ele>
        <time>2022-07-31T09:14:42Z</time>
      </trkpt>
      <trkpt lat="46.17084" lon="6.646">
        <ele>1759</ele>
        <time>2022-07-31T09:14:43Z</time>
      </trkpt>
      <trkpt lat="46.17085" lon="6.646">
        <ele>1759</ele>
        <time>2022-07-31T09:14:44Z</time>
      </trkpt>
      <trkpt lat="46.17085" lon="6.646">
        <ele>1759</ele>
        <time>2022-07-31T09:14:45Z</time>
      </trkpt>
      <trkpt lat="46.17085" lon="6.646">
        <ele>1760</ele>
        <time>2022-07-31T09:14:46Z</time>
      </trkpt>
      <trkpt lat="46.17085" lon="6.64599">
        <ele>1760</ele>
        <time>2022-07-31T09:14:47Z</time>
      </trkpt>
      <trkpt lat="46.17084" lon="6.646">
        <ele>1760</ele>
        <time>2022-07-31T09:14:48Z</time>
      </trkpt>
      <trkpt lat="46.17083" lon="6.646">
        <ele>1760</ele>
        <time>2022-07-31T09:14:49Z</time>
      </trkpt>
      <trkpt lat="46.17083" lon="6.646">
        <ele>1761</ele>
        <time>2022-07-31T09:14:50Z</time>
      </trkpt>
      <trkpt lat="46.17082" lon="6.64601">
        <ele>1761</ele>
        <time>2022-07-31T09:14:51Z</time>
      </trkpt>
      <trkpt lat="46.17082" lon="6.64601">
        <ele>1761</ele>
        <time>2022-07-31T09:14:52Z</time>
      </trkpt>
      <trkpt lat="46.17082" lon="6.64601">
        <ele>1761</ele>
        <time>2022-07-31T09:14:53Z</time>
      </trkpt>
      <trkpt lat="46.17081" lon="6.64601">
        <ele>1761</ele>
        <time>2022-07-31T09:14:54Z</time>
      </trkpt>
      <trkpt lat="46.1708" lon="6.64601">
        <ele>1761</ele>
        <time>2022-07-31T09:14:55Z</time>
      </trkpt>
      <trkpt lat="46.17079" lon="6.64601">
        <ele>1762</ele>
        <time>2022-07-31T09:14:56Z</time>
      </trkpt>
      <trkpt lat="46.17078" lon="6.64601">
        <ele>1762</ele>
        <time>2022-07-31T09:14:57Z</time>
      </trkpt>
      <trkpt lat="46.17078" lon="6.64601">
        <ele>1762</ele>
        <time>2022-07-31T09:14:58Z</time>
      </trkpt>
      <trkpt lat="46.17077" lon="6.64601">
        <ele>1762</ele>
        <time>2022-07-31T09:14:59Z</time>
      </trkpt>
      <trkpt lat="46.17076" lon="6.64601">
        <ele>1762</ele>
        <time>2022-07-31T09:15:00Z</time>
      </trkpt>
      <trkpt lat="46.17075" lon="6.64601">
        <ele>1762</ele>
        <time>2022-07-31T09:15:01Z</time>
      </trkpt>
      <trkpt lat="46.17075" lon="6.64601">
        <ele>1763</ele>
        <time>2022-07-31T09:15:02Z</time>
      </trkpt>
      <trkpt lat="46.17074" lon="6.64601">
        <ele>1763</ele>
        <time>2022-07-31T09:15:03Z</time>
      </trkpt>
      <trkpt lat="46.17073" lon="6.64601">
        <ele>1763</ele>
        <time>2022-07-31T09:15:04Z</time>
      </trkpt>
      <trkpt lat="46.17073" lon="6.64601">
        <ele>1763</ele>
        <time>2022-07-31T09:15:05Z</time>
      </trkpt>
      <trkpt lat="46.17071" lon="6.64602">
        <ele>1763</ele>
        <time>2022-07-31T09:15:06Z</time>
      </trkpt>
      <trkpt lat="46.17071" lon="6.64603">
        <ele>1764</ele>
        <time>2022-07-31T09:15:07Z</time>
      </trkpt>
      <trkpt lat="46.1707" lon="6.64604">
        <ele>1764</ele>
        <time>2022-07-31T09:15:08Z</time>
      </trkpt>
      <trkpt lat="46.1707" lon="6.64604">
        <ele>1764</ele>
        <time>2022-07-31T09:15:09Z</time>
      </trkpt>
      <trkpt lat="46.1707" lon="6.64604">
        <ele>1765</ele>
        <time>2022-07-31T09:15:10Z</time>
      </trkpt>
      <trkpt lat="46.17069" lon="6.64605">
        <ele>1765</ele>
        <time>2022-07-31T09:15:11Z</time>
      </trkpt>
      <trkpt lat="46.17069" lon="6.64605">
        <ele>1765</ele>
        <time>2022-07-31T09:15:12Z</time>
      </trkpt>
      <trkpt lat="46.17068" lon="6.64606">
        <ele>1766</ele>
        <time>2022-07-31T09:15:13Z</time>
      </trkpt>
      <trkpt lat="46.17068" lon="6.64605">
        <ele>1766</ele>
        <time>2022-07-31T09:15:14Z</time>
      </trkpt>
      <trkpt lat="46.17067" lon="6.64606">
        <ele>1766</ele>
        <time>2022-07-31T09:15:15Z</time>
      </trkpt>
      <trkpt lat="46.17066" lon="6.64606">
        <ele>1766</ele>
        <time>2022-07-31T09:15:16Z</time>
      </trkpt>
      <trkpt lat="46.17065" lon="6.64606">
        <ele>1767</ele>
        <time>2022-07-31T09:15:17Z</time>
      </trkpt>
      <trkpt lat="46.17065" lon="6.64606">
        <ele>1767</ele>
        <time>2022-07-31T09:15:18Z</time>
      </trkpt>
      <trkpt lat="46.17064" lon="6.64606">
        <ele>1767</ele>
        <time>2022-07-31T09:15:19Z</time>
      </trkpt>
      <trkpt lat="46.17064" lon="6.64606">
        <ele>1767</ele>
        <time>2022-07-31T09:15:20Z</time>
      </trkpt>
      <trkpt lat="46.17063" lon="6.64607">
        <ele>1767</ele>
        <time>2022-07-31T09:15:21Z</time>
      </trkpt>
      <trkpt lat="46.17062" lon="6.64607">
        <ele>1768</ele>
        <time>2022-07-31T09:15:22Z</time>
      </trkpt>
      <trkpt lat="46.17062" lon="6.64607">
        <ele>1768</ele>
        <time>2022-07-31T09:15:23Z</time>
      </trkpt>
      <trkpt lat="46.17061" lon="6.64607">
        <ele>1768</ele>
        <time>2022-07-31T09:15:24Z</time>
      </trkpt>
      <trkpt lat="46.17061" lon="6.64607">
        <ele>1768</ele>
        <time>2022-07-31T09:15:25Z</time>
      </trkpt>
      <trkpt lat="46.1706" lon="6.64608">
        <ele>1769</ele>
        <time>2022-07-31T09:15:26Z</time>
      </trkpt>
      <trkpt lat="46.1706" lon="6.64609">
        <ele>1769</ele>
        <time>2022-07-31T09:15:27Z</time>
      </trkpt>
      <trkpt lat="46.1706" lon="6.6461">
        <ele>1769</ele>
        <time>2022-07-31T09:15:28Z</time>
      </trkpt>
      <trkpt lat="46.17059" lon="6.6461">
        <ele>1770</ele>
        <time>2022-07-31T09:15:29Z</time>
      </trkpt>
      <trkpt lat="46.17058" lon="6.64611">
        <ele>1770</ele>
        <time>2022-07-31T09:15:30Z</time>
      </trkpt>
      <trkpt lat="46.17058" lon="6.64611">
        <ele>1770</ele>
        <time>2022-07-31T09:15:31Z</time>
      </trkpt>
      <trkpt lat="46.17057" lon="6.64612">
        <ele>1771</ele>
        <time>2022-07-31T09:15:32Z</time>
      </trkpt>
      <trkpt lat="46.17057" lon="6.64613">
        <ele>1771</ele>
        <time>2022-07-31T09:15:33Z</time>
      </trkpt>
      <trkpt lat="46.17056" lon="6.64613">
        <ele>1771</ele>
        <time>2022-07-31T09:15:34Z</time>
      </trkpt>
      <trkpt lat="46.17055" lon="6.64613">
        <ele>1771</ele>
        <time>2022-07-31T09:15:35Z</time>
      </trkpt>
      <trkpt lat="46.17055" lon="6.64613">
        <ele>1772</ele>
        <time>2022-07-31T09:15:36Z</time>
      </trkpt>
      <trkpt lat="46.17054" lon="6.64613">
        <ele>1772</ele>
        <time>2022-07-31T09:15:37Z</time>
      </trkpt>
      <trkpt lat="46.17054" lon="6.64613">
        <ele>1772</ele>
        <time>2022-07-31T09:15:38Z</time>
      </trkpt>
      <trkpt lat="46.17053" lon="6.64613">
        <ele>1773</ele>
        <time>2022-07-31T09:15:39Z</time>
      </trkpt>
      <trkpt lat="46.17053" lon="6.64614">
        <ele>1773</ele>
        <time>2022-07-31T09:15:40Z</time>
      </trkpt>
      <trkpt lat="46.17052" lon="6.64614">
        <ele>1773</ele>
        <time>2022-07-31T09:15:41Z</time>
      </trkpt>
      <trkpt lat="46.17052" lon="6.64615">
        <ele>1773</ele>
        <time>2022-07-31T09:15:42Z</time>
      </trkpt>
      <trkpt lat="46.17051" lon="6.64615">
        <ele>1774</ele>
        <time>2022-07-31T09:15:43Z</time>
      </trkpt>
      <trkpt lat="46.17051" lon="6.64615">
        <ele>1774</ele>
        <time>2022-07-31T09:15:44Z</time>
      </trkpt>
      <trkpt lat="46.1705" lon="6.64616">
        <ele>1774</ele>
        <time>2022-07-31T09:15:45Z</time>
      </trkpt>
      <trkpt lat="46.17049" lon="6.64616">
        <ele>1774</ele>
        <time>2022-07-31T09:15:46Z</time>
      </trkpt>
      <trkpt lat="46.17049" lon="6.64617">
        <ele>1774</ele>
        <time>2022-07-31T09:15:47Z</time>
      </trkpt>
      <trkpt lat="46.17049" lon="6.64617">
        <ele>1775</ele>
        <time>2022-07-31T09:15:48Z</time>
      </trkpt>
      <trkpt lat="46.17048" lon="6.64618">
        <ele>1775</ele>
        <time>2022-07-31T09:15:49Z</time>
      </trkpt>
      <trkpt lat="46.17048" lon="6.64618">
        <ele>1775</ele>
        <time>2022-07-31T09:15:50Z</time>
      </trkpt>
      <trkpt lat="46.17047" lon="6.64619">
        <ele>1775</ele>
        <time>2022-07-31T09:15:51Z</time>
      </trkpt>
      <trkpt lat="46.17046" lon="6.6462">
        <ele>1776</ele>
        <time>2022-07-31T09:15:52Z</time>
      </trkpt>
      <trkpt lat="46.17046" lon="6.6462">
        <ele>1776</ele>
        <time>2022-07-31T09:15:53Z</time>
      </trkpt>
      <trkpt lat="46.17045" lon="6.64621">
        <ele>1776</ele>
        <time>2022-07-31T09:15:54Z</time>
      </trkpt>
      <trkpt lat="46.17045" lon="6.64621">
        <ele>1777</ele>
        <time>2022-07-31T09:15:55Z</time>
      </trkpt>
      <trkpt lat="46.17044" lon="6.64622">
        <ele>1777</ele>
        <time>2022-07-31T09:15:56Z</time>
      </trkpt>
      <trkpt lat="46.17044" lon="6.64621">
        <ele>1777</ele>
        <time>2022-07-31T09:15:57Z</time>
      </trkpt>
      <trkpt lat="46.17042" lon="6.64621">
        <ele>1778</ele>
        <time>2022-07-31T09:15:58Z</time>
      </trkpt>
      <trkpt lat="46.17042" lon="6.64622">
        <ele>1778</ele>
        <time>2022-07-31T09:15:59Z</time>
      </trkpt>
      <trkpt lat="46.17041" lon="6.64622">
        <ele>1778</ele>
        <time>2022-07-31T09:16:00Z</time>
      </trkpt>
      <trkpt lat="46.1704" lon="6.64622">
        <ele>1778</ele>
        <time>2022-07-31T09:16:01Z</time>
      </trkpt>
      <trkpt lat="46.1704" lon="6.64623">
        <ele>1779</ele>
        <time>2022-07-31T09:16:02Z</time>
      </trkpt>
      <trkpt lat="46.17039" lon="6.64624">
        <ele>1779</ele>
        <time>2022-07-31T09:16:03Z</time>
      </trkpt>
      <trkpt lat="46.17038" lon="6.64625">
        <ele>1779</ele>
        <time>2022-07-31T09:16:04Z</time>
      </trkpt>
      <trkpt lat="46.17038" lon="6.64625">
        <ele>1780</ele>
        <time>2022-07-31T09:16:05Z</time>
      </trkpt>
      <trkpt lat="46.17038" lon="6.64625">
        <ele>1780</ele>
        <time>2022-07-31T09:16:06Z</time>
      </trkpt>
      <trkpt lat="46.17037" lon="6.64625">
        <ele>1780</ele>
        <time>2022-07-31T09:16:07Z</time>
      </trkpt>
      <trkpt lat="46.17036" lon="6.64625">
        <ele>1780</ele>
        <time>2022-07-31T09:16:08Z</time>
      </trkpt>
      <trkpt lat="46.17036" lon="6.64625">
        <ele>1781</ele>
        <time>2022-07-31T09:16:09Z</time>
      </trkpt>
      <trkpt lat="46.17034" lon="6.64625">
        <ele>1781</ele>
        <time>2022-07-31T09:16:10Z</time>
      </trkpt>
      <trkpt lat="46.17034" lon="6.64626">
        <ele>1781</ele>
        <time>2022-07-31T09:16:11Z</time>
      </trkpt>
      <trkpt lat="46.17033" lon="6.64626">
        <ele>1782</ele>
        <time>2022-07-31T09:16:12Z</time>
      </trkpt>
      <trkpt lat="46.17032" lon="6.64627">
        <ele>1782</ele>
        <time>2022-07-31T09:16:13Z</time>
      </trkpt>
      <trkpt lat="46.17032" lon="6.64626">
        <ele>1782</ele>
        <time>2022-07-31T09:16:14Z</time>
      </trkpt>
      <trkpt lat="46.17031" lon="6.64626">
        <ele>1783</ele>
        <time>2022-07-31T09:16:15Z</time>
      </trkpt>
      <trkpt lat="46.17031" lon="6.64626">
        <ele>1783</ele>
        <time>2022-07-31T09:16:16Z</time>
      </trkpt>
      <trkpt lat="46.1703" lon="6.64627">
        <ele>1783</ele>
        <time>2022-07-31T09:16:17Z</time>
      </trkpt>
      <trkpt lat="46.17029" lon="6.64627">
        <ele>1784</ele>
        <time>2022-07-31T09:16:18Z</time>
      </trkpt>
      <trkpt lat="46.17029" lon="6.64627">
        <ele>1784</ele>
        <time>2022-07-31T09:16:19Z</time>
      </trkpt>
      <trkpt lat="46.17028" lon="6.64627">
        <ele>1785</ele>
        <time>2022-07-31T09:16:20Z</time>
      </trkpt>
      <trkpt lat="46.17027" lon="6.64628">
        <ele>1785</ele>
        <time>2022-07-31T09:16:21Z</time>
      </trkpt>
      <trkpt lat="46.17026" lon="6.64628">
        <ele>1785</ele>
        <time>2022-07-31T09:16:22Z</time>
      </trkpt>
      <trkpt lat="46.17026" lon="6.64629">
        <ele>1786</ele>
        <time>2022-07-31T09:16:23Z</time>
      </trkpt>
      <trkpt lat="46.17026" lon="6.6463">
        <ele>1786</ele>
        <time>2022-07-31T09:16:24Z</time>
      </trkpt>
      <trkpt lat="46.17026" lon="6.6463">
        <ele>1786</ele>
        <time>2022-07-31T09:16:25Z</time>
      </trkpt>
      <trkpt lat="46.17025" lon="6.6463">
        <ele>1787</ele>
        <time>2022-07-31T09:16:26Z</time>
      </trkpt>
      <trkpt lat="46.17024" lon="6.6463">
        <ele>1787</ele>
        <time>2022-07-31T09:16:27Z</time>
      </trkpt>
      <trkpt lat="46.17023" lon="6.64631">
        <ele>1788</ele>
        <time>2022-07-31T09:16:28Z</time>
      </trkpt>
      <trkpt lat="46.17023" lon="6.64631">
        <ele>1788</ele>
        <time>2022-07-31T09:16:29Z</time>
      </trkpt>
      <trkpt lat="46.17022" lon="6.64631">
        <ele>1788</ele>
        <time>2022-07-31T09:16:30Z</time>
      </trkpt>
      <trkpt lat="46.17021" lon="6.64631">
        <ele>1788</ele>
        <time>2022-07-31T09:16:31Z</time>
      </trkpt>
      <trkpt lat="46.17021" lon="6.64631">
        <ele>1789</ele>
        <time>2022-07-31T09:16:32Z</time>
      </trkpt>
      <trkpt lat="46.1702" lon="6.64632">
        <ele>1789</ele>
        <time>2022-07-31T09:16:33Z</time>
      </trkpt>
      <trkpt lat="46.1702" lon="6.64633">
        <ele>1789</ele>
        <time>2022-07-31T09:16:34Z</time>
      </trkpt>
      <trkpt lat="46.17019" lon="6.64633">
        <ele>1790</ele>
        <time>2022-07-31T09:16:35Z</time>
      </trkpt>
      <trkpt lat="46.17019" lon="6.64634">
        <ele>1790</ele>
        <time>2022-07-31T09:16:36Z</time>
      </trkpt>
      <trkpt lat="46.17018" lon="6.64634">
        <ele>1790</ele>
        <time>2022-07-31T09:16:37Z</time>
      </trkpt>
      <trkpt lat="46.17017" lon="6.64634">
        <ele>1790</ele>
        <time>2022-07-31T09:16:38Z</time>
      </trkpt>
      <trkpt lat="46.17017" lon="6.64634">
        <ele>1790</ele>
        <time>2022-07-31T09:16:39Z</time>
      </trkpt>
      <trkpt lat="46.17016" lon="6.64634">
        <ele>1791</ele>
        <time>2022-07-31T09:16:40Z</time>
      </trkpt>
      <trkpt lat="46.17015" lon="6.64634">
        <ele>1791</ele>
        <time>2022-07-31T09:16:41Z</time>
      </trkpt>
      <trkpt lat="46.17015" lon="6.64633">
        <ele>1791</ele>
        <time>2022-07-31T09:16:42Z</time>
      </trkpt>
      <trkpt lat="46.17014" lon="6.64633">
        <ele>1791</ele>
        <time>2022-07-31T09:16:43Z</time>
      </trkpt>
      <trkpt lat="46.17014" lon="6.64634">
        <ele>1792</ele>
        <time>2022-07-31T09:16:44Z</time>
      </trkpt>
      <trkpt lat="46.17013" lon="6.64633">
        <ele>1792</ele>
        <time>2022-07-31T09:16:45Z</time>
      </trkpt>
      <trkpt lat="46.17012" lon="6.64634">
        <ele>1792</ele>
        <time>2022-07-31T09:16:46Z</time>
      </trkpt>
      <trkpt lat="46.17011" lon="6.64634">
        <ele>1792</ele>
        <time>2022-07-31T09:16:47Z</time>
      </trkpt>
      <trkpt lat="46.17011" lon="6.64634">
        <ele>1792</ele>
        <time>2022-07-31T09:16:48Z</time>
      </trkpt>
      <trkpt lat="46.1701" lon="6.64634">
        <ele>1793</ele>
        <time>2022-07-31T09:16:49Z</time>
      </trkpt>
      <trkpt lat="46.1701" lon="6.64633">
        <ele>1793</ele>
        <time>2022-07-31T09:16:50Z</time>
      </trkpt>
      <trkpt lat="46.1701" lon="6.64633">
        <ele>1793</ele>
        <time>2022-07-31T09:16:51Z</time>
      </trkpt>
      <trkpt lat="46.17011" lon="6.64633">
        <ele>1793</ele>
        <time>2022-07-31T09:16:52Z</time>
      </trkpt>
      <trkpt lat="46.17012" lon="6.64633">
        <ele>1793</ele>
        <time>2022-07-31T09:16:53Z</time>
      </trkpt>
      <trkpt lat="46.17012" lon="6.64633">
        <ele>1794</ele>
        <time>2022-07-31T09:16:54Z</time>
      </trkpt>
      <trkpt lat="46.17012" lon="6.64633">
        <ele>1794</ele>
        <time>2022-07-31T09:16:55Z</time>
      </trkpt>
      <trkpt lat="46.17012" lon="6.64633">
        <ele>1794</ele>
        <time>2022-07-31T09:16:56Z</time>
      </trkpt>
      <trkpt lat="46.17012" lon="6.64632">
        <ele>1794</ele>
        <time>2022-07-31T09:16:57Z</time>
      </trkpt>
      <trkpt lat="46.17012" lon="6.64632">
        <ele>1794</ele>
        <time>2022-07-31T09:16:58Z</time>
      </trkpt>
      <trkpt lat="46.17011" lon="6.64632">
        <ele>1795</ele>
        <time>2022-07-31T09:16:59Z</time>
      </trkpt>
      <trkpt lat="46.17011" lon="6.64632">
        <ele>1795</ele>
        <time>2022-07-31T09:17:00Z</time>
      </trkpt>
      <trkpt lat="46.17011" lon="6.64633">
        <ele>1795</ele>
        <time>2022-07-31T09:17:01Z</time>
      </trkpt>
      <trkpt lat="46.17011" lon="6.64633">
        <ele>1795</ele>
        <time>2022-07-31T09:17:02Z</time>
      </trkpt>
      <trkpt lat="46.17011" lon="6.64632">
        <ele>1795</ele>
        <time>2022-07-31T09:17:03Z</time>
      </trkpt>
      <trkpt lat="46.17011" lon="6.64632">
        <ele>1796</ele>
        <time>2022-07-31T09:17:04Z</time>
      </trkpt>
      <trkpt lat="46.17011" lon="6.64632">
        <ele>1796</ele>
        <time>2022-07-31T09:17:05Z</time>
      </trkpt>
      <trkpt lat="46.17011" lon="6.64632">
        <ele>1796</ele>
        <time>2022-07-31T09:17:06Z</time>
      </trkpt>
      <trkpt lat="46.17011" lon="6.64632">
        <ele>1796</ele>
        <time>2022-07-31T09:17:07Z</time>
      </trkpt>
      <trkpt lat="46.17011" lon="6.64632">
        <ele>1796</ele>
        <time>2022-07-31T09:17:08Z</time>
      </trkpt>
      <trkpt lat="46.17011" lon="6.64632">
        <ele>1796</ele>
        <time>2022-07-31T09:17:09Z</time>
      </trkpt>
      <trkpt lat="46.17011" lon="6.64632">
        <ele>1796</ele>
        <time>2022-07-31T09:17:10Z</time>
      </trkpt>
      <trkpt lat="46.17011" lon="6.64632">
        <ele>1796</ele>
        <time>2022-07-31T09:17:11Z</time>
      </trkpt>
      <trkpt lat="46.1701" lon="6.64632">
        <ele>1797</ele>
        <time>2022-07-31T09:17:12Z</time>
      </trkpt>
      <trkpt lat="46.1701" lon="6.64632">
        <ele>1797</ele>
        <time>2022-07-31T09:17:13Z</time>
      </trkpt>
      <trkpt lat="46.1701" lon="6.64632">
        <ele>1797</ele>
        <time>2022-07-31T09:17:14Z</time>
      </trkpt>
      <trkpt lat="46.1701" lon="6.64632">
        <ele>1797</ele>
        <time>2022-07-31T09:17:15Z</time>
      </trkpt>
      <trkpt lat="46.1701" lon="6.64632">
        <ele>1797</ele>
        <time>2022-07-31T09:17:16Z</time>
      </trkpt>
      <trkpt lat="46.1701" lon="6.64632">
        <ele>1797</ele>
        <time>2022-07-31T09:17:17Z</time>
      </trkpt>
      <trkpt lat="46.1701" lon="6.64632">
        <ele>1797</ele>
        <time>2022-07-31T09:17:18Z</time>
      </trkpt>
      <trkpt lat="46.1701" lon="6.64632">
        <ele>1797</ele>
        <time>2022-07-31T09:17:19Z</time>
      </trkpt>
      <trkpt lat="46.1701" lon="6.64632">
        <ele>1797</ele>
        <time>2022-07-31T09:17:20Z</time>
      </trkpt>
      <trkpt lat="46.1701" lon="6.64632">
        <ele>1797</ele>
        <time>2022-07-31T09:17:21Z</time>
      </trkpt>
      <trkpt lat="46.1701" lon="6.64633">
        <ele>1797</ele>
        <time>2022-07-31T09:17:22Z</time>
      </trkpt>
      <trkpt lat="46.1701" lon="6.64633">
        <ele>1797</ele>
        <time>2022-07-31T09:17:23Z</time>
      </trkpt>
      <trkpt lat="46.1701" lon="6.64633">
        <ele>1798</ele>
        <time>2022-07-31T09:17:24Z</time>
      </trkpt>
      <trkpt lat="46.1701" lon="6.64633">
        <ele>1798</ele>
        <time>2022-07-31T09:17:25Z</time>
      </trkpt>
      <trkpt lat="46.1701" lon="6.64633">
        <ele>1798</ele>
        <time>2022-07-31T09:17:26Z</time>
      </trkpt>
      <trkpt lat="46.1701" lon="6.64633">
        <ele>1798</ele>
        <time>2022-07-31T09:17:27Z</time>
      </trkpt>
      <trkpt lat="46.1701" lon="6.64633">
        <ele>1798</ele>
        <time>2022-07-31T09:17:28Z</time>
      </trkpt>
      <trkpt lat="46.1701" lon="6.64633">
        <ele>1798</ele>
        <time>2022-07-31T09:17:29Z</time>
      </trkpt>
      <trkpt lat="46.17009" lon="6.64633">
        <ele>1798</ele>
        <time>2022-07-31T09:17:30Z</time>
      </trkpt>
      <trkpt lat="46.17009" lon="6.64633">
        <ele>1798</ele>
        <time>2022-07-31T09:17:31Z</time>
      </trkpt>
      <trkpt lat="46.17008" lon="6.64633">
        <ele>1798</ele>
        <time>2022-07-31T09:17:32Z</time>
      </trkpt>
      <trkpt lat="46.17007" lon="6.64633">
        <ele>1798</ele>
        <time>2022-07-31T09:17:33Z</time>
      </trkpt>
      <trkpt lat="46.17006" lon="6.64633">
        <ele>1798</ele>
        <time>2022-07-31T09:17:34Z</time>
      </trkpt>
      <trkpt lat="46.17005" lon="6.64633">
        <ele>1798</ele>
        <time>2022-07-31T09:17:35Z</time>
      </trkpt>
      <trkpt lat="46.17004" lon="6.64634">
        <ele>1798</ele>
        <time>2022-07-31T09:17:36Z</time>
      </trkpt>
      <trkpt lat="46.17003" lon="6.64634">
        <ele>1798</ele>
        <time>2022-07-31T09:17:37Z</time>
      </trkpt>
      <trkpt lat="46.17003" lon="6.64634">
        <ele>1798</ele>
        <time>2022-07-31T09:17:38Z</time>
      </trkpt>
      <trkpt lat="46.17002" lon="6.64635">
        <ele>1798</ele>
        <time>2022-07-31T09:17:39Z</time>
      </trkpt>
      <trkpt lat="46.17001" lon="6.64635">
        <ele>1798</ele>
        <time>2022-07-31T09:17:40Z</time>
      </trkpt>
      <trkpt lat="46.17" lon="6.64634">
        <ele>1798</ele>
        <time>2022-07-31T09:17:41Z</time>
      </trkpt>
      <trkpt lat="46.16998" lon="6.64634">
        <ele>1798</ele>
        <time>2022-07-31T09:17:42Z</time>
      </trkpt>
      <trkpt lat="46.16997" lon="6.64634">
        <ele>1799</ele>
        <time>2022-07-31T09:17:43Z</time>
      </trkpt>
      <trkpt lat="46.16996" lon="6.64634">
        <ele>1799</ele>
        <time>2022-07-31T09:17:44Z</time>
      </trkpt>
      <trkpt lat="46.16995" lon="6.64635">
        <ele>1799</ele>
        <time>2022-07-31T09:17:45Z</time>
      </trkpt>
      <trkpt lat="46.16995" lon="6.64635">
        <ele>1799</ele>
        <time>2022-07-31T09:17:46Z</time>
      </trkpt>
      <trkpt lat="46.16994" lon="6.64635">
        <ele>1799</ele>
        <time>2022-07-31T09:17:47Z</time>
      </trkpt>
      <trkpt lat="46.16993" lon="6.64634">
        <ele>1800</ele>
        <time>2022-07-31T09:17:48Z</time>
      </trkpt>
      <trkpt lat="46.16992" lon="6.64634">
        <ele>1800</ele>
        <time>2022-07-31T09:17:49Z</time>
      </trkpt>
      <trkpt lat="46.16992" lon="6.64634">
        <ele>1800</ele>
        <time>2022-07-31T09:17:50Z</time>
      </trkpt>
      <trkpt lat="46.16992" lon="6.64635">
        <ele>1800</ele>
        <time>2022-07-31T09:17:51Z</time>
      </trkpt>
      <trkpt lat="46.16991" lon="6.64635">
        <ele>1801</ele>
        <time>2022-07-31T09:17:52Z</time>
      </trkpt>
      <trkpt lat="46.1699" lon="6.64636">
        <ele>1801</ele>
        <time>2022-07-31T09:17:53Z</time>
      </trkpt>
      <trkpt lat="46.1699" lon="6.64636">
        <ele>1801</ele>
        <time>2022-07-31T09:17:54Z</time>
      </trkpt>
      <trkpt lat="46.16989" lon="6.64637">
        <ele>1802</ele>
        <time>2022-07-31T09:17:55Z</time>
      </trkpt>
      <trkpt lat="46.16989" lon="6.64638">
        <ele>1802</ele>
        <time>2022-07-31T09:17:56Z</time>
      </trkpt>
      <trkpt lat="46.16988" lon="6.64637">
        <ele>1802</ele>
        <time>2022-07-31T09:17:57Z</time>
      </trkpt>
      <trkpt lat="46.16987" lon="6.64637">
        <ele>1802</ele>
        <time>2022-07-31T09:17:58Z</time>
      </trkpt>
      <trkpt lat="46.16987" lon="6.64638">
        <ele>1803</ele>
        <time>2022-07-31T09:17:59Z</time>
      </trkpt>
      <trkpt lat="46.16986" lon="6.64637">
        <ele>1803</ele>
        <time>2022-07-31T09:18:00Z</time>
      </trkpt>
      <trkpt lat="46.16986" lon="6.64637">
        <ele>1803</ele>
        <time>2022-07-31T09:18:01Z</time>
      </trkpt>
      <trkpt lat="46.16985" lon="6.64637">
        <ele>1803</ele>
        <time>2022-07-31T09:18:02Z</time>
      </trkpt>
      <trkpt lat="46.16983" lon="6.64636">
        <ele>1803</ele>
        <time>2022-07-31T09:18:03Z</time>
      </trkpt>
      <trkpt lat="46.16982" lon="6.64636">
        <ele>1803</ele>
        <time>2022-07-31T09:18:04Z</time>
      </trkpt>
      <trkpt lat="46.16982" lon="6.64635">
        <ele>1804</ele>
        <time>2022-07-31T09:18:05Z</time>
      </trkpt>
      <trkpt lat="46.1698" lon="6.64635">
        <ele>1804</ele>
        <time>2022-07-31T09:18:06Z</time>
      </trkpt>
      <trkpt lat="46.16979" lon="6.64634">
        <ele>1804</ele>
        <time>2022-07-31T09:18:07Z</time>
      </trkpt>
      <trkpt lat="46.16979" lon="6.64634">
        <ele>1804</ele>
        <time>2022-07-31T09:18:08Z</time>
      </trkpt>
      <trkpt lat="46.16978" lon="6.64633">
        <ele>1804</ele>
        <time>2022-07-31T09:18:09Z</time>
      </trkpt>
      <trkpt lat="46.16976" lon="6.64633">
        <ele>1804</ele>
        <time>2022-07-31T09:18:10Z</time>
      </trkpt>
      <trkpt lat="46.16975" lon="6.64633">
        <ele>1805</ele>
        <time>2022-07-31T09:18:11Z</time>
      </trkpt>
      <trkpt lat="46.16974" lon="6.64633">
        <ele>1805</ele>
        <time>2022-07-31T09:18:12Z</time>
      </trkpt>
      <trkpt lat="46.16973" lon="6.64634">
        <ele>1805</ele>
        <time>2022-07-31T09:18:13Z</time>
      </trkpt>
      <trkpt lat="46.16972" lon="6.64634">
        <ele>1805</ele>
        <time>2022-07-31T09:18:14Z</time>
      </trkpt>
      <trkpt lat="46.16972" lon="6.64634">
        <ele>1805</ele>
        <time>2022-07-31T09:18:15Z</time>
      </trkpt>
      <trkpt lat="46.16971" lon="6.64634">
        <ele>1806</ele>
        <time>2022-07-31T09:18:16Z</time>
      </trkpt>
      <trkpt lat="46.1697" lon="6.64633">
        <ele>1806</ele>
        <time>2022-07-31T09:18:17Z</time>
      </trkpt>
      <trkpt lat="46.1697" lon="6.64632">
        <ele>1806</ele>
        <time>2022-07-31T09:18:18Z</time>
      </trkpt>
      <trkpt lat="46.16968" lon="6.64632">
        <ele>1807</ele>
        <time>2022-07-31T09:18:19Z</time>
      </trkpt>
      <trkpt lat="46.16966" lon="6.64631">
        <ele>1807</ele>
        <time>2022-07-31T09:18:20Z</time>
      </trkpt>
      <trkpt lat="46.16965" lon="6.64631">
        <ele>1807</ele>
        <time>2022-07-31T09:18:21Z</time>
      </trkpt>
      <trkpt lat="46.16964" lon="6.64631">
        <ele>1808</ele>
        <time>2022-07-31T09:18:22Z</time>
      </trkpt>
      <trkpt lat="46.16963" lon="6.64631">
        <ele>1808</ele>
        <time>2022-07-31T09:18:23Z</time>
      </trkpt>
      <trkpt lat="46.16963" lon="6.64632">
        <ele>1809</ele>
        <time>2022-07-31T09:18:24Z</time>
      </trkpt>
      <trkpt lat="46.16961" lon="6.64632">
        <ele>1809</ele>
        <time>2022-07-31T09:18:25Z</time>
      </trkpt>
      <trkpt lat="46.16961" lon="6.64632">
        <ele>1810</ele>
        <time>2022-07-31T09:18:26Z</time>
      </trkpt>
      <trkpt lat="46.1696" lon="6.64632">
        <ele>1810</ele>
        <time>2022-07-31T09:18:27Z</time>
      </trkpt>
      <trkpt lat="46.16959" lon="6.64632">
        <ele>1811</ele>
        <time>2022-07-31T09:18:28Z</time>
      </trkpt>
      <trkpt lat="46.16958" lon="6.64632">
        <ele>1811</ele>
        <time>2022-07-31T09:18:29Z</time>
      </trkpt>
      <trkpt lat="46.16958" lon="6.64632">
        <ele>1812</ele>
        <time>2022-07-31T09:18:30Z</time>
      </trkpt>
      <trkpt lat="46.16957" lon="6.64632">
        <ele>1812</ele>
        <time>2022-07-31T09:18:31Z</time>
      </trkpt>
      <trkpt lat="46.16957" lon="6.64632">
        <ele>1813</ele>
        <time>2022-07-31T09:18:32Z</time>
      </trkpt>
      <trkpt lat="46.16956" lon="6.64632">
        <ele>1813</ele>
        <time>2022-07-31T09:18:33Z</time>
      </trkpt>
      <trkpt lat="46.16955" lon="6.64632">
        <ele>1813</ele>
        <time>2022-07-31T09:18:34Z</time>
      </trkpt>
      <trkpt lat="46.16954" lon="6.64632">
        <ele>1814</ele>
        <time>2022-07-31T09:18:35Z</time>
      </trkpt>
      <trkpt lat="46.16953" lon="6.64631">
        <ele>1814</ele>
        <time>2022-07-31T09:18:36Z</time>
      </trkpt>
      <trkpt lat="46.16952" lon="6.64631">
        <ele>1814</ele>
        <time>2022-07-31T09:18:37Z</time>
      </trkpt>
      <trkpt lat="46.16951" lon="6.64631">
        <ele>1815</ele>
        <time>2022-07-31T09:18:38Z</time>
      </trkpt>
      <trkpt lat="46.1695" lon="6.64631">
        <ele>1815</ele>
        <time>2022-07-31T09:18:39Z</time>
      </trkpt>
      <trkpt lat="46.16949" lon="6.64631">
        <ele>1815</ele>
        <time>2022-07-31T09:18:40Z</time>
      </trkpt>
      <trkpt lat="46.16948" lon="6.6463">
        <ele>1815</ele>
        <time>2022-07-31T09:18:41Z</time>
      </trkpt>
      <trkpt lat="46.16946" lon="6.6463">
        <ele>1815</ele>
        <time>2022-07-31T09:18:42Z</time>
      </trkpt>
      <trkpt lat="46.16946" lon="6.64629">
        <ele>1816</ele>
        <time>2022-07-31T09:18:43Z</time>
      </trkpt>
      <trkpt lat="46.16945" lon="6.64629">
        <ele>1816</ele>
        <time>2022-07-31T09:18:44Z</time>
      </trkpt>
      <trkpt lat="46.16945" lon="6.64628">
        <ele>1816</ele>
        <time>2022-07-31T09:18:45Z</time>
      </trkpt>
      <trkpt lat="46.16944" lon="6.64628">
        <ele>1816</ele>
        <time>2022-07-31T09:18:46Z</time>
      </trkpt>
      <trkpt lat="46.16943" lon="6.64628">
        <ele>1816</ele>
        <time>2022-07-31T09:18:47Z</time>
      </trkpt>
      <trkpt lat="46.16942" lon="6.64628">
        <ele>1817</ele>
        <time>2022-07-31T09:18:48Z</time>
      </trkpt>
      <trkpt lat="46.16942" lon="6.64629">
        <ele>1817</ele>
        <time>2022-07-31T09:18:49Z</time>
      </trkpt>
      <trkpt lat="46.16941" lon="6.64629">
        <ele>1817</ele>
        <time>2022-07-31T09:18:50Z</time>
      </trkpt>
      <trkpt lat="46.16941" lon="6.64629">
        <ele>1817</ele>
        <time>2022-07-31T09:18:51Z</time>
      </trkpt>
      <trkpt lat="46.16939" lon="6.64629">
        <ele>1817</ele>
        <time>2022-07-31T09:18:52Z</time>
      </trkpt>
      <trkpt lat="46.16939" lon="6.6463">
        <ele>1818</ele>
        <time>2022-07-31T09:18:53Z</time>
      </trkpt>
      <trkpt lat="46.16938" lon="6.6463">
        <ele>1818</ele>
        <time>2022-07-31T09:18:54Z</time>
      </trkpt>
      <trkpt lat="46.16937" lon="6.6463">
        <ele>1818</ele>
        <time>2022-07-31T09:18:55Z</time>
      </trkpt>
      <trkpt lat="46.16937" lon="6.64631">
        <ele>1818</ele>
        <time>2022-07-31T09:18:56Z</time>
      </trkpt>
      <trkpt lat="46.16937" lon="6.64632">
        <ele>1818</ele>
        <time>2022-07-31T09:18:57Z</time>
      </trkpt>
      <trkpt lat="46.16936" lon="6.64632">
        <ele>1818</ele>
        <time>2022-07-31T09:18:58Z</time>
      </trkpt>
      <trkpt lat="46.16935" lon="6.64633">
        <ele>1819</ele>
        <time>2022-07-31T09:18:59Z</time>
      </trkpt>
      <trkpt lat="46.16935" lon="6.64634">
        <ele>1819</ele>
        <time>2022-07-31T09:19:00Z</time>
      </trkpt>
      <trkpt lat="46.16935" lon="6.64634">
        <ele>1819</ele>
        <time>2022-07-31T09:19:01Z</time>
      </trkpt>
      <trkpt lat="46.16934" lon="6.64634">
        <ele>1819</ele>
        <time>2022-07-31T09:19:02Z</time>
      </trkpt>
      <trkpt lat="46.16933" lon="6.64635">
        <ele>1819</ele>
        <time>2022-07-31T09:19:03Z</time>
      </trkpt>
      <trkpt lat="46.16933" lon="6.64635">
        <ele>1819</ele>
        <time>2022-07-31T09:19:04Z</time>
      </trkpt>
      <trkpt lat="46.16933" lon="6.64635">
        <ele>1819</ele>
        <time>2022-07-31T09:19:05Z</time>
      </trkpt>
      <trkpt lat="46.16933" lon="6.64634">
        <ele>1820</ele>
        <time>2022-07-31T09:19:06Z</time>
      </trkpt>
      <trkpt lat="46.16931" lon="6.64634">
        <ele>1820</ele>
        <time>2022-07-31T09:19:07Z</time>
      </trkpt>
      <trkpt lat="46.1693" lon="6.64634">
        <ele>1820</ele>
        <time>2022-07-31T09:19:08Z</time>
      </trkpt>
      <trkpt lat="46.1693" lon="6.64633">
        <ele>1820</ele>
        <time>2022-07-31T09:19:09Z</time>
      </trkpt>
      <trkpt lat="46.16929" lon="6.64633">
        <ele>1820</ele>
        <time>2022-07-31T09:19:10Z</time>
      </trkpt>
      <trkpt lat="46.16928" lon="6.64633">
        <ele>1820</ele>
        <time>2022-07-31T09:19:11Z</time>
      </trkpt>
      <trkpt lat="46.16926" lon="6.64632">
        <ele>1820</ele>
        <time>2022-07-31T09:19:12Z</time>
      </trkpt>
      <trkpt lat="46.16925" lon="6.64631">
        <ele>1820</ele>
        <time>2022-07-31T09:19:13Z</time>
      </trkpt>
      <trkpt lat="46.16923" lon="6.6463">
        <ele>1820</ele>
        <time>2022-07-31T09:19:14Z</time>
      </trkpt>
      <trkpt lat="46.16922" lon="6.64629">
        <ele>1820</ele>
        <time>2022-07-31T09:19:15Z</time>
      </trkpt>
      <trkpt lat="46.16921" lon="6.64629">
        <ele>1821</ele>
        <time>2022-07-31T09:19:16Z</time>
      </trkpt>
      <trkpt lat="46.16921" lon="6.64629">
        <ele>1821</ele>
        <time>2022-07-31T09:19:17Z</time>
      </trkpt>
      <trkpt lat="46.1692" lon="6.6463">
        <ele>1821</ele>
        <time>2022-07-31T09:19:18Z</time>
      </trkpt>
      <trkpt lat="46.16919" lon="6.64629">
        <ele>1821</ele>
        <time>2022-07-31T09:19:19Z</time>
      </trkpt>
      <trkpt lat="46.16917" lon="6.64629">
        <ele>1821</ele>
        <time>2022-07-31T09:19:20Z</time>
      </trkpt>
      <trkpt lat="46.16917" lon="6.6463">
        <ele>1822</ele>
        <time>2022-07-31T09:19:21Z</time>
      </trkpt>
      <trkpt lat="46.16916" lon="6.6463">
        <ele>1822</ele>
        <time>2022-07-31T09:19:22Z</time>
      </trkpt>
      <trkpt lat="46.16915" lon="6.64629">
        <ele>1822</ele>
        <time>2022-07-31T09:19:23Z</time>
      </trkpt>
      <trkpt lat="46.16914" lon="6.64629">
        <ele>1823</ele>
        <time>2022-07-31T09:19:24Z</time>
      </trkpt>
      <trkpt lat="46.16913" lon="6.64628">
        <ele>1823</ele>
        <time>2022-07-31T09:19:25Z</time>
      </trkpt>
      <trkpt lat="46.16912" lon="6.64627">
        <ele>1823</ele>
        <time>2022-07-31T09:19:26Z</time>
      </trkpt>
      <trkpt lat="46.16912" lon="6.64627">
        <ele>1823</ele>
        <time>2022-07-31T09:19:27Z</time>
      </trkpt>
      <trkpt lat="46.16911" lon="6.64626">
        <ele>1824</ele>
        <time>2022-07-31T09:19:28Z</time>
      </trkpt>
      <trkpt lat="46.16909" lon="6.64625">
        <ele>1824</ele>
        <time>2022-07-31T09:19:29Z</time>
      </trkpt>
      <trkpt lat="46.16908" lon="6.64624">
        <ele>1824</ele>
        <time>2022-07-31T09:19:30Z</time>
      </trkpt>
      <trkpt lat="46.16908" lon="6.64623">
        <ele>1825</ele>
        <time>2022-07-31T09:19:31Z</time>
      </trkpt>
      <trkpt lat="46.16907" lon="6.64622">
        <ele>1825</ele>
        <time>2022-07-31T09:19:32Z</time>
      </trkpt>
      <trkpt lat="46.16906" lon="6.64622">
        <ele>1825</ele>
        <time>2022-07-31T09:19:33Z</time>
      </trkpt>
      <trkpt lat="46.16906" lon="6.64621">
        <ele>1825</ele>
        <time>2022-07-31T09:19:34Z</time>
      </trkpt>
      <trkpt lat="46.16905" lon="6.64621">
        <ele>1826</ele>
        <time>2022-07-31T09:19:35Z</time>
      </trkpt>
      <trkpt lat="46.16904" lon="6.6462">
        <ele>1826</ele>
        <time>2022-07-31T09:19:36Z</time>
      </trkpt>
      <trkpt lat="46.16904" lon="6.6462">
        <ele>1826</ele>
        <time>2022-07-31T09:19:37Z</time>
      </trkpt>
      <trkpt lat="46.16902" lon="6.6462">
        <ele>1826</ele>
        <time>2022-07-31T09:19:38Z</time>
      </trkpt>
      <trkpt lat="46.16901" lon="6.64619">
        <ele>1827</ele>
        <time>2022-07-31T09:19:39Z</time>
      </trkpt>
      <trkpt lat="46.169" lon="6.64619">
        <ele>1827</ele>
        <time>2022-07-31T09:19:40Z</time>
      </trkpt>
      <trkpt lat="46.169" lon="6.64619">
        <ele>1827</ele>
        <time>2022-07-31T09:19:41Z</time>
      </trkpt>
      <trkpt lat="46.16899" lon="6.64619">
        <ele>1827</ele>
        <time>2022-07-31T09:19:42Z</time>
      </trkpt>
      <trkpt lat="46.16898" lon="6.64618">
        <ele>1828</ele>
        <time>2022-07-31T09:19:43Z</time>
      </trkpt>
      <trkpt lat="46.16897" lon="6.64618">
        <ele>1828</ele>
        <time>2022-07-31T09:19:44Z</time>
      </trkpt>
      <trkpt lat="46.16896" lon="6.64617">
        <ele>1828</ele>
        <time>2022-07-31T09:19:45Z</time>
      </trkpt>
      <trkpt lat="46.16895" lon="6.64617">
        <ele>1828</ele>
        <time>2022-07-31T09:19:46Z</time>
      </trkpt>
      <trkpt lat="46.16894" lon="6.64616">
        <ele>1828</ele>
        <time>2022-07-31T09:19:47Z</time>
      </trkpt>
      <trkpt lat="46.16894" lon="6.64616">
        <ele>1828</ele>
        <time>2022-07-31T09:19:48Z</time>
      </trkpt>
      <trkpt lat="46.16892" lon="6.64615">
        <ele>1829</ele>
        <time>2022-07-31T09:19:49Z</time>
      </trkpt>
      <trkpt lat="46.16891" lon="6.64615">
        <ele>1829</ele>
        <time>2022-07-31T09:19:50Z</time>
      </trkpt>
      <trkpt lat="46.1689" lon="6.64614">
        <ele>1829</ele>
        <time>2022-07-31T09:19:51Z</time>
      </trkpt>
      <trkpt lat="46.16889" lon="6.64614">
        <ele>1829</ele>
        <time>2022-07-31T09:19:52Z</time>
      </trkpt>
      <trkpt lat="46.16888" lon="6.64613">
        <ele>1829</ele>
        <time>2022-07-31T09:19:53Z</time>
      </trkpt>
      <trkpt lat="46.16887" lon="6.64613">
        <ele>1829</ele>
        <time>2022-07-31T09:19:54Z</time>
      </trkpt>
      <trkpt lat="46.16886" lon="6.64612">
        <ele>1830</ele>
        <time>2022-07-31T09:19:55Z</time>
      </trkpt>
      <trkpt lat="46.16886" lon="6.64611">
        <ele>1830</ele>
        <time>2022-07-31T09:19:56Z</time>
      </trkpt>
      <trkpt lat="46.16884" lon="6.64611">
        <ele>1830</ele>
        <time>2022-07-31T09:19:57Z</time>
      </trkpt>
      <trkpt lat="46.16884" lon="6.6461">
        <ele>1830</ele>
        <time>2022-07-31T09:19:58Z</time>
      </trkpt>
      <trkpt lat="46.16883" lon="6.64609">
        <ele>1831</ele>
        <time>2022-07-31T09:19:59Z</time>
      </trkpt>
      <trkpt lat="46.16881" lon="6.64608">
        <ele>1831</ele>
        <time>2022-07-31T09:20:00Z</time>
      </trkpt>
      <trkpt lat="46.1688" lon="6.64607">
        <ele>1831</ele>
        <time>2022-07-31T09:20:01Z</time>
      </trkpt>
      <trkpt lat="46.16879" lon="6.64607">
        <ele>1831</ele>
        <time>2022-07-31T09:20:02Z</time>
      </trkpt>
      <trkpt lat="46.16878" lon="6.64606">
        <ele>1831</ele>
        <time>2022-07-31T09:20:03Z</time>
      </trkpt>
      <trkpt lat="46.16878" lon="6.64606">
        <ele>1832</ele>
        <time>2022-07-31T09:20:04Z</time>
      </trkpt>
      <trkpt lat="46.16876" lon="6.64605">
        <ele>1832</ele>
        <time>2022-07-31T09:20:05Z</time>
      </trkpt>
      <trkpt lat="46.16875" lon="6.64605">
        <ele>1832</ele>
        <time>2022-07-31T09:20:06Z</time>
      </trkpt>
      <trkpt lat="46.16875" lon="6.64604">
        <ele>1832</ele>
        <time>2022-07-31T09:20:07Z</time>
      </trkpt>
      <trkpt lat="46.16875" lon="6.64604">
        <ele>1833</ele>
        <time>2022-07-31T09:20:08Z</time>
      </trkpt>
      <trkpt lat="46.16874" lon="6.64605">
        <ele>1833</ele>
        <time>2022-07-31T09:20:09Z</time>
      </trkpt>
      <trkpt lat="46.16874" lon="6.64605">
        <ele>1833</ele>
        <time>2022-07-31T09:20:10Z</time>
      </trkpt>
      <trkpt lat="46.16872" lon="6.64605">
        <ele>1833</ele>
        <time>2022-07-31T09:20:11Z</time>
      </trkpt>
      <trkpt lat="46.16872" lon="6.64605">
        <ele>1834</ele>
        <time>2022-07-31T09:20:12Z</time>
      </trkpt>
      <trkpt lat="46.16871" lon="6.64604">
        <ele>1834</ele>
        <time>2022-07-31T09:20:13Z</time>
      </trkpt>
      <trkpt lat="46.1687" lon="6.64604">
        <ele>1834</ele>
        <time>2022-07-31T09:20:14Z</time>
      </trkpt>
      <trkpt lat="46.1687" lon="6.64604">
        <ele>1834</ele>
        <time>2022-07-31T09:20:15Z</time>
      </trkpt>
      <trkpt lat="46.16869" lon="6.64604">
        <ele>1835</ele>
        <time>2022-07-31T09:20:16Z</time>
      </trkpt>
      <trkpt lat="46.16868" lon="6.64603">
        <ele>1835</ele>
        <time>2022-07-31T09:20:17Z</time>
      </trkpt>
      <trkpt lat="46.16867" lon="6.64603">
        <ele>1835</ele>
        <time>2022-07-31T09:20:18Z</time>
      </trkpt>
      <trkpt lat="46.16867" lon="6.64603">
        <ele>1835</ele>
        <time>2022-07-31T09:20:19Z</time>
      </trkpt>
      <trkpt lat="46.16865" lon="6.64603">
        <ele>1836</ele>
        <time>2022-07-31T09:20:20Z</time>
      </trkpt>
      <trkpt lat="46.16865" lon="6.64602">
        <ele>1836</ele>
        <time>2022-07-31T09:20:21Z</time>
      </trkpt>
      <trkpt lat="46.16864" lon="6.64601">
        <ele>1836</ele>
        <time>2022-07-31T09:20:22Z</time>
      </trkpt>
      <trkpt lat="46.16863" lon="6.646">
        <ele>1836</ele>
        <time>2022-07-31T09:20:23Z</time>
      </trkpt>
      <trkpt lat="46.16862" lon="6.646">
        <ele>1837</ele>
        <time>2022-07-31T09:20:24Z</time>
      </trkpt>
      <trkpt lat="46.16861" lon="6.64599">
        <ele>1837</ele>
        <time>2022-07-31T09:20:25Z</time>
      </trkpt>
      <trkpt lat="46.1686" lon="6.64598">
        <ele>1837</ele>
        <time>2022-07-31T09:20:26Z</time>
      </trkpt>
      <trkpt lat="46.16859" lon="6.64598">
        <ele>1837</ele>
        <time>2022-07-31T09:20:27Z</time>
      </trkpt>
      <trkpt lat="46.16859" lon="6.64597">
        <ele>1838</ele>
        <time>2022-07-31T09:20:28Z</time>
      </trkpt>
      <trkpt lat="46.16858" lon="6.64597">
        <ele>1838</ele>
        <time>2022-07-31T09:20:29Z</time>
      </trkpt>
      <trkpt lat="46.16857" lon="6.64596">
        <ele>1838</ele>
        <time>2022-07-31T09:20:30Z</time>
      </trkpt>
      <trkpt lat="46.16856" lon="6.64596">
        <ele>1838</ele>
        <time>2022-07-31T09:20:31Z</time>
      </trkpt>
      <trkpt lat="46.16855" lon="6.64596">
        <ele>1838</ele>
        <time>2022-07-31T09:20:32Z</time>
      </trkpt>
      <trkpt lat="46.16855" lon="6.64595">
        <ele>1838</ele>
        <time>2022-07-31T09:20:33Z</time>
      </trkpt>
      <trkpt lat="46.16854" lon="6.64595">
        <ele>1838</ele>
        <time>2022-07-31T09:20:34Z</time>
      </trkpt>
      <trkpt lat="46.16853" lon="6.64594">
        <ele>1839</ele>
        <time>2022-07-31T09:20:35Z</time>
      </trkpt>
      <trkpt lat="46.16852" lon="6.64594">
        <ele>1839</ele>
        <time>2022-07-31T09:20:36Z</time>
      </trkpt>
      <trkpt lat="46.1685" lon="6.64594">
        <ele>1839</ele>
        <time>2022-07-31T09:20:37Z</time>
      </trkpt>
      <trkpt lat="46.16849" lon="6.64594">
        <ele>1839</ele>
        <time>2022-07-31T09:20:38Z</time>
      </trkpt>
      <trkpt lat="46.16848" lon="6.64593">
        <ele>1839</ele>
        <time>2022-07-31T09:20:39Z</time>
      </trkpt>
      <trkpt lat="46.16848" lon="6.64592">
        <ele>1839</ele>
        <time>2022-07-31T09:20:40Z</time>
      </trkpt>
      <trkpt lat="46.16847" lon="6.64592">
        <ele>1839</ele>
        <time>2022-07-31T09:20:41Z</time>
      </trkpt>
      <trkpt lat="46.16847" lon="6.64591">
        <ele>1839</ele>
        <time>2022-07-31T09:20:42Z</time>
      </trkpt>
      <trkpt lat="46.16846" lon="6.64589">
        <ele>1840</ele>
        <time>2022-07-31T09:20:43Z</time>
      </trkpt>
      <trkpt lat="46.16845" lon="6.64588">
        <ele>1840</ele>
        <time>2022-07-31T09:20:44Z</time>
      </trkpt>
      <trkpt lat="46.16843" lon="6.64588">
        <ele>1840</ele>
        <time>2022-07-31T09:20:45Z</time>
      </trkpt>
      <trkpt lat="46.16842" lon="6.64588">
        <ele>1840</ele>
        <time>2022-07-31T09:20:46Z</time>
      </trkpt>
      <trkpt lat="46.16841" lon="6.64587">
        <ele>1840</ele>
        <time>2022-07-31T09:20:47Z</time>
      </trkpt>
      <trkpt lat="46.1684" lon="6.64586">
        <ele>1840</ele>
        <time>2022-07-31T09:20:48Z</time>
      </trkpt>
      <trkpt lat="46.16839" lon="6.64586">
        <ele>1840</ele>
        <time>2022-07-31T09:20:49Z</time>
      </trkpt>
      <trkpt lat="46.16838" lon="6.64586">
        <ele>1840</ele>
        <time>2022-07-31T09:20:50Z</time>
      </trkpt>
      <trkpt lat="46.16836" lon="6.64585">
        <ele>1840</ele>
        <time>2022-07-31T09:20:51Z</time>
      </trkpt>
      <trkpt lat="46.16836" lon="6.64585">
        <ele>1841</ele>
        <time>2022-07-31T09:20:52Z</time>
      </trkpt>
      <trkpt lat="46.16835" lon="6.64585">
        <ele>1841</ele>
        <time>2022-07-31T09:20:53Z</time>
      </trkpt>
      <trkpt lat="46.16835" lon="6.64586">
        <ele>1841</ele>
        <time>2022-07-31T09:20:54Z</time>
      </trkpt>
      <trkpt lat="46.16835" lon="6.64586">
        <ele>1841</ele>
        <time>2022-07-31T09:20:55Z</time>
      </trkpt>
      <trkpt lat="46.16836" lon="6.64586">
        <ele>1841</ele>
        <time>2022-07-31T09:20:56Z</time>
      </trkpt>
      <trkpt lat="46.16836" lon="6.64587">
        <ele>1841</ele>
        <time>2022-07-31T09:20:57Z</time>
      </trkpt>
      <trkpt lat="46.16836" lon="6.64587">
        <ele>1841</ele>
        <time>2022-07-31T09:20:58Z</time>
      </trkpt>
      <trkpt lat="46.16836" lon="6.64587">
        <ele>1841</ele>
        <time>2022-07-31T09:20:59Z</time>
      </trkpt>
      <trkpt lat="46.16836" lon="6.64587">
        <ele>1842</ele>
        <time>2022-07-31T09:21:00Z</time>
      </trkpt>
      <trkpt lat="46.16836" lon="6.64588">
        <ele>1842</ele>
        <time>2022-07-31T09:21:01Z</time>
      </trkpt>
      <trkpt lat="46.16836" lon="6.64587">
        <ele>1842</ele>
        <time>2022-07-31T09:21:02Z</time>
      </trkpt>
      <trkpt lat="46.16836" lon="6.64587">
        <ele>1842</ele>
        <time>2022-07-31T09:21:03Z</time>
      </trkpt>
      <trkpt lat="46.16834" lon="6.64587">
        <ele>1842</ele>
        <time>2022-07-31T09:21:04Z</time>
      </trkpt>
      <trkpt lat="46.16834" lon="6.64587">
        <ele>1842</ele>
        <time>2022-07-31T09:21:05Z</time>
      </trkpt>
      <trkpt lat="46.16832" lon="6.64586">
        <ele>1842</ele>
        <time>2022-07-31T09:21:06Z</time>
      </trkpt>
      <trkpt lat="46.16832" lon="6.64586">
        <ele>1842</ele>
        <time>2022-07-31T09:21:07Z</time>
      </trkpt>
      <trkpt lat="46.16831" lon="6.64586">
        <ele>1842</ele>
        <time>2022-07-31T09:21:08Z</time>
      </trkpt>
      <trkpt lat="46.1683" lon="6.64585">
        <ele>1842</ele>
        <time>2022-07-31T09:21:09Z</time>
      </trkpt>
      <trkpt lat="46.16828" lon="6.64584">
        <ele>1842</ele>
        <time>2022-07-31T09:21:10Z</time>
      </trkpt>
      <trkpt lat="46.16827" lon="6.64584">
        <ele>1842</ele>
        <time>2022-07-31T09:21:11Z</time>
      </trkpt>
      <trkpt lat="46.16826" lon="6.64584">
        <ele>1843</ele>
        <time>2022-07-31T09:21:12Z</time>
      </trkpt>
      <trkpt lat="46.16825" lon="6.64584">
        <ele>1843</ele>
        <time>2022-07-31T09:21:13Z</time>
      </trkpt>
      <trkpt lat="46.16825" lon="6.64585">
        <ele>1843</ele>
        <time>2022-07-31T09:21:14Z</time>
      </trkpt>
      <trkpt lat="46.16823" lon="6.64584">
        <ele>1843</ele>
        <time>2022-07-31T09:21:15Z</time>
      </trkpt>
      <trkpt lat="46.16823" lon="6.64584">
        <ele>1843</ele>
        <time>2022-07-31T09:21:16Z</time>
      </trkpt>
      <trkpt lat="46.16821" lon="6.64584">
        <ele>1843</ele>
        <time>2022-07-31T09:21:17Z</time>
      </trkpt>
      <trkpt lat="46.1682" lon="6.64584">
        <ele>1843</ele>
        <time>2022-07-31T09:21:18Z</time>
      </trkpt>
      <trkpt lat="46.16819" lon="6.64584">
        <ele>1844</ele>
        <time>2022-07-31T09:21:19Z</time>
      </trkpt>
      <trkpt lat="46.16818" lon="6.64584">
        <ele>1844</ele>
        <time>2022-07-31T09:21:20Z</time>
      </trkpt>
      <trkpt lat="46.16818" lon="6.64584">
        <ele>1844</ele>
        <time>2022-07-31T09:21:21Z</time>
      </trkpt>
      <trkpt lat="46.16817" lon="6.64584">
        <ele>1844</ele>
        <time>2022-07-31T09:21:22Z</time>
      </trkpt>
      <trkpt lat="46.16817" lon="6.64584">
        <ele>1844</ele>
        <time>2022-07-31T09:21:23Z</time>
      </trkpt>
      <trkpt lat="46.16817" lon="6.64584">
        <ele>1844</ele>
        <time>2022-07-31T09:21:24Z</time>
      </trkpt>
      <trkpt lat="46.16816" lon="6.64585">
        <ele>1844</ele>
        <time>2022-07-31T09:21:25Z</time>
      </trkpt>
      <trkpt lat="46.16815" lon="6.64584">
        <ele>1844</ele>
        <time>2022-07-31T09:21:26Z</time>
      </trkpt>
      <trkpt lat="46.16814" lon="6.64584">
        <ele>1845</ele>
        <time>2022-07-31T09:21:27Z</time>
      </trkpt>
      <trkpt lat="46.16814" lon="6.64585">
        <ele>1845</ele>
        <time>2022-07-31T09:21:28Z</time>
      </trkpt>
      <trkpt lat="46.16813" lon="6.64585">
        <ele>1845</ele>
        <time>2022-07-31T09:21:29Z</time>
      </trkpt>
      <trkpt lat="46.16812" lon="6.64584">
        <ele>1845</ele>
        <time>2022-07-31T09:21:30Z</time>
      </trkpt>
      <trkpt lat="46.16811" lon="6.64584">
        <ele>1845</ele>
        <time>2022-07-31T09:21:31Z</time>
      </trkpt>
      <trkpt lat="46.1681" lon="6.64584">
        <ele>1845</ele>
        <time>2022-07-31T09:21:32Z</time>
      </trkpt>
      <trkpt lat="46.1681" lon="6.64584">
        <ele>1845</ele>
        <time>2022-07-31T09:21:33Z</time>
      </trkpt>
      <trkpt lat="46.16809" lon="6.64583">
        <ele>1845</ele>
        <time>2022-07-31T09:21:34Z</time>
      </trkpt>
      <trkpt lat="46.16809" lon="6.64583">
        <ele>1845</ele>
        <time>2022-07-31T09:21:35Z</time>
      </trkpt>
      <trkpt lat="46.16809" lon="6.64583">
        <ele>1846</ele>
        <time>2022-07-31T09:21:36Z</time>
      </trkpt>
      <trkpt lat="46.16808" lon="6.64582">
        <ele>1846</ele>
        <time>2022-07-31T09:21:37Z</time>
      </trkpt>
      <trkpt lat="46.16806" lon="6.64582">
        <ele>1846</ele>
        <time>2022-07-31T09:21:38Z</time>
      </trkpt>
      <trkpt lat="46.16805" lon="6.64581">
        <ele>1846</ele>
        <time>2022-07-31T09:21:39Z</time>
      </trkpt>
      <trkpt lat="46.16804" lon="6.64581">
        <ele>1846</ele>
        <time>2022-07-31T09:21:40Z</time>
      </trkpt>
      <trkpt lat="46.16803" lon="6.6458">
        <ele>1847</ele>
        <time>2022-07-31T09:21:41Z</time>
      </trkpt>
      <trkpt lat="46.16802" lon="6.6458">
        <ele>1847</ele>
        <time>2022-07-31T09:21:42Z</time>
      </trkpt>
      <trkpt lat="46.16801" lon="6.64579">
        <ele>1847</ele>
        <time>2022-07-31T09:21:43Z</time>
      </trkpt>
      <trkpt lat="46.168" lon="6.64579">
        <ele>1847</ele>
        <time>2022-07-31T09:21:44Z</time>
      </trkpt>
      <trkpt lat="46.16799" lon="6.64579">
        <ele>1847</ele>
        <time>2022-07-31T09:21:45Z</time>
      </trkpt>
      <trkpt lat="46.16798" lon="6.6458">
        <ele>1848</ele>
        <time>2022-07-31T09:21:46Z</time>
      </trkpt>
      <trkpt lat="46.16798" lon="6.6458">
        <ele>1848</ele>
        <time>2022-07-31T09:21:47Z</time>
      </trkpt>
      <trkpt lat="46.16797" lon="6.6458">
        <ele>1848</ele>
        <time>2022-07-31T09:21:48Z</time>
      </trkpt>
      <trkpt lat="46.16796" lon="6.6458">
        <ele>1848</ele>
        <time>2022-07-31T09:21:49Z</time>
      </trkpt>
      <trkpt lat="46.16796" lon="6.6458">
        <ele>1849</ele>
        <time>2022-07-31T09:21:50Z</time>
      </trkpt>
      <trkpt lat="46.16794" lon="6.6458">
        <ele>1849</ele>
        <time>2022-07-31T09:21:51Z</time>
      </trkpt>
      <trkpt lat="46.16793" lon="6.6458">
        <ele>1849</ele>
        <time>2022-07-31T09:21:52Z</time>
      </trkpt>
      <trkpt lat="46.16793" lon="6.6458">
        <ele>1849</ele>
        <time>2022-07-31T09:21:53Z</time>
      </trkpt>
      <trkpt lat="46.16792" lon="6.6458">
        <ele>1849</ele>
        <time>2022-07-31T09:21:54Z</time>
      </trkpt>
      <trkpt lat="46.16791" lon="6.64581">
        <ele>1850</ele>
        <time>2022-07-31T09:21:55Z</time>
      </trkpt>
      <trkpt lat="46.16791" lon="6.64581">
        <ele>1850</ele>
        <time>2022-07-31T09:21:56Z</time>
      </trkpt>
      <trkpt lat="46.1679" lon="6.64581">
        <ele>1850</ele>
        <time>2022-07-31T09:21:57Z</time>
      </trkpt>
      <trkpt lat="46.1679" lon="6.64581">
        <ele>1850</ele>
        <time>2022-07-31T09:21:58Z</time>
      </trkpt>
      <trkpt lat="46.16789" lon="6.6458">
        <ele>1850</ele>
        <time>2022-07-31T09:21:59Z</time>
      </trkpt>
      <trkpt lat="46.16788" lon="6.6458">
        <ele>1851</ele>
        <time>2022-07-31T09:22:00Z</time>
      </trkpt>
      <trkpt lat="46.16788" lon="6.6458">
        <ele>1851</ele>
        <time>2022-07-31T09:22:01Z</time>
      </trkpt>
      <trkpt lat="46.16787" lon="6.64579">
        <ele>1851</ele>
        <time>2022-07-31T09:22:02Z</time>
      </trkpt>
      <trkpt lat="46.16786" lon="6.6458">
        <ele>1851</ele>
        <time>2022-07-31T09:22:03Z</time>
      </trkpt>
      <trkpt lat="46.16785" lon="6.6458">
        <ele>1851</ele>
        <time>2022-07-31T09:22:04Z</time>
      </trkpt>
      <trkpt lat="46.16784" lon="6.6458">
        <ele>1851</ele>
        <time>2022-07-31T09:22:05Z</time>
      </trkpt>
      <trkpt lat="46.16783" lon="6.6458">
        <ele>1851</ele>
        <time>2022-07-31T09:22:06Z</time>
      </trkpt>
      <trkpt lat="46.16782" lon="6.64581">
        <ele>1852</ele>
        <time>2022-07-31T09:22:07Z</time>
      </trkpt>
      <trkpt lat="46.16782" lon="6.64581">
        <ele>1852</ele>
        <time>2022-07-31T09:22:08Z</time>
      </trkpt>
      <trkpt lat="46.16781" lon="6.64582">
        <ele>1852</ele>
        <time>2022-07-31T09:22:09Z</time>
      </trkpt>
      <trkpt lat="46.1678" lon="6.64583">
        <ele>1852</ele>
        <time>2022-07-31T09:22:10Z</time>
      </trkpt>
      <trkpt lat="46.1678" lon="6.64584">
        <ele>1852</ele>
        <time>2022-07-31T09:22:11Z</time>
      </trkpt>
      <trkpt lat="46.1678" lon="6.64584">
        <ele>1852</ele>
        <time>2022-07-31T09:22:12Z</time>
      </trkpt>
      <trkpt lat="46.16779" lon="6.64584">
        <ele>1852</ele>
        <time>2022-07-31T09:22:13Z</time>
      </trkpt>
      <trkpt lat="46.16777" lon="6.64585">
        <ele>1853</ele>
        <time>2022-07-31T09:22:14Z</time>
      </trkpt>
      <trkpt lat="46.16777" lon="6.64585">
        <ele>1853</ele>
        <time>2022-07-31T09:22:15Z</time>
      </trkpt>
      <trkpt lat="46.16777" lon="6.64585">
        <ele>1853</ele>
        <time>2022-07-31T09:22:16Z</time>
      </trkpt>
      <trkpt lat="46.16776" lon="6.64585">
        <ele>1853</ele>
        <time>2022-07-31T09:22:17Z</time>
      </trkpt>
      <trkpt lat="46.16776" lon="6.64586">
        <ele>1853</ele>
        <time>2022-07-31T09:22:18Z</time>
      </trkpt>
      <trkpt lat="46.16775" lon="6.64586">
        <ele>1853</ele>
        <time>2022-07-31T09:22:19Z</time>
      </trkpt>
      <trkpt lat="46.16774" lon="6.64587">
        <ele>1854</ele>
        <time>2022-07-31T09:22:20Z</time>
      </trkpt>
      <trkpt lat="46.16774" lon="6.64588">
        <ele>1854</ele>
        <time>2022-07-31T09:22:21Z</time>
      </trkpt>
      <trkpt lat="46.16774" lon="6.64589">
        <ele>1854</ele>
        <time>2022-07-31T09:22:22Z</time>
      </trkpt>
      <trkpt lat="46.16773" lon="6.6459">
        <ele>1854</ele>
        <time>2022-07-31T09:22:23Z</time>
      </trkpt>
      <trkpt lat="46.16773" lon="6.64591">
        <ele>1854</ele>
        <time>2022-07-31T09:22:24Z</time>
      </trkpt>
      <trkpt lat="46.16773" lon="6.64591">
        <ele>1854</ele>
        <time>2022-07-31T09:22:25Z</time>
      </trkpt>
      <trkpt lat="46.16772" lon="6.64591">
        <ele>1855</ele>
        <time>2022-07-31T09:22:26Z</time>
      </trkpt>
      <trkpt lat="46.16772" lon="6.64592">
        <ele>1855</ele>
        <time>2022-07-31T09:22:27Z</time>
      </trkpt>
      <trkpt lat="46.16772" lon="6.64592">
        <ele>1855</ele>
        <time>2022-07-31T09:22:28Z</time>
      </trkpt>
      <trkpt lat="46.16771" lon="6.64592">
        <ele>1855</ele>
        <time>2022-07-31T09:22:29Z</time>
      </trkpt>
      <trkpt lat="46.16771" lon="6.64592">
        <ele>1855</ele>
        <time>2022-07-31T09:22:30Z</time>
      </trkpt>
      <trkpt lat="46.16771" lon="6.64592">
        <ele>1855</ele>
        <time>2022-07-31T09:22:31Z</time>
      </trkpt>
      <trkpt lat="46.16771" lon="6.64594">
        <ele>1855</ele>
        <time>2022-07-31T09:22:32Z</time>
      </trkpt>
      <trkpt lat="46.16771" lon="6.64595">
        <ele>1855</ele>
        <time>2022-07-31T09:22:33Z</time>
      </trkpt>
      <trkpt lat="46.16771" lon="6.64595">
        <ele>1855</ele>
        <time>2022-07-31T09:22:34Z</time>
      </trkpt>
      <trkpt lat="46.16771" lon="6.64595">
        <ele>1856</ele>
        <time>2022-07-31T09:22:35Z</time>
      </trkpt>
      <trkpt lat="46.1677" lon="6.64594">
        <ele>1856</ele>
        <time>2022-07-31T09:22:36Z</time>
      </trkpt>
      <trkpt lat="46.16769" lon="6.64594">
        <ele>1856</ele>
        <time>2022-07-31T09:22:37Z</time>
      </trkpt>
      <trkpt lat="46.16769" lon="6.64594">
        <ele>1856</ele>
        <time>2022-07-31T09:22:38Z</time>
      </trkpt>
      <trkpt lat="46.16769" lon="6.64594">
        <ele>1856</ele>
        <time>2022-07-31T09:22:39Z</time>
      </trkpt>
      <trkpt lat="46.16769" lon="6.64594">
        <ele>1856</ele>
        <time>2022-07-31T09:22:40Z</time>
      </trkpt>
      <trkpt lat="46.16769" lon="6.64594">
        <ele>1856</ele>
        <time>2022-07-31T09:22:41Z</time>
      </trkpt>
      <trkpt lat="46.16769" lon="6.64594">
        <ele>1856</ele>
        <time>2022-07-31T09:22:42Z</time>
      </trkpt>
      <trkpt lat="46.1677" lon="6.64594">
        <ele>1856</ele>
        <time>2022-07-31T09:22:43Z</time>
      </trkpt>
      <trkpt lat="46.16771" lon="6.64594">
        <ele>1856</ele>
        <time>2022-07-31T09:22:44Z</time>
      </trkpt>
      <trkpt lat="46.16771" lon="6.64593">
        <ele>1856</ele>
        <time>2022-07-31T09:22:45Z</time>
      </trkpt>
      <trkpt lat="46.16771" lon="6.64593">
        <ele>1856</ele>
        <time>2022-07-31T09:22:46Z</time>
      </trkpt>
      <trkpt lat="46.16771" lon="6.64593">
        <ele>1856</ele>
        <time>2022-07-31T09:22:47Z</time>
      </trkpt>
      <trkpt lat="46.16771" lon="6.64593">
        <ele>1856</ele>
        <time>2022-07-31T09:22:48Z</time>
      </trkpt>
      <trkpt lat="46.16772" lon="6.64593">
        <ele>1856</ele>
        <time>2022-07-31T09:22:49Z</time>
      </trkpt>
      <trkpt lat="46.16772" lon="6.64592">
        <ele>1857</ele>
        <time>2022-07-31T09:22:50Z</time>
      </trkpt>
      <trkpt lat="46.16773" lon="6.64591">
        <ele>1857</ele>
        <time>2022-07-31T09:22:51Z</time>
      </trkpt>
      <trkpt lat="46.16773" lon="6.6459">
        <ele>1857</ele>
        <time>2022-07-31T09:22:52Z</time>
      </trkpt>
      <trkpt lat="46.16774" lon="6.64589">
        <ele>1857</ele>
        <time>2022-07-31T09:22:53Z</time>
      </trkpt>
      <trkpt lat="46.16775" lon="6.64588">
        <ele>1857</ele>
        <time>2022-07-31T09:22:54Z</time>
      </trkpt>
      <trkpt lat="46.16776" lon="6.64587">
        <ele>1857</ele>
        <time>2022-07-31T09:22:55Z</time>
      </trkpt>
      <trkpt lat="46.16777" lon="6.64586">
        <ele>1857</ele>
        <time>2022-07-31T09:22:56Z</time>
      </trkpt>
      <trkpt lat="46.16777" lon="6.64585">
        <ele>1857</ele>
        <time>2022-07-31T09:22:57Z</time>
      </trkpt>
      <trkpt lat="46.16777" lon="6.64585">
        <ele>1857</ele>
        <time>2022-07-31T09:22:58Z</time>
      </trkpt>
      <trkpt lat="46.1678" lon="6.64585">
        <ele>1857</ele>
        <time>2022-07-31T09:22:59Z</time>
      </trkpt>
      <trkpt lat="46.1678" lon="6.64585">
        <ele>1857</ele>
        <time>2022-07-31T09:23:00Z</time>
      </trkpt>
      <trkpt lat="46.16781" lon="6.64584">
        <ele>1857</ele>
        <time>2022-07-31T09:23:01Z</time>
      </trkpt>
      <trkpt lat="46.16782" lon="6.64583">
        <ele>1858</ele>
        <time>2022-07-31T09:23:02Z</time>
      </trkpt>
      <trkpt lat="46.16783" lon="6.64583">
        <ele>1858</ele>
        <time>2022-07-31T09:23:03Z</time>
      </trkpt>
      <trkpt lat="46.16785" lon="6.64582">
        <ele>1858</ele>
        <time>2022-07-31T09:23:04Z</time>
      </trkpt>
      <trkpt lat="46.16786" lon="6.6458">
        <ele>1858</ele>
        <time>2022-07-31T09:23:05Z</time>
      </trkpt>
      <trkpt lat="46.16787" lon="6.6458">
        <ele>1858</ele>
        <time>2022-07-31T09:23:06Z</time>
      </trkpt>
      <trkpt lat="46.16787" lon="6.64579">
        <ele>1858</ele>
        <time>2022-07-31T09:23:07Z</time>
      </trkpt>
      <trkpt lat="46.16787" lon="6.64579">
        <ele>1858</ele>
        <time>2022-07-31T09:23:08Z</time>
      </trkpt>
      <trkpt lat="46.16788" lon="6.64579">
        <ele>1858</ele>
        <time>2022-07-31T09:23:09Z</time>
      </trkpt>
      <trkpt lat="46.16789" lon="6.64579">
        <ele>1858</ele>
        <time>2022-07-31T09:23:10Z</time>
      </trkpt>
      <trkpt lat="46.1679" lon="6.64579">
        <ele>1858</ele>
        <time>2022-07-31T09:23:11Z</time>
      </trkpt>
      <trkpt lat="46.1679" lon="6.64579">
        <ele>1858</ele>
        <time>2022-07-31T09:23:12Z</time>
      </trkpt>
      <trkpt lat="46.16791" lon="6.64579">
        <ele>1858</ele>
        <time>2022-07-31T09:23:13Z</time>
      </trkpt>
      <trkpt lat="46.16792" lon="6.64579">
        <ele>1858</ele>
        <time>2022-07-31T09:23:14Z</time>
      </trkpt>
      <trkpt lat="46.16793" lon="6.64578">
        <ele>1858</ele>
        <time>2022-07-31T09:23:15Z</time>
      </trkpt>
      <trkpt lat="46.16793" lon="6.64578">
        <ele>1858</ele>
        <time>2022-07-31T09:23:16Z</time>
      </trkpt>
      <trkpt lat="46.16794" lon="6.64578">
        <ele>1858</ele>
        <time>2022-07-31T09:23:17Z</time>
      </trkpt>
      <trkpt lat="46.16795" lon="6.64578">
        <ele>1858</ele>
        <time>2022-07-31T09:23:18Z</time>
      </trkpt>
      <trkpt lat="46.16795" lon="6.64579">
        <ele>1858</ele>
        <time>2022-07-31T09:23:19Z</time>
      </trkpt>
      <trkpt lat="46.16796" lon="6.64579">
        <ele>1858</ele>
        <time>2022-07-31T09:23:20Z</time>
      </trkpt>
      <trkpt lat="46.16796" lon="6.6458">
        <ele>1858</ele>
        <time>2022-07-31T09:23:21Z</time>
      </trkpt>
      <trkpt lat="46.16797" lon="6.6458">
        <ele>1857</ele>
        <time>2022-07-31T09:23:22Z</time>
      </trkpt>
      <trkpt lat="46.16798" lon="6.6458">
        <ele>1857</ele>
        <time>2022-07-31T09:23:23Z</time>
      </trkpt>
      <trkpt lat="46.16798" lon="6.6458">
        <ele>1857</ele>
        <time>2022-07-31T09:23:24Z</time>
      </trkpt>
      <trkpt lat="46.16798" lon="6.64581">
        <ele>1857</ele>
        <time>2022-07-31T09:23:25Z</time>
      </trkpt>
      <trkpt lat="46.16799" lon="6.64581">
        <ele>1856</ele>
        <time>2022-07-31T09:23:26Z</time>
      </trkpt>
      <trkpt lat="46.16799" lon="6.64581">
        <ele>1856</ele>
        <time>2022-07-31T09:23:27Z</time>
      </trkpt>
      <trkpt lat="46.16799" lon="6.64581">
        <ele>1856</ele>
        <time>2022-07-31T09:23:28Z</time>
      </trkpt>
      <trkpt lat="46.168" lon="6.64581">
        <ele>1856</ele>
        <time>2022-07-31T09:23:29Z</time>
      </trkpt>
      <trkpt lat="46.16801" lon="6.64582">
        <ele>1855</ele>
        <time>2022-07-31T09:23:30Z</time>
      </trkpt>
      <trkpt lat="46.16801" lon="6.64582">
        <ele>1855</ele>
        <time>2022-07-31T09:23:31Z</time>
      </trkpt>
      <trkpt lat="46.16802" lon="6.64583">
        <ele>1855</ele>
        <time>2022-07-31T09:23:32Z</time>
      </trkpt>
      <trkpt lat="46.16802" lon="6.64584">
        <ele>1855</ele>
        <time>2022-07-31T09:23:33Z</time>
      </trkpt>
      <trkpt lat="46.16802" lon="6.64584">
        <ele>1855</ele>
        <time>2022-07-31T09:23:34Z</time>
      </trkpt>
      <trkpt lat="46.16802" lon="6.64584">
        <ele>1855</ele>
        <time>2022-07-31T09:23:35Z</time>
      </trkpt>
      <trkpt lat="46.16802" lon="6.64584">
        <ele>1855</ele>
        <time>2022-07-31T09:23:36Z</time>
      </trkpt>
      <trkpt lat="46.16802" lon="6.64584">
        <ele>1855</ele>
        <time>2022-07-31T09:23:37Z</time>
      </trkpt>
      <trkpt lat="46.16801" lon="6.64584">
        <ele>1855</ele>
        <time>2022-07-31T09:23:38Z</time>
      </trkpt>
      <trkpt lat="46.16801" lon="6.64584">
        <ele>1854</ele>
        <time>2022-07-31T09:23:39Z</time>
      </trkpt>
      <trkpt lat="46.16801" lon="6.64583">
        <ele>1854</ele>
        <time>2022-07-31T09:23:40Z</time>
      </trkpt>
      <trkpt lat="46.16801" lon="6.64583">
        <ele>1854</ele>
        <time>2022-07-31T09:23:41Z</time>
      </trkpt>
      <trkpt lat="46.16801" lon="6.64583">
        <ele>1854</ele>
        <time>2022-07-31T09:23:42Z</time>
      </trkpt>
      <trkpt lat="46.16801" lon="6.64583">
        <ele>1854</ele>
        <time>2022-07-31T09:23:43Z</time>
      </trkpt>
      <trkpt lat="46.16801" lon="6.64583">
        <ele>1854</ele>
        <time>2022-07-31T09:23:44Z</time>
      </trkpt>
      <trkpt lat="46.16801" lon="6.64583">
        <ele>1854</ele>
        <time>2022-07-31T09:23:45Z</time>
      </trkpt>
      <trkpt lat="46.16801" lon="6.64583">
        <ele>1854</ele>
        <time>2022-07-31T09:23:46Z</time>
      </trkpt>
      <trkpt lat="46.16801" lon="6.64583">
        <ele>1854</ele>
        <time>2022-07-31T09:23:47Z</time>
      </trkpt>
      <trkpt lat="46.16801" lon="6.64583">
        <ele>1854</ele>
        <time>2022-07-31T09:23:48Z</time>
      </trkpt>
      <trkpt lat="46.16801" lon="6.64582">
        <ele>1854</ele>
        <time>2022-07-31T09:23:49Z</time>
      </trkpt>
      <trkpt lat="46.16801" lon="6.64582">
        <ele>1854</ele>
        <time>2022-07-31T09:23:50Z</time>
      </trkpt>
      <trkpt lat="46.16801" lon="6.64582">
        <ele>1854</ele>
        <time>2022-07-31T09:23:51Z</time>
      </trkpt>
      <trkpt lat="46.16801" lon="6.64582">
        <ele>1854</ele>
        <time>2022-07-31T09:23:52Z</time>
      </trkpt>
      <trkpt lat="46.16801" lon="6.64582">
        <ele>1854</ele>
        <time>2022-07-31T09:23:53Z</time>
      </trkpt>
      <trkpt lat="46.16801" lon="6.64582">
        <ele>1854</ele>
        <time>2022-07-31T09:23:54Z</time>
      </trkpt>
      <trkpt lat="46.16801" lon="6.64582">
        <ele>1853</ele>
        <time>2022-07-31T09:23:55Z</time>
      </trkpt>
      <trkpt lat="46.16801" lon="6.64582">
        <ele>1853</ele>
        <time>2022-07-31T09:23:56Z</time>
      </trkpt>
      <trkpt lat="46.16801" lon="6.64582">
        <ele>1853</ele>
        <time>2022-07-31T09:23:57Z</time>
      </trkpt>
      <trkpt lat="46.16801" lon="6.64582">
        <ele>1853</ele>
        <time>2022-07-31T09:23:58Z</time>
      </trkpt>
      <trkpt lat="46.16801" lon="6.64582">
        <ele>1853</ele>
        <time>2022-07-31T09:23:59Z</time>
      </trkpt>
      <trkpt lat="46.16801" lon="6.64582">
        <ele>1853</ele>
        <time>2022-07-31T09:24:00Z</time>
      </trkpt>
      <trkpt lat="46.16801" lon="6.64582">
        <ele>1853</ele>
        <time>2022-07-31T09:24:01Z</time>
      </trkpt>
      <trkpt lat="46.16801" lon="6.64582">
        <ele>1853</ele>
        <time>2022-07-31T09:24:02Z</time>
      </trkpt>
      <trkpt lat="46.16801" lon="6.64582">
        <ele>1853</ele>
        <time>2022-07-31T09:24:03Z</time>
      </trkpt>
      <trkpt lat="46.16801" lon="6.64582">
        <ele>1853</ele>
        <time>2022-07-31T09:24:04Z</time>
      </trkpt>
      <trkpt lat="46.16801" lon="6.64582">
        <ele>1853</ele>
        <time>2022-07-31T09:24:05Z</time>
      </trkpt>
      <trkpt lat="46.16801" lon="6.64582">
        <ele>1853</ele>
        <time>2022-07-31T09:24:06Z</time>
      </trkpt>
      <trkpt lat="46.16801" lon="6.64582">
        <ele>1853</ele>
        <time>2022-07-31T09:24:07Z</time>
      </trkpt>
      <trkpt lat="46.16801" lon="6.64582">
        <ele>1853</ele>
        <time>2022-07-31T09:24:08Z</time>
      </trkpt>
      <trkpt lat="46.16801" lon="6.64582">
        <ele>1853</ele>
        <time>2022-07-31T09:24:09Z</time>
      </trkpt>
      <trkpt lat="46.16801" lon="6.64582">
        <ele>1853</ele>
        <time>2022-07-31T09:24:10Z</time>
      </trkpt>
      <trkpt lat="46.16801" lon="6.64582">
        <ele>1853</ele>
        <time>2022-07-31T09:24:11Z</time>
      </trkpt>
      <trkpt lat="46.16801" lon="6.64582">
        <ele>1853</ele>
        <time>2022-07-31T09:24:12Z</time>
      </trkpt>
      <trkpt lat="46.16801" lon="6.64582">
        <ele>1853</ele>
        <time>2022-07-31T09:24:13Z</time>
      </trkpt>
      <trkpt lat="46.16802" lon="6.64582">
        <ele>1853</ele>
        <time>2022-07-31T09:24:14Z</time>
      </trkpt>
      <trkpt lat="46.16802" lon="6.64582">
        <ele>1853</ele>
        <time>2022-07-31T09:24:15Z</time>
      </trkpt>
      <trkpt lat="46.16802" lon="6.64582">
        <ele>1853</ele>
        <time>2022-07-31T09:24:16Z</time>
      </trkpt>
      <trkpt lat="46.16802" lon="6.64582">
        <ele>1853</ele>
        <time>2022-07-31T09:24:17Z</time>
      </trkpt>
      <trkpt lat="46.16802" lon="6.64582">
        <ele>1853</ele>
        <time>2022-07-31T09:24:18Z</time>
      </trkpt>
      <trkpt lat="46.16802" lon="6.64582">
        <ele>1853</ele>
        <time>2022-07-31T09:24:19Z</time>
      </trkpt>
      <trkpt lat="46.16802" lon="6.64582">
        <ele>1853</ele>
        <time>2022-07-31T09:24:20Z</time>
      </trkpt>
      <trkpt lat="46.16802" lon="6.64583">
        <ele>1853</ele>
        <time>2022-07-31T09:24:21Z</time>
      </trkpt>
      <trkpt lat="46.16802" lon="6.64582">
        <ele>1853</ele>
        <time>2022-07-31T09:24:22Z</time>
      </trkpt>
      <trkpt lat="46.16803" lon="6.64582">
        <ele>1853</ele>
        <time>2022-07-31T09:24:23Z</time>
      </trkpt>
      <trkpt lat="46.16803" lon="6.64582">
        <ele>1853</ele>
        <time>2022-07-31T09:24:24Z</time>
      </trkpt>
      <trkpt lat="46.16803" lon="6.64582">
        <ele>1853</ele>
        <time>2022-07-31T09:24:25Z</time>
      </trkpt>
      <trkpt lat="46.16803" lon="6.64582">
        <ele>1853</ele>
        <time>2022-07-31T09:24:26Z</time>
      </trkpt>
      <trkpt lat="46.16803" lon="6.64582">
        <ele>1853</ele>
        <time>2022-07-31T09:24:27Z</time>
      </trkpt>
      <trkpt lat="46.16803" lon="6.64582">
        <ele>1853</ele>
        <time>2022-07-31T09:24:28Z</time>
      </trkpt>
      <trkpt lat="46.16803" lon="6.64582">
        <ele>1852</ele>
        <time>2022-07-31T09:24:29Z</time>
      </trkpt>
      <trkpt lat="46.16803" lon="6.64582">
        <ele>1852</ele>
        <time>2022-07-31T09:24:30Z</time>
      </trkpt>
      <trkpt lat="46.16803" lon="6.64582">
        <ele>1852</ele>
        <time>2022-07-31T09:24:31Z</time>
      </trkpt>
      <trkpt lat="46.16803" lon="6.64582">
        <ele>1852</ele>
        <time>2022-07-31T09:24:32Z</time>
      </trkpt>
      <trkpt lat="46.16803" lon="6.64582">
        <ele>1852</ele>
        <time>2022-07-31T09:24:33Z</time>
      </trkpt>
      <trkpt lat="46.16803" lon="6.64582">
        <ele>1852</ele>
        <time>2022-07-31T09:24:34Z</time>
      </trkpt>
      <trkpt lat="46.16803" lon="6.64582">
        <ele>1852</ele>
        <time>2022-07-31T09:24:35Z</time>
      </trkpt>
      <trkpt lat="46.16803" lon="6.64582">
        <ele>1852</ele>
        <time>2022-07-31T09:24:36Z</time>
      </trkpt>
      <trkpt lat="46.16803" lon="6.64582">
        <ele>1852</ele>
        <time>2022-07-31T09:24:37Z</time>
      </trkpt>
      <trkpt lat="46.16803" lon="6.64582">
        <ele>1852</ele>
        <time>2022-07-31T09:24:38Z</time>
      </trkpt>
      <trkpt lat="46.16803" lon="6.64582">
        <ele>1852</ele>
        <time>2022-07-31T09:24:39Z</time>
      </trkpt>
      <trkpt lat="46.16803" lon="6.64582">
        <ele>1852</ele>
        <time>2022-07-31T09:24:40Z</time>
      </trkpt>
      <trkpt lat="46.16803" lon="6.64582">
        <ele>1852</ele>
        <time>2022-07-31T09:24:41Z</time>
      </trkpt>
      <trkpt lat="46.16803" lon="6.64582">
        <ele>1852</ele>
        <time>2022-07-31T09:24:42Z</time>
      </trkpt>
      <trkpt lat="46.16803" lon="6.64583">
        <ele>1852</ele>
        <time>2022-07-31T09:24:43Z</time>
      </trkpt>
      <trkpt lat="46.16804" lon="6.64583">
        <ele>1852</ele>
        <time>2022-07-31T09:24:44Z</time>
      </trkpt>
      <trkpt lat="46.16804" lon="6.64583">
        <ele>1852</ele>
        <time>2022-07-31T09:24:45Z</time>
      </trkpt>
      <trkpt lat="46.16804" lon="6.64583">
        <ele>1852</ele>
        <time>2022-07-31T09:24:46Z</time>
      </trkpt>
      <trkpt lat="46.16804" lon="6.64583">
        <ele>1852</ele>
        <time>2022-07-31T09:24:47Z</time>
      </trkpt>
      <trkpt lat="46.16804" lon="6.64583">
        <ele>1852</ele>
        <time>2022-07-31T09:24:48Z</time>
      </trkpt>
      <trkpt lat="46.16804" lon="6.64583">
        <ele>1852</ele>
        <time>2022-07-31T09:24:49Z</time>
      </trkpt>
      <trkpt lat="46.16804" lon="6.64583">
        <ele>1852</ele>
        <time>2022-07-31T09:24:50Z</time>
      </trkpt>
      <trkpt lat="46.16804" lon="6.64583">
        <ele>1852</ele>
        <time>2022-07-31T09:24:51Z</time>
      </trkpt>
      <trkpt lat="46.16804" lon="6.64583">
        <ele>1852</ele>
        <time>2022-07-31T09:24:52Z</time>
      </trkpt>
      <trkpt lat="46.16804" lon="6.64583">
        <ele>1852</ele>
        <time>2022-07-31T09:24:53Z</time>
      </trkpt>
      <trkpt lat="46.16803" lon="6.64583">
        <ele>1852</ele>
        <time>2022-07-31T09:24:54Z</time>
      </trkpt>
      <trkpt lat="46.16803" lon="6.64583">
        <ele>1852</ele>
        <time>2022-07-31T09:24:55Z</time>
      </trkpt>
      <trkpt lat="46.16803" lon="6.64583">
        <ele>1852</ele>
        <time>2022-07-31T09:24:56Z</time>
      </trkpt>
      <trkpt lat="46.16803" lon="6.64583">
        <ele>1852</ele>
        <time>2022-07-31T09:24:57Z</time>
      </trkpt>
      <trkpt lat="46.16803" lon="6.64583">
        <ele>1852</ele>
        <time>2022-07-31T09:24:58Z</time>
      </trkpt>
      <trkpt lat="46.16803" lon="6.64583">
        <ele>1852</ele>
        <time>2022-07-31T09:24:59Z</time>
      </trkpt>
      <trkpt lat="46.16804" lon="6.64583">
        <ele>1853</ele>
        <time>2022-07-31T09:25:00Z</time>
      </trkpt>
      <trkpt lat="46.16804" lon="6.64583">
        <ele>1853</ele>
        <time>2022-07-31T09:25:01Z</time>
      </trkpt>
      <trkpt lat="46.16804" lon="6.64583">
        <ele>1853</ele>
        <time>2022-07-31T09:25:02Z</time>
      </trkpt>
      <trkpt lat="46.16804" lon="6.64583">
        <ele>1853</ele>
        <time>2022-07-31T09:25:03Z</time>
      </trkpt>
      <trkpt lat="46.16804" lon="6.64583">
        <ele>1853</ele>
        <time>2022-07-31T09:25:04Z</time>
      </trkpt>
      <trkpt lat="46.16804" lon="6.64583">
        <ele>1853</ele>
        <time>2022-07-31T09:25:05Z</time>
      </trkpt>
      <trkpt lat="46.16804" lon="6.64583">
        <ele>1853</ele>
        <time>2022-07-31T09:25:06Z</time>
      </trkpt>
      <trkpt lat="46.16804" lon="6.64583">
        <ele>1853</ele>
        <time>2022-07-31T09:25:07Z</time>
      </trkpt>
      <trkpt lat="46.16804" lon="6.64583">
        <ele>1853</ele>
        <time>2022-07-31T09:25:08Z</time>
      </trkpt>
      <trkpt lat="46.16804" lon="6.64583">
        <ele>1853</ele>
        <time>2022-07-31T09:25:09Z</time>
      </trkpt>
      <trkpt lat="46.16804" lon="6.64583">
        <ele>1853</ele>
        <time>2022-07-31T09:25:10Z</time>
      </trkpt>
      <trkpt lat="46.16804" lon="6.64583">
        <ele>1853</ele>
        <time>2022-07-31T09:25:11Z</time>
      </trkpt>
      <trkpt lat="46.16804" lon="6.64583">
        <ele>1853</ele>
        <time>2022-07-31T09:25:12Z</time>
      </trkpt>
      <trkpt lat="46.16804" lon="6.64583">
        <ele>1853</ele>
        <time>2022-07-31T09:25:13Z</time>
      </trkpt>
      <trkpt lat="46.16804" lon="6.64583">
        <ele>1853</ele>
        <time>2022-07-31T09:25:14Z</time>
      </trkpt>
      <trkpt lat="46.16804" lon="6.64583">
        <ele>1853</ele>
        <time>2022-07-31T09:25:15Z</time>
      </trkpt>
      <trkpt lat="46.16804" lon="6.64583">
        <ele>1853</ele>
        <time>2022-07-31T09:25:16Z</time>
      </trkpt>
      <trkpt lat="46.16804" lon="6.64583">
        <ele>1853</ele>
        <time>2022-07-31T09:25:17Z</time>
      </trkpt>
      <trkpt lat="46.16804" lon="6.64583">
        <ele>1853</ele>
        <time>2022-07-31T09:25:18Z</time>
      </trkpt>
      <trkpt lat="46.16804" lon="6.64583">
        <ele>1853</ele>
        <time>2022-07-31T09:25:19Z</time>
      </trkpt>
      <trkpt lat="46.16804" lon="6.64583">
        <ele>1853</ele>
        <time>2022-07-31T09:25:20Z</time>
      </trkpt>
      <trkpt lat="46.16804" lon="6.64583">
        <ele>1853</ele>
        <time>2022-07-31T09:25:21Z</time>
      </trkpt>
      <trkpt lat="46.16804" lon="6.64583">
        <ele>1853</ele>
        <time>2022-07-31T09:25:22Z</time>
      </trkpt>
      <trkpt lat="46.16804" lon="6.64583">
        <ele>1853</ele>
        <time>2022-07-31T09:25:23Z</time>
      </trkpt>
      <trkpt lat="46.16803" lon="6.64582">
        <ele>1853</ele>
        <time>2022-07-31T09:25:24Z</time>
      </trkpt>
      <trkpt lat="46.16802" lon="6.64582">
        <ele>1853</ele>
        <time>2022-07-31T09:25:25Z</time>
      </trkpt>
      <trkpt lat="46.16801" lon="6.64582">
        <ele>1853</ele>
        <time>2022-07-31T09:25:26Z</time>
      </trkpt>
      <trkpt lat="46.16801" lon="6.64581">
        <ele>1853</ele>
        <time>2022-07-31T09:25:27Z</time>
      </trkpt>
      <trkpt lat="46.168" lon="6.64581">
        <ele>1853</ele>
        <time>2022-07-31T09:25:28Z</time>
      </trkpt>
      <trkpt lat="46.16799" lon="6.64581">
        <ele>1853</ele>
        <time>2022-07-31T09:25:29Z</time>
      </trkpt>
      <trkpt lat="46.16798" lon="6.64581">
        <ele>1853</ele>
        <time>2022-07-31T09:25:30Z</time>
      </trkpt>
      <trkpt lat="46.16797" lon="6.64582">
        <ele>1853</ele>
        <time>2022-07-31T09:25:31Z</time>
      </trkpt>
      <trkpt lat="46.16796" lon="6.64582">
        <ele>1853</ele>
        <time>2022-07-31T09:25:32Z</time>
      </trkpt>
      <trkpt lat="46.16795" lon="6.64582">
        <ele>1853</ele>
        <time>2022-07-31T09:25:33Z</time>
      </trkpt>
      <trkpt lat="46.16794" lon="6.64583">
        <ele>1853</ele>
        <time>2022-07-31T09:25:34Z</time>
      </trkpt>
      <trkpt lat="46.16792" lon="6.64583">
        <ele>1853</ele>
        <time>2022-07-31T09:25:35Z</time>
      </trkpt>
      <trkpt lat="46.16791" lon="6.64582">
        <ele>1853</ele>
        <time>2022-07-31T09:25:36Z</time>
      </trkpt>
      <trkpt lat="46.1679" lon="6.64582">
        <ele>1853</ele>
        <time>2022-07-31T09:25:37Z</time>
      </trkpt>
      <trkpt lat="46.1679" lon="6.64582">
        <ele>1853</ele>
        <time>2022-07-31T09:25:38Z</time>
      </trkpt>
      <trkpt lat="46.16789" lon="6.64582">
        <ele>1853</ele>
        <time>2022-07-31T09:25:39Z</time>
      </trkpt>
      <trkpt lat="46.16788" lon="6.64582">
        <ele>1853</ele>
        <time>2022-07-31T09:25:40Z</time>
      </trkpt>
      <trkpt lat="46.16788" lon="6.64582">
        <ele>1853</ele>
        <time>2022-07-31T09:25:41Z</time>
      </trkpt>
      <trkpt lat="46.16787" lon="6.64582">
        <ele>1853</ele>
        <time>2022-07-31T09:25:42Z</time>
      </trkpt>
      <trkpt lat="46.16785" lon="6.64582">
        <ele>1854</ele>
        <time>2022-07-31T09:25:43Z</time>
      </trkpt>
      <trkpt lat="46.16784" lon="6.64583">
        <ele>1854</ele>
        <time>2022-07-31T09:25:44Z</time>
      </trkpt>
      <trkpt lat="46.16784" lon="6.64584">
        <ele>1854</ele>
        <time>2022-07-31T09:25:45Z</time>
      </trkpt>
      <trkpt lat="46.16783" lon="6.64584">
        <ele>1854</ele>
        <time>2022-07-31T09:25:46Z</time>
      </trkpt>
      <trkpt lat="46.16783" lon="6.64585">
        <ele>1854</ele>
        <time>2022-07-31T09:25:47Z</time>
      </trkpt>
      <trkpt lat="46.16782" lon="6.64585">
        <ele>1854</ele>
        <time>2022-07-31T09:25:48Z</time>
      </trkpt>
      <trkpt lat="46.16781" lon="6.64584">
        <ele>1854</ele>
        <time>2022-07-31T09:25:49Z</time>
      </trkpt>
      <trkpt lat="46.16781" lon="6.64584">
        <ele>1855</ele>
        <time>2022-07-31T09:25:50Z</time>
      </trkpt>
      <trkpt lat="46.1678" lon="6.64584">
        <ele>1855</ele>
        <time>2022-07-31T09:25:51Z</time>
      </trkpt>
      <trkpt lat="46.16779" lon="6.64584">
        <ele>1855</ele>
        <time>2022-07-31T09:25:52Z</time>
      </trkpt>
      <trkpt lat="46.16779" lon="6.64585">
        <ele>1855</ele>
        <time>2022-07-31T09:25:53Z</time>
      </trkpt>
      <trkpt lat="46.16777" lon="6.64585">
        <ele>1855</ele>
        <time>2022-07-31T09:25:54Z</time>
      </trkpt>
      <trkpt lat="46.16777" lon="6.64586">
        <ele>1856</ele>
        <time>2022-07-31T09:25:55Z</time>
      </trkpt>
      <trkpt lat="46.16777" lon="6.64587">
        <ele>1856</ele>
        <time>2022-07-31T09:25:56Z</time>
      </trkpt>
      <trkpt lat="46.16777" lon="6.64587">
        <ele>1856</ele>
        <time>2022-07-31T09:25:57Z</time>
      </trkpt>
      <trkpt lat="46.16777" lon="6.64587">
        <ele>1856</ele>
        <time>2022-07-31T09:25:58Z</time>
      </trkpt>
      <trkpt lat="46.16777" lon="6.64588">
        <ele>1856</ele>
        <time>2022-07-31T09:25:59Z</time>
      </trkpt>
      <trkpt lat="46.16776" lon="6.64589">
        <ele>1857</ele>
        <time>2022-07-31T09:26:00Z</time>
      </trkpt>
      <trkpt lat="46.16775" lon="6.64589">
        <ele>1857</ele>
        <time>2022-07-31T09:26:01Z</time>
      </trkpt>
      <trkpt lat="46.16775" lon="6.64588">
        <ele>1857</ele>
        <time>2022-07-31T09:26:02Z</time>
      </trkpt>
      <trkpt lat="46.16774" lon="6.64588">
        <ele>1857</ele>
        <time>2022-07-31T09:26:03Z</time>
      </trkpt>
      <trkpt lat="46.16774" lon="6.64587">
        <ele>1857</ele>
        <time>2022-07-31T09:26:04Z</time>
      </trkpt>
      <trkpt lat="46.16773" lon="6.64587">
        <ele>1857</ele>
        <time>2022-07-31T09:26:05Z</time>
      </trkpt>
      <trkpt lat="46.16772" lon="6.64588">
        <ele>1857</ele>
        <time>2022-07-31T09:26:06Z</time>
      </trkpt>
      <trkpt lat="46.16772" lon="6.64588">
        <ele>1857</ele>
        <time>2022-07-31T09:26:07Z</time>
      </trkpt>
      <trkpt lat="46.16771" lon="6.6459">
        <ele>1858</ele>
        <time>2022-07-31T09:26:08Z</time>
      </trkpt>
      <trkpt lat="46.16769" lon="6.64591">
        <ele>1858</ele>
        <time>2022-07-31T09:26:09Z</time>
      </trkpt>
      <trkpt lat="46.16768" lon="6.64592">
        <ele>1858</ele>
        <time>2022-07-31T09:26:10Z</time>
      </trkpt>
      <trkpt lat="46.16768" lon="6.64593">
        <ele>1858</ele>
        <time>2022-07-31T09:26:11Z</time>
      </trkpt>
      <trkpt lat="46.16768" lon="6.64593">
        <ele>1858</ele>
        <time>2022-07-31T09:26:12Z</time>
      </trkpt>
      <trkpt lat="46.16768" lon="6.64595">
        <ele>1858</ele>
        <time>2022-07-31T09:26:13Z</time>
      </trkpt>
      <trkpt lat="46.16768" lon="6.64595">
        <ele>1858</ele>
        <time>2022-07-31T09:26:14Z</time>
      </trkpt>
      <trkpt lat="46.16769" lon="6.64597">
        <ele>1858</ele>
        <time>2022-07-31T09:26:15Z</time>
      </trkpt>
      <trkpt lat="46.16769" lon="6.64598">
        <ele>1859</ele>
        <time>2022-07-31T09:26:16Z</time>
      </trkpt>
      <trkpt lat="46.16771" lon="6.64598">
        <ele>1859</ele>
        <time>2022-07-31T09:26:17Z</time>
      </trkpt>
      <trkpt lat="46.16771" lon="6.646">
        <ele>1859</ele>
        <time>2022-07-31T09:26:18Z</time>
      </trkpt>
      <trkpt lat="46.16772" lon="6.64601">
        <ele>1859</ele>
        <time>2022-07-31T09:26:19Z</time>
      </trkpt>
      <trkpt lat="46.16772" lon="6.64603">
        <ele>1859</ele>
        <time>2022-07-31T09:26:20Z</time>
      </trkpt>
      <trkpt lat="46.16773" lon="6.64604">
        <ele>1859</ele>
        <time>2022-07-31T09:26:21Z</time>
      </trkpt>
      <trkpt lat="46.16773" lon="6.64604">
        <ele>1859</ele>
        <time>2022-07-31T09:26:22Z</time>
      </trkpt>
      <trkpt lat="46.16774" lon="6.64605">
        <ele>1859</ele>
        <time>2022-07-31T09:26:23Z</time>
      </trkpt>
      <trkpt lat="46.16774" lon="6.64606">
        <ele>1859</ele>
        <time>2022-07-31T09:26:24Z</time>
      </trkpt>
      <trkpt lat="46.16775" lon="6.64607">
        <ele>1859</ele>
        <time>2022-07-31T09:26:25Z</time>
      </trkpt>
      <trkpt lat="46.16776" lon="6.64607">
        <ele>1859</ele>
        <time>2022-07-31T09:26:26Z</time>
      </trkpt>
      <trkpt lat="46.16776" lon="6.64608">
        <ele>1859</ele>
        <time>2022-07-31T09:26:27Z</time>
      </trkpt>
      <trkpt lat="46.16777" lon="6.64607">
        <ele>1859</ele>
        <time>2022-07-31T09:26:28Z</time>
      </trkpt>
      <trkpt lat="46.16777" lon="6.64607">
        <ele>1859</ele>
        <time>2022-07-31T09:26:29Z</time>
      </trkpt>
      <trkpt lat="46.16776" lon="6.64607">
        <ele>1859</ele>
        <time>2022-07-31T09:26:30Z</time>
      </trkpt>
      <trkpt lat="46.16776" lon="6.64607">
        <ele>1859</ele>
        <time>2022-07-31T09:26:31Z</time>
      </trkpt>
      <trkpt lat="46.16776" lon="6.64607">
        <ele>1859</ele>
        <time>2022-07-31T09:26:32Z</time>
      </trkpt>
      <trkpt lat="46.16776" lon="6.64607">
        <ele>1859</ele>
        <time>2022-07-31T09:26:33Z</time>
      </trkpt>
      <trkpt lat="46.16776" lon="6.64607">
        <ele>1859</ele>
        <time>2022-07-31T09:26:34Z</time>
      </trkpt>
      <trkpt lat="46.16776" lon="6.64607">
        <ele>1859</ele>
        <time>2022-07-31T09:26:35Z</time>
      </trkpt>
      <trkpt lat="46.16777" lon="6.64607">
        <ele>1859</ele>
        <time>2022-07-31T09:26:36Z</time>
      </trkpt>
      <trkpt lat="46.16777" lon="6.64607">
        <ele>1859</ele>
        <time>2022-07-31T09:26:37Z</time>
      </trkpt>
      <trkpt lat="46.16777" lon="6.64609">
        <ele>1859</ele>
        <time>2022-07-31T09:26:38Z</time>
      </trkpt>
      <trkpt lat="46.16779" lon="6.64609">
        <ele>1859</ele>
        <time>2022-07-31T09:26:39Z</time>
      </trkpt>
      <trkpt lat="46.16779" lon="6.6461">
        <ele>1860</ele>
        <time>2022-07-31T09:26:40Z</time>
      </trkpt>
      <trkpt lat="46.16779" lon="6.6461">
        <ele>1860</ele>
        <time>2022-07-31T09:26:41Z</time>
      </trkpt>
      <trkpt lat="46.16779" lon="6.6461">
        <ele>1860</ele>
        <time>2022-07-31T09:26:42Z</time>
      </trkpt>
      <trkpt lat="46.1678" lon="6.64611">
        <ele>1860</ele>
        <time>2022-07-31T09:26:43Z</time>
      </trkpt>
      <trkpt lat="46.1678" lon="6.64612">
        <ele>1860</ele>
        <time>2022-07-31T09:26:44Z</time>
      </trkpt>
      <trkpt lat="46.1678" lon="6.64613">
        <ele>1860</ele>
        <time>2022-07-31T09:26:45Z</time>
      </trkpt>
      <trkpt lat="46.16781" lon="6.64614">
        <ele>1860</ele>
        <time>2022-07-31T09:26:46Z</time>
      </trkpt>
      <trkpt lat="46.16781" lon="6.64614">
        <ele>1860</ele>
        <time>2022-07-31T09:26:47Z</time>
      </trkpt>
      <trkpt lat="46.16782" lon="6.64615">
        <ele>1860</ele>
        <time>2022-07-31T09:26:48Z</time>
      </trkpt>
      <trkpt lat="46.16782" lon="6.64616">
        <ele>1860</ele>
        <time>2022-07-31T09:26:49Z</time>
      </trkpt>
      <trkpt lat="46.16782" lon="6.64617">
        <ele>1860</ele>
        <time>2022-07-31T09:26:50Z</time>
      </trkpt>
      <trkpt lat="46.16783" lon="6.64618">
        <ele>1860</ele>
        <time>2022-07-31T09:26:51Z</time>
      </trkpt>
      <trkpt lat="46.16783" lon="6.64619">
        <ele>1860</ele>
        <time>2022-07-31T09:26:52Z</time>
      </trkpt>
      <trkpt lat="46.16784" lon="6.6462">
        <ele>1860</ele>
        <time>2022-07-31T09:26:53Z</time>
      </trkpt>
      <trkpt lat="46.16785" lon="6.64621">
        <ele>1860</ele>
        <time>2022-07-31T09:26:54Z</time>
      </trkpt>
      <trkpt lat="46.16786" lon="6.64621">
        <ele>1860</ele>
        <time>2022-07-31T09:26:55Z</time>
      </trkpt>
      <trkpt lat="46.16787" lon="6.64622">
        <ele>1860</ele>
        <time>2022-07-31T09:26:56Z</time>
      </trkpt>
      <trkpt lat="46.16788" lon="6.64623">
        <ele>1860</ele>
        <time>2022-07-31T09:26:57Z</time>
      </trkpt>
      <trkpt lat="46.16788" lon="6.64624">
        <ele>1860</ele>
        <time>2022-07-31T09:26:58Z</time>
      </trkpt>
      <trkpt lat="46.16789" lon="6.64625">
        <ele>1860</ele>
        <time>2022-07-31T09:26:59Z</time>
      </trkpt>
      <trkpt lat="46.1679" lon="6.64625">
        <ele>1860</ele>
        <time>2022-07-31T09:27:00Z</time>
      </trkpt>
      <trkpt lat="46.1679" lon="6.64627">
        <ele>1860</ele>
        <time>2022-07-31T09:27:01Z</time>
      </trkpt>
      <trkpt lat="46.16791" lon="6.64628">
        <ele>1860</ele>
        <time>2022-07-31T09:27:02Z</time>
      </trkpt>
      <trkpt lat="46.16792" lon="6.64628">
        <ele>1860</ele>
        <time>2022-07-31T09:27:03Z</time>
      </trkpt>
      <trkpt lat="46.16793" lon="6.64629">
        <ele>1860</ele>
        <time>2022-07-31T09:27:04Z</time>
      </trkpt>
      <trkpt lat="46.16793" lon="6.64629">
        <ele>1860</ele>
        <time>2022-07-31T09:27:05Z</time>
      </trkpt>
      <trkpt lat="46.16794" lon="6.64629">
        <ele>1860</ele>
        <time>2022-07-31T09:27:06Z</time>
      </trkpt>
      <trkpt lat="46.16795" lon="6.64629">
        <ele>1860</ele>
        <time>2022-07-31T09:27:07Z</time>
      </trkpt>
      <trkpt lat="46.16796" lon="6.64629">
        <ele>1860</ele>
        <time>2022-07-31T09:27:08Z</time>
      </trkpt>
      <trkpt lat="46.16796" lon="6.6463">
        <ele>1860</ele>
        <time>2022-07-31T09:27:09Z</time>
      </trkpt>
      <trkpt lat="46.16797" lon="6.6463">
        <ele>1860</ele>
        <time>2022-07-31T09:27:10Z</time>
      </trkpt>
      <trkpt lat="46.16797" lon="6.6463">
        <ele>1860</ele>
        <time>2022-07-31T09:27:11Z</time>
      </trkpt>
      <trkpt lat="46.16797" lon="6.6463">
        <ele>1860</ele>
        <time>2022-07-31T09:27:12Z</time>
      </trkpt>
      <trkpt lat="46.16797" lon="6.6463">
        <ele>1860</ele>
        <time>2022-07-31T09:27:13Z</time>
      </trkpt>
      <trkpt lat="46.16797" lon="6.6463">
        <ele>1861</ele>
        <time>2022-07-31T09:27:14Z</time>
      </trkpt>
      <trkpt lat="46.16797" lon="6.6463">
        <ele>1861</ele>
        <time>2022-07-31T09:27:15Z</time>
      </trkpt>
      <trkpt lat="46.16797" lon="6.6463">
        <ele>1861</ele>
        <time>2022-07-31T09:27:16Z</time>
      </trkpt>
      <trkpt lat="46.16798" lon="6.64632">
        <ele>1861</ele>
        <time>2022-07-31T09:27:17Z</time>
      </trkpt>
      <trkpt lat="46.16799" lon="6.64633">
        <ele>1861</ele>
        <time>2022-07-31T09:27:18Z</time>
      </trkpt>
      <trkpt lat="46.16799" lon="6.64634">
        <ele>1861</ele>
        <time>2022-07-31T09:27:19Z</time>
      </trkpt>
      <trkpt lat="46.16801" lon="6.64635">
        <ele>1861</ele>
        <time>2022-07-31T09:27:20Z</time>
      </trkpt>
      <trkpt lat="46.16801" lon="6.64636">
        <ele>1861</ele>
        <time>2022-07-31T09:27:21Z</time>
      </trkpt>
      <trkpt lat="46.16802" lon="6.64637">
        <ele>1862</ele>
        <time>2022-07-31T09:27:22Z</time>
      </trkpt>
      <trkpt lat="46.16802" lon="6.64638">
        <ele>1862</ele>
        <time>2022-07-31T09:27:23Z</time>
      </trkpt>
      <trkpt lat="46.16802" lon="6.64639">
        <ele>1862</ele>
        <time>2022-07-31T09:27:24Z</time>
      </trkpt>
      <trkpt lat="46.16804" lon="6.64641">
        <ele>1862</ele>
        <time>2022-07-31T09:27:25Z</time>
      </trkpt>
      <trkpt lat="46.16804" lon="6.64642">
        <ele>1862</ele>
        <time>2022-07-31T09:27:26Z</time>
      </trkpt>
      <trkpt lat="46.16805" lon="6.64642">
        <ele>1862</ele>
        <time>2022-07-31T09:27:27Z</time>
      </trkpt>
      <trkpt lat="46.16805" lon="6.64642">
        <ele>1863</ele>
        <time>2022-07-31T09:27:28Z</time>
      </trkpt>
      <trkpt lat="46.16806" lon="6.64643">
        <ele>1863</ele>
        <time>2022-07-31T09:27:29Z</time>
      </trkpt>
      <trkpt lat="46.16806" lon="6.64644">
        <ele>1863</ele>
        <time>2022-07-31T09:27:30Z</time>
      </trkpt>
      <trkpt lat="46.16806" lon="6.64645">
        <ele>1863</ele>
        <time>2022-07-31T09:27:31Z</time>
      </trkpt>
      <trkpt lat="46.16808" lon="6.64646">
        <ele>1863</ele>
        <time>2022-07-31T09:27:32Z</time>
      </trkpt>
      <trkpt lat="46.16808" lon="6.64648">
        <ele>1864</ele>
        <time>2022-07-31T09:27:33Z</time>
      </trkpt>
      <trkpt lat="46.16808" lon="6.64649">
        <ele>1864</ele>
        <time>2022-07-31T09:27:34Z</time>
      </trkpt>
      <trkpt lat="46.16809" lon="6.64649">
        <ele>1864</ele>
        <time>2022-07-31T09:27:35Z</time>
      </trkpt>
      <trkpt lat="46.1681" lon="6.64651">
        <ele>1864</ele>
        <time>2022-07-31T09:27:36Z</time>
      </trkpt>
      <trkpt lat="46.1681" lon="6.64652">
        <ele>1864</ele>
        <time>2022-07-31T09:27:37Z</time>
      </trkpt>
      <trkpt lat="46.16811" lon="6.64652">
        <ele>1864</ele>
        <time>2022-07-31T09:27:38Z</time>
      </trkpt>
      <trkpt lat="46.16812" lon="6.64653">
        <ele>1864</ele>
        <time>2022-07-31T09:27:39Z</time>
      </trkpt>
      <trkpt lat="46.16812" lon="6.64655">
        <ele>1864</ele>
        <time>2022-07-31T09:27:40Z</time>
      </trkpt>
      <trkpt lat="46.16813" lon="6.64656">
        <ele>1864</ele>
        <time>2022-07-31T09:27:41Z</time>
      </trkpt>
      <trkpt lat="46.16814" lon="6.64656">
        <ele>1864</ele>
        <time>2022-07-31T09:27:42Z</time>
      </trkpt>
      <trkpt lat="46.16814" lon="6.64658">
        <ele>1864</ele>
        <time>2022-07-31T09:27:43Z</time>
      </trkpt>
      <trkpt lat="46.16815" lon="6.64659">
        <ele>1865</ele>
        <time>2022-07-31T09:27:44Z</time>
      </trkpt>
      <trkpt lat="46.16817" lon="6.6466">
        <ele>1865</ele>
        <time>2022-07-31T09:27:45Z</time>
      </trkpt>
      <trkpt lat="46.16817" lon="6.64662">
        <ele>1865</ele>
        <time>2022-07-31T09:27:46Z</time>
      </trkpt>
      <trkpt lat="46.16817" lon="6.64663">
        <ele>1865</ele>
        <time>2022-07-31T09:27:47Z</time>
      </trkpt>
      <trkpt lat="46.16818" lon="6.64664">
        <ele>1865</ele>
        <time>2022-07-31T09:27:48Z</time>
      </trkpt>
      <trkpt lat="46.16818" lon="6.64664">
        <ele>1865</ele>
        <time>2022-07-31T09:27:49Z</time>
      </trkpt>
      <trkpt lat="46.16818" lon="6.64665">
        <ele>1865</ele>
        <time>2022-07-31T09:27:50Z</time>
      </trkpt>
      <trkpt lat="46.16818" lon="6.64665">
        <ele>1865</ele>
        <time>2022-07-31T09:27:51Z</time>
      </trkpt>
      <trkpt lat="46.16819" lon="6.64667">
        <ele>1865</ele>
        <time>2022-07-31T09:27:52Z</time>
      </trkpt>
      <trkpt lat="46.1682" lon="6.64668">
        <ele>1865</ele>
        <time>2022-07-31T09:27:53Z</time>
      </trkpt>
      <trkpt lat="46.16821" lon="6.64668">
        <ele>1865</ele>
        <time>2022-07-31T09:27:54Z</time>
      </trkpt>
      <trkpt lat="46.16822" lon="6.6467">
        <ele>1865</ele>
        <time>2022-07-31T09:27:55Z</time>
      </trkpt>
      <trkpt lat="46.16823" lon="6.6467">
        <ele>1865</ele>
        <time>2022-07-31T09:27:56Z</time>
      </trkpt>
      <trkpt lat="46.16824" lon="6.64669">
        <ele>1865</ele>
        <time>2022-07-31T09:27:57Z</time>
      </trkpt>
      <trkpt lat="46.16825" lon="6.6467">
        <ele>1865</ele>
        <time>2022-07-31T09:27:58Z</time>
      </trkpt>
      <trkpt lat="46.16825" lon="6.6467">
        <ele>1865</ele>
        <time>2022-07-31T09:27:59Z</time>
      </trkpt>
      <trkpt lat="46.16826" lon="6.6467">
        <ele>1865</ele>
        <time>2022-07-31T09:28:00Z</time>
      </trkpt>
      <trkpt lat="46.16826" lon="6.6467">
        <ele>1866</ele>
        <time>2022-07-31T09:28:01Z</time>
      </trkpt>
      <trkpt lat="46.16828" lon="6.64671">
        <ele>1866</ele>
        <time>2022-07-31T09:28:02Z</time>
      </trkpt>
      <trkpt lat="46.16828" lon="6.64671">
        <ele>1866</ele>
        <time>2022-07-31T09:28:03Z</time>
      </trkpt>
      <trkpt lat="46.16829" lon="6.64672">
        <ele>1866</ele>
        <time>2022-07-31T09:28:04Z</time>
      </trkpt>
      <trkpt lat="46.1683" lon="6.64672">
        <ele>1866</ele>
        <time>2022-07-31T09:28:05Z</time>
      </trkpt>
      <trkpt lat="46.16831" lon="6.64672">
        <ele>1866</ele>
        <time>2022-07-31T09:28:06Z</time>
      </trkpt>
      <trkpt lat="46.16832" lon="6.64672">
        <ele>1867</ele>
        <time>2022-07-31T09:28:07Z</time>
      </trkpt>
      <trkpt lat="46.16832" lon="6.64673">
        <ele>1867</ele>
        <time>2022-07-31T09:28:08Z</time>
      </trkpt>
      <trkpt lat="46.16832" lon="6.64673">
        <ele>1867</ele>
        <time>2022-07-31T09:28:09Z</time>
      </trkpt>
      <trkpt lat="46.16834" lon="6.64673">
        <ele>1867</ele>
        <time>2022-07-31T09:28:10Z</time>
      </trkpt>
      <trkpt lat="46.16834" lon="6.64674">
        <ele>1867</ele>
        <time>2022-07-31T09:28:11Z</time>
      </trkpt>
      <trkpt lat="46.16836" lon="6.64675">
        <ele>1867</ele>
        <time>2022-07-31T09:28:12Z</time>
      </trkpt>
      <trkpt lat="46.16836" lon="6.64676">
        <ele>1867</ele>
        <time>2022-07-31T09:28:13Z</time>
      </trkpt>
      <trkpt lat="46.16836" lon="6.64676">
        <ele>1867</ele>
        <time>2022-07-31T09:28:14Z</time>
      </trkpt>
      <trkpt lat="46.16836" lon="6.64675">
        <ele>1867</ele>
        <time>2022-07-31T09:28:15Z</time>
      </trkpt>
      <trkpt lat="46.16836" lon="6.64675">
        <ele>1867</ele>
        <time>2022-07-31T09:28:16Z</time>
      </trkpt>
      <trkpt lat="46.16836" lon="6.64675">
        <ele>1867</ele>
        <time>2022-07-31T09:28:17Z</time>
      </trkpt>
      <trkpt lat="46.16836" lon="6.64674">
        <ele>1867</ele>
        <time>2022-07-31T09:28:18Z</time>
      </trkpt>
      <trkpt lat="46.16836" lon="6.64674">
        <ele>1867</ele>
        <time>2022-07-31T09:28:19Z</time>
      </trkpt>
      <trkpt lat="46.16835" lon="6.64674">
        <ele>1867</ele>
        <time>2022-07-31T09:28:20Z</time>
      </trkpt>
      <trkpt lat="46.16834" lon="6.64674">
        <ele>1867</ele>
        <time>2022-07-31T09:28:21Z</time>
      </trkpt>
      <trkpt lat="46.16834" lon="6.64675">
        <ele>1867</ele>
        <time>2022-07-31T09:28:22Z</time>
      </trkpt>
      <trkpt lat="46.16834" lon="6.64675">
        <ele>1867</ele>
        <time>2022-07-31T09:28:23Z</time>
      </trkpt>
      <trkpt lat="46.16834" lon="6.64676">
        <ele>1867</ele>
        <time>2022-07-31T09:28:24Z</time>
      </trkpt>
      <trkpt lat="46.16834" lon="6.64676">
        <ele>1867</ele>
        <time>2022-07-31T09:28:25Z</time>
      </trkpt>
      <trkpt lat="46.16833" lon="6.64676">
        <ele>1867</ele>
        <time>2022-07-31T09:28:26Z</time>
      </trkpt>
      <trkpt lat="46.16833" lon="6.64677">
        <ele>1867</ele>
        <time>2022-07-31T09:28:27Z</time>
      </trkpt>
      <trkpt lat="46.16833" lon="6.64677">
        <ele>1867</ele>
        <time>2022-07-31T09:28:28Z</time>
      </trkpt>
      <trkpt lat="46.16833" lon="6.64677">
        <ele>1867</ele>
        <time>2022-07-31T09:28:29Z</time>
      </trkpt>
      <trkpt lat="46.16833" lon="6.64678">
        <ele>1867</ele>
        <time>2022-07-31T09:28:30Z</time>
      </trkpt>
      <trkpt lat="46.16833" lon="6.64678">
        <ele>1867</ele>
        <time>2022-07-31T09:28:31Z</time>
      </trkpt>
      <trkpt lat="46.16833" lon="6.64678">
        <ele>1867</ele>
        <time>2022-07-31T09:28:32Z</time>
      </trkpt>
      <trkpt lat="46.16833" lon="6.64678">
        <ele>1867</ele>
        <time>2022-07-31T09:28:33Z</time>
      </trkpt>
      <trkpt lat="46.16833" lon="6.64678">
        <ele>1867</ele>
        <time>2022-07-31T09:28:34Z</time>
      </trkpt>
      <trkpt lat="46.16833" lon="6.64678">
        <ele>1867</ele>
        <time>2022-07-31T09:28:35Z</time>
      </trkpt>
      <trkpt lat="46.16834" lon="6.64679">
        <ele>1867</ele>
        <time>2022-07-31T09:28:36Z</time>
      </trkpt>
      <trkpt lat="46.16834" lon="6.6468">
        <ele>1867</ele>
        <time>2022-07-31T09:28:37Z</time>
      </trkpt>
      <trkpt lat="46.16834" lon="6.6468">
        <ele>1867</ele>
        <time>2022-07-31T09:28:38Z</time>
      </trkpt>
      <trkpt lat="46.16834" lon="6.64681">
        <ele>1867</ele>
        <time>2022-07-31T09:28:39Z</time>
      </trkpt>
      <trkpt lat="46.16836" lon="6.64682">
        <ele>1867</ele>
        <time>2022-07-31T09:28:40Z</time>
      </trkpt>
      <trkpt lat="46.16836" lon="6.64684">
        <ele>1867</ele>
        <time>2022-07-31T09:28:41Z</time>
      </trkpt>
      <trkpt lat="46.16838" lon="6.64687">
        <ele>1867</ele>
        <time>2022-07-31T09:28:42Z</time>
      </trkpt>
      <trkpt lat="46.16838" lon="6.64688">
        <ele>1867</ele>
        <time>2022-07-31T09:28:43Z</time>
      </trkpt>
      <trkpt lat="46.16839" lon="6.6469">
        <ele>1867</ele>
        <time>2022-07-31T09:28:44Z</time>
      </trkpt>
      <trkpt lat="46.1684" lon="6.64692">
        <ele>1867</ele>
        <time>2022-07-31T09:28:45Z</time>
      </trkpt>
      <trkpt lat="46.16841" lon="6.64694">
        <ele>1868</ele>
        <time>2022-07-31T09:28:46Z</time>
      </trkpt>
      <trkpt lat="46.16842" lon="6.64696">
        <ele>1868</ele>
        <time>2022-07-31T09:28:47Z</time>
      </trkpt>
      <trkpt lat="46.16842" lon="6.64697">
        <ele>1868</ele>
        <time>2022-07-31T09:28:48Z</time>
      </trkpt>
      <trkpt lat="46.16843" lon="6.64698">
        <ele>1868</ele>
        <time>2022-07-31T09:28:49Z</time>
      </trkpt>
      <trkpt lat="46.16843" lon="6.64699">
        <ele>1868</ele>
        <time>2022-07-31T09:28:50Z</time>
      </trkpt>
      <trkpt lat="46.16843" lon="6.64701">
        <ele>1868</ele>
        <time>2022-07-31T09:28:51Z</time>
      </trkpt>
      <trkpt lat="46.16843" lon="6.64701">
        <ele>1868</ele>
        <time>2022-07-31T09:28:52Z</time>
      </trkpt>
      <trkpt lat="46.16845" lon="6.64701">
        <ele>1868</ele>
        <time>2022-07-31T09:28:53Z</time>
      </trkpt>
      <trkpt lat="46.16845" lon="6.64702">
        <ele>1868</ele>
        <time>2022-07-31T09:28:54Z</time>
      </trkpt>
      <trkpt lat="46.16845" lon="6.64703">
        <ele>1868</ele>
        <time>2022-07-31T09:28:55Z</time>
      </trkpt>
      <trkpt lat="46.16846" lon="6.64703">
        <ele>1868</ele>
        <time>2022-07-31T09:28:56Z</time>
      </trkpt>
      <trkpt lat="46.16846" lon="6.64705">
        <ele>1869</ele>
        <time>2022-07-31T09:28:57Z</time>
      </trkpt>
      <trkpt lat="46.16846" lon="6.64706">
        <ele>1869</ele>
        <time>2022-07-31T09:28:58Z</time>
      </trkpt>
      <trkpt lat="46.16847" lon="6.64708">
        <ele>1869</ele>
        <time>2022-07-31T09:28:59Z</time>
      </trkpt>
      <trkpt lat="46.16847" lon="6.64708">
        <ele>1869</ele>
        <time>2022-07-31T09:29:00Z</time>
      </trkpt>
      <trkpt lat="46.16848" lon="6.6471">
        <ele>1869</ele>
        <time>2022-07-31T09:29:01Z</time>
      </trkpt>
      <trkpt lat="46.16848" lon="6.64711">
        <ele>1869</ele>
        <time>2022-07-31T09:29:02Z</time>
      </trkpt>
      <trkpt lat="46.16848" lon="6.64713">
        <ele>1869</ele>
        <time>2022-07-31T09:29:03Z</time>
      </trkpt>
      <trkpt lat="46.16848" lon="6.64714">
        <ele>1869</ele>
        <time>2022-07-31T09:29:04Z</time>
      </trkpt>
      <trkpt lat="46.16849" lon="6.64715">
        <ele>1869</ele>
        <time>2022-07-31T09:29:05Z</time>
      </trkpt>
      <trkpt lat="46.16849" lon="6.64717">
        <ele>1869</ele>
        <time>2022-07-31T09:29:06Z</time>
      </trkpt>
      <trkpt lat="46.1685" lon="6.64718">
        <ele>1869</ele>
        <time>2022-07-31T09:29:07Z</time>
      </trkpt>
      <trkpt lat="46.16851" lon="6.64718">
        <ele>1869</ele>
        <time>2022-07-31T09:29:08Z</time>
      </trkpt>
      <trkpt lat="46.16852" lon="6.64719">
        <ele>1869</ele>
        <time>2022-07-31T09:29:09Z</time>
      </trkpt>
      <trkpt lat="46.16854" lon="6.6472">
        <ele>1870</ele>
        <time>2022-07-31T09:29:10Z</time>
      </trkpt>
      <trkpt lat="46.16855" lon="6.64721">
        <ele>1870</ele>
        <time>2022-07-31T09:29:11Z</time>
      </trkpt>
      <trkpt lat="46.16856" lon="6.64722">
        <ele>1870</ele>
        <time>2022-07-31T09:29:12Z</time>
      </trkpt>
      <trkpt lat="46.16856" lon="6.64724">
        <ele>1870</ele>
        <time>2022-07-31T09:29:13Z</time>
      </trkpt>
      <trkpt lat="46.16857" lon="6.64725">
        <ele>1870</ele>
        <time>2022-07-31T09:29:14Z</time>
      </trkpt>
      <trkpt lat="46.16857" lon="6.64727">
        <ele>1870</ele>
        <time>2022-07-31T09:29:15Z</time>
      </trkpt>
      <trkpt lat="46.16858" lon="6.64728">
        <ele>1870</ele>
        <time>2022-07-31T09:29:16Z</time>
      </trkpt>
      <trkpt lat="46.16859" lon="6.6473">
        <ele>1870</ele>
        <time>2022-07-31T09:29:17Z</time>
      </trkpt>
      <trkpt lat="46.1686" lon="6.64731">
        <ele>1870</ele>
        <time>2022-07-31T09:29:18Z</time>
      </trkpt>
      <trkpt lat="46.16861" lon="6.64732">
        <ele>1870</ele>
        <time>2022-07-31T09:29:19Z</time>
      </trkpt>
      <trkpt lat="46.16862" lon="6.64733">
        <ele>1870</ele>
        <time>2022-07-31T09:29:20Z</time>
      </trkpt>
      <trkpt lat="46.16863" lon="6.64734">
        <ele>1870</ele>
        <time>2022-07-31T09:29:21Z</time>
      </trkpt>
      <trkpt lat="46.16864" lon="6.64734">
        <ele>1869</ele>
        <time>2022-07-31T09:29:22Z</time>
      </trkpt>
      <trkpt lat="46.16865" lon="6.64735">
        <ele>1869</ele>
        <time>2022-07-31T09:29:23Z</time>
      </trkpt>
      <trkpt lat="46.16865" lon="6.64736">
        <ele>1869</ele>
        <time>2022-07-31T09:29:24Z</time>
      </trkpt>
      <trkpt lat="46.16866" lon="6.64736">
        <ele>1870</ele>
        <time>2022-07-31T09:29:25Z</time>
      </trkpt>
      <trkpt lat="46.16866" lon="6.64737">
        <ele>1870</ele>
        <time>2022-07-31T09:29:26Z</time>
      </trkpt>
      <trkpt lat="46.16867" lon="6.64738">
        <ele>1870</ele>
        <time>2022-07-31T09:29:27Z</time>
      </trkpt>
      <trkpt lat="46.16867" lon="6.64739">
        <ele>1870</ele>
        <time>2022-07-31T09:29:28Z</time>
      </trkpt>
      <trkpt lat="46.16868" lon="6.6474">
        <ele>1870</ele>
        <time>2022-07-31T09:29:29Z</time>
      </trkpt>
      <trkpt lat="46.16869" lon="6.64741">
        <ele>1870</ele>
        <time>2022-07-31T09:29:30Z</time>
      </trkpt>
      <trkpt lat="46.1687" lon="6.64742">
        <ele>1870</ele>
        <time>2022-07-31T09:29:31Z</time>
      </trkpt>
      <trkpt lat="46.16871" lon="6.64743">
        <ele>1870</ele>
        <time>2022-07-31T09:29:32Z</time>
      </trkpt>
      <trkpt lat="46.16871" lon="6.64744">
        <ele>1870</ele>
        <time>2022-07-31T09:29:33Z</time>
      </trkpt>
      <trkpt lat="46.16872" lon="6.64745">
        <ele>1870</ele>
        <time>2022-07-31T09:29:34Z</time>
      </trkpt>
      <trkpt lat="46.16871" lon="6.64746">
        <ele>1870</ele>
        <time>2022-07-31T09:29:35Z</time>
      </trkpt>
      <trkpt lat="46.16871" lon="6.64747">
        <ele>1870</ele>
        <time>2022-07-31T09:29:36Z</time>
      </trkpt>
      <trkpt lat="46.16872" lon="6.64749">
        <ele>1870</ele>
        <time>2022-07-31T09:29:37Z</time>
      </trkpt>
      <trkpt lat="46.16872" lon="6.64751">
        <ele>1870</ele>
        <time>2022-07-31T09:29:38Z</time>
      </trkpt>
      <trkpt lat="46.16873" lon="6.64752">
        <ele>1870</ele>
        <time>2022-07-31T09:29:39Z</time>
      </trkpt>
      <trkpt lat="46.16874" lon="6.64754">
        <ele>1870</ele>
        <time>2022-07-31T09:29:40Z</time>
      </trkpt>
      <trkpt lat="46.16875" lon="6.64756">
        <ele>1870</ele>
        <time>2022-07-31T09:29:41Z</time>
      </trkpt>
      <trkpt lat="46.16876" lon="6.64756">
        <ele>1870</ele>
        <time>2022-07-31T09:29:42Z</time>
      </trkpt>
      <trkpt lat="46.16876" lon="6.64757">
        <ele>1870</ele>
        <time>2022-07-31T09:29:43Z</time>
      </trkpt>
      <trkpt lat="46.16877" lon="6.64758">
        <ele>1871</ele>
        <time>2022-07-31T09:29:44Z</time>
      </trkpt>
      <trkpt lat="46.16877" lon="6.64759">
        <ele>1871</ele>
        <time>2022-07-31T09:29:45Z</time>
      </trkpt>
      <trkpt lat="46.16877" lon="6.64761">
        <ele>1871</ele>
        <time>2022-07-31T09:29:46Z</time>
      </trkpt>
      <trkpt lat="46.16877" lon="6.64763">
        <ele>1871</ele>
        <time>2022-07-31T09:29:47Z</time>
      </trkpt>
      <trkpt lat="46.16879" lon="6.64764">
        <ele>1871</ele>
        <time>2022-07-31T09:29:48Z</time>
      </trkpt>
      <trkpt lat="46.1688" lon="6.64765">
        <ele>1871</ele>
        <time>2022-07-31T09:29:49Z</time>
      </trkpt>
      <trkpt lat="46.1688" lon="6.64764">
        <ele>1871</ele>
        <time>2022-07-31T09:29:50Z</time>
      </trkpt>
      <trkpt lat="46.1688" lon="6.64764">
        <ele>1871</ele>
        <time>2022-07-31T09:29:51Z</time>
      </trkpt>
      <trkpt lat="46.1688" lon="6.64764">
        <ele>1872</ele>
        <time>2022-07-31T09:29:52Z</time>
      </trkpt>
      <trkpt lat="46.16879" lon="6.64764">
        <ele>1872</ele>
        <time>2022-07-31T09:29:53Z</time>
      </trkpt>
      <trkpt lat="46.16879" lon="6.64765">
        <ele>1872</ele>
        <time>2022-07-31T09:29:54Z</time>
      </trkpt>
      <trkpt lat="46.1688" lon="6.64766">
        <ele>1873</ele>
        <time>2022-07-31T09:29:55Z</time>
      </trkpt>
      <trkpt lat="46.1688" lon="6.64767">
        <ele>1873</ele>
        <time>2022-07-31T09:29:56Z</time>
      </trkpt>
      <trkpt lat="46.16881" lon="6.64768">
        <ele>1873</ele>
        <time>2022-07-31T09:29:57Z</time>
      </trkpt>
      <trkpt lat="46.16882" lon="6.64769">
        <ele>1873</ele>
        <time>2022-07-31T09:29:58Z</time>
      </trkpt>
      <trkpt lat="46.16882" lon="6.6477">
        <ele>1873</ele>
        <time>2022-07-31T09:29:59Z</time>
      </trkpt>
      <trkpt lat="46.16882" lon="6.64771">
        <ele>1874</ele>
        <time>2022-07-31T09:30:00Z</time>
      </trkpt>
      <trkpt lat="46.16882" lon="6.64772">
        <ele>1874</ele>
        <time>2022-07-31T09:30:01Z</time>
      </trkpt>
      <trkpt lat="46.16883" lon="6.64774">
        <ele>1874</ele>
        <time>2022-07-31T09:30:02Z</time>
      </trkpt>
      <trkpt lat="46.16883" lon="6.64776">
        <ele>1874</ele>
        <time>2022-07-31T09:30:03Z</time>
      </trkpt>
      <trkpt lat="46.16883" lon="6.64777">
        <ele>1875</ele>
        <time>2022-07-31T09:30:04Z</time>
      </trkpt>
      <trkpt lat="46.16883" lon="6.64779">
        <ele>1875</ele>
        <time>2022-07-31T09:30:05Z</time>
      </trkpt>
      <trkpt lat="46.16883" lon="6.6478">
        <ele>1875</ele>
        <time>2022-07-31T09:30:06Z</time>
      </trkpt>
      <trkpt lat="46.16884" lon="6.64781">
        <ele>1875</ele>
        <time>2022-07-31T09:30:07Z</time>
      </trkpt>
      <trkpt lat="46.16885" lon="6.64782">
        <ele>1875</ele>
        <time>2022-07-31T09:30:08Z</time>
      </trkpt>
      <trkpt lat="46.16885" lon="6.64783">
        <ele>1875</ele>
        <time>2022-07-31T09:30:09Z</time>
      </trkpt>
      <trkpt lat="46.16886" lon="6.64784">
        <ele>1876</ele>
        <time>2022-07-31T09:30:10Z</time>
      </trkpt>
      <trkpt lat="46.16886" lon="6.64785">
        <ele>1876</ele>
        <time>2022-07-31T09:30:11Z</time>
      </trkpt>
      <trkpt lat="46.16887" lon="6.64786">
        <ele>1876</ele>
        <time>2022-07-31T09:30:12Z</time>
      </trkpt>
      <trkpt lat="46.16888" lon="6.64787">
        <ele>1876</ele>
        <time>2022-07-31T09:30:13Z</time>
      </trkpt>
      <trkpt lat="46.16888" lon="6.64788">
        <ele>1876</ele>
        <time>2022-07-31T09:30:14Z</time>
      </trkpt>
      <trkpt lat="46.16888" lon="6.64789">
        <ele>1876</ele>
        <time>2022-07-31T09:30:15Z</time>
      </trkpt>
      <trkpt lat="46.16888" lon="6.64791">
        <ele>1876</ele>
        <time>2022-07-31T09:30:16Z</time>
      </trkpt>
      <trkpt lat="46.16888" lon="6.64792">
        <ele>1876</ele>
        <time>2022-07-31T09:30:17Z</time>
      </trkpt>
      <trkpt lat="46.16888" lon="6.64793">
        <ele>1877</ele>
        <time>2022-07-31T09:30:18Z</time>
      </trkpt>
      <trkpt lat="46.16889" lon="6.64794">
        <ele>1877</ele>
        <time>2022-07-31T09:30:19Z</time>
      </trkpt>
      <trkpt lat="46.16889" lon="6.64793">
        <ele>1877</ele>
        <time>2022-07-31T09:30:20Z</time>
      </trkpt>
      <trkpt lat="46.1689" lon="6.64794">
        <ele>1877</ele>
        <time>2022-07-31T09:30:21Z</time>
      </trkpt>
      <trkpt lat="46.16891" lon="6.64794">
        <ele>1877</ele>
        <time>2022-07-31T09:30:22Z</time>
      </trkpt>
      <trkpt lat="46.16892" lon="6.64795">
        <ele>1877</ele>
        <time>2022-07-31T09:30:23Z</time>
      </trkpt>
      <trkpt lat="46.16892" lon="6.64796">
        <ele>1877</ele>
        <time>2022-07-31T09:30:24Z</time>
      </trkpt>
      <trkpt lat="46.16894" lon="6.64797">
        <ele>1877</ele>
        <time>2022-07-31T09:30:25Z</time>
      </trkpt>
      <trkpt lat="46.16894" lon="6.64798">
        <ele>1877</ele>
        <time>2022-07-31T09:30:26Z</time>
      </trkpt>
      <trkpt lat="46.16894" lon="6.64798">
        <ele>1877</ele>
        <time>2022-07-31T09:30:27Z</time>
      </trkpt>
      <trkpt lat="46.16894" lon="6.648">
        <ele>1878</ele>
        <time>2022-07-31T09:30:28Z</time>
      </trkpt>
      <trkpt lat="46.16894" lon="6.648">
        <ele>1878</ele>
        <time>2022-07-31T09:30:29Z</time>
      </trkpt>
      <trkpt lat="46.16894" lon="6.648">
        <ele>1878</ele>
        <time>2022-07-31T09:30:30Z</time>
      </trkpt>
      <trkpt lat="46.16893" lon="6.648">
        <ele>1878</ele>
        <time>2022-07-31T09:30:31Z</time>
      </trkpt>
      <trkpt lat="46.16892" lon="6.648">
        <ele>1878</ele>
        <time>2022-07-31T09:30:32Z</time>
      </trkpt>
      <trkpt lat="46.16892" lon="6.64801">
        <ele>1878</ele>
        <time>2022-07-31T09:30:33Z</time>
      </trkpt>
      <trkpt lat="46.16892" lon="6.648">
        <ele>1878</ele>
        <time>2022-07-31T09:30:34Z</time>
      </trkpt>
      <trkpt lat="46.16892" lon="6.648">
        <ele>1878</ele>
        <time>2022-07-31T09:30:35Z</time>
      </trkpt>
      <trkpt lat="46.16893" lon="6.648">
        <ele>1878</ele>
        <time>2022-07-31T09:30:36Z</time>
      </trkpt>
      <trkpt lat="46.16893" lon="6.64801">
        <ele>1878</ele>
        <time>2022-07-31T09:30:37Z</time>
      </trkpt>
      <trkpt lat="46.16893" lon="6.64801">
        <ele>1878</ele>
        <time>2022-07-31T09:30:38Z</time>
      </trkpt>
      <trkpt lat="46.16893" lon="6.64801">
        <ele>1878</ele>
        <time>2022-07-31T09:30:39Z</time>
      </trkpt>
      <trkpt lat="46.16893" lon="6.648">
        <ele>1878</ele>
        <time>2022-07-31T09:30:40Z</time>
      </trkpt>
      <trkpt lat="46.16894" lon="6.648">
        <ele>1878</ele>
        <time>2022-07-31T09:30:41Z</time>
      </trkpt>
      <trkpt lat="46.16894" lon="6.648">
        <ele>1878</ele>
        <time>2022-07-31T09:30:42Z</time>
      </trkpt>
      <trkpt lat="46.16894" lon="6.648">
        <ele>1878</ele>
        <time>2022-07-31T09:30:43Z</time>
      </trkpt>
      <trkpt lat="46.16894" lon="6.648">
        <ele>1878</ele>
        <time>2022-07-31T09:30:44Z</time>
      </trkpt>
      <trkpt lat="46.16894" lon="6.648">
        <ele>1878</ele>
        <time>2022-07-31T09:30:45Z</time>
      </trkpt>
      <trkpt lat="46.16894" lon="6.648">
        <ele>1878</ele>
        <time>2022-07-31T09:30:46Z</time>
      </trkpt>
      <trkpt lat="46.16894" lon="6.648">
        <ele>1878</ele>
        <time>2022-07-31T09:30:47Z</time>
      </trkpt>
      <trkpt lat="46.16894" lon="6.648">
        <ele>1878</ele>
        <time>2022-07-31T09:30:48Z</time>
      </trkpt>
      <trkpt lat="46.16894" lon="6.648">
        <ele>1878</ele>
        <time>2022-07-31T09:30:49Z</time>
      </trkpt>
      <trkpt lat="46.16894" lon="6.648">
        <ele>1878</ele>
        <time>2022-07-31T09:30:50Z</time>
      </trkpt>
      <trkpt lat="46.16894" lon="6.648">
        <ele>1878</ele>
        <time>2022-07-31T09:30:51Z</time>
      </trkpt>
      <trkpt lat="46.16894" lon="6.648">
        <ele>1878</ele>
        <time>2022-07-31T09:30:52Z</time>
      </trkpt>
      <trkpt lat="46.16894" lon="6.648">
        <ele>1878</ele>
        <time>2022-07-31T09:30:53Z</time>
      </trkpt>
      <trkpt lat="46.16894" lon="6.648">
        <ele>1878</ele>
        <time>2022-07-31T09:30:54Z</time>
      </trkpt>
      <trkpt lat="46.16894" lon="6.648">
        <ele>1878</ele>
        <time>2022-07-31T09:30:55Z</time>
      </trkpt>
      <trkpt lat="46.16895" lon="6.648">
        <ele>1878</ele>
        <time>2022-07-31T09:30:56Z</time>
      </trkpt>
      <trkpt lat="46.16895" lon="6.648">
        <ele>1878</ele>
        <time>2022-07-31T09:30:57Z</time>
      </trkpt>
      <trkpt lat="46.16895" lon="6.648">
        <ele>1878</ele>
        <time>2022-07-31T09:30:58Z</time>
      </trkpt>
      <trkpt lat="46.16895" lon="6.648">
        <ele>1878</ele>
        <time>2022-07-31T09:30:59Z</time>
      </trkpt>
      <trkpt lat="46.16895" lon="6.648">
        <ele>1878</ele>
        <time>2022-07-31T09:31:00Z</time>
      </trkpt>
      <trkpt lat="46.16895" lon="6.648">
        <ele>1878</ele>
        <time>2022-07-31T09:31:01Z</time>
      </trkpt>
      <trkpt lat="46.16895" lon="6.64801">
        <ele>1878</ele>
        <time>2022-07-31T09:31:02Z</time>
      </trkpt>
      <trkpt lat="46.16896" lon="6.64802">
        <ele>1878</ele>
        <time>2022-07-31T09:31:03Z</time>
      </trkpt>
      <trkpt lat="46.16896" lon="6.64803">
        <ele>1878</ele>
        <time>2022-07-31T09:31:04Z</time>
      </trkpt>
      <trkpt lat="46.16896" lon="6.64804">
        <ele>1878</ele>
        <time>2022-07-31T09:31:05Z</time>
      </trkpt>
      <trkpt lat="46.16896" lon="6.64804">
        <ele>1878</ele>
        <time>2022-07-31T09:31:06Z</time>
      </trkpt>
      <trkpt lat="46.16895" lon="6.64805">
        <ele>1878</ele>
        <time>2022-07-31T09:31:07Z</time>
      </trkpt>
      <trkpt lat="46.16895" lon="6.64805">
        <ele>1878</ele>
        <time>2022-07-31T09:31:08Z</time>
      </trkpt>
      <trkpt lat="46.16895" lon="6.64806">
        <ele>1878</ele>
        <time>2022-07-31T09:31:09Z</time>
      </trkpt>
      <trkpt lat="46.16895" lon="6.64806">
        <ele>1878</ele>
        <time>2022-07-31T09:31:10Z</time>
      </trkpt>
      <trkpt lat="46.16894" lon="6.64806">
        <ele>1878</ele>
        <time>2022-07-31T09:31:11Z</time>
      </trkpt>
      <trkpt lat="46.16895" lon="6.64806">
        <ele>1878</ele>
        <time>2022-07-31T09:31:12Z</time>
      </trkpt>
      <trkpt lat="46.16895" lon="6.64806">
        <ele>1879</ele>
        <time>2022-07-31T09:31:13Z</time>
      </trkpt>
      <trkpt lat="46.16895" lon="6.64806">
        <ele>1879</ele>
        <time>2022-07-31T09:31:14Z</time>
      </trkpt>
      <trkpt lat="46.16895" lon="6.64806">
        <ele>1879</ele>
        <time>2022-07-31T09:31:15Z</time>
      </trkpt>
      <trkpt lat="46.16895" lon="6.64806">
        <ele>1879</ele>
        <time>2022-07-31T09:31:16Z</time>
      </trkpt>
      <trkpt lat="46.16895" lon="6.64806">
        <ele>1879</ele>
        <time>2022-07-31T09:31:17Z</time>
      </trkpt>
      <trkpt lat="46.16895" lon="6.64807">
        <ele>1879</ele>
        <time>2022-07-31T09:31:18Z</time>
      </trkpt>
      <trkpt lat="46.16895" lon="6.64806">
        <ele>1879</ele>
        <time>2022-07-31T09:31:19Z</time>
      </trkpt>
      <trkpt lat="46.16895" lon="6.64807">
        <ele>1879</ele>
        <time>2022-07-31T09:31:20Z</time>
      </trkpt>
      <trkpt lat="46.16895" lon="6.64807">
        <ele>1879</ele>
        <time>2022-07-31T09:31:21Z</time>
      </trkpt>
      <trkpt lat="46.16895" lon="6.64806">
        <ele>1879</ele>
        <time>2022-07-31T09:31:22Z</time>
      </trkpt>
      <trkpt lat="46.16895" lon="6.64805">
        <ele>1879</ele>
        <time>2022-07-31T09:31:23Z</time>
      </trkpt>
      <trkpt lat="46.16895" lon="6.64804">
        <ele>1879</ele>
        <time>2022-07-31T09:31:24Z</time>
      </trkpt>
      <trkpt lat="46.16895" lon="6.64803">
        <ele>1879</ele>
        <time>2022-07-31T09:31:25Z</time>
      </trkpt>
      <trkpt lat="46.16895" lon="6.64803">
        <ele>1879</ele>
        <time>2022-07-31T09:31:26Z</time>
      </trkpt>
      <trkpt lat="46.16894" lon="6.64803">
        <ele>1879</ele>
        <time>2022-07-31T09:31:27Z</time>
      </trkpt>
      <trkpt lat="46.16894" lon="6.64802">
        <ele>1880</ele>
        <time>2022-07-31T09:31:28Z</time>
      </trkpt>
      <trkpt lat="46.16894" lon="6.64803">
        <ele>1880</ele>
        <time>2022-07-31T09:31:29Z</time>
      </trkpt>
      <trkpt lat="46.16894" lon="6.64804">
        <ele>1880</ele>
        <time>2022-07-31T09:31:30Z</time>
      </trkpt>
      <trkpt lat="46.16894" lon="6.64806">
        <ele>1880</ele>
        <time>2022-07-31T09:31:31Z</time>
      </trkpt>
      <trkpt lat="46.16894" lon="6.64807">
        <ele>1880</ele>
        <time>2022-07-31T09:31:32Z</time>
      </trkpt>
      <trkpt lat="46.16893" lon="6.64808">
        <ele>1880</ele>
        <time>2022-07-31T09:31:33Z</time>
      </trkpt>
      <trkpt lat="46.16892" lon="6.64808">
        <ele>1880</ele>
        <time>2022-07-31T09:31:34Z</time>
      </trkpt>
      <trkpt lat="46.16892" lon="6.64808">
        <ele>1880</ele>
        <time>2022-07-31T09:31:35Z</time>
      </trkpt>
      <trkpt lat="46.16891" lon="6.64808">
        <ele>1880</ele>
        <time>2022-07-31T09:31:36Z</time>
      </trkpt>
      <trkpt lat="46.16891" lon="6.64809">
        <ele>1880</ele>
        <time>2022-07-31T09:31:37Z</time>
      </trkpt>
      <trkpt lat="46.16891" lon="6.64809">
        <ele>1880</ele>
        <time>2022-07-31T09:31:38Z</time>
      </trkpt>
      <trkpt lat="46.16891" lon="6.64809">
        <ele>1880</ele>
        <time>2022-07-31T09:31:39Z</time>
      </trkpt>
      <trkpt lat="46.16891" lon="6.64809">
        <ele>1880</ele>
        <time>2022-07-31T09:31:40Z</time>
      </trkpt>
      <trkpt lat="46.1689" lon="6.64809">
        <ele>1880</ele>
        <time>2022-07-31T09:31:41Z</time>
      </trkpt>
      <trkpt lat="46.1689" lon="6.64809">
        <ele>1881</ele>
        <time>2022-07-31T09:31:42Z</time>
      </trkpt>
      <trkpt lat="46.1689" lon="6.64809">
        <ele>1881</ele>
        <time>2022-07-31T09:31:43Z</time>
      </trkpt>
      <trkpt lat="46.1689" lon="6.64809">
        <ele>1881</ele>
        <time>2022-07-31T09:31:44Z</time>
      </trkpt>
      <trkpt lat="46.1689" lon="6.64809">
        <ele>1881</ele>
        <time>2022-07-31T09:31:45Z</time>
      </trkpt>
      <trkpt lat="46.1689" lon="6.64809">
        <ele>1881</ele>
        <time>2022-07-31T09:31:46Z</time>
      </trkpt>
      <trkpt lat="46.1689" lon="6.64809">
        <ele>1881</ele>
        <time>2022-07-31T09:31:47Z</time>
      </trkpt>
      <trkpt lat="46.1689" lon="6.64809">
        <ele>1881</ele>
        <time>2022-07-31T09:31:48Z</time>
      </trkpt>
      <trkpt lat="46.1689" lon="6.64809">
        <ele>1881</ele>
        <time>2022-07-31T09:31:49Z</time>
      </trkpt>
      <trkpt lat="46.1689" lon="6.64809">
        <ele>1881</ele>
        <time>2022-07-31T09:31:50Z</time>
      </trkpt>
      <trkpt lat="46.1689" lon="6.64809">
        <ele>1882</ele>
        <time>2022-07-31T09:31:51Z</time>
      </trkpt>
      <trkpt lat="46.1689" lon="6.64809">
        <ele>1882</ele>
        <time>2022-07-31T09:31:52Z</time>
      </trkpt>
      <trkpt lat="46.1689" lon="6.64809">
        <ele>1882</ele>
        <time>2022-07-31T09:31:53Z</time>
      </trkpt>
      <trkpt lat="46.1689" lon="6.64809">
        <ele>1882</ele>
        <time>2022-07-31T09:31:54Z</time>
      </trkpt>
      <trkpt lat="46.1689" lon="6.64809">
        <ele>1882</ele>
        <time>2022-07-31T09:31:55Z</time>
      </trkpt>
      <trkpt lat="46.1689" lon="6.64808">
        <ele>1882</ele>
        <time>2022-07-31T09:31:56Z</time>
      </trkpt>
      <trkpt lat="46.1689" lon="6.64808">
        <ele>1882</ele>
        <time>2022-07-31T09:31:57Z</time>
      </trkpt>
      <trkpt lat="46.1689" lon="6.64808">
        <ele>1882</ele>
        <time>2022-07-31T09:31:58Z</time>
      </trkpt>
      <trkpt lat="46.1689" lon="6.64808">
        <ele>1882</ele>
        <time>2022-07-31T09:31:59Z</time>
      </trkpt>
      <trkpt lat="46.1689" lon="6.64808">
        <ele>1882</ele>
        <time>2022-07-31T09:32:00Z</time>
      </trkpt>
      <trkpt lat="46.1689" lon="6.64808">
        <ele>1882</ele>
        <time>2022-07-31T09:32:01Z</time>
      </trkpt>
      <trkpt lat="46.1689" lon="6.64808">
        <ele>1882</ele>
        <time>2022-07-31T09:32:02Z</time>
      </trkpt>
      <trkpt lat="46.1689" lon="6.64808">
        <ele>1882</ele>
        <time>2022-07-31T09:32:03Z</time>
      </trkpt>
      <trkpt lat="46.1689" lon="6.64808">
        <ele>1882</ele>
        <time>2022-07-31T09:32:04Z</time>
      </trkpt>
      <trkpt lat="46.1689" lon="6.64809">
        <ele>1882</ele>
        <time>2022-07-31T09:32:05Z</time>
      </trkpt>
      <trkpt lat="46.1689" lon="6.64808">
        <ele>1882</ele>
        <time>2022-07-31T09:32:06Z</time>
      </trkpt>
      <trkpt lat="46.1689" lon="6.64808">
        <ele>1882</ele>
        <time>2022-07-31T09:32:07Z</time>
      </trkpt>
      <trkpt lat="46.1689" lon="6.64808">
        <ele>1882</ele>
        <time>2022-07-31T09:32:08Z</time>
      </trkpt>
      <trkpt lat="46.1689" lon="6.64808">
        <ele>1882</ele>
        <time>2022-07-31T09:32:09Z</time>
      </trkpt>
      <trkpt lat="46.1689" lon="6.64808">
        <ele>1882</ele>
        <time>2022-07-31T09:32:10Z</time>
      </trkpt>
      <trkpt lat="46.1689" lon="6.64808">
        <ele>1882</ele>
        <time>2022-07-31T09:32:11Z</time>
      </trkpt>
      <trkpt lat="46.1689" lon="6.64808">
        <ele>1882</ele>
        <time>2022-07-31T09:32:12Z</time>
      </trkpt>
      <trkpt lat="46.1689" lon="6.64808">
        <ele>1882</ele>
        <time>2022-07-31T09:32:13Z</time>
      </trkpt>
      <trkpt lat="46.16889" lon="6.64808">
        <ele>1882</ele>
        <time>2022-07-31T09:32:14Z</time>
      </trkpt>
      <trkpt lat="46.16889" lon="6.64808">
        <ele>1882</ele>
        <time>2022-07-31T09:32:15Z</time>
      </trkpt>
      <trkpt lat="46.16889" lon="6.64808">
        <ele>1882</ele>
        <time>2022-07-31T09:32:16Z</time>
      </trkpt>
      <trkpt lat="46.16889" lon="6.64808">
        <ele>1882</ele>
        <time>2022-07-31T09:32:17Z</time>
      </trkpt>
      <trkpt lat="46.16889" lon="6.64808">
        <ele>1882</ele>
        <time>2022-07-31T09:32:18Z</time>
      </trkpt>
      <trkpt lat="46.16889" lon="6.64808">
        <ele>1882</ele>
        <time>2022-07-31T09:32:19Z</time>
      </trkpt>
      <trkpt lat="46.16889" lon="6.64808">
        <ele>1882</ele>
        <time>2022-07-31T09:32:20Z</time>
      </trkpt>
      <trkpt lat="46.16889" lon="6.64808">
        <ele>1882</ele>
        <time>2022-07-31T09:32:21Z</time>
      </trkpt>
      <trkpt lat="46.16889" lon="6.64808">
        <ele>1882</ele>
        <time>2022-07-31T09:32:22Z</time>
      </trkpt>
      <trkpt lat="46.16889" lon="6.64808">
        <ele>1882</ele>
        <time>2022-07-31T09:32:23Z</time>
      </trkpt>
      <trkpt lat="46.16889" lon="6.64808">
        <ele>1882</ele>
        <time>2022-07-31T09:32:24Z</time>
      </trkpt>
      <trkpt lat="46.16889" lon="6.64808">
        <ele>1882</ele>
        <time>2022-07-31T09:32:25Z</time>
      </trkpt>
      <trkpt lat="46.16889" lon="6.64808">
        <ele>1882</ele>
        <time>2022-07-31T09:32:26Z</time>
      </trkpt>
      <trkpt lat="46.16888" lon="6.64808">
        <ele>1882</ele>
        <time>2022-07-31T09:32:27Z</time>
      </trkpt>
      <trkpt lat="46.16888" lon="6.64808">
        <ele>1882</ele>
        <time>2022-07-31T09:32:28Z</time>
      </trkpt>
      <trkpt lat="46.16888" lon="6.64808">
        <ele>1882</ele>
        <time>2022-07-31T09:32:29Z</time>
      </trkpt>
      <trkpt lat="46.16888" lon="6.64808">
        <ele>1882</ele>
        <time>2022-07-31T09:32:30Z</time>
      </trkpt>
      <trkpt lat="46.16888" lon="6.64808">
        <ele>1882</ele>
        <time>2022-07-31T09:32:31Z</time>
      </trkpt>
      <trkpt lat="46.16888" lon="6.64808">
        <ele>1882</ele>
        <time>2022-07-31T09:32:32Z</time>
      </trkpt>
      <trkpt lat="46.16888" lon="6.64808">
        <ele>1882</ele>
        <time>2022-07-31T09:32:33Z</time>
      </trkpt>
      <trkpt lat="46.16889" lon="6.64807">
        <ele>1882</ele>
        <time>2022-07-31T09:32:34Z</time>
      </trkpt>
      <trkpt lat="46.16889" lon="6.64806">
        <ele>1882</ele>
        <time>2022-07-31T09:32:35Z</time>
      </trkpt>
      <trkpt lat="46.1689" lon="6.64807">
        <ele>1882</ele>
        <time>2022-07-31T09:32:36Z</time>
      </trkpt>
      <trkpt lat="46.16891" lon="6.64806">
        <ele>1882</ele>
        <time>2022-07-31T09:32:37Z</time>
      </trkpt>
      <trkpt lat="46.16892" lon="6.64807">
        <ele>1882</ele>
        <time>2022-07-31T09:32:38Z</time>
      </trkpt>
      <trkpt lat="46.16892" lon="6.64806">
        <ele>1882</ele>
        <time>2022-07-31T09:32:39Z</time>
      </trkpt>
      <trkpt lat="46.16893" lon="6.64806">
        <ele>1882</ele>
        <time>2022-07-31T09:32:40Z</time>
      </trkpt>
      <trkpt lat="46.16893" lon="6.64806">
        <ele>1882</ele>
        <time>2022-07-31T09:32:41Z</time>
      </trkpt>
      <trkpt lat="46.16894" lon="6.64807">
        <ele>1882</ele>
        <time>2022-07-31T09:32:42Z</time>
      </trkpt>
      <trkpt lat="46.16894" lon="6.64807">
        <ele>1882</ele>
        <time>2022-07-31T09:32:43Z</time>
      </trkpt>
      <trkpt lat="46.16894" lon="6.64807">
        <ele>1882</ele>
        <time>2022-07-31T09:32:44Z</time>
      </trkpt>
      <trkpt lat="46.16894" lon="6.64807">
        <ele>1882</ele>
        <time>2022-07-31T09:32:45Z</time>
      </trkpt>
      <trkpt lat="46.16894" lon="6.64808">
        <ele>1882</ele>
        <time>2022-07-31T09:32:46Z</time>
      </trkpt>
      <trkpt lat="46.16894" lon="6.64808">
        <ele>1881</ele>
        <time>2022-07-31T09:32:47Z</time>
      </trkpt>
      <trkpt lat="46.16894" lon="6.64809">
        <ele>1881</ele>
        <time>2022-07-31T09:32:48Z</time>
      </trkpt>
      <trkpt lat="46.16894" lon="6.64809">
        <ele>1881</ele>
        <time>2022-07-31T09:32:49Z</time>
      </trkpt>
      <trkpt lat="46.16894" lon="6.64809">
        <ele>1881</ele>
        <time>2022-07-31T09:32:50Z</time>
      </trkpt>
      <trkpt lat="46.16895" lon="6.64809">
        <ele>1881</ele>
        <time>2022-07-31T09:32:51Z</time>
      </trkpt>
      <trkpt lat="46.16895" lon="6.64809">
        <ele>1881</ele>
        <time>2022-07-31T09:32:52Z</time>
      </trkpt>
      <trkpt lat="46.16895" lon="6.6481">
        <ele>1881</ele>
        <time>2022-07-31T09:32:53Z</time>
      </trkpt>
      <trkpt lat="46.16895" lon="6.6481">
        <ele>1881</ele>
        <time>2022-07-31T09:32:54Z</time>
      </trkpt>
      <trkpt lat="46.16895" lon="6.6481">
        <ele>1881</ele>
        <time>2022-07-31T09:32:55Z</time>
      </trkpt>
      <trkpt lat="46.16895" lon="6.64811">
        <ele>1881</ele>
        <time>2022-07-31T09:32:56Z</time>
      </trkpt>
      <trkpt lat="46.16895" lon="6.64811">
        <ele>1881</ele>
        <time>2022-07-31T09:32:57Z</time>
      </trkpt>
      <trkpt lat="46.16895" lon="6.64811">
        <ele>1881</ele>
        <time>2022-07-31T09:32:58Z</time>
      </trkpt>
      <trkpt lat="46.16894" lon="6.64812">
        <ele>1881</ele>
        <time>2022-07-31T09:32:59Z</time>
      </trkpt>
      <trkpt lat="46.16894" lon="6.64812">
        <ele>1881</ele>
        <time>2022-07-31T09:33:00Z</time>
      </trkpt>
      <trkpt lat="46.16894" lon="6.64811">
        <ele>1881</ele>
        <time>2022-07-31T09:33:01Z</time>
      </trkpt>
      <trkpt lat="46.16894" lon="6.64811">
        <ele>1881</ele>
        <time>2022-07-31T09:33:02Z</time>
      </trkpt>
      <trkpt lat="46.16894" lon="6.64811">
        <ele>1881</ele>
        <time>2022-07-31T09:33:03Z</time>
      </trkpt>
      <trkpt lat="46.16894" lon="6.6481">
        <ele>1881</ele>
        <time>2022-07-31T09:33:04Z</time>
      </trkpt>
      <trkpt lat="46.16894" lon="6.6481">
        <ele>1881</ele>
        <time>2022-07-31T09:33:05Z</time>
      </trkpt>
      <trkpt lat="46.16894" lon="6.6481">
        <ele>1881</ele>
        <time>2022-07-31T09:33:06Z</time>
      </trkpt>
      <trkpt lat="46.16894" lon="6.6481">
        <ele>1881</ele>
        <time>2022-07-31T09:33:07Z</time>
      </trkpt>
      <trkpt lat="46.16894" lon="6.6481">
        <ele>1881</ele>
        <time>2022-07-31T09:33:08Z</time>
      </trkpt>
      <trkpt lat="46.16894" lon="6.6481">
        <ele>1881</ele>
        <time>2022-07-31T09:33:09Z</time>
      </trkpt>
      <trkpt lat="46.16894" lon="6.6481">
        <ele>1881</ele>
        <time>2022-07-31T09:33:10Z</time>
      </trkpt>
      <trkpt lat="46.16894" lon="6.6481">
        <ele>1881</ele>
        <time>2022-07-31T09:33:11Z</time>
      </trkpt>
      <trkpt lat="46.16894" lon="6.6481">
        <ele>1881</ele>
        <time>2022-07-31T09:33:12Z</time>
      </trkpt>
      <trkpt lat="46.16894" lon="6.6481">
        <ele>1881</ele>
        <time>2022-07-31T09:33:13Z</time>
      </trkpt>
      <trkpt lat="46.16894" lon="6.6481">
        <ele>1881</ele>
        <time>2022-07-31T09:33:14Z</time>
      </trkpt>
      <trkpt lat="46.16894" lon="6.6481">
        <ele>1881</ele>
        <time>2022-07-31T09:33:15Z</time>
      </trkpt>
      <trkpt lat="46.16894" lon="6.64809">
        <ele>1881</ele>
        <time>2022-07-31T09:33:16Z</time>
      </trkpt>
      <trkpt lat="46.16894" lon="6.64809">
        <ele>1881</ele>
        <time>2022-07-31T09:33:17Z</time>
      </trkpt>
      <trkpt lat="46.16894" lon="6.6481">
        <ele>1881</ele>
        <time>2022-07-31T09:33:18Z</time>
      </trkpt>
      <trkpt lat="46.16894" lon="6.64809">
        <ele>1881</ele>
        <time>2022-07-31T09:33:19Z</time>
      </trkpt>
      <trkpt lat="46.16894" lon="6.64809">
        <ele>1881</ele>
        <time>2022-07-31T09:33:20Z</time>
      </trkpt>
      <trkpt lat="46.16894" lon="6.64809">
        <ele>1881</ele>
        <time>2022-07-31T09:33:21Z</time>
      </trkpt>
      <trkpt lat="46.16894" lon="6.64808">
        <ele>1881</ele>
        <time>2022-07-31T09:33:22Z</time>
      </trkpt>
      <trkpt lat="46.16894" lon="6.64808">
        <ele>1881</ele>
        <time>2022-07-31T09:33:23Z</time>
      </trkpt>
      <trkpt lat="46.16894" lon="6.64808">
        <ele>1881</ele>
        <time>2022-07-31T09:33:24Z</time>
      </trkpt>
      <trkpt lat="46.16894" lon="6.64807">
        <ele>1881</ele>
        <time>2022-07-31T09:33:25Z</time>
      </trkpt>
      <trkpt lat="46.16894" lon="6.64807">
        <ele>1881</ele>
        <time>2022-07-31T09:33:26Z</time>
      </trkpt>
      <trkpt lat="46.16894" lon="6.64807">
        <ele>1881</ele>
        <time>2022-07-31T09:33:27Z</time>
      </trkpt>
      <trkpt lat="46.16895" lon="6.64807">
        <ele>1881</ele>
        <time>2022-07-31T09:33:28Z</time>
      </trkpt>
      <trkpt lat="46.16895" lon="6.64807">
        <ele>1881</ele>
        <time>2022-07-31T09:33:29Z</time>
      </trkpt>
      <trkpt lat="46.16895" lon="6.64807">
        <ele>1881</ele>
        <time>2022-07-31T09:33:30Z</time>
      </trkpt>
      <trkpt lat="46.16895" lon="6.64806">
        <ele>1881</ele>
        <time>2022-07-31T09:33:31Z</time>
      </trkpt>
      <trkpt lat="46.16895" lon="6.64806">
        <ele>1881</ele>
        <time>2022-07-31T09:33:32Z</time>
      </trkpt>
      <trkpt lat="46.16896" lon="6.64806">
        <ele>1881</ele>
        <time>2022-07-31T09:33:33Z</time>
      </trkpt>
      <trkpt lat="46.16896" lon="6.64805">
        <ele>1881</ele>
        <time>2022-07-31T09:33:34Z</time>
      </trkpt>
      <trkpt lat="46.16896" lon="6.64805">
        <ele>1881</ele>
        <time>2022-07-31T09:33:35Z</time>
      </trkpt>
      <trkpt lat="46.16896" lon="6.64805">
        <ele>1881</ele>
        <time>2022-07-31T09:33:36Z</time>
      </trkpt>
      <trkpt lat="46.16896" lon="6.64804">
        <ele>1881</ele>
        <time>2022-07-31T09:33:37Z</time>
      </trkpt>
      <trkpt lat="46.16896" lon="6.64804">
        <ele>1881</ele>
        <time>2022-07-31T09:33:38Z</time>
      </trkpt>
      <trkpt lat="46.16896" lon="6.64805">
        <ele>1881</ele>
        <time>2022-07-31T09:33:39Z</time>
      </trkpt>
      <trkpt lat="46.16896" lon="6.64805">
        <ele>1881</ele>
        <time>2022-07-31T09:33:40Z</time>
      </trkpt>
      <trkpt lat="46.16897" lon="6.64806">
        <ele>1881</ele>
        <time>2022-07-31T09:33:41Z</time>
      </trkpt>
      <trkpt lat="46.16897" lon="6.64807">
        <ele>1881</ele>
        <time>2022-07-31T09:33:42Z</time>
      </trkpt>
      <trkpt lat="46.16898" lon="6.64806">
        <ele>1881</ele>
        <time>2022-07-31T09:33:43Z</time>
      </trkpt>
      <trkpt lat="46.16899" lon="6.64806">
        <ele>1881</ele>
        <time>2022-07-31T09:33:44Z</time>
      </trkpt>
      <trkpt lat="46.16899" lon="6.64806">
        <ele>1881</ele>
        <time>2022-07-31T09:33:45Z</time>
      </trkpt>
      <trkpt lat="46.16899" lon="6.64805">
        <ele>1881</ele>
        <time>2022-07-31T09:33:46Z</time>
      </trkpt>
      <trkpt lat="46.16899" lon="6.64805">
        <ele>1881</ele>
        <time>2022-07-31T09:33:47Z</time>
      </trkpt>
      <trkpt lat="46.16899" lon="6.64805">
        <ele>1881</ele>
        <time>2022-07-31T09:33:48Z</time>
      </trkpt>
      <trkpt lat="46.169" lon="6.64805">
        <ele>1881</ele>
        <time>2022-07-31T09:33:49Z</time>
      </trkpt>
      <trkpt lat="46.169" lon="6.64804">
        <ele>1881</ele>
        <time>2022-07-31T09:33:50Z</time>
      </trkpt>
      <trkpt lat="46.169" lon="6.64804">
        <ele>1881</ele>
        <time>2022-07-31T09:33:51Z</time>
      </trkpt>
      <trkpt lat="46.16899" lon="6.64804">
        <ele>1881</ele>
        <time>2022-07-31T09:33:52Z</time>
      </trkpt>
      <trkpt lat="46.16899" lon="6.64805">
        <ele>1881</ele>
        <time>2022-07-31T09:33:53Z</time>
      </trkpt>
      <trkpt lat="46.16899" lon="6.64805">
        <ele>1881</ele>
        <time>2022-07-31T09:33:54Z</time>
      </trkpt>
      <trkpt lat="46.16899" lon="6.64805">
        <ele>1881</ele>
        <time>2022-07-31T09:33:55Z</time>
      </trkpt>
      <trkpt lat="46.16898" lon="6.64805">
        <ele>1881</ele>
        <time>2022-07-31T09:33:56Z</time>
      </trkpt>
      <trkpt lat="46.16898" lon="6.64805">
        <ele>1881</ele>
        <time>2022-07-31T09:33:57Z</time>
      </trkpt>
      <trkpt lat="46.16898" lon="6.64806">
        <ele>1881</ele>
        <time>2022-07-31T09:33:58Z</time>
      </trkpt>
      <trkpt lat="46.16897" lon="6.64806">
        <ele>1881</ele>
        <time>2022-07-31T09:33:59Z</time>
      </trkpt>
      <trkpt lat="46.16897" lon="6.64806">
        <ele>1881</ele>
        <time>2022-07-31T09:34:00Z</time>
      </trkpt>
      <trkpt lat="46.16897" lon="6.64806">
        <ele>1881</ele>
        <time>2022-07-31T09:34:01Z</time>
      </trkpt>
      <trkpt lat="46.16897" lon="6.64806">
        <ele>1881</ele>
        <time>2022-07-31T09:34:02Z</time>
      </trkpt>
      <trkpt lat="46.16897" lon="6.64806">
        <ele>1881</ele>
        <time>2022-07-31T09:34:03Z</time>
      </trkpt>
      <trkpt lat="46.16897" lon="6.64806">
        <ele>1880</ele>
        <time>2022-07-31T09:34:04Z</time>
      </trkpt>
      <trkpt lat="46.16898" lon="6.64806">
        <ele>1880</ele>
        <time>2022-07-31T09:34:05Z</time>
      </trkpt>
      <trkpt lat="46.16898" lon="6.64806">
        <ele>1880</ele>
        <time>2022-07-31T09:34:06Z</time>
      </trkpt>
      <trkpt lat="46.16898" lon="6.64806">
        <ele>1880</ele>
        <time>2022-07-31T09:34:07Z</time>
      </trkpt>
      <trkpt lat="46.16898" lon="6.64806">
        <ele>1880</ele>
        <time>2022-07-31T09:34:08Z</time>
      </trkpt>
      <trkpt lat="46.16898" lon="6.64806">
        <ele>1880</ele>
        <time>2022-07-31T09:34:09Z</time>
      </trkpt>
      <trkpt lat="46.16898" lon="6.64806">
        <ele>1880</ele>
        <time>2022-07-31T09:34:10Z</time>
      </trkpt>
      <trkpt lat="46.16898" lon="6.64806">
        <ele>1880</ele>
        <time>2022-07-31T09:34:11Z</time>
      </trkpt>
      <trkpt lat="46.16898" lon="6.64806">
        <ele>1880</ele>
        <time>2022-07-31T09:34:12Z</time>
      </trkpt>
      <trkpt lat="46.16897" lon="6.64806">
        <ele>1880</ele>
        <time>2022-07-31T09:34:13Z</time>
      </trkpt>
      <trkpt lat="46.16897" lon="6.64806">
        <ele>1880</ele>
        <time>2022-07-31T09:34:14Z</time>
      </trkpt>
      <trkpt lat="46.16897" lon="6.64806">
        <ele>1880</ele>
        <time>2022-07-31T09:34:15Z</time>
      </trkpt>
      <trkpt lat="46.16897" lon="6.64806">
        <ele>1880</ele>
        <time>2022-07-31T09:34:16Z</time>
      </trkpt>
      <trkpt lat="46.16897" lon="6.64806">
        <ele>1880</ele>
        <time>2022-07-31T09:34:17Z</time>
      </trkpt>
      <trkpt lat="46.16897" lon="6.64806">
        <ele>1880</ele>
        <time>2022-07-31T09:34:18Z</time>
      </trkpt>
      <trkpt lat="46.16898" lon="6.64806">
        <ele>1880</ele>
        <time>2022-07-31T09:34:19Z</time>
      </trkpt>
      <trkpt lat="46.16898" lon="6.64806">
        <ele>1880</ele>
        <time>2022-07-31T09:34:20Z</time>
      </trkpt>
      <trkpt lat="46.16898" lon="6.64806">
        <ele>1880</ele>
        <time>2022-07-31T09:34:21Z</time>
      </trkpt>
      <trkpt lat="46.16898" lon="6.64806">
        <ele>1880</ele>
        <time>2022-07-31T09:34:22Z</time>
      </trkpt>
      <trkpt lat="46.16897" lon="6.64806">
        <ele>1881</ele>
        <time>2022-07-31T09:34:23Z</time>
      </trkpt>
      <trkpt lat="46.16898" lon="6.64806">
        <ele>1881</ele>
        <time>2022-07-31T09:34:24Z</time>
      </trkpt>
      <trkpt lat="46.16898" lon="6.64806">
        <ele>1881</ele>
        <time>2022-07-31T09:34:25Z</time>
      </trkpt>
      <trkpt lat="46.16897" lon="6.64805">
        <ele>1881</ele>
        <time>2022-07-31T09:34:26Z</time>
      </trkpt>
      <trkpt lat="46.16896" lon="6.64804">
        <ele>1881</ele>
        <time>2022-07-31T09:34:27Z</time>
      </trkpt>
      <trkpt lat="46.16895" lon="6.64803">
        <ele>1881</ele>
        <time>2022-07-31T09:34:28Z</time>
      </trkpt>
      <trkpt lat="46.16894" lon="6.64802">
        <ele>1881</ele>
        <time>2022-07-31T09:34:29Z</time>
      </trkpt>
      <trkpt lat="46.16894" lon="6.64801">
        <ele>1881</ele>
        <time>2022-07-31T09:34:30Z</time>
      </trkpt>
      <trkpt lat="46.16894" lon="6.648">
        <ele>1881</ele>
        <time>2022-07-31T09:34:31Z</time>
      </trkpt>
      <trkpt lat="46.16893" lon="6.64799">
        <ele>1881</ele>
        <time>2022-07-31T09:34:32Z</time>
      </trkpt>
      <trkpt lat="46.16892" lon="6.64798">
        <ele>1881</ele>
        <time>2022-07-31T09:34:33Z</time>
      </trkpt>
      <trkpt lat="46.16891" lon="6.64796">
        <ele>1881</ele>
        <time>2022-07-31T09:34:34Z</time>
      </trkpt>
      <trkpt lat="46.16891" lon="6.64795">
        <ele>1881</ele>
        <time>2022-07-31T09:34:35Z</time>
      </trkpt>
      <trkpt lat="46.16889" lon="6.64794">
        <ele>1881</ele>
        <time>2022-07-31T09:34:36Z</time>
      </trkpt>
      <trkpt lat="46.16889" lon="6.64793">
        <ele>1881</ele>
        <time>2022-07-31T09:34:37Z</time>
      </trkpt>
      <trkpt lat="46.16888" lon="6.64792">
        <ele>1880</ele>
        <time>2022-07-31T09:34:38Z</time>
      </trkpt>
      <trkpt lat="46.16888" lon="6.6479">
        <ele>1880</ele>
        <time>2022-07-31T09:34:39Z</time>
      </trkpt>
      <trkpt lat="46.16887" lon="6.64788">
        <ele>1880</ele>
        <time>2022-07-31T09:34:40Z</time>
      </trkpt>
      <trkpt lat="46.16887" lon="6.64787">
        <ele>1880</ele>
        <time>2022-07-31T09:34:41Z</time>
      </trkpt>
      <trkpt lat="46.16887" lon="6.64785">
        <ele>1880</ele>
        <time>2022-07-31T09:34:42Z</time>
      </trkpt>
      <trkpt lat="46.16886" lon="6.64784">
        <ele>1880</ele>
        <time>2022-07-31T09:34:43Z</time>
      </trkpt>
      <trkpt lat="46.16886" lon="6.64783">
        <ele>1880</ele>
        <time>2022-07-31T09:34:44Z</time>
      </trkpt>
      <trkpt lat="46.16886" lon="6.64782">
        <ele>1880</ele>
        <time>2022-07-31T09:34:45Z</time>
      </trkpt>
      <trkpt lat="46.16885" lon="6.6478">
        <ele>1880</ele>
        <time>2022-07-31T09:34:46Z</time>
      </trkpt>
      <trkpt lat="46.16884" lon="6.64779">
        <ele>1880</ele>
        <time>2022-07-31T09:34:47Z</time>
      </trkpt>
      <trkpt lat="46.16884" lon="6.64777">
        <ele>1880</ele>
        <time>2022-07-31T09:34:48Z</time>
      </trkpt>
      <trkpt lat="46.16883" lon="6.64776">
        <ele>1879</ele>
        <time>2022-07-31T09:34:49Z</time>
      </trkpt>
      <trkpt lat="46.16882" lon="6.64774">
        <ele>1879</ele>
        <time>2022-07-31T09:34:50Z</time>
      </trkpt>
      <trkpt lat="46.16881" lon="6.64772">
        <ele>1879</ele>
        <time>2022-07-31T09:34:51Z</time>
      </trkpt>
      <trkpt lat="46.1688" lon="6.64771">
        <ele>1879</ele>
        <time>2022-07-31T09:34:52Z</time>
      </trkpt>
      <trkpt lat="46.1688" lon="6.64769">
        <ele>1879</ele>
        <time>2022-07-31T09:34:53Z</time>
      </trkpt>
      <trkpt lat="46.16879" lon="6.64767">
        <ele>1879</ele>
        <time>2022-07-31T09:34:54Z</time>
      </trkpt>
      <trkpt lat="46.16878" lon="6.64765">
        <ele>1879</ele>
        <time>2022-07-31T09:34:55Z</time>
      </trkpt>
      <trkpt lat="46.16878" lon="6.64764">
        <ele>1879</ele>
        <time>2022-07-31T09:34:56Z</time>
      </trkpt>
      <trkpt lat="46.16878" lon="6.64762">
        <ele>1879</ele>
        <time>2022-07-31T09:34:57Z</time>
      </trkpt>
      <trkpt lat="46.16878" lon="6.64761">
        <ele>1879</ele>
        <time>2022-07-31T09:34:58Z</time>
      </trkpt>
      <trkpt lat="46.16878" lon="6.64761">
        <ele>1879</ele>
        <time>2022-07-31T09:34:59Z</time>
      </trkpt>
      <trkpt lat="46.16877" lon="6.6476">
        <ele>1879</ele>
        <time>2022-07-31T09:35:00Z</time>
      </trkpt>
      <trkpt lat="46.16877" lon="6.64759">
        <ele>1879</ele>
        <time>2022-07-31T09:35:01Z</time>
      </trkpt>
      <trkpt lat="46.16876" lon="6.64758">
        <ele>1879</ele>
        <time>2022-07-31T09:35:02Z</time>
      </trkpt>
      <trkpt lat="46.16876" lon="6.64756">
        <ele>1879</ele>
        <time>2022-07-31T09:35:03Z</time>
      </trkpt>
      <trkpt lat="46.16875" lon="6.64754">
        <ele>1879</ele>
        <time>2022-07-31T09:35:04Z</time>
      </trkpt>
      <trkpt lat="46.16875" lon="6.64753">
        <ele>1879</ele>
        <time>2022-07-31T09:35:05Z</time>
      </trkpt>
      <trkpt lat="46.16875" lon="6.64752">
        <ele>1879</ele>
        <time>2022-07-31T09:35:06Z</time>
      </trkpt>
      <trkpt lat="46.16874" lon="6.64751">
        <ele>1879</ele>
        <time>2022-07-31T09:35:07Z</time>
      </trkpt>
      <trkpt lat="46.16874" lon="6.64749">
        <ele>1879</ele>
        <time>2022-07-31T09:35:08Z</time>
      </trkpt>
      <trkpt lat="46.16874" lon="6.64747">
        <ele>1879</ele>
        <time>2022-07-31T09:35:09Z</time>
      </trkpt>
      <trkpt lat="46.16873" lon="6.64744">
        <ele>1879</ele>
        <time>2022-07-31T09:35:10Z</time>
      </trkpt>
      <trkpt lat="46.16873" lon="6.64742">
        <ele>1879</ele>
        <time>2022-07-31T09:35:11Z</time>
      </trkpt>
      <trkpt lat="46.16872" lon="6.64741">
        <ele>1879</ele>
        <time>2022-07-31T09:35:12Z</time>
      </trkpt>
      <trkpt lat="46.16873" lon="6.6474">
        <ele>1879</ele>
        <time>2022-07-31T09:35:13Z</time>
      </trkpt>
      <trkpt lat="46.16872" lon="6.64738">
        <ele>1879</ele>
        <time>2022-07-31T09:35:14Z</time>
      </trkpt>
      <trkpt lat="46.16871" lon="6.64737">
        <ele>1879</ele>
        <time>2022-07-31T09:35:15Z</time>
      </trkpt>
      <trkpt lat="46.1687" lon="6.64735">
        <ele>1879</ele>
        <time>2022-07-31T09:35:16Z</time>
      </trkpt>
      <trkpt lat="46.16869" lon="6.64732">
        <ele>1879</ele>
        <time>2022-07-31T09:35:17Z</time>
      </trkpt>
      <trkpt lat="46.16868" lon="6.6473">
        <ele>1879</ele>
        <time>2022-07-31T09:35:18Z</time>
      </trkpt>
      <trkpt lat="46.16867" lon="6.64729">
        <ele>1879</ele>
        <time>2022-07-31T09:35:19Z</time>
      </trkpt>
      <trkpt lat="46.16867" lon="6.64727">
        <ele>1879</ele>
        <time>2022-07-31T09:35:20Z</time>
      </trkpt>
      <trkpt lat="46.16865" lon="6.64726">
        <ele>1879</ele>
        <time>2022-07-31T09:35:21Z</time>
      </trkpt>
      <trkpt lat="46.16865" lon="6.64725">
        <ele>1878</ele>
        <time>2022-07-31T09:35:22Z</time>
      </trkpt>
      <trkpt lat="46.16864" lon="6.64724">
        <ele>1878</ele>
        <time>2022-07-31T09:35:23Z</time>
      </trkpt>
      <trkpt lat="46.16863" lon="6.64723">
        <ele>1878</ele>
        <time>2022-07-31T09:35:24Z</time>
      </trkpt>
      <trkpt lat="46.16863" lon="6.64722">
        <ele>1878</ele>
        <time>2022-07-31T09:35:25Z</time>
      </trkpt>
      <trkpt lat="46.16862" lon="6.6472">
        <ele>1878</ele>
        <time>2022-07-31T09:35:26Z</time>
      </trkpt>
      <trkpt lat="46.16861" lon="6.64719">
        <ele>1878</ele>
        <time>2022-07-31T09:35:27Z</time>
      </trkpt>
      <trkpt lat="46.1686" lon="6.64718">
        <ele>1878</ele>
        <time>2022-07-31T09:35:28Z</time>
      </trkpt>
      <trkpt lat="46.16858" lon="6.64716">
        <ele>1878</ele>
        <time>2022-07-31T09:35:29Z</time>
      </trkpt>
      <trkpt lat="46.16857" lon="6.64715">
        <ele>1878</ele>
        <time>2022-07-31T09:35:30Z</time>
      </trkpt>
      <trkpt lat="46.16857" lon="6.64714">
        <ele>1878</ele>
        <time>2022-07-31T09:35:31Z</time>
      </trkpt>
      <trkpt lat="46.16857" lon="6.64713">
        <ele>1877</ele>
        <time>2022-07-31T09:35:32Z</time>
      </trkpt>
      <trkpt lat="46.16856" lon="6.64713">
        <ele>1877</ele>
        <time>2022-07-31T09:35:33Z</time>
      </trkpt>
      <trkpt lat="46.16856" lon="6.64712">
        <ele>1877</ele>
        <time>2022-07-31T09:35:34Z</time>
      </trkpt>
      <trkpt lat="46.16855" lon="6.64711">
        <ele>1877</ele>
        <time>2022-07-31T09:35:35Z</time>
      </trkpt>
      <trkpt lat="46.16855" lon="6.6471">
        <ele>1877</ele>
        <time>2022-07-31T09:35:36Z</time>
      </trkpt>
      <trkpt lat="46.16854" lon="6.64709">
        <ele>1876</ele>
        <time>2022-07-31T09:35:37Z</time>
      </trkpt>
      <trkpt lat="46.16852" lon="6.64708">
        <ele>1876</ele>
        <time>2022-07-31T09:35:38Z</time>
      </trkpt>
      <trkpt lat="46.1685" lon="6.64707">
        <ele>1876</ele>
        <time>2022-07-31T09:35:39Z</time>
      </trkpt>
      <trkpt lat="46.16849" lon="6.64706">
        <ele>1876</ele>
        <time>2022-07-31T09:35:40Z</time>
      </trkpt>
      <trkpt lat="46.16849" lon="6.64704">
        <ele>1876</ele>
        <time>2022-07-31T09:35:41Z</time>
      </trkpt>
      <trkpt lat="46.16848" lon="6.64703">
        <ele>1876</ele>
        <time>2022-07-31T09:35:42Z</time>
      </trkpt>
      <trkpt lat="46.16848" lon="6.64701">
        <ele>1876</ele>
        <time>2022-07-31T09:35:43Z</time>
      </trkpt>
      <trkpt lat="46.16848" lon="6.64701">
        <ele>1875</ele>
        <time>2022-07-31T09:35:44Z</time>
      </trkpt>
      <trkpt lat="46.16847" lon="6.64699">
        <ele>1875</ele>
        <time>2022-07-31T09:35:45Z</time>
      </trkpt>
      <trkpt lat="46.16847" lon="6.64698">
        <ele>1875</ele>
        <time>2022-07-31T09:35:46Z</time>
      </trkpt>
      <trkpt lat="46.16846" lon="6.64697">
        <ele>1875</ele>
        <time>2022-07-31T09:35:47Z</time>
      </trkpt>
      <trkpt lat="46.16846" lon="6.64695">
        <ele>1875</ele>
        <time>2022-07-31T09:35:48Z</time>
      </trkpt>
      <trkpt lat="46.16847" lon="6.64693">
        <ele>1875</ele>
        <time>2022-07-31T09:35:49Z</time>
      </trkpt>
      <trkpt lat="46.16847" lon="6.64692">
        <ele>1875</ele>
        <time>2022-07-31T09:35:50Z</time>
      </trkpt>
      <trkpt lat="46.16847" lon="6.64691">
        <ele>1874</ele>
        <time>2022-07-31T09:35:51Z</time>
      </trkpt>
      <trkpt lat="46.16847" lon="6.6469">
        <ele>1874</ele>
        <time>2022-07-31T09:35:52Z</time>
      </trkpt>
      <trkpt lat="46.16847" lon="6.64688">
        <ele>1874</ele>
        <time>2022-07-31T09:35:53Z</time>
      </trkpt>
      <trkpt lat="46.16847" lon="6.64687">
        <ele>1874</ele>
        <time>2022-07-31T09:35:54Z</time>
      </trkpt>
      <trkpt lat="46.16847" lon="6.64684">
        <ele>1874</ele>
        <time>2022-07-31T09:35:55Z</time>
      </trkpt>
      <trkpt lat="46.16847" lon="6.64682">
        <ele>1874</ele>
        <time>2022-07-31T09:35:56Z</time>
      </trkpt>
      <trkpt lat="46.16847" lon="6.6468">
        <ele>1873</ele>
        <time>2022-07-31T09:35:57Z</time>
      </trkpt>
      <trkpt lat="46.16846" lon="6.64678">
        <ele>1873</ele>
        <time>2022-07-31T09:35:58Z</time>
      </trkpt>
      <trkpt lat="46.16846" lon="6.64677">
        <ele>1873</ele>
        <time>2022-07-31T09:35:59Z</time>
      </trkpt>
      <trkpt lat="46.16845" lon="6.64676">
        <ele>1873</ele>
        <time>2022-07-31T09:36:00Z</time>
      </trkpt>
      <trkpt lat="46.16843" lon="6.64674">
        <ele>1873</ele>
        <time>2022-07-31T09:36:01Z</time>
      </trkpt>
      <trkpt lat="46.16842" lon="6.64673">
        <ele>1873</ele>
        <time>2022-07-31T09:36:02Z</time>
      </trkpt>
      <trkpt lat="46.16841" lon="6.64672">
        <ele>1873</ele>
        <time>2022-07-31T09:36:03Z</time>
      </trkpt>
      <trkpt lat="46.1684" lon="6.64671">
        <ele>1873</ele>
        <time>2022-07-31T09:36:04Z</time>
      </trkpt>
      <trkpt lat="46.16839" lon="6.6467">
        <ele>1872</ele>
        <time>2022-07-31T09:36:05Z</time>
      </trkpt>
      <trkpt lat="46.16839" lon="6.64669">
        <ele>1872</ele>
        <time>2022-07-31T09:36:06Z</time>
      </trkpt>
      <trkpt lat="46.16838" lon="6.64669">
        <ele>1872</ele>
        <time>2022-07-31T09:36:07Z</time>
      </trkpt>
      <trkpt lat="46.16838" lon="6.64669">
        <ele>1872</ele>
        <time>2022-07-31T09:36:08Z</time>
      </trkpt>
      <trkpt lat="46.16838" lon="6.64669">
        <ele>1872</ele>
        <time>2022-07-31T09:36:09Z</time>
      </trkpt>
      <trkpt lat="46.16837" lon="6.64668">
        <ele>1872</ele>
        <time>2022-07-31T09:36:10Z</time>
      </trkpt>
      <trkpt lat="46.16836" lon="6.64668">
        <ele>1872</ele>
        <time>2022-07-31T09:36:11Z</time>
      </trkpt>
      <trkpt lat="46.16834" lon="6.64668">
        <ele>1872</ele>
        <time>2022-07-31T09:36:12Z</time>
      </trkpt>
      <trkpt lat="46.16833" lon="6.64666">
        <ele>1872</ele>
        <time>2022-07-31T09:36:13Z</time>
      </trkpt>
      <trkpt lat="46.16831" lon="6.64665">
        <ele>1872</ele>
        <time>2022-07-31T09:36:14Z</time>
      </trkpt>
      <trkpt lat="46.1683" lon="6.64664">
        <ele>1872</ele>
        <time>2022-07-31T09:36:15Z</time>
      </trkpt>
      <trkpt lat="46.16828" lon="6.64664">
        <ele>1871</ele>
        <time>2022-07-31T09:36:16Z</time>
      </trkpt>
      <trkpt lat="46.16827" lon="6.64663">
        <ele>1871</ele>
        <time>2022-07-31T09:36:17Z</time>
      </trkpt>
      <trkpt lat="46.16825" lon="6.64663">
        <ele>1871</ele>
        <time>2022-07-31T09:36:18Z</time>
      </trkpt>
      <trkpt lat="46.16824" lon="6.64662">
        <ele>1871</ele>
        <time>2022-07-31T09:36:19Z</time>
      </trkpt>
      <trkpt lat="46.16823" lon="6.64661">
        <ele>1871</ele>
        <time>2022-07-31T09:36:20Z</time>
      </trkpt>
      <trkpt lat="46.16821" lon="6.64661">
        <ele>1871</ele>
        <time>2022-07-31T09:36:21Z</time>
      </trkpt>
      <trkpt lat="46.1682" lon="6.6466">
        <ele>1871</ele>
        <time>2022-07-31T09:36:22Z</time>
      </trkpt>
      <trkpt lat="46.1682" lon="6.6466">
        <ele>1871</ele>
        <time>2022-07-31T09:36:23Z</time>
      </trkpt>
      <trkpt lat="46.16818" lon="6.64659">
        <ele>1871</ele>
        <time>2022-07-31T09:36:24Z</time>
      </trkpt>
      <trkpt lat="46.16818" lon="6.64659">
        <ele>1871</ele>
        <time>2022-07-31T09:36:25Z</time>
      </trkpt>
      <trkpt lat="46.16817" lon="6.64657">
        <ele>1870</ele>
        <time>2022-07-31T09:36:26Z</time>
      </trkpt>
      <trkpt lat="46.16817" lon="6.64656">
        <ele>1870</ele>
        <time>2022-07-31T09:36:27Z</time>
      </trkpt>
      <trkpt lat="46.16816" lon="6.64656">
        <ele>1870</ele>
        <time>2022-07-31T09:36:28Z</time>
      </trkpt>
      <trkpt lat="46.16815" lon="6.64655">
        <ele>1870</ele>
        <time>2022-07-31T09:36:29Z</time>
      </trkpt>
      <trkpt lat="46.16814" lon="6.64654">
        <ele>1870</ele>
        <time>2022-07-31T09:36:30Z</time>
      </trkpt>
      <trkpt lat="46.16813" lon="6.64654">
        <ele>1870</ele>
        <time>2022-07-31T09:36:31Z</time>
      </trkpt>
      <trkpt lat="46.16812" lon="6.64653">
        <ele>1870</ele>
        <time>2022-07-31T09:36:32Z</time>
      </trkpt>
      <trkpt lat="46.16811" lon="6.64652">
        <ele>1870</ele>
        <time>2022-07-31T09:36:33Z</time>
      </trkpt>
      <trkpt lat="46.1681" lon="6.6465">
        <ele>1870</ele>
        <time>2022-07-31T09:36:34Z</time>
      </trkpt>
      <trkpt lat="46.1681" lon="6.6465">
        <ele>1870</ele>
        <time>2022-07-31T09:36:35Z</time>
      </trkpt>
      <trkpt lat="46.1681" lon="6.6465">
        <ele>1870</ele>
        <time>2022-07-31T09:36:36Z</time>
      </trkpt>
      <trkpt lat="46.16809" lon="6.64649">
        <ele>1870</ele>
        <time>2022-07-31T09:36:37Z</time>
      </trkpt>
      <trkpt lat="46.16809" lon="6.64649">
        <ele>1870</ele>
        <time>2022-07-31T09:36:38Z</time>
      </trkpt>
      <trkpt lat="46.16809" lon="6.64649">
        <ele>1869</ele>
        <time>2022-07-31T09:36:39Z</time>
      </trkpt>
      <trkpt lat="46.16808" lon="6.64647">
        <ele>1869</ele>
        <time>2022-07-31T09:36:40Z</time>
      </trkpt>
      <trkpt lat="46.16806" lon="6.64646">
        <ele>1869</ele>
        <time>2022-07-31T09:36:41Z</time>
      </trkpt>
      <trkpt lat="46.16806" lon="6.64645">
        <ele>1869</ele>
        <time>2022-07-31T09:36:42Z</time>
      </trkpt>
      <trkpt lat="46.16805" lon="6.64644">
        <ele>1869</ele>
        <time>2022-07-31T09:36:43Z</time>
      </trkpt>
      <trkpt lat="46.16805" lon="6.64643">
        <ele>1868</ele>
        <time>2022-07-31T09:36:44Z</time>
      </trkpt>
      <trkpt lat="46.16803" lon="6.64641">
        <ele>1868</ele>
        <time>2022-07-31T09:36:45Z</time>
      </trkpt>
      <trkpt lat="46.16803" lon="6.64639">
        <ele>1868</ele>
        <time>2022-07-31T09:36:46Z</time>
      </trkpt>
      <trkpt lat="46.16802" lon="6.64637">
        <ele>1868</ele>
        <time>2022-07-31T09:36:47Z</time>
      </trkpt>
      <trkpt lat="46.16802" lon="6.64636">
        <ele>1868</ele>
        <time>2022-07-31T09:36:48Z</time>
      </trkpt>
      <trkpt lat="46.16802" lon="6.64635">
        <ele>1868</ele>
        <time>2022-07-31T09:36:49Z</time>
      </trkpt>
      <trkpt lat="46.16801" lon="6.64633">
        <ele>1868</ele>
        <time>2022-07-31T09:36:50Z</time>
      </trkpt>
      <trkpt lat="46.16799" lon="6.64631">
        <ele>1868</ele>
        <time>2022-07-31T09:36:51Z</time>
      </trkpt>
      <trkpt lat="46.16798" lon="6.6463">
        <ele>1868</ele>
        <time>2022-07-31T09:36:52Z</time>
      </trkpt>
      <trkpt lat="46.16797" lon="6.6463">
        <ele>1868</ele>
        <time>2022-07-31T09:36:53Z</time>
      </trkpt>
      <trkpt lat="46.16797" lon="6.6463">
        <ele>1868</ele>
        <time>2022-07-31T09:36:54Z</time>
      </trkpt>
      <trkpt lat="46.16796" lon="6.6463">
        <ele>1867</ele>
        <time>2022-07-31T09:36:55Z</time>
      </trkpt>
      <trkpt lat="46.16795" lon="6.64629">
        <ele>1867</ele>
        <time>2022-07-31T09:36:56Z</time>
      </trkpt>
      <trkpt lat="46.16793" lon="6.64629">
        <ele>1867</ele>
        <time>2022-07-31T09:36:57Z</time>
      </trkpt>
      <trkpt lat="46.16792" lon="6.64628">
        <ele>1867</ele>
        <time>2022-07-31T09:36:58Z</time>
      </trkpt>
      <trkpt lat="46.1679" lon="6.64627">
        <ele>1867</ele>
        <time>2022-07-31T09:36:59Z</time>
      </trkpt>
      <trkpt lat="46.1679" lon="6.64625">
        <ele>1866</ele>
        <time>2022-07-31T09:37:00Z</time>
      </trkpt>
      <trkpt lat="46.16789" lon="6.64624">
        <ele>1866</ele>
        <time>2022-07-31T09:37:01Z</time>
      </trkpt>
      <trkpt lat="46.16788" lon="6.64622">
        <ele>1866</ele>
        <time>2022-07-31T09:37:02Z</time>
      </trkpt>
      <trkpt lat="46.16788" lon="6.64621">
        <ele>1866</ele>
        <time>2022-07-31T09:37:03Z</time>
      </trkpt>
      <trkpt lat="46.16788" lon="6.6462">
        <ele>1865</ele>
        <time>2022-07-31T09:37:04Z</time>
      </trkpt>
      <trkpt lat="46.16787" lon="6.64619">
        <ele>1865</ele>
        <time>2022-07-31T09:37:05Z</time>
      </trkpt>
      <trkpt lat="46.16786" lon="6.64619">
        <ele>1865</ele>
        <time>2022-07-31T09:37:06Z</time>
      </trkpt>
      <trkpt lat="46.16785" lon="6.64618">
        <ele>1865</ele>
        <time>2022-07-31T09:37:07Z</time>
      </trkpt>
      <trkpt lat="46.16783" lon="6.64617">
        <ele>1864</ele>
        <time>2022-07-31T09:37:08Z</time>
      </trkpt>
      <trkpt lat="46.16783" lon="6.64616">
        <ele>1864</ele>
        <time>2022-07-31T09:37:09Z</time>
      </trkpt>
      <trkpt lat="46.16782" lon="6.64615">
        <ele>1864</ele>
        <time>2022-07-31T09:37:10Z</time>
      </trkpt>
      <trkpt lat="46.16781" lon="6.64615">
        <ele>1864</ele>
        <time>2022-07-31T09:37:11Z</time>
      </trkpt>
      <trkpt lat="46.16781" lon="6.64614">
        <ele>1864</ele>
        <time>2022-07-31T09:37:12Z</time>
      </trkpt>
      <trkpt lat="46.1678" lon="6.64613">
        <ele>1864</ele>
        <time>2022-07-31T09:37:13Z</time>
      </trkpt>
      <trkpt lat="46.1678" lon="6.64612">
        <ele>1863</ele>
        <time>2022-07-31T09:37:14Z</time>
      </trkpt>
      <trkpt lat="46.16779" lon="6.64611">
        <ele>1863</ele>
        <time>2022-07-31T09:37:15Z</time>
      </trkpt>
      <trkpt lat="46.16777" lon="6.64609">
        <ele>1863</ele>
        <time>2022-07-31T09:37:16Z</time>
      </trkpt>
      <trkpt lat="46.16775" lon="6.64608">
        <ele>1863</ele>
        <time>2022-07-31T09:37:17Z</time>
      </trkpt>
      <trkpt lat="46.16774" lon="6.64607">
        <ele>1863</ele>
        <time>2022-07-31T09:37:18Z</time>
      </trkpt>
      <trkpt lat="46.16773" lon="6.64605">
        <ele>1863</ele>
        <time>2022-07-31T09:37:19Z</time>
      </trkpt>
      <trkpt lat="46.16773" lon="6.64604">
        <ele>1863</ele>
        <time>2022-07-31T09:37:20Z</time>
      </trkpt>
      <trkpt lat="46.16772" lon="6.64603">
        <ele>1863</ele>
        <time>2022-07-31T09:37:21Z</time>
      </trkpt>
      <trkpt lat="46.16771" lon="6.64603">
        <ele>1863</ele>
        <time>2022-07-31T09:37:22Z</time>
      </trkpt>
      <trkpt lat="46.16769" lon="6.64602">
        <ele>1863</ele>
        <time>2022-07-31T09:37:23Z</time>
      </trkpt>
      <trkpt lat="46.16768" lon="6.64601">
        <ele>1863</ele>
        <time>2022-07-31T09:37:24Z</time>
      </trkpt>
      <trkpt lat="46.16768" lon="6.646">
        <ele>1863</ele>
        <time>2022-07-31T09:37:25Z</time>
      </trkpt>
      <trkpt lat="46.16766" lon="6.64598">
        <ele>1863</ele>
        <time>2022-07-31T09:37:26Z</time>
      </trkpt>
      <trkpt lat="46.16765" lon="6.64597">
        <ele>1863</ele>
        <time>2022-07-31T09:37:27Z</time>
      </trkpt>
      <trkpt lat="46.16764" lon="6.64596">
        <ele>1863</ele>
        <time>2022-07-31T09:37:28Z</time>
      </trkpt>
      <trkpt lat="46.16763" lon="6.64595">
        <ele>1863</ele>
        <time>2022-07-31T09:37:29Z</time>
      </trkpt>
      <trkpt lat="46.16762" lon="6.64594">
        <ele>1863</ele>
        <time>2022-07-31T09:37:30Z</time>
      </trkpt>
      <trkpt lat="46.16761" lon="6.64592">
        <ele>1863</ele>
        <time>2022-07-31T09:37:31Z</time>
      </trkpt>
      <trkpt lat="46.16759" lon="6.64591">
        <ele>1862</ele>
        <time>2022-07-31T09:37:32Z</time>
      </trkpt>
      <trkpt lat="46.16758" lon="6.6459">
        <ele>1862</ele>
        <time>2022-07-31T09:37:33Z</time>
      </trkpt>
      <trkpt lat="46.16757" lon="6.64589">
        <ele>1862</ele>
        <time>2022-07-31T09:37:34Z</time>
      </trkpt>
      <trkpt lat="46.16756" lon="6.64588">
        <ele>1862</ele>
        <time>2022-07-31T09:37:35Z</time>
      </trkpt>
      <trkpt lat="46.16755" lon="6.64587">
        <ele>1862</ele>
        <time>2022-07-31T09:37:36Z</time>
      </trkpt>
      <trkpt lat="46.16754" lon="6.64586">
        <ele>1861</ele>
        <time>2022-07-31T09:37:37Z</time>
      </trkpt>
      <trkpt lat="46.16752" lon="6.64585">
        <ele>1861</ele>
        <time>2022-07-31T09:37:38Z</time>
      </trkpt>
      <trkpt lat="46.16751" lon="6.64584">
        <ele>1861</ele>
        <time>2022-07-31T09:37:39Z</time>
      </trkpt>
      <trkpt lat="46.16749" lon="6.64583">
        <ele>1861</ele>
        <time>2022-07-31T09:37:40Z</time>
      </trkpt>
      <trkpt lat="46.16749" lon="6.64582">
        <ele>1860</ele>
        <time>2022-07-31T09:37:41Z</time>
      </trkpt>
      <trkpt lat="46.16749" lon="6.64582">
        <ele>1860</ele>
        <time>2022-07-31T09:37:42Z</time>
      </trkpt>
      <trkpt lat="46.16748" lon="6.64581">
        <ele>1860</ele>
        <time>2022-07-31T09:37:43Z</time>
      </trkpt>
      <trkpt lat="46.16747" lon="6.64581">
        <ele>1860</ele>
        <time>2022-07-31T09:37:44Z</time>
      </trkpt>
      <trkpt lat="46.16746" lon="6.64579">
        <ele>1859</ele>
        <time>2022-07-31T09:37:45Z</time>
      </trkpt>
      <trkpt lat="46.16745" lon="6.64578">
        <ele>1859</ele>
        <time>2022-07-31T09:37:46Z</time>
      </trkpt>
      <trkpt lat="46.16744" lon="6.64576">
        <ele>1859</ele>
        <time>2022-07-31T09:37:47Z</time>
      </trkpt>
      <trkpt lat="46.16743" lon="6.64574">
        <ele>1859</ele>
        <time>2022-07-31T09:37:48Z</time>
      </trkpt>
      <trkpt lat="46.16743" lon="6.64573">
        <ele>1858</ele>
        <time>2022-07-31T09:37:49Z</time>
      </trkpt>
      <trkpt lat="46.16742" lon="6.64572">
        <ele>1858</ele>
        <time>2022-07-31T09:37:50Z</time>
      </trkpt>
      <trkpt lat="46.16742" lon="6.64571">
        <ele>1858</ele>
        <time>2022-07-31T09:37:51Z</time>
      </trkpt>
      <trkpt lat="46.16742" lon="6.6457">
        <ele>1858</ele>
        <time>2022-07-31T09:37:52Z</time>
      </trkpt>
      <trkpt lat="46.16742" lon="6.6457">
        <ele>1858</ele>
        <time>2022-07-31T09:37:53Z</time>
      </trkpt>
      <trkpt lat="46.16742" lon="6.64569">
        <ele>1858</ele>
        <time>2022-07-31T09:37:54Z</time>
      </trkpt>
      <trkpt lat="46.16741" lon="6.64568">
        <ele>1858</ele>
        <time>2022-07-31T09:37:55Z</time>
      </trkpt>
      <trkpt lat="46.16741" lon="6.64568">
        <ele>1857</ele>
        <time>2022-07-31T09:37:56Z</time>
      </trkpt>
      <trkpt lat="46.16742" lon="6.64568">
        <ele>1857</ele>
        <time>2022-07-31T09:37:57Z</time>
      </trkpt>
      <trkpt lat="46.16742" lon="6.64568">
        <ele>1857</ele>
        <time>2022-07-31T09:37:58Z</time>
      </trkpt>
      <trkpt lat="46.16742" lon="6.64568">
        <ele>1857</ele>
        <time>2022-07-31T09:37:59Z</time>
      </trkpt>
      <trkpt lat="46.16742" lon="6.64568">
        <ele>1857</ele>
        <time>2022-07-31T09:38:00Z</time>
      </trkpt>
      <trkpt lat="46.1674" lon="6.64566">
        <ele>1857</ele>
        <time>2022-07-31T09:38:01Z</time>
      </trkpt>
      <trkpt lat="46.1674" lon="6.64564">
        <ele>1857</ele>
        <time>2022-07-31T09:38:02Z</time>
      </trkpt>
      <trkpt lat="46.16739" lon="6.64563">
        <ele>1857</ele>
        <time>2022-07-31T09:38:03Z</time>
      </trkpt>
      <trkpt lat="46.16738" lon="6.64561">
        <ele>1857</ele>
        <time>2022-07-31T09:38:04Z</time>
      </trkpt>
      <trkpt lat="46.16737" lon="6.64559">
        <ele>1857</ele>
        <time>2022-07-31T09:38:05Z</time>
      </trkpt>
      <trkpt lat="46.16736" lon="6.64557">
        <ele>1856</ele>
        <time>2022-07-31T09:38:06Z</time>
      </trkpt>
      <trkpt lat="46.16735" lon="6.64556">
        <ele>1856</ele>
        <time>2022-07-31T09:38:07Z</time>
      </trkpt>
      <trkpt lat="46.16735" lon="6.64555">
        <ele>1856</ele>
        <time>2022-07-31T09:38:08Z</time>
      </trkpt>
      <trkpt lat="46.16733" lon="6.64554">
        <ele>1856</ele>
        <time>2022-07-31T09:38:09Z</time>
      </trkpt>
      <trkpt lat="46.16732" lon="6.64553">
        <ele>1856</ele>
        <time>2022-07-31T09:38:10Z</time>
      </trkpt>
      <trkpt lat="46.1673" lon="6.64553">
        <ele>1856</ele>
        <time>2022-07-31T09:38:11Z</time>
      </trkpt>
      <trkpt lat="46.16729" lon="6.64553">
        <ele>1856</ele>
        <time>2022-07-31T09:38:12Z</time>
      </trkpt>
      <trkpt lat="46.16728" lon="6.64552">
        <ele>1856</ele>
        <time>2022-07-31T09:38:13Z</time>
      </trkpt>
      <trkpt lat="46.16728" lon="6.64551">
        <ele>1856</ele>
        <time>2022-07-31T09:38:14Z</time>
      </trkpt>
      <trkpt lat="46.16727" lon="6.6455">
        <ele>1855</ele>
        <time>2022-07-31T09:38:15Z</time>
      </trkpt>
      <trkpt lat="46.16726" lon="6.64548">
        <ele>1855</ele>
        <time>2022-07-31T09:38:16Z</time>
      </trkpt>
      <trkpt lat="46.16725" lon="6.64547">
        <ele>1855</ele>
        <time>2022-07-31T09:38:17Z</time>
      </trkpt>
      <trkpt lat="46.16724" lon="6.64546">
        <ele>1855</ele>
        <time>2022-07-31T09:38:18Z</time>
      </trkpt>
      <trkpt lat="46.16724" lon="6.64545">
        <ele>1855</ele>
        <time>2022-07-31T09:38:19Z</time>
      </trkpt>
      <trkpt lat="46.16723" lon="6.64544">
        <ele>1854</ele>
        <time>2022-07-31T09:38:20Z</time>
      </trkpt>
      <trkpt lat="46.16723" lon="6.64544">
        <ele>1854</ele>
        <time>2022-07-31T09:38:21Z</time>
      </trkpt>
      <trkpt lat="46.16722" lon="6.64542">
        <ele>1854</ele>
        <time>2022-07-31T09:38:22Z</time>
      </trkpt>
      <trkpt lat="46.16722" lon="6.64542">
        <ele>1854</ele>
        <time>2022-07-31T09:38:23Z</time>
      </trkpt>
      <trkpt lat="46.16721" lon="6.64541">
        <ele>1854</ele>
        <time>2022-07-31T09:38:24Z</time>
      </trkpt>
      <trkpt lat="46.1672" lon="6.64541">
        <ele>1854</ele>
        <time>2022-07-31T09:38:25Z</time>
      </trkpt>
      <trkpt lat="46.16719" lon="6.6454">
        <ele>1853</ele>
        <time>2022-07-31T09:38:26Z</time>
      </trkpt>
      <trkpt lat="46.16718" lon="6.64538">
        <ele>1853</ele>
        <time>2022-07-31T09:38:27Z</time>
      </trkpt>
      <trkpt lat="46.16717" lon="6.64538">
        <ele>1853</ele>
        <time>2022-07-31T09:38:28Z</time>
      </trkpt>
      <trkpt lat="46.16716" lon="6.64536">
        <ele>1853</ele>
        <time>2022-07-31T09:38:29Z</time>
      </trkpt>
      <trkpt lat="46.16715" lon="6.64535">
        <ele>1853</ele>
        <time>2022-07-31T09:38:30Z</time>
      </trkpt>
      <trkpt lat="46.16715" lon="6.64534">
        <ele>1853</ele>
        <time>2022-07-31T09:38:31Z</time>
      </trkpt>
      <trkpt lat="46.16714" lon="6.64533">
        <ele>1852</ele>
        <time>2022-07-31T09:38:32Z</time>
      </trkpt>
      <trkpt lat="46.16713" lon="6.64532">
        <ele>1852</ele>
        <time>2022-07-31T09:38:33Z</time>
      </trkpt>
      <trkpt lat="46.16713" lon="6.6453">
        <ele>1852</ele>
        <time>2022-07-31T09:38:34Z</time>
      </trkpt>
      <trkpt lat="46.16711" lon="6.64528">
        <ele>1852</ele>
        <time>2022-07-31T09:38:35Z</time>
      </trkpt>
      <trkpt lat="46.1671" lon="6.64527">
        <ele>1852</ele>
        <time>2022-07-31T09:38:36Z</time>
      </trkpt>
      <trkpt lat="46.1671" lon="6.64526">
        <ele>1852</ele>
        <time>2022-07-31T09:38:37Z</time>
      </trkpt>
      <trkpt lat="46.16709" lon="6.64525">
        <ele>1852</ele>
        <time>2022-07-31T09:38:38Z</time>
      </trkpt>
      <trkpt lat="46.16708" lon="6.64524">
        <ele>1852</ele>
        <time>2022-07-31T09:38:39Z</time>
      </trkpt>
      <trkpt lat="46.16707" lon="6.64523">
        <ele>1852</ele>
        <time>2022-07-31T09:38:40Z</time>
      </trkpt>
      <trkpt lat="46.16706" lon="6.64521">
        <ele>1851</ele>
        <time>2022-07-31T09:38:41Z</time>
      </trkpt>
      <trkpt lat="46.16706" lon="6.64519">
        <ele>1851</ele>
        <time>2022-07-31T09:38:42Z</time>
      </trkpt>
      <trkpt lat="46.16705" lon="6.64517">
        <ele>1851</ele>
        <time>2022-07-31T09:38:43Z</time>
      </trkpt>
      <trkpt lat="46.16703" lon="6.64516">
        <ele>1851</ele>
        <time>2022-07-31T09:38:44Z</time>
      </trkpt>
      <trkpt lat="46.16702" lon="6.64515">
        <ele>1851</ele>
        <time>2022-07-31T09:38:45Z</time>
      </trkpt>
      <trkpt lat="46.16702" lon="6.64514">
        <ele>1851</ele>
        <time>2022-07-31T09:38:46Z</time>
      </trkpt>
      <trkpt lat="46.16702" lon="6.64512">
        <ele>1851</ele>
        <time>2022-07-31T09:38:47Z</time>
      </trkpt>
      <trkpt lat="46.16701" lon="6.64511">
        <ele>1851</ele>
        <time>2022-07-31T09:38:48Z</time>
      </trkpt>
      <trkpt lat="46.167" lon="6.6451">
        <ele>1851</ele>
        <time>2022-07-31T09:38:49Z</time>
      </trkpt>
      <trkpt lat="46.16699" lon="6.64508">
        <ele>1851</ele>
        <time>2022-07-31T09:38:50Z</time>
      </trkpt>
      <trkpt lat="46.16698" lon="6.64508">
        <ele>1851</ele>
        <time>2022-07-31T09:38:51Z</time>
      </trkpt>
      <trkpt lat="46.16698" lon="6.64506">
        <ele>1851</ele>
        <time>2022-07-31T09:38:52Z</time>
      </trkpt>
      <trkpt lat="46.16698" lon="6.64505">
        <ele>1851</ele>
        <time>2022-07-31T09:38:53Z</time>
      </trkpt>
      <trkpt lat="46.16698" lon="6.64504">
        <ele>1851</ele>
        <time>2022-07-31T09:38:54Z</time>
      </trkpt>
      <trkpt lat="46.16697" lon="6.64503">
        <ele>1851</ele>
        <time>2022-07-31T09:38:55Z</time>
      </trkpt>
      <trkpt lat="46.16696" lon="6.64502">
        <ele>1851</ele>
        <time>2022-07-31T09:38:56Z</time>
      </trkpt>
      <trkpt lat="46.16696" lon="6.64501">
        <ele>1850</ele>
        <time>2022-07-31T09:38:57Z</time>
      </trkpt>
      <trkpt lat="46.16694" lon="6.64499">
        <ele>1850</ele>
        <time>2022-07-31T09:38:58Z</time>
      </trkpt>
      <trkpt lat="46.16694" lon="6.64497">
        <ele>1850</ele>
        <time>2022-07-31T09:38:59Z</time>
      </trkpt>
      <trkpt lat="46.16693" lon="6.64496">
        <ele>1850</ele>
        <time>2022-07-31T09:39:00Z</time>
      </trkpt>
      <trkpt lat="46.16691" lon="6.64494">
        <ele>1850</ele>
        <time>2022-07-31T09:39:01Z</time>
      </trkpt>
      <trkpt lat="46.16691" lon="6.64493">
        <ele>1850</ele>
        <time>2022-07-31T09:39:02Z</time>
      </trkpt>
      <trkpt lat="46.1669" lon="6.64492">
        <ele>1849</ele>
        <time>2022-07-31T09:39:03Z</time>
      </trkpt>
      <trkpt lat="46.1669" lon="6.64491">
        <ele>1849</ele>
        <time>2022-07-31T09:39:04Z</time>
      </trkpt>
      <trkpt lat="46.16688" lon="6.6449">
        <ele>1849</ele>
        <time>2022-07-31T09:39:05Z</time>
      </trkpt>
      <trkpt lat="46.16687" lon="6.64489">
        <ele>1849</ele>
        <time>2022-07-31T09:39:06Z</time>
      </trkpt>
      <trkpt lat="46.16686" lon="6.64488">
        <ele>1849</ele>
        <time>2022-07-31T09:39:07Z</time>
      </trkpt>
      <trkpt lat="46.16685" lon="6.64486">
        <ele>1849</ele>
        <time>2022-07-31T09:39:08Z</time>
      </trkpt>
      <trkpt lat="46.16685" lon="6.64485">
        <ele>1848</ele>
        <time>2022-07-31T09:39:09Z</time>
      </trkpt>
      <trkpt lat="46.16684" lon="6.64484">
        <ele>1848</ele>
        <time>2022-07-31T09:39:10Z</time>
      </trkpt>
      <trkpt lat="46.16683" lon="6.64483">
        <ele>1848</ele>
        <time>2022-07-31T09:39:11Z</time>
      </trkpt>
      <trkpt lat="46.16683" lon="6.64482">
        <ele>1848</ele>
        <time>2022-07-31T09:39:12Z</time>
      </trkpt>
      <trkpt lat="46.16683" lon="6.64481">
        <ele>1848</ele>
        <time>2022-07-31T09:39:13Z</time>
      </trkpt>
      <trkpt lat="46.16682" lon="6.6448">
        <ele>1848</ele>
        <time>2022-07-31T09:39:14Z</time>
      </trkpt>
      <trkpt lat="46.16681" lon="6.64479">
        <ele>1848</ele>
        <time>2022-07-31T09:39:15Z</time>
      </trkpt>
      <trkpt lat="46.1668" lon="6.64477">
        <ele>1848</ele>
        <time>2022-07-31T09:39:16Z</time>
      </trkpt>
      <trkpt lat="46.16679" lon="6.64476">
        <ele>1848</ele>
        <time>2022-07-31T09:39:17Z</time>
      </trkpt>
      <trkpt lat="46.16678" lon="6.64475">
        <ele>1848</ele>
        <time>2022-07-31T09:39:18Z</time>
      </trkpt>
      <trkpt lat="46.16678" lon="6.64474">
        <ele>1848</ele>
        <time>2022-07-31T09:39:19Z</time>
      </trkpt>
      <trkpt lat="46.16677" lon="6.64473">
        <ele>1848</ele>
        <time>2022-07-31T09:39:20Z</time>
      </trkpt>
      <trkpt lat="46.16676" lon="6.64472">
        <ele>1848</ele>
        <time>2022-07-31T09:39:21Z</time>
      </trkpt>
      <trkpt lat="46.16674" lon="6.6447">
        <ele>1848</ele>
        <time>2022-07-31T09:39:22Z</time>
      </trkpt>
      <trkpt lat="46.16674" lon="6.64469">
        <ele>1848</ele>
        <time>2022-07-31T09:39:23Z</time>
      </trkpt>
      <trkpt lat="46.16673" lon="6.64468">
        <ele>1848</ele>
        <time>2022-07-31T09:39:24Z</time>
      </trkpt>
      <trkpt lat="46.16672" lon="6.64467">
        <ele>1848</ele>
        <time>2022-07-31T09:39:25Z</time>
      </trkpt>
      <trkpt lat="46.16671" lon="6.64466">
        <ele>1848</ele>
        <time>2022-07-31T09:39:26Z</time>
      </trkpt>
      <trkpt lat="46.1667" lon="6.64465">
        <ele>1848</ele>
        <time>2022-07-31T09:39:27Z</time>
      </trkpt>
      <trkpt lat="46.16669" lon="6.64463">
        <ele>1848</ele>
        <time>2022-07-31T09:39:28Z</time>
      </trkpt>
      <trkpt lat="46.16668" lon="6.64462">
        <ele>1847</ele>
        <time>2022-07-31T09:39:29Z</time>
      </trkpt>
      <trkpt lat="46.16666" lon="6.64462">
        <ele>1847</ele>
        <time>2022-07-31T09:39:30Z</time>
      </trkpt>
      <trkpt lat="46.16665" lon="6.6446">
        <ele>1847</ele>
        <time>2022-07-31T09:39:31Z</time>
      </trkpt>
      <trkpt lat="46.16664" lon="6.64459">
        <ele>1847</ele>
        <time>2022-07-31T09:39:32Z</time>
      </trkpt>
      <trkpt lat="46.16663" lon="6.64458">
        <ele>1847</ele>
        <time>2022-07-31T09:39:33Z</time>
      </trkpt>
      <trkpt lat="46.16662" lon="6.64457">
        <ele>1847</ele>
        <time>2022-07-31T09:39:34Z</time>
      </trkpt>
      <trkpt lat="46.16662" lon="6.64456">
        <ele>1846</ele>
        <time>2022-07-31T09:39:35Z</time>
      </trkpt>
      <trkpt lat="46.16661" lon="6.64454">
        <ele>1846</ele>
        <time>2022-07-31T09:39:36Z</time>
      </trkpt>
      <trkpt lat="46.1666" lon="6.64453">
        <ele>1846</ele>
        <time>2022-07-31T09:39:37Z</time>
      </trkpt>
      <trkpt lat="46.16659" lon="6.64451">
        <ele>1846</ele>
        <time>2022-07-31T09:39:38Z</time>
      </trkpt>
      <trkpt lat="46.16659" lon="6.64449">
        <ele>1846</ele>
        <time>2022-07-31T09:39:39Z</time>
      </trkpt>
      <trkpt lat="46.16658" lon="6.64448">
        <ele>1846</ele>
        <time>2022-07-31T09:39:40Z</time>
      </trkpt>
      <trkpt lat="46.16657" lon="6.64446">
        <ele>1845</ele>
        <time>2022-07-31T09:39:41Z</time>
      </trkpt>
      <trkpt lat="46.16656" lon="6.64444">
        <ele>1845</ele>
        <time>2022-07-31T09:39:42Z</time>
      </trkpt>
      <trkpt lat="46.16656" lon="6.64443">
        <ele>1845</ele>
        <time>2022-07-31T09:39:43Z</time>
      </trkpt>
      <trkpt lat="46.16655" lon="6.64442">
        <ele>1844</ele>
        <time>2022-07-31T09:39:44Z</time>
      </trkpt>
      <trkpt lat="46.16655" lon="6.64439">
        <ele>1844</ele>
        <time>2022-07-31T09:39:45Z</time>
      </trkpt>
      <trkpt lat="46.16654" lon="6.64437">
        <ele>1844</ele>
        <time>2022-07-31T09:39:46Z</time>
      </trkpt>
      <trkpt lat="46.16652" lon="6.64436">
        <ele>1844</ele>
        <time>2022-07-31T09:39:47Z</time>
      </trkpt>
      <trkpt lat="46.16651" lon="6.64435">
        <ele>1843</ele>
        <time>2022-07-31T09:39:48Z</time>
      </trkpt>
      <trkpt lat="46.1665" lon="6.64434">
        <ele>1843</ele>
        <time>2022-07-31T09:39:49Z</time>
      </trkpt>
      <trkpt lat="46.16649" lon="6.64433">
        <ele>1843</ele>
        <time>2022-07-31T09:39:50Z</time>
      </trkpt>
      <trkpt lat="46.16647" lon="6.64431">
        <ele>1843</ele>
        <time>2022-07-31T09:39:51Z</time>
      </trkpt>
      <trkpt lat="46.16646" lon="6.6443">
        <ele>1843</ele>
        <time>2022-07-31T09:39:52Z</time>
      </trkpt>
      <trkpt lat="46.16644" lon="6.64429">
        <ele>1842</ele>
        <time>2022-07-31T09:39:53Z</time>
      </trkpt>
      <trkpt lat="46.16643" lon="6.64428">
        <ele>1842</ele>
        <time>2022-07-31T09:39:54Z</time>
      </trkpt>
      <trkpt lat="46.16642" lon="6.64427">
        <ele>1842</ele>
        <time>2022-07-31T09:39:55Z</time>
      </trkpt>
      <trkpt lat="46.16642" lon="6.64427">
        <ele>1842</ele>
        <time>2022-07-31T09:39:56Z</time>
      </trkpt>
      <trkpt lat="46.16641" lon="6.64426">
        <ele>1842</ele>
        <time>2022-07-31T09:39:57Z</time>
      </trkpt>
      <trkpt lat="46.1664" lon="6.64425">
        <ele>1842</ele>
        <time>2022-07-31T09:39:58Z</time>
      </trkpt>
      <trkpt lat="46.1664" lon="6.64423">
        <ele>1841</ele>
        <time>2022-07-31T09:39:59Z</time>
      </trkpt>
      <trkpt lat="46.16639" lon="6.64422">
        <ele>1841</ele>
        <time>2022-07-31T09:40:00Z</time>
      </trkpt>
      <trkpt lat="46.16639" lon="6.64421">
        <ele>1841</ele>
        <time>2022-07-31T09:40:01Z</time>
      </trkpt>
      <trkpt lat="46.16637" lon="6.6442">
        <ele>1841</ele>
        <time>2022-07-31T09:40:02Z</time>
      </trkpt>
      <trkpt lat="46.16636" lon="6.64418">
        <ele>1841</ele>
        <time>2022-07-31T09:40:03Z</time>
      </trkpt>
      <trkpt lat="46.16636" lon="6.64417">
        <ele>1840</ele>
        <time>2022-07-31T09:40:04Z</time>
      </trkpt>
      <trkpt lat="46.16635" lon="6.64415">
        <ele>1840</ele>
        <time>2022-07-31T09:40:05Z</time>
      </trkpt>
      <trkpt lat="46.16634" lon="6.64414">
        <ele>1840</ele>
        <time>2022-07-31T09:40:06Z</time>
      </trkpt>
      <trkpt lat="46.16633" lon="6.64412">
        <ele>1840</ele>
        <time>2022-07-31T09:40:07Z</time>
      </trkpt>
      <trkpt lat="46.16632" lon="6.64411">
        <ele>1840</ele>
        <time>2022-07-31T09:40:08Z</time>
      </trkpt>
      <trkpt lat="46.16629" lon="6.64411">
        <ele>1840</ele>
        <time>2022-07-31T09:40:09Z</time>
      </trkpt>
      <trkpt lat="46.16628" lon="6.6441">
        <ele>1840</ele>
        <time>2022-07-31T09:40:10Z</time>
      </trkpt>
      <trkpt lat="46.16627" lon="6.64411">
        <ele>1840</ele>
        <time>2022-07-31T09:40:11Z</time>
      </trkpt>
      <trkpt lat="46.16626" lon="6.64411">
        <ele>1840</ele>
        <time>2022-07-31T09:40:12Z</time>
      </trkpt>
      <trkpt lat="46.16624" lon="6.6441">
        <ele>1839</ele>
        <time>2022-07-31T09:40:13Z</time>
      </trkpt>
      <trkpt lat="46.16622" lon="6.64409">
        <ele>1839</ele>
        <time>2022-07-31T09:40:14Z</time>
      </trkpt>
      <trkpt lat="46.16621" lon="6.64408">
        <ele>1839</ele>
        <time>2022-07-31T09:40:15Z</time>
      </trkpt>
      <trkpt lat="46.16621" lon="6.64406">
        <ele>1839</ele>
        <time>2022-07-31T09:40:16Z</time>
      </trkpt>
      <trkpt lat="46.1662" lon="6.64405">
        <ele>1839</ele>
        <time>2022-07-31T09:40:17Z</time>
      </trkpt>
      <trkpt lat="46.16619" lon="6.64403">
        <ele>1839</ele>
        <time>2022-07-31T09:40:18Z</time>
      </trkpt>
      <trkpt lat="46.16618" lon="6.64402">
        <ele>1839</ele>
        <time>2022-07-31T09:40:19Z</time>
      </trkpt>
      <trkpt lat="46.16617" lon="6.64401">
        <ele>1839</ele>
        <time>2022-07-31T09:40:20Z</time>
      </trkpt>
      <trkpt lat="46.16616" lon="6.644">
        <ele>1839</ele>
        <time>2022-07-31T09:40:21Z</time>
      </trkpt>
      <trkpt lat="46.16615" lon="6.64399">
        <ele>1839</ele>
        <time>2022-07-31T09:40:22Z</time>
      </trkpt>
      <trkpt lat="46.16614" lon="6.64398">
        <ele>1839</ele>
        <time>2022-07-31T09:40:23Z</time>
      </trkpt>
      <trkpt lat="46.16614" lon="6.64397">
        <ele>1839</ele>
        <time>2022-07-31T09:40:24Z</time>
      </trkpt>
      <trkpt lat="46.16613" lon="6.64396">
        <ele>1839</ele>
        <time>2022-07-31T09:40:25Z</time>
      </trkpt>
      <trkpt lat="46.16611" lon="6.64395">
        <ele>1839</ele>
        <time>2022-07-31T09:40:26Z</time>
      </trkpt>
      <trkpt lat="46.1661" lon="6.64394">
        <ele>1839</ele>
        <time>2022-07-31T09:40:27Z</time>
      </trkpt>
      <trkpt lat="46.16609" lon="6.64394">
        <ele>1839</ele>
        <time>2022-07-31T09:40:28Z</time>
      </trkpt>
      <trkpt lat="46.16608" lon="6.64394">
        <ele>1838</ele>
        <time>2022-07-31T09:40:29Z</time>
      </trkpt>
      <trkpt lat="46.16607" lon="6.64394">
        <ele>1838</ele>
        <time>2022-07-31T09:40:30Z</time>
      </trkpt>
      <trkpt lat="46.16606" lon="6.64393">
        <ele>1838</ele>
        <time>2022-07-31T09:40:31Z</time>
      </trkpt>
      <trkpt lat="46.16604" lon="6.64392">
        <ele>1838</ele>
        <time>2022-07-31T09:40:32Z</time>
      </trkpt>
      <trkpt lat="46.16604" lon="6.64392">
        <ele>1838</ele>
        <time>2022-07-31T09:40:33Z</time>
      </trkpt>
      <trkpt lat="46.16602" lon="6.64391">
        <ele>1838</ele>
        <time>2022-07-31T09:40:34Z</time>
      </trkpt>
      <trkpt lat="46.16601" lon="6.64389">
        <ele>1838</ele>
        <time>2022-07-31T09:40:35Z</time>
      </trkpt>
      <trkpt lat="46.166" lon="6.64388">
        <ele>1838</ele>
        <time>2022-07-31T09:40:36Z</time>
      </trkpt>
      <trkpt lat="46.16599" lon="6.64387">
        <ele>1838</ele>
        <time>2022-07-31T09:40:37Z</time>
      </trkpt>
      <trkpt lat="46.16598" lon="6.64386">
        <ele>1838</ele>
        <time>2022-07-31T09:40:38Z</time>
      </trkpt>
      <trkpt lat="46.16598" lon="6.64385">
        <ele>1838</ele>
        <time>2022-07-31T09:40:39Z</time>
      </trkpt>
      <trkpt lat="46.16597" lon="6.64385">
        <ele>1838</ele>
        <time>2022-07-31T09:40:40Z</time>
      </trkpt>
      <trkpt lat="46.16596" lon="6.64385">
        <ele>1838</ele>
        <time>2022-07-31T09:40:41Z</time>
      </trkpt>
      <trkpt lat="46.16595" lon="6.64385">
        <ele>1838</ele>
        <time>2022-07-31T09:40:42Z</time>
      </trkpt>
      <trkpt lat="46.16593" lon="6.64385">
        <ele>1838</ele>
        <time>2022-07-31T09:40:43Z</time>
      </trkpt>
      <trkpt lat="46.16593" lon="6.64385">
        <ele>1838</ele>
        <time>2022-07-31T09:40:44Z</time>
      </trkpt>
      <trkpt lat="46.16593" lon="6.64384">
        <ele>1837</ele>
        <time>2022-07-31T09:40:45Z</time>
      </trkpt>
      <trkpt lat="46.16593" lon="6.64384">
        <ele>1837</ele>
        <time>2022-07-31T09:40:46Z</time>
      </trkpt>
      <trkpt lat="46.16593" lon="6.64384">
        <ele>1837</ele>
        <time>2022-07-31T09:40:47Z</time>
      </trkpt>
      <trkpt lat="46.16593" lon="6.64384">
        <ele>1837</ele>
        <time>2022-07-31T09:40:48Z</time>
      </trkpt>
      <trkpt lat="46.16593" lon="6.64383">
        <ele>1837</ele>
        <time>2022-07-31T09:40:49Z</time>
      </trkpt>
      <trkpt lat="46.16592" lon="6.64383">
        <ele>1836</ele>
        <time>2022-07-31T09:40:50Z</time>
      </trkpt>
      <trkpt lat="46.16591" lon="6.64382">
        <ele>1836</ele>
        <time>2022-07-31T09:40:51Z</time>
      </trkpt>
      <trkpt lat="46.16591" lon="6.64381">
        <ele>1836</ele>
        <time>2022-07-31T09:40:52Z</time>
      </trkpt>
      <trkpt lat="46.1659" lon="6.64379">
        <ele>1836</ele>
        <time>2022-07-31T09:40:53Z</time>
      </trkpt>
      <trkpt lat="46.16588" lon="6.64378">
        <ele>1836</ele>
        <time>2022-07-31T09:40:54Z</time>
      </trkpt>
      <trkpt lat="46.16587" lon="6.64376">
        <ele>1835</ele>
        <time>2022-07-31T09:40:55Z</time>
      </trkpt>
      <trkpt lat="46.16586" lon="6.64375">
        <ele>1835</ele>
        <time>2022-07-31T09:40:56Z</time>
      </trkpt>
      <trkpt lat="46.16585" lon="6.64375">
        <ele>1835</ele>
        <time>2022-07-31T09:40:57Z</time>
      </trkpt>
      <trkpt lat="46.16585" lon="6.64373">
        <ele>1835</ele>
        <time>2022-07-31T09:40:58Z</time>
      </trkpt>
      <trkpt lat="46.16585" lon="6.64372">
        <ele>1834</ele>
        <time>2022-07-31T09:40:59Z</time>
      </trkpt>
      <trkpt lat="46.16584" lon="6.64371">
        <ele>1834</ele>
        <time>2022-07-31T09:41:00Z</time>
      </trkpt>
      <trkpt lat="46.16584" lon="6.64371">
        <ele>1834</ele>
        <time>2022-07-31T09:41:01Z</time>
      </trkpt>
      <trkpt lat="46.16583" lon="6.6437">
        <ele>1833</ele>
        <time>2022-07-31T09:41:02Z</time>
      </trkpt>
      <trkpt lat="46.16582" lon="6.64369">
        <ele>1833</ele>
        <time>2022-07-31T09:41:03Z</time>
      </trkpt>
      <trkpt lat="46.16582" lon="6.64369">
        <ele>1833</ele>
        <time>2022-07-31T09:41:04Z</time>
      </trkpt>
      <trkpt lat="46.16581" lon="6.64368">
        <ele>1833</ele>
        <time>2022-07-31T09:41:05Z</time>
      </trkpt>
      <trkpt lat="46.1658" lon="6.64367">
        <ele>1832</ele>
        <time>2022-07-31T09:41:06Z</time>
      </trkpt>
      <trkpt lat="46.16578" lon="6.64366">
        <ele>1832</ele>
        <time>2022-07-31T09:41:07Z</time>
      </trkpt>
      <trkpt lat="46.16577" lon="6.64366">
        <ele>1832</ele>
        <time>2022-07-31T09:41:08Z</time>
      </trkpt>
      <trkpt lat="46.16576" lon="6.64365">
        <ele>1832</ele>
        <time>2022-07-31T09:41:09Z</time>
      </trkpt>
      <trkpt lat="46.16575" lon="6.64364">
        <ele>1831</ele>
        <time>2022-07-31T09:41:10Z</time>
      </trkpt>
      <trkpt lat="46.16574" lon="6.64364">
        <ele>1831</ele>
        <time>2022-07-31T09:41:11Z</time>
      </trkpt>
      <trkpt lat="46.16573" lon="6.64363">
        <ele>1831</ele>
        <time>2022-07-31T09:41:12Z</time>
      </trkpt>
      <trkpt lat="46.16571" lon="6.64362">
        <ele>1831</ele>
        <time>2022-07-31T09:41:13Z</time>
      </trkpt>
      <trkpt lat="46.1657" lon="6.64361">
        <ele>1831</ele>
        <time>2022-07-31T09:41:14Z</time>
      </trkpt>
      <trkpt lat="46.1657" lon="6.64361">
        <ele>1830</ele>
        <time>2022-07-31T09:41:15Z</time>
      </trkpt>
      <trkpt lat="46.16569" lon="6.6436">
        <ele>1830</ele>
        <time>2022-07-31T09:41:16Z</time>
      </trkpt>
      <trkpt lat="46.16568" lon="6.64359">
        <ele>1830</ele>
        <time>2022-07-31T09:41:17Z</time>
      </trkpt>
      <trkpt lat="46.16567" lon="6.64358">
        <ele>1829</ele>
        <time>2022-07-31T09:41:18Z</time>
      </trkpt>
      <trkpt lat="46.16566" lon="6.64358">
        <ele>1829</ele>
        <time>2022-07-31T09:41:19Z</time>
      </trkpt>
      <trkpt lat="46.16565" lon="6.64357">
        <ele>1829</ele>
        <time>2022-07-31T09:41:20Z</time>
      </trkpt>
      <trkpt lat="46.16565" lon="6.64356">
        <ele>1829</ele>
        <time>2022-07-31T09:41:21Z</time>
      </trkpt>
      <trkpt lat="46.16563" lon="6.64355">
        <ele>1829</ele>
        <time>2022-07-31T09:41:22Z</time>
      </trkpt>
      <trkpt lat="46.16562" lon="6.64354">
        <ele>1828</ele>
        <time>2022-07-31T09:41:23Z</time>
      </trkpt>
      <trkpt lat="46.16562" lon="6.64354">
        <ele>1828</ele>
        <time>2022-07-31T09:41:24Z</time>
      </trkpt>
      <trkpt lat="46.1656" lon="6.64355">
        <ele>1828</ele>
        <time>2022-07-31T09:41:25Z</time>
      </trkpt>
      <trkpt lat="46.1656" lon="6.64354">
        <ele>1828</ele>
        <time>2022-07-31T09:41:26Z</time>
      </trkpt>
      <trkpt lat="46.16559" lon="6.64354">
        <ele>1828</ele>
        <time>2022-07-31T09:41:27Z</time>
      </trkpt>
      <trkpt lat="46.16558" lon="6.64354">
        <ele>1828</ele>
        <time>2022-07-31T09:41:28Z</time>
      </trkpt>
      <trkpt lat="46.16558" lon="6.64353">
        <ele>1827</ele>
        <time>2022-07-31T09:41:29Z</time>
      </trkpt>
      <trkpt lat="46.16556" lon="6.64352">
        <ele>1827</ele>
        <time>2022-07-31T09:41:30Z</time>
      </trkpt>
      <trkpt lat="46.16555" lon="6.64351">
        <ele>1827</ele>
        <time>2022-07-31T09:41:31Z</time>
      </trkpt>
      <trkpt lat="46.16555" lon="6.64351">
        <ele>1827</ele>
        <time>2022-07-31T09:41:32Z</time>
      </trkpt>
      <trkpt lat="46.16554" lon="6.64351">
        <ele>1826</ele>
        <time>2022-07-31T09:41:33Z</time>
      </trkpt>
      <trkpt lat="46.16554" lon="6.64351">
        <ele>1826</ele>
        <time>2022-07-31T09:41:34Z</time>
      </trkpt>
      <trkpt lat="46.16554" lon="6.6435">
        <ele>1826</ele>
        <time>2022-07-31T09:41:35Z</time>
      </trkpt>
      <trkpt lat="46.16553" lon="6.64349">
        <ele>1826</ele>
        <time>2022-07-31T09:41:36Z</time>
      </trkpt>
      <trkpt lat="46.16552" lon="6.64349">
        <ele>1825</ele>
        <time>2022-07-31T09:41:37Z</time>
      </trkpt>
      <trkpt lat="46.16551" lon="6.64349">
        <ele>1825</ele>
        <time>2022-07-31T09:41:38Z</time>
      </trkpt>
      <trkpt lat="46.1655" lon="6.64349">
        <ele>1825</ele>
        <time>2022-07-31T09:41:39Z</time>
      </trkpt>
      <trkpt lat="46.16548" lon="6.64348">
        <ele>1825</ele>
        <time>2022-07-31T09:41:40Z</time>
      </trkpt>
      <trkpt lat="46.16546" lon="6.64348">
        <ele>1824</ele>
        <time>2022-07-31T09:41:41Z</time>
      </trkpt>
      <trkpt lat="46.16545" lon="6.64347">
        <ele>1824</ele>
        <time>2022-07-31T09:41:42Z</time>
      </trkpt>
      <trkpt lat="46.16545" lon="6.64347">
        <ele>1824</ele>
        <time>2022-07-31T09:41:43Z</time>
      </trkpt>
      <trkpt lat="46.16544" lon="6.64345">
        <ele>1823</ele>
        <time>2022-07-31T09:41:44Z</time>
      </trkpt>
      <trkpt lat="46.16543" lon="6.64345">
        <ele>1823</ele>
        <time>2022-07-31T09:41:45Z</time>
      </trkpt>
      <trkpt lat="46.16541" lon="6.64345">
        <ele>1823</ele>
        <time>2022-07-31T09:41:46Z</time>
      </trkpt>
      <trkpt lat="46.1654" lon="6.64345">
        <ele>1822</ele>
        <time>2022-07-31T09:41:47Z</time>
      </trkpt>
      <trkpt lat="46.16538" lon="6.64344">
        <ele>1822</ele>
        <time>2022-07-31T09:41:48Z</time>
      </trkpt>
      <trkpt lat="46.16537" lon="6.64344">
        <ele>1822</ele>
        <time>2022-07-31T09:41:49Z</time>
      </trkpt>
      <trkpt lat="46.16536" lon="6.64343">
        <ele>1821</ele>
        <time>2022-07-31T09:41:50Z</time>
      </trkpt>
      <trkpt lat="46.16536" lon="6.64342">
        <ele>1821</ele>
        <time>2022-07-31T09:41:51Z</time>
      </trkpt>
      <trkpt lat="46.16534" lon="6.64342">
        <ele>1821</ele>
        <time>2022-07-31T09:41:52Z</time>
      </trkpt>
      <trkpt lat="46.16534" lon="6.64343">
        <ele>1820</ele>
        <time>2022-07-31T09:41:53Z</time>
      </trkpt>
      <trkpt lat="46.16533" lon="6.64344">
        <ele>1820</ele>
        <time>2022-07-31T09:41:54Z</time>
      </trkpt>
      <trkpt lat="46.16532" lon="6.64345">
        <ele>1820</ele>
        <time>2022-07-31T09:41:55Z</time>
      </trkpt>
      <trkpt lat="46.16531" lon="6.64345">
        <ele>1820</ele>
        <time>2022-07-31T09:41:56Z</time>
      </trkpt>
      <trkpt lat="46.1653" lon="6.64346">
        <ele>1819</ele>
        <time>2022-07-31T09:41:57Z</time>
      </trkpt>
      <trkpt lat="46.1653" lon="6.64347">
        <ele>1819</ele>
        <time>2022-07-31T09:41:58Z</time>
      </trkpt>
      <trkpt lat="46.16529" lon="6.64349">
        <ele>1819</ele>
        <time>2022-07-31T09:41:59Z</time>
      </trkpt>
      <trkpt lat="46.16529" lon="6.6435">
        <ele>1819</ele>
        <time>2022-07-31T09:42:00Z</time>
      </trkpt>
      <trkpt lat="46.16527" lon="6.64351">
        <ele>1818</ele>
        <time>2022-07-31T09:42:01Z</time>
      </trkpt>
      <trkpt lat="46.16527" lon="6.64353">
        <ele>1818</ele>
        <time>2022-07-31T09:42:02Z</time>
      </trkpt>
      <trkpt lat="46.16526" lon="6.64354">
        <ele>1817</ele>
        <time>2022-07-31T09:42:03Z</time>
      </trkpt>
      <trkpt lat="46.16526" lon="6.64356">
        <ele>1817</ele>
        <time>2022-07-31T09:42:04Z</time>
      </trkpt>
      <trkpt lat="46.16525" lon="6.64358">
        <ele>1816</ele>
        <time>2022-07-31T09:42:05Z</time>
      </trkpt>
      <trkpt lat="46.16526" lon="6.64359">
        <ele>1816</ele>
        <time>2022-07-31T09:42:06Z</time>
      </trkpt>
      <trkpt lat="46.16526" lon="6.6436">
        <ele>1815</ele>
        <time>2022-07-31T09:42:07Z</time>
      </trkpt>
      <trkpt lat="46.16526" lon="6.64361">
        <ele>1815</ele>
        <time>2022-07-31T09:42:08Z</time>
      </trkpt>
      <trkpt lat="46.16526" lon="6.64361">
        <ele>1814</ele>
        <time>2022-07-31T09:42:09Z</time>
      </trkpt>
      <trkpt lat="46.16526" lon="6.64361">
        <ele>1814</ele>
        <time>2022-07-31T09:42:10Z</time>
      </trkpt>
      <trkpt lat="46.16525" lon="6.6436">
        <ele>1813</ele>
        <time>2022-07-31T09:42:11Z</time>
      </trkpt>
      <trkpt lat="46.16526" lon="6.6436">
        <ele>1813</ele>
        <time>2022-07-31T09:42:12Z</time>
      </trkpt>
      <trkpt lat="46.16525" lon="6.6436">
        <ele>1813</ele>
        <time>2022-07-31T09:42:13Z</time>
      </trkpt>
      <trkpt lat="46.16525" lon="6.6436">
        <ele>1812</ele>
        <time>2022-07-31T09:42:14Z</time>
      </trkpt>
      <trkpt lat="46.16525" lon="6.6436">
        <ele>1812</ele>
        <time>2022-07-31T09:42:15Z</time>
      </trkpt>
      <trkpt lat="46.16525" lon="6.6436">
        <ele>1812</ele>
        <time>2022-07-31T09:42:16Z</time>
      </trkpt>
      <trkpt lat="46.16525" lon="6.6436">
        <ele>1812</ele>
        <time>2022-07-31T09:42:17Z</time>
      </trkpt>
      <trkpt lat="46.16525" lon="6.6436">
        <ele>1812</ele>
        <time>2022-07-31T09:42:18Z</time>
      </trkpt>
      <trkpt lat="46.16525" lon="6.6436">
        <ele>1811</ele>
        <time>2022-07-31T09:42:19Z</time>
      </trkpt>
      <trkpt lat="46.16525" lon="6.6436">
        <ele>1811</ele>
        <time>2022-07-31T09:42:20Z</time>
      </trkpt>
      <trkpt lat="46.16525" lon="6.6436">
        <ele>1811</ele>
        <time>2022-07-31T09:42:21Z</time>
      </trkpt>
      <trkpt lat="46.16526" lon="6.6436">
        <ele>1811</ele>
        <time>2022-07-31T09:42:22Z</time>
      </trkpt>
      <trkpt lat="46.16526" lon="6.6436">
        <ele>1811</ele>
        <time>2022-07-31T09:42:23Z</time>
      </trkpt>
      <trkpt lat="46.16526" lon="6.64361">
        <ele>1811</ele>
        <time>2022-07-31T09:42:24Z</time>
      </trkpt>
      <trkpt lat="46.16526" lon="6.64361">
        <ele>1811</ele>
        <time>2022-07-31T09:42:25Z</time>
      </trkpt>
      <trkpt lat="46.16526" lon="6.64361">
        <ele>1810</ele>
        <time>2022-07-31T09:42:26Z</time>
      </trkpt>
      <trkpt lat="46.16526" lon="6.64361">
        <ele>1810</ele>
        <time>2022-07-31T09:42:27Z</time>
      </trkpt>
      <trkpt lat="46.16526" lon="6.64361">
        <ele>1810</ele>
        <time>2022-07-31T09:42:28Z</time>
      </trkpt>
      <trkpt lat="46.16526" lon="6.64361">
        <ele>1810</ele>
        <time>2022-07-31T09:42:29Z</time>
      </trkpt>
      <trkpt lat="46.16526" lon="6.64361">
        <ele>1810</ele>
        <time>2022-07-31T09:42:30Z</time>
      </trkpt>
      <trkpt lat="46.16526" lon="6.64361">
        <ele>1810</ele>
        <time>2022-07-31T09:42:31Z</time>
      </trkpt>
      <trkpt lat="46.16526" lon="6.64361">
        <ele>1810</ele>
        <time>2022-07-31T09:42:32Z</time>
      </trkpt>
      <trkpt lat="46.16526" lon="6.64361">
        <ele>1810</ele>
        <time>2022-07-31T09:42:33Z</time>
      </trkpt>
      <trkpt lat="46.16526" lon="6.64361">
        <ele>1810</ele>
        <time>2022-07-31T09:42:34Z</time>
      </trkpt>
      <trkpt lat="46.16526" lon="6.64361">
        <ele>1810</ele>
        <time>2022-07-31T09:42:35Z</time>
      </trkpt>
      <trkpt lat="46.16526" lon="6.64361">
        <ele>1810</ele>
        <time>2022-07-31T09:42:36Z</time>
      </trkpt>
      <trkpt lat="46.16526" lon="6.64361">
        <ele>1810</ele>
        <time>2022-07-31T09:42:37Z</time>
      </trkpt>
      <trkpt lat="46.16526" lon="6.64361">
        <ele>1810</ele>
        <time>2022-07-31T09:42:38Z</time>
      </trkpt>
      <trkpt lat="46.16526" lon="6.64361">
        <ele>1809</ele>
        <time>2022-07-31T09:42:39Z</time>
      </trkpt>
      <trkpt lat="46.16526" lon="6.64361">
        <ele>1809</ele>
        <time>2022-07-31T09:42:40Z</time>
      </trkpt>
      <trkpt lat="46.16526" lon="6.64361">
        <ele>1809</ele>
        <time>2022-07-31T09:42:41Z</time>
      </trkpt>
      <trkpt lat="46.16526" lon="6.64361">
        <ele>1809</ele>
        <time>2022-07-31T09:42:42Z</time>
      </trkpt>
      <trkpt lat="46.16526" lon="6.64361">
        <ele>1809</ele>
        <time>2022-07-31T09:42:43Z</time>
      </trkpt>
      <trkpt lat="46.16526" lon="6.64361">
        <ele>1809</ele>
        <time>2022-07-31T09:42:44Z</time>
      </trkpt>
      <trkpt lat="46.16526" lon="6.64361">
        <ele>1809</ele>
        <time>2022-07-31T09:42:45Z</time>
      </trkpt>
      <trkpt lat="46.16526" lon="6.64361">
        <ele>1809</ele>
        <time>2022-07-31T09:42:46Z</time>
      </trkpt>
      <trkpt lat="46.16526" lon="6.64361">
        <ele>1809</ele>
        <time>2022-07-31T09:42:47Z</time>
      </trkpt>
      <trkpt lat="46.16526" lon="6.64361">
        <ele>1809</ele>
        <time>2022-07-31T09:42:48Z</time>
      </trkpt>
      <trkpt lat="46.16526" lon="6.64361">
        <ele>1809</ele>
        <time>2022-07-31T09:42:49Z</time>
      </trkpt>
      <trkpt lat="46.16526" lon="6.64361">
        <ele>1809</ele>
        <time>2022-07-31T09:42:50Z</time>
      </trkpt>
      <trkpt lat="46.16526" lon="6.64361">
        <ele>1809</ele>
        <time>2022-07-31T09:42:51Z</time>
      </trkpt>
      <trkpt lat="46.16526" lon="6.64361">
        <ele>1809</ele>
        <time>2022-07-31T09:42:52Z</time>
      </trkpt>
      <trkpt lat="46.16526" lon="6.64361">
        <ele>1809</ele>
        <time>2022-07-31T09:42:53Z</time>
      </trkpt>
      <trkpt lat="46.16526" lon="6.64361">
        <ele>1809</ele>
        <time>2022-07-31T09:42:54Z</time>
      </trkpt>
      <trkpt lat="46.16526" lon="6.64361">
        <ele>1809</ele>
        <time>2022-07-31T09:42:55Z</time>
      </trkpt>
      <trkpt lat="46.16526" lon="6.64361">
        <ele>1809</ele>
        <time>2022-07-31T09:42:56Z</time>
      </trkpt>
      <trkpt lat="46.16526" lon="6.64361">
        <ele>1809</ele>
        <time>2022-07-31T09:42:57Z</time>
      </trkpt>
      <trkpt lat="46.16526" lon="6.64361">
        <ele>1809</ele>
        <time>2022-07-31T09:42:58Z</time>
      </trkpt>
      <trkpt lat="46.16526" lon="6.64361">
        <ele>1809</ele>
        <time>2022-07-31T09:42:59Z</time>
      </trkpt>
      <trkpt lat="46.16527" lon="6.64362">
        <ele>1809</ele>
        <time>2022-07-31T09:43:00Z</time>
      </trkpt>
      <trkpt lat="46.16527" lon="6.64363">
        <ele>1809</ele>
        <time>2022-07-31T09:43:01Z</time>
      </trkpt>
      <trkpt lat="46.16528" lon="6.64364">
        <ele>1809</ele>
        <time>2022-07-31T09:43:02Z</time>
      </trkpt>
      <trkpt lat="46.16529" lon="6.64366">
        <ele>1808</ele>
        <time>2022-07-31T09:43:03Z</time>
      </trkpt>
      <trkpt lat="46.1653" lon="6.64367">
        <ele>1808</ele>
        <time>2022-07-31T09:43:04Z</time>
      </trkpt>
      <trkpt lat="46.1653" lon="6.64368">
        <ele>1808</ele>
        <time>2022-07-31T09:43:05Z</time>
      </trkpt>
      <trkpt lat="46.1653" lon="6.64368">
        <ele>1808</ele>
        <time>2022-07-31T09:43:06Z</time>
      </trkpt>
      <trkpt lat="46.1653" lon="6.64368">
        <ele>1808</ele>
        <time>2022-07-31T09:43:07Z</time>
      </trkpt>
      <trkpt lat="46.1653" lon="6.64368">
        <ele>1808</ele>
        <time>2022-07-31T09:43:08Z</time>
      </trkpt>
      <trkpt lat="46.1653" lon="6.64368">
        <ele>1808</ele>
        <time>2022-07-31T09:43:09Z</time>
      </trkpt>
      <trkpt lat="46.1653" lon="6.64368">
        <ele>1808</ele>
        <time>2022-07-31T09:43:10Z</time>
      </trkpt>
      <trkpt lat="46.1653" lon="6.64368">
        <ele>1808</ele>
        <time>2022-07-31T09:43:11Z</time>
      </trkpt>
      <trkpt lat="46.1653" lon="6.64369">
        <ele>1808</ele>
        <time>2022-07-31T09:43:12Z</time>
      </trkpt>
      <trkpt lat="46.16531" lon="6.64369">
        <ele>1808</ele>
        <time>2022-07-31T09:43:13Z</time>
      </trkpt>
      <trkpt lat="46.16531" lon="6.64369">
        <ele>1808</ele>
        <time>2022-07-31T09:43:14Z</time>
      </trkpt>
      <trkpt lat="46.16531" lon="6.64369">
        <ele>1808</ele>
        <time>2022-07-31T09:43:15Z</time>
      </trkpt>
      <trkpt lat="46.16531" lon="6.64369">
        <ele>1808</ele>
        <time>2022-07-31T09:43:16Z</time>
      </trkpt>
      <trkpt lat="46.16531" lon="6.64369">
        <ele>1808</ele>
        <time>2022-07-31T09:43:17Z</time>
      </trkpt>
      <trkpt lat="46.16532" lon="6.6437">
        <ele>1808</ele>
        <time>2022-07-31T09:43:18Z</time>
      </trkpt>
      <trkpt lat="46.16532" lon="6.64371">
        <ele>1808</ele>
        <time>2022-07-31T09:43:19Z</time>
      </trkpt>
      <trkpt lat="46.16533" lon="6.64373">
        <ele>1807</ele>
        <time>2022-07-31T09:43:20Z</time>
      </trkpt>
      <trkpt lat="46.16533" lon="6.64374">
        <ele>1807</ele>
        <time>2022-07-31T09:43:21Z</time>
      </trkpt>
      <trkpt lat="46.16533" lon="6.64375">
        <ele>1807</ele>
        <time>2022-07-31T09:43:22Z</time>
      </trkpt>
      <trkpt lat="46.16533" lon="6.64377">
        <ele>1807</ele>
        <time>2022-07-31T09:43:23Z</time>
      </trkpt>
      <trkpt lat="46.16533" lon="6.64378">
        <ele>1807</ele>
        <time>2022-07-31T09:43:24Z</time>
      </trkpt>
      <trkpt lat="46.16533" lon="6.64379">
        <ele>1807</ele>
        <time>2022-07-31T09:43:25Z</time>
      </trkpt>
      <trkpt lat="46.16533" lon="6.64378">
        <ele>1807</ele>
        <time>2022-07-31T09:43:26Z</time>
      </trkpt>
      <trkpt lat="46.16532" lon="6.64378">
        <ele>1807</ele>
        <time>2022-07-31T09:43:27Z</time>
      </trkpt>
      <trkpt lat="46.16532" lon="6.64378">
        <ele>1807</ele>
        <time>2022-07-31T09:43:28Z</time>
      </trkpt>
      <trkpt lat="46.16532" lon="6.64379">
        <ele>1807</ele>
        <time>2022-07-31T09:43:29Z</time>
      </trkpt>
      <trkpt lat="46.16532" lon="6.6438">
        <ele>1807</ele>
        <time>2022-07-31T09:43:30Z</time>
      </trkpt>
      <trkpt lat="46.16533" lon="6.64381">
        <ele>1807</ele>
        <time>2022-07-31T09:43:31Z</time>
      </trkpt>
      <trkpt lat="46.16533" lon="6.64382">
        <ele>1807</ele>
        <time>2022-07-31T09:43:32Z</time>
      </trkpt>
      <trkpt lat="46.16534" lon="6.64383">
        <ele>1807</ele>
        <time>2022-07-31T09:43:33Z</time>
      </trkpt>
      <trkpt lat="46.16536" lon="6.64384">
        <ele>1806</ele>
        <time>2022-07-31T09:43:34Z</time>
      </trkpt>
      <trkpt lat="46.16536" lon="6.64385">
        <ele>1806</ele>
        <time>2022-07-31T09:43:35Z</time>
      </trkpt>
      <trkpt lat="46.16537" lon="6.64386">
        <ele>1806</ele>
        <time>2022-07-31T09:43:36Z</time>
      </trkpt>
      <trkpt lat="46.16537" lon="6.64387">
        <ele>1806</ele>
        <time>2022-07-31T09:43:37Z</time>
      </trkpt>
      <trkpt lat="46.16538" lon="6.64388">
        <ele>1806</ele>
        <time>2022-07-31T09:43:38Z</time>
      </trkpt>
      <trkpt lat="46.16538" lon="6.6439">
        <ele>1806</ele>
        <time>2022-07-31T09:43:39Z</time>
      </trkpt>
      <trkpt lat="46.16539" lon="6.64392">
        <ele>1806</ele>
        <time>2022-07-31T09:43:40Z</time>
      </trkpt>
      <trkpt lat="46.1654" lon="6.64393">
        <ele>1806</ele>
        <time>2022-07-31T09:43:41Z</time>
      </trkpt>
      <trkpt lat="46.1654" lon="6.64395">
        <ele>1805</ele>
        <time>2022-07-31T09:43:42Z</time>
      </trkpt>
      <trkpt lat="46.16541" lon="6.64397">
        <ele>1805</ele>
        <time>2022-07-31T09:43:43Z</time>
      </trkpt>
      <trkpt lat="46.16541" lon="6.64398">
        <ele>1805</ele>
        <time>2022-07-31T09:43:44Z</time>
      </trkpt>
      <trkpt lat="46.16541" lon="6.644">
        <ele>1805</ele>
        <time>2022-07-31T09:43:45Z</time>
      </trkpt>
      <trkpt lat="46.16541" lon="6.64401">
        <ele>1805</ele>
        <time>2022-07-31T09:43:46Z</time>
      </trkpt>
      <trkpt lat="46.16541" lon="6.64402">
        <ele>1805</ele>
        <time>2022-07-31T09:43:47Z</time>
      </trkpt>
      <trkpt lat="46.16542" lon="6.64404">
        <ele>1805</ele>
        <time>2022-07-31T09:43:48Z</time>
      </trkpt>
      <trkpt lat="46.16542" lon="6.64406">
        <ele>1805</ele>
        <time>2022-07-31T09:43:49Z</time>
      </trkpt>
      <trkpt lat="46.16544" lon="6.64407">
        <ele>1805</ele>
        <time>2022-07-31T09:43:50Z</time>
      </trkpt>
      <trkpt lat="46.16544" lon="6.64409">
        <ele>1805</ele>
        <time>2022-07-31T09:43:51Z</time>
      </trkpt>
      <trkpt lat="46.16545" lon="6.64411">
        <ele>1805</ele>
        <time>2022-07-31T09:43:52Z</time>
      </trkpt>
      <trkpt lat="46.16546" lon="6.64412">
        <ele>1805</ele>
        <time>2022-07-31T09:43:53Z</time>
      </trkpt>
      <trkpt lat="46.16546" lon="6.64413">
        <ele>1805</ele>
        <time>2022-07-31T09:43:54Z</time>
      </trkpt>
      <trkpt lat="46.16547" lon="6.64414">
        <ele>1805</ele>
        <time>2022-07-31T09:43:55Z</time>
      </trkpt>
      <trkpt lat="46.16548" lon="6.64415">
        <ele>1805</ele>
        <time>2022-07-31T09:43:56Z</time>
      </trkpt>
      <trkpt lat="46.16548" lon="6.64417">
        <ele>1804</ele>
        <time>2022-07-31T09:43:57Z</time>
      </trkpt>
      <trkpt lat="46.16549" lon="6.64418">
        <ele>1804</ele>
        <time>2022-07-31T09:43:58Z</time>
      </trkpt>
      <trkpt lat="46.16549" lon="6.64419">
        <ele>1804</ele>
        <time>2022-07-31T09:43:59Z</time>
      </trkpt>
      <trkpt lat="46.1655" lon="6.6442">
        <ele>1804</ele>
        <time>2022-07-31T09:44:00Z</time>
      </trkpt>
      <trkpt lat="46.16551" lon="6.64422">
        <ele>1804</ele>
        <time>2022-07-31T09:44:01Z</time>
      </trkpt>
      <trkpt lat="46.16552" lon="6.64423">
        <ele>1804</ele>
        <time>2022-07-31T09:44:02Z</time>
      </trkpt>
      <trkpt lat="46.16552" lon="6.64425">
        <ele>1804</ele>
        <time>2022-07-31T09:44:03Z</time>
      </trkpt>
      <trkpt lat="46.16553" lon="6.64427">
        <ele>1804</ele>
        <time>2022-07-31T09:44:04Z</time>
      </trkpt>
      <trkpt lat="46.16553" lon="6.64428">
        <ele>1804</ele>
        <time>2022-07-31T09:44:05Z</time>
      </trkpt>
      <trkpt lat="46.16554" lon="6.64429">
        <ele>1804</ele>
        <time>2022-07-31T09:44:06Z</time>
      </trkpt>
      <trkpt lat="46.16554" lon="6.6443">
        <ele>1804</ele>
        <time>2022-07-31T09:44:07Z</time>
      </trkpt>
      <trkpt lat="46.16554" lon="6.64432">
        <ele>1804</ele>
        <time>2022-07-31T09:44:08Z</time>
      </trkpt>
      <trkpt lat="46.16554" lon="6.64433">
        <ele>1804</ele>
        <time>2022-07-31T09:44:09Z</time>
      </trkpt>
      <trkpt lat="46.16554" lon="6.64433">
        <ele>1804</ele>
        <time>2022-07-31T09:44:10Z</time>
      </trkpt>
      <trkpt lat="46.16555" lon="6.64433">
        <ele>1804</ele>
        <time>2022-07-31T09:44:11Z</time>
      </trkpt>
      <trkpt lat="46.16554" lon="6.64433">
        <ele>1803</ele>
        <time>2022-07-31T09:44:12Z</time>
      </trkpt>
      <trkpt lat="46.16554" lon="6.64431">
        <ele>1803</ele>
        <time>2022-07-31T09:44:13Z</time>
      </trkpt>
      <trkpt lat="46.16553" lon="6.64431">
        <ele>1803</ele>
        <time>2022-07-31T09:44:14Z</time>
      </trkpt>
      <trkpt lat="46.16553" lon="6.6443">
        <ele>1803</ele>
        <time>2022-07-31T09:44:15Z</time>
      </trkpt>
      <trkpt lat="46.16552" lon="6.6443">
        <ele>1803</ele>
        <time>2022-07-31T09:44:16Z</time>
      </trkpt>
      <trkpt lat="46.16552" lon="6.6443">
        <ele>1803</ele>
        <time>2022-07-31T09:44:17Z</time>
      </trkpt>
      <trkpt lat="46.16552" lon="6.6443">
        <ele>1803</ele>
        <time>2022-07-31T09:44:18Z</time>
      </trkpt>
      <trkpt lat="46.16552" lon="6.6443">
        <ele>1803</ele>
        <time>2022-07-31T09:44:19Z</time>
      </trkpt>
      <trkpt lat="46.16552" lon="6.6443">
        <ele>1802</ele>
        <time>2022-07-31T09:44:20Z</time>
      </trkpt>
      <trkpt lat="46.16552" lon="6.64431">
        <ele>1802</ele>
        <time>2022-07-31T09:44:21Z</time>
      </trkpt>
      <trkpt lat="46.16552" lon="6.64431">
        <ele>1802</ele>
        <time>2022-07-31T09:44:22Z</time>
      </trkpt>
      <trkpt lat="46.16552" lon="6.64431">
        <ele>1802</ele>
        <time>2022-07-31T09:44:23Z</time>
      </trkpt>
      <trkpt lat="46.16552" lon="6.64431">
        <ele>1802</ele>
        <time>2022-07-31T09:44:24Z</time>
      </trkpt>
      <trkpt lat="46.16552" lon="6.64431">
        <ele>1802</ele>
        <time>2022-07-31T09:44:25Z</time>
      </trkpt>
      <trkpt lat="46.16552" lon="6.64431">
        <ele>1802</ele>
        <time>2022-07-31T09:44:26Z</time>
      </trkpt>
      <trkpt lat="46.16552" lon="6.64431">
        <ele>1802</ele>
        <time>2022-07-31T09:44:27Z</time>
      </trkpt>
      <trkpt lat="46.16552" lon="6.64431">
        <ele>1802</ele>
        <time>2022-07-31T09:44:28Z</time>
      </trkpt>
      <trkpt lat="46.16552" lon="6.64431">
        <ele>1802</ele>
        <time>2022-07-31T09:44:29Z</time>
      </trkpt>
      <trkpt lat="46.16552" lon="6.64431">
        <ele>1802</ele>
        <time>2022-07-31T09:44:30Z</time>
      </trkpt>
      <trkpt lat="46.16552" lon="6.64432">
        <ele>1801</ele>
        <time>2022-07-31T09:44:31Z</time>
      </trkpt>
      <trkpt lat="46.16552" lon="6.64432">
        <ele>1801</ele>
        <time>2022-07-31T09:44:32Z</time>
      </trkpt>
      <trkpt lat="46.16552" lon="6.64432">
        <ele>1801</ele>
        <time>2022-07-31T09:44:33Z</time>
      </trkpt>
      <trkpt lat="46.16552" lon="6.64432">
        <ele>1801</ele>
        <time>2022-07-31T09:44:34Z</time>
      </trkpt>
      <trkpt lat="46.16552" lon="6.64432">
        <ele>1801</ele>
        <time>2022-07-31T09:44:35Z</time>
      </trkpt>
      <trkpt lat="46.16552" lon="6.64432">
        <ele>1801</ele>
        <time>2022-07-31T09:44:36Z</time>
      </trkpt>
      <trkpt lat="46.16553" lon="6.64433">
        <ele>1801</ele>
        <time>2022-07-31T09:44:37Z</time>
      </trkpt>
      <trkpt lat="46.16553" lon="6.64434">
        <ele>1801</ele>
        <time>2022-07-31T09:44:38Z</time>
      </trkpt>
      <trkpt lat="46.16554" lon="6.64436">
        <ele>1801</ele>
        <time>2022-07-31T09:44:39Z</time>
      </trkpt>
      <trkpt lat="46.16554" lon="6.64438">
        <ele>1801</ele>
        <time>2022-07-31T09:44:40Z</time>
      </trkpt>
      <trkpt lat="46.16555" lon="6.64439">
        <ele>1801</ele>
        <time>2022-07-31T09:44:41Z</time>
      </trkpt>
      <trkpt lat="46.16555" lon="6.6444">
        <ele>1801</ele>
        <time>2022-07-31T09:44:42Z</time>
      </trkpt>
      <trkpt lat="46.16556" lon="6.64442">
        <ele>1801</ele>
        <time>2022-07-31T09:44:43Z</time>
      </trkpt>
      <trkpt lat="46.16556" lon="6.64443">
        <ele>1801</ele>
        <time>2022-07-31T09:44:44Z</time>
      </trkpt>
      <trkpt lat="46.16557" lon="6.64444">
        <ele>1801</ele>
        <time>2022-07-31T09:44:45Z</time>
      </trkpt>
      <trkpt lat="46.16558" lon="6.64445">
        <ele>1801</ele>
        <time>2022-07-31T09:44:46Z</time>
      </trkpt>
      <trkpt lat="46.16559" lon="6.64446">
        <ele>1801</ele>
        <time>2022-07-31T09:44:47Z</time>
      </trkpt>
      <trkpt lat="46.1656" lon="6.64447">
        <ele>1801</ele>
        <time>2022-07-31T09:44:48Z</time>
      </trkpt>
      <trkpt lat="46.1656" lon="6.64448">
        <ele>1802</ele>
        <time>2022-07-31T09:44:49Z</time>
      </trkpt>
      <trkpt lat="46.1656" lon="6.64449">
        <ele>1802</ele>
        <time>2022-07-31T09:44:50Z</time>
      </trkpt>
      <trkpt lat="46.16561" lon="6.64451">
        <ele>1802</ele>
        <time>2022-07-31T09:44:51Z</time>
      </trkpt>
      <trkpt lat="46.16562" lon="6.64453">
        <ele>1802</ele>
        <time>2022-07-31T09:44:52Z</time>
      </trkpt>
      <trkpt lat="46.16562" lon="6.64454">
        <ele>1801</ele>
        <time>2022-07-31T09:44:53Z</time>
      </trkpt>
      <trkpt lat="46.16563" lon="6.64457">
        <ele>1801</ele>
        <time>2022-07-31T09:44:54Z</time>
      </trkpt>
      <trkpt lat="46.16563" lon="6.64459">
        <ele>1801</ele>
        <time>2022-07-31T09:44:55Z</time>
      </trkpt>
      <trkpt lat="46.16563" lon="6.6446">
        <ele>1801</ele>
        <time>2022-07-31T09:44:56Z</time>
      </trkpt>
      <trkpt lat="46.16565" lon="6.64462">
        <ele>1801</ele>
        <time>2022-07-31T09:44:57Z</time>
      </trkpt>
      <trkpt lat="46.16565" lon="6.64462">
        <ele>1801</ele>
        <time>2022-07-31T09:44:58Z</time>
      </trkpt>
      <trkpt lat="46.16566" lon="6.64463">
        <ele>1801</ele>
        <time>2022-07-31T09:44:59Z</time>
      </trkpt>
      <trkpt lat="46.16566" lon="6.64465">
        <ele>1801</ele>
        <time>2022-07-31T09:45:00Z</time>
      </trkpt>
      <trkpt lat="46.16566" lon="6.64467">
        <ele>1800</ele>
        <time>2022-07-31T09:45:01Z</time>
      </trkpt>
      <trkpt lat="46.16566" lon="6.6447">
        <ele>1800</ele>
        <time>2022-07-31T09:45:02Z</time>
      </trkpt>
      <trkpt lat="46.16566" lon="6.64472">
        <ele>1800</ele>
        <time>2022-07-31T09:45:03Z</time>
      </trkpt>
      <trkpt lat="46.16566" lon="6.64474">
        <ele>1800</ele>
        <time>2022-07-31T09:45:04Z</time>
      </trkpt>
      <trkpt lat="46.16567" lon="6.64475">
        <ele>1800</ele>
        <time>2022-07-31T09:45:05Z</time>
      </trkpt>
      <trkpt lat="46.16567" lon="6.64477">
        <ele>1800</ele>
        <time>2022-07-31T09:45:06Z</time>
      </trkpt>
      <trkpt lat="46.16568" lon="6.64479">
        <ele>1799</ele>
        <time>2022-07-31T09:45:07Z</time>
      </trkpt>
      <trkpt lat="46.16568" lon="6.64481">
        <ele>1799</ele>
        <time>2022-07-31T09:45:08Z</time>
      </trkpt>
      <trkpt lat="46.16568" lon="6.64482">
        <ele>1799</ele>
        <time>2022-07-31T09:45:09Z</time>
      </trkpt>
      <trkpt lat="46.16569" lon="6.64484">
        <ele>1799</ele>
        <time>2022-07-31T09:45:10Z</time>
      </trkpt>
      <trkpt lat="46.16569" lon="6.64486">
        <ele>1799</ele>
        <time>2022-07-31T09:45:11Z</time>
      </trkpt>
      <trkpt lat="46.1657" lon="6.64487">
        <ele>1799</ele>
        <time>2022-07-31T09:45:12Z</time>
      </trkpt>
      <trkpt lat="46.1657" lon="6.64489">
        <ele>1798</ele>
        <time>2022-07-31T09:45:13Z</time>
      </trkpt>
      <trkpt lat="46.1657" lon="6.64491">
        <ele>1798</ele>
        <time>2022-07-31T09:45:14Z</time>
      </trkpt>
      <trkpt lat="46.1657" lon="6.64492">
        <ele>1798</ele>
        <time>2022-07-31T09:45:15Z</time>
      </trkpt>
      <trkpt lat="46.1657" lon="6.64495">
        <ele>1798</ele>
        <time>2022-07-31T09:45:16Z</time>
      </trkpt>
      <trkpt lat="46.1657" lon="6.64497">
        <ele>1798</ele>
        <time>2022-07-31T09:45:17Z</time>
      </trkpt>
      <trkpt lat="46.1657" lon="6.64499">
        <ele>1798</ele>
        <time>2022-07-31T09:45:18Z</time>
      </trkpt>
      <trkpt lat="46.1657" lon="6.64501">
        <ele>1798</ele>
        <time>2022-07-31T09:45:19Z</time>
      </trkpt>
      <trkpt lat="46.16571" lon="6.64503">
        <ele>1797</ele>
        <time>2022-07-31T09:45:20Z</time>
      </trkpt>
      <trkpt lat="46.16573" lon="6.64505">
        <ele>1797</ele>
        <time>2022-07-31T09:45:21Z</time>
      </trkpt>
      <trkpt lat="46.16573" lon="6.64506">
        <ele>1797</ele>
        <time>2022-07-31T09:45:22Z</time>
      </trkpt>
      <trkpt lat="46.16573" lon="6.64507">
        <ele>1797</ele>
        <time>2022-07-31T09:45:23Z</time>
      </trkpt>
      <trkpt lat="46.16573" lon="6.64509">
        <ele>1797</ele>
        <time>2022-07-31T09:45:24Z</time>
      </trkpt>
      <trkpt lat="46.16573" lon="6.6451">
        <ele>1797</ele>
        <time>2022-07-31T09:45:25Z</time>
      </trkpt>
      <trkpt lat="46.16574" lon="6.64512">
        <ele>1797</ele>
        <time>2022-07-31T09:45:26Z</time>
      </trkpt>
      <trkpt lat="46.16574" lon="6.64514">
        <ele>1797</ele>
        <time>2022-07-31T09:45:27Z</time>
      </trkpt>
      <trkpt lat="46.16574" lon="6.64516">
        <ele>1797</ele>
        <time>2022-07-31T09:45:28Z</time>
      </trkpt>
      <trkpt lat="46.16575" lon="6.64517">
        <ele>1797</ele>
        <time>2022-07-31T09:45:29Z</time>
      </trkpt>
      <trkpt lat="46.16575" lon="6.6452">
        <ele>1797</ele>
        <time>2022-07-31T09:45:30Z</time>
      </trkpt>
      <trkpt lat="46.16575" lon="6.64523">
        <ele>1797</ele>
        <time>2022-07-31T09:45:31Z</time>
      </trkpt>
      <trkpt lat="46.16575" lon="6.64524">
        <ele>1797</ele>
        <time>2022-07-31T09:45:32Z</time>
      </trkpt>
      <trkpt lat="46.16576" lon="6.64525">
        <ele>1797</ele>
        <time>2022-07-31T09:45:33Z</time>
      </trkpt>
      <trkpt lat="46.16576" lon="6.64527">
        <ele>1797</ele>
        <time>2022-07-31T09:45:34Z</time>
      </trkpt>
      <trkpt lat="46.16576" lon="6.64528">
        <ele>1797</ele>
        <time>2022-07-31T09:45:35Z</time>
      </trkpt>
      <trkpt lat="46.16577" lon="6.64529">
        <ele>1796</ele>
        <time>2022-07-31T09:45:36Z</time>
      </trkpt>
      <trkpt lat="46.16577" lon="6.64531">
        <ele>1796</ele>
        <time>2022-07-31T09:45:37Z</time>
      </trkpt>
      <trkpt lat="46.16577" lon="6.64532">
        <ele>1796</ele>
        <time>2022-07-31T09:45:38Z</time>
      </trkpt>
      <trkpt lat="46.16577" lon="6.64535">
        <ele>1796</ele>
        <time>2022-07-31T09:45:39Z</time>
      </trkpt>
      <trkpt lat="46.16578" lon="6.64537">
        <ele>1796</ele>
        <time>2022-07-31T09:45:40Z</time>
      </trkpt>
      <trkpt lat="46.16578" lon="6.64539">
        <ele>1796</ele>
        <time>2022-07-31T09:45:41Z</time>
      </trkpt>
      <trkpt lat="46.16578" lon="6.64541">
        <ele>1796</ele>
        <time>2022-07-31T09:45:42Z</time>
      </trkpt>
      <trkpt lat="46.16578" lon="6.64543">
        <ele>1796</ele>
        <time>2022-07-31T09:45:43Z</time>
      </trkpt>
      <trkpt lat="46.16578" lon="6.64545">
        <ele>1796</ele>
        <time>2022-07-31T09:45:44Z</time>
      </trkpt>
      <trkpt lat="46.16578" lon="6.64547">
        <ele>1796</ele>
        <time>2022-07-31T09:45:45Z</time>
      </trkpt>
      <trkpt lat="46.1658" lon="6.64549">
        <ele>1796</ele>
        <time>2022-07-31T09:45:46Z</time>
      </trkpt>
      <trkpt lat="46.1658" lon="6.6455">
        <ele>1796</ele>
        <time>2022-07-31T09:45:47Z</time>
      </trkpt>
      <trkpt lat="46.16581" lon="6.64551">
        <ele>1795</ele>
        <time>2022-07-31T09:45:48Z</time>
      </trkpt>
      <trkpt lat="46.16582" lon="6.64553">
        <ele>1795</ele>
        <time>2022-07-31T09:45:49Z</time>
      </trkpt>
      <trkpt lat="46.16583" lon="6.64555">
        <ele>1795</ele>
        <time>2022-07-31T09:45:50Z</time>
      </trkpt>
      <trkpt lat="46.16583" lon="6.64557">
        <ele>1795</ele>
        <time>2022-07-31T09:45:51Z</time>
      </trkpt>
      <trkpt lat="46.16583" lon="6.64558">
        <ele>1795</ele>
        <time>2022-07-31T09:45:52Z</time>
      </trkpt>
      <trkpt lat="46.16584" lon="6.64559">
        <ele>1794</ele>
        <time>2022-07-31T09:45:53Z</time>
      </trkpt>
      <trkpt lat="46.16585" lon="6.64561">
        <ele>1794</ele>
        <time>2022-07-31T09:45:54Z</time>
      </trkpt>
      <trkpt lat="46.16585" lon="6.64562">
        <ele>1794</ele>
        <time>2022-07-31T09:45:55Z</time>
      </trkpt>
      <trkpt lat="46.16586" lon="6.64564">
        <ele>1794</ele>
        <time>2022-07-31T09:45:56Z</time>
      </trkpt>
      <trkpt lat="46.16587" lon="6.64566">
        <ele>1794</ele>
        <time>2022-07-31T09:45:57Z</time>
      </trkpt>
      <trkpt lat="46.16587" lon="6.64567">
        <ele>1794</ele>
        <time>2022-07-31T09:45:58Z</time>
      </trkpt>
      <trkpt lat="46.16587" lon="6.64568">
        <ele>1793</ele>
        <time>2022-07-31T09:45:59Z</time>
      </trkpt>
      <trkpt lat="46.16587" lon="6.64569">
        <ele>1793</ele>
        <time>2022-07-31T09:46:00Z</time>
      </trkpt>
      <trkpt lat="46.16587" lon="6.64572">
        <ele>1793</ele>
        <time>2022-07-31T09:46:01Z</time>
      </trkpt>
      <trkpt lat="46.16587" lon="6.64573">
        <ele>1793</ele>
        <time>2022-07-31T09:46:02Z</time>
      </trkpt>
      <trkpt lat="46.16588" lon="6.64575">
        <ele>1793</ele>
        <time>2022-07-31T09:46:03Z</time>
      </trkpt>
      <trkpt lat="46.16588" lon="6.64576">
        <ele>1793</ele>
        <time>2022-07-31T09:46:04Z</time>
      </trkpt>
      <trkpt lat="46.16589" lon="6.64578">
        <ele>1793</ele>
        <time>2022-07-31T09:46:05Z</time>
      </trkpt>
      <trkpt lat="46.1659" lon="6.6458">
        <ele>1793</ele>
        <time>2022-07-31T09:46:06Z</time>
      </trkpt>
      <trkpt lat="46.1659" lon="6.64582">
        <ele>1793</ele>
        <time>2022-07-31T09:46:07Z</time>
      </trkpt>
      <trkpt lat="46.16591" lon="6.64583">
        <ele>1793</ele>
        <time>2022-07-31T09:46:08Z</time>
      </trkpt>
      <trkpt lat="46.16591" lon="6.64585">
        <ele>1793</ele>
        <time>2022-07-31T09:46:09Z</time>
      </trkpt>
      <trkpt lat="46.16591" lon="6.64587">
        <ele>1793</ele>
        <time>2022-07-31T09:46:10Z</time>
      </trkpt>
      <trkpt lat="46.16591" lon="6.64589">
        <ele>1793</ele>
        <time>2022-07-31T09:46:11Z</time>
      </trkpt>
      <trkpt lat="46.16591" lon="6.6459">
        <ele>1793</ele>
        <time>2022-07-31T09:46:12Z</time>
      </trkpt>
      <trkpt lat="46.16591" lon="6.64592">
        <ele>1792</ele>
        <time>2022-07-31T09:46:13Z</time>
      </trkpt>
      <trkpt lat="46.16592" lon="6.64594">
        <ele>1792</ele>
        <time>2022-07-31T09:46:14Z</time>
      </trkpt>
      <trkpt lat="46.16593" lon="6.64595">
        <ele>1792</ele>
        <time>2022-07-31T09:46:15Z</time>
      </trkpt>
      <trkpt lat="46.16593" lon="6.64596">
        <ele>1792</ele>
        <time>2022-07-31T09:46:16Z</time>
      </trkpt>
      <trkpt lat="46.16593" lon="6.64598">
        <ele>1792</ele>
        <time>2022-07-31T09:46:17Z</time>
      </trkpt>
      <trkpt lat="46.16593" lon="6.646">
        <ele>1792</ele>
        <time>2022-07-31T09:46:18Z</time>
      </trkpt>
      <trkpt lat="46.16593" lon="6.64602">
        <ele>1792</ele>
        <time>2022-07-31T09:46:19Z</time>
      </trkpt>
      <trkpt lat="46.16592" lon="6.64604">
        <ele>1792</ele>
        <time>2022-07-31T09:46:20Z</time>
      </trkpt>
      <trkpt lat="46.16592" lon="6.64605">
        <ele>1791</ele>
        <time>2022-07-31T09:46:21Z</time>
      </trkpt>
      <trkpt lat="46.16592" lon="6.64606">
        <ele>1791</ele>
        <time>2022-07-31T09:46:22Z</time>
      </trkpt>
      <trkpt lat="46.16592" lon="6.64607">
        <ele>1791</ele>
        <time>2022-07-31T09:46:23Z</time>
      </trkpt>
      <trkpt lat="46.16592" lon="6.64609">
        <ele>1791</ele>
        <time>2022-07-31T09:46:24Z</time>
      </trkpt>
      <trkpt lat="46.16592" lon="6.6461">
        <ele>1791</ele>
        <time>2022-07-31T09:46:25Z</time>
      </trkpt>
      <trkpt lat="46.16592" lon="6.64611">
        <ele>1790</ele>
        <time>2022-07-31T09:46:26Z</time>
      </trkpt>
      <trkpt lat="46.16592" lon="6.64614">
        <ele>1790</ele>
        <time>2022-07-31T09:46:27Z</time>
      </trkpt>
      <trkpt lat="46.16592" lon="6.64616">
        <ele>1790</ele>
        <time>2022-07-31T09:46:28Z</time>
      </trkpt>
      <trkpt lat="46.16593" lon="6.64617">
        <ele>1790</ele>
        <time>2022-07-31T09:46:29Z</time>
      </trkpt>
      <trkpt lat="46.16593" lon="6.64619">
        <ele>1790</ele>
        <time>2022-07-31T09:46:30Z</time>
      </trkpt>
      <trkpt lat="46.16593" lon="6.64621">
        <ele>1790</ele>
        <time>2022-07-31T09:46:31Z</time>
      </trkpt>
      <trkpt lat="46.16593" lon="6.64624">
        <ele>1790</ele>
        <time>2022-07-31T09:46:32Z</time>
      </trkpt>
      <trkpt lat="46.16593" lon="6.64626">
        <ele>1790</ele>
        <time>2022-07-31T09:46:33Z</time>
      </trkpt>
      <trkpt lat="46.16593" lon="6.64628">
        <ele>1790</ele>
        <time>2022-07-31T09:46:34Z</time>
      </trkpt>
      <trkpt lat="46.16593" lon="6.6463">
        <ele>1790</ele>
        <time>2022-07-31T09:46:35Z</time>
      </trkpt>
      <trkpt lat="46.16594" lon="6.64632">
        <ele>1790</ele>
        <time>2022-07-31T09:46:36Z</time>
      </trkpt>
      <trkpt lat="46.16595" lon="6.64634">
        <ele>1790</ele>
        <time>2022-07-31T09:46:37Z</time>
      </trkpt>
      <trkpt lat="46.16595" lon="6.64637">
        <ele>1790</ele>
        <time>2022-07-31T09:46:38Z</time>
      </trkpt>
      <trkpt lat="46.16596" lon="6.64639">
        <ele>1790</ele>
        <time>2022-07-31T09:46:39Z</time>
      </trkpt>
      <trkpt lat="46.16596" lon="6.6464">
        <ele>1790</ele>
        <time>2022-07-31T09:46:40Z</time>
      </trkpt>
      <trkpt lat="46.16596" lon="6.64642">
        <ele>1790</ele>
        <time>2022-07-31T09:46:41Z</time>
      </trkpt>
      <trkpt lat="46.16596" lon="6.64643">
        <ele>1790</ele>
        <time>2022-07-31T09:46:42Z</time>
      </trkpt>
      <trkpt lat="46.16596" lon="6.64645">
        <ele>1789</ele>
        <time>2022-07-31T09:46:43Z</time>
      </trkpt>
      <trkpt lat="46.16596" lon="6.64647">
        <ele>1789</ele>
        <time>2022-07-31T09:46:44Z</time>
      </trkpt>
      <trkpt lat="46.16596" lon="6.64648">
        <ele>1789</ele>
        <time>2022-07-31T09:46:45Z</time>
      </trkpt>
      <trkpt lat="46.16596" lon="6.64651">
        <ele>1789</ele>
        <time>2022-07-31T09:46:46Z</time>
      </trkpt>
      <trkpt lat="46.16596" lon="6.64653">
        <ele>1789</ele>
        <time>2022-07-31T09:46:47Z</time>
      </trkpt>
      <trkpt lat="46.16596" lon="6.64655">
        <ele>1789</ele>
        <time>2022-07-31T09:46:48Z</time>
      </trkpt>
      <trkpt lat="46.16596" lon="6.64657">
        <ele>1789</ele>
        <time>2022-07-31T09:46:49Z</time>
      </trkpt>
      <trkpt lat="46.16596" lon="6.64659">
        <ele>1788</ele>
        <time>2022-07-31T09:46:50Z</time>
      </trkpt>
      <trkpt lat="46.16597" lon="6.6466">
        <ele>1788</ele>
        <time>2022-07-31T09:46:51Z</time>
      </trkpt>
      <trkpt lat="46.16597" lon="6.64662">
        <ele>1788</ele>
        <time>2022-07-31T09:46:52Z</time>
      </trkpt>
      <trkpt lat="46.16597" lon="6.64663">
        <ele>1788</ele>
        <time>2022-07-31T09:46:53Z</time>
      </trkpt>
      <trkpt lat="46.16597" lon="6.64664">
        <ele>1788</ele>
        <time>2022-07-31T09:46:54Z</time>
      </trkpt>
      <trkpt lat="46.16597" lon="6.64665">
        <ele>1787</ele>
        <time>2022-07-31T09:46:55Z</time>
      </trkpt>
      <trkpt lat="46.16598" lon="6.64666">
        <ele>1787</ele>
        <time>2022-07-31T09:46:56Z</time>
      </trkpt>
      <trkpt lat="46.16598" lon="6.64668">
        <ele>1787</ele>
        <time>2022-07-31T09:46:57Z</time>
      </trkpt>
      <trkpt lat="46.16598" lon="6.64669">
        <ele>1787</ele>
        <time>2022-07-31T09:46:58Z</time>
      </trkpt>
      <trkpt lat="46.16598" lon="6.64671">
        <ele>1786</ele>
        <time>2022-07-31T09:46:59Z</time>
      </trkpt>
      <trkpt lat="46.16598" lon="6.64673">
        <ele>1786</ele>
        <time>2022-07-31T09:47:00Z</time>
      </trkpt>
      <trkpt lat="46.16598" lon="6.64675">
        <ele>1786</ele>
        <time>2022-07-31T09:47:01Z</time>
      </trkpt>
      <trkpt lat="46.16598" lon="6.64678">
        <ele>1786</ele>
        <time>2022-07-31T09:47:02Z</time>
      </trkpt>
      <trkpt lat="46.16599" lon="6.64679">
        <ele>1785</ele>
        <time>2022-07-31T09:47:03Z</time>
      </trkpt>
      <trkpt lat="46.16599" lon="6.64681">
        <ele>1785</ele>
        <time>2022-07-31T09:47:04Z</time>
      </trkpt>
      <trkpt lat="46.16599" lon="6.64683">
        <ele>1785</ele>
        <time>2022-07-31T09:47:05Z</time>
      </trkpt>
      <trkpt lat="46.16599" lon="6.64684">
        <ele>1785</ele>
        <time>2022-07-31T09:47:06Z</time>
      </trkpt>
      <trkpt lat="46.16599" lon="6.64685">
        <ele>1784</ele>
        <time>2022-07-31T09:47:07Z</time>
      </trkpt>
      <trkpt lat="46.16598" lon="6.64686">
        <ele>1784</ele>
        <time>2022-07-31T09:47:08Z</time>
      </trkpt>
      <trkpt lat="46.16598" lon="6.64688">
        <ele>1784</ele>
        <time>2022-07-31T09:47:09Z</time>
      </trkpt>
      <trkpt lat="46.16598" lon="6.64688">
        <ele>1784</ele>
        <time>2022-07-31T09:47:10Z</time>
      </trkpt>
      <trkpt lat="46.16597" lon="6.6469">
        <ele>1784</ele>
        <time>2022-07-31T09:47:11Z</time>
      </trkpt>
      <trkpt lat="46.16597" lon="6.64692">
        <ele>1784</ele>
        <time>2022-07-31T09:47:12Z</time>
      </trkpt>
      <trkpt lat="46.16597" lon="6.64693">
        <ele>1784</ele>
        <time>2022-07-31T09:47:13Z</time>
      </trkpt>
      <trkpt lat="46.16596" lon="6.64696">
        <ele>1784</ele>
        <time>2022-07-31T09:47:14Z</time>
      </trkpt>
      <trkpt lat="46.16596" lon="6.64698">
        <ele>1784</ele>
        <time>2022-07-31T09:47:15Z</time>
      </trkpt>
      <trkpt lat="46.16596" lon="6.647">
        <ele>1784</ele>
        <time>2022-07-31T09:47:16Z</time>
      </trkpt>
      <trkpt lat="46.16596" lon="6.64702">
        <ele>1784</ele>
        <time>2022-07-31T09:47:17Z</time>
      </trkpt>
      <trkpt lat="46.16596" lon="6.64704">
        <ele>1784</ele>
        <time>2022-07-31T09:47:18Z</time>
      </trkpt>
      <trkpt lat="46.16596" lon="6.64705">
        <ele>1783</ele>
        <time>2022-07-31T09:47:19Z</time>
      </trkpt>
      <trkpt lat="46.16595" lon="6.64707">
        <ele>1783</ele>
        <time>2022-07-31T09:47:20Z</time>
      </trkpt>
      <trkpt lat="46.16595" lon="6.64709">
        <ele>1783</ele>
        <time>2022-07-31T09:47:21Z</time>
      </trkpt>
      <trkpt lat="46.16594" lon="6.64711">
        <ele>1783</ele>
        <time>2022-07-31T09:47:22Z</time>
      </trkpt>
      <trkpt lat="46.16594" lon="6.64712">
        <ele>1783</ele>
        <time>2022-07-31T09:47:23Z</time>
      </trkpt>
      <trkpt lat="46.16593" lon="6.64714">
        <ele>1783</ele>
        <time>2022-07-31T09:47:24Z</time>
      </trkpt>
      <trkpt lat="46.16593" lon="6.64716">
        <ele>1783</ele>
        <time>2022-07-31T09:47:25Z</time>
      </trkpt>
      <trkpt lat="46.16593" lon="6.64718">
        <ele>1782</ele>
        <time>2022-07-31T09:47:26Z</time>
      </trkpt>
      <trkpt lat="46.16592" lon="6.6472">
        <ele>1782</ele>
        <time>2022-07-31T09:47:27Z</time>
      </trkpt>
      <trkpt lat="46.16592" lon="6.64721">
        <ele>1782</ele>
        <time>2022-07-31T09:47:28Z</time>
      </trkpt>
      <trkpt lat="46.16592" lon="6.64723">
        <ele>1782</ele>
        <time>2022-07-31T09:47:29Z</time>
      </trkpt>
      <trkpt lat="46.16592" lon="6.64724">
        <ele>1781</ele>
        <time>2022-07-31T09:47:30Z</time>
      </trkpt>
      <trkpt lat="46.16592" lon="6.64726">
        <ele>1781</ele>
        <time>2022-07-31T09:47:31Z</time>
      </trkpt>
      <trkpt lat="46.16592" lon="6.64728">
        <ele>1781</ele>
        <time>2022-07-31T09:47:32Z</time>
      </trkpt>
      <trkpt lat="46.16592" lon="6.64729">
        <ele>1781</ele>
        <time>2022-07-31T09:47:33Z</time>
      </trkpt>
      <trkpt lat="46.16591" lon="6.6473">
        <ele>1780</ele>
        <time>2022-07-31T09:47:34Z</time>
      </trkpt>
      <trkpt lat="46.16591" lon="6.64731">
        <ele>1780</ele>
        <time>2022-07-31T09:47:35Z</time>
      </trkpt>
      <trkpt lat="46.16591" lon="6.64732">
        <ele>1780</ele>
        <time>2022-07-31T09:47:36Z</time>
      </trkpt>
      <trkpt lat="46.1659" lon="6.64734">
        <ele>1780</ele>
        <time>2022-07-31T09:47:37Z</time>
      </trkpt>
      <trkpt lat="46.1659" lon="6.64736">
        <ele>1780</ele>
        <time>2022-07-31T09:47:38Z</time>
      </trkpt>
      <trkpt lat="46.1659" lon="6.64738">
        <ele>1780</ele>
        <time>2022-07-31T09:47:39Z</time>
      </trkpt>
      <trkpt lat="46.1659" lon="6.64739">
        <ele>1779</ele>
        <time>2022-07-31T09:47:40Z</time>
      </trkpt>
      <trkpt lat="46.16589" lon="6.6474">
        <ele>1779</ele>
        <time>2022-07-31T09:47:41Z</time>
      </trkpt>
      <trkpt lat="46.16589" lon="6.64742">
        <ele>1779</ele>
        <time>2022-07-31T09:47:42Z</time>
      </trkpt>
      <trkpt lat="46.16589" lon="6.64743">
        <ele>1779</ele>
        <time>2022-07-31T09:47:43Z</time>
      </trkpt>
      <trkpt lat="46.16588" lon="6.64745">
        <ele>1779</ele>
        <time>2022-07-31T09:47:44Z</time>
      </trkpt>
      <trkpt lat="46.16588" lon="6.64747">
        <ele>1779</ele>
        <time>2022-07-31T09:47:45Z</time>
      </trkpt>
      <trkpt lat="46.16587" lon="6.64748">
        <ele>1779</ele>
        <time>2022-07-31T09:47:46Z</time>
      </trkpt>
      <trkpt lat="46.16587" lon="6.64751">
        <ele>1779</ele>
        <time>2022-07-31T09:47:47Z</time>
      </trkpt>
      <trkpt lat="46.16586" lon="6.64752">
        <ele>1779</ele>
        <time>2022-07-31T09:47:48Z</time>
      </trkpt>
      <trkpt lat="46.16585" lon="6.64754">
        <ele>1779</ele>
        <time>2022-07-31T09:47:49Z</time>
      </trkpt>
      <trkpt lat="46.16585" lon="6.64755">
        <ele>1779</ele>
        <time>2022-07-31T09:47:50Z</time>
      </trkpt>
      <trkpt lat="46.16585" lon="6.64757">
        <ele>1778</ele>
        <time>2022-07-31T09:47:51Z</time>
      </trkpt>
      <trkpt lat="46.16585" lon="6.64759">
        <ele>1778</ele>
        <time>2022-07-31T09:47:52Z</time>
      </trkpt>
      <trkpt lat="46.16585" lon="6.6476">
        <ele>1778</ele>
        <time>2022-07-31T09:47:53Z</time>
      </trkpt>
      <trkpt lat="46.16585" lon="6.64761">
        <ele>1778</ele>
        <time>2022-07-31T09:47:54Z</time>
      </trkpt>
      <trkpt lat="46.16585" lon="6.64762">
        <ele>1778</ele>
        <time>2022-07-31T09:47:55Z</time>
      </trkpt>
      <trkpt lat="46.16584" lon="6.64763">
        <ele>1778</ele>
        <time>2022-07-31T09:47:56Z</time>
      </trkpt>
      <trkpt lat="46.16584" lon="6.64764">
        <ele>1778</ele>
        <time>2022-07-31T09:47:57Z</time>
      </trkpt>
      <trkpt lat="46.16583" lon="6.64765">
        <ele>1778</ele>
        <time>2022-07-31T09:47:58Z</time>
      </trkpt>
      <trkpt lat="46.16582" lon="6.64767">
        <ele>1778</ele>
        <time>2022-07-31T09:47:59Z</time>
      </trkpt>
      <trkpt lat="46.16582" lon="6.64769">
        <ele>1778</ele>
        <time>2022-07-31T09:48:00Z</time>
      </trkpt>
      <trkpt lat="46.16581" lon="6.64769">
        <ele>1778</ele>
        <time>2022-07-31T09:48:01Z</time>
      </trkpt>
      <trkpt lat="46.1658" lon="6.64771">
        <ele>1778</ele>
        <time>2022-07-31T09:48:02Z</time>
      </trkpt>
      <trkpt lat="46.16578" lon="6.64772">
        <ele>1778</ele>
        <time>2022-07-31T09:48:03Z</time>
      </trkpt>
      <trkpt lat="46.16577" lon="6.64773">
        <ele>1778</ele>
        <time>2022-07-31T09:48:04Z</time>
      </trkpt>
      <trkpt lat="46.16576" lon="6.64775">
        <ele>1778</ele>
        <time>2022-07-31T09:48:05Z</time>
      </trkpt>
      <trkpt lat="46.16576" lon="6.64777">
        <ele>1777</ele>
        <time>2022-07-31T09:48:06Z</time>
      </trkpt>
      <trkpt lat="46.16575" lon="6.64778">
        <ele>1777</ele>
        <time>2022-07-31T09:48:07Z</time>
      </trkpt>
      <trkpt lat="46.16575" lon="6.6478">
        <ele>1777</ele>
        <time>2022-07-31T09:48:08Z</time>
      </trkpt>
      <trkpt lat="46.16575" lon="6.64781">
        <ele>1777</ele>
        <time>2022-07-31T09:48:09Z</time>
      </trkpt>
      <trkpt lat="46.16574" lon="6.64782">
        <ele>1777</ele>
        <time>2022-07-31T09:48:10Z</time>
      </trkpt>
      <trkpt lat="46.16574" lon="6.64784">
        <ele>1777</ele>
        <time>2022-07-31T09:48:11Z</time>
      </trkpt>
      <trkpt lat="46.16574" lon="6.64786">
        <ele>1777</ele>
        <time>2022-07-31T09:48:12Z</time>
      </trkpt>
      <trkpt lat="46.16573" lon="6.64788">
        <ele>1776</ele>
        <time>2022-07-31T09:48:13Z</time>
      </trkpt>
      <trkpt lat="46.16573" lon="6.6479">
        <ele>1776</ele>
        <time>2022-07-31T09:48:14Z</time>
      </trkpt>
      <trkpt lat="46.16573" lon="6.64791">
        <ele>1776</ele>
        <time>2022-07-31T09:48:15Z</time>
      </trkpt>
      <trkpt lat="46.16573" lon="6.64793">
        <ele>1776</ele>
        <time>2022-07-31T09:48:16Z</time>
      </trkpt>
      <trkpt lat="46.16571" lon="6.64795">
        <ele>1775</ele>
        <time>2022-07-31T09:48:17Z</time>
      </trkpt>
      <trkpt lat="46.16571" lon="6.64797">
        <ele>1775</ele>
        <time>2022-07-31T09:48:18Z</time>
      </trkpt>
      <trkpt lat="46.16571" lon="6.64798">
        <ele>1775</ele>
        <time>2022-07-31T09:48:19Z</time>
      </trkpt>
      <trkpt lat="46.1657" lon="6.64799">
        <ele>1775</ele>
        <time>2022-07-31T09:48:20Z</time>
      </trkpt>
      <trkpt lat="46.1657" lon="6.648">
        <ele>1774</ele>
        <time>2022-07-31T09:48:21Z</time>
      </trkpt>
      <trkpt lat="46.1657" lon="6.64801">
        <ele>1774</ele>
        <time>2022-07-31T09:48:22Z</time>
      </trkpt>
      <trkpt lat="46.16569" lon="6.64802">
        <ele>1774</ele>
        <time>2022-07-31T09:48:23Z</time>
      </trkpt>
      <trkpt lat="46.16569" lon="6.64803">
        <ele>1774</ele>
        <time>2022-07-31T09:48:24Z</time>
      </trkpt>
      <trkpt lat="46.16569" lon="6.64805">
        <ele>1774</ele>
        <time>2022-07-31T09:48:25Z</time>
      </trkpt>
      <trkpt lat="46.16568" lon="6.64806">
        <ele>1773</ele>
        <time>2022-07-31T09:48:26Z</time>
      </trkpt>
      <trkpt lat="46.16568" lon="6.64808">
        <ele>1773</ele>
        <time>2022-07-31T09:48:27Z</time>
      </trkpt>
      <trkpt lat="46.16567" lon="6.6481">
        <ele>1773</ele>
        <time>2022-07-31T09:48:28Z</time>
      </trkpt>
      <trkpt lat="46.16567" lon="6.64812">
        <ele>1773</ele>
        <time>2022-07-31T09:48:29Z</time>
      </trkpt>
      <trkpt lat="46.16566" lon="6.64814">
        <ele>1772</ele>
        <time>2022-07-31T09:48:30Z</time>
      </trkpt>
      <trkpt lat="46.16565" lon="6.64816">
        <ele>1772</ele>
        <time>2022-07-31T09:48:31Z</time>
      </trkpt>
      <trkpt lat="46.16565" lon="6.64818">
        <ele>1772</ele>
        <time>2022-07-31T09:48:32Z</time>
      </trkpt>
      <trkpt lat="46.16563" lon="6.6482">
        <ele>1772</ele>
        <time>2022-07-31T09:48:33Z</time>
      </trkpt>
      <trkpt lat="46.16562" lon="6.64821">
        <ele>1771</ele>
        <time>2022-07-31T09:48:34Z</time>
      </trkpt>
      <trkpt lat="46.16562" lon="6.64822">
        <ele>1771</ele>
        <time>2022-07-31T09:48:35Z</time>
      </trkpt>
      <trkpt lat="46.16562" lon="6.64825">
        <ele>1771</ele>
        <time>2022-07-31T09:48:36Z</time>
      </trkpt>
      <trkpt lat="46.16562" lon="6.64827">
        <ele>1771</ele>
        <time>2022-07-31T09:48:37Z</time>
      </trkpt>
      <trkpt lat="46.16562" lon="6.64829">
        <ele>1771</ele>
        <time>2022-07-31T09:48:38Z</time>
      </trkpt>
      <trkpt lat="46.16562" lon="6.64831">
        <ele>1771</ele>
        <time>2022-07-31T09:48:39Z</time>
      </trkpt>
      <trkpt lat="46.16562" lon="6.64833">
        <ele>1771</ele>
        <time>2022-07-31T09:48:40Z</time>
      </trkpt>
      <trkpt lat="46.16562" lon="6.64834">
        <ele>1770</ele>
        <time>2022-07-31T09:48:41Z</time>
      </trkpt>
      <trkpt lat="46.16561" lon="6.64836">
        <ele>1770</ele>
        <time>2022-07-31T09:48:42Z</time>
      </trkpt>
      <trkpt lat="46.1656" lon="6.64837">
        <ele>1770</ele>
        <time>2022-07-31T09:48:43Z</time>
      </trkpt>
      <trkpt lat="46.16559" lon="6.64838">
        <ele>1770</ele>
        <time>2022-07-31T09:48:44Z</time>
      </trkpt>
      <trkpt lat="46.16559" lon="6.6484">
        <ele>1770</ele>
        <time>2022-07-31T09:48:45Z</time>
      </trkpt>
      <trkpt lat="46.16559" lon="6.64842">
        <ele>1770</ele>
        <time>2022-07-31T09:48:46Z</time>
      </trkpt>
      <trkpt lat="46.16558" lon="6.64844">
        <ele>1770</ele>
        <time>2022-07-31T09:48:47Z</time>
      </trkpt>
      <trkpt lat="46.16558" lon="6.64845">
        <ele>1770</ele>
        <time>2022-07-31T09:48:48Z</time>
      </trkpt>
      <trkpt lat="46.16558" lon="6.64846">
        <ele>1770</ele>
        <time>2022-07-31T09:48:49Z</time>
      </trkpt>
      <trkpt lat="46.16558" lon="6.64848">
        <ele>1770</ele>
        <time>2022-07-31T09:48:50Z</time>
      </trkpt>
      <trkpt lat="46.16557" lon="6.64849">
        <ele>1770</ele>
        <time>2022-07-31T09:48:51Z</time>
      </trkpt>
      <trkpt lat="46.16556" lon="6.6485">
        <ele>1769</ele>
        <time>2022-07-31T09:48:52Z</time>
      </trkpt>
      <trkpt lat="46.16555" lon="6.64852">
        <ele>1769</ele>
        <time>2022-07-31T09:48:53Z</time>
      </trkpt>
      <trkpt lat="46.16554" lon="6.64853">
        <ele>1769</ele>
        <time>2022-07-31T09:48:54Z</time>
      </trkpt>
      <trkpt lat="46.16554" lon="6.64855">
        <ele>1769</ele>
        <time>2022-07-31T09:48:55Z</time>
      </trkpt>
      <trkpt lat="46.16554" lon="6.64856">
        <ele>1769</ele>
        <time>2022-07-31T09:48:56Z</time>
      </trkpt>
      <trkpt lat="46.16554" lon="6.64858">
        <ele>1769</ele>
        <time>2022-07-31T09:48:57Z</time>
      </trkpt>
      <trkpt lat="46.16554" lon="6.6486">
        <ele>1769</ele>
        <time>2022-07-31T09:48:58Z</time>
      </trkpt>
      <trkpt lat="46.16554" lon="6.64862">
        <ele>1769</ele>
        <time>2022-07-31T09:48:59Z</time>
      </trkpt>
      <trkpt lat="46.16553" lon="6.64865">
        <ele>1769</ele>
        <time>2022-07-31T09:49:00Z</time>
      </trkpt>
      <trkpt lat="46.16553" lon="6.64867">
        <ele>1769</ele>
        <time>2022-07-31T09:49:01Z</time>
      </trkpt>
      <trkpt lat="46.16553" lon="6.64868">
        <ele>1769</ele>
        <time>2022-07-31T09:49:02Z</time>
      </trkpt>
      <trkpt lat="46.16552" lon="6.64869">
        <ele>1769</ele>
        <time>2022-07-31T09:49:03Z</time>
      </trkpt>
      <trkpt lat="46.16552" lon="6.64871">
        <ele>1769</ele>
        <time>2022-07-31T09:49:04Z</time>
      </trkpt>
      <trkpt lat="46.16552" lon="6.64873">
        <ele>1769</ele>
        <time>2022-07-31T09:49:05Z</time>
      </trkpt>
      <trkpt lat="46.16552" lon="6.64875">
        <ele>1769</ele>
        <time>2022-07-31T09:49:06Z</time>
      </trkpt>
      <trkpt lat="46.16552" lon="6.64876">
        <ele>1769</ele>
        <time>2022-07-31T09:49:07Z</time>
      </trkpt>
      <trkpt lat="46.16553" lon="6.64876">
        <ele>1769</ele>
        <time>2022-07-31T09:49:08Z</time>
      </trkpt>
      <trkpt lat="46.16553" lon="6.64877">
        <ele>1769</ele>
        <time>2022-07-31T09:49:09Z</time>
      </trkpt>
      <trkpt lat="46.16552" lon="6.64879">
        <ele>1769</ele>
        <time>2022-07-31T09:49:10Z</time>
      </trkpt>
      <trkpt lat="46.16552" lon="6.64882">
        <ele>1769</ele>
        <time>2022-07-31T09:49:11Z</time>
      </trkpt>
      <trkpt lat="46.16553" lon="6.64883">
        <ele>1769</ele>
        <time>2022-07-31T09:49:12Z</time>
      </trkpt>
      <trkpt lat="46.16552" lon="6.64886">
        <ele>1769</ele>
        <time>2022-07-31T09:49:13Z</time>
      </trkpt>
      <trkpt lat="46.16552" lon="6.64887">
        <ele>1768</ele>
        <time>2022-07-31T09:49:14Z</time>
      </trkpt>
      <trkpt lat="46.16552" lon="6.64889">
        <ele>1768</ele>
        <time>2022-07-31T09:49:15Z</time>
      </trkpt>
      <trkpt lat="46.16552" lon="6.6489">
        <ele>1768</ele>
        <time>2022-07-31T09:49:16Z</time>
      </trkpt>
      <trkpt lat="46.16552" lon="6.64891">
        <ele>1768</ele>
        <time>2022-07-31T09:49:17Z</time>
      </trkpt>
      <trkpt lat="46.16551" lon="6.64892">
        <ele>1768</ele>
        <time>2022-07-31T09:49:18Z</time>
      </trkpt>
      <trkpt lat="46.16551" lon="6.64894">
        <ele>1767</ele>
        <time>2022-07-31T09:49:19Z</time>
      </trkpt>
      <trkpt lat="46.16551" lon="6.64896">
        <ele>1767</ele>
        <time>2022-07-31T09:49:20Z</time>
      </trkpt>
      <trkpt lat="46.16551" lon="6.64897">
        <ele>1767</ele>
        <time>2022-07-31T09:49:21Z</time>
      </trkpt>
      <trkpt lat="46.16551" lon="6.64899">
        <ele>1767</ele>
        <time>2022-07-31T09:49:22Z</time>
      </trkpt>
      <trkpt lat="46.16551" lon="6.64901">
        <ele>1767</ele>
        <time>2022-07-31T09:49:23Z</time>
      </trkpt>
      <trkpt lat="46.1655" lon="6.64903">
        <ele>1767</ele>
        <time>2022-07-31T09:49:24Z</time>
      </trkpt>
      <trkpt lat="46.16551" lon="6.64904">
        <ele>1766</ele>
        <time>2022-07-31T09:49:25Z</time>
      </trkpt>
      <trkpt lat="46.16551" lon="6.64906">
        <ele>1766</ele>
        <time>2022-07-31T09:49:26Z</time>
      </trkpt>
      <trkpt lat="46.16551" lon="6.64907">
        <ele>1766</ele>
        <time>2022-07-31T09:49:27Z</time>
      </trkpt>
      <trkpt lat="46.16551" lon="6.64909">
        <ele>1766</ele>
        <time>2022-07-31T09:49:28Z</time>
      </trkpt>
      <trkpt lat="46.16552" lon="6.64911">
        <ele>1765</ele>
        <time>2022-07-31T09:49:29Z</time>
      </trkpt>
      <trkpt lat="46.16551" lon="6.64912">
        <ele>1765</ele>
        <time>2022-07-31T09:49:30Z</time>
      </trkpt>
      <trkpt lat="46.16551" lon="6.64912">
        <ele>1765</ele>
        <time>2022-07-31T09:49:31Z</time>
      </trkpt>
      <trkpt lat="46.1655" lon="6.64914">
        <ele>1764</ele>
        <time>2022-07-31T09:49:32Z</time>
      </trkpt>
      <trkpt lat="46.16549" lon="6.64915">
        <ele>1764</ele>
        <time>2022-07-31T09:49:33Z</time>
      </trkpt>
      <trkpt lat="46.16548" lon="6.64916">
        <ele>1764</ele>
        <time>2022-07-31T09:49:34Z</time>
      </trkpt>
      <trkpt lat="46.16548" lon="6.64916">
        <ele>1764</ele>
        <time>2022-07-31T09:49:35Z</time>
      </trkpt>
      <trkpt lat="46.16546" lon="6.64916">
        <ele>1764</ele>
        <time>2022-07-31T09:49:36Z</time>
      </trkpt>
      <trkpt lat="46.16546" lon="6.64916">
        <ele>1763</ele>
        <time>2022-07-31T09:49:37Z</time>
      </trkpt>
      <trkpt lat="46.16545" lon="6.64915">
        <ele>1763</ele>
        <time>2022-07-31T09:49:38Z</time>
      </trkpt>
      <trkpt lat="46.16543" lon="6.64915">
        <ele>1763</ele>
        <time>2022-07-31T09:49:39Z</time>
      </trkpt>
      <trkpt lat="46.16542" lon="6.64914">
        <ele>1763</ele>
        <time>2022-07-31T09:49:40Z</time>
      </trkpt>
      <trkpt lat="46.16541" lon="6.64913">
        <ele>1763</ele>
        <time>2022-07-31T09:49:41Z</time>
      </trkpt>
      <trkpt lat="46.1654" lon="6.64911">
        <ele>1763</ele>
        <time>2022-07-31T09:49:42Z</time>
      </trkpt>
      <trkpt lat="46.16539" lon="6.6491">
        <ele>1763</ele>
        <time>2022-07-31T09:49:43Z</time>
      </trkpt>
      <trkpt lat="46.16539" lon="6.64909">
        <ele>1763</ele>
        <time>2022-07-31T09:49:44Z</time>
      </trkpt>
      <trkpt lat="46.16539" lon="6.64908">
        <ele>1763</ele>
        <time>2022-07-31T09:49:45Z</time>
      </trkpt>
      <trkpt lat="46.16538" lon="6.64907">
        <ele>1763</ele>
        <time>2022-07-31T09:49:46Z</time>
      </trkpt>
      <trkpt lat="46.16538" lon="6.64905">
        <ele>1763</ele>
        <time>2022-07-31T09:49:47Z</time>
      </trkpt>
      <trkpt lat="46.16538" lon="6.64904">
        <ele>1763</ele>
        <time>2022-07-31T09:49:48Z</time>
      </trkpt>
      <trkpt lat="46.16537" lon="6.64904">
        <ele>1763</ele>
        <time>2022-07-31T09:49:49Z</time>
      </trkpt>
      <trkpt lat="46.16536" lon="6.64903">
        <ele>1763</ele>
        <time>2022-07-31T09:49:50Z</time>
      </trkpt>
      <trkpt lat="46.16536" lon="6.64902">
        <ele>1763</ele>
        <time>2022-07-31T09:49:51Z</time>
      </trkpt>
      <trkpt lat="46.16534" lon="6.64901">
        <ele>1763</ele>
        <time>2022-07-31T09:49:52Z</time>
      </trkpt>
      <trkpt lat="46.16533" lon="6.64901">
        <ele>1763</ele>
        <time>2022-07-31T09:49:53Z</time>
      </trkpt>
      <trkpt lat="46.16533" lon="6.649">
        <ele>1763</ele>
        <time>2022-07-31T09:49:54Z</time>
      </trkpt>
      <trkpt lat="46.16532" lon="6.64899">
        <ele>1763</ele>
        <time>2022-07-31T09:49:55Z</time>
      </trkpt>
      <trkpt lat="46.16531" lon="6.64898">
        <ele>1762</ele>
        <time>2022-07-31T09:49:56Z</time>
      </trkpt>
      <trkpt lat="46.1653" lon="6.64897">
        <ele>1762</ele>
        <time>2022-07-31T09:49:57Z</time>
      </trkpt>
      <trkpt lat="46.16529" lon="6.64897">
        <ele>1762</ele>
        <time>2022-07-31T09:49:58Z</time>
      </trkpt>
      <trkpt lat="46.16527" lon="6.64897">
        <ele>1762</ele>
        <time>2022-07-31T09:49:59Z</time>
      </trkpt>
      <trkpt lat="46.16526" lon="6.64896">
        <ele>1762</ele>
        <time>2022-07-31T09:50:00Z</time>
      </trkpt>
      <trkpt lat="46.16526" lon="6.64896">
        <ele>1762</ele>
        <time>2022-07-31T09:50:01Z</time>
      </trkpt>
      <trkpt lat="46.16525" lon="6.64896">
        <ele>1762</ele>
        <time>2022-07-31T09:50:02Z</time>
      </trkpt>
      <trkpt lat="46.16524" lon="6.64895">
        <ele>1762</ele>
        <time>2022-07-31T09:50:03Z</time>
      </trkpt>
      <trkpt lat="46.16522" lon="6.64895">
        <ele>1761</ele>
        <time>2022-07-31T09:50:04Z</time>
      </trkpt>
      <trkpt lat="46.16521" lon="6.64895">
        <ele>1761</ele>
        <time>2022-07-31T09:50:05Z</time>
      </trkpt>
      <trkpt lat="46.1652" lon="6.64894">
        <ele>1761</ele>
        <time>2022-07-31T09:50:06Z</time>
      </trkpt>
      <trkpt lat="46.16518" lon="6.64894">
        <ele>1760</ele>
        <time>2022-07-31T09:50:07Z</time>
      </trkpt>
      <trkpt lat="46.16518" lon="6.64894">
        <ele>1760</ele>
        <time>2022-07-31T09:50:08Z</time>
      </trkpt>
      <trkpt lat="46.16517" lon="6.64896">
        <ele>1760</ele>
        <time>2022-07-31T09:50:09Z</time>
      </trkpt>
      <trkpt lat="46.16516" lon="6.64898">
        <ele>1759</ele>
        <time>2022-07-31T09:50:10Z</time>
      </trkpt>
      <trkpt lat="46.16516" lon="6.649">
        <ele>1759</ele>
        <time>2022-07-31T09:50:11Z</time>
      </trkpt>
      <trkpt lat="46.16515" lon="6.64901">
        <ele>1759</ele>
        <time>2022-07-31T09:50:12Z</time>
      </trkpt>
      <trkpt lat="46.16516" lon="6.64903">
        <ele>1758</ele>
        <time>2022-07-31T09:50:13Z</time>
      </trkpt>
      <trkpt lat="46.16516" lon="6.64905">
        <ele>1758</ele>
        <time>2022-07-31T09:50:14Z</time>
      </trkpt>
      <trkpt lat="46.16515" lon="6.64908">
        <ele>1758</ele>
        <time>2022-07-31T09:50:15Z</time>
      </trkpt>
      <trkpt lat="46.16514" lon="6.6491">
        <ele>1758</ele>
        <time>2022-07-31T09:50:16Z</time>
      </trkpt>
      <trkpt lat="46.16513" lon="6.64913">
        <ele>1757</ele>
        <time>2022-07-31T09:50:17Z</time>
      </trkpt>
      <trkpt lat="46.16513" lon="6.64915">
        <ele>1757</ele>
        <time>2022-07-31T09:50:18Z</time>
      </trkpt>
      <trkpt lat="46.16513" lon="6.64917">
        <ele>1757</ele>
        <time>2022-07-31T09:50:19Z</time>
      </trkpt>
      <trkpt lat="46.16514" lon="6.64919">
        <ele>1757</ele>
        <time>2022-07-31T09:50:20Z</time>
      </trkpt>
      <trkpt lat="46.16513" lon="6.6492">
        <ele>1756</ele>
        <time>2022-07-31T09:50:21Z</time>
      </trkpt>
      <trkpt lat="46.16512" lon="6.64921">
        <ele>1756</ele>
        <time>2022-07-31T09:50:22Z</time>
      </trkpt>
      <trkpt lat="46.16513" lon="6.64923">
        <ele>1756</ele>
        <time>2022-07-31T09:50:23Z</time>
      </trkpt>
      <trkpt lat="46.16513" lon="6.64925">
        <ele>1756</ele>
        <time>2022-07-31T09:50:24Z</time>
      </trkpt>
      <trkpt lat="46.16513" lon="6.64927">
        <ele>1756</ele>
        <time>2022-07-31T09:50:25Z</time>
      </trkpt>
      <trkpt lat="46.16513" lon="6.6493">
        <ele>1756</ele>
        <time>2022-07-31T09:50:26Z</time>
      </trkpt>
      <trkpt lat="46.16513" lon="6.64932">
        <ele>1756</ele>
        <time>2022-07-31T09:50:27Z</time>
      </trkpt>
      <trkpt lat="46.16513" lon="6.64934">
        <ele>1755</ele>
        <time>2022-07-31T09:50:28Z</time>
      </trkpt>
      <trkpt lat="46.16513" lon="6.64936">
        <ele>1755</ele>
        <time>2022-07-31T09:50:29Z</time>
      </trkpt>
      <trkpt lat="46.16513" lon="6.64938">
        <ele>1755</ele>
        <time>2022-07-31T09:50:30Z</time>
      </trkpt>
      <trkpt lat="46.16514" lon="6.6494">
        <ele>1755</ele>
        <time>2022-07-31T09:50:31Z</time>
      </trkpt>
      <trkpt lat="46.16514" lon="6.64942">
        <ele>1755</ele>
        <time>2022-07-31T09:50:32Z</time>
      </trkpt>
      <trkpt lat="46.16514" lon="6.64943">
        <ele>1755</ele>
        <time>2022-07-31T09:50:33Z</time>
      </trkpt>
      <trkpt lat="46.16515" lon="6.64944">
        <ele>1754</ele>
        <time>2022-07-31T09:50:34Z</time>
      </trkpt>
      <trkpt lat="46.16515" lon="6.64945">
        <ele>1754</ele>
        <time>2022-07-31T09:50:35Z</time>
      </trkpt>
      <trkpt lat="46.16516" lon="6.64947">
        <ele>1754</ele>
        <time>2022-07-31T09:50:36Z</time>
      </trkpt>
      <trkpt lat="46.16516" lon="6.64949">
        <ele>1754</ele>
        <time>2022-07-31T09:50:37Z</time>
      </trkpt>
      <trkpt lat="46.16517" lon="6.64951">
        <ele>1754</ele>
        <time>2022-07-31T09:50:38Z</time>
      </trkpt>
      <trkpt lat="46.16517" lon="6.64953">
        <ele>1753</ele>
        <time>2022-07-31T09:50:39Z</time>
      </trkpt>
      <trkpt lat="46.16517" lon="6.64954">
        <ele>1753</ele>
        <time>2022-07-31T09:50:40Z</time>
      </trkpt>
      <trkpt lat="46.16518" lon="6.64956">
        <ele>1753</ele>
        <time>2022-07-31T09:50:41Z</time>
      </trkpt>
      <trkpt lat="46.16518" lon="6.64957">
        <ele>1753</ele>
        <time>2022-07-31T09:50:42Z</time>
      </trkpt>
      <trkpt lat="46.16518" lon="6.64957">
        <ele>1752</ele>
        <time>2022-07-31T09:50:43Z</time>
      </trkpt>
      <trkpt lat="46.16518" lon="6.64959">
        <ele>1752</ele>
        <time>2022-07-31T09:50:44Z</time>
      </trkpt>
      <trkpt lat="46.16518" lon="6.64961">
        <ele>1752</ele>
        <time>2022-07-31T09:50:45Z</time>
      </trkpt>
      <trkpt lat="46.16518" lon="6.64962">
        <ele>1752</ele>
        <time>2022-07-31T09:50:46Z</time>
      </trkpt>
      <trkpt lat="46.16518" lon="6.64964">
        <ele>1751</ele>
        <time>2022-07-31T09:50:47Z</time>
      </trkpt>
      <trkpt lat="46.16519" lon="6.64964">
        <ele>1751</ele>
        <time>2022-07-31T09:50:48Z</time>
      </trkpt>
      <trkpt lat="46.16519" lon="6.64966">
        <ele>1751</ele>
        <time>2022-07-31T09:50:49Z</time>
      </trkpt>
      <trkpt lat="46.16519" lon="6.64968">
        <ele>1751</ele>
        <time>2022-07-31T09:50:50Z</time>
      </trkpt>
      <trkpt lat="46.16519" lon="6.64971">
        <ele>1750</ele>
        <time>2022-07-31T09:50:51Z</time>
      </trkpt>
      <trkpt lat="46.16518" lon="6.64973">
        <ele>1750</ele>
        <time>2022-07-31T09:50:52Z</time>
      </trkpt>
      <trkpt lat="46.16518" lon="6.64975">
        <ele>1750</ele>
        <time>2022-07-31T09:50:53Z</time>
      </trkpt>
      <trkpt lat="46.16518" lon="6.64978">
        <ele>1750</ele>
        <time>2022-07-31T09:50:54Z</time>
      </trkpt>
      <trkpt lat="46.16518" lon="6.6498">
        <ele>1750</ele>
        <time>2022-07-31T09:50:55Z</time>
      </trkpt>
      <trkpt lat="46.16518" lon="6.64981">
        <ele>1749</ele>
        <time>2022-07-31T09:50:56Z</time>
      </trkpt>
      <trkpt lat="46.16518" lon="6.64983">
        <ele>1749</ele>
        <time>2022-07-31T09:50:57Z</time>
      </trkpt>
      <trkpt lat="46.16518" lon="6.64985">
        <ele>1749</ele>
        <time>2022-07-31T09:50:58Z</time>
      </trkpt>
      <trkpt lat="46.16518" lon="6.64986">
        <ele>1749</ele>
        <time>2022-07-31T09:50:59Z</time>
      </trkpt>
      <trkpt lat="46.16518" lon="6.64987">
        <ele>1749</ele>
        <time>2022-07-31T09:51:00Z</time>
      </trkpt>
      <trkpt lat="46.16518" lon="6.64988">
        <ele>1749</ele>
        <time>2022-07-31T09:51:01Z</time>
      </trkpt>
      <trkpt lat="46.16517" lon="6.6499">
        <ele>1749</ele>
        <time>2022-07-31T09:51:02Z</time>
      </trkpt>
      <trkpt lat="46.16517" lon="6.64992">
        <ele>1749</ele>
        <time>2022-07-31T09:51:03Z</time>
      </trkpt>
      <trkpt lat="46.16517" lon="6.64993">
        <ele>1750</ele>
        <time>2022-07-31T09:51:04Z</time>
      </trkpt>
      <trkpt lat="46.16518" lon="6.64995">
        <ele>1750</ele>
        <time>2022-07-31T09:51:05Z</time>
      </trkpt>
      <trkpt lat="46.16518" lon="6.64996">
        <ele>1750</ele>
        <time>2022-07-31T09:51:06Z</time>
      </trkpt>
      <trkpt lat="46.16519" lon="6.64997">
        <ele>1750</ele>
        <time>2022-07-31T09:51:07Z</time>
      </trkpt>
      <trkpt lat="46.16519" lon="6.64998">
        <ele>1749</ele>
        <time>2022-07-31T09:51:08Z</time>
      </trkpt>
      <trkpt lat="46.1652" lon="6.64998">
        <ele>1749</ele>
        <time>2022-07-31T09:51:09Z</time>
      </trkpt>
      <trkpt lat="46.16521" lon="6.64999">
        <ele>1749</ele>
        <time>2022-07-31T09:51:10Z</time>
      </trkpt>
      <trkpt lat="46.16521" lon="6.64999">
        <ele>1749</ele>
        <time>2022-07-31T09:51:11Z</time>
      </trkpt>
      <trkpt lat="46.16522" lon="6.65">
        <ele>1749</ele>
        <time>2022-07-31T09:51:12Z</time>
      </trkpt>
      <trkpt lat="46.16522" lon="6.65002">
        <ele>1749</ele>
        <time>2022-07-31T09:51:13Z</time>
      </trkpt>
      <trkpt lat="46.16523" lon="6.65004">
        <ele>1749</ele>
        <time>2022-07-31T09:51:14Z</time>
      </trkpt>
      <trkpt lat="46.16523" lon="6.65005">
        <ele>1748</ele>
        <time>2022-07-31T09:51:15Z</time>
      </trkpt>
      <trkpt lat="46.16522" lon="6.65007">
        <ele>1748</ele>
        <time>2022-07-31T09:51:16Z</time>
      </trkpt>
      <trkpt lat="46.16523" lon="6.65009">
        <ele>1748</ele>
        <time>2022-07-31T09:51:17Z</time>
      </trkpt>
      <trkpt lat="46.16523" lon="6.65011">
        <ele>1748</ele>
        <time>2022-07-31T09:51:18Z</time>
      </trkpt>
      <trkpt lat="46.16523" lon="6.65011">
        <ele>1748</ele>
        <time>2022-07-31T09:51:19Z</time>
      </trkpt>
      <trkpt lat="46.16523" lon="6.65015">
        <ele>1748</ele>
        <time>2022-07-31T09:51:20Z</time>
      </trkpt>
      <trkpt lat="46.16523" lon="6.65018">
        <ele>1747</ele>
        <time>2022-07-31T09:51:21Z</time>
      </trkpt>
      <trkpt lat="46.16524" lon="6.65021">
        <ele>1747</ele>
        <time>2022-07-31T09:51:22Z</time>
      </trkpt>
      <trkpt lat="46.16525" lon="6.65023">
        <ele>1747</ele>
        <time>2022-07-31T09:51:23Z</time>
      </trkpt>
      <trkpt lat="46.16525" lon="6.65026">
        <ele>1747</ele>
        <time>2022-07-31T09:51:24Z</time>
      </trkpt>
      <trkpt lat="46.16525" lon="6.65027">
        <ele>1747</ele>
        <time>2022-07-31T09:51:25Z</time>
      </trkpt>
      <trkpt lat="46.16526" lon="6.65028">
        <ele>1746</ele>
        <time>2022-07-31T09:51:26Z</time>
      </trkpt>
      <trkpt lat="46.16526" lon="6.6503">
        <ele>1746</ele>
        <time>2022-07-31T09:51:27Z</time>
      </trkpt>
      <trkpt lat="46.16526" lon="6.65031">
        <ele>1746</ele>
        <time>2022-07-31T09:51:28Z</time>
      </trkpt>
      <trkpt lat="46.16527" lon="6.65033">
        <ele>1746</ele>
        <time>2022-07-31T09:51:29Z</time>
      </trkpt>
      <trkpt lat="46.16529" lon="6.65034">
        <ele>1746</ele>
        <time>2022-07-31T09:51:30Z</time>
      </trkpt>
      <trkpt lat="46.16529" lon="6.65036">
        <ele>1745</ele>
        <time>2022-07-31T09:51:31Z</time>
      </trkpt>
      <trkpt lat="46.1653" lon="6.65037">
        <ele>1745</ele>
        <time>2022-07-31T09:51:32Z</time>
      </trkpt>
      <trkpt lat="46.1653" lon="6.65038">
        <ele>1745</ele>
        <time>2022-07-31T09:51:33Z</time>
      </trkpt>
      <trkpt lat="46.1653" lon="6.6504">
        <ele>1744</ele>
        <time>2022-07-31T09:51:34Z</time>
      </trkpt>
      <trkpt lat="46.1653" lon="6.65042">
        <ele>1744</ele>
        <time>2022-07-31T09:51:35Z</time>
      </trkpt>
      <trkpt lat="46.16531" lon="6.65045">
        <ele>1744</ele>
        <time>2022-07-31T09:51:36Z</time>
      </trkpt>
      <trkpt lat="46.16531" lon="6.65046">
        <ele>1744</ele>
        <time>2022-07-31T09:51:37Z</time>
      </trkpt>
      <trkpt lat="46.16532" lon="6.65048">
        <ele>1743</ele>
        <time>2022-07-31T09:51:38Z</time>
      </trkpt>
      <trkpt lat="46.16532" lon="6.6505">
        <ele>1743</ele>
        <time>2022-07-31T09:51:39Z</time>
      </trkpt>
      <trkpt lat="46.16533" lon="6.65052">
        <ele>1743</ele>
        <time>2022-07-31T09:51:40Z</time>
      </trkpt>
      <trkpt lat="46.16533" lon="6.65053">
        <ele>1743</ele>
        <time>2022-07-31T09:51:41Z</time>
      </trkpt>
      <trkpt lat="46.16533" lon="6.65055">
        <ele>1742</ele>
        <time>2022-07-31T09:51:42Z</time>
      </trkpt>
      <trkpt lat="46.16534" lon="6.65057">
        <ele>1742</ele>
        <time>2022-07-31T09:51:43Z</time>
      </trkpt>
      <trkpt lat="46.16534" lon="6.65059">
        <ele>1742</ele>
        <time>2022-07-31T09:51:44Z</time>
      </trkpt>
      <trkpt lat="46.16536" lon="6.65061">
        <ele>1741</ele>
        <time>2022-07-31T09:51:45Z</time>
      </trkpt>
      <trkpt lat="46.16536" lon="6.65063">
        <ele>1741</ele>
        <time>2022-07-31T09:51:46Z</time>
      </trkpt>
      <trkpt lat="46.16536" lon="6.65063">
        <ele>1741</ele>
        <time>2022-07-31T09:51:47Z</time>
      </trkpt>
      <trkpt lat="46.16536" lon="6.65063">
        <ele>1741</ele>
        <time>2022-07-31T09:51:48Z</time>
      </trkpt>
      <trkpt lat="46.16536" lon="6.65063">
        <ele>1741</ele>
        <time>2022-07-31T09:51:49Z</time>
      </trkpt>
      <trkpt lat="46.16536" lon="6.65062">
        <ele>1740</ele>
        <time>2022-07-31T09:51:50Z</time>
      </trkpt>
      <trkpt lat="46.16536" lon="6.65062">
        <ele>1740</ele>
        <time>2022-07-31T09:51:51Z</time>
      </trkpt>
      <trkpt lat="46.16537" lon="6.65061">
        <ele>1740</ele>
        <time>2022-07-31T09:51:52Z</time>
      </trkpt>
      <trkpt lat="46.16537" lon="6.65062">
        <ele>1740</ele>
        <time>2022-07-31T09:51:53Z</time>
      </trkpt>
      <trkpt lat="46.16537" lon="6.65062">
        <ele>1740</ele>
        <time>2022-07-31T09:51:54Z</time>
      </trkpt>
      <trkpt lat="46.16538" lon="6.65063">
        <ele>1740</ele>
        <time>2022-07-31T09:51:55Z</time>
      </trkpt>
      <trkpt lat="46.16538" lon="6.65064">
        <ele>1740</ele>
        <time>2022-07-31T09:51:56Z</time>
      </trkpt>
      <trkpt lat="46.16539" lon="6.65066">
        <ele>1740</ele>
        <time>2022-07-31T09:51:57Z</time>
      </trkpt>
      <trkpt lat="46.1654" lon="6.65067">
        <ele>1740</ele>
        <time>2022-07-31T09:51:58Z</time>
      </trkpt>
      <trkpt lat="46.1654" lon="6.65069">
        <ele>1740</ele>
        <time>2022-07-31T09:51:59Z</time>
      </trkpt>
      <trkpt lat="46.16541" lon="6.6507">
        <ele>1740</ele>
        <time>2022-07-31T09:52:00Z</time>
      </trkpt>
      <trkpt lat="46.16542" lon="6.65072">
        <ele>1740</ele>
        <time>2022-07-31T09:52:01Z</time>
      </trkpt>
      <trkpt lat="46.16543" lon="6.65073">
        <ele>1740</ele>
        <time>2022-07-31T09:52:02Z</time>
      </trkpt>
      <trkpt lat="46.16544" lon="6.65075">
        <ele>1739</ele>
        <time>2022-07-31T09:52:03Z</time>
      </trkpt>
      <trkpt lat="46.16545" lon="6.65076">
        <ele>1739</ele>
        <time>2022-07-31T09:52:04Z</time>
      </trkpt>
      <trkpt lat="46.16545" lon="6.65077">
        <ele>1739</ele>
        <time>2022-07-31T09:52:05Z</time>
      </trkpt>
      <trkpt lat="46.16546" lon="6.65078">
        <ele>1739</ele>
        <time>2022-07-31T09:52:06Z</time>
      </trkpt>
      <trkpt lat="46.16546" lon="6.65079">
        <ele>1739</ele>
        <time>2022-07-31T09:52:07Z</time>
      </trkpt>
      <trkpt lat="46.16548" lon="6.65081">
        <ele>1738</ele>
        <time>2022-07-31T09:52:08Z</time>
      </trkpt>
      <trkpt lat="46.16548" lon="6.65083">
        <ele>1738</ele>
        <time>2022-07-31T09:52:09Z</time>
      </trkpt>
      <trkpt lat="46.16548" lon="6.65085">
        <ele>1738</ele>
        <time>2022-07-31T09:52:10Z</time>
      </trkpt>
      <trkpt lat="46.16549" lon="6.65086">
        <ele>1738</ele>
        <time>2022-07-31T09:52:11Z</time>
      </trkpt>
      <trkpt lat="46.1655" lon="6.65087">
        <ele>1738</ele>
        <time>2022-07-31T09:52:12Z</time>
      </trkpt>
      <trkpt lat="46.1655" lon="6.65087">
        <ele>1737</ele>
        <time>2022-07-31T09:52:13Z</time>
      </trkpt>
      <trkpt lat="46.16551" lon="6.65087">
        <ele>1737</ele>
        <time>2022-07-31T09:52:14Z</time>
      </trkpt>
      <trkpt lat="46.16551" lon="6.65088">
        <ele>1737</ele>
        <time>2022-07-31T09:52:15Z</time>
      </trkpt>
      <trkpt lat="46.16552" lon="6.65089">
        <ele>1737</ele>
        <time>2022-07-31T09:52:16Z</time>
      </trkpt>
      <trkpt lat="46.16553" lon="6.6509">
        <ele>1737</ele>
        <time>2022-07-31T09:52:17Z</time>
      </trkpt>
      <trkpt lat="46.16553" lon="6.65092">
        <ele>1736</ele>
        <time>2022-07-31T09:52:18Z</time>
      </trkpt>
      <trkpt lat="46.16554" lon="6.65094">
        <ele>1736</ele>
        <time>2022-07-31T09:52:19Z</time>
      </trkpt>
      <trkpt lat="46.16554" lon="6.65096">
        <ele>1736</ele>
        <time>2022-07-31T09:52:20Z</time>
      </trkpt>
      <trkpt lat="46.16555" lon="6.65098">
        <ele>1736</ele>
        <time>2022-07-31T09:52:21Z</time>
      </trkpt>
      <trkpt lat="46.16556" lon="6.65099">
        <ele>1735</ele>
        <time>2022-07-31T09:52:22Z</time>
      </trkpt>
      <trkpt lat="46.16556" lon="6.651">
        <ele>1735</ele>
        <time>2022-07-31T09:52:23Z</time>
      </trkpt>
      <trkpt lat="46.16558" lon="6.65102">
        <ele>1735</ele>
        <time>2022-07-31T09:52:24Z</time>
      </trkpt>
      <trkpt lat="46.16558" lon="6.65104">
        <ele>1734</ele>
        <time>2022-07-31T09:52:25Z</time>
      </trkpt>
      <trkpt lat="46.16559" lon="6.65107">
        <ele>1734</ele>
        <time>2022-07-31T09:52:26Z</time>
      </trkpt>
      <trkpt lat="46.1656" lon="6.65109">
        <ele>1734</ele>
        <time>2022-07-31T09:52:27Z</time>
      </trkpt>
      <trkpt lat="46.16561" lon="6.65111">
        <ele>1734</ele>
        <time>2022-07-31T09:52:28Z</time>
      </trkpt>
      <trkpt lat="46.16562" lon="6.65113">
        <ele>1733</ele>
        <time>2022-07-31T09:52:29Z</time>
      </trkpt>
      <trkpt lat="46.16563" lon="6.65114">
        <ele>1733</ele>
        <time>2022-07-31T09:52:30Z</time>
      </trkpt>
      <trkpt lat="46.16565" lon="6.65115">
        <ele>1733</ele>
        <time>2022-07-31T09:52:31Z</time>
      </trkpt>
      <trkpt lat="46.16566" lon="6.65117">
        <ele>1732</ele>
        <time>2022-07-31T09:52:32Z</time>
      </trkpt>
      <trkpt lat="46.16567" lon="6.65118">
        <ele>1732</ele>
        <time>2022-07-31T09:52:33Z</time>
      </trkpt>
      <trkpt lat="46.16568" lon="6.6512">
        <ele>1732</ele>
        <time>2022-07-31T09:52:34Z</time>
      </trkpt>
      <trkpt lat="46.16569" lon="6.65121">
        <ele>1732</ele>
        <time>2022-07-31T09:52:35Z</time>
      </trkpt>
      <trkpt lat="46.1657" lon="6.65123">
        <ele>1732</ele>
        <time>2022-07-31T09:52:36Z</time>
      </trkpt>
      <trkpt lat="46.1657" lon="6.65124">
        <ele>1731</ele>
        <time>2022-07-31T09:52:37Z</time>
      </trkpt>
      <trkpt lat="46.16571" lon="6.65125">
        <ele>1731</ele>
        <time>2022-07-31T09:52:38Z</time>
      </trkpt>
      <trkpt lat="46.16573" lon="6.65126">
        <ele>1731</ele>
        <time>2022-07-31T09:52:39Z</time>
      </trkpt>
      <trkpt lat="46.16573" lon="6.65127">
        <ele>1731</ele>
        <time>2022-07-31T09:52:40Z</time>
      </trkpt>
      <trkpt lat="46.16574" lon="6.65129">
        <ele>1731</ele>
        <time>2022-07-31T09:52:41Z</time>
      </trkpt>
      <trkpt lat="46.16574" lon="6.65131">
        <ele>1731</ele>
        <time>2022-07-31T09:52:42Z</time>
      </trkpt>
      <trkpt lat="46.16573" lon="6.65132">
        <ele>1731</ele>
        <time>2022-07-31T09:52:43Z</time>
      </trkpt>
      <trkpt lat="46.16571" lon="6.65132">
        <ele>1731</ele>
        <time>2022-07-31T09:52:44Z</time>
      </trkpt>
      <trkpt lat="46.1657" lon="6.65132">
        <ele>1731</ele>
        <time>2022-07-31T09:52:45Z</time>
      </trkpt>
      <trkpt lat="46.1657" lon="6.65132">
        <ele>1731</ele>
        <time>2022-07-31T09:52:46Z</time>
      </trkpt>
      <trkpt lat="46.16569" lon="6.65131">
        <ele>1731</ele>
        <time>2022-07-31T09:52:47Z</time>
      </trkpt>
      <trkpt lat="46.16568" lon="6.6513">
        <ele>1730</ele>
        <time>2022-07-31T09:52:48Z</time>
      </trkpt>
      <trkpt lat="46.16567" lon="6.6513">
        <ele>1730</ele>
        <time>2022-07-31T09:52:49Z</time>
      </trkpt>
      <trkpt lat="46.16566" lon="6.65129">
        <ele>1730</ele>
        <time>2022-07-31T09:52:50Z</time>
      </trkpt>
      <trkpt lat="46.16565" lon="6.65129">
        <ele>1730</ele>
        <time>2022-07-31T09:52:51Z</time>
      </trkpt>
      <trkpt lat="46.16563" lon="6.65128">
        <ele>1730</ele>
        <time>2022-07-31T09:52:52Z</time>
      </trkpt>
      <trkpt lat="46.16565" lon="6.65129">
        <ele>1730</ele>
        <time>2022-07-31T09:52:53Z</time>
      </trkpt>
      <trkpt lat="46.16565" lon="6.65129">
        <ele>1730</ele>
        <time>2022-07-31T09:52:54Z</time>
      </trkpt>
      <trkpt lat="46.16565" lon="6.65129">
        <ele>1730</ele>
        <time>2022-07-31T09:52:55Z</time>
      </trkpt>
      <trkpt lat="46.16565" lon="6.6513">
        <ele>1729</ele>
        <time>2022-07-31T09:52:56Z</time>
      </trkpt>
      <trkpt lat="46.16565" lon="6.6513">
        <ele>1729</ele>
        <time>2022-07-31T09:52:57Z</time>
      </trkpt>
      <trkpt lat="46.16565" lon="6.65129">
        <ele>1729</ele>
        <time>2022-07-31T09:52:58Z</time>
      </trkpt>
      <trkpt lat="46.16565" lon="6.65129">
        <ele>1728</ele>
        <time>2022-07-31T09:52:59Z</time>
      </trkpt>
      <trkpt lat="46.16565" lon="6.65129">
        <ele>1728</ele>
        <time>2022-07-31T09:53:00Z</time>
      </trkpt>
      <trkpt lat="46.16565" lon="6.65128">
        <ele>1728</ele>
        <time>2022-07-31T09:53:01Z</time>
      </trkpt>
      <trkpt lat="46.16565" lon="6.65129">
        <ele>1727</ele>
        <time>2022-07-31T09:53:02Z</time>
      </trkpt>
      <trkpt lat="46.16565" lon="6.65129">
        <ele>1727</ele>
        <time>2022-07-31T09:53:03Z</time>
      </trkpt>
      <trkpt lat="46.16565" lon="6.65129">
        <ele>1727</ele>
        <time>2022-07-31T09:53:04Z</time>
      </trkpt>
      <trkpt lat="46.16565" lon="6.65129">
        <ele>1726</ele>
        <time>2022-07-31T09:53:05Z</time>
      </trkpt>
      <trkpt lat="46.16565" lon="6.65129">
        <ele>1726</ele>
        <time>2022-07-31T09:53:06Z</time>
      </trkpt>
      <trkpt lat="46.16565" lon="6.65128">
        <ele>1726</ele>
        <time>2022-07-31T09:53:07Z</time>
      </trkpt>
      <trkpt lat="46.16565" lon="6.65127">
        <ele>1726</ele>
        <time>2022-07-31T09:53:08Z</time>
      </trkpt>
      <trkpt lat="46.16565" lon="6.65127">
        <ele>1726</ele>
        <time>2022-07-31T09:53:09Z</time>
      </trkpt>
      <trkpt lat="46.16563" lon="6.65126">
        <ele>1725</ele>
        <time>2022-07-31T09:53:10Z</time>
      </trkpt>
      <trkpt lat="46.16563" lon="6.65126">
        <ele>1725</ele>
        <time>2022-07-31T09:53:11Z</time>
      </trkpt>
      <trkpt lat="46.16562" lon="6.65126">
        <ele>1725</ele>
        <time>2022-07-31T09:53:12Z</time>
      </trkpt>
      <trkpt lat="46.16561" lon="6.65126">
        <ele>1725</ele>
        <time>2022-07-31T09:53:13Z</time>
      </trkpt>
      <trkpt lat="46.1656" lon="6.65125">
        <ele>1725</ele>
        <time>2022-07-31T09:53:14Z</time>
      </trkpt>
      <trkpt lat="46.16559" lon="6.65125">
        <ele>1725</ele>
        <time>2022-07-31T09:53:15Z</time>
      </trkpt>
      <trkpt lat="46.16559" lon="6.65125">
        <ele>1725</ele>
        <time>2022-07-31T09:53:16Z</time>
      </trkpt>
      <trkpt lat="46.16558" lon="6.65125">
        <ele>1725</ele>
        <time>2022-07-31T09:53:17Z</time>
      </trkpt>
      <trkpt lat="46.16558" lon="6.65126">
        <ele>1725</ele>
        <time>2022-07-31T09:53:18Z</time>
      </trkpt>
      <trkpt lat="46.16556" lon="6.65125">
        <ele>1725</ele>
        <time>2022-07-31T09:53:19Z</time>
      </trkpt>
      <trkpt lat="46.16556" lon="6.65125">
        <ele>1725</ele>
        <time>2022-07-31T09:53:20Z</time>
      </trkpt>
      <trkpt lat="46.16555" lon="6.65125">
        <ele>1725</ele>
        <time>2022-07-31T09:53:21Z</time>
      </trkpt>
      <trkpt lat="46.16554" lon="6.65125">
        <ele>1725</ele>
        <time>2022-07-31T09:53:22Z</time>
      </trkpt>
      <trkpt lat="46.16553" lon="6.65125">
        <ele>1725</ele>
        <time>2022-07-31T09:53:23Z</time>
      </trkpt>
      <trkpt lat="46.1655" lon="6.65125">
        <ele>1725</ele>
        <time>2022-07-31T09:53:24Z</time>
      </trkpt>
      <trkpt lat="46.16549" lon="6.65126">
        <ele>1725</ele>
        <time>2022-07-31T09:53:25Z</time>
      </trkpt>
      <trkpt lat="46.16548" lon="6.65126">
        <ele>1725</ele>
        <time>2022-07-31T09:53:26Z</time>
      </trkpt>
      <trkpt lat="46.16547" lon="6.65125">
        <ele>1725</ele>
        <time>2022-07-31T09:53:27Z</time>
      </trkpt>
      <trkpt lat="46.16546" lon="6.65124">
        <ele>1725</ele>
        <time>2022-07-31T09:53:28Z</time>
      </trkpt>
      <trkpt lat="46.16545" lon="6.65124">
        <ele>1725</ele>
        <time>2022-07-31T09:53:29Z</time>
      </trkpt>
      <trkpt lat="46.16545" lon="6.65124">
        <ele>1725</ele>
        <time>2022-07-31T09:53:30Z</time>
      </trkpt>
      <trkpt lat="46.16545" lon="6.65124">
        <ele>1725</ele>
        <time>2022-07-31T09:53:31Z</time>
      </trkpt>
      <trkpt lat="46.16544" lon="6.65125">
        <ele>1724</ele>
        <time>2022-07-31T09:53:32Z</time>
      </trkpt>
      <trkpt lat="46.16544" lon="6.65125">
        <ele>1724</ele>
        <time>2022-07-31T09:53:33Z</time>
      </trkpt>
      <trkpt lat="46.16543" lon="6.65126">
        <ele>1724</ele>
        <time>2022-07-31T09:53:34Z</time>
      </trkpt>
      <trkpt lat="46.16544" lon="6.65126">
        <ele>1724</ele>
        <time>2022-07-31T09:53:35Z</time>
      </trkpt>
      <trkpt lat="46.16543" lon="6.65127">
        <ele>1723</ele>
        <time>2022-07-31T09:53:36Z</time>
      </trkpt>
      <trkpt lat="46.16543" lon="6.65127">
        <ele>1723</ele>
        <time>2022-07-31T09:53:37Z</time>
      </trkpt>
      <trkpt lat="46.16543" lon="6.65127">
        <ele>1723</ele>
        <time>2022-07-31T09:53:38Z</time>
      </trkpt>
      <trkpt lat="46.16543" lon="6.65127">
        <ele>1723</ele>
        <time>2022-07-31T09:53:39Z</time>
      </trkpt>
      <trkpt lat="46.16543" lon="6.65127">
        <ele>1722</ele>
        <time>2022-07-31T09:53:40Z</time>
      </trkpt>
      <trkpt lat="46.16543" lon="6.65127">
        <ele>1722</ele>
        <time>2022-07-31T09:53:41Z</time>
      </trkpt>
      <trkpt lat="46.16543" lon="6.65127">
        <ele>1722</ele>
        <time>2022-07-31T09:53:42Z</time>
      </trkpt>
      <trkpt lat="46.16542" lon="6.65128">
        <ele>1722</ele>
        <time>2022-07-31T09:53:43Z</time>
      </trkpt>
      <trkpt lat="46.16542" lon="6.65127">
        <ele>1722</ele>
        <time>2022-07-31T09:53:44Z</time>
      </trkpt>
      <trkpt lat="46.16541" lon="6.65127">
        <ele>1722</ele>
        <time>2022-07-31T09:53:45Z</time>
      </trkpt>
      <trkpt lat="46.1654" lon="6.65126">
        <ele>1722</ele>
        <time>2022-07-31T09:53:46Z</time>
      </trkpt>
      <trkpt lat="46.16539" lon="6.65125">
        <ele>1721</ele>
        <time>2022-07-31T09:53:47Z</time>
      </trkpt>
      <trkpt lat="46.16538" lon="6.65125">
        <ele>1721</ele>
        <time>2022-07-31T09:53:48Z</time>
      </trkpt>
      <trkpt lat="46.16538" lon="6.65124">
        <ele>1721</ele>
        <time>2022-07-31T09:53:49Z</time>
      </trkpt>
      <trkpt lat="46.16537" lon="6.65124">
        <ele>1721</ele>
        <time>2022-07-31T09:53:50Z</time>
      </trkpt>
      <trkpt lat="46.16536" lon="6.65124">
        <ele>1721</ele>
        <time>2022-07-31T09:53:51Z</time>
      </trkpt>
      <trkpt lat="46.16536" lon="6.65124">
        <ele>1721</ele>
        <time>2022-07-31T09:53:52Z</time>
      </trkpt>
      <trkpt lat="46.16534" lon="6.65123">
        <ele>1721</ele>
        <time>2022-07-31T09:53:53Z</time>
      </trkpt>
      <trkpt lat="46.16533" lon="6.65122">
        <ele>1721</ele>
        <time>2022-07-31T09:53:54Z</time>
      </trkpt>
      <trkpt lat="46.16532" lon="6.65122">
        <ele>1721</ele>
        <time>2022-07-31T09:53:55Z</time>
      </trkpt>
      <trkpt lat="46.1653" lon="6.65121">
        <ele>1721</ele>
        <time>2022-07-31T09:53:56Z</time>
      </trkpt>
      <trkpt lat="46.16529" lon="6.65121">
        <ele>1721</ele>
        <time>2022-07-31T09:53:57Z</time>
      </trkpt>
      <trkpt lat="46.16527" lon="6.65121">
        <ele>1721</ele>
        <time>2022-07-31T09:53:58Z</time>
      </trkpt>
      <trkpt lat="46.16527" lon="6.6512">
        <ele>1721</ele>
        <time>2022-07-31T09:53:59Z</time>
      </trkpt>
      <trkpt lat="46.16526" lon="6.6512">
        <ele>1721</ele>
        <time>2022-07-31T09:54:00Z</time>
      </trkpt>
      <trkpt lat="46.16525" lon="6.6512">
        <ele>1721</ele>
        <time>2022-07-31T09:54:01Z</time>
      </trkpt>
      <trkpt lat="46.16525" lon="6.6512">
        <ele>1721</ele>
        <time>2022-07-31T09:54:02Z</time>
      </trkpt>
      <trkpt lat="46.16524" lon="6.6512">
        <ele>1721</ele>
        <time>2022-07-31T09:54:03Z</time>
      </trkpt>
      <trkpt lat="46.16523" lon="6.65119">
        <ele>1721</ele>
        <time>2022-07-31T09:54:04Z</time>
      </trkpt>
      <trkpt lat="46.16522" lon="6.65119">
        <ele>1721</ele>
        <time>2022-07-31T09:54:05Z</time>
      </trkpt>
      <trkpt lat="46.16522" lon="6.65117">
        <ele>1721</ele>
        <time>2022-07-31T09:54:06Z</time>
      </trkpt>
      <trkpt lat="46.16521" lon="6.65116">
        <ele>1722</ele>
        <time>2022-07-31T09:54:07Z</time>
      </trkpt>
      <trkpt lat="46.1652" lon="6.65116">
        <ele>1722</ele>
        <time>2022-07-31T09:54:08Z</time>
      </trkpt>
      <trkpt lat="46.16519" lon="6.65115">
        <ele>1722</ele>
        <time>2022-07-31T09:54:09Z</time>
      </trkpt>
      <trkpt lat="46.16519" lon="6.65115">
        <ele>1722</ele>
        <time>2022-07-31T09:54:10Z</time>
      </trkpt>
      <trkpt lat="46.16518" lon="6.65114">
        <ele>1722</ele>
        <time>2022-07-31T09:54:11Z</time>
      </trkpt>
      <trkpt lat="46.16518" lon="6.65113">
        <ele>1722</ele>
        <time>2022-07-31T09:54:12Z</time>
      </trkpt>
      <trkpt lat="46.16517" lon="6.65112">
        <ele>1722</ele>
        <time>2022-07-31T09:54:13Z</time>
      </trkpt>
      <trkpt lat="46.16516" lon="6.65112">
        <ele>1722</ele>
        <time>2022-07-31T09:54:14Z</time>
      </trkpt>
      <trkpt lat="46.16516" lon="6.65112">
        <ele>1722</ele>
        <time>2022-07-31T09:54:15Z</time>
      </trkpt>
      <trkpt lat="46.16515" lon="6.65112">
        <ele>1722</ele>
        <time>2022-07-31T09:54:16Z</time>
      </trkpt>
      <trkpt lat="46.16514" lon="6.65111">
        <ele>1722</ele>
        <time>2022-07-31T09:54:17Z</time>
      </trkpt>
      <trkpt lat="46.16513" lon="6.65112">
        <ele>1722</ele>
        <time>2022-07-31T09:54:18Z</time>
      </trkpt>
      <trkpt lat="46.16512" lon="6.65112">
        <ele>1722</ele>
        <time>2022-07-31T09:54:19Z</time>
      </trkpt>
      <trkpt lat="46.16511" lon="6.65112">
        <ele>1722</ele>
        <time>2022-07-31T09:54:20Z</time>
      </trkpt>
      <trkpt lat="46.1651" lon="6.65111">
        <ele>1722</ele>
        <time>2022-07-31T09:54:21Z</time>
      </trkpt>
      <trkpt lat="46.16508" lon="6.65111">
        <ele>1722</ele>
        <time>2022-07-31T09:54:22Z</time>
      </trkpt>
      <trkpt lat="46.16507" lon="6.65111">
        <ele>1722</ele>
        <time>2022-07-31T09:54:23Z</time>
      </trkpt>
      <trkpt lat="46.16505" lon="6.65111">
        <ele>1722</ele>
        <time>2022-07-31T09:54:24Z</time>
      </trkpt>
      <trkpt lat="46.16503" lon="6.6511">
        <ele>1722</ele>
        <time>2022-07-31T09:54:25Z</time>
      </trkpt>
      <trkpt lat="46.16502" lon="6.65109">
        <ele>1722</ele>
        <time>2022-07-31T09:54:26Z</time>
      </trkpt>
      <trkpt lat="46.16502" lon="6.65109">
        <ele>1722</ele>
        <time>2022-07-31T09:54:27Z</time>
      </trkpt>
      <trkpt lat="46.16501" lon="6.65109">
        <ele>1722</ele>
        <time>2022-07-31T09:54:28Z</time>
      </trkpt>
      <trkpt lat="46.165" lon="6.65109">
        <ele>1722</ele>
        <time>2022-07-31T09:54:29Z</time>
      </trkpt>
      <trkpt lat="46.16499" lon="6.65109">
        <ele>1721</ele>
        <time>2022-07-31T09:54:30Z</time>
      </trkpt>
      <trkpt lat="46.16497" lon="6.6511">
        <ele>1721</ele>
        <time>2022-07-31T09:54:31Z</time>
      </trkpt>
      <trkpt lat="46.16496" lon="6.65111">
        <ele>1721</ele>
        <time>2022-07-31T09:54:32Z</time>
      </trkpt>
      <trkpt lat="46.16494" lon="6.65109">
        <ele>1721</ele>
        <time>2022-07-31T09:54:33Z</time>
      </trkpt>
      <trkpt lat="46.16493" lon="6.65109">
        <ele>1720</ele>
        <time>2022-07-31T09:54:34Z</time>
      </trkpt>
      <trkpt lat="46.16492" lon="6.65109">
        <ele>1720</ele>
        <time>2022-07-31T09:54:35Z</time>
      </trkpt>
      <trkpt lat="46.1649" lon="6.65109">
        <ele>1720</ele>
        <time>2022-07-31T09:54:36Z</time>
      </trkpt>
      <trkpt lat="46.16489" lon="6.65108">
        <ele>1720</ele>
        <time>2022-07-31T09:54:37Z</time>
      </trkpt>
      <trkpt lat="46.16488" lon="6.65108">
        <ele>1719</ele>
        <time>2022-07-31T09:54:38Z</time>
      </trkpt>
      <trkpt lat="46.16487" lon="6.65107">
        <ele>1719</ele>
        <time>2022-07-31T09:54:39Z</time>
      </trkpt>
      <trkpt lat="46.16486" lon="6.65106">
        <ele>1719</ele>
        <time>2022-07-31T09:54:40Z</time>
      </trkpt>
      <trkpt lat="46.16485" lon="6.65105">
        <ele>1719</ele>
        <time>2022-07-31T09:54:41Z</time>
      </trkpt>
      <trkpt lat="46.16484" lon="6.65105">
        <ele>1719</ele>
        <time>2022-07-31T09:54:42Z</time>
      </trkpt>
      <trkpt lat="46.16484" lon="6.65105">
        <ele>1719</ele>
        <time>2022-07-31T09:54:43Z</time>
      </trkpt>
      <trkpt lat="46.16482" lon="6.65106">
        <ele>1718</ele>
        <time>2022-07-31T09:54:44Z</time>
      </trkpt>
      <trkpt lat="46.16481" lon="6.65106">
        <ele>1718</ele>
        <time>2022-07-31T09:54:45Z</time>
      </trkpt>
      <trkpt lat="46.1648" lon="6.65107">
        <ele>1718</ele>
        <time>2022-07-31T09:54:46Z</time>
      </trkpt>
      <trkpt lat="46.16479" lon="6.65107">
        <ele>1718</ele>
        <time>2022-07-31T09:54:47Z</time>
      </trkpt>
      <trkpt lat="46.16479" lon="6.65105">
        <ele>1718</ele>
        <time>2022-07-31T09:54:48Z</time>
      </trkpt>
      <trkpt lat="46.16478" lon="6.65105">
        <ele>1717</ele>
        <time>2022-07-31T09:54:49Z</time>
      </trkpt>
      <trkpt lat="46.16477" lon="6.65104">
        <ele>1717</ele>
        <time>2022-07-31T09:54:50Z</time>
      </trkpt>
      <trkpt lat="46.16476" lon="6.65103">
        <ele>1717</ele>
        <time>2022-07-31T09:54:51Z</time>
      </trkpt>
      <trkpt lat="46.16475" lon="6.65101">
        <ele>1717</ele>
        <time>2022-07-31T09:54:52Z</time>
      </trkpt>
      <trkpt lat="46.16474" lon="6.651">
        <ele>1717</ele>
        <time>2022-07-31T09:54:53Z</time>
      </trkpt>
      <trkpt lat="46.16474" lon="6.65099">
        <ele>1717</ele>
        <time>2022-07-31T09:54:54Z</time>
      </trkpt>
      <trkpt lat="46.16473" lon="6.65098">
        <ele>1717</ele>
        <time>2022-07-31T09:54:55Z</time>
      </trkpt>
      <trkpt lat="46.16472" lon="6.65096">
        <ele>1717</ele>
        <time>2022-07-31T09:54:56Z</time>
      </trkpt>
      <trkpt lat="46.16472" lon="6.65094">
        <ele>1717</ele>
        <time>2022-07-31T09:54:57Z</time>
      </trkpt>
      <trkpt lat="46.16471" lon="6.65092">
        <ele>1717</ele>
        <time>2022-07-31T09:54:58Z</time>
      </trkpt>
      <trkpt lat="46.16471" lon="6.65091">
        <ele>1717</ele>
        <time>2022-07-31T09:54:59Z</time>
      </trkpt>
      <trkpt lat="46.16469" lon="6.6509">
        <ele>1716</ele>
        <time>2022-07-31T09:55:00Z</time>
      </trkpt>
      <trkpt lat="46.16468" lon="6.65088">
        <ele>1716</ele>
        <time>2022-07-31T09:55:01Z</time>
      </trkpt>
      <trkpt lat="46.16466" lon="6.65088">
        <ele>1716</ele>
        <time>2022-07-31T09:55:02Z</time>
      </trkpt>
      <trkpt lat="46.16465" lon="6.65087">
        <ele>1716</ele>
        <time>2022-07-31T09:55:03Z</time>
      </trkpt>
      <trkpt lat="46.16464" lon="6.65085">
        <ele>1716</ele>
        <time>2022-07-31T09:55:04Z</time>
      </trkpt>
      <trkpt lat="46.16463" lon="6.65085">
        <ele>1716</ele>
        <time>2022-07-31T09:55:05Z</time>
      </trkpt>
      <trkpt lat="46.16461" lon="6.65083">
        <ele>1716</ele>
        <time>2022-07-31T09:55:06Z</time>
      </trkpt>
      <trkpt lat="46.16459" lon="6.65082">
        <ele>1716</ele>
        <time>2022-07-31T09:55:07Z</time>
      </trkpt>
      <trkpt lat="46.16457" lon="6.65081">
        <ele>1716</ele>
        <time>2022-07-31T09:55:08Z</time>
      </trkpt>
      <trkpt lat="46.16456" lon="6.6508">
        <ele>1715</ele>
        <time>2022-07-31T09:55:09Z</time>
      </trkpt>
      <trkpt lat="46.16454" lon="6.65079">
        <ele>1715</ele>
        <time>2022-07-31T09:55:10Z</time>
      </trkpt>
      <trkpt lat="46.16453" lon="6.65079">
        <ele>1715</ele>
        <time>2022-07-31T09:55:11Z</time>
      </trkpt>
      <trkpt lat="46.16451" lon="6.65078">
        <ele>1715</ele>
        <time>2022-07-31T09:55:12Z</time>
      </trkpt>
      <trkpt lat="46.1645" lon="6.65077">
        <ele>1715</ele>
        <time>2022-07-31T09:55:13Z</time>
      </trkpt>
      <trkpt lat="46.16449" lon="6.65077">
        <ele>1715</ele>
        <time>2022-07-31T09:55:14Z</time>
      </trkpt>
      <trkpt lat="46.16447" lon="6.65077">
        <ele>1715</ele>
        <time>2022-07-31T09:55:15Z</time>
      </trkpt>
      <trkpt lat="46.16445" lon="6.65076">
        <ele>1715</ele>
        <time>2022-07-31T09:55:16Z</time>
      </trkpt>
      <trkpt lat="46.16445" lon="6.65074">
        <ele>1715</ele>
        <time>2022-07-31T09:55:17Z</time>
      </trkpt>
      <trkpt lat="46.16444" lon="6.65073">
        <ele>1715</ele>
        <time>2022-07-31T09:55:18Z</time>
      </trkpt>
      <trkpt lat="46.16444" lon="6.65072">
        <ele>1715</ele>
        <time>2022-07-31T09:55:19Z</time>
      </trkpt>
      <trkpt lat="46.16443" lon="6.65071">
        <ele>1715</ele>
        <time>2022-07-31T09:55:20Z</time>
      </trkpt>
      <trkpt lat="46.16442" lon="6.65071">
        <ele>1715</ele>
        <time>2022-07-31T09:55:21Z</time>
      </trkpt>
      <trkpt lat="46.1644" lon="6.6507">
        <ele>1715</ele>
        <time>2022-07-31T09:55:22Z</time>
      </trkpt>
      <trkpt lat="46.16438" lon="6.65069">
        <ele>1715</ele>
        <time>2022-07-31T09:55:23Z</time>
      </trkpt>
      <trkpt lat="46.16437" lon="6.65069">
        <ele>1715</ele>
        <time>2022-07-31T09:55:24Z</time>
      </trkpt>
      <trkpt lat="46.16437" lon="6.65068">
        <ele>1716</ele>
        <time>2022-07-31T09:55:25Z</time>
      </trkpt>
      <trkpt lat="46.16436" lon="6.65068">
        <ele>1716</ele>
        <time>2022-07-31T09:55:26Z</time>
      </trkpt>
      <trkpt lat="46.16436" lon="6.6507">
        <ele>1716</ele>
        <time>2022-07-31T09:55:27Z</time>
      </trkpt>
      <trkpt lat="46.16436" lon="6.6507">
        <ele>1716</ele>
        <time>2022-07-31T09:55:28Z</time>
      </trkpt>
      <trkpt lat="46.16435" lon="6.65069">
        <ele>1716</ele>
        <time>2022-07-31T09:55:29Z</time>
      </trkpt>
      <trkpt lat="46.16435" lon="6.65068">
        <ele>1716</ele>
        <time>2022-07-31T09:55:30Z</time>
      </trkpt>
      <trkpt lat="46.16434" lon="6.65069">
        <ele>1715</ele>
        <time>2022-07-31T09:55:31Z</time>
      </trkpt>
      <trkpt lat="46.16434" lon="6.65068">
        <ele>1715</ele>
        <time>2022-07-31T09:55:32Z</time>
      </trkpt>
      <trkpt lat="46.16433" lon="6.65068">
        <ele>1715</ele>
        <time>2022-07-31T09:55:33Z</time>
      </trkpt>
      <trkpt lat="46.16434" lon="6.65067">
        <ele>1715</ele>
        <time>2022-07-31T09:55:34Z</time>
      </trkpt>
      <trkpt lat="46.16434" lon="6.65067">
        <ele>1715</ele>
        <time>2022-07-31T09:55:35Z</time>
      </trkpt>
      <trkpt lat="46.16434" lon="6.65068">
        <ele>1715</ele>
        <time>2022-07-31T09:55:36Z</time>
      </trkpt>
      <trkpt lat="46.16434" lon="6.65068">
        <ele>1715</ele>
        <time>2022-07-31T09:55:37Z</time>
      </trkpt>
      <trkpt lat="46.16433" lon="6.65068">
        <ele>1715</ele>
        <time>2022-07-31T09:55:38Z</time>
      </trkpt>
      <trkpt lat="46.16433" lon="6.65067">
        <ele>1715</ele>
        <time>2022-07-31T09:55:39Z</time>
      </trkpt>
      <trkpt lat="46.16434" lon="6.65067">
        <ele>1715</ele>
        <time>2022-07-31T09:55:40Z</time>
      </trkpt>
      <trkpt lat="46.16434" lon="6.65067">
        <ele>1715</ele>
        <time>2022-07-31T09:55:41Z</time>
      </trkpt>
      <trkpt lat="46.16433" lon="6.65068">
        <ele>1715</ele>
        <time>2022-07-31T09:55:42Z</time>
      </trkpt>
      <trkpt lat="46.16433" lon="6.65067">
        <ele>1715</ele>
        <time>2022-07-31T09:55:43Z</time>
      </trkpt>
      <trkpt lat="46.16433" lon="6.65067">
        <ele>1715</ele>
        <time>2022-07-31T09:55:44Z</time>
      </trkpt>
      <trkpt lat="46.16431" lon="6.65067">
        <ele>1715</ele>
        <time>2022-07-31T09:55:45Z</time>
      </trkpt>
      <trkpt lat="46.1643" lon="6.65067">
        <ele>1715</ele>
        <time>2022-07-31T09:55:46Z</time>
      </trkpt>
      <trkpt lat="46.16429" lon="6.65067">
        <ele>1715</ele>
        <time>2022-07-31T09:55:47Z</time>
      </trkpt>
      <trkpt lat="46.16428" lon="6.65067">
        <ele>1715</ele>
        <time>2022-07-31T09:55:48Z</time>
      </trkpt>
      <trkpt lat="46.16428" lon="6.65068">
        <ele>1715</ele>
        <time>2022-07-31T09:55:49Z</time>
      </trkpt>
      <trkpt lat="46.16428" lon="6.65068">
        <ele>1715</ele>
        <time>2022-07-31T09:55:50Z</time>
      </trkpt>
      <trkpt lat="46.16428" lon="6.65069">
        <ele>1715</ele>
        <time>2022-07-31T09:55:51Z</time>
      </trkpt>
      <trkpt lat="46.16428" lon="6.65071">
        <ele>1715</ele>
        <time>2022-07-31T09:55:52Z</time>
      </trkpt>
      <trkpt lat="46.16427" lon="6.65073">
        <ele>1715</ele>
        <time>2022-07-31T09:55:53Z</time>
      </trkpt>
      <trkpt lat="46.16427" lon="6.65074">
        <ele>1715</ele>
        <time>2022-07-31T09:55:54Z</time>
      </trkpt>
      <trkpt lat="46.16427" lon="6.65076">
        <ele>1715</ele>
        <time>2022-07-31T09:55:55Z</time>
      </trkpt>
      <trkpt lat="46.16427" lon="6.65076">
        <ele>1715</ele>
        <time>2022-07-31T09:55:56Z</time>
      </trkpt>
      <trkpt lat="46.16427" lon="6.65077">
        <ele>1715</ele>
        <time>2022-07-31T09:55:57Z</time>
      </trkpt>
      <trkpt lat="46.16427" lon="6.65077">
        <ele>1715</ele>
        <time>2022-07-31T09:55:58Z</time>
      </trkpt>
      <trkpt lat="46.16427" lon="6.65078">
        <ele>1714</ele>
        <time>2022-07-31T09:55:59Z</time>
      </trkpt>
      <trkpt lat="46.16427" lon="6.65081">
        <ele>1714</ele>
        <time>2022-07-31T09:56:00Z</time>
      </trkpt>
      <trkpt lat="46.16427" lon="6.65082">
        <ele>1714</ele>
        <time>2022-07-31T09:56:01Z</time>
      </trkpt>
      <trkpt lat="46.16429" lon="6.65082">
        <ele>1714</ele>
        <time>2022-07-31T09:56:02Z</time>
      </trkpt>
      <trkpt lat="46.16429" lon="6.65083">
        <ele>1714</ele>
        <time>2022-07-31T09:56:03Z</time>
      </trkpt>
      <trkpt lat="46.1643" lon="6.65084">
        <ele>1713</ele>
        <time>2022-07-31T09:56:04Z</time>
      </trkpt>
      <trkpt lat="46.1643" lon="6.65085">
        <ele>1713</ele>
        <time>2022-07-31T09:56:05Z</time>
      </trkpt>
      <trkpt lat="46.1643" lon="6.65085">
        <ele>1713</ele>
        <time>2022-07-31T09:56:06Z</time>
      </trkpt>
      <trkpt lat="46.1643" lon="6.65085">
        <ele>1713</ele>
        <time>2022-07-31T09:56:07Z</time>
      </trkpt>
      <trkpt lat="46.16431" lon="6.65085">
        <ele>1713</ele>
        <time>2022-07-31T09:56:08Z</time>
      </trkpt>
      <trkpt lat="46.16431" lon="6.65086">
        <ele>1712</ele>
        <time>2022-07-31T09:56:09Z</time>
      </trkpt>
      <trkpt lat="46.16431" lon="6.65086">
        <ele>1712</ele>
        <time>2022-07-31T09:56:10Z</time>
      </trkpt>
      <trkpt lat="46.16431" lon="6.65086">
        <ele>1712</ele>
        <time>2022-07-31T09:56:11Z</time>
      </trkpt>
      <trkpt lat="46.1643" lon="6.65086">
        <ele>1711</ele>
        <time>2022-07-31T09:56:12Z</time>
      </trkpt>
      <trkpt lat="46.1643" lon="6.65087">
        <ele>1711</ele>
        <time>2022-07-31T09:56:13Z</time>
      </trkpt>
      <trkpt lat="46.1643" lon="6.65087">
        <ele>1711</ele>
        <time>2022-07-31T09:56:14Z</time>
      </trkpt>
      <trkpt lat="46.1643" lon="6.65087">
        <ele>1711</ele>
        <time>2022-07-31T09:56:15Z</time>
      </trkpt>
      <trkpt lat="46.1643" lon="6.65087">
        <ele>1710</ele>
        <time>2022-07-31T09:56:16Z</time>
      </trkpt>
      <trkpt lat="46.1643" lon="6.65087">
        <ele>1710</ele>
        <time>2022-07-31T09:56:17Z</time>
      </trkpt>
      <trkpt lat="46.16431" lon="6.65085">
        <ele>1710</ele>
        <time>2022-07-31T09:56:18Z</time>
      </trkpt>
      <trkpt lat="46.16431" lon="6.65084">
        <ele>1710</ele>
        <time>2022-07-31T09:56:19Z</time>
      </trkpt>
      <trkpt lat="46.1643" lon="6.65083">
        <ele>1710</ele>
        <time>2022-07-31T09:56:20Z</time>
      </trkpt>
      <trkpt lat="46.1643" lon="6.65083">
        <ele>1710</ele>
        <time>2022-07-31T09:56:21Z</time>
      </trkpt>
      <trkpt lat="46.1643" lon="6.65083">
        <ele>1710</ele>
        <time>2022-07-31T09:56:22Z</time>
      </trkpt>
      <trkpt lat="46.16429" lon="6.65081">
        <ele>1710</ele>
        <time>2022-07-31T09:56:23Z</time>
      </trkpt>
      <trkpt lat="46.16429" lon="6.65079">
        <ele>1710</ele>
        <time>2022-07-31T09:56:24Z</time>
      </trkpt>
      <trkpt lat="46.16428" lon="6.65077">
        <ele>1710</ele>
        <time>2022-07-31T09:56:25Z</time>
      </trkpt>
      <trkpt lat="46.16428" lon="6.65076">
        <ele>1709</ele>
        <time>2022-07-31T09:56:26Z</time>
      </trkpt>
      <trkpt lat="46.16427" lon="6.65075">
        <ele>1709</ele>
        <time>2022-07-31T09:56:27Z</time>
      </trkpt>
      <trkpt lat="46.16426" lon="6.65074">
        <ele>1709</ele>
        <time>2022-07-31T09:56:28Z</time>
      </trkpt>
      <trkpt lat="46.16426" lon="6.65073">
        <ele>1709</ele>
        <time>2022-07-31T09:56:29Z</time>
      </trkpt>
      <trkpt lat="46.16426" lon="6.65072">
        <ele>1709</ele>
        <time>2022-07-31T09:56:30Z</time>
      </trkpt>
      <trkpt lat="46.16425" lon="6.65071">
        <ele>1709</ele>
        <time>2022-07-31T09:56:31Z</time>
      </trkpt>
      <trkpt lat="46.16425" lon="6.65072">
        <ele>1710</ele>
        <time>2022-07-31T09:56:32Z</time>
      </trkpt>
      <trkpt lat="46.16425" lon="6.65071">
        <ele>1710</ele>
        <time>2022-07-31T09:56:33Z</time>
      </trkpt>
      <trkpt lat="46.16425" lon="6.65069">
        <ele>1710</ele>
        <time>2022-07-31T09:56:34Z</time>
      </trkpt>
      <trkpt lat="46.16425" lon="6.65068">
        <ele>1710</ele>
        <time>2022-07-31T09:56:35Z</time>
      </trkpt>
      <trkpt lat="46.16423" lon="6.65066">
        <ele>1710</ele>
        <time>2022-07-31T09:56:36Z</time>
      </trkpt>
      <trkpt lat="46.16422" lon="6.65065">
        <ele>1710</ele>
        <time>2022-07-31T09:56:37Z</time>
      </trkpt>
      <trkpt lat="46.16421" lon="6.65064">
        <ele>1710</ele>
        <time>2022-07-31T09:56:38Z</time>
      </trkpt>
      <trkpt lat="46.1642" lon="6.65063">
        <ele>1711</ele>
        <time>2022-07-31T09:56:39Z</time>
      </trkpt>
      <trkpt lat="46.16419" lon="6.65062">
        <ele>1711</ele>
        <time>2022-07-31T09:56:40Z</time>
      </trkpt>
      <trkpt lat="46.16418" lon="6.6506">
        <ele>1711</ele>
        <time>2022-07-31T09:56:41Z</time>
      </trkpt>
      <trkpt lat="46.16417" lon="6.65058">
        <ele>1711</ele>
        <time>2022-07-31T09:56:42Z</time>
      </trkpt>
      <trkpt lat="46.16416" lon="6.65057">
        <ele>1711</ele>
        <time>2022-07-31T09:56:43Z</time>
      </trkpt>
      <trkpt lat="46.16414" lon="6.65056">
        <ele>1711</ele>
        <time>2022-07-31T09:56:44Z</time>
      </trkpt>
      <trkpt lat="46.16413" lon="6.65055">
        <ele>1711</ele>
        <time>2022-07-31T09:56:45Z</time>
      </trkpt>
      <trkpt lat="46.16412" lon="6.65055">
        <ele>1711</ele>
        <time>2022-07-31T09:56:46Z</time>
      </trkpt>
      <trkpt lat="46.16411" lon="6.65053">
        <ele>1711</ele>
        <time>2022-07-31T09:56:47Z</time>
      </trkpt>
      <trkpt lat="46.1641" lon="6.65051">
        <ele>1710</ele>
        <time>2022-07-31T09:56:48Z</time>
      </trkpt>
      <trkpt lat="46.16409" lon="6.65051">
        <ele>1710</ele>
        <time>2022-07-31T09:56:49Z</time>
      </trkpt>
      <trkpt lat="46.16408" lon="6.65049">
        <ele>1710</ele>
        <time>2022-07-31T09:56:50Z</time>
      </trkpt>
      <trkpt lat="46.16407" lon="6.65048">
        <ele>1710</ele>
        <time>2022-07-31T09:56:51Z</time>
      </trkpt>
      <trkpt lat="46.16406" lon="6.65046">
        <ele>1710</ele>
        <time>2022-07-31T09:56:52Z</time>
      </trkpt>
      <trkpt lat="46.16405" lon="6.65045">
        <ele>1710</ele>
        <time>2022-07-31T09:56:53Z</time>
      </trkpt>
      <trkpt lat="46.16404" lon="6.65043">
        <ele>1710</ele>
        <time>2022-07-31T09:56:54Z</time>
      </trkpt>
      <trkpt lat="46.16403" lon="6.65042">
        <ele>1709</ele>
        <time>2022-07-31T09:56:55Z</time>
      </trkpt>
      <trkpt lat="46.16403" lon="6.65041">
        <ele>1709</ele>
        <time>2022-07-31T09:56:56Z</time>
      </trkpt>
      <trkpt lat="46.16402" lon="6.6504">
        <ele>1709</ele>
        <time>2022-07-31T09:56:57Z</time>
      </trkpt>
      <trkpt lat="46.16401" lon="6.65039">
        <ele>1709</ele>
        <time>2022-07-31T09:56:58Z</time>
      </trkpt>
      <trkpt lat="46.164" lon="6.65038">
        <ele>1709</ele>
        <time>2022-07-31T09:56:59Z</time>
      </trkpt>
      <trkpt lat="46.16398" lon="6.65037">
        <ele>1709</ele>
        <time>2022-07-31T09:57:00Z</time>
      </trkpt>
      <trkpt lat="46.16397" lon="6.65037">
        <ele>1709</ele>
        <time>2022-07-31T09:57:01Z</time>
      </trkpt>
      <trkpt lat="46.16396" lon="6.65037">
        <ele>1709</ele>
        <time>2022-07-31T09:57:02Z</time>
      </trkpt>
      <trkpt lat="46.16395" lon="6.65036">
        <ele>1709</ele>
        <time>2022-07-31T09:57:03Z</time>
      </trkpt>
      <trkpt lat="46.16394" lon="6.65035">
        <ele>1709</ele>
        <time>2022-07-31T09:57:04Z</time>
      </trkpt>
      <trkpt lat="46.16393" lon="6.65034">
        <ele>1709</ele>
        <time>2022-07-31T09:57:05Z</time>
      </trkpt>
      <trkpt lat="46.16393" lon="6.65033">
        <ele>1709</ele>
        <time>2022-07-31T09:57:06Z</time>
      </trkpt>
      <trkpt lat="46.16394" lon="6.65032">
        <ele>1709</ele>
        <time>2022-07-31T09:57:07Z</time>
      </trkpt>
      <trkpt lat="46.16393" lon="6.6503">
        <ele>1709</ele>
        <time>2022-07-31T09:57:08Z</time>
      </trkpt>
      <trkpt lat="46.16393" lon="6.65029">
        <ele>1709</ele>
        <time>2022-07-31T09:57:09Z</time>
      </trkpt>
      <trkpt lat="46.16391" lon="6.65027">
        <ele>1709</ele>
        <time>2022-07-31T09:57:10Z</time>
      </trkpt>
      <trkpt lat="46.1639" lon="6.65024">
        <ele>1709</ele>
        <time>2022-07-31T09:57:11Z</time>
      </trkpt>
      <trkpt lat="46.16389" lon="6.65022">
        <ele>1709</ele>
        <time>2022-07-31T09:57:12Z</time>
      </trkpt>
      <trkpt lat="46.16388" lon="6.6502">
        <ele>1709</ele>
        <time>2022-07-31T09:57:13Z</time>
      </trkpt>
      <trkpt lat="46.16387" lon="6.65018">
        <ele>1709</ele>
        <time>2022-07-31T09:57:14Z</time>
      </trkpt>
      <trkpt lat="46.16386" lon="6.65015">
        <ele>1709</ele>
        <time>2022-07-31T09:57:15Z</time>
      </trkpt>
      <trkpt lat="46.16386" lon="6.65013">
        <ele>1709</ele>
        <time>2022-07-31T09:57:16Z</time>
      </trkpt>
      <trkpt lat="46.16386" lon="6.65012">
        <ele>1709</ele>
        <time>2022-07-31T09:57:17Z</time>
      </trkpt>
      <trkpt lat="46.16386" lon="6.6501">
        <ele>1709</ele>
        <time>2022-07-31T09:57:18Z</time>
      </trkpt>
      <trkpt lat="46.16385" lon="6.65008">
        <ele>1709</ele>
        <time>2022-07-31T09:57:19Z</time>
      </trkpt>
      <trkpt lat="46.16385" lon="6.65007">
        <ele>1709</ele>
        <time>2022-07-31T09:57:20Z</time>
      </trkpt>
      <trkpt lat="46.16385" lon="6.65006">
        <ele>1709</ele>
        <time>2022-07-31T09:57:21Z</time>
      </trkpt>
      <trkpt lat="46.16384" lon="6.65006">
        <ele>1709</ele>
        <time>2022-07-31T09:57:22Z</time>
      </trkpt>
      <trkpt lat="46.16384" lon="6.65005">
        <ele>1710</ele>
        <time>2022-07-31T09:57:23Z</time>
      </trkpt>
      <trkpt lat="46.16384" lon="6.65004">
        <ele>1710</ele>
        <time>2022-07-31T09:57:24Z</time>
      </trkpt>
      <trkpt lat="46.16384" lon="6.65003">
        <ele>1710</ele>
        <time>2022-07-31T09:57:25Z</time>
      </trkpt>
      <trkpt lat="46.16384" lon="6.65001">
        <ele>1710</ele>
        <time>2022-07-31T09:57:26Z</time>
      </trkpt>
      <trkpt lat="46.16384" lon="6.64999">
        <ele>1710</ele>
        <time>2022-07-31T09:57:27Z</time>
      </trkpt>
      <trkpt lat="46.16383" lon="6.64998">
        <ele>1710</ele>
        <time>2022-07-31T09:57:28Z</time>
      </trkpt>
      <trkpt lat="46.16382" lon="6.64997">
        <ele>1710</ele>
        <time>2022-07-31T09:57:29Z</time>
      </trkpt>
      <trkpt lat="46.16382" lon="6.64996">
        <ele>1710</ele>
        <time>2022-07-31T09:57:30Z</time>
      </trkpt>
      <trkpt lat="46.16381" lon="6.64995">
        <ele>1710</ele>
        <time>2022-07-31T09:57:31Z</time>
      </trkpt>
      <trkpt lat="46.16381" lon="6.64994">
        <ele>1710</ele>
        <time>2022-07-31T09:57:32Z</time>
      </trkpt>
      <trkpt lat="46.1638" lon="6.64994">
        <ele>1710</ele>
        <time>2022-07-31T09:57:33Z</time>
      </trkpt>
      <trkpt lat="46.16379" lon="6.64993">
        <ele>1710</ele>
        <time>2022-07-31T09:57:34Z</time>
      </trkpt>
      <trkpt lat="46.16379" lon="6.64993">
        <ele>1710</ele>
        <time>2022-07-31T09:57:35Z</time>
      </trkpt>
      <trkpt lat="46.16378" lon="6.64992">
        <ele>1710</ele>
        <time>2022-07-31T09:57:36Z</time>
      </trkpt>
      <trkpt lat="46.16377" lon="6.64993">
        <ele>1710</ele>
        <time>2022-07-31T09:57:37Z</time>
      </trkpt>
      <trkpt lat="46.16377" lon="6.64993">
        <ele>1710</ele>
        <time>2022-07-31T09:57:38Z</time>
      </trkpt>
      <trkpt lat="46.16377" lon="6.64994">
        <ele>1710</ele>
        <time>2022-07-31T09:57:39Z</time>
      </trkpt>
      <trkpt lat="46.16376" lon="6.64994">
        <ele>1710</ele>
        <time>2022-07-31T09:57:40Z</time>
      </trkpt>
      <trkpt lat="46.16376" lon="6.64994">
        <ele>1710</ele>
        <time>2022-07-31T09:57:41Z</time>
      </trkpt>
      <trkpt lat="46.16375" lon="6.64994">
        <ele>1710</ele>
        <time>2022-07-31T09:57:42Z</time>
      </trkpt>
      <trkpt lat="46.16373" lon="6.64993">
        <ele>1710</ele>
        <time>2022-07-31T09:57:43Z</time>
      </trkpt>
      <trkpt lat="46.16372" lon="6.64992">
        <ele>1710</ele>
        <time>2022-07-31T09:57:44Z</time>
      </trkpt>
      <trkpt lat="46.16371" lon="6.64993">
        <ele>1710</ele>
        <time>2022-07-31T09:57:45Z</time>
      </trkpt>
      <trkpt lat="46.1637" lon="6.64992">
        <ele>1710</ele>
        <time>2022-07-31T09:57:46Z</time>
      </trkpt>
      <trkpt lat="46.16369" lon="6.64991">
        <ele>1710</ele>
        <time>2022-07-31T09:57:47Z</time>
      </trkpt>
      <trkpt lat="46.16368" lon="6.6499">
        <ele>1711</ele>
        <time>2022-07-31T09:57:48Z</time>
      </trkpt>
      <trkpt lat="46.16368" lon="6.64989">
        <ele>1711</ele>
        <time>2022-07-31T09:57:49Z</time>
      </trkpt>
      <trkpt lat="46.16368" lon="6.64988">
        <ele>1711</ele>
        <time>2022-07-31T09:57:50Z</time>
      </trkpt>
      <trkpt lat="46.16367" lon="6.64987">
        <ele>1711</ele>
        <time>2022-07-31T09:57:51Z</time>
      </trkpt>
      <trkpt lat="46.16366" lon="6.64986">
        <ele>1711</ele>
        <time>2022-07-31T09:57:52Z</time>
      </trkpt>
      <trkpt lat="46.16365" lon="6.64985">
        <ele>1711</ele>
        <time>2022-07-31T09:57:53Z</time>
      </trkpt>
      <trkpt lat="46.16364" lon="6.64984">
        <ele>1711</ele>
        <time>2022-07-31T09:57:54Z</time>
      </trkpt>
      <trkpt lat="46.16362" lon="6.64983">
        <ele>1711</ele>
        <time>2022-07-31T09:57:55Z</time>
      </trkpt>
      <trkpt lat="46.16362" lon="6.64983">
        <ele>1711</ele>
        <time>2022-07-31T09:57:56Z</time>
      </trkpt>
      <trkpt lat="46.1636" lon="6.64982">
        <ele>1711</ele>
        <time>2022-07-31T09:57:57Z</time>
      </trkpt>
      <trkpt lat="46.1636" lon="6.64981">
        <ele>1710</ele>
        <time>2022-07-31T09:57:58Z</time>
      </trkpt>
      <trkpt lat="46.16359" lon="6.64981">
        <ele>1710</ele>
        <time>2022-07-31T09:57:59Z</time>
      </trkpt>
      <trkpt lat="46.16359" lon="6.64982">
        <ele>1710</ele>
        <time>2022-07-31T09:58:00Z</time>
      </trkpt>
      <trkpt lat="46.16359" lon="6.64982">
        <ele>1710</ele>
        <time>2022-07-31T09:58:01Z</time>
      </trkpt>
      <trkpt lat="46.16357" lon="6.64981">
        <ele>1710</ele>
        <time>2022-07-31T09:58:02Z</time>
      </trkpt>
      <trkpt lat="46.16357" lon="6.6498">
        <ele>1710</ele>
        <time>2022-07-31T09:58:03Z</time>
      </trkpt>
      <trkpt lat="46.16359" lon="6.64979">
        <ele>1710</ele>
        <time>2022-07-31T09:58:04Z</time>
      </trkpt>
      <trkpt lat="46.16359" lon="6.64978">
        <ele>1710</ele>
        <time>2022-07-31T09:58:05Z</time>
      </trkpt>
      <trkpt lat="46.16359" lon="6.64977">
        <ele>1710</ele>
        <time>2022-07-31T09:58:06Z</time>
      </trkpt>
      <trkpt lat="46.16359" lon="6.64976">
        <ele>1710</ele>
        <time>2022-07-31T09:58:07Z</time>
      </trkpt>
      <trkpt lat="46.16359" lon="6.64975">
        <ele>1710</ele>
        <time>2022-07-31T09:58:08Z</time>
      </trkpt>
      <trkpt lat="46.16357" lon="6.64974">
        <ele>1710</ele>
        <time>2022-07-31T09:58:09Z</time>
      </trkpt>
      <trkpt lat="46.16357" lon="6.64972">
        <ele>1710</ele>
        <time>2022-07-31T09:58:10Z</time>
      </trkpt>
      <trkpt lat="46.16357" lon="6.64971">
        <ele>1710</ele>
        <time>2022-07-31T09:58:11Z</time>
      </trkpt>
      <trkpt lat="46.16357" lon="6.6497">
        <ele>1710</ele>
        <time>2022-07-31T09:58:12Z</time>
      </trkpt>
      <trkpt lat="46.16357" lon="6.64969">
        <ele>1710</ele>
        <time>2022-07-31T09:58:13Z</time>
      </trkpt>
      <trkpt lat="46.16356" lon="6.64968">
        <ele>1710</ele>
        <time>2022-07-31T09:58:14Z</time>
      </trkpt>
      <trkpt lat="46.16356" lon="6.64967">
        <ele>1710</ele>
        <time>2022-07-31T09:58:15Z</time>
      </trkpt>
      <trkpt lat="46.16354" lon="6.64966">
        <ele>1710</ele>
        <time>2022-07-31T09:58:16Z</time>
      </trkpt>
      <trkpt lat="46.16354" lon="6.64965">
        <ele>1710</ele>
        <time>2022-07-31T09:58:17Z</time>
      </trkpt>
      <trkpt lat="46.16353" lon="6.64963">
        <ele>1710</ele>
        <time>2022-07-31T09:58:18Z</time>
      </trkpt>
      <trkpt lat="46.16353" lon="6.64961">
        <ele>1710</ele>
        <time>2022-07-31T09:58:19Z</time>
      </trkpt>
      <trkpt lat="46.16353" lon="6.6496">
        <ele>1710</ele>
        <time>2022-07-31T09:58:20Z</time>
      </trkpt>
      <trkpt lat="46.16352" lon="6.64959">
        <ele>1710</ele>
        <time>2022-07-31T09:58:21Z</time>
      </trkpt>
      <trkpt lat="46.16352" lon="6.64957">
        <ele>1710</ele>
        <time>2022-07-31T09:58:22Z</time>
      </trkpt>
      <trkpt lat="46.1635" lon="6.64956">
        <ele>1710</ele>
        <time>2022-07-31T09:58:23Z</time>
      </trkpt>
      <trkpt lat="46.16349" lon="6.64954">
        <ele>1709</ele>
        <time>2022-07-31T09:58:24Z</time>
      </trkpt>
      <trkpt lat="46.16349" lon="6.64953">
        <ele>1709</ele>
        <time>2022-07-31T09:58:25Z</time>
      </trkpt>
      <trkpt lat="46.16348" lon="6.64952">
        <ele>1709</ele>
        <time>2022-07-31T09:58:26Z</time>
      </trkpt>
      <trkpt lat="46.16347" lon="6.6495">
        <ele>1708</ele>
        <time>2022-07-31T09:58:27Z</time>
      </trkpt>
      <trkpt lat="46.16345" lon="6.64949">
        <ele>1708</ele>
        <time>2022-07-31T09:58:28Z</time>
      </trkpt>
      <trkpt lat="46.16345" lon="6.64947">
        <ele>1707</ele>
        <time>2022-07-31T09:58:29Z</time>
      </trkpt>
      <trkpt lat="46.16344" lon="6.64945">
        <ele>1707</ele>
        <time>2022-07-31T09:58:30Z</time>
      </trkpt>
      <trkpt lat="46.16342" lon="6.64944">
        <ele>1706</ele>
        <time>2022-07-31T09:58:31Z</time>
      </trkpt>
      <trkpt lat="46.16342" lon="6.64943">
        <ele>1706</ele>
        <time>2022-07-31T09:58:32Z</time>
      </trkpt>
      <trkpt lat="46.16341" lon="6.64941">
        <ele>1706</ele>
        <time>2022-07-31T09:58:33Z</time>
      </trkpt>
      <trkpt lat="46.16341" lon="6.6494">
        <ele>1705</ele>
        <time>2022-07-31T09:58:34Z</time>
      </trkpt>
      <trkpt lat="46.1634" lon="6.64938">
        <ele>1705</ele>
        <time>2022-07-31T09:58:35Z</time>
      </trkpt>
      <trkpt lat="46.1634" lon="6.64937">
        <ele>1705</ele>
        <time>2022-07-31T09:58:36Z</time>
      </trkpt>
      <trkpt lat="46.16339" lon="6.64934">
        <ele>1705</ele>
        <time>2022-07-31T09:58:37Z</time>
      </trkpt>
      <trkpt lat="46.16339" lon="6.64932">
        <ele>1705</ele>
        <time>2022-07-31T09:58:38Z</time>
      </trkpt>
      <trkpt lat="46.1634" lon="6.64932">
        <ele>1704</ele>
        <time>2022-07-31T09:58:39Z</time>
      </trkpt>
      <trkpt lat="46.16339" lon="6.6493">
        <ele>1704</ele>
        <time>2022-07-31T09:58:40Z</time>
      </trkpt>
      <trkpt lat="46.16339" lon="6.64928">
        <ele>1704</ele>
        <time>2022-07-31T09:58:41Z</time>
      </trkpt>
      <trkpt lat="46.16338" lon="6.64927">
        <ele>1704</ele>
        <time>2022-07-31T09:58:42Z</time>
      </trkpt>
      <trkpt lat="46.16338" lon="6.64925">
        <ele>1704</ele>
        <time>2022-07-31T09:58:43Z</time>
      </trkpt>
      <trkpt lat="46.16337" lon="6.64923">
        <ele>1703</ele>
        <time>2022-07-31T09:58:44Z</time>
      </trkpt>
      <trkpt lat="46.16337" lon="6.64922">
        <ele>1703</ele>
        <time>2022-07-31T09:58:45Z</time>
      </trkpt>
      <trkpt lat="46.16336" lon="6.64919">
        <ele>1703</ele>
        <time>2022-07-31T09:58:46Z</time>
      </trkpt>
      <trkpt lat="46.16334" lon="6.64918">
        <ele>1703</ele>
        <time>2022-07-31T09:58:47Z</time>
      </trkpt>
      <trkpt lat="46.16334" lon="6.64916">
        <ele>1703</ele>
        <time>2022-07-31T09:58:48Z</time>
      </trkpt>
      <trkpt lat="46.16333" lon="6.64915">
        <ele>1702</ele>
        <time>2022-07-31T09:58:49Z</time>
      </trkpt>
      <trkpt lat="46.16333" lon="6.64914">
        <ele>1702</ele>
        <time>2022-07-31T09:58:50Z</time>
      </trkpt>
      <trkpt lat="46.16332" lon="6.64912">
        <ele>1702</ele>
        <time>2022-07-31T09:58:51Z</time>
      </trkpt>
      <trkpt lat="46.16332" lon="6.6491">
        <ele>1702</ele>
        <time>2022-07-31T09:58:52Z</time>
      </trkpt>
      <trkpt lat="46.16332" lon="6.64908">
        <ele>1701</ele>
        <time>2022-07-31T09:58:53Z</time>
      </trkpt>
      <trkpt lat="46.16332" lon="6.64907">
        <ele>1701</ele>
        <time>2022-07-31T09:58:54Z</time>
      </trkpt>
      <trkpt lat="46.16332" lon="6.64904">
        <ele>1701</ele>
        <time>2022-07-31T09:58:55Z</time>
      </trkpt>
      <trkpt lat="46.16332" lon="6.64901">
        <ele>1701</ele>
        <time>2022-07-31T09:58:56Z</time>
      </trkpt>
      <trkpt lat="46.16332" lon="6.64899">
        <ele>1700</ele>
        <time>2022-07-31T09:58:57Z</time>
      </trkpt>
      <trkpt lat="46.16333" lon="6.64897">
        <ele>1700</ele>
        <time>2022-07-31T09:58:58Z</time>
      </trkpt>
      <trkpt lat="46.16332" lon="6.64896">
        <ele>1700</ele>
        <time>2022-07-31T09:58:59Z</time>
      </trkpt>
      <trkpt lat="46.16332" lon="6.64895">
        <ele>1700</ele>
        <time>2022-07-31T09:59:00Z</time>
      </trkpt>
      <trkpt lat="46.16332" lon="6.64893">
        <ele>1699</ele>
        <time>2022-07-31T09:59:01Z</time>
      </trkpt>
      <trkpt lat="46.16331" lon="6.64892">
        <ele>1699</ele>
        <time>2022-07-31T09:59:02Z</time>
      </trkpt>
      <trkpt lat="46.16331" lon="6.6489">
        <ele>1699</ele>
        <time>2022-07-31T09:59:03Z</time>
      </trkpt>
      <trkpt lat="46.1633" lon="6.64889">
        <ele>1699</ele>
        <time>2022-07-31T09:59:04Z</time>
      </trkpt>
      <trkpt lat="46.1633" lon="6.64889">
        <ele>1698</ele>
        <time>2022-07-31T09:59:05Z</time>
      </trkpt>
      <trkpt lat="46.1633" lon="6.64888">
        <ele>1698</ele>
        <time>2022-07-31T09:59:06Z</time>
      </trkpt>
      <trkpt lat="46.1633" lon="6.64888">
        <ele>1698</ele>
        <time>2022-07-31T09:59:07Z</time>
      </trkpt>
      <trkpt lat="46.1633" lon="6.64886">
        <ele>1698</ele>
        <time>2022-07-31T09:59:08Z</time>
      </trkpt>
      <trkpt lat="46.1633" lon="6.64885">
        <ele>1698</ele>
        <time>2022-07-31T09:59:09Z</time>
      </trkpt>
      <trkpt lat="46.16328" lon="6.64884">
        <ele>1697</ele>
        <time>2022-07-31T09:59:10Z</time>
      </trkpt>
      <trkpt lat="46.16328" lon="6.64882">
        <ele>1697</ele>
        <time>2022-07-31T09:59:11Z</time>
      </trkpt>
      <trkpt lat="46.16328" lon="6.64881">
        <ele>1697</ele>
        <time>2022-07-31T09:59:12Z</time>
      </trkpt>
      <trkpt lat="46.16327" lon="6.64881">
        <ele>1697</ele>
        <time>2022-07-31T09:59:13Z</time>
      </trkpt>
      <trkpt lat="46.16327" lon="6.64881">
        <ele>1696</ele>
        <time>2022-07-31T09:59:14Z</time>
      </trkpt>
      <trkpt lat="46.16326" lon="6.64879">
        <ele>1696</ele>
        <time>2022-07-31T09:59:15Z</time>
      </trkpt>
      <trkpt lat="46.16325" lon="6.64878">
        <ele>1696</ele>
        <time>2022-07-31T09:59:16Z</time>
      </trkpt>
      <trkpt lat="46.16324" lon="6.64877">
        <ele>1696</ele>
        <time>2022-07-31T09:59:17Z</time>
      </trkpt>
      <trkpt lat="46.16324" lon="6.64876">
        <ele>1696</ele>
        <time>2022-07-31T09:59:18Z</time>
      </trkpt>
      <trkpt lat="46.16324" lon="6.64875">
        <ele>1696</ele>
        <time>2022-07-31T09:59:19Z</time>
      </trkpt>
      <trkpt lat="46.16323" lon="6.64874">
        <ele>1696</ele>
        <time>2022-07-31T09:59:20Z</time>
      </trkpt>
      <trkpt lat="46.16322" lon="6.64873">
        <ele>1696</ele>
        <time>2022-07-31T09:59:21Z</time>
      </trkpt>
      <trkpt lat="46.16321" lon="6.64872">
        <ele>1696</ele>
        <time>2022-07-31T09:59:22Z</time>
      </trkpt>
      <trkpt lat="46.1632" lon="6.64872">
        <ele>1696</ele>
        <time>2022-07-31T09:59:23Z</time>
      </trkpt>
      <trkpt lat="46.16319" lon="6.6487">
        <ele>1695</ele>
        <time>2022-07-31T09:59:24Z</time>
      </trkpt>
      <trkpt lat="46.16318" lon="6.64869">
        <ele>1695</ele>
        <time>2022-07-31T09:59:25Z</time>
      </trkpt>
      <trkpt lat="46.16317" lon="6.64869">
        <ele>1695</ele>
        <time>2022-07-31T09:59:26Z</time>
      </trkpt>
      <trkpt lat="46.16316" lon="6.64869">
        <ele>1695</ele>
        <time>2022-07-31T09:59:27Z</time>
      </trkpt>
      <trkpt lat="46.16315" lon="6.64869">
        <ele>1695</ele>
        <time>2022-07-31T09:59:28Z</time>
      </trkpt>
      <trkpt lat="46.16315" lon="6.64868">
        <ele>1695</ele>
        <time>2022-07-31T09:59:29Z</time>
      </trkpt>
      <trkpt lat="46.16315" lon="6.64867">
        <ele>1694</ele>
        <time>2022-07-31T09:59:30Z</time>
      </trkpt>
      <trkpt lat="46.16315" lon="6.64866">
        <ele>1694</ele>
        <time>2022-07-31T09:59:31Z</time>
      </trkpt>
      <trkpt lat="46.16314" lon="6.64865">
        <ele>1694</ele>
        <time>2022-07-31T09:59:32Z</time>
      </trkpt>
      <trkpt lat="46.16313" lon="6.64865">
        <ele>1694</ele>
        <time>2022-07-31T09:59:33Z</time>
      </trkpt>
      <trkpt lat="46.16313" lon="6.64864">
        <ele>1694</ele>
        <time>2022-07-31T09:59:34Z</time>
      </trkpt>
      <trkpt lat="46.16312" lon="6.64862">
        <ele>1693</ele>
        <time>2022-07-31T09:59:35Z</time>
      </trkpt>
      <trkpt lat="46.16312" lon="6.64861">
        <ele>1693</ele>
        <time>2022-07-31T09:59:36Z</time>
      </trkpt>
      <trkpt lat="46.16311" lon="6.64861">
        <ele>1693</ele>
        <time>2022-07-31T09:59:37Z</time>
      </trkpt>
      <trkpt lat="46.1631" lon="6.6486">
        <ele>1692</ele>
        <time>2022-07-31T09:59:38Z</time>
      </trkpt>
      <trkpt lat="46.1631" lon="6.64859">
        <ele>1692</ele>
        <time>2022-07-31T09:59:39Z</time>
      </trkpt>
      <trkpt lat="46.16309" lon="6.64858">
        <ele>1692</ele>
        <time>2022-07-31T09:59:40Z</time>
      </trkpt>
      <trkpt lat="46.16308" lon="6.64856">
        <ele>1691</ele>
        <time>2022-07-31T09:59:41Z</time>
      </trkpt>
      <trkpt lat="46.16306" lon="6.64855">
        <ele>1691</ele>
        <time>2022-07-31T09:59:42Z</time>
      </trkpt>
      <trkpt lat="46.16305" lon="6.64854">
        <ele>1691</ele>
        <time>2022-07-31T09:59:43Z</time>
      </trkpt>
      <trkpt lat="46.16305" lon="6.64853">
        <ele>1690</ele>
        <time>2022-07-31T09:59:44Z</time>
      </trkpt>
      <trkpt lat="46.16304" lon="6.64851">
        <ele>1690</ele>
        <time>2022-07-31T09:59:45Z</time>
      </trkpt>
      <trkpt lat="46.16303" lon="6.64849">
        <ele>1690</ele>
        <time>2022-07-31T09:59:46Z</time>
      </trkpt>
      <trkpt lat="46.16303" lon="6.64847">
        <ele>1690</ele>
        <time>2022-07-31T09:59:47Z</time>
      </trkpt>
      <trkpt lat="46.16302" lon="6.64845">
        <ele>1689</ele>
        <time>2022-07-31T09:59:48Z</time>
      </trkpt>
      <trkpt lat="46.16302" lon="6.64842">
        <ele>1689</ele>
        <time>2022-07-31T09:59:49Z</time>
      </trkpt>
      <trkpt lat="46.16302" lon="6.6484">
        <ele>1689</ele>
        <time>2022-07-31T09:59:50Z</time>
      </trkpt>
      <trkpt lat="46.16302" lon="6.64838">
        <ele>1689</ele>
        <time>2022-07-31T09:59:51Z</time>
      </trkpt>
      <trkpt lat="46.16301" lon="6.64837">
        <ele>1689</ele>
        <time>2022-07-31T09:59:52Z</time>
      </trkpt>
      <trkpt lat="46.163" lon="6.64835">
        <ele>1689</ele>
        <time>2022-07-31T09:59:53Z</time>
      </trkpt>
      <trkpt lat="46.16298" lon="6.64833">
        <ele>1688</ele>
        <time>2022-07-31T09:59:54Z</time>
      </trkpt>
      <trkpt lat="46.16298" lon="6.64832">
        <ele>1688</ele>
        <time>2022-07-31T09:59:55Z</time>
      </trkpt>
      <trkpt lat="46.16297" lon="6.64831">
        <ele>1688</ele>
        <time>2022-07-31T09:59:56Z</time>
      </trkpt>
      <trkpt lat="46.16297" lon="6.6483">
        <ele>1688</ele>
        <time>2022-07-31T09:59:57Z</time>
      </trkpt>
      <trkpt lat="46.16296" lon="6.64829">
        <ele>1688</ele>
        <time>2022-07-31T09:59:58Z</time>
      </trkpt>
      <trkpt lat="46.16296" lon="6.64828">
        <ele>1688</ele>
        <time>2022-07-31T09:59:59Z</time>
      </trkpt>
      <trkpt lat="46.16295" lon="6.64828">
        <ele>1688</ele>
        <time>2022-07-31T10:00:00Z</time>
      </trkpt>
      <trkpt lat="46.16295" lon="6.64827">
        <ele>1688</ele>
        <time>2022-07-31T10:00:01Z</time>
      </trkpt>
      <trkpt lat="46.16295" lon="6.64827">
        <ele>1688</ele>
        <time>2022-07-31T10:00:02Z</time>
      </trkpt>
      <trkpt lat="46.16294" lon="6.64827">
        <ele>1688</ele>
        <time>2022-07-31T10:00:03Z</time>
      </trkpt>
      <trkpt lat="46.16294" lon="6.64827">
        <ele>1688</ele>
        <time>2022-07-31T10:00:04Z</time>
      </trkpt>
      <trkpt lat="46.16293" lon="6.64826">
        <ele>1688</ele>
        <time>2022-07-31T10:00:05Z</time>
      </trkpt>
      <trkpt lat="46.16293" lon="6.64825">
        <ele>1687</ele>
        <time>2022-07-31T10:00:06Z</time>
      </trkpt>
      <trkpt lat="46.16291" lon="6.64823">
        <ele>1687</ele>
        <time>2022-07-31T10:00:07Z</time>
      </trkpt>
      <trkpt lat="46.16291" lon="6.64822">
        <ele>1687</ele>
        <time>2022-07-31T10:00:08Z</time>
      </trkpt>
      <trkpt lat="46.1629" lon="6.6482">
        <ele>1687</ele>
        <time>2022-07-31T10:00:09Z</time>
      </trkpt>
      <trkpt lat="46.1629" lon="6.64818">
        <ele>1686</ele>
        <time>2022-07-31T10:00:10Z</time>
      </trkpt>
      <trkpt lat="46.16289" lon="6.64817">
        <ele>1686</ele>
        <time>2022-07-31T10:00:11Z</time>
      </trkpt>
      <trkpt lat="46.16289" lon="6.64815">
        <ele>1686</ele>
        <time>2022-07-31T10:00:12Z</time>
      </trkpt>
      <trkpt lat="46.16288" lon="6.64813">
        <ele>1686</ele>
        <time>2022-07-31T10:00:13Z</time>
      </trkpt>
      <trkpt lat="46.16288" lon="6.64812">
        <ele>1686</ele>
        <time>2022-07-31T10:00:14Z</time>
      </trkpt>
      <trkpt lat="46.16288" lon="6.64812">
        <ele>1685</ele>
        <time>2022-07-31T10:00:15Z</time>
      </trkpt>
      <trkpt lat="46.16288" lon="6.64811">
        <ele>1685</ele>
        <time>2022-07-31T10:00:16Z</time>
      </trkpt>
      <trkpt lat="46.16288" lon="6.64811">
        <ele>1685</ele>
        <time>2022-07-31T10:00:17Z</time>
      </trkpt>
      <trkpt lat="46.16287" lon="6.64811">
        <ele>1685</ele>
        <time>2022-07-31T10:00:18Z</time>
      </trkpt>
      <trkpt lat="46.16286" lon="6.6481">
        <ele>1685</ele>
        <time>2022-07-31T10:00:19Z</time>
      </trkpt>
      <trkpt lat="46.16286" lon="6.64809">
        <ele>1685</ele>
        <time>2022-07-31T10:00:20Z</time>
      </trkpt>
      <trkpt lat="46.16284" lon="6.64808">
        <ele>1684</ele>
        <time>2022-07-31T10:00:21Z</time>
      </trkpt>
      <trkpt lat="46.16282" lon="6.64807">
        <ele>1684</ele>
        <time>2022-07-31T10:00:22Z</time>
      </trkpt>
      <trkpt lat="46.16282" lon="6.64806">
        <ele>1684</ele>
        <time>2022-07-31T10:00:23Z</time>
      </trkpt>
      <trkpt lat="46.16281" lon="6.64806">
        <ele>1684</ele>
        <time>2022-07-31T10:00:24Z</time>
      </trkpt>
      <trkpt lat="46.16279" lon="6.64805">
        <ele>1684</ele>
        <time>2022-07-31T10:00:25Z</time>
      </trkpt>
      <trkpt lat="46.16279" lon="6.64804">
        <ele>1684</ele>
        <time>2022-07-31T10:00:26Z</time>
      </trkpt>
      <trkpt lat="46.16278" lon="6.64803">
        <ele>1684</ele>
        <time>2022-07-31T10:00:27Z</time>
      </trkpt>
      <trkpt lat="46.16278" lon="6.64802">
        <ele>1684</ele>
        <time>2022-07-31T10:00:28Z</time>
      </trkpt>
      <trkpt lat="46.16278" lon="6.64801">
        <ele>1684</ele>
        <time>2022-07-31T10:00:29Z</time>
      </trkpt>
      <trkpt lat="46.16278" lon="6.648">
        <ele>1684</ele>
        <time>2022-07-31T10:00:30Z</time>
      </trkpt>
      <trkpt lat="46.16278" lon="6.64799">
        <ele>1684</ele>
        <time>2022-07-31T10:00:31Z</time>
      </trkpt>
      <trkpt lat="46.16278" lon="6.64798">
        <ele>1684</ele>
        <time>2022-07-31T10:00:32Z</time>
      </trkpt>
      <trkpt lat="46.16277" lon="6.64797">
        <ele>1684</ele>
        <time>2022-07-31T10:00:33Z</time>
      </trkpt>
      <trkpt lat="46.16276" lon="6.64795">
        <ele>1685</ele>
        <time>2022-07-31T10:00:34Z</time>
      </trkpt>
      <trkpt lat="46.16275" lon="6.64794">
        <ele>1685</ele>
        <time>2022-07-31T10:00:35Z</time>
      </trkpt>
      <trkpt lat="46.16274" lon="6.64793">
        <ele>1685</ele>
        <time>2022-07-31T10:00:36Z</time>
      </trkpt>
      <trkpt lat="46.16273" lon="6.64791">
        <ele>1685</ele>
        <time>2022-07-31T10:00:37Z</time>
      </trkpt>
      <trkpt lat="46.16273" lon="6.64789">
        <ele>1686</ele>
        <time>2022-07-31T10:00:38Z</time>
      </trkpt>
      <trkpt lat="46.16273" lon="6.64788">
        <ele>1686</ele>
        <time>2022-07-31T10:00:39Z</time>
      </trkpt>
      <trkpt lat="46.16271" lon="6.64786">
        <ele>1686</ele>
        <time>2022-07-31T10:00:40Z</time>
      </trkpt>
      <trkpt lat="46.1627" lon="6.64785">
        <ele>1686</ele>
        <time>2022-07-31T10:00:41Z</time>
      </trkpt>
      <trkpt lat="46.16269" lon="6.64783">
        <ele>1687</ele>
        <time>2022-07-31T10:00:42Z</time>
      </trkpt>
      <trkpt lat="46.16268" lon="6.64782">
        <ele>1687</ele>
        <time>2022-07-31T10:00:43Z</time>
      </trkpt>
      <trkpt lat="46.16268" lon="6.64781">
        <ele>1687</ele>
        <time>2022-07-31T10:00:44Z</time>
      </trkpt>
      <trkpt lat="46.16267" lon="6.6478">
        <ele>1687</ele>
        <time>2022-07-31T10:00:45Z</time>
      </trkpt>
      <trkpt lat="46.16266" lon="6.6478">
        <ele>1687</ele>
        <time>2022-07-31T10:00:46Z</time>
      </trkpt>
      <trkpt lat="46.16265" lon="6.64778">
        <ele>1687</ele>
        <time>2022-07-31T10:00:47Z</time>
      </trkpt>
      <trkpt lat="46.16265" lon="6.64778">
        <ele>1687</ele>
        <time>2022-07-31T10:00:48Z</time>
      </trkpt>
      <trkpt lat="46.16265" lon="6.64777">
        <ele>1688</ele>
        <time>2022-07-31T10:00:49Z</time>
      </trkpt>
      <trkpt lat="46.16264" lon="6.64776">
        <ele>1687</ele>
        <time>2022-07-31T10:00:50Z</time>
      </trkpt>
      <trkpt lat="46.16264" lon="6.64774">
        <ele>1687</ele>
        <time>2022-07-31T10:00:51Z</time>
      </trkpt>
      <trkpt lat="46.16264" lon="6.64774">
        <ele>1687</ele>
        <time>2022-07-31T10:00:52Z</time>
      </trkpt>
      <trkpt lat="46.16262" lon="6.64772">
        <ele>1687</ele>
        <time>2022-07-31T10:00:53Z</time>
      </trkpt>
      <trkpt lat="46.16261" lon="6.64772">
        <ele>1687</ele>
        <time>2022-07-31T10:00:54Z</time>
      </trkpt>
      <trkpt lat="46.16261" lon="6.64772">
        <ele>1687</ele>
        <time>2022-07-31T10:00:55Z</time>
      </trkpt>
      <trkpt lat="46.16261" lon="6.64772">
        <ele>1687</ele>
        <time>2022-07-31T10:00:56Z</time>
      </trkpt>
      <trkpt lat="46.1626" lon="6.64772">
        <ele>1687</ele>
        <time>2022-07-31T10:00:57Z</time>
      </trkpt>
      <trkpt lat="46.16259" lon="6.64772">
        <ele>1687</ele>
        <time>2022-07-31T10:00:58Z</time>
      </trkpt>
      <trkpt lat="46.16259" lon="6.64773">
        <ele>1687</ele>
        <time>2022-07-31T10:00:59Z</time>
      </trkpt>
      <trkpt lat="46.16259" lon="6.64773">
        <ele>1687</ele>
        <time>2022-07-31T10:01:00Z</time>
      </trkpt>
      <trkpt lat="46.16258" lon="6.64772">
        <ele>1687</ele>
        <time>2022-07-31T10:01:01Z</time>
      </trkpt>
      <trkpt lat="46.16258" lon="6.64771">
        <ele>1687</ele>
        <time>2022-07-31T10:01:02Z</time>
      </trkpt>
      <trkpt lat="46.16258" lon="6.64771">
        <ele>1687</ele>
        <time>2022-07-31T10:01:03Z</time>
      </trkpt>
      <trkpt lat="46.16258" lon="6.64771">
        <ele>1687</ele>
        <time>2022-07-31T10:01:04Z</time>
      </trkpt>
      <trkpt lat="46.16258" lon="6.64771">
        <ele>1687</ele>
        <time>2022-07-31T10:01:05Z</time>
      </trkpt>
      <trkpt lat="46.16258" lon="6.6477">
        <ele>1687</ele>
        <time>2022-07-31T10:01:06Z</time>
      </trkpt>
      <trkpt lat="46.16258" lon="6.6477">
        <ele>1687</ele>
        <time>2022-07-31T10:01:07Z</time>
      </trkpt>
      <trkpt lat="46.16257" lon="6.6477">
        <ele>1687</ele>
        <time>2022-07-31T10:01:08Z</time>
      </trkpt>
      <trkpt lat="46.16256" lon="6.64769">
        <ele>1687</ele>
        <time>2022-07-31T10:01:09Z</time>
      </trkpt>
      <trkpt lat="46.16256" lon="6.64769">
        <ele>1686</ele>
        <time>2022-07-31T10:01:10Z</time>
      </trkpt>
      <trkpt lat="46.16254" lon="6.64768">
        <ele>1686</ele>
        <time>2022-07-31T10:01:11Z</time>
      </trkpt>
      <trkpt lat="46.16254" lon="6.64769">
        <ele>1686</ele>
        <time>2022-07-31T10:01:12Z</time>
      </trkpt>
      <trkpt lat="46.16253" lon="6.64769">
        <ele>1686</ele>
        <time>2022-07-31T10:01:13Z</time>
      </trkpt>
      <trkpt lat="46.16252" lon="6.64768">
        <ele>1686</ele>
        <time>2022-07-31T10:01:14Z</time>
      </trkpt>
      <trkpt lat="46.16251" lon="6.64768">
        <ele>1686</ele>
        <time>2022-07-31T10:01:15Z</time>
      </trkpt>
      <trkpt lat="46.16251" lon="6.64768">
        <ele>1686</ele>
        <time>2022-07-31T10:01:16Z</time>
      </trkpt>
      <trkpt lat="46.16251" lon="6.64768">
        <ele>1686</ele>
        <time>2022-07-31T10:01:17Z</time>
      </trkpt>
      <trkpt lat="46.1625" lon="6.64768">
        <ele>1686</ele>
        <time>2022-07-31T10:01:18Z</time>
      </trkpt>
      <trkpt lat="46.1625" lon="6.64767">
        <ele>1686</ele>
        <time>2022-07-31T10:01:19Z</time>
      </trkpt>
      <trkpt lat="46.1625" lon="6.64767">
        <ele>1686</ele>
        <time>2022-07-31T10:01:20Z</time>
      </trkpt>
      <trkpt lat="46.1625" lon="6.64767">
        <ele>1686</ele>
        <time>2022-07-31T10:01:21Z</time>
      </trkpt>
      <trkpt lat="46.1625" lon="6.64767">
        <ele>1686</ele>
        <time>2022-07-31T10:01:22Z</time>
      </trkpt>
      <trkpt lat="46.1625" lon="6.64766">
        <ele>1685</ele>
        <time>2022-07-31T10:01:23Z</time>
      </trkpt>
      <trkpt lat="46.16249" lon="6.64764">
        <ele>1685</ele>
        <time>2022-07-31T10:01:24Z</time>
      </trkpt>
      <trkpt lat="46.16248" lon="6.64762">
        <ele>1685</ele>
        <time>2022-07-31T10:01:25Z</time>
      </trkpt>
      <trkpt lat="46.16247" lon="6.6476">
        <ele>1685</ele>
        <time>2022-07-31T10:01:26Z</time>
      </trkpt>
      <trkpt lat="46.16245" lon="6.64759">
        <ele>1685</ele>
        <time>2022-07-31T10:01:27Z</time>
      </trkpt>
      <trkpt lat="46.16245" lon="6.64757">
        <ele>1685</ele>
        <time>2022-07-31T10:01:28Z</time>
      </trkpt>
      <trkpt lat="46.16245" lon="6.64756">
        <ele>1685</ele>
        <time>2022-07-31T10:01:29Z</time>
      </trkpt>
      <trkpt lat="46.16245" lon="6.64754">
        <ele>1685</ele>
        <time>2022-07-31T10:01:30Z</time>
      </trkpt>
      <trkpt lat="46.16245" lon="6.64752">
        <ele>1684</ele>
        <time>2022-07-31T10:01:31Z</time>
      </trkpt>
      <trkpt lat="46.16244" lon="6.64753">
        <ele>1684</ele>
        <time>2022-07-31T10:01:32Z</time>
      </trkpt>
      <trkpt lat="46.16242" lon="6.64752">
        <ele>1684</ele>
        <time>2022-07-31T10:01:33Z</time>
      </trkpt>
      <trkpt lat="46.16242" lon="6.64751">
        <ele>1684</ele>
        <time>2022-07-31T10:01:34Z</time>
      </trkpt>
      <trkpt lat="46.16241" lon="6.64751">
        <ele>1684</ele>
        <time>2022-07-31T10:01:35Z</time>
      </trkpt>
      <trkpt lat="46.16241" lon="6.6475">
        <ele>1684</ele>
        <time>2022-07-31T10:01:36Z</time>
      </trkpt>
      <trkpt lat="46.16239" lon="6.64749">
        <ele>1684</ele>
        <time>2022-07-31T10:01:37Z</time>
      </trkpt>
      <trkpt lat="46.16239" lon="6.64749">
        <ele>1683</ele>
        <time>2022-07-31T10:01:38Z</time>
      </trkpt>
      <trkpt lat="46.16238" lon="6.64748">
        <ele>1683</ele>
        <time>2022-07-31T10:01:39Z</time>
      </trkpt>
      <trkpt lat="46.16237" lon="6.64747">
        <ele>1683</ele>
        <time>2022-07-31T10:01:40Z</time>
      </trkpt>
      <trkpt lat="46.16236" lon="6.64746">
        <ele>1683</ele>
        <time>2022-07-31T10:01:41Z</time>
      </trkpt>
      <trkpt lat="46.16236" lon="6.64745">
        <ele>1683</ele>
        <time>2022-07-31T10:01:42Z</time>
      </trkpt>
      <trkpt lat="46.16236" lon="6.64744">
        <ele>1682</ele>
        <time>2022-07-31T10:01:43Z</time>
      </trkpt>
      <trkpt lat="46.16235" lon="6.64743">
        <ele>1682</ele>
        <time>2022-07-31T10:01:44Z</time>
      </trkpt>
      <trkpt lat="46.16236" lon="6.64742">
        <ele>1682</ele>
        <time>2022-07-31T10:01:45Z</time>
      </trkpt>
      <trkpt lat="46.16236" lon="6.64742">
        <ele>1681</ele>
        <time>2022-07-31T10:01:46Z</time>
      </trkpt>
      <trkpt lat="46.16235" lon="6.64742">
        <ele>1681</ele>
        <time>2022-07-31T10:01:47Z</time>
      </trkpt>
      <trkpt lat="46.16236" lon="6.64743">
        <ele>1681</ele>
        <time>2022-07-31T10:01:48Z</time>
      </trkpt>
      <trkpt lat="46.16236" lon="6.64744">
        <ele>1680</ele>
        <time>2022-07-31T10:01:49Z</time>
      </trkpt>
      <trkpt lat="46.16236" lon="6.64745">
        <ele>1680</ele>
        <time>2022-07-31T10:01:50Z</time>
      </trkpt>
      <trkpt lat="46.16236" lon="6.64747">
        <ele>1680</ele>
        <time>2022-07-31T10:01:51Z</time>
      </trkpt>
      <trkpt lat="46.16235" lon="6.64747">
        <ele>1679</ele>
        <time>2022-07-31T10:01:52Z</time>
      </trkpt>
      <trkpt lat="46.16234" lon="6.64747">
        <ele>1679</ele>
        <time>2022-07-31T10:01:53Z</time>
      </trkpt>
      <trkpt lat="46.16233" lon="6.64747">
        <ele>1679</ele>
        <time>2022-07-31T10:01:54Z</time>
      </trkpt>
      <trkpt lat="46.16233" lon="6.64747">
        <ele>1679</ele>
        <time>2022-07-31T10:01:55Z</time>
      </trkpt>
      <trkpt lat="46.16233" lon="6.64746">
        <ele>1678</ele>
        <time>2022-07-31T10:01:56Z</time>
      </trkpt>
      <trkpt lat="46.16233" lon="6.64746">
        <ele>1678</ele>
        <time>2022-07-31T10:01:57Z</time>
      </trkpt>
      <trkpt lat="46.16234" lon="6.64745">
        <ele>1678</ele>
        <time>2022-07-31T10:01:58Z</time>
      </trkpt>
      <trkpt lat="46.16235" lon="6.64746">
        <ele>1677</ele>
        <time>2022-07-31T10:01:59Z</time>
      </trkpt>
      <trkpt lat="46.16236" lon="6.64745">
        <ele>1677</ele>
        <time>2022-07-31T10:02:00Z</time>
      </trkpt>
      <trkpt lat="46.16235" lon="6.64743">
        <ele>1676</ele>
        <time>2022-07-31T10:02:01Z</time>
      </trkpt>
      <trkpt lat="46.16235" lon="6.64741">
        <ele>1676</ele>
        <time>2022-07-31T10:02:02Z</time>
      </trkpt>
      <trkpt lat="46.16235" lon="6.6474">
        <ele>1675</ele>
        <time>2022-07-31T10:02:03Z</time>
      </trkpt>
      <trkpt lat="46.16234" lon="6.6474">
        <ele>1675</ele>
        <time>2022-07-31T10:02:04Z</time>
      </trkpt>
      <trkpt lat="46.16234" lon="6.64738">
        <ele>1675</ele>
        <time>2022-07-31T10:02:05Z</time>
      </trkpt>
      <trkpt lat="46.16234" lon="6.64737">
        <ele>1674</ele>
        <time>2022-07-31T10:02:06Z</time>
      </trkpt>
      <trkpt lat="46.16234" lon="6.64736">
        <ele>1674</ele>
        <time>2022-07-31T10:02:07Z</time>
      </trkpt>
      <trkpt lat="46.16234" lon="6.64735">
        <ele>1674</ele>
        <time>2022-07-31T10:02:08Z</time>
      </trkpt>
      <trkpt lat="46.16233" lon="6.64733">
        <ele>1673</ele>
        <time>2022-07-31T10:02:09Z</time>
      </trkpt>
      <trkpt lat="46.16232" lon="6.64731">
        <ele>1673</ele>
        <time>2022-07-31T10:02:10Z</time>
      </trkpt>
      <trkpt lat="46.16232" lon="6.6473">
        <ele>1673</ele>
        <time>2022-07-31T10:02:11Z</time>
      </trkpt>
      <trkpt lat="46.16232" lon="6.64728">
        <ele>1673</ele>
        <time>2022-07-31T10:02:12Z</time>
      </trkpt>
      <trkpt lat="46.16233" lon="6.64727">
        <ele>1672</ele>
        <time>2022-07-31T10:02:13Z</time>
      </trkpt>
      <trkpt lat="46.16234" lon="6.64725">
        <ele>1672</ele>
        <time>2022-07-31T10:02:14Z</time>
      </trkpt>
      <trkpt lat="46.16234" lon="6.64724">
        <ele>1672</ele>
        <time>2022-07-31T10:02:15Z</time>
      </trkpt>
      <trkpt lat="46.16233" lon="6.64723">
        <ele>1672</ele>
        <time>2022-07-31T10:02:16Z</time>
      </trkpt>
      <trkpt lat="46.16234" lon="6.64722">
        <ele>1671</ele>
        <time>2022-07-31T10:02:17Z</time>
      </trkpt>
      <trkpt lat="46.16234" lon="6.64721">
        <ele>1671</ele>
        <time>2022-07-31T10:02:18Z</time>
      </trkpt>
      <trkpt lat="46.16234" lon="6.6472">
        <ele>1671</ele>
        <time>2022-07-31T10:02:19Z</time>
      </trkpt>
      <trkpt lat="46.16233" lon="6.64718">
        <ele>1670</ele>
        <time>2022-07-31T10:02:20Z</time>
      </trkpt>
      <trkpt lat="46.16233" lon="6.64717">
        <ele>1670</ele>
        <time>2022-07-31T10:02:21Z</time>
      </trkpt>
      <trkpt lat="46.16233" lon="6.64715">
        <ele>1670</ele>
        <time>2022-07-31T10:02:22Z</time>
      </trkpt>
      <trkpt lat="46.16232" lon="6.64713">
        <ele>1669</ele>
        <time>2022-07-31T10:02:23Z</time>
      </trkpt>
      <trkpt lat="46.16233" lon="6.64712">
        <ele>1669</ele>
        <time>2022-07-31T10:02:24Z</time>
      </trkpt>
      <trkpt lat="46.16233" lon="6.64711">
        <ele>1668</ele>
        <time>2022-07-31T10:02:25Z</time>
      </trkpt>
      <trkpt lat="46.16232" lon="6.6471">
        <ele>1668</ele>
        <time>2022-07-31T10:02:26Z</time>
      </trkpt>
      <trkpt lat="46.16232" lon="6.64709">
        <ele>1668</ele>
        <time>2022-07-31T10:02:27Z</time>
      </trkpt>
      <trkpt lat="46.16231" lon="6.64707">
        <ele>1667</ele>
        <time>2022-07-31T10:02:28Z</time>
      </trkpt>
      <trkpt lat="46.16231" lon="6.64705">
        <ele>1667</ele>
        <time>2022-07-31T10:02:29Z</time>
      </trkpt>
      <trkpt lat="46.16231" lon="6.64703">
        <ele>1667</ele>
        <time>2022-07-31T10:02:30Z</time>
      </trkpt>
      <trkpt lat="46.1623" lon="6.64701">
        <ele>1666</ele>
        <time>2022-07-31T10:02:31Z</time>
      </trkpt>
      <trkpt lat="46.1623" lon="6.647">
        <ele>1666</ele>
        <time>2022-07-31T10:02:32Z</time>
      </trkpt>
      <trkpt lat="46.1623" lon="6.64699">
        <ele>1666</ele>
        <time>2022-07-31T10:02:33Z</time>
      </trkpt>
      <trkpt lat="46.1623" lon="6.64698">
        <ele>1665</ele>
        <time>2022-07-31T10:02:34Z</time>
      </trkpt>
      <trkpt lat="46.16229" lon="6.64696">
        <ele>1665</ele>
        <time>2022-07-31T10:02:35Z</time>
      </trkpt>
      <trkpt lat="46.16228" lon="6.64694">
        <ele>1665</ele>
        <time>2022-07-31T10:02:36Z</time>
      </trkpt>
      <trkpt lat="46.16227" lon="6.64692">
        <ele>1664</ele>
        <time>2022-07-31T10:02:37Z</time>
      </trkpt>
      <trkpt lat="46.16226" lon="6.6469">
        <ele>1664</ele>
        <time>2022-07-31T10:02:38Z</time>
      </trkpt>
      <trkpt lat="46.16225" lon="6.6469">
        <ele>1664</ele>
        <time>2022-07-31T10:02:39Z</time>
      </trkpt>
      <trkpt lat="46.16224" lon="6.6469">
        <ele>1663</ele>
        <time>2022-07-31T10:02:40Z</time>
      </trkpt>
      <trkpt lat="46.16224" lon="6.64691">
        <ele>1663</ele>
        <time>2022-07-31T10:02:41Z</time>
      </trkpt>
      <trkpt lat="46.16223" lon="6.64691">
        <ele>1663</ele>
        <time>2022-07-31T10:02:42Z</time>
      </trkpt>
      <trkpt lat="46.16223" lon="6.64692">
        <ele>1662</ele>
        <time>2022-07-31T10:02:43Z</time>
      </trkpt>
      <trkpt lat="46.16222" lon="6.64692">
        <ele>1662</ele>
        <time>2022-07-31T10:02:44Z</time>
      </trkpt>
      <trkpt lat="46.16222" lon="6.64692">
        <ele>1662</ele>
        <time>2022-07-31T10:02:45Z</time>
      </trkpt>
      <trkpt lat="46.16221" lon="6.64692">
        <ele>1662</ele>
        <time>2022-07-31T10:02:46Z</time>
      </trkpt>
      <trkpt lat="46.1622" lon="6.64692">
        <ele>1662</ele>
        <time>2022-07-31T10:02:47Z</time>
      </trkpt>
      <trkpt lat="46.1622" lon="6.64691">
        <ele>1662</ele>
        <time>2022-07-31T10:02:48Z</time>
      </trkpt>
      <trkpt lat="46.1622" lon="6.64692">
        <ele>1661</ele>
        <time>2022-07-31T10:02:49Z</time>
      </trkpt>
      <trkpt lat="46.16219" lon="6.64693">
        <ele>1661</ele>
        <time>2022-07-31T10:02:50Z</time>
      </trkpt>
      <trkpt lat="46.16217" lon="6.64694">
        <ele>1661</ele>
        <time>2022-07-31T10:02:51Z</time>
      </trkpt>
      <trkpt lat="46.16217" lon="6.64694">
        <ele>1660</ele>
        <time>2022-07-31T10:02:52Z</time>
      </trkpt>
      <trkpt lat="46.16217" lon="6.64695">
        <ele>1660</ele>
        <time>2022-07-31T10:02:53Z</time>
      </trkpt>
      <trkpt lat="46.16217" lon="6.64695">
        <ele>1660</ele>
        <time>2022-07-31T10:02:54Z</time>
      </trkpt>
      <trkpt lat="46.16217" lon="6.64694">
        <ele>1659</ele>
        <time>2022-07-31T10:02:55Z</time>
      </trkpt>
      <trkpt lat="46.16217" lon="6.64693">
        <ele>1659</ele>
        <time>2022-07-31T10:02:56Z</time>
      </trkpt>
      <trkpt lat="46.16217" lon="6.64692">
        <ele>1659</ele>
        <time>2022-07-31T10:02:57Z</time>
      </trkpt>
      <trkpt lat="46.16216" lon="6.6469">
        <ele>1659</ele>
        <time>2022-07-31T10:02:58Z</time>
      </trkpt>
      <trkpt lat="46.16215" lon="6.64688">
        <ele>1658</ele>
        <time>2022-07-31T10:02:59Z</time>
      </trkpt>
      <trkpt lat="46.16214" lon="6.64686">
        <ele>1658</ele>
        <time>2022-07-31T10:03:00Z</time>
      </trkpt>
      <trkpt lat="46.16214" lon="6.64684">
        <ele>1658</ele>
        <time>2022-07-31T10:03:01Z</time>
      </trkpt>
      <trkpt lat="46.16214" lon="6.64683">
        <ele>1657</ele>
        <time>2022-07-31T10:03:02Z</time>
      </trkpt>
      <trkpt lat="46.16214" lon="6.64681">
        <ele>1657</ele>
        <time>2022-07-31T10:03:03Z</time>
      </trkpt>
      <trkpt lat="46.16214" lon="6.6468">
        <ele>1657</ele>
        <time>2022-07-31T10:03:04Z</time>
      </trkpt>
      <trkpt lat="46.16213" lon="6.64678">
        <ele>1656</ele>
        <time>2022-07-31T10:03:05Z</time>
      </trkpt>
      <trkpt lat="46.16213" lon="6.64677">
        <ele>1656</ele>
        <time>2022-07-31T10:03:06Z</time>
      </trkpt>
      <trkpt lat="46.16213" lon="6.64677">
        <ele>1656</ele>
        <time>2022-07-31T10:03:07Z</time>
      </trkpt>
      <trkpt lat="46.16213" lon="6.64677">
        <ele>1655</ele>
        <time>2022-07-31T10:03:08Z</time>
      </trkpt>
      <trkpt lat="46.16213" lon="6.64677">
        <ele>1655</ele>
        <time>2022-07-31T10:03:09Z</time>
      </trkpt>
      <trkpt lat="46.16213" lon="6.64677">
        <ele>1654</ele>
        <time>2022-07-31T10:03:10Z</time>
      </trkpt>
      <trkpt lat="46.16214" lon="6.64677">
        <ele>1654</ele>
        <time>2022-07-31T10:03:11Z</time>
      </trkpt>
      <trkpt lat="46.16214" lon="6.64677">
        <ele>1654</ele>
        <time>2022-07-31T10:03:12Z</time>
      </trkpt>
      <trkpt lat="46.16214" lon="6.64677">
        <ele>1653</ele>
        <time>2022-07-31T10:03:13Z</time>
      </trkpt>
      <trkpt lat="46.16214" lon="6.64678">
        <ele>1653</ele>
        <time>2022-07-31T10:03:14Z</time>
      </trkpt>
      <trkpt lat="46.16214" lon="6.64677">
        <ele>1653</ele>
        <time>2022-07-31T10:03:15Z</time>
      </trkpt>
      <trkpt lat="46.16213" lon="6.64676">
        <ele>1652</ele>
        <time>2022-07-31T10:03:16Z</time>
      </trkpt>
      <trkpt lat="46.16213" lon="6.64675">
        <ele>1652</ele>
        <time>2022-07-31T10:03:17Z</time>
      </trkpt>
      <trkpt lat="46.16213" lon="6.64673">
        <ele>1652</ele>
        <time>2022-07-31T10:03:18Z</time>
      </trkpt>
      <trkpt lat="46.16212" lon="6.64672">
        <ele>1652</ele>
        <time>2022-07-31T10:03:19Z</time>
      </trkpt>
      <trkpt lat="46.16212" lon="6.6467">
        <ele>1652</ele>
        <time>2022-07-31T10:03:20Z</time>
      </trkpt>
      <trkpt lat="46.16212" lon="6.64669">
        <ele>1651</ele>
        <time>2022-07-31T10:03:21Z</time>
      </trkpt>
      <trkpt lat="46.16212" lon="6.64666">
        <ele>1651</ele>
        <time>2022-07-31T10:03:22Z</time>
      </trkpt>
      <trkpt lat="46.16212" lon="6.64665">
        <ele>1651</ele>
        <time>2022-07-31T10:03:23Z</time>
      </trkpt>
      <trkpt lat="46.16212" lon="6.64664">
        <ele>1651</ele>
        <time>2022-07-31T10:03:24Z</time>
      </trkpt>
      <trkpt lat="46.16212" lon="6.64662">
        <ele>1651</ele>
        <time>2022-07-31T10:03:25Z</time>
      </trkpt>
      <trkpt lat="46.16212" lon="6.6466">
        <ele>1651</ele>
        <time>2022-07-31T10:03:26Z</time>
      </trkpt>
      <trkpt lat="46.1621" lon="6.64659">
        <ele>1651</ele>
        <time>2022-07-31T10:03:27Z</time>
      </trkpt>
      <trkpt lat="46.1621" lon="6.64657">
        <ele>1651</ele>
        <time>2022-07-31T10:03:28Z</time>
      </trkpt>
      <trkpt lat="46.1621" lon="6.64654">
        <ele>1651</ele>
        <time>2022-07-31T10:03:29Z</time>
      </trkpt>
      <trkpt lat="46.16209" lon="6.64652">
        <ele>1651</ele>
        <time>2022-07-31T10:03:30Z</time>
      </trkpt>
      <trkpt lat="46.16209" lon="6.64651">
        <ele>1651</ele>
        <time>2022-07-31T10:03:31Z</time>
      </trkpt>
      <trkpt lat="46.16209" lon="6.6465">
        <ele>1651</ele>
        <time>2022-07-31T10:03:32Z</time>
      </trkpt>
      <trkpt lat="46.16208" lon="6.64648">
        <ele>1651</ele>
        <time>2022-07-31T10:03:33Z</time>
      </trkpt>
      <trkpt lat="46.16208" lon="6.64647">
        <ele>1651</ele>
        <time>2022-07-31T10:03:34Z</time>
      </trkpt>
      <trkpt lat="46.16208" lon="6.64645">
        <ele>1651</ele>
        <time>2022-07-31T10:03:35Z</time>
      </trkpt>
      <trkpt lat="46.16208" lon="6.64643">
        <ele>1651</ele>
        <time>2022-07-31T10:03:36Z</time>
      </trkpt>
      <trkpt lat="46.16208" lon="6.64642">
        <ele>1651</ele>
        <time>2022-07-31T10:03:37Z</time>
      </trkpt>
      <trkpt lat="46.16208" lon="6.64641">
        <ele>1650</ele>
        <time>2022-07-31T10:03:38Z</time>
      </trkpt>
      <trkpt lat="46.16208" lon="6.6464">
        <ele>1650</ele>
        <time>2022-07-31T10:03:39Z</time>
      </trkpt>
      <trkpt lat="46.16208" lon="6.6464">
        <ele>1650</ele>
        <time>2022-07-31T10:03:40Z</time>
      </trkpt>
      <trkpt lat="46.16208" lon="6.64639">
        <ele>1650</ele>
        <time>2022-07-31T10:03:41Z</time>
      </trkpt>
      <trkpt lat="46.16207" lon="6.64638">
        <ele>1650</ele>
        <time>2022-07-31T10:03:42Z</time>
      </trkpt>
      <trkpt lat="46.16205" lon="6.64638">
        <ele>1650</ele>
        <time>2022-07-31T10:03:43Z</time>
      </trkpt>
      <trkpt lat="46.16205" lon="6.64637">
        <ele>1650</ele>
        <time>2022-07-31T10:03:44Z</time>
      </trkpt>
      <trkpt lat="46.16204" lon="6.64636">
        <ele>1650</ele>
        <time>2022-07-31T10:03:45Z</time>
      </trkpt>
      <trkpt lat="46.16203" lon="6.64635">
        <ele>1650</ele>
        <time>2022-07-31T10:03:46Z</time>
      </trkpt>
      <trkpt lat="46.16203" lon="6.64633">
        <ele>1650</ele>
        <time>2022-07-31T10:03:47Z</time>
      </trkpt>
      <trkpt lat="46.16202" lon="6.64631">
        <ele>1650</ele>
        <time>2022-07-31T10:03:48Z</time>
      </trkpt>
      <trkpt lat="46.16202" lon="6.6463">
        <ele>1649</ele>
        <time>2022-07-31T10:03:49Z</time>
      </trkpt>
      <trkpt lat="46.16201" lon="6.64629">
        <ele>1649</ele>
        <time>2022-07-31T10:03:50Z</time>
      </trkpt>
      <trkpt lat="46.16201" lon="6.64627">
        <ele>1649</ele>
        <time>2022-07-31T10:03:51Z</time>
      </trkpt>
      <trkpt lat="46.162" lon="6.64627">
        <ele>1649</ele>
        <time>2022-07-31T10:03:52Z</time>
      </trkpt>
      <trkpt lat="46.16199" lon="6.64626">
        <ele>1648</ele>
        <time>2022-07-31T10:03:53Z</time>
      </trkpt>
      <trkpt lat="46.16197" lon="6.64624">
        <ele>1648</ele>
        <time>2022-07-31T10:03:54Z</time>
      </trkpt>
      <trkpt lat="46.16196" lon="6.64623">
        <ele>1648</ele>
        <time>2022-07-31T10:03:55Z</time>
      </trkpt>
      <trkpt lat="46.16195" lon="6.64622">
        <ele>1648</ele>
        <time>2022-07-31T10:03:56Z</time>
      </trkpt>
      <trkpt lat="46.16195" lon="6.64621">
        <ele>1647</ele>
        <time>2022-07-31T10:03:57Z</time>
      </trkpt>
      <trkpt lat="46.16194" lon="6.64621">
        <ele>1647</ele>
        <time>2022-07-31T10:03:58Z</time>
      </trkpt>
      <trkpt lat="46.16193" lon="6.6462">
        <ele>1647</ele>
        <time>2022-07-31T10:03:59Z</time>
      </trkpt>
      <trkpt lat="46.16193" lon="6.6462">
        <ele>1646</ele>
        <time>2022-07-31T10:04:00Z</time>
      </trkpt>
      <trkpt lat="46.16193" lon="6.64619">
        <ele>1646</ele>
        <time>2022-07-31T10:04:01Z</time>
      </trkpt>
      <trkpt lat="46.16192" lon="6.64617">
        <ele>1646</ele>
        <time>2022-07-31T10:04:02Z</time>
      </trkpt>
      <trkpt lat="46.16192" lon="6.64617">
        <ele>1646</ele>
        <time>2022-07-31T10:04:03Z</time>
      </trkpt>
      <trkpt lat="46.16191" lon="6.64616">
        <ele>1646</ele>
        <time>2022-07-31T10:04:04Z</time>
      </trkpt>
      <trkpt lat="46.1619" lon="6.64615">
        <ele>1646</ele>
        <time>2022-07-31T10:04:05Z</time>
      </trkpt>
      <trkpt lat="46.16188" lon="6.64615">
        <ele>1645</ele>
        <time>2022-07-31T10:04:06Z</time>
      </trkpt>
      <trkpt lat="46.16186" lon="6.64614">
        <ele>1645</ele>
        <time>2022-07-31T10:04:07Z</time>
      </trkpt>
      <trkpt lat="46.16185" lon="6.64613">
        <ele>1645</ele>
        <time>2022-07-31T10:04:08Z</time>
      </trkpt>
      <trkpt lat="46.16184" lon="6.64611">
        <ele>1646</ele>
        <time>2022-07-31T10:04:09Z</time>
      </trkpt>
      <trkpt lat="46.16183" lon="6.6461">
        <ele>1646</ele>
        <time>2022-07-31T10:04:10Z</time>
      </trkpt>
      <trkpt lat="46.16181" lon="6.64608">
        <ele>1646</ele>
        <time>2022-07-31T10:04:11Z</time>
      </trkpt>
      <trkpt lat="46.16181" lon="6.64607">
        <ele>1646</ele>
        <time>2022-07-31T10:04:12Z</time>
      </trkpt>
      <trkpt lat="46.1618" lon="6.64605">
        <ele>1646</ele>
        <time>2022-07-31T10:04:13Z</time>
      </trkpt>
      <trkpt lat="46.16179" lon="6.64604">
        <ele>1646</ele>
        <time>2022-07-31T10:04:14Z</time>
      </trkpt>
      <trkpt lat="46.16178" lon="6.64602">
        <ele>1646</ele>
        <time>2022-07-31T10:04:15Z</time>
      </trkpt>
      <trkpt lat="46.16176" lon="6.64601">
        <ele>1646</ele>
        <time>2022-07-31T10:04:16Z</time>
      </trkpt>
      <trkpt lat="46.16175" lon="6.646">
        <ele>1646</ele>
        <time>2022-07-31T10:04:17Z</time>
      </trkpt>
      <trkpt lat="46.16173" lon="6.64599">
        <ele>1647</ele>
        <time>2022-07-31T10:04:18Z</time>
      </trkpt>
      <trkpt lat="46.16173" lon="6.64598">
        <ele>1647</ele>
        <time>2022-07-31T10:04:19Z</time>
      </trkpt>
      <trkpt lat="46.16172" lon="6.64597">
        <ele>1647</ele>
        <time>2022-07-31T10:04:20Z</time>
      </trkpt>
      <trkpt lat="46.16171" lon="6.64596">
        <ele>1647</ele>
        <time>2022-07-31T10:04:21Z</time>
      </trkpt>
      <trkpt lat="46.1617" lon="6.64595">
        <ele>1647</ele>
        <time>2022-07-31T10:04:22Z</time>
      </trkpt>
      <trkpt lat="46.16168" lon="6.64594">
        <ele>1647</ele>
        <time>2022-07-31T10:04:23Z</time>
      </trkpt>
      <trkpt lat="46.16168" lon="6.64593">
        <ele>1648</ele>
        <time>2022-07-31T10:04:24Z</time>
      </trkpt>
      <trkpt lat="46.16166" lon="6.64592">
        <ele>1648</ele>
        <time>2022-07-31T10:04:25Z</time>
      </trkpt>
      <trkpt lat="46.16164" lon="6.6459">
        <ele>1648</ele>
        <time>2022-07-31T10:04:26Z</time>
      </trkpt>
      <trkpt lat="46.16163" lon="6.64589">
        <ele>1648</ele>
        <time>2022-07-31T10:04:27Z</time>
      </trkpt>
      <trkpt lat="46.16162" lon="6.64586">
        <ele>1648</ele>
        <time>2022-07-31T10:04:28Z</time>
      </trkpt>
      <trkpt lat="46.16161" lon="6.64585">
        <ele>1649</ele>
        <time>2022-07-31T10:04:29Z</time>
      </trkpt>
      <trkpt lat="46.16159" lon="6.64583">
        <ele>1649</ele>
        <time>2022-07-31T10:04:30Z</time>
      </trkpt>
      <trkpt lat="46.16158" lon="6.64582">
        <ele>1649</ele>
        <time>2022-07-31T10:04:31Z</time>
      </trkpt>
      <trkpt lat="46.16157" lon="6.64582">
        <ele>1649</ele>
        <time>2022-07-31T10:04:32Z</time>
      </trkpt>
      <trkpt lat="46.16155" lon="6.64581">
        <ele>1649</ele>
        <time>2022-07-31T10:04:33Z</time>
      </trkpt>
      <trkpt lat="46.16155" lon="6.6458">
        <ele>1649</ele>
        <time>2022-07-31T10:04:34Z</time>
      </trkpt>
      <trkpt lat="46.16154" lon="6.64579">
        <ele>1649</ele>
        <time>2022-07-31T10:04:35Z</time>
      </trkpt>
      <trkpt lat="46.16153" lon="6.64578">
        <ele>1649</ele>
        <time>2022-07-31T10:04:36Z</time>
      </trkpt>
      <trkpt lat="46.16151" lon="6.64577">
        <ele>1649</ele>
        <time>2022-07-31T10:04:37Z</time>
      </trkpt>
      <trkpt lat="46.1615" lon="6.64575">
        <ele>1650</ele>
        <time>2022-07-31T10:04:38Z</time>
      </trkpt>
      <trkpt lat="46.1615" lon="6.64574">
        <ele>1650</ele>
        <time>2022-07-31T10:04:39Z</time>
      </trkpt>
      <trkpt lat="46.16148" lon="6.64573">
        <ele>1650</ele>
        <time>2022-07-31T10:04:40Z</time>
      </trkpt>
      <trkpt lat="46.16147" lon="6.64572">
        <ele>1650</ele>
        <time>2022-07-31T10:04:41Z</time>
      </trkpt>
      <trkpt lat="46.16146" lon="6.6457">
        <ele>1650</ele>
        <time>2022-07-31T10:04:42Z</time>
      </trkpt>
      <trkpt lat="46.16144" lon="6.64568">
        <ele>1650</ele>
        <time>2022-07-31T10:04:43Z</time>
      </trkpt>
      <trkpt lat="46.16143" lon="6.64567">
        <ele>1650</ele>
        <time>2022-07-31T10:04:44Z</time>
      </trkpt>
      <trkpt lat="46.16142" lon="6.64566">
        <ele>1649</ele>
        <time>2022-07-31T10:04:45Z</time>
      </trkpt>
      <trkpt lat="46.16141" lon="6.64565">
        <ele>1649</ele>
        <time>2022-07-31T10:04:46Z</time>
      </trkpt>
      <trkpt lat="46.16139" lon="6.64563">
        <ele>1649</ele>
        <time>2022-07-31T10:04:47Z</time>
      </trkpt>
      <trkpt lat="46.16138" lon="6.64561">
        <ele>1649</ele>
        <time>2022-07-31T10:04:48Z</time>
      </trkpt>
      <trkpt lat="46.16137" lon="6.64559">
        <ele>1649</ele>
        <time>2022-07-31T10:04:49Z</time>
      </trkpt>
      <trkpt lat="46.16136" lon="6.64557">
        <ele>1649</ele>
        <time>2022-07-31T10:04:50Z</time>
      </trkpt>
      <trkpt lat="46.16135" lon="6.64556">
        <ele>1649</ele>
        <time>2022-07-31T10:04:51Z</time>
      </trkpt>
      <trkpt lat="46.16134" lon="6.64555">
        <ele>1649</ele>
        <time>2022-07-31T10:04:52Z</time>
      </trkpt>
      <trkpt lat="46.16133" lon="6.64555">
        <ele>1649</ele>
        <time>2022-07-31T10:04:53Z</time>
      </trkpt>
      <trkpt lat="46.16132" lon="6.64554">
        <ele>1649</ele>
        <time>2022-07-31T10:04:54Z</time>
      </trkpt>
      <trkpt lat="46.16131" lon="6.64553">
        <ele>1649</ele>
        <time>2022-07-31T10:04:55Z</time>
      </trkpt>
      <trkpt lat="46.16129" lon="6.64552">
        <ele>1649</ele>
        <time>2022-07-31T10:04:56Z</time>
      </trkpt>
      <trkpt lat="46.16128" lon="6.64551">
        <ele>1649</ele>
        <time>2022-07-31T10:04:57Z</time>
      </trkpt>
      <trkpt lat="46.16128" lon="6.6455">
        <ele>1649</ele>
        <time>2022-07-31T10:04:58Z</time>
      </trkpt>
      <trkpt lat="46.16127" lon="6.64549">
        <ele>1649</ele>
        <time>2022-07-31T10:04:59Z</time>
      </trkpt>
      <trkpt lat="46.16126" lon="6.64547">
        <ele>1648</ele>
        <time>2022-07-31T10:05:00Z</time>
      </trkpt>
      <trkpt lat="46.16126" lon="6.64546">
        <ele>1648</ele>
        <time>2022-07-31T10:05:01Z</time>
      </trkpt>
      <trkpt lat="46.16126" lon="6.64545">
        <ele>1648</ele>
        <time>2022-07-31T10:05:02Z</time>
      </trkpt>
      <trkpt lat="46.16126" lon="6.64544">
        <ele>1648</ele>
        <time>2022-07-31T10:05:03Z</time>
      </trkpt>
      <trkpt lat="46.16126" lon="6.64542">
        <ele>1647</ele>
        <time>2022-07-31T10:05:04Z</time>
      </trkpt>
      <trkpt lat="46.16126" lon="6.64539">
        <ele>1647</ele>
        <time>2022-07-31T10:05:05Z</time>
      </trkpt>
      <trkpt lat="46.16126" lon="6.64537">
        <ele>1647</ele>
        <time>2022-07-31T10:05:06Z</time>
      </trkpt>
      <trkpt lat="46.16126" lon="6.64536">
        <ele>1647</ele>
        <time>2022-07-31T10:05:07Z</time>
      </trkpt>
      <trkpt lat="46.16126" lon="6.64535">
        <ele>1646</ele>
        <time>2022-07-31T10:05:08Z</time>
      </trkpt>
      <trkpt lat="46.16125" lon="6.64533">
        <ele>1646</ele>
        <time>2022-07-31T10:05:09Z</time>
      </trkpt>
      <trkpt lat="46.16125" lon="6.64531">
        <ele>1645</ele>
        <time>2022-07-31T10:05:10Z</time>
      </trkpt>
      <trkpt lat="46.16124" lon="6.6453">
        <ele>1645</ele>
        <time>2022-07-31T10:05:11Z</time>
      </trkpt>
      <trkpt lat="46.16124" lon="6.6453">
        <ele>1645</ele>
        <time>2022-07-31T10:05:12Z</time>
      </trkpt>
      <trkpt lat="46.16122" lon="6.64528">
        <ele>1645</ele>
        <time>2022-07-31T10:05:13Z</time>
      </trkpt>
      <trkpt lat="46.16122" lon="6.64527">
        <ele>1644</ele>
        <time>2022-07-31T10:05:14Z</time>
      </trkpt>
      <trkpt lat="46.16122" lon="6.64526">
        <ele>1644</ele>
        <time>2022-07-31T10:05:15Z</time>
      </trkpt>
      <trkpt lat="46.16122" lon="6.64525">
        <ele>1644</ele>
        <time>2022-07-31T10:05:16Z</time>
      </trkpt>
      <trkpt lat="46.16122" lon="6.64524">
        <ele>1643</ele>
        <time>2022-07-31T10:05:17Z</time>
      </trkpt>
      <trkpt lat="46.16122" lon="6.64523">
        <ele>1643</ele>
        <time>2022-07-31T10:05:18Z</time>
      </trkpt>
      <trkpt lat="46.16121" lon="6.64522">
        <ele>1643</ele>
        <time>2022-07-31T10:05:19Z</time>
      </trkpt>
      <trkpt lat="46.1612" lon="6.64521">
        <ele>1643</ele>
        <time>2022-07-31T10:05:20Z</time>
      </trkpt>
      <trkpt lat="46.1612" lon="6.64519">
        <ele>1643</ele>
        <time>2022-07-31T10:05:21Z</time>
      </trkpt>
      <trkpt lat="46.16118" lon="6.64518">
        <ele>1642</ele>
        <time>2022-07-31T10:05:22Z</time>
      </trkpt>
      <trkpt lat="46.16118" lon="6.64516">
        <ele>1642</ele>
        <time>2022-07-31T10:05:23Z</time>
      </trkpt>
      <trkpt lat="46.16117" lon="6.64514">
        <ele>1642</ele>
        <time>2022-07-31T10:05:24Z</time>
      </trkpt>
      <trkpt lat="46.16116" lon="6.64512">
        <ele>1642</ele>
        <time>2022-07-31T10:05:25Z</time>
      </trkpt>
      <trkpt lat="46.16116" lon="6.64509">
        <ele>1642</ele>
        <time>2022-07-31T10:05:26Z</time>
      </trkpt>
      <trkpt lat="46.16114" lon="6.64507">
        <ele>1643</ele>
        <time>2022-07-31T10:05:27Z</time>
      </trkpt>
      <trkpt lat="46.16113" lon="6.64505">
        <ele>1643</ele>
        <time>2022-07-31T10:05:28Z</time>
      </trkpt>
      <trkpt lat="46.16112" lon="6.64503">
        <ele>1643</ele>
        <time>2022-07-31T10:05:29Z</time>
      </trkpt>
      <trkpt lat="46.16111" lon="6.64502">
        <ele>1643</ele>
        <time>2022-07-31T10:05:30Z</time>
      </trkpt>
      <trkpt lat="46.1611" lon="6.64501">
        <ele>1643</ele>
        <time>2022-07-31T10:05:31Z</time>
      </trkpt>
      <trkpt lat="46.1611" lon="6.64498">
        <ele>1643</ele>
        <time>2022-07-31T10:05:32Z</time>
      </trkpt>
      <trkpt lat="46.16109" lon="6.64496">
        <ele>1643</ele>
        <time>2022-07-31T10:05:33Z</time>
      </trkpt>
      <trkpt lat="46.16109" lon="6.64496">
        <ele>1643</ele>
        <time>2022-07-31T10:05:34Z</time>
      </trkpt>
      <trkpt lat="46.16109" lon="6.64494">
        <ele>1643</ele>
        <time>2022-07-31T10:05:35Z</time>
      </trkpt>
      <trkpt lat="46.16109" lon="6.64493">
        <ele>1642</ele>
        <time>2022-07-31T10:05:36Z</time>
      </trkpt>
      <trkpt lat="46.16109" lon="6.64491">
        <ele>1642</ele>
        <time>2022-07-31T10:05:37Z</time>
      </trkpt>
      <trkpt lat="46.16109" lon="6.6449">
        <ele>1642</ele>
        <time>2022-07-31T10:05:38Z</time>
      </trkpt>
      <trkpt lat="46.16109" lon="6.64488">
        <ele>1642</ele>
        <time>2022-07-31T10:05:39Z</time>
      </trkpt>
      <trkpt lat="46.16107" lon="6.64487">
        <ele>1642</ele>
        <time>2022-07-31T10:05:40Z</time>
      </trkpt>
      <trkpt lat="46.16107" lon="6.64485">
        <ele>1642</ele>
        <time>2022-07-31T10:05:41Z</time>
      </trkpt>
      <trkpt lat="46.16106" lon="6.64484">
        <ele>1642</ele>
        <time>2022-07-31T10:05:42Z</time>
      </trkpt>
      <trkpt lat="46.16105" lon="6.64482">
        <ele>1642</ele>
        <time>2022-07-31T10:05:43Z</time>
      </trkpt>
      <trkpt lat="46.16104" lon="6.6448">
        <ele>1642</ele>
        <time>2022-07-31T10:05:44Z</time>
      </trkpt>
      <trkpt lat="46.16104" lon="6.64479">
        <ele>1642</ele>
        <time>2022-07-31T10:05:45Z</time>
      </trkpt>
      <trkpt lat="46.16102" lon="6.64477">
        <ele>1642</ele>
        <time>2022-07-31T10:05:46Z</time>
      </trkpt>
      <trkpt lat="46.16101" lon="6.64475">
        <ele>1642</ele>
        <time>2022-07-31T10:05:47Z</time>
      </trkpt>
      <trkpt lat="46.16099" lon="6.64473">
        <ele>1642</ele>
        <time>2022-07-31T10:05:48Z</time>
      </trkpt>
      <trkpt lat="46.16099" lon="6.64472">
        <ele>1642</ele>
        <time>2022-07-31T10:05:49Z</time>
      </trkpt>
      <trkpt lat="46.16098" lon="6.6447">
        <ele>1642</ele>
        <time>2022-07-31T10:05:50Z</time>
      </trkpt>
      <trkpt lat="46.16098" lon="6.64469">
        <ele>1642</ele>
        <time>2022-07-31T10:05:51Z</time>
      </trkpt>
      <trkpt lat="46.16098" lon="6.64468">
        <ele>1642</ele>
        <time>2022-07-31T10:05:52Z</time>
      </trkpt>
      <trkpt lat="46.16097" lon="6.64467">
        <ele>1642</ele>
        <time>2022-07-31T10:05:53Z</time>
      </trkpt>
      <trkpt lat="46.16097" lon="6.64466">
        <ele>1641</ele>
        <time>2022-07-31T10:05:54Z</time>
      </trkpt>
      <trkpt lat="46.16096" lon="6.64465">
        <ele>1641</ele>
        <time>2022-07-31T10:05:55Z</time>
      </trkpt>
      <trkpt lat="46.16094" lon="6.64463">
        <ele>1641</ele>
        <time>2022-07-31T10:05:56Z</time>
      </trkpt>
      <trkpt lat="46.16093" lon="6.64461">
        <ele>1641</ele>
        <time>2022-07-31T10:05:57Z</time>
      </trkpt>
      <trkpt lat="46.16092" lon="6.6446">
        <ele>1641</ele>
        <time>2022-07-31T10:05:58Z</time>
      </trkpt>
      <trkpt lat="46.16091" lon="6.64459">
        <ele>1641</ele>
        <time>2022-07-31T10:05:59Z</time>
      </trkpt>
      <trkpt lat="46.1609" lon="6.64457">
        <ele>1641</ele>
        <time>2022-07-31T10:06:00Z</time>
      </trkpt>
      <trkpt lat="46.1609" lon="6.64456">
        <ele>1641</ele>
        <time>2022-07-31T10:06:01Z</time>
      </trkpt>
      <trkpt lat="46.16089" lon="6.64454">
        <ele>1641</ele>
        <time>2022-07-31T10:06:02Z</time>
      </trkpt>
      <trkpt lat="46.16088" lon="6.64453">
        <ele>1641</ele>
        <time>2022-07-31T10:06:03Z</time>
      </trkpt>
      <trkpt lat="46.16088" lon="6.64451">
        <ele>1641</ele>
        <time>2022-07-31T10:06:04Z</time>
      </trkpt>
      <trkpt lat="46.16087" lon="6.64449">
        <ele>1641</ele>
        <time>2022-07-31T10:06:05Z</time>
      </trkpt>
      <trkpt lat="46.16085" lon="6.64448">
        <ele>1641</ele>
        <time>2022-07-31T10:06:06Z</time>
      </trkpt>
      <trkpt lat="46.16084" lon="6.64446">
        <ele>1640</ele>
        <time>2022-07-31T10:06:07Z</time>
      </trkpt>
      <trkpt lat="46.16084" lon="6.64445">
        <ele>1640</ele>
        <time>2022-07-31T10:06:08Z</time>
      </trkpt>
      <trkpt lat="46.16084" lon="6.64443">
        <ele>1640</ele>
        <time>2022-07-31T10:06:09Z</time>
      </trkpt>
      <trkpt lat="46.16084" lon="6.64442">
        <ele>1640</ele>
        <time>2022-07-31T10:06:10Z</time>
      </trkpt>
      <trkpt lat="46.16083" lon="6.64442">
        <ele>1640</ele>
        <time>2022-07-31T10:06:11Z</time>
      </trkpt>
      <trkpt lat="46.16082" lon="6.64442">
        <ele>1640</ele>
        <time>2022-07-31T10:06:12Z</time>
      </trkpt>
      <trkpt lat="46.16082" lon="6.6444">
        <ele>1640</ele>
        <time>2022-07-31T10:06:13Z</time>
      </trkpt>
      <trkpt lat="46.16081" lon="6.64439">
        <ele>1640</ele>
        <time>2022-07-31T10:06:14Z</time>
      </trkpt>
      <trkpt lat="46.16081" lon="6.64439">
        <ele>1640</ele>
        <time>2022-07-31T10:06:15Z</time>
      </trkpt>
      <trkpt lat="46.1608" lon="6.64439">
        <ele>1641</ele>
        <time>2022-07-31T10:06:16Z</time>
      </trkpt>
      <trkpt lat="46.1608" lon="6.64438">
        <ele>1641</ele>
        <time>2022-07-31T10:06:17Z</time>
      </trkpt>
      <trkpt lat="46.16078" lon="6.64438">
        <ele>1641</ele>
        <time>2022-07-31T10:06:18Z</time>
      </trkpt>
      <trkpt lat="46.16077" lon="6.64437">
        <ele>1641</ele>
        <time>2022-07-31T10:06:19Z</time>
      </trkpt>
      <trkpt lat="46.16076" lon="6.64436">
        <ele>1641</ele>
        <time>2022-07-31T10:06:20Z</time>
      </trkpt>
      <trkpt lat="46.16075" lon="6.64435">
        <ele>1641</ele>
        <time>2022-07-31T10:06:21Z</time>
      </trkpt>
      <trkpt lat="46.16074" lon="6.64434">
        <ele>1641</ele>
        <time>2022-07-31T10:06:22Z</time>
      </trkpt>
      <trkpt lat="46.16072" lon="6.64433">
        <ele>1641</ele>
        <time>2022-07-31T10:06:23Z</time>
      </trkpt>
      <trkpt lat="46.1607" lon="6.64432">
        <ele>1642</ele>
        <time>2022-07-31T10:06:24Z</time>
      </trkpt>
      <trkpt lat="46.16069" lon="6.64431">
        <ele>1642</ele>
        <time>2022-07-31T10:06:25Z</time>
      </trkpt>
      <trkpt lat="46.16068" lon="6.6443">
        <ele>1642</ele>
        <time>2022-07-31T10:06:26Z</time>
      </trkpt>
      <trkpt lat="46.16066" lon="6.64429">
        <ele>1642</ele>
        <time>2022-07-31T10:06:27Z</time>
      </trkpt>
      <trkpt lat="46.16064" lon="6.64427">
        <ele>1642</ele>
        <time>2022-07-31T10:06:28Z</time>
      </trkpt>
      <trkpt lat="46.16062" lon="6.64424">
        <ele>1642</ele>
        <time>2022-07-31T10:06:29Z</time>
      </trkpt>
      <trkpt lat="46.16061" lon="6.64422">
        <ele>1643</ele>
        <time>2022-07-31T10:06:30Z</time>
      </trkpt>
      <trkpt lat="46.1606" lon="6.64421">
        <ele>1643</ele>
        <time>2022-07-31T10:06:31Z</time>
      </trkpt>
      <trkpt lat="46.16059" lon="6.64419">
        <ele>1643</ele>
        <time>2022-07-31T10:06:32Z</time>
      </trkpt>
      <trkpt lat="46.16057" lon="6.64417">
        <ele>1643</ele>
        <time>2022-07-31T10:06:33Z</time>
      </trkpt>
      <trkpt lat="46.16056" lon="6.64415">
        <ele>1643</ele>
        <time>2022-07-31T10:06:34Z</time>
      </trkpt>
      <trkpt lat="46.16056" lon="6.64413">
        <ele>1643</ele>
        <time>2022-07-31T10:06:35Z</time>
      </trkpt>
      <trkpt lat="46.16055" lon="6.64411">
        <ele>1643</ele>
        <time>2022-07-31T10:06:36Z</time>
      </trkpt>
      <trkpt lat="46.16054" lon="6.64409">
        <ele>1643</ele>
        <time>2022-07-31T10:06:37Z</time>
      </trkpt>
      <trkpt lat="46.16054" lon="6.64408">
        <ele>1643</ele>
        <time>2022-07-31T10:06:38Z</time>
      </trkpt>
      <trkpt lat="46.16054" lon="6.64406">
        <ele>1643</ele>
        <time>2022-07-31T10:06:39Z</time>
      </trkpt>
      <trkpt lat="46.16053" lon="6.64404">
        <ele>1643</ele>
        <time>2022-07-31T10:06:40Z</time>
      </trkpt>
      <trkpt lat="46.16052" lon="6.64401">
        <ele>1643</ele>
        <time>2022-07-31T10:06:41Z</time>
      </trkpt>
      <trkpt lat="46.16052" lon="6.64399">
        <ele>1643</ele>
        <time>2022-07-31T10:06:42Z</time>
      </trkpt>
      <trkpt lat="46.16051" lon="6.64398">
        <ele>1642</ele>
        <time>2022-07-31T10:06:43Z</time>
      </trkpt>
      <trkpt lat="46.1605" lon="6.64397">
        <ele>1642</ele>
        <time>2022-07-31T10:06:44Z</time>
      </trkpt>
      <trkpt lat="46.1605" lon="6.64395">
        <ele>1642</ele>
        <time>2022-07-31T10:06:45Z</time>
      </trkpt>
      <trkpt lat="46.16049" lon="6.64394">
        <ele>1642</ele>
        <time>2022-07-31T10:06:46Z</time>
      </trkpt>
      <trkpt lat="46.16048" lon="6.64392">
        <ele>1642</ele>
        <time>2022-07-31T10:06:47Z</time>
      </trkpt>
      <trkpt lat="46.16047" lon="6.64391">
        <ele>1642</ele>
        <time>2022-07-31T10:06:48Z</time>
      </trkpt>
      <trkpt lat="46.16045" lon="6.6439">
        <ele>1642</ele>
        <time>2022-07-31T10:06:49Z</time>
      </trkpt>
      <trkpt lat="46.16044" lon="6.6439">
        <ele>1641</ele>
        <time>2022-07-31T10:06:50Z</time>
      </trkpt>
      <trkpt lat="46.16043" lon="6.6439">
        <ele>1641</ele>
        <time>2022-07-31T10:06:51Z</time>
      </trkpt>
      <trkpt lat="46.16043" lon="6.64389">
        <ele>1641</ele>
        <time>2022-07-31T10:06:52Z</time>
      </trkpt>
      <trkpt lat="46.16042" lon="6.64388">
        <ele>1641</ele>
        <time>2022-07-31T10:06:53Z</time>
      </trkpt>
      <trkpt lat="46.16041" lon="6.64388">
        <ele>1641</ele>
        <time>2022-07-31T10:06:54Z</time>
      </trkpt>
      <trkpt lat="46.16041" lon="6.64386">
        <ele>1640</ele>
        <time>2022-07-31T10:06:55Z</time>
      </trkpt>
      <trkpt lat="46.16041" lon="6.64385">
        <ele>1640</ele>
        <time>2022-07-31T10:06:56Z</time>
      </trkpt>
      <trkpt lat="46.16041" lon="6.64383">
        <ele>1640</ele>
        <time>2022-07-31T10:06:57Z</time>
      </trkpt>
      <trkpt lat="46.1604" lon="6.64381">
        <ele>1640</ele>
        <time>2022-07-31T10:06:58Z</time>
      </trkpt>
      <trkpt lat="46.16039" lon="6.6438">
        <ele>1640</ele>
        <time>2022-07-31T10:06:59Z</time>
      </trkpt>
      <trkpt lat="46.16039" lon="6.64379">
        <ele>1640</ele>
        <time>2022-07-31T10:07:00Z</time>
      </trkpt>
      <trkpt lat="46.16038" lon="6.64377">
        <ele>1640</ele>
        <time>2022-07-31T10:07:01Z</time>
      </trkpt>
      <trkpt lat="46.16038" lon="6.64376">
        <ele>1640</ele>
        <time>2022-07-31T10:07:02Z</time>
      </trkpt>
      <trkpt lat="46.16038" lon="6.64374">
        <ele>1639</ele>
        <time>2022-07-31T10:07:03Z</time>
      </trkpt>
      <trkpt lat="46.16037" lon="6.64372">
        <ele>1639</ele>
        <time>2022-07-31T10:07:04Z</time>
      </trkpt>
      <trkpt lat="46.16037" lon="6.6437">
        <ele>1640</ele>
        <time>2022-07-31T10:07:05Z</time>
      </trkpt>
      <trkpt lat="46.16036" lon="6.64368">
        <ele>1640</ele>
        <time>2022-07-31T10:07:06Z</time>
      </trkpt>
      <trkpt lat="46.16035" lon="6.64366">
        <ele>1640</ele>
        <time>2022-07-31T10:07:07Z</time>
      </trkpt>
      <trkpt lat="46.16035" lon="6.64366">
        <ele>1640</ele>
        <time>2022-07-31T10:07:08Z</time>
      </trkpt>
      <trkpt lat="46.16034" lon="6.64365">
        <ele>1640</ele>
        <time>2022-07-31T10:07:09Z</time>
      </trkpt>
      <trkpt lat="46.16033" lon="6.64365">
        <ele>1640</ele>
        <time>2022-07-31T10:07:10Z</time>
      </trkpt>
      <trkpt lat="46.16033" lon="6.64365">
        <ele>1640</ele>
        <time>2022-07-31T10:07:11Z</time>
      </trkpt>
      <trkpt lat="46.16033" lon="6.64364">
        <ele>1640</ele>
        <time>2022-07-31T10:07:12Z</time>
      </trkpt>
      <trkpt lat="46.16033" lon="6.64363">
        <ele>1640</ele>
        <time>2022-07-31T10:07:13Z</time>
      </trkpt>
      <trkpt lat="46.16033" lon="6.64363">
        <ele>1640</ele>
        <time>2022-07-31T10:07:14Z</time>
      </trkpt>
      <trkpt lat="46.16033" lon="6.64363">
        <ele>1640</ele>
        <time>2022-07-31T10:07:15Z</time>
      </trkpt>
      <trkpt lat="46.16033" lon="6.64363">
        <ele>1640</ele>
        <time>2022-07-31T10:07:16Z</time>
      </trkpt>
      <trkpt lat="46.16033" lon="6.64363">
        <ele>1640</ele>
        <time>2022-07-31T10:07:17Z</time>
      </trkpt>
      <trkpt lat="46.16032" lon="6.64364">
        <ele>1640</ele>
        <time>2022-07-31T10:07:18Z</time>
      </trkpt>
      <trkpt lat="46.16032" lon="6.64364">
        <ele>1640</ele>
        <time>2022-07-31T10:07:19Z</time>
      </trkpt>
      <trkpt lat="46.16032" lon="6.64363">
        <ele>1641</ele>
        <time>2022-07-31T10:07:20Z</time>
      </trkpt>
      <trkpt lat="46.16032" lon="6.64362">
        <ele>1641</ele>
        <time>2022-07-31T10:07:21Z</time>
      </trkpt>
      <trkpt lat="46.16032" lon="6.64361">
        <ele>1641</ele>
        <time>2022-07-31T10:07:22Z</time>
      </trkpt>
      <trkpt lat="46.16032" lon="6.6436">
        <ele>1641</ele>
        <time>2022-07-31T10:07:23Z</time>
      </trkpt>
      <trkpt lat="46.16032" lon="6.6436">
        <ele>1641</ele>
        <time>2022-07-31T10:07:24Z</time>
      </trkpt>
      <trkpt lat="46.16033" lon="6.64361">
        <ele>1641</ele>
        <time>2022-07-31T10:07:25Z</time>
      </trkpt>
      <trkpt lat="46.16033" lon="6.64361">
        <ele>1641</ele>
        <time>2022-07-31T10:07:26Z</time>
      </trkpt>
      <trkpt lat="46.16033" lon="6.64362">
        <ele>1641</ele>
        <time>2022-07-31T10:07:27Z</time>
      </trkpt>
      <trkpt lat="46.16034" lon="6.64362">
        <ele>1641</ele>
        <time>2022-07-31T10:07:28Z</time>
      </trkpt>
      <trkpt lat="46.16033" lon="6.64362">
        <ele>1641</ele>
        <time>2022-07-31T10:07:29Z</time>
      </trkpt>
      <trkpt lat="46.16033" lon="6.64362">
        <ele>1641</ele>
        <time>2022-07-31T10:07:30Z</time>
      </trkpt>
      <trkpt lat="46.16033" lon="6.64362">
        <ele>1641</ele>
        <time>2022-07-31T10:07:31Z</time>
      </trkpt>
      <trkpt lat="46.16033" lon="6.64362">
        <ele>1641</ele>
        <time>2022-07-31T10:07:32Z</time>
      </trkpt>
      <trkpt lat="46.16033" lon="6.64362">
        <ele>1641</ele>
        <time>2022-07-31T10:07:33Z</time>
      </trkpt>
      <trkpt lat="46.16033" lon="6.64361">
        <ele>1641</ele>
        <time>2022-07-31T10:07:34Z</time>
      </trkpt>
      <trkpt lat="46.16033" lon="6.64359">
        <ele>1641</ele>
        <time>2022-07-31T10:07:35Z</time>
      </trkpt>
      <trkpt lat="46.16033" lon="6.64357">
        <ele>1640</ele>
        <time>2022-07-31T10:07:36Z</time>
      </trkpt>
      <trkpt lat="46.16033" lon="6.64355">
        <ele>1640</ele>
        <time>2022-07-31T10:07:37Z</time>
      </trkpt>
      <trkpt lat="46.16033" lon="6.64353">
        <ele>1640</ele>
        <time>2022-07-31T10:07:38Z</time>
      </trkpt>
      <trkpt lat="46.16032" lon="6.64351">
        <ele>1640</ele>
        <time>2022-07-31T10:07:39Z</time>
      </trkpt>
      <trkpt lat="46.16032" lon="6.64349">
        <ele>1640</ele>
        <time>2022-07-31T10:07:40Z</time>
      </trkpt>
      <trkpt lat="46.16032" lon="6.64348">
        <ele>1640</ele>
        <time>2022-07-31T10:07:41Z</time>
      </trkpt>
      <trkpt lat="46.16031" lon="6.64347">
        <ele>1640</ele>
        <time>2022-07-31T10:07:42Z</time>
      </trkpt>
      <trkpt lat="46.1603" lon="6.64346">
        <ele>1640</ele>
        <time>2022-07-31T10:07:43Z</time>
      </trkpt>
      <trkpt lat="46.16029" lon="6.64344">
        <ele>1640</ele>
        <time>2022-07-31T10:07:44Z</time>
      </trkpt>
      <trkpt lat="46.16028" lon="6.64343">
        <ele>1640</ele>
        <time>2022-07-31T10:07:45Z</time>
      </trkpt>
      <trkpt lat="46.16027" lon="6.64342">
        <ele>1640</ele>
        <time>2022-07-31T10:07:46Z</time>
      </trkpt>
      <trkpt lat="46.16026" lon="6.64341">
        <ele>1640</ele>
        <time>2022-07-31T10:07:47Z</time>
      </trkpt>
      <trkpt lat="46.16025" lon="6.64339">
        <ele>1640</ele>
        <time>2022-07-31T10:07:48Z</time>
      </trkpt>
      <trkpt lat="46.16025" lon="6.64338">
        <ele>1640</ele>
        <time>2022-07-31T10:07:49Z</time>
      </trkpt>
      <trkpt lat="46.16024" lon="6.64336">
        <ele>1640</ele>
        <time>2022-07-31T10:07:50Z</time>
      </trkpt>
      <trkpt lat="46.16023" lon="6.64334">
        <ele>1640</ele>
        <time>2022-07-31T10:07:51Z</time>
      </trkpt>
      <trkpt lat="46.16022" lon="6.64332">
        <ele>1640</ele>
        <time>2022-07-31T10:07:52Z</time>
      </trkpt>
      <trkpt lat="46.16021" lon="6.6433">
        <ele>1640</ele>
        <time>2022-07-31T10:07:53Z</time>
      </trkpt>
      <trkpt lat="46.16019" lon="6.64329">
        <ele>1640</ele>
        <time>2022-07-31T10:07:54Z</time>
      </trkpt>
      <trkpt lat="46.16018" lon="6.64328">
        <ele>1640</ele>
        <time>2022-07-31T10:07:55Z</time>
      </trkpt>
      <trkpt lat="46.16017" lon="6.64326">
        <ele>1640</ele>
        <time>2022-07-31T10:07:56Z</time>
      </trkpt>
      <trkpt lat="46.16016" lon="6.64324">
        <ele>1640</ele>
        <time>2022-07-31T10:07:57Z</time>
      </trkpt>
      <trkpt lat="46.16015" lon="6.64322">
        <ele>1640</ele>
        <time>2022-07-31T10:07:58Z</time>
      </trkpt>
      <trkpt lat="46.16015" lon="6.64321">
        <ele>1640</ele>
        <time>2022-07-31T10:07:59Z</time>
      </trkpt>
      <trkpt lat="46.16014" lon="6.64319">
        <ele>1640</ele>
        <time>2022-07-31T10:08:00Z</time>
      </trkpt>
      <trkpt lat="46.16014" lon="6.64318">
        <ele>1639</ele>
        <time>2022-07-31T10:08:01Z</time>
      </trkpt>
      <trkpt lat="46.16013" lon="6.64316">
        <ele>1639</ele>
        <time>2022-07-31T10:08:02Z</time>
      </trkpt>
      <trkpt lat="46.16011" lon="6.64314">
        <ele>1639</ele>
        <time>2022-07-31T10:08:03Z</time>
      </trkpt>
      <trkpt lat="46.1601" lon="6.64313">
        <ele>1639</ele>
        <time>2022-07-31T10:08:04Z</time>
      </trkpt>
      <trkpt lat="46.1601" lon="6.64311">
        <ele>1639</ele>
        <time>2022-07-31T10:08:05Z</time>
      </trkpt>
      <trkpt lat="46.16009" lon="6.6431">
        <ele>1639</ele>
        <time>2022-07-31T10:08:06Z</time>
      </trkpt>
      <trkpt lat="46.16008" lon="6.64309">
        <ele>1639</ele>
        <time>2022-07-31T10:08:07Z</time>
      </trkpt>
      <trkpt lat="46.16008" lon="6.64307">
        <ele>1639</ele>
        <time>2022-07-31T10:08:08Z</time>
      </trkpt>
      <trkpt lat="46.16007" lon="6.64305">
        <ele>1639</ele>
        <time>2022-07-31T10:08:09Z</time>
      </trkpt>
      <trkpt lat="46.16006" lon="6.64303">
        <ele>1639</ele>
        <time>2022-07-31T10:08:10Z</time>
      </trkpt>
      <trkpt lat="46.16006" lon="6.64301">
        <ele>1639</ele>
        <time>2022-07-31T10:08:11Z</time>
      </trkpt>
      <trkpt lat="46.16004" lon="6.643">
        <ele>1639</ele>
        <time>2022-07-31T10:08:12Z</time>
      </trkpt>
      <trkpt lat="46.16003" lon="6.64298">
        <ele>1639</ele>
        <time>2022-07-31T10:08:13Z</time>
      </trkpt>
      <trkpt lat="46.16002" lon="6.64297">
        <ele>1639</ele>
        <time>2022-07-31T10:08:14Z</time>
      </trkpt>
      <trkpt lat="46.16002" lon="6.64296">
        <ele>1639</ele>
        <time>2022-07-31T10:08:15Z</time>
      </trkpt>
      <trkpt lat="46.16002" lon="6.64294">
        <ele>1639</ele>
        <time>2022-07-31T10:08:16Z</time>
      </trkpt>
      <trkpt lat="46.16001" lon="6.64292">
        <ele>1638</ele>
        <time>2022-07-31T10:08:17Z</time>
      </trkpt>
      <trkpt lat="46.16001" lon="6.64289">
        <ele>1638</ele>
        <time>2022-07-31T10:08:18Z</time>
      </trkpt>
      <trkpt lat="46.16001" lon="6.64288">
        <ele>1638</ele>
        <time>2022-07-31T10:08:19Z</time>
      </trkpt>
      <trkpt lat="46.16001" lon="6.64286">
        <ele>1638</ele>
        <time>2022-07-31T10:08:20Z</time>
      </trkpt>
      <trkpt lat="46.16" lon="6.64284">
        <ele>1638</ele>
        <time>2022-07-31T10:08:21Z</time>
      </trkpt>
      <trkpt lat="46.15999" lon="6.64282">
        <ele>1638</ele>
        <time>2022-07-31T10:08:22Z</time>
      </trkpt>
      <trkpt lat="46.15998" lon="6.64281">
        <ele>1638</ele>
        <time>2022-07-31T10:08:23Z</time>
      </trkpt>
      <trkpt lat="46.15997" lon="6.6428">
        <ele>1638</ele>
        <time>2022-07-31T10:08:24Z</time>
      </trkpt>
      <trkpt lat="46.15996" lon="6.64278">
        <ele>1638</ele>
        <time>2022-07-31T10:08:25Z</time>
      </trkpt>
      <trkpt lat="46.15996" lon="6.64277">
        <ele>1637</ele>
        <time>2022-07-31T10:08:26Z</time>
      </trkpt>
      <trkpt lat="46.15994" lon="6.64276">
        <ele>1637</ele>
        <time>2022-07-31T10:08:27Z</time>
      </trkpt>
      <trkpt lat="46.15993" lon="6.64275">
        <ele>1637</ele>
        <time>2022-07-31T10:08:28Z</time>
      </trkpt>
      <trkpt lat="46.15992" lon="6.64273">
        <ele>1637</ele>
        <time>2022-07-31T10:08:29Z</time>
      </trkpt>
      <trkpt lat="46.1599" lon="6.64272">
        <ele>1637</ele>
        <time>2022-07-31T10:08:30Z</time>
      </trkpt>
      <trkpt lat="46.15988" lon="6.6427">
        <ele>1637</ele>
        <time>2022-07-31T10:08:31Z</time>
      </trkpt>
      <trkpt lat="46.15986" lon="6.64269">
        <ele>1637</ele>
        <time>2022-07-31T10:08:32Z</time>
      </trkpt>
      <trkpt lat="46.15984" lon="6.64268">
        <ele>1637</ele>
        <time>2022-07-31T10:08:33Z</time>
      </trkpt>
      <trkpt lat="46.15982" lon="6.64267">
        <ele>1637</ele>
        <time>2022-07-31T10:08:34Z</time>
      </trkpt>
      <trkpt lat="46.15981" lon="6.64266">
        <ele>1637</ele>
        <time>2022-07-31T10:08:35Z</time>
      </trkpt>
      <trkpt lat="46.15979" lon="6.64265">
        <ele>1638</ele>
        <time>2022-07-31T10:08:36Z</time>
      </trkpt>
      <trkpt lat="46.15978" lon="6.64264">
        <ele>1637</ele>
        <time>2022-07-31T10:08:37Z</time>
      </trkpt>
      <trkpt lat="46.15977" lon="6.64263">
        <ele>1637</ele>
        <time>2022-07-31T10:08:38Z</time>
      </trkpt>
      <trkpt lat="46.15977" lon="6.64261">
        <ele>1637</ele>
        <time>2022-07-31T10:08:39Z</time>
      </trkpt>
      <trkpt lat="46.15976" lon="6.6426">
        <ele>1637</ele>
        <time>2022-07-31T10:08:40Z</time>
      </trkpt>
      <trkpt lat="46.15975" lon="6.64258">
        <ele>1637</ele>
        <time>2022-07-31T10:08:41Z</time>
      </trkpt>
      <trkpt lat="46.15975" lon="6.64257">
        <ele>1637</ele>
        <time>2022-07-31T10:08:42Z</time>
      </trkpt>
      <trkpt lat="46.15973" lon="6.64255">
        <ele>1637</ele>
        <time>2022-07-31T10:08:43Z</time>
      </trkpt>
      <trkpt lat="46.15972" lon="6.64254">
        <ele>1637</ele>
        <time>2022-07-31T10:08:44Z</time>
      </trkpt>
      <trkpt lat="46.15971" lon="6.64253">
        <ele>1637</ele>
        <time>2022-07-31T10:08:45Z</time>
      </trkpt>
      <trkpt lat="46.1597" lon="6.64251">
        <ele>1637</ele>
        <time>2022-07-31T10:08:46Z</time>
      </trkpt>
      <trkpt lat="46.15969" lon="6.64251">
        <ele>1637</ele>
        <time>2022-07-31T10:08:47Z</time>
      </trkpt>
      <trkpt lat="46.15968" lon="6.6425">
        <ele>1637</ele>
        <time>2022-07-31T10:08:48Z</time>
      </trkpt>
      <trkpt lat="46.15967" lon="6.64249">
        <ele>1636</ele>
        <time>2022-07-31T10:08:49Z</time>
      </trkpt>
      <trkpt lat="46.15966" lon="6.64248">
        <ele>1636</ele>
        <time>2022-07-31T10:08:50Z</time>
      </trkpt>
      <trkpt lat="46.15965" lon="6.64247">
        <ele>1636</ele>
        <time>2022-07-31T10:08:51Z</time>
      </trkpt>
      <trkpt lat="46.15964" lon="6.64246">
        <ele>1636</ele>
        <time>2022-07-31T10:08:52Z</time>
      </trkpt>
      <trkpt lat="46.15964" lon="6.64245">
        <ele>1636</ele>
        <time>2022-07-31T10:08:53Z</time>
      </trkpt>
      <trkpt lat="46.15962" lon="6.64243">
        <ele>1636</ele>
        <time>2022-07-31T10:08:54Z</time>
      </trkpt>
      <trkpt lat="46.15961" lon="6.64241">
        <ele>1636</ele>
        <time>2022-07-31T10:08:55Z</time>
      </trkpt>
      <trkpt lat="46.15959" lon="6.6424">
        <ele>1635</ele>
        <time>2022-07-31T10:08:56Z</time>
      </trkpt>
      <trkpt lat="46.15958" lon="6.64239">
        <ele>1635</ele>
        <time>2022-07-31T10:08:57Z</time>
      </trkpt>
      <trkpt lat="46.15958" lon="6.64238">
        <ele>1635</ele>
        <time>2022-07-31T10:08:58Z</time>
      </trkpt>
      <trkpt lat="46.15957" lon="6.64236">
        <ele>1635</ele>
        <time>2022-07-31T10:08:59Z</time>
      </trkpt>
      <trkpt lat="46.15957" lon="6.64234">
        <ele>1635</ele>
        <time>2022-07-31T10:09:00Z</time>
      </trkpt>
      <trkpt lat="46.15956" lon="6.64232">
        <ele>1635</ele>
        <time>2022-07-31T10:09:01Z</time>
      </trkpt>
      <trkpt lat="46.15955" lon="6.64231">
        <ele>1635</ele>
        <time>2022-07-31T10:09:02Z</time>
      </trkpt>
      <trkpt lat="46.15953" lon="6.6423">
        <ele>1635</ele>
        <time>2022-07-31T10:09:03Z</time>
      </trkpt>
      <trkpt lat="46.15952" lon="6.64229">
        <ele>1635</ele>
        <time>2022-07-31T10:09:04Z</time>
      </trkpt>
      <trkpt lat="46.1595" lon="6.64227">
        <ele>1635</ele>
        <time>2022-07-31T10:09:05Z</time>
      </trkpt>
      <trkpt lat="46.15949" lon="6.64226">
        <ele>1635</ele>
        <time>2022-07-31T10:09:06Z</time>
      </trkpt>
      <trkpt lat="46.15948" lon="6.64224">
        <ele>1635</ele>
        <time>2022-07-31T10:09:07Z</time>
      </trkpt>
      <trkpt lat="46.15948" lon="6.64223">
        <ele>1635</ele>
        <time>2022-07-31T10:09:08Z</time>
      </trkpt>
      <trkpt lat="46.15946" lon="6.64221">
        <ele>1635</ele>
        <time>2022-07-31T10:09:09Z</time>
      </trkpt>
      <trkpt lat="46.15945" lon="6.6422">
        <ele>1635</ele>
        <time>2022-07-31T10:09:10Z</time>
      </trkpt>
      <trkpt lat="46.15944" lon="6.64219">
        <ele>1635</ele>
        <time>2022-07-31T10:09:11Z</time>
      </trkpt>
      <trkpt lat="46.15942" lon="6.64218">
        <ele>1635</ele>
        <time>2022-07-31T10:09:12Z</time>
      </trkpt>
      <trkpt lat="46.15942" lon="6.64216">
        <ele>1635</ele>
        <time>2022-07-31T10:09:13Z</time>
      </trkpt>
      <trkpt lat="46.15942" lon="6.64215">
        <ele>1635</ele>
        <time>2022-07-31T10:09:14Z</time>
      </trkpt>
      <trkpt lat="46.15941" lon="6.64214">
        <ele>1635</ele>
        <time>2022-07-31T10:09:15Z</time>
      </trkpt>
      <trkpt lat="46.1594" lon="6.64212">
        <ele>1634</ele>
        <time>2022-07-31T10:09:16Z</time>
      </trkpt>
      <trkpt lat="46.1594" lon="6.6421">
        <ele>1634</ele>
        <time>2022-07-31T10:09:17Z</time>
      </trkpt>
      <trkpt lat="46.15938" lon="6.64208">
        <ele>1634</ele>
        <time>2022-07-31T10:09:18Z</time>
      </trkpt>
      <trkpt lat="46.15938" lon="6.64207">
        <ele>1634</ele>
        <time>2022-07-31T10:09:19Z</time>
      </trkpt>
      <trkpt lat="46.15937" lon="6.64206">
        <ele>1634</ele>
        <time>2022-07-31T10:09:20Z</time>
      </trkpt>
      <trkpt lat="46.15937" lon="6.64206">
        <ele>1634</ele>
        <time>2022-07-31T10:09:21Z</time>
      </trkpt>
      <trkpt lat="46.15935" lon="6.64206">
        <ele>1634</ele>
        <time>2022-07-31T10:09:22Z</time>
      </trkpt>
      <trkpt lat="46.15934" lon="6.64205">
        <ele>1634</ele>
        <time>2022-07-31T10:09:23Z</time>
      </trkpt>
      <trkpt lat="46.15934" lon="6.64203">
        <ele>1634</ele>
        <time>2022-07-31T10:09:24Z</time>
      </trkpt>
      <trkpt lat="46.15933" lon="6.64202">
        <ele>1634</ele>
        <time>2022-07-31T10:09:25Z</time>
      </trkpt>
      <trkpt lat="46.15932" lon="6.642">
        <ele>1634</ele>
        <time>2022-07-31T10:09:26Z</time>
      </trkpt>
      <trkpt lat="46.1593" lon="6.64199">
        <ele>1634</ele>
        <time>2022-07-31T10:09:27Z</time>
      </trkpt>
      <trkpt lat="46.15929" lon="6.64198">
        <ele>1634</ele>
        <time>2022-07-31T10:09:28Z</time>
      </trkpt>
      <trkpt lat="46.15928" lon="6.64196">
        <ele>1634</ele>
        <time>2022-07-31T10:09:29Z</time>
      </trkpt>
      <trkpt lat="46.15927" lon="6.64195">
        <ele>1634</ele>
        <time>2022-07-31T10:09:30Z</time>
      </trkpt>
      <trkpt lat="46.15926" lon="6.64193">
        <ele>1634</ele>
        <time>2022-07-31T10:09:31Z</time>
      </trkpt>
      <trkpt lat="46.15926" lon="6.64192">
        <ele>1634</ele>
        <time>2022-07-31T10:09:32Z</time>
      </trkpt>
      <trkpt lat="46.15926" lon="6.64191">
        <ele>1634</ele>
        <time>2022-07-31T10:09:33Z</time>
      </trkpt>
      <trkpt lat="46.15925" lon="6.6419">
        <ele>1634</ele>
        <time>2022-07-31T10:09:34Z</time>
      </trkpt>
      <trkpt lat="46.15925" lon="6.6419">
        <ele>1634</ele>
        <time>2022-07-31T10:09:35Z</time>
      </trkpt>
      <trkpt lat="46.15925" lon="6.64189">
        <ele>1634</ele>
        <time>2022-07-31T10:09:36Z</time>
      </trkpt>
      <trkpt lat="46.15924" lon="6.64188">
        <ele>1634</ele>
        <time>2022-07-31T10:09:37Z</time>
      </trkpt>
      <trkpt lat="46.15923" lon="6.64187">
        <ele>1634</ele>
        <time>2022-07-31T10:09:38Z</time>
      </trkpt>
      <trkpt lat="46.15922" lon="6.64185">
        <ele>1633</ele>
        <time>2022-07-31T10:09:39Z</time>
      </trkpt>
      <trkpt lat="46.15922" lon="6.64184">
        <ele>1633</ele>
        <time>2022-07-31T10:09:40Z</time>
      </trkpt>
      <trkpt lat="46.15921" lon="6.64183">
        <ele>1633</ele>
        <time>2022-07-31T10:09:41Z</time>
      </trkpt>
      <trkpt lat="46.15921" lon="6.64181">
        <ele>1633</ele>
        <time>2022-07-31T10:09:42Z</time>
      </trkpt>
      <trkpt lat="46.15921" lon="6.64181">
        <ele>1633</ele>
        <time>2022-07-31T10:09:43Z</time>
      </trkpt>
      <trkpt lat="46.1592" lon="6.6418">
        <ele>1633</ele>
        <time>2022-07-31T10:09:44Z</time>
      </trkpt>
      <trkpt lat="46.1592" lon="6.64179">
        <ele>1633</ele>
        <time>2022-07-31T10:09:45Z</time>
      </trkpt>
      <trkpt lat="46.15922" lon="6.64178">
        <ele>1633</ele>
        <time>2022-07-31T10:09:46Z</time>
      </trkpt>
      <trkpt lat="46.15922" lon="6.64177">
        <ele>1633</ele>
        <time>2022-07-31T10:09:47Z</time>
      </trkpt>
      <trkpt lat="46.15923" lon="6.64177">
        <ele>1633</ele>
        <time>2022-07-31T10:09:48Z</time>
      </trkpt>
      <trkpt lat="46.15923" lon="6.64176">
        <ele>1632</ele>
        <time>2022-07-31T10:09:49Z</time>
      </trkpt>
      <trkpt lat="46.15923" lon="6.64176">
        <ele>1632</ele>
        <time>2022-07-31T10:09:50Z</time>
      </trkpt>
      <trkpt lat="46.15924" lon="6.64176">
        <ele>1632</ele>
        <time>2022-07-31T10:09:51Z</time>
      </trkpt>
      <trkpt lat="46.15924" lon="6.64176">
        <ele>1632</ele>
        <time>2022-07-31T10:09:52Z</time>
      </trkpt>
      <trkpt lat="46.15925" lon="6.64176">
        <ele>1632</ele>
        <time>2022-07-31T10:09:53Z</time>
      </trkpt>
      <trkpt lat="46.15925" lon="6.64176">
        <ele>1632</ele>
        <time>2022-07-31T10:09:54Z</time>
      </trkpt>
      <trkpt lat="46.15925" lon="6.64178">
        <ele>1632</ele>
        <time>2022-07-31T10:09:55Z</time>
      </trkpt>
      <trkpt lat="46.15925" lon="6.64178">
        <ele>1632</ele>
        <time>2022-07-31T10:09:56Z</time>
      </trkpt>
      <trkpt lat="46.15926" lon="6.64179">
        <ele>1632</ele>
        <time>2022-07-31T10:09:57Z</time>
      </trkpt>
      <trkpt lat="46.15926" lon="6.6418">
        <ele>1632</ele>
        <time>2022-07-31T10:09:58Z</time>
      </trkpt>
      <trkpt lat="46.15926" lon="6.64181">
        <ele>1632</ele>
        <time>2022-07-31T10:09:59Z</time>
      </trkpt>
      <trkpt lat="46.15926" lon="6.64182">
        <ele>1632</ele>
        <time>2022-07-31T10:10:00Z</time>
      </trkpt>
      <trkpt lat="46.15926" lon="6.64182">
        <ele>1632</ele>
        <time>2022-07-31T10:10:01Z</time>
      </trkpt>
      <trkpt lat="46.15926" lon="6.64182">
        <ele>1632</ele>
        <time>2022-07-31T10:10:02Z</time>
      </trkpt>
      <trkpt lat="46.15926" lon="6.64182">
        <ele>1631</ele>
        <time>2022-07-31T10:10:03Z</time>
      </trkpt>
      <trkpt lat="46.15927" lon="6.64182">
        <ele>1631</ele>
        <time>2022-07-31T10:10:04Z</time>
      </trkpt>
      <trkpt lat="46.15927" lon="6.64183">
        <ele>1631</ele>
        <time>2022-07-31T10:10:05Z</time>
      </trkpt>
      <trkpt lat="46.15927" lon="6.64183">
        <ele>1631</ele>
        <time>2022-07-31T10:10:06Z</time>
      </trkpt>
      <trkpt lat="46.15927" lon="6.64182">
        <ele>1631</ele>
        <time>2022-07-31T10:10:07Z</time>
      </trkpt>
      <trkpt lat="46.15927" lon="6.64181">
        <ele>1631</ele>
        <time>2022-07-31T10:10:08Z</time>
      </trkpt>
      <trkpt lat="46.15927" lon="6.6418">
        <ele>1631</ele>
        <time>2022-07-31T10:10:09Z</time>
      </trkpt>
      <trkpt lat="46.15928" lon="6.64179">
        <ele>1631</ele>
        <time>2022-07-31T10:10:10Z</time>
      </trkpt>
      <trkpt lat="46.15928" lon="6.64179">
        <ele>1631</ele>
        <time>2022-07-31T10:10:11Z</time>
      </trkpt>
      <trkpt lat="46.15927" lon="6.64178">
        <ele>1631</ele>
        <time>2022-07-31T10:10:12Z</time>
      </trkpt>
      <trkpt lat="46.15925" lon="6.64175">
        <ele>1632</ele>
        <time>2022-07-31T10:27:44Z</time>
      </trkpt>
      <trkpt lat="46.15924" lon="6.64174">
        <ele>1632</ele>
        <time>2022-07-31T10:27:45Z</time>
      </trkpt>
      <trkpt lat="46.15923" lon="6.64173">
        <ele>1633</ele>
        <time>2022-07-31T10:27:46Z</time>
      </trkpt>
      <trkpt lat="46.15922" lon="6.64172">
        <ele>1633</ele>
        <time>2022-07-31T10:27:47Z</time>
      </trkpt>
      <trkpt lat="46.15922" lon="6.64171">
        <ele>1633</ele>
        <time>2022-07-31T10:27:48Z</time>
      </trkpt>
      <trkpt lat="46.1592" lon="6.6417">
        <ele>1633</ele>
        <time>2022-07-31T10:27:49Z</time>
      </trkpt>
      <trkpt lat="46.1592" lon="6.64169">
        <ele>1634</ele>
        <time>2022-07-31T10:27:50Z</time>
      </trkpt>
      <trkpt lat="46.15919" lon="6.64168">
        <ele>1634</ele>
        <time>2022-07-31T10:27:51Z</time>
      </trkpt>
      <trkpt lat="46.15918" lon="6.64167">
        <ele>1634</ele>
        <time>2022-07-31T10:27:52Z</time>
      </trkpt>
      <trkpt lat="46.15916" lon="6.64166">
        <ele>1634</ele>
        <time>2022-07-31T10:27:53Z</time>
      </trkpt>
      <trkpt lat="46.15916" lon="6.64166">
        <ele>1634</ele>
        <time>2022-07-31T10:27:54Z</time>
      </trkpt>
      <trkpt lat="46.15916" lon="6.64165">
        <ele>1634</ele>
        <time>2022-07-31T10:27:55Z</time>
      </trkpt>
      <trkpt lat="46.15915" lon="6.64165">
        <ele>1634</ele>
        <time>2022-07-31T10:27:56Z</time>
      </trkpt>
      <trkpt lat="46.15914" lon="6.64164">
        <ele>1634</ele>
        <time>2022-07-31T10:27:57Z</time>
      </trkpt>
      <trkpt lat="46.15913" lon="6.64163">
        <ele>1634</ele>
        <time>2022-07-31T10:27:58Z</time>
      </trkpt>
      <trkpt lat="46.15912" lon="6.64162">
        <ele>1634</ele>
        <time>2022-07-31T10:27:59Z</time>
      </trkpt>
      <trkpt lat="46.15912" lon="6.64161">
        <ele>1634</ele>
        <time>2022-07-31T10:28:00Z</time>
      </trkpt>
      <trkpt lat="46.15911" lon="6.64159">
        <ele>1634</ele>
        <time>2022-07-31T10:28:01Z</time>
      </trkpt>
      <trkpt lat="46.1591" lon="6.64158">
        <ele>1634</ele>
        <time>2022-07-31T10:28:02Z</time>
      </trkpt>
      <trkpt lat="46.1591" lon="6.64156">
        <ele>1634</ele>
        <time>2022-07-31T10:28:03Z</time>
      </trkpt>
      <trkpt lat="46.15909" lon="6.64154">
        <ele>1634</ele>
        <time>2022-07-31T10:28:04Z</time>
      </trkpt>
      <trkpt lat="46.1591" lon="6.64151">
        <ele>1634</ele>
        <time>2022-07-31T10:28:05Z</time>
      </trkpt>
      <trkpt lat="46.15908" lon="6.6415">
        <ele>1634</ele>
        <time>2022-07-31T10:28:06Z</time>
      </trkpt>
      <trkpt lat="46.15908" lon="6.64148">
        <ele>1634</ele>
        <time>2022-07-31T10:28:07Z</time>
      </trkpt>
      <trkpt lat="46.15907" lon="6.64148">
        <ele>1634</ele>
        <time>2022-07-31T10:28:08Z</time>
      </trkpt>
      <trkpt lat="46.15907" lon="6.64147">
        <ele>1634</ele>
        <time>2022-07-31T10:28:09Z</time>
      </trkpt>
      <trkpt lat="46.15906" lon="6.64145">
        <ele>1634</ele>
        <time>2022-07-31T10:28:10Z</time>
      </trkpt>
      <trkpt lat="46.15904" lon="6.64145">
        <ele>1634</ele>
        <time>2022-07-31T10:28:11Z</time>
      </trkpt>
      <trkpt lat="46.15903" lon="6.64144">
        <ele>1634</ele>
        <time>2022-07-31T10:28:12Z</time>
      </trkpt>
      <trkpt lat="46.15902" lon="6.64144">
        <ele>1634</ele>
        <time>2022-07-31T10:28:13Z</time>
      </trkpt>
      <trkpt lat="46.15901" lon="6.64143">
        <ele>1634</ele>
        <time>2022-07-31T10:28:14Z</time>
      </trkpt>
      <trkpt lat="46.15899" lon="6.64141">
        <ele>1634</ele>
        <time>2022-07-31T10:28:15Z</time>
      </trkpt>
      <trkpt lat="46.15899" lon="6.64139">
        <ele>1633</ele>
        <time>2022-07-31T10:28:16Z</time>
      </trkpt>
      <trkpt lat="46.15898" lon="6.64137">
        <ele>1633</ele>
        <time>2022-07-31T10:28:17Z</time>
      </trkpt>
      <trkpt lat="46.15897" lon="6.64136">
        <ele>1633</ele>
        <time>2022-07-31T10:28:18Z</time>
      </trkpt>
      <trkpt lat="46.15896" lon="6.64134">
        <ele>1633</ele>
        <time>2022-07-31T10:28:19Z</time>
      </trkpt>
      <trkpt lat="46.15895" lon="6.64132">
        <ele>1633</ele>
        <time>2022-07-31T10:28:20Z</time>
      </trkpt>
      <trkpt lat="46.15893" lon="6.64131">
        <ele>1633</ele>
        <time>2022-07-31T10:28:21Z</time>
      </trkpt>
      <trkpt lat="46.15893" lon="6.64131">
        <ele>1633</ele>
        <time>2022-07-31T10:28:22Z</time>
      </trkpt>
      <trkpt lat="46.15892" lon="6.6413">
        <ele>1632</ele>
        <time>2022-07-31T10:28:23Z</time>
      </trkpt>
      <trkpt lat="46.15891" lon="6.64129">
        <ele>1632</ele>
        <time>2022-07-31T10:28:24Z</time>
      </trkpt>
      <trkpt lat="46.15891" lon="6.64128">
        <ele>1632</ele>
        <time>2022-07-31T10:28:25Z</time>
      </trkpt>
      <trkpt lat="46.1589" lon="6.64127">
        <ele>1631</ele>
        <time>2022-07-31T10:28:26Z</time>
      </trkpt>
      <trkpt lat="46.1589" lon="6.64127">
        <ele>1631</ele>
        <time>2022-07-31T10:28:27Z</time>
      </trkpt>
      <trkpt lat="46.15889" lon="6.64126">
        <ele>1631</ele>
        <time>2022-07-31T10:28:28Z</time>
      </trkpt>
      <trkpt lat="46.15887" lon="6.64124">
        <ele>1631</ele>
        <time>2022-07-31T10:28:29Z</time>
      </trkpt>
      <trkpt lat="46.15886" lon="6.64123">
        <ele>1630</ele>
        <time>2022-07-31T10:28:30Z</time>
      </trkpt>
      <trkpt lat="46.15885" lon="6.64122">
        <ele>1630</ele>
        <time>2022-07-31T10:28:31Z</time>
      </trkpt>
      <trkpt lat="46.15884" lon="6.64121">
        <ele>1630</ele>
        <time>2022-07-31T10:28:32Z</time>
      </trkpt>
      <trkpt lat="46.15884" lon="6.6412">
        <ele>1630</ele>
        <time>2022-07-31T10:28:33Z</time>
      </trkpt>
      <trkpt lat="46.15883" lon="6.6412">
        <ele>1630</ele>
        <time>2022-07-31T10:28:34Z</time>
      </trkpt>
      <trkpt lat="46.15883" lon="6.64118">
        <ele>1630</ele>
        <time>2022-07-31T10:28:35Z</time>
      </trkpt>
      <trkpt lat="46.15883" lon="6.64116">
        <ele>1629</ele>
        <time>2022-07-31T10:28:36Z</time>
      </trkpt>
      <trkpt lat="46.15882" lon="6.64115">
        <ele>1629</ele>
        <time>2022-07-31T10:28:37Z</time>
      </trkpt>
      <trkpt lat="46.15881" lon="6.64112">
        <ele>1629</ele>
        <time>2022-07-31T10:28:38Z</time>
      </trkpt>
      <trkpt lat="46.1588" lon="6.64111">
        <ele>1629</ele>
        <time>2022-07-31T10:28:39Z</time>
      </trkpt>
      <trkpt lat="46.15879" lon="6.64109">
        <ele>1629</ele>
        <time>2022-07-31T10:28:40Z</time>
      </trkpt>
      <trkpt lat="46.15878" lon="6.64108">
        <ele>1629</ele>
        <time>2022-07-31T10:28:41Z</time>
      </trkpt>
      <trkpt lat="46.15878" lon="6.64106">
        <ele>1628</ele>
        <time>2022-07-31T10:28:42Z</time>
      </trkpt>
      <trkpt lat="46.15876" lon="6.64105">
        <ele>1628</ele>
        <time>2022-07-31T10:28:43Z</time>
      </trkpt>
      <trkpt lat="46.15875" lon="6.64103">
        <ele>1628</ele>
        <time>2022-07-31T10:28:44Z</time>
      </trkpt>
      <trkpt lat="46.15874" lon="6.64102">
        <ele>1628</ele>
        <time>2022-07-31T10:28:45Z</time>
      </trkpt>
      <trkpt lat="46.15873" lon="6.64101">
        <ele>1628</ele>
        <time>2022-07-31T10:28:46Z</time>
      </trkpt>
      <trkpt lat="46.15871" lon="6.641">
        <ele>1628</ele>
        <time>2022-07-31T10:28:47Z</time>
      </trkpt>
      <trkpt lat="46.15871" lon="6.64098">
        <ele>1628</ele>
        <time>2022-07-31T10:28:48Z</time>
      </trkpt>
      <trkpt lat="46.1587" lon="6.64097">
        <ele>1627</ele>
        <time>2022-07-31T10:28:49Z</time>
      </trkpt>
      <trkpt lat="46.15869" lon="6.64096">
        <ele>1627</ele>
        <time>2022-07-31T10:28:50Z</time>
      </trkpt>
      <trkpt lat="46.15868" lon="6.64095">
        <ele>1627</ele>
        <time>2022-07-31T10:28:51Z</time>
      </trkpt>
      <trkpt lat="46.15867" lon="6.64095">
        <ele>1627</ele>
        <time>2022-07-31T10:28:52Z</time>
      </trkpt>
      <trkpt lat="46.15866" lon="6.64093">
        <ele>1627</ele>
        <time>2022-07-31T10:28:53Z</time>
      </trkpt>
      <trkpt lat="46.15865" lon="6.64092">
        <ele>1627</ele>
        <time>2022-07-31T10:28:54Z</time>
      </trkpt>
      <trkpt lat="46.15863" lon="6.64092">
        <ele>1627</ele>
        <time>2022-07-31T10:28:55Z</time>
      </trkpt>
      <trkpt lat="46.15862" lon="6.64091">
        <ele>1626</ele>
        <time>2022-07-31T10:28:56Z</time>
      </trkpt>
      <trkpt lat="46.1586" lon="6.64091">
        <ele>1626</ele>
        <time>2022-07-31T10:28:57Z</time>
      </trkpt>
      <trkpt lat="46.15859" lon="6.6409">
        <ele>1626</ele>
        <time>2022-07-31T10:28:58Z</time>
      </trkpt>
      <trkpt lat="46.15857" lon="6.6409">
        <ele>1626</ele>
        <time>2022-07-31T10:28:59Z</time>
      </trkpt>
      <trkpt lat="46.15855" lon="6.64089">
        <ele>1626</ele>
        <time>2022-07-31T10:29:00Z</time>
      </trkpt>
      <trkpt lat="46.15854" lon="6.64087">
        <ele>1626</ele>
        <time>2022-07-31T10:29:01Z</time>
      </trkpt>
      <trkpt lat="46.15853" lon="6.64086">
        <ele>1625</ele>
        <time>2022-07-31T10:29:02Z</time>
      </trkpt>
      <trkpt lat="46.15852" lon="6.64086">
        <ele>1625</ele>
        <time>2022-07-31T10:29:03Z</time>
      </trkpt>
      <trkpt lat="46.1585" lon="6.64085">
        <ele>1625</ele>
        <time>2022-07-31T10:29:04Z</time>
      </trkpt>
      <trkpt lat="46.15849" lon="6.64084">
        <ele>1625</ele>
        <time>2022-07-31T10:29:05Z</time>
      </trkpt>
      <trkpt lat="46.15847" lon="6.64084">
        <ele>1625</ele>
        <time>2022-07-31T10:29:06Z</time>
      </trkpt>
      <trkpt lat="46.15845" lon="6.64083">
        <ele>1625</ele>
        <time>2022-07-31T10:29:07Z</time>
      </trkpt>
      <trkpt lat="46.15844" lon="6.64082">
        <ele>1625</ele>
        <time>2022-07-31T10:29:08Z</time>
      </trkpt>
      <trkpt lat="46.15844" lon="6.64081">
        <ele>1624</ele>
        <time>2022-07-31T10:29:09Z</time>
      </trkpt>
      <trkpt lat="46.15844" lon="6.6408">
        <ele>1624</ele>
        <time>2022-07-31T10:29:10Z</time>
      </trkpt>
      <trkpt lat="46.15842" lon="6.64079">
        <ele>1624</ele>
        <time>2022-07-31T10:29:11Z</time>
      </trkpt>
      <trkpt lat="46.15841" lon="6.64077">
        <ele>1624</ele>
        <time>2022-07-31T10:29:12Z</time>
      </trkpt>
      <trkpt lat="46.1584" lon="6.64076">
        <ele>1624</ele>
        <time>2022-07-31T10:29:13Z</time>
      </trkpt>
      <trkpt lat="46.15839" lon="6.64075">
        <ele>1624</ele>
        <time>2022-07-31T10:29:14Z</time>
      </trkpt>
      <trkpt lat="46.15838" lon="6.64074">
        <ele>1623</ele>
        <time>2022-07-31T10:29:15Z</time>
      </trkpt>
      <trkpt lat="46.15837" lon="6.64074">
        <ele>1623</ele>
        <time>2022-07-31T10:29:16Z</time>
      </trkpt>
      <trkpt lat="46.15835" lon="6.64074">
        <ele>1623</ele>
        <time>2022-07-31T10:29:17Z</time>
      </trkpt>
      <trkpt lat="46.15833" lon="6.64073">
        <ele>1623</ele>
        <time>2022-07-31T10:29:18Z</time>
      </trkpt>
      <trkpt lat="46.15832" lon="6.64072">
        <ele>1623</ele>
        <time>2022-07-31T10:29:19Z</time>
      </trkpt>
      <trkpt lat="46.1583" lon="6.64071">
        <ele>1623</ele>
        <time>2022-07-31T10:29:20Z</time>
      </trkpt>
      <trkpt lat="46.15829" lon="6.64071">
        <ele>1623</ele>
        <time>2022-07-31T10:29:21Z</time>
      </trkpt>
      <trkpt lat="46.15829" lon="6.64071">
        <ele>1623</ele>
        <time>2022-07-31T10:29:22Z</time>
      </trkpt>
      <trkpt lat="46.15827" lon="6.64072">
        <ele>1623</ele>
        <time>2022-07-31T10:29:23Z</time>
      </trkpt>
      <trkpt lat="46.15827" lon="6.64072">
        <ele>1623</ele>
        <time>2022-07-31T10:29:24Z</time>
      </trkpt>
      <trkpt lat="46.15826" lon="6.64072">
        <ele>1623</ele>
        <time>2022-07-31T10:29:25Z</time>
      </trkpt>
      <trkpt lat="46.15825" lon="6.64071">
        <ele>1623</ele>
        <time>2022-07-31T10:29:26Z</time>
      </trkpt>
      <trkpt lat="46.15824" lon="6.64071">
        <ele>1623</ele>
        <time>2022-07-31T10:29:27Z</time>
      </trkpt>
      <trkpt lat="46.15824" lon="6.64071">
        <ele>1622</ele>
        <time>2022-07-31T10:29:28Z</time>
      </trkpt>
      <trkpt lat="46.15822" lon="6.6407">
        <ele>1622</ele>
        <time>2022-07-31T10:29:29Z</time>
      </trkpt>
      <trkpt lat="46.15821" lon="6.6407">
        <ele>1622</ele>
        <time>2022-07-31T10:29:30Z</time>
      </trkpt>
      <trkpt lat="46.1582" lon="6.64069">
        <ele>1622</ele>
        <time>2022-07-31T10:29:31Z</time>
      </trkpt>
      <trkpt lat="46.15819" lon="6.64068">
        <ele>1621</ele>
        <time>2022-07-31T10:29:32Z</time>
      </trkpt>
      <trkpt lat="46.15818" lon="6.64068">
        <ele>1621</ele>
        <time>2022-07-31T10:29:33Z</time>
      </trkpt>
      <trkpt lat="46.15817" lon="6.64067">
        <ele>1621</ele>
        <time>2022-07-31T10:29:34Z</time>
      </trkpt>
      <trkpt lat="46.15816" lon="6.64066">
        <ele>1621</ele>
        <time>2022-07-31T10:29:35Z</time>
      </trkpt>
      <trkpt lat="46.15815" lon="6.64066">
        <ele>1621</ele>
        <time>2022-07-31T10:29:36Z</time>
      </trkpt>
      <trkpt lat="46.15813" lon="6.64064">
        <ele>1620</ele>
        <time>2022-07-31T10:29:37Z</time>
      </trkpt>
      <trkpt lat="46.15812" lon="6.64063">
        <ele>1620</ele>
        <time>2022-07-31T10:29:38Z</time>
      </trkpt>
      <trkpt lat="46.1581" lon="6.64062">
        <ele>1620</ele>
        <time>2022-07-31T10:29:39Z</time>
      </trkpt>
      <trkpt lat="46.15809" lon="6.64062">
        <ele>1620</ele>
        <time>2022-07-31T10:29:40Z</time>
      </trkpt>
      <trkpt lat="46.15808" lon="6.64061">
        <ele>1620</ele>
        <time>2022-07-31T10:29:41Z</time>
      </trkpt>
      <trkpt lat="46.15807" lon="6.6406">
        <ele>1620</ele>
        <time>2022-07-31T10:29:42Z</time>
      </trkpt>
      <trkpt lat="46.15805" lon="6.64059">
        <ele>1620</ele>
        <time>2022-07-31T10:29:43Z</time>
      </trkpt>
      <trkpt lat="46.15805" lon="6.64059">
        <ele>1620</ele>
        <time>2022-07-31T10:29:44Z</time>
      </trkpt>
      <trkpt lat="46.15804" lon="6.64058">
        <ele>1620</ele>
        <time>2022-07-31T10:29:45Z</time>
      </trkpt>
      <trkpt lat="46.15803" lon="6.64059">
        <ele>1620</ele>
        <time>2022-07-31T10:29:46Z</time>
      </trkpt>
      <trkpt lat="46.15802" lon="6.64058">
        <ele>1620</ele>
        <time>2022-07-31T10:29:47Z</time>
      </trkpt>
      <trkpt lat="46.15801" lon="6.64057">
        <ele>1620</ele>
        <time>2022-07-31T10:29:48Z</time>
      </trkpt>
      <trkpt lat="46.158" lon="6.64057">
        <ele>1620</ele>
        <time>2022-07-31T10:29:49Z</time>
      </trkpt>
      <trkpt lat="46.15799" lon="6.64056">
        <ele>1620</ele>
        <time>2022-07-31T10:29:50Z</time>
      </trkpt>
      <trkpt lat="46.15797" lon="6.64056">
        <ele>1620</ele>
        <time>2022-07-31T10:29:51Z</time>
      </trkpt>
      <trkpt lat="46.15796" lon="6.64056">
        <ele>1620</ele>
        <time>2022-07-31T10:29:52Z</time>
      </trkpt>
      <trkpt lat="46.15794" lon="6.64056">
        <ele>1620</ele>
        <time>2022-07-31T10:29:53Z</time>
      </trkpt>
      <trkpt lat="46.15793" lon="6.64055">
        <ele>1620</ele>
        <time>2022-07-31T10:29:54Z</time>
      </trkpt>
      <trkpt lat="46.15791" lon="6.64055">
        <ele>1620</ele>
        <time>2022-07-31T10:29:55Z</time>
      </trkpt>
      <trkpt lat="46.15789" lon="6.64056">
        <ele>1620</ele>
        <time>2022-07-31T10:29:56Z</time>
      </trkpt>
      <trkpt lat="46.15788" lon="6.64056">
        <ele>1620</ele>
        <time>2022-07-31T10:29:57Z</time>
      </trkpt>
      <trkpt lat="46.15787" lon="6.64055">
        <ele>1621</ele>
        <time>2022-07-31T10:29:58Z</time>
      </trkpt>
      <trkpt lat="46.15786" lon="6.64055">
        <ele>1621</ele>
        <time>2022-07-31T10:29:59Z</time>
      </trkpt>
      <trkpt lat="46.15785" lon="6.64055">
        <ele>1621</ele>
        <time>2022-07-31T10:30:00Z</time>
      </trkpt>
      <trkpt lat="46.15783" lon="6.64056">
        <ele>1621</ele>
        <time>2022-07-31T10:30:01Z</time>
      </trkpt>
      <trkpt lat="46.15781" lon="6.64056">
        <ele>1621</ele>
        <time>2022-07-31T10:30:02Z</time>
      </trkpt>
      <trkpt lat="46.1578" lon="6.64056">
        <ele>1621</ele>
        <time>2022-07-31T10:30:03Z</time>
      </trkpt>
      <trkpt lat="46.15778" lon="6.64056">
        <ele>1622</ele>
        <time>2022-07-31T10:30:04Z</time>
      </trkpt>
      <trkpt lat="46.15776" lon="6.64056">
        <ele>1622</ele>
        <time>2022-07-31T10:30:05Z</time>
      </trkpt>
      <trkpt lat="46.15775" lon="6.64057">
        <ele>1622</ele>
        <time>2022-07-31T10:30:06Z</time>
      </trkpt>
      <trkpt lat="46.15773" lon="6.64057">
        <ele>1622</ele>
        <time>2022-07-31T10:30:07Z</time>
      </trkpt>
      <trkpt lat="46.15772" lon="6.64058">
        <ele>1622</ele>
        <time>2022-07-31T10:30:08Z</time>
      </trkpt>
      <trkpt lat="46.15771" lon="6.64058">
        <ele>1622</ele>
        <time>2022-07-31T10:30:09Z</time>
      </trkpt>
      <trkpt lat="46.1577" lon="6.64058">
        <ele>1622</ele>
        <time>2022-07-31T10:30:10Z</time>
      </trkpt>
      <trkpt lat="46.15768" lon="6.64059">
        <ele>1622</ele>
        <time>2022-07-31T10:30:11Z</time>
      </trkpt>
      <trkpt lat="46.15767" lon="6.6406">
        <ele>1622</ele>
        <time>2022-07-31T10:30:12Z</time>
      </trkpt>
      <trkpt lat="46.15766" lon="6.64061">
        <ele>1622</ele>
        <time>2022-07-31T10:30:13Z</time>
      </trkpt>
      <trkpt lat="46.15766" lon="6.64062">
        <ele>1622</ele>
        <time>2022-07-31T10:30:14Z</time>
      </trkpt>
      <trkpt lat="46.15764" lon="6.64063">
        <ele>1622</ele>
        <time>2022-07-31T10:30:15Z</time>
      </trkpt>
      <trkpt lat="46.15763" lon="6.64063">
        <ele>1622</ele>
        <time>2022-07-31T10:30:16Z</time>
      </trkpt>
      <trkpt lat="46.15761" lon="6.64064">
        <ele>1622</ele>
        <time>2022-07-31T10:30:17Z</time>
      </trkpt>
      <trkpt lat="46.1576" lon="6.64064">
        <ele>1622</ele>
        <time>2022-07-31T10:30:18Z</time>
      </trkpt>
      <trkpt lat="46.1576" lon="6.64064">
        <ele>1622</ele>
        <time>2022-07-31T10:30:19Z</time>
      </trkpt>
      <trkpt lat="46.15759" lon="6.64064">
        <ele>1622</ele>
        <time>2022-07-31T10:30:20Z</time>
      </trkpt>
      <trkpt lat="46.15759" lon="6.64064">
        <ele>1622</ele>
        <time>2022-07-31T10:30:21Z</time>
      </trkpt>
      <trkpt lat="46.15759" lon="6.64064">
        <ele>1622</ele>
        <time>2022-07-31T10:30:22Z</time>
      </trkpt>
      <trkpt lat="46.15758" lon="6.64064">
        <ele>1622</ele>
        <time>2022-07-31T10:30:23Z</time>
      </trkpt>
      <trkpt lat="46.15756" lon="6.64063">
        <ele>1622</ele>
        <time>2022-07-31T10:30:24Z</time>
      </trkpt>
      <trkpt lat="46.15755" lon="6.64063">
        <ele>1622</ele>
        <time>2022-07-31T10:30:25Z</time>
      </trkpt>
      <trkpt lat="46.15753" lon="6.64063">
        <ele>1621</ele>
        <time>2022-07-31T10:30:26Z</time>
      </trkpt>
      <trkpt lat="46.15752" lon="6.64063">
        <ele>1621</ele>
        <time>2022-07-31T10:30:27Z</time>
      </trkpt>
      <trkpt lat="46.1575" lon="6.64062">
        <ele>1621</ele>
        <time>2022-07-31T10:30:28Z</time>
      </trkpt>
      <trkpt lat="46.15749" lon="6.64063">
        <ele>1621</ele>
        <time>2022-07-31T10:30:29Z</time>
      </trkpt>
      <trkpt lat="46.15747" lon="6.64063">
        <ele>1621</ele>
        <time>2022-07-31T10:30:30Z</time>
      </trkpt>
      <trkpt lat="46.15746" lon="6.64062">
        <ele>1621</ele>
        <time>2022-07-31T10:30:31Z</time>
      </trkpt>
      <trkpt lat="46.15744" lon="6.64062">
        <ele>1621</ele>
        <time>2022-07-31T10:30:32Z</time>
      </trkpt>
      <trkpt lat="46.15743" lon="6.64062">
        <ele>1621</ele>
        <time>2022-07-31T10:30:33Z</time>
      </trkpt>
      <trkpt lat="46.15742" lon="6.64062">
        <ele>1621</ele>
        <time>2022-07-31T10:30:34Z</time>
      </trkpt>
      <trkpt lat="46.1574" lon="6.64062">
        <ele>1621</ele>
        <time>2022-07-31T10:30:35Z</time>
      </trkpt>
      <trkpt lat="46.15739" lon="6.64061">
        <ele>1621</ele>
        <time>2022-07-31T10:30:36Z</time>
      </trkpt>
      <trkpt lat="46.15738" lon="6.64059">
        <ele>1621</ele>
        <time>2022-07-31T10:30:37Z</time>
      </trkpt>
      <trkpt lat="46.15737" lon="6.64058">
        <ele>1622</ele>
        <time>2022-07-31T10:30:38Z</time>
      </trkpt>
      <trkpt lat="46.15737" lon="6.64057">
        <ele>1622</ele>
        <time>2022-07-31T10:30:39Z</time>
      </trkpt>
      <trkpt lat="46.15736" lon="6.64057">
        <ele>1622</ele>
        <time>2022-07-31T10:30:40Z</time>
      </trkpt>
      <trkpt lat="46.15735" lon="6.64056">
        <ele>1622</ele>
        <time>2022-07-31T10:30:41Z</time>
      </trkpt>
      <trkpt lat="46.15734" lon="6.64056">
        <ele>1622</ele>
        <time>2022-07-31T10:30:42Z</time>
      </trkpt>
      <trkpt lat="46.15732" lon="6.64056">
        <ele>1622</ele>
        <time>2022-07-31T10:30:43Z</time>
      </trkpt>
      <trkpt lat="46.15731" lon="6.64056">
        <ele>1622</ele>
        <time>2022-07-31T10:30:44Z</time>
      </trkpt>
      <trkpt lat="46.1573" lon="6.64056">
        <ele>1622</ele>
        <time>2022-07-31T10:30:45Z</time>
      </trkpt>
      <trkpt lat="46.15729" lon="6.64056">
        <ele>1622</ele>
        <time>2022-07-31T10:30:46Z</time>
      </trkpt>
      <trkpt lat="46.15729" lon="6.64055">
        <ele>1622</ele>
        <time>2022-07-31T10:30:47Z</time>
      </trkpt>
      <trkpt lat="46.15728" lon="6.64055">
        <ele>1622</ele>
        <time>2022-07-31T10:30:48Z</time>
      </trkpt>
      <trkpt lat="46.15727" lon="6.64054">
        <ele>1622</ele>
        <time>2022-07-31T10:30:49Z</time>
      </trkpt>
      <trkpt lat="46.15726" lon="6.64054">
        <ele>1622</ele>
        <time>2022-07-31T10:30:50Z</time>
      </trkpt>
      <trkpt lat="46.15725" lon="6.64053">
        <ele>1622</ele>
        <time>2022-07-31T10:30:51Z</time>
      </trkpt>
      <trkpt lat="46.15723" lon="6.64053">
        <ele>1622</ele>
        <time>2022-07-31T10:30:52Z</time>
      </trkpt>
      <trkpt lat="46.15722" lon="6.64052">
        <ele>1622</ele>
        <time>2022-07-31T10:30:53Z</time>
      </trkpt>
      <trkpt lat="46.15721" lon="6.64052">
        <ele>1622</ele>
        <time>2022-07-31T10:30:54Z</time>
      </trkpt>
      <trkpt lat="46.15719" lon="6.64052">
        <ele>1622</ele>
        <time>2022-07-31T10:30:55Z</time>
      </trkpt>
      <trkpt lat="46.15718" lon="6.64052">
        <ele>1621</ele>
        <time>2022-07-31T10:30:56Z</time>
      </trkpt>
      <trkpt lat="46.15717" lon="6.64052">
        <ele>1621</ele>
        <time>2022-07-31T10:30:57Z</time>
      </trkpt>
      <trkpt lat="46.15716" lon="6.64053">
        <ele>1621</ele>
        <time>2022-07-31T10:30:58Z</time>
      </trkpt>
      <trkpt lat="46.15715" lon="6.64052">
        <ele>1621</ele>
        <time>2022-07-31T10:30:59Z</time>
      </trkpt>
      <trkpt lat="46.15715" lon="6.64052">
        <ele>1621</ele>
        <time>2022-07-31T10:31:00Z</time>
      </trkpt>
      <trkpt lat="46.15714" lon="6.64052">
        <ele>1621</ele>
        <time>2022-07-31T10:31:01Z</time>
      </trkpt>
      <trkpt lat="46.15713" lon="6.64051">
        <ele>1621</ele>
        <time>2022-07-31T10:31:02Z</time>
      </trkpt>
      <trkpt lat="46.15712" lon="6.64052">
        <ele>1621</ele>
        <time>2022-07-31T10:31:03Z</time>
      </trkpt>
      <trkpt lat="46.1571" lon="6.64052">
        <ele>1620</ele>
        <time>2022-07-31T10:31:04Z</time>
      </trkpt>
      <trkpt lat="46.15709" lon="6.64051">
        <ele>1620</ele>
        <time>2022-07-31T10:31:05Z</time>
      </trkpt>
      <trkpt lat="46.15708" lon="6.64051">
        <ele>1620</ele>
        <time>2022-07-31T10:31:06Z</time>
      </trkpt>
      <trkpt lat="46.15707" lon="6.64051">
        <ele>1620</ele>
        <time>2022-07-31T10:31:07Z</time>
      </trkpt>
      <trkpt lat="46.15706" lon="6.6405">
        <ele>1620</ele>
        <time>2022-07-31T10:31:08Z</time>
      </trkpt>
      <trkpt lat="46.15704" lon="6.6405">
        <ele>1620</ele>
        <time>2022-07-31T10:31:09Z</time>
      </trkpt>
      <trkpt lat="46.15702" lon="6.64049">
        <ele>1619</ele>
        <time>2022-07-31T10:31:10Z</time>
      </trkpt>
      <trkpt lat="46.157" lon="6.64048">
        <ele>1619</ele>
        <time>2022-07-31T10:31:11Z</time>
      </trkpt>
      <trkpt lat="46.15699" lon="6.64048">
        <ele>1619</ele>
        <time>2022-07-31T10:31:12Z</time>
      </trkpt>
      <trkpt lat="46.15697" lon="6.64048">
        <ele>1619</ele>
        <time>2022-07-31T10:31:13Z</time>
      </trkpt>
      <trkpt lat="46.15697" lon="6.64047">
        <ele>1619</ele>
        <time>2022-07-31T10:31:14Z</time>
      </trkpt>
      <trkpt lat="46.15695" lon="6.64047">
        <ele>1619</ele>
        <time>2022-07-31T10:31:15Z</time>
      </trkpt>
      <trkpt lat="46.15694" lon="6.64047">
        <ele>1619</ele>
        <time>2022-07-31T10:31:16Z</time>
      </trkpt>
      <trkpt lat="46.15694" lon="6.64046">
        <ele>1618</ele>
        <time>2022-07-31T10:31:17Z</time>
      </trkpt>
      <trkpt lat="46.15693" lon="6.64045">
        <ele>1618</ele>
        <time>2022-07-31T10:31:18Z</time>
      </trkpt>
      <trkpt lat="46.15693" lon="6.64045">
        <ele>1618</ele>
        <time>2022-07-31T10:31:19Z</time>
      </trkpt>
      <trkpt lat="46.15692" lon="6.64044">
        <ele>1618</ele>
        <time>2022-07-31T10:31:20Z</time>
      </trkpt>
      <trkpt lat="46.15692" lon="6.64043">
        <ele>1618</ele>
        <time>2022-07-31T10:31:21Z</time>
      </trkpt>
      <trkpt lat="46.1569" lon="6.64043">
        <ele>1617</ele>
        <time>2022-07-31T10:31:22Z</time>
      </trkpt>
      <trkpt lat="46.15689" lon="6.64042">
        <ele>1617</ele>
        <time>2022-07-31T10:31:23Z</time>
      </trkpt>
      <trkpt lat="46.15687" lon="6.64042">
        <ele>1617</ele>
        <time>2022-07-31T10:31:24Z</time>
      </trkpt>
      <trkpt lat="46.15686" lon="6.64041">
        <ele>1617</ele>
        <time>2022-07-31T10:31:25Z</time>
      </trkpt>
      <trkpt lat="46.15686" lon="6.64041">
        <ele>1617</ele>
        <time>2022-07-31T10:31:26Z</time>
      </trkpt>
      <trkpt lat="46.15685" lon="6.64041">
        <ele>1617</ele>
        <time>2022-07-31T10:31:27Z</time>
      </trkpt>
      <trkpt lat="46.15685" lon="6.6404">
        <ele>1616</ele>
        <time>2022-07-31T10:31:28Z</time>
      </trkpt>
      <trkpt lat="46.15684" lon="6.64039">
        <ele>1616</ele>
        <time>2022-07-31T10:31:29Z</time>
      </trkpt>
      <trkpt lat="46.15682" lon="6.64038">
        <ele>1616</ele>
        <time>2022-07-31T10:31:30Z</time>
      </trkpt>
      <trkpt lat="46.1568" lon="6.64038">
        <ele>1616</ele>
        <time>2022-07-31T10:31:31Z</time>
      </trkpt>
      <trkpt lat="46.15679" lon="6.64038">
        <ele>1616</ele>
        <time>2022-07-31T10:31:32Z</time>
      </trkpt>
      <trkpt lat="46.15678" lon="6.64038">
        <ele>1616</ele>
        <time>2022-07-31T10:31:33Z</time>
      </trkpt>
      <trkpt lat="46.15677" lon="6.64038">
        <ele>1616</ele>
        <time>2022-07-31T10:31:34Z</time>
      </trkpt>
      <trkpt lat="46.15677" lon="6.64037">
        <ele>1615</ele>
        <time>2022-07-31T10:31:35Z</time>
      </trkpt>
      <trkpt lat="46.15676" lon="6.64036">
        <ele>1615</ele>
        <time>2022-07-31T10:31:36Z</time>
      </trkpt>
      <trkpt lat="46.15675" lon="6.64036">
        <ele>1615</ele>
        <time>2022-07-31T10:31:37Z</time>
      </trkpt>
      <trkpt lat="46.15674" lon="6.64035">
        <ele>1615</ele>
        <time>2022-07-31T10:31:38Z</time>
      </trkpt>
      <trkpt lat="46.15673" lon="6.64034">
        <ele>1615</ele>
        <time>2022-07-31T10:31:39Z</time>
      </trkpt>
      <trkpt lat="46.15672" lon="6.64033">
        <ele>1615</ele>
        <time>2022-07-31T10:31:40Z</time>
      </trkpt>
      <trkpt lat="46.15671" lon="6.64032">
        <ele>1615</ele>
        <time>2022-07-31T10:31:41Z</time>
      </trkpt>
      <trkpt lat="46.1567" lon="6.64031">
        <ele>1615</ele>
        <time>2022-07-31T10:31:42Z</time>
      </trkpt>
      <trkpt lat="46.15669" lon="6.6403">
        <ele>1615</ele>
        <time>2022-07-31T10:31:43Z</time>
      </trkpt>
      <trkpt lat="46.15668" lon="6.64028">
        <ele>1615</ele>
        <time>2022-07-31T10:31:44Z</time>
      </trkpt>
      <trkpt lat="46.15668" lon="6.64027">
        <ele>1614</ele>
        <time>2022-07-31T10:31:45Z</time>
      </trkpt>
      <trkpt lat="46.15665" lon="6.64025">
        <ele>1614</ele>
        <time>2022-07-31T10:31:46Z</time>
      </trkpt>
      <trkpt lat="46.15664" lon="6.64025">
        <ele>1614</ele>
        <time>2022-07-31T10:31:47Z</time>
      </trkpt>
      <trkpt lat="46.15663" lon="6.64024">
        <ele>1614</ele>
        <time>2022-07-31T10:31:48Z</time>
      </trkpt>
      <trkpt lat="46.15663" lon="6.64022">
        <ele>1614</ele>
        <time>2022-07-31T10:31:49Z</time>
      </trkpt>
      <trkpt lat="46.15661" lon="6.64021">
        <ele>1614</ele>
        <time>2022-07-31T10:31:50Z</time>
      </trkpt>
      <trkpt lat="46.1566" lon="6.6402">
        <ele>1614</ele>
        <time>2022-07-31T10:31:51Z</time>
      </trkpt>
      <trkpt lat="46.15658" lon="6.64019">
        <ele>1614</ele>
        <time>2022-07-31T10:31:52Z</time>
      </trkpt>
      <trkpt lat="46.15657" lon="6.64018">
        <ele>1614</ele>
        <time>2022-07-31T10:31:53Z</time>
      </trkpt>
      <trkpt lat="46.15657" lon="6.64017">
        <ele>1614</ele>
        <time>2022-07-31T10:31:54Z</time>
      </trkpt>
      <trkpt lat="46.15656" lon="6.64017">
        <ele>1614</ele>
        <time>2022-07-31T10:31:55Z</time>
      </trkpt>
      <trkpt lat="46.15656" lon="6.64016">
        <ele>1614</ele>
        <time>2022-07-31T10:31:56Z</time>
      </trkpt>
      <trkpt lat="46.15655" lon="6.64016">
        <ele>1614</ele>
        <time>2022-07-31T10:31:57Z</time>
      </trkpt>
      <trkpt lat="46.15654" lon="6.64016">
        <ele>1614</ele>
        <time>2022-07-31T10:31:58Z</time>
      </trkpt>
      <trkpt lat="46.15653" lon="6.64015">
        <ele>1614</ele>
        <time>2022-07-31T10:31:59Z</time>
      </trkpt>
      <trkpt lat="46.15653" lon="6.64015">
        <ele>1614</ele>
        <time>2022-07-31T10:32:00Z</time>
      </trkpt>
      <trkpt lat="46.15653" lon="6.64014">
        <ele>1614</ele>
        <time>2022-07-31T10:32:01Z</time>
      </trkpt>
      <trkpt lat="46.15651" lon="6.64012">
        <ele>1614</ele>
        <time>2022-07-31T10:32:02Z</time>
      </trkpt>
      <trkpt lat="46.15649" lon="6.6401">
        <ele>1614</ele>
        <time>2022-07-31T10:32:03Z</time>
      </trkpt>
      <trkpt lat="46.15649" lon="6.64009">
        <ele>1614</ele>
        <time>2022-07-31T10:32:04Z</time>
      </trkpt>
      <trkpt lat="46.15648" lon="6.64008">
        <ele>1613</ele>
        <time>2022-07-31T10:32:05Z</time>
      </trkpt>
      <trkpt lat="46.15648" lon="6.64008">
        <ele>1613</ele>
        <time>2022-07-31T10:32:06Z</time>
      </trkpt>
      <trkpt lat="46.15647" lon="6.64007">
        <ele>1613</ele>
        <time>2022-07-31T10:32:07Z</time>
      </trkpt>
      <trkpt lat="46.15646" lon="6.64006">
        <ele>1613</ele>
        <time>2022-07-31T10:32:08Z</time>
      </trkpt>
      <trkpt lat="46.15646" lon="6.64005">
        <ele>1613</ele>
        <time>2022-07-31T10:32:09Z</time>
      </trkpt>
      <trkpt lat="46.15645" lon="6.64004">
        <ele>1612</ele>
        <time>2022-07-31T10:32:10Z</time>
      </trkpt>
      <trkpt lat="46.15644" lon="6.64004">
        <ele>1612</ele>
        <time>2022-07-31T10:32:11Z</time>
      </trkpt>
      <trkpt lat="46.15643" lon="6.64003">
        <ele>1612</ele>
        <time>2022-07-31T10:32:12Z</time>
      </trkpt>
      <trkpt lat="46.15642" lon="6.64001">
        <ele>1612</ele>
        <time>2022-07-31T10:32:13Z</time>
      </trkpt>
      <trkpt lat="46.1564" lon="6.63999">
        <ele>1611</ele>
        <time>2022-07-31T10:32:14Z</time>
      </trkpt>
      <trkpt lat="46.15639" lon="6.63998">
        <ele>1611</ele>
        <time>2022-07-31T10:32:15Z</time>
      </trkpt>
      <trkpt lat="46.15637" lon="6.63998">
        <ele>1611</ele>
        <time>2022-07-31T10:32:16Z</time>
      </trkpt>
      <trkpt lat="46.15636" lon="6.63996">
        <ele>1611</ele>
        <time>2022-07-31T10:32:17Z</time>
      </trkpt>
      <trkpt lat="46.15634" lon="6.63995">
        <ele>1610</ele>
        <time>2022-07-31T10:32:18Z</time>
      </trkpt>
      <trkpt lat="46.15632" lon="6.63995">
        <ele>1610</ele>
        <time>2022-07-31T10:32:19Z</time>
      </trkpt>
      <trkpt lat="46.15631" lon="6.63995">
        <ele>1610</ele>
        <time>2022-07-31T10:32:20Z</time>
      </trkpt>
      <trkpt lat="46.15629" lon="6.63994">
        <ele>1609</ele>
        <time>2022-07-31T10:32:21Z</time>
      </trkpt>
      <trkpt lat="46.15627" lon="6.63994">
        <ele>1609</ele>
        <time>2022-07-31T10:32:22Z</time>
      </trkpt>
      <trkpt lat="46.15626" lon="6.63993">
        <ele>1609</ele>
        <time>2022-07-31T10:32:23Z</time>
      </trkpt>
      <trkpt lat="46.15625" lon="6.63993">
        <ele>1608</ele>
        <time>2022-07-31T10:32:24Z</time>
      </trkpt>
      <trkpt lat="46.15623" lon="6.63992">
        <ele>1608</ele>
        <time>2022-07-31T10:32:25Z</time>
      </trkpt>
      <trkpt lat="46.15622" lon="6.63992">
        <ele>1608</ele>
        <time>2022-07-31T10:32:26Z</time>
      </trkpt>
      <trkpt lat="46.15621" lon="6.63991">
        <ele>1608</ele>
        <time>2022-07-31T10:32:27Z</time>
      </trkpt>
      <trkpt lat="46.15619" lon="6.6399">
        <ele>1608</ele>
        <time>2022-07-31T10:32:28Z</time>
      </trkpt>
      <trkpt lat="46.15618" lon="6.6399">
        <ele>1607</ele>
        <time>2022-07-31T10:32:29Z</time>
      </trkpt>
      <trkpt lat="46.15616" lon="6.6399">
        <ele>1607</ele>
        <time>2022-07-31T10:32:30Z</time>
      </trkpt>
      <trkpt lat="46.15614" lon="6.63989">
        <ele>1607</ele>
        <time>2022-07-31T10:32:31Z</time>
      </trkpt>
      <trkpt lat="46.15612" lon="6.63989">
        <ele>1607</ele>
        <time>2022-07-31T10:32:32Z</time>
      </trkpt>
      <trkpt lat="46.15611" lon="6.63988">
        <ele>1607</ele>
        <time>2022-07-31T10:32:33Z</time>
      </trkpt>
      <trkpt lat="46.1561" lon="6.63988">
        <ele>1607</ele>
        <time>2022-07-31T10:32:34Z</time>
      </trkpt>
      <trkpt lat="46.1561" lon="6.63987">
        <ele>1607</ele>
        <time>2022-07-31T10:32:35Z</time>
      </trkpt>
      <trkpt lat="46.15608" lon="6.63986">
        <ele>1607</ele>
        <time>2022-07-31T10:32:36Z</time>
      </trkpt>
      <trkpt lat="46.15608" lon="6.63985">
        <ele>1607</ele>
        <time>2022-07-31T10:32:37Z</time>
      </trkpt>
      <trkpt lat="46.15606" lon="6.63984">
        <ele>1607</ele>
        <time>2022-07-31T10:32:38Z</time>
      </trkpt>
      <trkpt lat="46.15605" lon="6.63983">
        <ele>1607</ele>
        <time>2022-07-31T10:32:39Z</time>
      </trkpt>
      <trkpt lat="46.15604" lon="6.63982">
        <ele>1607</ele>
        <time>2022-07-31T10:32:40Z</time>
      </trkpt>
      <trkpt lat="46.15602" lon="6.63981">
        <ele>1607</ele>
        <time>2022-07-31T10:32:41Z</time>
      </trkpt>
      <trkpt lat="46.15601" lon="6.6398">
        <ele>1607</ele>
        <time>2022-07-31T10:32:42Z</time>
      </trkpt>
      <trkpt lat="46.15599" lon="6.6398">
        <ele>1607</ele>
        <time>2022-07-31T10:32:43Z</time>
      </trkpt>
      <trkpt lat="46.15598" lon="6.63978">
        <ele>1607</ele>
        <time>2022-07-31T10:32:44Z</time>
      </trkpt>
      <trkpt lat="46.15597" lon="6.63977">
        <ele>1607</ele>
        <time>2022-07-31T10:32:45Z</time>
      </trkpt>
      <trkpt lat="46.15595" lon="6.63976">
        <ele>1607</ele>
        <time>2022-07-31T10:32:46Z</time>
      </trkpt>
      <trkpt lat="46.15594" lon="6.63976">
        <ele>1607</ele>
        <time>2022-07-31T10:32:47Z</time>
      </trkpt>
      <trkpt lat="46.15592" lon="6.63975">
        <ele>1607</ele>
        <time>2022-07-31T10:32:48Z</time>
      </trkpt>
      <trkpt lat="46.15591" lon="6.63975">
        <ele>1607</ele>
        <time>2022-07-31T10:32:49Z</time>
      </trkpt>
      <trkpt lat="46.1559" lon="6.63973">
        <ele>1607</ele>
        <time>2022-07-31T10:32:50Z</time>
      </trkpt>
      <trkpt lat="46.15589" lon="6.63973">
        <ele>1607</ele>
        <time>2022-07-31T10:32:51Z</time>
      </trkpt>
      <trkpt lat="46.15588" lon="6.63972">
        <ele>1607</ele>
        <time>2022-07-31T10:32:52Z</time>
      </trkpt>
      <trkpt lat="46.15587" lon="6.63971">
        <ele>1607</ele>
        <time>2022-07-31T10:32:53Z</time>
      </trkpt>
      <trkpt lat="46.15586" lon="6.6397">
        <ele>1607</ele>
        <time>2022-07-31T10:32:54Z</time>
      </trkpt>
      <trkpt lat="46.15584" lon="6.63969">
        <ele>1607</ele>
        <time>2022-07-31T10:32:55Z</time>
      </trkpt>
      <trkpt lat="46.15583" lon="6.63968">
        <ele>1607</ele>
        <time>2022-07-31T10:32:56Z</time>
      </trkpt>
      <trkpt lat="46.15582" lon="6.63967">
        <ele>1607</ele>
        <time>2022-07-31T10:32:57Z</time>
      </trkpt>
      <trkpt lat="46.15581" lon="6.63966">
        <ele>1607</ele>
        <time>2022-07-31T10:32:58Z</time>
      </trkpt>
      <trkpt lat="46.15581" lon="6.63965">
        <ele>1607</ele>
        <time>2022-07-31T10:32:59Z</time>
      </trkpt>
      <trkpt lat="46.15579" lon="6.63964">
        <ele>1607</ele>
        <time>2022-07-31T10:33:00Z</time>
      </trkpt>
      <trkpt lat="46.15578" lon="6.63963">
        <ele>1607</ele>
        <time>2022-07-31T10:33:01Z</time>
      </trkpt>
      <trkpt lat="46.15577" lon="6.63963">
        <ele>1607</ele>
        <time>2022-07-31T10:33:02Z</time>
      </trkpt>
      <trkpt lat="46.15577" lon="6.63961">
        <ele>1607</ele>
        <time>2022-07-31T10:33:03Z</time>
      </trkpt>
      <trkpt lat="46.15575" lon="6.63961">
        <ele>1607</ele>
        <time>2022-07-31T10:33:04Z</time>
      </trkpt>
      <trkpt lat="46.15575" lon="6.6396">
        <ele>1607</ele>
        <time>2022-07-31T10:33:05Z</time>
      </trkpt>
      <trkpt lat="46.15574" lon="6.63959">
        <ele>1606</ele>
        <time>2022-07-31T10:33:06Z</time>
      </trkpt>
      <trkpt lat="46.15573" lon="6.63958">
        <ele>1606</ele>
        <time>2022-07-31T10:33:07Z</time>
      </trkpt>
      <trkpt lat="46.15572" lon="6.63956">
        <ele>1606</ele>
        <time>2022-07-31T10:33:08Z</time>
      </trkpt>
      <trkpt lat="46.15571" lon="6.63954">
        <ele>1606</ele>
        <time>2022-07-31T10:33:09Z</time>
      </trkpt>
      <trkpt lat="46.1557" lon="6.63952">
        <ele>1606</ele>
        <time>2022-07-31T10:33:10Z</time>
      </trkpt>
      <trkpt lat="46.15569" lon="6.63951">
        <ele>1606</ele>
        <time>2022-07-31T10:33:11Z</time>
      </trkpt>
      <trkpt lat="46.15569" lon="6.63949">
        <ele>1606</ele>
        <time>2022-07-31T10:33:12Z</time>
      </trkpt>
      <trkpt lat="46.15569" lon="6.63947">
        <ele>1605</ele>
        <time>2022-07-31T10:33:13Z</time>
      </trkpt>
      <trkpt lat="46.15569" lon="6.63946">
        <ele>1605</ele>
        <time>2022-07-31T10:33:14Z</time>
      </trkpt>
      <trkpt lat="46.15568" lon="6.63945">
        <ele>1605</ele>
        <time>2022-07-31T10:33:15Z</time>
      </trkpt>
      <trkpt lat="46.15567" lon="6.63944">
        <ele>1605</ele>
        <time>2022-07-31T10:33:16Z</time>
      </trkpt>
      <trkpt lat="46.15566" lon="6.63942">
        <ele>1605</ele>
        <time>2022-07-31T10:33:17Z</time>
      </trkpt>
      <trkpt lat="46.15565" lon="6.6394">
        <ele>1605</ele>
        <time>2022-07-31T10:33:18Z</time>
      </trkpt>
      <trkpt lat="46.15564" lon="6.63939">
        <ele>1605</ele>
        <time>2022-07-31T10:33:19Z</time>
      </trkpt>
      <trkpt lat="46.15564" lon="6.63937">
        <ele>1604</ele>
        <time>2022-07-31T10:33:20Z</time>
      </trkpt>
      <trkpt lat="46.15562" lon="6.63936">
        <ele>1604</ele>
        <time>2022-07-31T10:33:21Z</time>
      </trkpt>
      <trkpt lat="46.15561" lon="6.63935">
        <ele>1604</ele>
        <time>2022-07-31T10:33:22Z</time>
      </trkpt>
      <trkpt lat="46.15561" lon="6.63933">
        <ele>1604</ele>
        <time>2022-07-31T10:33:23Z</time>
      </trkpt>
      <trkpt lat="46.1556" lon="6.63931">
        <ele>1604</ele>
        <time>2022-07-31T10:33:24Z</time>
      </trkpt>
      <trkpt lat="46.1556" lon="6.63929">
        <ele>1604</ele>
        <time>2022-07-31T10:33:25Z</time>
      </trkpt>
      <trkpt lat="46.15558" lon="6.63927">
        <ele>1604</ele>
        <time>2022-07-31T10:33:26Z</time>
      </trkpt>
      <trkpt lat="46.15558" lon="6.63925">
        <ele>1604</ele>
        <time>2022-07-31T10:33:27Z</time>
      </trkpt>
      <trkpt lat="46.15558" lon="6.63924">
        <ele>1603</ele>
        <time>2022-07-31T10:33:28Z</time>
      </trkpt>
      <trkpt lat="46.15558" lon="6.63921">
        <ele>1603</ele>
        <time>2022-07-31T10:33:29Z</time>
      </trkpt>
      <trkpt lat="46.15557" lon="6.63919">
        <ele>1603</ele>
        <time>2022-07-31T10:33:30Z</time>
      </trkpt>
      <trkpt lat="46.15557" lon="6.63917">
        <ele>1603</ele>
        <time>2022-07-31T10:33:31Z</time>
      </trkpt>
      <trkpt lat="46.15556" lon="6.63915">
        <ele>1603</ele>
        <time>2022-07-31T10:33:32Z</time>
      </trkpt>
      <trkpt lat="46.15555" lon="6.63913">
        <ele>1603</ele>
        <time>2022-07-31T10:33:33Z</time>
      </trkpt>
      <trkpt lat="46.15555" lon="6.63911">
        <ele>1603</ele>
        <time>2022-07-31T10:33:34Z</time>
      </trkpt>
      <trkpt lat="46.15555" lon="6.63909">
        <ele>1603</ele>
        <time>2022-07-31T10:33:35Z</time>
      </trkpt>
      <trkpt lat="46.15555" lon="6.63908">
        <ele>1603</ele>
        <time>2022-07-31T10:33:36Z</time>
      </trkpt>
      <trkpt lat="46.15554" lon="6.63906">
        <ele>1603</ele>
        <time>2022-07-31T10:33:37Z</time>
      </trkpt>
      <trkpt lat="46.15554" lon="6.63904">
        <ele>1602</ele>
        <time>2022-07-31T10:33:38Z</time>
      </trkpt>
      <trkpt lat="46.15553" lon="6.63902">
        <ele>1602</ele>
        <time>2022-07-31T10:33:39Z</time>
      </trkpt>
      <trkpt lat="46.15553" lon="6.639">
        <ele>1602</ele>
        <time>2022-07-31T10:33:40Z</time>
      </trkpt>
      <trkpt lat="46.15553" lon="6.63899">
        <ele>1602</ele>
        <time>2022-07-31T10:33:41Z</time>
      </trkpt>
      <trkpt lat="46.15552" lon="6.63897">
        <ele>1602</ele>
        <time>2022-07-31T10:33:42Z</time>
      </trkpt>
      <trkpt lat="46.15552" lon="6.63895">
        <ele>1602</ele>
        <time>2022-07-31T10:33:43Z</time>
      </trkpt>
      <trkpt lat="46.1555" lon="6.63893">
        <ele>1602</ele>
        <time>2022-07-31T10:33:44Z</time>
      </trkpt>
      <trkpt lat="46.1555" lon="6.63892">
        <ele>1602</ele>
        <time>2022-07-31T10:33:45Z</time>
      </trkpt>
      <trkpt lat="46.15549" lon="6.6389">
        <ele>1602</ele>
        <time>2022-07-31T10:33:46Z</time>
      </trkpt>
      <trkpt lat="46.15548" lon="6.63889">
        <ele>1602</ele>
        <time>2022-07-31T10:33:47Z</time>
      </trkpt>
      <trkpt lat="46.15547" lon="6.63887">
        <ele>1602</ele>
        <time>2022-07-31T10:33:48Z</time>
      </trkpt>
      <trkpt lat="46.15547" lon="6.63885">
        <ele>1602</ele>
        <time>2022-07-31T10:33:49Z</time>
      </trkpt>
      <trkpt lat="46.15546" lon="6.63884">
        <ele>1602</ele>
        <time>2022-07-31T10:33:50Z</time>
      </trkpt>
      <trkpt lat="46.15546" lon="6.63883">
        <ele>1602</ele>
        <time>2022-07-31T10:33:51Z</time>
      </trkpt>
      <trkpt lat="46.15546" lon="6.63882">
        <ele>1602</ele>
        <time>2022-07-31T10:33:52Z</time>
      </trkpt>
      <trkpt lat="46.15546" lon="6.6388">
        <ele>1602</ele>
        <time>2022-07-31T10:33:53Z</time>
      </trkpt>
      <trkpt lat="46.15546" lon="6.63878">
        <ele>1602</ele>
        <time>2022-07-31T10:33:54Z</time>
      </trkpt>
      <trkpt lat="46.15546" lon="6.63876">
        <ele>1602</ele>
        <time>2022-07-31T10:33:55Z</time>
      </trkpt>
      <trkpt lat="46.15546" lon="6.63874">
        <ele>1601</ele>
        <time>2022-07-31T10:33:56Z</time>
      </trkpt>
      <trkpt lat="46.15546" lon="6.63872">
        <ele>1601</ele>
        <time>2022-07-31T10:33:57Z</time>
      </trkpt>
      <trkpt lat="46.15546" lon="6.6387">
        <ele>1601</ele>
        <time>2022-07-31T10:33:58Z</time>
      </trkpt>
      <trkpt lat="46.15546" lon="6.63868">
        <ele>1601</ele>
        <time>2022-07-31T10:33:59Z</time>
      </trkpt>
      <trkpt lat="46.15546" lon="6.63866">
        <ele>1600</ele>
        <time>2022-07-31T10:34:00Z</time>
      </trkpt>
      <trkpt lat="46.15546" lon="6.63864">
        <ele>1600</ele>
        <time>2022-07-31T10:34:01Z</time>
      </trkpt>
      <trkpt lat="46.15546" lon="6.63862">
        <ele>1600</ele>
        <time>2022-07-31T10:34:02Z</time>
      </trkpt>
      <trkpt lat="46.15546" lon="6.6386">
        <ele>1600</ele>
        <time>2022-07-31T10:34:03Z</time>
      </trkpt>
      <trkpt lat="46.15545" lon="6.63858">
        <ele>1600</ele>
        <time>2022-07-31T10:34:04Z</time>
      </trkpt>
      <trkpt lat="46.15545" lon="6.63856">
        <ele>1599</ele>
        <time>2022-07-31T10:34:05Z</time>
      </trkpt>
      <trkpt lat="46.15545" lon="6.63854">
        <ele>1599</ele>
        <time>2022-07-31T10:34:06Z</time>
      </trkpt>
      <trkpt lat="46.15545" lon="6.63852">
        <ele>1599</ele>
        <time>2022-07-31T10:34:07Z</time>
      </trkpt>
      <trkpt lat="46.15544" lon="6.6385">
        <ele>1599</ele>
        <time>2022-07-31T10:34:08Z</time>
      </trkpt>
      <trkpt lat="46.15544" lon="6.63848">
        <ele>1599</ele>
        <time>2022-07-31T10:34:09Z</time>
      </trkpt>
      <trkpt lat="46.15545" lon="6.63846">
        <ele>1599</ele>
        <time>2022-07-31T10:34:10Z</time>
      </trkpt>
      <trkpt lat="46.15545" lon="6.63845">
        <ele>1599</ele>
        <time>2022-07-31T10:34:11Z</time>
      </trkpt>
      <trkpt lat="46.15546" lon="6.63843">
        <ele>1599</ele>
        <time>2022-07-31T10:34:12Z</time>
      </trkpt>
      <trkpt lat="46.15546" lon="6.63842">
        <ele>1599</ele>
        <time>2022-07-31T10:34:13Z</time>
      </trkpt>
      <trkpt lat="46.15546" lon="6.6384">
        <ele>1599</ele>
        <time>2022-07-31T10:34:14Z</time>
      </trkpt>
      <trkpt lat="46.15546" lon="6.63839">
        <ele>1599</ele>
        <time>2022-07-31T10:34:15Z</time>
      </trkpt>
      <trkpt lat="46.15545" lon="6.63838">
        <ele>1599</ele>
        <time>2022-07-31T10:34:16Z</time>
      </trkpt>
      <trkpt lat="46.15545" lon="6.63836">
        <ele>1599</ele>
        <time>2022-07-31T10:34:17Z</time>
      </trkpt>
      <trkpt lat="46.15544" lon="6.63834">
        <ele>1599</ele>
        <time>2022-07-31T10:34:18Z</time>
      </trkpt>
      <trkpt lat="46.15544" lon="6.63832">
        <ele>1599</ele>
        <time>2022-07-31T10:34:19Z</time>
      </trkpt>
      <trkpt lat="46.15542" lon="6.6383">
        <ele>1599</ele>
        <time>2022-07-31T10:34:20Z</time>
      </trkpt>
      <trkpt lat="46.15542" lon="6.63829">
        <ele>1599</ele>
        <time>2022-07-31T10:34:21Z</time>
      </trkpt>
      <trkpt lat="46.15542" lon="6.63828">
        <ele>1599</ele>
        <time>2022-07-31T10:34:22Z</time>
      </trkpt>
      <trkpt lat="46.15541" lon="6.63826">
        <ele>1599</ele>
        <time>2022-07-31T10:34:23Z</time>
      </trkpt>
      <trkpt lat="46.15541" lon="6.63824">
        <ele>1599</ele>
        <time>2022-07-31T10:34:24Z</time>
      </trkpt>
      <trkpt lat="46.15542" lon="6.63822">
        <ele>1599</ele>
        <time>2022-07-31T10:34:25Z</time>
      </trkpt>
      <trkpt lat="46.15541" lon="6.6382">
        <ele>1598</ele>
        <time>2022-07-31T10:34:26Z</time>
      </trkpt>
      <trkpt lat="46.15541" lon="6.63819">
        <ele>1598</ele>
        <time>2022-07-31T10:34:27Z</time>
      </trkpt>
      <trkpt lat="46.1554" lon="6.63816">
        <ele>1598</ele>
        <time>2022-07-31T10:34:28Z</time>
      </trkpt>
      <trkpt lat="46.1554" lon="6.63814">
        <ele>1598</ele>
        <time>2022-07-31T10:34:29Z</time>
      </trkpt>
      <trkpt lat="46.15538" lon="6.63812">
        <ele>1598</ele>
        <time>2022-07-31T10:34:30Z</time>
      </trkpt>
      <trkpt lat="46.15538" lon="6.63811">
        <ele>1598</ele>
        <time>2022-07-31T10:34:31Z</time>
      </trkpt>
      <trkpt lat="46.15537" lon="6.63809">
        <ele>1598</ele>
        <time>2022-07-31T10:34:32Z</time>
      </trkpt>
      <trkpt lat="46.15537" lon="6.63808">
        <ele>1598</ele>
        <time>2022-07-31T10:34:33Z</time>
      </trkpt>
      <trkpt lat="46.15536" lon="6.63807">
        <ele>1598</ele>
        <time>2022-07-31T10:34:34Z</time>
      </trkpt>
      <trkpt lat="46.15536" lon="6.63806">
        <ele>1598</ele>
        <time>2022-07-31T10:34:35Z</time>
      </trkpt>
      <trkpt lat="46.15536" lon="6.63805">
        <ele>1598</ele>
        <time>2022-07-31T10:34:36Z</time>
      </trkpt>
      <trkpt lat="46.15535" lon="6.63804">
        <ele>1598</ele>
        <time>2022-07-31T10:34:37Z</time>
      </trkpt>
      <trkpt lat="46.15533" lon="6.63803">
        <ele>1598</ele>
        <time>2022-07-31T10:34:38Z</time>
      </trkpt>
      <trkpt lat="46.15533" lon="6.63801">
        <ele>1597</ele>
        <time>2022-07-31T10:34:39Z</time>
      </trkpt>
      <trkpt lat="46.15533" lon="6.638">
        <ele>1597</ele>
        <time>2022-07-31T10:34:40Z</time>
      </trkpt>
      <trkpt lat="46.15532" lon="6.63798">
        <ele>1597</ele>
        <time>2022-07-31T10:34:41Z</time>
      </trkpt>
      <trkpt lat="46.15532" lon="6.63797">
        <ele>1597</ele>
        <time>2022-07-31T10:34:42Z</time>
      </trkpt>
      <trkpt lat="46.15531" lon="6.63794">
        <ele>1597</ele>
        <time>2022-07-31T10:34:43Z</time>
      </trkpt>
      <trkpt lat="46.1553" lon="6.63793">
        <ele>1597</ele>
        <time>2022-07-31T10:34:44Z</time>
      </trkpt>
      <trkpt lat="46.15529" lon="6.63792">
        <ele>1596</ele>
        <time>2022-07-31T10:34:45Z</time>
      </trkpt>
      <trkpt lat="46.15528" lon="6.6379">
        <ele>1596</ele>
        <time>2022-07-31T10:34:46Z</time>
      </trkpt>
      <trkpt lat="46.15528" lon="6.63788">
        <ele>1596</ele>
        <time>2022-07-31T10:34:47Z</time>
      </trkpt>
      <trkpt lat="46.15526" lon="6.63786">
        <ele>1596</ele>
        <time>2022-07-31T10:34:48Z</time>
      </trkpt>
      <trkpt lat="46.15526" lon="6.63785">
        <ele>1595</ele>
        <time>2022-07-31T10:34:49Z</time>
      </trkpt>
      <trkpt lat="46.15525" lon="6.63782">
        <ele>1595</ele>
        <time>2022-07-31T10:34:50Z</time>
      </trkpt>
      <trkpt lat="46.15525" lon="6.63781">
        <ele>1595</ele>
        <time>2022-07-31T10:34:51Z</time>
      </trkpt>
      <trkpt lat="46.15524" lon="6.63778">
        <ele>1595</ele>
        <time>2022-07-31T10:34:52Z</time>
      </trkpt>
      <trkpt lat="46.15523" lon="6.63776">
        <ele>1595</ele>
        <time>2022-07-31T10:34:53Z</time>
      </trkpt>
      <trkpt lat="46.15523" lon="6.63774">
        <ele>1595</ele>
        <time>2022-07-31T10:34:54Z</time>
      </trkpt>
      <trkpt lat="46.15521" lon="6.63772">
        <ele>1595</ele>
        <time>2022-07-31T10:34:55Z</time>
      </trkpt>
      <trkpt lat="46.15521" lon="6.6377">
        <ele>1595</ele>
        <time>2022-07-31T10:34:56Z</time>
      </trkpt>
      <trkpt lat="46.1552" lon="6.63769">
        <ele>1595</ele>
        <time>2022-07-31T10:34:57Z</time>
      </trkpt>
      <trkpt lat="46.15518" lon="6.63767">
        <ele>1595</ele>
        <time>2022-07-31T10:34:58Z</time>
      </trkpt>
      <trkpt lat="46.15517" lon="6.63766">
        <ele>1595</ele>
        <time>2022-07-31T10:34:59Z</time>
      </trkpt>
      <trkpt lat="46.15516" lon="6.63765">
        <ele>1595</ele>
        <time>2022-07-31T10:35:00Z</time>
      </trkpt>
      <trkpt lat="46.15515" lon="6.63763">
        <ele>1595</ele>
        <time>2022-07-31T10:35:01Z</time>
      </trkpt>
      <trkpt lat="46.15515" lon="6.63762">
        <ele>1595</ele>
        <time>2022-07-31T10:35:02Z</time>
      </trkpt>
      <trkpt lat="46.15515" lon="6.6376">
        <ele>1595</ele>
        <time>2022-07-31T10:35:03Z</time>
      </trkpt>
      <trkpt lat="46.15514" lon="6.63758">
        <ele>1595</ele>
        <time>2022-07-31T10:35:04Z</time>
      </trkpt>
      <trkpt lat="46.15513" lon="6.63756">
        <ele>1596</ele>
        <time>2022-07-31T10:35:05Z</time>
      </trkpt>
      <trkpt lat="46.15513" lon="6.63753">
        <ele>1596</ele>
        <time>2022-07-31T10:35:06Z</time>
      </trkpt>
      <trkpt lat="46.15513" lon="6.63752">
        <ele>1596</ele>
        <time>2022-07-31T10:35:07Z</time>
      </trkpt>
      <trkpt lat="46.15511" lon="6.6375">
        <ele>1596</ele>
        <time>2022-07-31T10:35:08Z</time>
      </trkpt>
      <trkpt lat="46.15511" lon="6.63748">
        <ele>1596</ele>
        <time>2022-07-31T10:35:09Z</time>
      </trkpt>
      <trkpt lat="46.1551" lon="6.63746">
        <ele>1596</ele>
        <time>2022-07-31T10:35:10Z</time>
      </trkpt>
      <trkpt lat="46.1551" lon="6.63745">
        <ele>1596</ele>
        <time>2022-07-31T10:35:11Z</time>
      </trkpt>
      <trkpt lat="46.15509" lon="6.63743">
        <ele>1596</ele>
        <time>2022-07-31T10:35:12Z</time>
      </trkpt>
      <trkpt lat="46.15508" lon="6.63742">
        <ele>1596</ele>
        <time>2022-07-31T10:35:13Z</time>
      </trkpt>
      <trkpt lat="46.15507" lon="6.6374">
        <ele>1596</ele>
        <time>2022-07-31T10:35:14Z</time>
      </trkpt>
      <trkpt lat="46.15507" lon="6.63739">
        <ele>1596</ele>
        <time>2022-07-31T10:35:15Z</time>
      </trkpt>
      <trkpt lat="46.15507" lon="6.63737">
        <ele>1596</ele>
        <time>2022-07-31T10:35:16Z</time>
      </trkpt>
      <trkpt lat="46.15506" lon="6.63736">
        <ele>1596</ele>
        <time>2022-07-31T10:35:17Z</time>
      </trkpt>
      <trkpt lat="46.15506" lon="6.63734">
        <ele>1596</ele>
        <time>2022-07-31T10:35:18Z</time>
      </trkpt>
      <trkpt lat="46.15504" lon="6.63733">
        <ele>1596</ele>
        <time>2022-07-31T10:35:19Z</time>
      </trkpt>
      <trkpt lat="46.15503" lon="6.63732">
        <ele>1596</ele>
        <time>2022-07-31T10:35:20Z</time>
      </trkpt>
      <trkpt lat="46.15503" lon="6.6373">
        <ele>1596</ele>
        <time>2022-07-31T10:35:21Z</time>
      </trkpt>
      <trkpt lat="46.15502" lon="6.63727">
        <ele>1596</ele>
        <time>2022-07-31T10:35:22Z</time>
      </trkpt>
      <trkpt lat="46.15501" lon="6.63725">
        <ele>1596</ele>
        <time>2022-07-31T10:35:23Z</time>
      </trkpt>
      <trkpt lat="46.155" lon="6.63723">
        <ele>1596</ele>
        <time>2022-07-31T10:35:24Z</time>
      </trkpt>
      <trkpt lat="46.155" lon="6.6372">
        <ele>1596</ele>
        <time>2022-07-31T10:35:25Z</time>
      </trkpt>
      <trkpt lat="46.15499" lon="6.63718">
        <ele>1596</ele>
        <time>2022-07-31T10:35:26Z</time>
      </trkpt>
      <trkpt lat="46.15499" lon="6.63716">
        <ele>1596</ele>
        <time>2022-07-31T10:35:27Z</time>
      </trkpt>
      <trkpt lat="46.15498" lon="6.63714">
        <ele>1596</ele>
        <time>2022-07-31T10:35:28Z</time>
      </trkpt>
      <trkpt lat="46.15497" lon="6.63712">
        <ele>1596</ele>
        <time>2022-07-31T10:35:29Z</time>
      </trkpt>
      <trkpt lat="46.15496" lon="6.6371">
        <ele>1595</ele>
        <time>2022-07-31T10:35:30Z</time>
      </trkpt>
      <trkpt lat="46.15496" lon="6.63709">
        <ele>1595</ele>
        <time>2022-07-31T10:35:31Z</time>
      </trkpt>
      <trkpt lat="46.15496" lon="6.63706">
        <ele>1595</ele>
        <time>2022-07-31T10:35:32Z</time>
      </trkpt>
      <trkpt lat="46.15496" lon="6.63705">
        <ele>1595</ele>
        <time>2022-07-31T10:35:33Z</time>
      </trkpt>
      <trkpt lat="46.15496" lon="6.63703">
        <ele>1595</ele>
        <time>2022-07-31T10:35:34Z</time>
      </trkpt>
      <trkpt lat="46.15496" lon="6.63702">
        <ele>1595</ele>
        <time>2022-07-31T10:35:35Z</time>
      </trkpt>
      <trkpt lat="46.15496" lon="6.637">
        <ele>1595</ele>
        <time>2022-07-31T10:35:36Z</time>
      </trkpt>
      <trkpt lat="46.15496" lon="6.63699">
        <ele>1594</ele>
        <time>2022-07-31T10:35:37Z</time>
      </trkpt>
      <trkpt lat="46.15496" lon="6.63698">
        <ele>1594</ele>
        <time>2022-07-31T10:35:38Z</time>
      </trkpt>
      <trkpt lat="46.15495" lon="6.63696">
        <ele>1594</ele>
        <time>2022-07-31T10:35:39Z</time>
      </trkpt>
      <trkpt lat="46.15495" lon="6.63694">
        <ele>1594</ele>
        <time>2022-07-31T10:35:40Z</time>
      </trkpt>
      <trkpt lat="46.15495" lon="6.63693">
        <ele>1594</ele>
        <time>2022-07-31T10:35:41Z</time>
      </trkpt>
      <trkpt lat="46.15494" lon="6.63692">
        <ele>1594</ele>
        <time>2022-07-31T10:35:42Z</time>
      </trkpt>
      <trkpt lat="46.15493" lon="6.63691">
        <ele>1594</ele>
        <time>2022-07-31T10:35:43Z</time>
      </trkpt>
      <trkpt lat="46.15493" lon="6.63689">
        <ele>1593</ele>
        <time>2022-07-31T10:35:44Z</time>
      </trkpt>
      <trkpt lat="46.15492" lon="6.63687">
        <ele>1593</ele>
        <time>2022-07-31T10:35:45Z</time>
      </trkpt>
      <trkpt lat="46.15492" lon="6.63685">
        <ele>1593</ele>
        <time>2022-07-31T10:35:46Z</time>
      </trkpt>
      <trkpt lat="46.15492" lon="6.63683">
        <ele>1593</ele>
        <time>2022-07-31T10:35:47Z</time>
      </trkpt>
      <trkpt lat="46.15492" lon="6.63682">
        <ele>1592</ele>
        <time>2022-07-31T10:35:48Z</time>
      </trkpt>
      <trkpt lat="46.15492" lon="6.6368">
        <ele>1592</ele>
        <time>2022-07-31T10:35:49Z</time>
      </trkpt>
      <trkpt lat="46.15492" lon="6.63678">
        <ele>1592</ele>
        <time>2022-07-31T10:35:50Z</time>
      </trkpt>
      <trkpt lat="46.15492" lon="6.63675">
        <ele>1592</ele>
        <time>2022-07-31T10:35:51Z</time>
      </trkpt>
      <trkpt lat="46.15491" lon="6.63673">
        <ele>1592</ele>
        <time>2022-07-31T10:35:52Z</time>
      </trkpt>
      <trkpt lat="46.15491" lon="6.63671">
        <ele>1592</ele>
        <time>2022-07-31T10:35:53Z</time>
      </trkpt>
      <trkpt lat="46.15491" lon="6.63669">
        <ele>1592</ele>
        <time>2022-07-31T10:35:54Z</time>
      </trkpt>
      <trkpt lat="46.1549" lon="6.63667">
        <ele>1592</ele>
        <time>2022-07-31T10:35:55Z</time>
      </trkpt>
      <trkpt lat="46.1549" lon="6.63665">
        <ele>1592</ele>
        <time>2022-07-31T10:35:56Z</time>
      </trkpt>
      <trkpt lat="46.15489" lon="6.63663">
        <ele>1592</ele>
        <time>2022-07-31T10:35:57Z</time>
      </trkpt>
      <trkpt lat="46.15489" lon="6.63662">
        <ele>1592</ele>
        <time>2022-07-31T10:35:58Z</time>
      </trkpt>
      <trkpt lat="46.15489" lon="6.63661">
        <ele>1592</ele>
        <time>2022-07-31T10:35:59Z</time>
      </trkpt>
      <trkpt lat="46.15488" lon="6.63659">
        <ele>1592</ele>
        <time>2022-07-31T10:36:00Z</time>
      </trkpt>
      <trkpt lat="46.15487" lon="6.63658">
        <ele>1592</ele>
        <time>2022-07-31T10:36:01Z</time>
      </trkpt>
      <trkpt lat="46.15487" lon="6.63656">
        <ele>1592</ele>
        <time>2022-07-31T10:36:02Z</time>
      </trkpt>
      <trkpt lat="46.15486" lon="6.63654">
        <ele>1592</ele>
        <time>2022-07-31T10:36:03Z</time>
      </trkpt>
      <trkpt lat="46.15485" lon="6.63652">
        <ele>1592</ele>
        <time>2022-07-31T10:36:04Z</time>
      </trkpt>
      <trkpt lat="46.15484" lon="6.6365">
        <ele>1592</ele>
        <time>2022-07-31T10:36:05Z</time>
      </trkpt>
      <trkpt lat="46.15483" lon="6.63649">
        <ele>1592</ele>
        <time>2022-07-31T10:36:06Z</time>
      </trkpt>
      <trkpt lat="46.15483" lon="6.63647">
        <ele>1592</ele>
        <time>2022-07-31T10:36:07Z</time>
      </trkpt>
      <trkpt lat="46.15481" lon="6.63645">
        <ele>1592</ele>
        <time>2022-07-31T10:36:08Z</time>
      </trkpt>
      <trkpt lat="46.1548" lon="6.63644">
        <ele>1592</ele>
        <time>2022-07-31T10:36:09Z</time>
      </trkpt>
      <trkpt lat="46.15479" lon="6.63642">
        <ele>1592</ele>
        <time>2022-07-31T10:36:10Z</time>
      </trkpt>
      <trkpt lat="46.15479" lon="6.6364">
        <ele>1593</ele>
        <time>2022-07-31T10:36:11Z</time>
      </trkpt>
      <trkpt lat="46.15478" lon="6.63638">
        <ele>1593</ele>
        <time>2022-07-31T10:36:12Z</time>
      </trkpt>
      <trkpt lat="46.15477" lon="6.63636">
        <ele>1593</ele>
        <time>2022-07-31T10:36:13Z</time>
      </trkpt>
      <trkpt lat="46.15476" lon="6.63634">
        <ele>1593</ele>
        <time>2022-07-31T10:36:14Z</time>
      </trkpt>
      <trkpt lat="46.15475" lon="6.63633">
        <ele>1593</ele>
        <time>2022-07-31T10:36:15Z</time>
      </trkpt>
      <trkpt lat="46.15474" lon="6.63632">
        <ele>1593</ele>
        <time>2022-07-31T10:36:16Z</time>
      </trkpt>
      <trkpt lat="46.15474" lon="6.63631">
        <ele>1593</ele>
        <time>2022-07-31T10:36:17Z</time>
      </trkpt>
      <trkpt lat="46.15474" lon="6.63631">
        <ele>1593</ele>
        <time>2022-07-31T10:36:18Z</time>
      </trkpt>
      <trkpt lat="46.15474" lon="6.63629">
        <ele>1592</ele>
        <time>2022-07-31T10:36:19Z</time>
      </trkpt>
      <trkpt lat="46.15474" lon="6.63627">
        <ele>1592</ele>
        <time>2022-07-31T10:36:20Z</time>
      </trkpt>
      <trkpt lat="46.15474" lon="6.63626">
        <ele>1592</ele>
        <time>2022-07-31T10:36:21Z</time>
      </trkpt>
      <trkpt lat="46.15473" lon="6.63624">
        <ele>1592</ele>
        <time>2022-07-31T10:36:22Z</time>
      </trkpt>
      <trkpt lat="46.15472" lon="6.63622">
        <ele>1592</ele>
        <time>2022-07-31T10:36:23Z</time>
      </trkpt>
      <trkpt lat="46.15472" lon="6.6362">
        <ele>1592</ele>
        <time>2022-07-31T10:36:24Z</time>
      </trkpt>
      <trkpt lat="46.15472" lon="6.63619">
        <ele>1592</ele>
        <time>2022-07-31T10:36:25Z</time>
      </trkpt>
      <trkpt lat="46.15471" lon="6.63617">
        <ele>1592</ele>
        <time>2022-07-31T10:36:26Z</time>
      </trkpt>
      <trkpt lat="46.15471" lon="6.63614">
        <ele>1592</ele>
        <time>2022-07-31T10:36:27Z</time>
      </trkpt>
      <trkpt lat="46.1547" lon="6.63612">
        <ele>1592</ele>
        <time>2022-07-31T10:36:28Z</time>
      </trkpt>
      <trkpt lat="46.1547" lon="6.6361">
        <ele>1592</ele>
        <time>2022-07-31T10:36:29Z</time>
      </trkpt>
      <trkpt lat="46.1547" lon="6.63608">
        <ele>1591</ele>
        <time>2022-07-31T10:36:30Z</time>
      </trkpt>
      <trkpt lat="46.1547" lon="6.63606">
        <ele>1591</ele>
        <time>2022-07-31T10:36:31Z</time>
      </trkpt>
      <trkpt lat="46.1547" lon="6.63606">
        <ele>1591</ele>
        <time>2022-07-31T10:36:32Z</time>
      </trkpt>
      <trkpt lat="46.1547" lon="6.63604">
        <ele>1591</ele>
        <time>2022-07-31T10:36:33Z</time>
      </trkpt>
      <trkpt lat="46.15469" lon="6.63602">
        <ele>1591</ele>
        <time>2022-07-31T10:36:34Z</time>
      </trkpt>
      <trkpt lat="46.15468" lon="6.636">
        <ele>1591</ele>
        <time>2022-07-31T10:36:35Z</time>
      </trkpt>
      <trkpt lat="46.15467" lon="6.63598">
        <ele>1590</ele>
        <time>2022-07-31T10:36:36Z</time>
      </trkpt>
      <trkpt lat="46.15466" lon="6.63597">
        <ele>1590</ele>
        <time>2022-07-31T10:36:37Z</time>
      </trkpt>
      <trkpt lat="46.15465" lon="6.63595">
        <ele>1590</ele>
        <time>2022-07-31T10:36:38Z</time>
      </trkpt>
      <trkpt lat="46.15465" lon="6.63593">
        <ele>1590</ele>
        <time>2022-07-31T10:36:39Z</time>
      </trkpt>
      <trkpt lat="46.15464" lon="6.63592">
        <ele>1590</ele>
        <time>2022-07-31T10:36:40Z</time>
      </trkpt>
      <trkpt lat="46.15463" lon="6.63591">
        <ele>1590</ele>
        <time>2022-07-31T10:36:41Z</time>
      </trkpt>
      <trkpt lat="46.15463" lon="6.63589">
        <ele>1590</ele>
        <time>2022-07-31T10:36:42Z</time>
      </trkpt>
      <trkpt lat="46.15462" lon="6.63588">
        <ele>1590</ele>
        <time>2022-07-31T10:36:43Z</time>
      </trkpt>
      <trkpt lat="46.15461" lon="6.63586">
        <ele>1590</ele>
        <time>2022-07-31T10:36:44Z</time>
      </trkpt>
      <trkpt lat="46.1546" lon="6.63584">
        <ele>1590</ele>
        <time>2022-07-31T10:36:45Z</time>
      </trkpt>
      <trkpt lat="46.15459" lon="6.63582">
        <ele>1590</ele>
        <time>2022-07-31T10:36:46Z</time>
      </trkpt>
      <trkpt lat="46.15459" lon="6.6358">
        <ele>1590</ele>
        <time>2022-07-31T10:36:47Z</time>
      </trkpt>
      <trkpt lat="46.15459" lon="6.63579">
        <ele>1590</ele>
        <time>2022-07-31T10:36:48Z</time>
      </trkpt>
      <trkpt lat="46.15458" lon="6.63576">
        <ele>1590</ele>
        <time>2022-07-31T10:36:49Z</time>
      </trkpt>
      <trkpt lat="46.15458" lon="6.63574">
        <ele>1590</ele>
        <time>2022-07-31T10:36:50Z</time>
      </trkpt>
      <trkpt lat="46.15458" lon="6.63573">
        <ele>1589</ele>
        <time>2022-07-31T10:36:51Z</time>
      </trkpt>
      <trkpt lat="46.15457" lon="6.63571">
        <ele>1589</ele>
        <time>2022-07-31T10:36:52Z</time>
      </trkpt>
      <trkpt lat="46.15457" lon="6.63569">
        <ele>1589</ele>
        <time>2022-07-31T10:36:53Z</time>
      </trkpt>
      <trkpt lat="46.15457" lon="6.63567">
        <ele>1589</ele>
        <time>2022-07-31T10:36:54Z</time>
      </trkpt>
      <trkpt lat="46.15457" lon="6.63565">
        <ele>1589</ele>
        <time>2022-07-31T10:36:55Z</time>
      </trkpt>
      <trkpt lat="46.15457" lon="6.63563">
        <ele>1589</ele>
        <time>2022-07-31T10:36:56Z</time>
      </trkpt>
      <trkpt lat="46.15457" lon="6.63561">
        <ele>1589</ele>
        <time>2022-07-31T10:36:57Z</time>
      </trkpt>
      <trkpt lat="46.15457" lon="6.63559">
        <ele>1589</ele>
        <time>2022-07-31T10:36:58Z</time>
      </trkpt>
      <trkpt lat="46.15456" lon="6.63557">
        <ele>1589</ele>
        <time>2022-07-31T10:36:59Z</time>
      </trkpt>
      <trkpt lat="46.15456" lon="6.63554">
        <ele>1589</ele>
        <time>2022-07-31T10:37:00Z</time>
      </trkpt>
      <trkpt lat="46.15456" lon="6.63553">
        <ele>1589</ele>
        <time>2022-07-31T10:37:01Z</time>
      </trkpt>
      <trkpt lat="46.15456" lon="6.63551">
        <ele>1589</ele>
        <time>2022-07-31T10:37:02Z</time>
      </trkpt>
      <trkpt lat="46.15456" lon="6.63549">
        <ele>1589</ele>
        <time>2022-07-31T10:37:03Z</time>
      </trkpt>
      <trkpt lat="46.15456" lon="6.63547">
        <ele>1588</ele>
        <time>2022-07-31T10:37:04Z</time>
      </trkpt>
      <trkpt lat="46.15456" lon="6.63545">
        <ele>1588</ele>
        <time>2022-07-31T10:37:05Z</time>
      </trkpt>
      <trkpt lat="46.15456" lon="6.63544">
        <ele>1588</ele>
        <time>2022-07-31T10:37:06Z</time>
      </trkpt>
      <trkpt lat="46.15455" lon="6.63542">
        <ele>1588</ele>
        <time>2022-07-31T10:37:07Z</time>
      </trkpt>
      <trkpt lat="46.15455" lon="6.63541">
        <ele>1588</ele>
        <time>2022-07-31T10:37:08Z</time>
      </trkpt>
      <trkpt lat="46.15455" lon="6.63539">
        <ele>1588</ele>
        <time>2022-07-31T10:37:09Z</time>
      </trkpt>
      <trkpt lat="46.15454" lon="6.63538">
        <ele>1587</ele>
        <time>2022-07-31T10:37:10Z</time>
      </trkpt>
      <trkpt lat="46.15452" lon="6.63535">
        <ele>1587</ele>
        <time>2022-07-31T10:37:11Z</time>
      </trkpt>
      <trkpt lat="46.15451" lon="6.63533">
        <ele>1587</ele>
        <time>2022-07-31T10:37:12Z</time>
      </trkpt>
      <trkpt lat="46.1545" lon="6.63532">
        <ele>1587</ele>
        <time>2022-07-31T10:37:13Z</time>
      </trkpt>
      <trkpt lat="46.1545" lon="6.6353">
        <ele>1587</ele>
        <time>2022-07-31T10:37:14Z</time>
      </trkpt>
      <trkpt lat="46.15449" lon="6.63529">
        <ele>1587</ele>
        <time>2022-07-31T10:37:15Z</time>
      </trkpt>
      <trkpt lat="46.15447" lon="6.63528">
        <ele>1587</ele>
        <time>2022-07-31T10:37:16Z</time>
      </trkpt>
      <trkpt lat="46.15446" lon="6.63527">
        <ele>1587</ele>
        <time>2022-07-31T10:37:17Z</time>
      </trkpt>
      <trkpt lat="46.15444" lon="6.63526">
        <ele>1587</ele>
        <time>2022-07-31T10:37:18Z</time>
      </trkpt>
      <trkpt lat="46.15443" lon="6.63525">
        <ele>1587</ele>
        <time>2022-07-31T10:37:19Z</time>
      </trkpt>
      <trkpt lat="46.15442" lon="6.63524">
        <ele>1587</ele>
        <time>2022-07-31T10:37:20Z</time>
      </trkpt>
      <trkpt lat="46.15441" lon="6.63523">
        <ele>1587</ele>
        <time>2022-07-31T10:37:21Z</time>
      </trkpt>
      <trkpt lat="46.1544" lon="6.63522">
        <ele>1587</ele>
        <time>2022-07-31T10:37:22Z</time>
      </trkpt>
      <trkpt lat="46.15438" lon="6.63521">
        <ele>1587</ele>
        <time>2022-07-31T10:37:23Z</time>
      </trkpt>
      <trkpt lat="46.15437" lon="6.63521">
        <ele>1587</ele>
        <time>2022-07-31T10:37:24Z</time>
      </trkpt>
      <trkpt lat="46.15435" lon="6.6352">
        <ele>1587</ele>
        <time>2022-07-31T10:37:25Z</time>
      </trkpt>
      <trkpt lat="46.15433" lon="6.63519">
        <ele>1587</ele>
        <time>2022-07-31T10:37:26Z</time>
      </trkpt>
      <trkpt lat="46.15432" lon="6.63518">
        <ele>1587</ele>
        <time>2022-07-31T10:37:27Z</time>
      </trkpt>
      <trkpt lat="46.15431" lon="6.63518">
        <ele>1587</ele>
        <time>2022-07-31T10:37:28Z</time>
      </trkpt>
      <trkpt lat="46.1543" lon="6.63519">
        <ele>1587</ele>
        <time>2022-07-31T10:37:29Z</time>
      </trkpt>
      <trkpt lat="46.1543" lon="6.63519">
        <ele>1587</ele>
        <time>2022-07-31T10:37:30Z</time>
      </trkpt>
      <trkpt lat="46.15429" lon="6.63518">
        <ele>1587</ele>
        <time>2022-07-31T10:37:31Z</time>
      </trkpt>
      <trkpt lat="46.15428" lon="6.63517">
        <ele>1586</ele>
        <time>2022-07-31T10:37:32Z</time>
      </trkpt>
      <trkpt lat="46.15427" lon="6.63516">
        <ele>1586</ele>
        <time>2022-07-31T10:37:33Z</time>
      </trkpt>
      <trkpt lat="46.15426" lon="6.63515">
        <ele>1586</ele>
        <time>2022-07-31T10:37:34Z</time>
      </trkpt>
      <trkpt lat="46.15425" lon="6.63514">
        <ele>1586</ele>
        <time>2022-07-31T10:37:35Z</time>
      </trkpt>
      <trkpt lat="46.15424" lon="6.63514">
        <ele>1586</ele>
        <time>2022-07-31T10:37:36Z</time>
      </trkpt>
      <trkpt lat="46.15422" lon="6.63513">
        <ele>1586</ele>
        <time>2022-07-31T10:37:37Z</time>
      </trkpt>
      <trkpt lat="46.15421" lon="6.63512">
        <ele>1586</ele>
        <time>2022-07-31T10:37:38Z</time>
      </trkpt>
      <trkpt lat="46.1542" lon="6.63511">
        <ele>1586</ele>
        <time>2022-07-31T10:37:39Z</time>
      </trkpt>
      <trkpt lat="46.15418" lon="6.6351">
        <ele>1586</ele>
        <time>2022-07-31T10:37:40Z</time>
      </trkpt>
      <trkpt lat="46.15417" lon="6.63509">
        <ele>1586</ele>
        <time>2022-07-31T10:37:41Z</time>
      </trkpt>
      <trkpt lat="46.15416" lon="6.63508">
        <ele>1586</ele>
        <time>2022-07-31T10:37:42Z</time>
      </trkpt>
      <trkpt lat="46.15414" lon="6.63507">
        <ele>1586</ele>
        <time>2022-07-31T10:37:43Z</time>
      </trkpt>
      <trkpt lat="46.15413" lon="6.63507">
        <ele>1586</ele>
        <time>2022-07-31T10:37:44Z</time>
      </trkpt>
      <trkpt lat="46.15413" lon="6.63506">
        <ele>1586</ele>
        <time>2022-07-31T10:37:45Z</time>
      </trkpt>
      <trkpt lat="46.15412" lon="6.63504">
        <ele>1586</ele>
        <time>2022-07-31T10:37:46Z</time>
      </trkpt>
      <trkpt lat="46.15412" lon="6.63502">
        <ele>1586</ele>
        <time>2022-07-31T10:37:47Z</time>
      </trkpt>
      <trkpt lat="46.1541" lon="6.635">
        <ele>1586</ele>
        <time>2022-07-31T10:37:48Z</time>
      </trkpt>
      <trkpt lat="46.15408" lon="6.63498">
        <ele>1586</ele>
        <time>2022-07-31T10:37:49Z</time>
      </trkpt>
      <trkpt lat="46.15406" lon="6.63497">
        <ele>1586</ele>
        <time>2022-07-31T10:37:50Z</time>
      </trkpt>
      <trkpt lat="46.15405" lon="6.63496">
        <ele>1586</ele>
        <time>2022-07-31T10:37:51Z</time>
      </trkpt>
      <trkpt lat="46.15404" lon="6.63494">
        <ele>1586</ele>
        <time>2022-07-31T10:37:52Z</time>
      </trkpt>
      <trkpt lat="46.15404" lon="6.63493">
        <ele>1585</ele>
        <time>2022-07-31T10:37:53Z</time>
      </trkpt>
      <trkpt lat="46.15403" lon="6.63493">
        <ele>1585</ele>
        <time>2022-07-31T10:37:54Z</time>
      </trkpt>
      <trkpt lat="46.15402" lon="6.63492">
        <ele>1585</ele>
        <time>2022-07-31T10:37:55Z</time>
      </trkpt>
      <trkpt lat="46.154" lon="6.63492">
        <ele>1585</ele>
        <time>2022-07-31T10:37:56Z</time>
      </trkpt>
      <trkpt lat="46.15399" lon="6.63491">
        <ele>1585</ele>
        <time>2022-07-31T10:37:57Z</time>
      </trkpt>
      <trkpt lat="46.15398" lon="6.6349">
        <ele>1585</ele>
        <time>2022-07-31T10:37:58Z</time>
      </trkpt>
      <trkpt lat="46.15397" lon="6.63488">
        <ele>1585</ele>
        <time>2022-07-31T10:37:59Z</time>
      </trkpt>
      <trkpt lat="46.15397" lon="6.63487">
        <ele>1585</ele>
        <time>2022-07-31T10:38:00Z</time>
      </trkpt>
      <trkpt lat="46.15396" lon="6.63485">
        <ele>1585</ele>
        <time>2022-07-31T10:38:01Z</time>
      </trkpt>
      <trkpt lat="46.15396" lon="6.63484">
        <ele>1584</ele>
        <time>2022-07-31T10:38:02Z</time>
      </trkpt>
      <trkpt lat="46.15396" lon="6.63483">
        <ele>1584</ele>
        <time>2022-07-31T10:38:03Z</time>
      </trkpt>
      <trkpt lat="46.15394" lon="6.63482">
        <ele>1584</ele>
        <time>2022-07-31T10:38:04Z</time>
      </trkpt>
      <trkpt lat="46.15393" lon="6.6348">
        <ele>1584</ele>
        <time>2022-07-31T10:38:05Z</time>
      </trkpt>
      <trkpt lat="46.15393" lon="6.63479">
        <ele>1584</ele>
        <time>2022-07-31T10:38:06Z</time>
      </trkpt>
      <trkpt lat="46.15393" lon="6.63478">
        <ele>1584</ele>
        <time>2022-07-31T10:38:07Z</time>
      </trkpt>
      <trkpt lat="46.15393" lon="6.63477">
        <ele>1584</ele>
        <time>2022-07-31T10:38:08Z</time>
      </trkpt>
      <trkpt lat="46.15392" lon="6.63476">
        <ele>1584</ele>
        <time>2022-07-31T10:38:09Z</time>
      </trkpt>
      <trkpt lat="46.1539" lon="6.63475">
        <ele>1584</ele>
        <time>2022-07-31T10:38:10Z</time>
      </trkpt>
      <trkpt lat="46.15389" lon="6.63475">
        <ele>1584</ele>
        <time>2022-07-31T10:38:11Z</time>
      </trkpt>
      <trkpt lat="46.15388" lon="6.63473">
        <ele>1584</ele>
        <time>2022-07-31T10:38:12Z</time>
      </trkpt>
      <trkpt lat="46.15386" lon="6.63471">
        <ele>1584</ele>
        <time>2022-07-31T10:38:13Z</time>
      </trkpt>
      <trkpt lat="46.15385" lon="6.6347">
        <ele>1584</ele>
        <time>2022-07-31T10:38:14Z</time>
      </trkpt>
      <trkpt lat="46.15384" lon="6.63468">
        <ele>1584</ele>
        <time>2022-07-31T10:38:15Z</time>
      </trkpt>
      <trkpt lat="46.15383" lon="6.63466">
        <ele>1583</ele>
        <time>2022-07-31T10:38:16Z</time>
      </trkpt>
      <trkpt lat="46.15383" lon="6.63465">
        <ele>1583</ele>
        <time>2022-07-31T10:38:17Z</time>
      </trkpt>
      <trkpt lat="46.15381" lon="6.63463">
        <ele>1583</ele>
        <time>2022-07-31T10:38:18Z</time>
      </trkpt>
      <trkpt lat="46.1538" lon="6.63462">
        <ele>1583</ele>
        <time>2022-07-31T10:38:19Z</time>
      </trkpt>
      <trkpt lat="46.1538" lon="6.6346">
        <ele>1583</ele>
        <time>2022-07-31T10:38:20Z</time>
      </trkpt>
      <trkpt lat="46.15378" lon="6.63457">
        <ele>1583</ele>
        <time>2022-07-31T10:38:21Z</time>
      </trkpt>
      <trkpt lat="46.15377" lon="6.63455">
        <ele>1583</ele>
        <time>2022-07-31T10:38:22Z</time>
      </trkpt>
      <trkpt lat="46.15377" lon="6.63453">
        <ele>1583</ele>
        <time>2022-07-31T10:38:23Z</time>
      </trkpt>
      <trkpt lat="46.15376" lon="6.63451">
        <ele>1583</ele>
        <time>2022-07-31T10:38:24Z</time>
      </trkpt>
      <trkpt lat="46.15376" lon="6.63448">
        <ele>1583</ele>
        <time>2022-07-31T10:38:25Z</time>
      </trkpt>
      <trkpt lat="46.15375" lon="6.63447">
        <ele>1583</ele>
        <time>2022-07-31T10:38:26Z</time>
      </trkpt>
      <trkpt lat="46.15374" lon="6.63445">
        <ele>1583</ele>
        <time>2022-07-31T10:38:27Z</time>
      </trkpt>
      <trkpt lat="46.15373" lon="6.63442">
        <ele>1583</ele>
        <time>2022-07-31T10:38:28Z</time>
      </trkpt>
      <trkpt lat="46.15372" lon="6.6344">
        <ele>1583</ele>
        <time>2022-07-31T10:38:29Z</time>
      </trkpt>
      <trkpt lat="46.15371" lon="6.63438">
        <ele>1583</ele>
        <time>2022-07-31T10:38:30Z</time>
      </trkpt>
      <trkpt lat="46.15369" lon="6.63437">
        <ele>1583</ele>
        <time>2022-07-31T10:38:31Z</time>
      </trkpt>
      <trkpt lat="46.15369" lon="6.63435">
        <ele>1583</ele>
        <time>2022-07-31T10:38:32Z</time>
      </trkpt>
      <trkpt lat="46.15368" lon="6.63433">
        <ele>1583</ele>
        <time>2022-07-31T10:38:33Z</time>
      </trkpt>
      <trkpt lat="46.15367" lon="6.63432">
        <ele>1583</ele>
        <time>2022-07-31T10:38:34Z</time>
      </trkpt>
      <trkpt lat="46.15367" lon="6.63431">
        <ele>1583</ele>
        <time>2022-07-31T10:38:35Z</time>
      </trkpt>
      <trkpt lat="46.15366" lon="6.6343">
        <ele>1583</ele>
        <time>2022-07-31T10:38:36Z</time>
      </trkpt>
      <trkpt lat="46.15366" lon="6.63429">
        <ele>1583</ele>
        <time>2022-07-31T10:38:37Z</time>
      </trkpt>
      <trkpt lat="46.15366" lon="6.63428">
        <ele>1583</ele>
        <time>2022-07-31T10:38:38Z</time>
      </trkpt>
      <trkpt lat="46.15364" lon="6.63428">
        <ele>1583</ele>
        <time>2022-07-31T10:38:39Z</time>
      </trkpt>
      <trkpt lat="46.15364" lon="6.63427">
        <ele>1583</ele>
        <time>2022-07-31T10:38:40Z</time>
      </trkpt>
      <trkpt lat="46.15363" lon="6.63426">
        <ele>1583</ele>
        <time>2022-07-31T10:38:41Z</time>
      </trkpt>
      <trkpt lat="46.15362" lon="6.63424">
        <ele>1583</ele>
        <time>2022-07-31T10:38:42Z</time>
      </trkpt>
      <trkpt lat="46.15361" lon="6.63423">
        <ele>1582</ele>
        <time>2022-07-31T10:38:43Z</time>
      </trkpt>
      <trkpt lat="46.1536" lon="6.63422">
        <ele>1582</ele>
        <time>2022-07-31T10:38:44Z</time>
      </trkpt>
      <trkpt lat="46.1536" lon="6.63421">
        <ele>1582</ele>
        <time>2022-07-31T10:38:45Z</time>
      </trkpt>
      <trkpt lat="46.15359" lon="6.6342">
        <ele>1582</ele>
        <time>2022-07-31T10:38:46Z</time>
      </trkpt>
      <trkpt lat="46.15359" lon="6.63419">
        <ele>1582</ele>
        <time>2022-07-31T10:38:47Z</time>
      </trkpt>
      <trkpt lat="46.15358" lon="6.63418">
        <ele>1582</ele>
        <time>2022-07-31T10:38:48Z</time>
      </trkpt>
      <trkpt lat="46.15356" lon="6.63417">
        <ele>1582</ele>
        <time>2022-07-31T10:38:49Z</time>
      </trkpt>
      <trkpt lat="46.15355" lon="6.63416">
        <ele>1582</ele>
        <time>2022-07-31T10:38:50Z</time>
      </trkpt>
      <trkpt lat="46.15355" lon="6.63414">
        <ele>1582</ele>
        <time>2022-07-31T10:38:51Z</time>
      </trkpt>
      <trkpt lat="46.15353" lon="6.63413">
        <ele>1582</ele>
        <time>2022-07-31T10:38:52Z</time>
      </trkpt>
      <trkpt lat="46.15353" lon="6.63411">
        <ele>1582</ele>
        <time>2022-07-31T10:38:53Z</time>
      </trkpt>
      <trkpt lat="46.15352" lon="6.6341">
        <ele>1582</ele>
        <time>2022-07-31T10:38:54Z</time>
      </trkpt>
      <trkpt lat="46.15351" lon="6.63409">
        <ele>1582</ele>
        <time>2022-07-31T10:38:55Z</time>
      </trkpt>
      <trkpt lat="46.15349" lon="6.63407">
        <ele>1582</ele>
        <time>2022-07-31T10:38:56Z</time>
      </trkpt>
      <trkpt lat="46.15348" lon="6.63406">
        <ele>1582</ele>
        <time>2022-07-31T10:38:57Z</time>
      </trkpt>
      <trkpt lat="46.15348" lon="6.63405">
        <ele>1582</ele>
        <time>2022-07-31T10:38:58Z</time>
      </trkpt>
      <trkpt lat="46.15347" lon="6.63403">
        <ele>1581</ele>
        <time>2022-07-31T10:38:59Z</time>
      </trkpt>
      <trkpt lat="46.15347" lon="6.63401">
        <ele>1581</ele>
        <time>2022-07-31T10:39:00Z</time>
      </trkpt>
      <trkpt lat="46.15346" lon="6.63399">
        <ele>1581</ele>
        <time>2022-07-31T10:39:01Z</time>
      </trkpt>
      <trkpt lat="46.15344" lon="6.63397">
        <ele>1581</ele>
        <time>2022-07-31T10:39:02Z</time>
      </trkpt>
      <trkpt lat="46.15343" lon="6.63395">
        <ele>1581</ele>
        <time>2022-07-31T10:39:03Z</time>
      </trkpt>
      <trkpt lat="46.15342" lon="6.63394">
        <ele>1581</ele>
        <time>2022-07-31T10:39:04Z</time>
      </trkpt>
      <trkpt lat="46.15341" lon="6.63392">
        <ele>1581</ele>
        <time>2022-07-31T10:39:05Z</time>
      </trkpt>
      <trkpt lat="46.1534" lon="6.63392">
        <ele>1581</ele>
        <time>2022-07-31T10:39:06Z</time>
      </trkpt>
      <trkpt lat="46.15339" lon="6.63391">
        <ele>1581</ele>
        <time>2022-07-31T10:39:07Z</time>
      </trkpt>
      <trkpt lat="46.15339" lon="6.6339">
        <ele>1581</ele>
        <time>2022-07-31T10:39:08Z</time>
      </trkpt>
      <trkpt lat="46.15338" lon="6.63389">
        <ele>1581</ele>
        <time>2022-07-31T10:39:09Z</time>
      </trkpt>
      <trkpt lat="46.15338" lon="6.63387">
        <ele>1581</ele>
        <time>2022-07-31T10:39:10Z</time>
      </trkpt>
      <trkpt lat="46.15337" lon="6.63385">
        <ele>1581</ele>
        <time>2022-07-31T10:39:11Z</time>
      </trkpt>
      <trkpt lat="46.15336" lon="6.63384">
        <ele>1581</ele>
        <time>2022-07-31T10:39:12Z</time>
      </trkpt>
      <trkpt lat="46.15336" lon="6.63382">
        <ele>1581</ele>
        <time>2022-07-31T10:39:13Z</time>
      </trkpt>
      <trkpt lat="46.15335" lon="6.6338">
        <ele>1581</ele>
        <time>2022-07-31T10:39:14Z</time>
      </trkpt>
      <trkpt lat="46.15334" lon="6.63379">
        <ele>1581</ele>
        <time>2022-07-31T10:39:15Z</time>
      </trkpt>
      <trkpt lat="46.15334" lon="6.63378">
        <ele>1581</ele>
        <time>2022-07-31T10:39:16Z</time>
      </trkpt>
      <trkpt lat="46.15334" lon="6.63377">
        <ele>1581</ele>
        <time>2022-07-31T10:39:17Z</time>
      </trkpt>
      <trkpt lat="46.15333" lon="6.63377">
        <ele>1581</ele>
        <time>2022-07-31T10:39:18Z</time>
      </trkpt>
      <trkpt lat="46.15333" lon="6.63375">
        <ele>1581</ele>
        <time>2022-07-31T10:39:19Z</time>
      </trkpt>
      <trkpt lat="46.15333" lon="6.63374">
        <ele>1581</ele>
        <time>2022-07-31T10:39:20Z</time>
      </trkpt>
      <trkpt lat="46.15332" lon="6.63373">
        <ele>1581</ele>
        <time>2022-07-31T10:39:21Z</time>
      </trkpt>
      <trkpt lat="46.15332" lon="6.63373">
        <ele>1581</ele>
        <time>2022-07-31T10:39:22Z</time>
      </trkpt>
      <trkpt lat="46.15332" lon="6.63373">
        <ele>1580</ele>
        <time>2022-07-31T10:39:23Z</time>
      </trkpt>
      <trkpt lat="46.15332" lon="6.63373">
        <ele>1580</ele>
        <time>2022-07-31T10:39:24Z</time>
      </trkpt>
      <trkpt lat="46.15332" lon="6.63373">
        <ele>1580</ele>
        <time>2022-07-31T10:39:25Z</time>
      </trkpt>
      <trkpt lat="46.15332" lon="6.63373">
        <ele>1580</ele>
        <time>2022-07-31T10:39:26Z</time>
      </trkpt>
      <trkpt lat="46.15332" lon="6.63372">
        <ele>1580</ele>
        <time>2022-07-31T10:39:27Z</time>
      </trkpt>
      <trkpt lat="46.15331" lon="6.63372">
        <ele>1580</ele>
        <time>2022-07-31T10:39:28Z</time>
      </trkpt>
      <trkpt lat="46.15331" lon="6.63371">
        <ele>1580</ele>
        <time>2022-07-31T10:39:29Z</time>
      </trkpt>
      <trkpt lat="46.15331" lon="6.63371">
        <ele>1580</ele>
        <time>2022-07-31T10:39:30Z</time>
      </trkpt>
      <trkpt lat="46.15331" lon="6.63372">
        <ele>1580</ele>
        <time>2022-07-31T10:39:31Z</time>
      </trkpt>
      <trkpt lat="46.15331" lon="6.63372">
        <ele>1580</ele>
        <time>2022-07-31T10:39:32Z</time>
      </trkpt>
      <trkpt lat="46.1533" lon="6.63372">
        <ele>1580</ele>
        <time>2022-07-31T10:39:33Z</time>
      </trkpt>
      <trkpt lat="46.1533" lon="6.63373">
        <ele>1580</ele>
        <time>2022-07-31T10:39:34Z</time>
      </trkpt>
      <trkpt lat="46.1533" lon="6.63373">
        <ele>1580</ele>
        <time>2022-07-31T10:39:35Z</time>
      </trkpt>
      <trkpt lat="46.1533" lon="6.63374">
        <ele>1580</ele>
        <time>2022-07-31T10:39:36Z</time>
      </trkpt>
      <trkpt lat="46.1533" lon="6.63374">
        <ele>1580</ele>
        <time>2022-07-31T10:39:37Z</time>
      </trkpt>
      <trkpt lat="46.1533" lon="6.63374">
        <ele>1580</ele>
        <time>2022-07-31T10:39:38Z</time>
      </trkpt>
      <trkpt lat="46.1533" lon="6.63374">
        <ele>1580</ele>
        <time>2022-07-31T10:39:39Z</time>
      </trkpt>
      <trkpt lat="46.1533" lon="6.63374">
        <ele>1580</ele>
        <time>2022-07-31T10:39:40Z</time>
      </trkpt>
      <trkpt lat="46.1533" lon="6.63374">
        <ele>1580</ele>
        <time>2022-07-31T10:39:41Z</time>
      </trkpt>
      <trkpt lat="46.15329" lon="6.63374">
        <ele>1580</ele>
        <time>2022-07-31T10:39:42Z</time>
      </trkpt>
      <trkpt lat="46.15329" lon="6.63374">
        <ele>1580</ele>
        <time>2022-07-31T10:39:43Z</time>
      </trkpt>
      <trkpt lat="46.15329" lon="6.63374">
        <ele>1580</ele>
        <time>2022-07-31T10:39:44Z</time>
      </trkpt>
      <trkpt lat="46.15329" lon="6.63373">
        <ele>1580</ele>
        <time>2022-07-31T10:39:45Z</time>
      </trkpt>
      <trkpt lat="46.15329" lon="6.63373">
        <ele>1580</ele>
        <time>2022-07-31T10:39:46Z</time>
      </trkpt>
      <trkpt lat="46.15329" lon="6.63373">
        <ele>1580</ele>
        <time>2022-07-31T10:39:47Z</time>
      </trkpt>
      <trkpt lat="46.15329" lon="6.63373">
        <ele>1580</ele>
        <time>2022-07-31T10:39:48Z</time>
      </trkpt>
      <trkpt lat="46.15329" lon="6.63373">
        <ele>1580</ele>
        <time>2022-07-31T10:39:49Z</time>
      </trkpt>
      <trkpt lat="46.15329" lon="6.63373">
        <ele>1581</ele>
        <time>2022-07-31T10:39:50Z</time>
      </trkpt>
      <trkpt lat="46.15329" lon="6.63373">
        <ele>1581</ele>
        <time>2022-07-31T10:39:51Z</time>
      </trkpt>
      <trkpt lat="46.15329" lon="6.63373">
        <ele>1581</ele>
        <time>2022-07-31T10:39:52Z</time>
      </trkpt>
      <trkpt lat="46.15329" lon="6.63373">
        <ele>1581</ele>
        <time>2022-07-31T10:39:53Z</time>
      </trkpt>
      <trkpt lat="46.15329" lon="6.63373">
        <ele>1581</ele>
        <time>2022-07-31T10:39:54Z</time>
      </trkpt>
      <trkpt lat="46.15329" lon="6.63373">
        <ele>1581</ele>
        <time>2022-07-31T10:39:55Z</time>
      </trkpt>
      <trkpt lat="46.1533" lon="6.63372">
        <ele>1581</ele>
        <time>2022-07-31T10:39:56Z</time>
      </trkpt>
      <trkpt lat="46.1533" lon="6.63372">
        <ele>1581</ele>
        <time>2022-07-31T10:39:57Z</time>
      </trkpt>
      <trkpt lat="46.1533" lon="6.63372">
        <ele>1581</ele>
        <time>2022-07-31T10:39:58Z</time>
      </trkpt>
      <trkpt lat="46.1533" lon="6.63372">
        <ele>1581</ele>
        <time>2022-07-31T10:39:59Z</time>
      </trkpt>
      <trkpt lat="46.1533" lon="6.63372">
        <ele>1581</ele>
        <time>2022-07-31T10:40:00Z</time>
      </trkpt>
      <trkpt lat="46.1533" lon="6.63372">
        <ele>1581</ele>
        <time>2022-07-31T10:40:01Z</time>
      </trkpt>
      <trkpt lat="46.1533" lon="6.63372">
        <ele>1581</ele>
        <time>2022-07-31T10:40:02Z</time>
      </trkpt>
      <trkpt lat="46.1533" lon="6.63372">
        <ele>1581</ele>
        <time>2022-07-31T10:40:03Z</time>
      </trkpt>
      <trkpt lat="46.1533" lon="6.63372">
        <ele>1581</ele>
        <time>2022-07-31T10:40:04Z</time>
      </trkpt>
      <trkpt lat="46.1533" lon="6.63372">
        <ele>1581</ele>
        <time>2022-07-31T10:40:05Z</time>
      </trkpt>
      <trkpt lat="46.1533" lon="6.63372">
        <ele>1581</ele>
        <time>2022-07-31T10:40:06Z</time>
      </trkpt>
      <trkpt lat="46.1533" lon="6.63372">
        <ele>1581</ele>
        <time>2022-07-31T10:40:07Z</time>
      </trkpt>
      <trkpt lat="46.1533" lon="6.63372">
        <ele>1581</ele>
        <time>2022-07-31T10:40:08Z</time>
      </trkpt>
      <trkpt lat="46.1533" lon="6.63372">
        <ele>1581</ele>
        <time>2022-07-31T10:40:09Z</time>
      </trkpt>
      <trkpt lat="46.1533" lon="6.63372">
        <ele>1581</ele>
        <time>2022-07-31T10:40:10Z</time>
      </trkpt>
      <trkpt lat="46.1533" lon="6.63372">
        <ele>1581</ele>
        <time>2022-07-31T10:40:11Z</time>
      </trkpt>
      <trkpt lat="46.1533" lon="6.63372">
        <ele>1581</ele>
        <time>2022-07-31T10:40:12Z</time>
      </trkpt>
      <trkpt lat="46.1533" lon="6.63372">
        <ele>1580</ele>
        <time>2022-07-31T10:40:13Z</time>
      </trkpt>
      <trkpt lat="46.1533" lon="6.63372">
        <ele>1580</ele>
        <time>2022-07-31T10:40:14Z</time>
      </trkpt>
      <trkpt lat="46.1533" lon="6.63372">
        <ele>1580</ele>
        <time>2022-07-31T10:40:15Z</time>
      </trkpt>
      <trkpt lat="46.1533" lon="6.63372">
        <ele>1580</ele>
        <time>2022-07-31T10:40:16Z</time>
      </trkpt>
      <trkpt lat="46.1533" lon="6.63372">
        <ele>1580</ele>
        <time>2022-07-31T10:40:17Z</time>
      </trkpt>
      <trkpt lat="46.1533" lon="6.63372">
        <ele>1580</ele>
        <time>2022-07-31T10:40:18Z</time>
      </trkpt>
      <trkpt lat="46.1533" lon="6.63372">
        <ele>1580</ele>
        <time>2022-07-31T10:40:19Z</time>
      </trkpt>
      <trkpt lat="46.1533" lon="6.63372">
        <ele>1580</ele>
        <time>2022-07-31T10:40:20Z</time>
      </trkpt>
      <trkpt lat="46.1533" lon="6.63372">
        <ele>1580</ele>
        <time>2022-07-31T10:40:21Z</time>
      </trkpt>
      <trkpt lat="46.1533" lon="6.63372">
        <ele>1580</ele>
        <time>2022-07-31T10:40:22Z</time>
      </trkpt>
      <trkpt lat="46.1533" lon="6.63372">
        <ele>1580</ele>
        <time>2022-07-31T10:40:23Z</time>
      </trkpt>
      <trkpt lat="46.1533" lon="6.63372">
        <ele>1580</ele>
        <time>2022-07-31T10:40:24Z</time>
      </trkpt>
      <trkpt lat="46.1533" lon="6.63372">
        <ele>1580</ele>
        <time>2022-07-31T10:40:25Z</time>
      </trkpt>
      <trkpt lat="46.1533" lon="6.63372">
        <ele>1580</ele>
        <time>2022-07-31T10:40:26Z</time>
      </trkpt>
      <trkpt lat="46.1533" lon="6.63372">
        <ele>1580</ele>
        <time>2022-07-31T10:40:27Z</time>
      </trkpt>
      <trkpt lat="46.1533" lon="6.63372">
        <ele>1580</ele>
        <time>2022-07-31T10:40:28Z</time>
      </trkpt>
      <trkpt lat="46.1533" lon="6.63372">
        <ele>1580</ele>
        <time>2022-07-31T10:40:29Z</time>
      </trkpt>
      <trkpt lat="46.1533" lon="6.63372">
        <ele>1580</ele>
        <time>2022-07-31T10:40:30Z</time>
      </trkpt>
      <trkpt lat="46.1533" lon="6.63372">
        <ele>1580</ele>
        <time>2022-07-31T10:40:31Z</time>
      </trkpt>
      <trkpt lat="46.1533" lon="6.63372">
        <ele>1580</ele>
        <time>2022-07-31T10:40:32Z</time>
      </trkpt>
      <trkpt lat="46.1533" lon="6.63372">
        <ele>1580</ele>
        <time>2022-07-31T10:40:33Z</time>
      </trkpt>
      <trkpt lat="46.1533" lon="6.63372">
        <ele>1580</ele>
        <time>2022-07-31T10:40:34Z</time>
      </trkpt>
      <trkpt lat="46.1533" lon="6.63372">
        <ele>1580</ele>
        <time>2022-07-31T10:40:35Z</time>
      </trkpt>
      <trkpt lat="46.1533" lon="6.63372">
        <ele>1580</ele>
        <time>2022-07-31T10:40:36Z</time>
      </trkpt>
      <trkpt lat="46.1533" lon="6.63372">
        <ele>1580</ele>
        <time>2022-07-31T10:40:37Z</time>
      </trkpt>
      <trkpt lat="46.1533" lon="6.63372">
        <ele>1580</ele>
        <time>2022-07-31T10:40:38Z</time>
      </trkpt>
      <trkpt lat="46.1533" lon="6.63372">
        <ele>1580</ele>
        <time>2022-07-31T10:40:39Z</time>
      </trkpt>
      <trkpt lat="46.1533" lon="6.63372">
        <ele>1580</ele>
        <time>2022-07-31T10:40:40Z</time>
      </trkpt>
      <trkpt lat="46.1533" lon="6.63371">
        <ele>1580</ele>
        <time>2022-07-31T10:40:41Z</time>
      </trkpt>
      <trkpt lat="46.15329" lon="6.6337">
        <ele>1580</ele>
        <time>2022-07-31T10:40:42Z</time>
      </trkpt>
      <trkpt lat="46.15329" lon="6.63368">
        <ele>1580</ele>
        <time>2022-07-31T10:40:43Z</time>
      </trkpt>
      <trkpt lat="46.15328" lon="6.63367">
        <ele>1580</ele>
        <time>2022-07-31T10:40:44Z</time>
      </trkpt>
      <trkpt lat="46.15327" lon="6.63365">
        <ele>1580</ele>
        <time>2022-07-31T10:40:45Z</time>
      </trkpt>
      <trkpt lat="46.15327" lon="6.63364">
        <ele>1580</ele>
        <time>2022-07-31T10:40:46Z</time>
      </trkpt>
      <trkpt lat="46.15326" lon="6.63363">
        <ele>1580</ele>
        <time>2022-07-31T10:40:47Z</time>
      </trkpt>
      <trkpt lat="46.15326" lon="6.63362">
        <ele>1580</ele>
        <time>2022-07-31T10:40:48Z</time>
      </trkpt>
      <trkpt lat="46.15326" lon="6.63361">
        <ele>1580</ele>
        <time>2022-07-31T10:40:49Z</time>
      </trkpt>
      <trkpt lat="46.15327" lon="6.63359">
        <ele>1580</ele>
        <time>2022-07-31T10:40:50Z</time>
      </trkpt>
      <trkpt lat="46.15326" lon="6.63357">
        <ele>1580</ele>
        <time>2022-07-31T10:40:51Z</time>
      </trkpt>
      <trkpt lat="46.15326" lon="6.63356">
        <ele>1580</ele>
        <time>2022-07-31T10:40:52Z</time>
      </trkpt>
      <trkpt lat="46.15325" lon="6.63354">
        <ele>1580</ele>
        <time>2022-07-31T10:40:53Z</time>
      </trkpt>
      <trkpt lat="46.15325" lon="6.63353">
        <ele>1580</ele>
        <time>2022-07-31T10:40:54Z</time>
      </trkpt>
      <trkpt lat="46.15325" lon="6.63352">
        <ele>1580</ele>
        <time>2022-07-31T10:40:55Z</time>
      </trkpt>
      <trkpt lat="46.15324" lon="6.6335">
        <ele>1580</ele>
        <time>2022-07-31T10:40:56Z</time>
      </trkpt>
      <trkpt lat="46.15324" lon="6.63347">
        <ele>1580</ele>
        <time>2022-07-31T10:40:57Z</time>
      </trkpt>
      <trkpt lat="46.15324" lon="6.63346">
        <ele>1580</ele>
        <time>2022-07-31T10:40:58Z</time>
      </trkpt>
      <trkpt lat="46.15324" lon="6.63344">
        <ele>1580</ele>
        <time>2022-07-31T10:40:59Z</time>
      </trkpt>
      <trkpt lat="46.15324" lon="6.63342">
        <ele>1580</ele>
        <time>2022-07-31T10:41:00Z</time>
      </trkpt>
      <trkpt lat="46.15324" lon="6.6334">
        <ele>1580</ele>
        <time>2022-07-31T10:41:01Z</time>
      </trkpt>
      <trkpt lat="46.15324" lon="6.63339">
        <ele>1580</ele>
        <time>2022-07-31T10:41:02Z</time>
      </trkpt>
      <trkpt lat="46.15324" lon="6.63337">
        <ele>1580</ele>
        <time>2022-07-31T10:41:03Z</time>
      </trkpt>
      <trkpt lat="46.15325" lon="6.63335">
        <ele>1580</ele>
        <time>2022-07-31T10:41:04Z</time>
      </trkpt>
      <trkpt lat="46.15325" lon="6.63333">
        <ele>1580</ele>
        <time>2022-07-31T10:41:05Z</time>
      </trkpt>
      <trkpt lat="46.15325" lon="6.63332">
        <ele>1580</ele>
        <time>2022-07-31T10:41:06Z</time>
      </trkpt>
      <trkpt lat="46.15325" lon="6.6333">
        <ele>1580</ele>
        <time>2022-07-31T10:41:07Z</time>
      </trkpt>
      <trkpt lat="46.15326" lon="6.63329">
        <ele>1580</ele>
        <time>2022-07-31T10:41:08Z</time>
      </trkpt>
      <trkpt lat="46.15326" lon="6.63328">
        <ele>1580</ele>
        <time>2022-07-31T10:41:09Z</time>
      </trkpt>
      <trkpt lat="46.15326" lon="6.63326">
        <ele>1580</ele>
        <time>2022-07-31T10:41:10Z</time>
      </trkpt>
      <trkpt lat="46.15326" lon="6.63325">
        <ele>1580</ele>
        <time>2022-07-31T10:41:11Z</time>
      </trkpt>
      <trkpt lat="46.15327" lon="6.63323">
        <ele>1580</ele>
        <time>2022-07-31T10:41:12Z</time>
      </trkpt>
      <trkpt lat="46.15329" lon="6.63321">
        <ele>1580</ele>
        <time>2022-07-31T10:41:13Z</time>
      </trkpt>
      <trkpt lat="46.15329" lon="6.6332">
        <ele>1579</ele>
        <time>2022-07-31T10:41:14Z</time>
      </trkpt>
      <trkpt lat="46.1533" lon="6.63319">
        <ele>1579</ele>
        <time>2022-07-31T10:41:15Z</time>
      </trkpt>
      <trkpt lat="46.15331" lon="6.63317">
        <ele>1579</ele>
        <time>2022-07-31T10:41:16Z</time>
      </trkpt>
      <trkpt lat="46.15331" lon="6.63316">
        <ele>1579</ele>
        <time>2022-07-31T10:41:17Z</time>
      </trkpt>
      <trkpt lat="46.15332" lon="6.63315">
        <ele>1579</ele>
        <time>2022-07-31T10:41:18Z</time>
      </trkpt>
      <trkpt lat="46.15333" lon="6.63314">
        <ele>1579</ele>
        <time>2022-07-31T10:41:19Z</time>
      </trkpt>
      <trkpt lat="46.15334" lon="6.63313">
        <ele>1578</ele>
        <time>2022-07-31T10:41:20Z</time>
      </trkpt>
      <trkpt lat="46.15335" lon="6.63312">
        <ele>1578</ele>
        <time>2022-07-31T10:41:21Z</time>
      </trkpt>
      <trkpt lat="46.15336" lon="6.63311">
        <ele>1578</ele>
        <time>2022-07-31T10:41:22Z</time>
      </trkpt>
      <trkpt lat="46.15337" lon="6.63309">
        <ele>1578</ele>
        <time>2022-07-31T10:41:23Z</time>
      </trkpt>
      <trkpt lat="46.15338" lon="6.63307">
        <ele>1577</ele>
        <time>2022-07-31T10:41:24Z</time>
      </trkpt>
      <trkpt lat="46.15337" lon="6.63306">
        <ele>1577</ele>
        <time>2022-07-31T10:41:25Z</time>
      </trkpt>
      <trkpt lat="46.15335" lon="6.63305">
        <ele>1577</ele>
        <time>2022-07-31T10:41:26Z</time>
      </trkpt>
      <trkpt lat="46.15334" lon="6.63304">
        <ele>1577</ele>
        <time>2022-07-31T10:41:27Z</time>
      </trkpt>
      <trkpt lat="46.15333" lon="6.63303">
        <ele>1576</ele>
        <time>2022-07-31T10:41:28Z</time>
      </trkpt>
      <trkpt lat="46.15331" lon="6.63301">
        <ele>1576</ele>
        <time>2022-07-31T10:41:29Z</time>
      </trkpt>
      <trkpt lat="46.1533" lon="6.63299">
        <ele>1576</ele>
        <time>2022-07-31T10:41:30Z</time>
      </trkpt>
      <trkpt lat="46.15329" lon="6.63297">
        <ele>1576</ele>
        <time>2022-07-31T10:41:31Z</time>
      </trkpt>
      <trkpt lat="46.15327" lon="6.63295">
        <ele>1576</ele>
        <time>2022-07-31T10:41:32Z</time>
      </trkpt>
      <trkpt lat="46.15327" lon="6.63294">
        <ele>1576</ele>
        <time>2022-07-31T10:41:33Z</time>
      </trkpt>
      <trkpt lat="46.15326" lon="6.63292">
        <ele>1575</ele>
        <time>2022-07-31T10:41:34Z</time>
      </trkpt>
      <trkpt lat="46.15325" lon="6.63291">
        <ele>1575</ele>
        <time>2022-07-31T10:41:35Z</time>
      </trkpt>
      <trkpt lat="46.15324" lon="6.63289">
        <ele>1575</ele>
        <time>2022-07-31T10:41:36Z</time>
      </trkpt>
      <trkpt lat="46.15324" lon="6.63287">
        <ele>1575</ele>
        <time>2022-07-31T10:41:37Z</time>
      </trkpt>
      <trkpt lat="46.15323" lon="6.63285">
        <ele>1575</ele>
        <time>2022-07-31T10:41:38Z</time>
      </trkpt>
      <trkpt lat="46.15323" lon="6.63284">
        <ele>1575</ele>
        <time>2022-07-31T10:41:39Z</time>
      </trkpt>
      <trkpt lat="46.15323" lon="6.63283">
        <ele>1574</ele>
        <time>2022-07-31T10:41:40Z</time>
      </trkpt>
      <trkpt lat="46.15324" lon="6.63282">
        <ele>1574</ele>
        <time>2022-07-31T10:41:41Z</time>
      </trkpt>
      <trkpt lat="46.15324" lon="6.63281">
        <ele>1574</ele>
        <time>2022-07-31T10:41:42Z</time>
      </trkpt>
      <trkpt lat="46.15324" lon="6.63279">
        <ele>1574</ele>
        <time>2022-07-31T10:41:43Z</time>
      </trkpt>
      <trkpt lat="46.15323" lon="6.63277">
        <ele>1574</ele>
        <time>2022-07-31T10:41:44Z</time>
      </trkpt>
      <trkpt lat="46.15323" lon="6.63275">
        <ele>1574</ele>
        <time>2022-07-31T10:41:45Z</time>
      </trkpt>
      <trkpt lat="46.15322" lon="6.63273">
        <ele>1574</ele>
        <time>2022-07-31T10:41:46Z</time>
      </trkpt>
      <trkpt lat="46.15322" lon="6.63272">
        <ele>1574</ele>
        <time>2022-07-31T10:41:47Z</time>
      </trkpt>
      <trkpt lat="46.15322" lon="6.6327">
        <ele>1574</ele>
        <time>2022-07-31T10:41:48Z</time>
      </trkpt>
      <trkpt lat="46.15322" lon="6.63269">
        <ele>1574</ele>
        <time>2022-07-31T10:41:49Z</time>
      </trkpt>
      <trkpt lat="46.15322" lon="6.63269">
        <ele>1574</ele>
        <time>2022-07-31T10:41:50Z</time>
      </trkpt>
      <trkpt lat="46.15321" lon="6.63267">
        <ele>1574</ele>
        <time>2022-07-31T10:41:51Z</time>
      </trkpt>
      <trkpt lat="46.1532" lon="6.63266">
        <ele>1574</ele>
        <time>2022-07-31T10:41:52Z</time>
      </trkpt>
      <trkpt lat="46.1532" lon="6.63264">
        <ele>1574</ele>
        <time>2022-07-31T10:41:53Z</time>
      </trkpt>
      <trkpt lat="46.15319" lon="6.63263">
        <ele>1574</ele>
        <time>2022-07-31T10:41:54Z</time>
      </trkpt>
      <trkpt lat="46.15319" lon="6.63262">
        <ele>1574</ele>
        <time>2022-07-31T10:41:55Z</time>
      </trkpt>
      <trkpt lat="46.15318" lon="6.6326">
        <ele>1574</ele>
        <time>2022-07-31T10:41:56Z</time>
      </trkpt>
      <trkpt lat="46.15318" lon="6.63257">
        <ele>1574</ele>
        <time>2022-07-31T10:41:57Z</time>
      </trkpt>
      <trkpt lat="46.15318" lon="6.63256">
        <ele>1574</ele>
        <time>2022-07-31T10:41:58Z</time>
      </trkpt>
      <trkpt lat="46.15317" lon="6.63254">
        <ele>1574</ele>
        <time>2022-07-31T10:41:59Z</time>
      </trkpt>
      <trkpt lat="46.15317" lon="6.63253">
        <ele>1574</ele>
        <time>2022-07-31T10:42:00Z</time>
      </trkpt>
      <trkpt lat="46.15316" lon="6.63252">
        <ele>1574</ele>
        <time>2022-07-31T10:42:01Z</time>
      </trkpt>
      <trkpt lat="46.15315" lon="6.6325">
        <ele>1574</ele>
        <time>2022-07-31T10:42:02Z</time>
      </trkpt>
      <trkpt lat="46.15315" lon="6.63249">
        <ele>1574</ele>
        <time>2022-07-31T10:42:03Z</time>
      </trkpt>
      <trkpt lat="46.15315" lon="6.63248">
        <ele>1574</ele>
        <time>2022-07-31T10:42:04Z</time>
      </trkpt>
      <trkpt lat="46.15314" lon="6.63246">
        <ele>1574</ele>
        <time>2022-07-31T10:42:05Z</time>
      </trkpt>
      <trkpt lat="46.15314" lon="6.63246">
        <ele>1574</ele>
        <time>2022-07-31T10:42:06Z</time>
      </trkpt>
      <trkpt lat="46.15313" lon="6.63245">
        <ele>1573</ele>
        <time>2022-07-31T10:42:07Z</time>
      </trkpt>
      <trkpt lat="46.15313" lon="6.63244">
        <ele>1573</ele>
        <time>2022-07-31T10:42:08Z</time>
      </trkpt>
      <trkpt lat="46.15312" lon="6.63242">
        <ele>1573</ele>
        <time>2022-07-31T10:42:09Z</time>
      </trkpt>
      <trkpt lat="46.15312" lon="6.6324">
        <ele>1573</ele>
        <time>2022-07-31T10:42:10Z</time>
      </trkpt>
      <trkpt lat="46.15311" lon="6.63238">
        <ele>1573</ele>
        <time>2022-07-31T10:42:11Z</time>
      </trkpt>
      <trkpt lat="46.1531" lon="6.63237">
        <ele>1573</ele>
        <time>2022-07-31T10:42:12Z</time>
      </trkpt>
      <trkpt lat="46.1531" lon="6.63237">
        <ele>1573</ele>
        <time>2022-07-31T10:42:13Z</time>
      </trkpt>
      <trkpt lat="46.15309" lon="6.63237">
        <ele>1572</ele>
        <time>2022-07-31T10:42:14Z</time>
      </trkpt>
      <trkpt lat="46.15308" lon="6.63236">
        <ele>1572</ele>
        <time>2022-07-31T10:42:15Z</time>
      </trkpt>
      <trkpt lat="46.15307" lon="6.63235">
        <ele>1572</ele>
        <time>2022-07-31T10:42:16Z</time>
      </trkpt>
      <trkpt lat="46.15307" lon="6.63234">
        <ele>1572</ele>
        <time>2022-07-31T10:42:17Z</time>
      </trkpt>
      <trkpt lat="46.15306" lon="6.63233">
        <ele>1572</ele>
        <time>2022-07-31T10:42:18Z</time>
      </trkpt>
      <trkpt lat="46.15306" lon="6.63232">
        <ele>1571</ele>
        <time>2022-07-31T10:42:19Z</time>
      </trkpt>
      <trkpt lat="46.15305" lon="6.63231">
        <ele>1571</ele>
        <time>2022-07-31T10:42:20Z</time>
      </trkpt>
      <trkpt lat="46.15305" lon="6.6323">
        <ele>1571</ele>
        <time>2022-07-31T10:42:21Z</time>
      </trkpt>
      <trkpt lat="46.15305" lon="6.63229">
        <ele>1571</ele>
        <time>2022-07-31T10:42:22Z</time>
      </trkpt>
      <trkpt lat="46.15305" lon="6.63228">
        <ele>1570</ele>
        <time>2022-07-31T10:42:23Z</time>
      </trkpt>
      <trkpt lat="46.15304" lon="6.63226">
        <ele>1570</ele>
        <time>2022-07-31T10:42:24Z</time>
      </trkpt>
      <trkpt lat="46.15304" lon="6.63225">
        <ele>1570</ele>
        <time>2022-07-31T10:42:25Z</time>
      </trkpt>
      <trkpt lat="46.15304" lon="6.63225">
        <ele>1569</ele>
        <time>2022-07-31T10:42:26Z</time>
      </trkpt>
      <trkpt lat="46.15303" lon="6.63223">
        <ele>1569</ele>
        <time>2022-07-31T10:42:27Z</time>
      </trkpt>
      <trkpt lat="46.15303" lon="6.63222">
        <ele>1569</ele>
        <time>2022-07-31T10:42:28Z</time>
      </trkpt>
      <trkpt lat="46.15303" lon="6.63219">
        <ele>1568</ele>
        <time>2022-07-31T10:42:29Z</time>
      </trkpt>
      <trkpt lat="46.15303" lon="6.63218">
        <ele>1568</ele>
        <time>2022-07-31T10:42:30Z</time>
      </trkpt>
      <trkpt lat="46.15303" lon="6.63216">
        <ele>1568</ele>
        <time>2022-07-31T10:42:31Z</time>
      </trkpt>
      <trkpt lat="46.15303" lon="6.63215">
        <ele>1567</ele>
        <time>2022-07-31T10:42:32Z</time>
      </trkpt>
      <trkpt lat="46.15303" lon="6.63214">
        <ele>1567</ele>
        <time>2022-07-31T10:42:33Z</time>
      </trkpt>
      <trkpt lat="46.15303" lon="6.63213">
        <ele>1567</ele>
        <time>2022-07-31T10:42:34Z</time>
      </trkpt>
      <trkpt lat="46.15303" lon="6.63211">
        <ele>1566</ele>
        <time>2022-07-31T10:42:35Z</time>
      </trkpt>
      <trkpt lat="46.15302" lon="6.6321">
        <ele>1566</ele>
        <time>2022-07-31T10:42:36Z</time>
      </trkpt>
      <trkpt lat="46.15302" lon="6.63208">
        <ele>1566</ele>
        <time>2022-07-31T10:42:37Z</time>
      </trkpt>
      <trkpt lat="46.15301" lon="6.63207">
        <ele>1565</ele>
        <time>2022-07-31T10:42:38Z</time>
      </trkpt>
      <trkpt lat="46.153" lon="6.63206">
        <ele>1565</ele>
        <time>2022-07-31T10:42:39Z</time>
      </trkpt>
      <trkpt lat="46.15299" lon="6.63205">
        <ele>1565</ele>
        <time>2022-07-31T10:42:40Z</time>
      </trkpt>
      <trkpt lat="46.15299" lon="6.63204">
        <ele>1565</ele>
        <time>2022-07-31T10:42:41Z</time>
      </trkpt>
      <trkpt lat="46.15299" lon="6.63203">
        <ele>1564</ele>
        <time>2022-07-31T10:42:42Z</time>
      </trkpt>
      <trkpt lat="46.15299" lon="6.63202">
        <ele>1564</ele>
        <time>2022-07-31T10:42:43Z</time>
      </trkpt>
      <trkpt lat="46.15298" lon="6.632">
        <ele>1564</ele>
        <time>2022-07-31T10:42:44Z</time>
      </trkpt>
      <trkpt lat="46.15298" lon="6.63199">
        <ele>1564</ele>
        <time>2022-07-31T10:42:45Z</time>
      </trkpt>
      <trkpt lat="46.15298" lon="6.63198">
        <ele>1564</ele>
        <time>2022-07-31T10:42:46Z</time>
      </trkpt>
      <trkpt lat="46.15297" lon="6.63196">
        <ele>1563</ele>
        <time>2022-07-31T10:42:47Z</time>
      </trkpt>
      <trkpt lat="46.15297" lon="6.63194">
        <ele>1563</ele>
        <time>2022-07-31T10:42:48Z</time>
      </trkpt>
      <trkpt lat="46.15297" lon="6.63192">
        <ele>1563</ele>
        <time>2022-07-31T10:42:49Z</time>
      </trkpt>
      <trkpt lat="46.15297" lon="6.63191">
        <ele>1563</ele>
        <time>2022-07-31T10:42:50Z</time>
      </trkpt>
      <trkpt lat="46.15297" lon="6.6319">
        <ele>1563</ele>
        <time>2022-07-31T10:42:51Z</time>
      </trkpt>
      <trkpt lat="46.15296" lon="6.63189">
        <ele>1563</ele>
        <time>2022-07-31T10:42:52Z</time>
      </trkpt>
      <trkpt lat="46.15296" lon="6.63188">
        <ele>1563</ele>
        <time>2022-07-31T10:42:53Z</time>
      </trkpt>
      <trkpt lat="46.15297" lon="6.63187">
        <ele>1562</ele>
        <time>2022-07-31T10:42:54Z</time>
      </trkpt>
      <trkpt lat="46.15296" lon="6.63186">
        <ele>1562</ele>
        <time>2022-07-31T10:42:55Z</time>
      </trkpt>
      <trkpt lat="46.15297" lon="6.63185">
        <ele>1562</ele>
        <time>2022-07-31T10:42:56Z</time>
      </trkpt>
      <trkpt lat="46.15296" lon="6.63184">
        <ele>1562</ele>
        <time>2022-07-31T10:42:57Z</time>
      </trkpt>
      <trkpt lat="46.15295" lon="6.63182">
        <ele>1561</ele>
        <time>2022-07-31T10:42:58Z</time>
      </trkpt>
      <trkpt lat="46.15295" lon="6.63181">
        <ele>1561</ele>
        <time>2022-07-31T10:42:59Z</time>
      </trkpt>
      <trkpt lat="46.15296" lon="6.63181">
        <ele>1561</ele>
        <time>2022-07-31T10:43:00Z</time>
      </trkpt>
      <trkpt lat="46.15296" lon="6.6318">
        <ele>1560</ele>
        <time>2022-07-31T10:43:01Z</time>
      </trkpt>
      <trkpt lat="46.15296" lon="6.63178">
        <ele>1560</ele>
        <time>2022-07-31T10:43:02Z</time>
      </trkpt>
      <trkpt lat="46.15295" lon="6.63175">
        <ele>1560</ele>
        <time>2022-07-31T10:43:03Z</time>
      </trkpt>
      <trkpt lat="46.15295" lon="6.63173">
        <ele>1560</ele>
        <time>2022-07-31T10:43:04Z</time>
      </trkpt>
      <trkpt lat="46.15294" lon="6.63171">
        <ele>1559</ele>
        <time>2022-07-31T10:43:05Z</time>
      </trkpt>
      <trkpt lat="46.15293" lon="6.6317">
        <ele>1559</ele>
        <time>2022-07-31T10:43:06Z</time>
      </trkpt>
      <trkpt lat="46.15292" lon="6.63168">
        <ele>1559</ele>
        <time>2022-07-31T10:43:07Z</time>
      </trkpt>
      <trkpt lat="46.1529" lon="6.63166">
        <ele>1558</ele>
        <time>2022-07-31T10:43:08Z</time>
      </trkpt>
      <trkpt lat="46.1529" lon="6.63165">
        <ele>1558</ele>
        <time>2022-07-31T10:43:09Z</time>
      </trkpt>
      <trkpt lat="46.15289" lon="6.63164">
        <ele>1558</ele>
        <time>2022-07-31T10:43:10Z</time>
      </trkpt>
      <trkpt lat="46.15289" lon="6.63163">
        <ele>1558</ele>
        <time>2022-07-31T10:43:11Z</time>
      </trkpt>
      <trkpt lat="46.15288" lon="6.63161">
        <ele>1557</ele>
        <time>2022-07-31T10:43:12Z</time>
      </trkpt>
      <trkpt lat="46.15287" lon="6.63159">
        <ele>1557</ele>
        <time>2022-07-31T10:43:13Z</time>
      </trkpt>
      <trkpt lat="46.15286" lon="6.63157">
        <ele>1557</ele>
        <time>2022-07-31T10:43:14Z</time>
      </trkpt>
      <trkpt lat="46.15286" lon="6.63155">
        <ele>1557</ele>
        <time>2022-07-31T10:43:15Z</time>
      </trkpt>
      <trkpt lat="46.15286" lon="6.63153">
        <ele>1556</ele>
        <time>2022-07-31T10:43:16Z</time>
      </trkpt>
      <trkpt lat="46.15285" lon="6.63151">
        <ele>1556</ele>
        <time>2022-07-31T10:43:17Z</time>
      </trkpt>
      <trkpt lat="46.15285" lon="6.6315">
        <ele>1555</ele>
        <time>2022-07-31T10:43:18Z</time>
      </trkpt>
      <trkpt lat="46.15283" lon="6.6315">
        <ele>1555</ele>
        <time>2022-07-31T10:43:19Z</time>
      </trkpt>
      <trkpt lat="46.15281" lon="6.6315">
        <ele>1554</ele>
        <time>2022-07-31T10:43:20Z</time>
      </trkpt>
      <trkpt lat="46.1528" lon="6.6315">
        <ele>1554</ele>
        <time>2022-07-31T10:43:21Z</time>
      </trkpt>
      <trkpt lat="46.15278" lon="6.63149">
        <ele>1554</ele>
        <time>2022-07-31T10:43:22Z</time>
      </trkpt>
      <trkpt lat="46.15276" lon="6.63149">
        <ele>1553</ele>
        <time>2022-07-31T10:43:23Z</time>
      </trkpt>
      <trkpt lat="46.15274" lon="6.63149">
        <ele>1553</ele>
        <time>2022-07-31T10:43:24Z</time>
      </trkpt>
      <trkpt lat="46.15273" lon="6.6315">
        <ele>1553</ele>
        <time>2022-07-31T10:43:25Z</time>
      </trkpt>
      <trkpt lat="46.15272" lon="6.63151">
        <ele>1553</ele>
        <time>2022-07-31T10:43:26Z</time>
      </trkpt>
      <trkpt lat="46.1527" lon="6.63151">
        <ele>1553</ele>
        <time>2022-07-31T10:43:27Z</time>
      </trkpt>
      <trkpt lat="46.15269" lon="6.63152">
        <ele>1552</ele>
        <time>2022-07-31T10:43:28Z</time>
      </trkpt>
      <trkpt lat="46.15268" lon="6.63152">
        <ele>1552</ele>
        <time>2022-07-31T10:43:29Z</time>
      </trkpt>
      <trkpt lat="46.15266" lon="6.63153">
        <ele>1552</ele>
        <time>2022-07-31T10:43:30Z</time>
      </trkpt>
      <trkpt lat="46.15266" lon="6.63153">
        <ele>1552</ele>
        <time>2022-07-31T10:43:31Z</time>
      </trkpt>
      <trkpt lat="46.15265" lon="6.63154">
        <ele>1552</ele>
        <time>2022-07-31T10:43:32Z</time>
      </trkpt>
      <trkpt lat="46.15264" lon="6.63155">
        <ele>1552</ele>
        <time>2022-07-31T10:43:33Z</time>
      </trkpt>
      <trkpt lat="46.15264" lon="6.63155">
        <ele>1551</ele>
        <time>2022-07-31T10:43:34Z</time>
      </trkpt>
      <trkpt lat="46.15263" lon="6.63154">
        <ele>1551</ele>
        <time>2022-07-31T10:43:35Z</time>
      </trkpt>
      <trkpt lat="46.15261" lon="6.63154">
        <ele>1551</ele>
        <time>2022-07-31T10:43:36Z</time>
      </trkpt>
      <trkpt lat="46.15261" lon="6.63154">
        <ele>1551</ele>
        <time>2022-07-31T10:43:37Z</time>
      </trkpt>
      <trkpt lat="46.1526" lon="6.63153">
        <ele>1551</ele>
        <time>2022-07-31T10:43:38Z</time>
      </trkpt>
      <trkpt lat="46.15259" lon="6.63153">
        <ele>1550</ele>
        <time>2022-07-31T10:43:39Z</time>
      </trkpt>
      <trkpt lat="46.15259" lon="6.63154">
        <ele>1550</ele>
        <time>2022-07-31T10:43:40Z</time>
      </trkpt>
      <trkpt lat="46.15258" lon="6.63154">
        <ele>1550</ele>
        <time>2022-07-31T10:43:41Z</time>
      </trkpt>
      <trkpt lat="46.15258" lon="6.63154">
        <ele>1550</ele>
        <time>2022-07-31T10:43:42Z</time>
      </trkpt>
      <trkpt lat="46.15257" lon="6.63154">
        <ele>1550</ele>
        <time>2022-07-31T10:43:43Z</time>
      </trkpt>
      <trkpt lat="46.15256" lon="6.63153">
        <ele>1550</ele>
        <time>2022-07-31T10:43:44Z</time>
      </trkpt>
      <trkpt lat="46.15256" lon="6.63153">
        <ele>1549</ele>
        <time>2022-07-31T10:43:45Z</time>
      </trkpt>
      <trkpt lat="46.15256" lon="6.63153">
        <ele>1549</ele>
        <time>2022-07-31T10:43:46Z</time>
      </trkpt>
      <trkpt lat="46.15256" lon="6.63153">
        <ele>1549</ele>
        <time>2022-07-31T10:43:47Z</time>
      </trkpt>
      <trkpt lat="46.15256" lon="6.63153">
        <ele>1549</ele>
        <time>2022-07-31T10:43:48Z</time>
      </trkpt>
      <trkpt lat="46.15256" lon="6.63152">
        <ele>1549</ele>
        <time>2022-07-31T10:43:49Z</time>
      </trkpt>
      <trkpt lat="46.15256" lon="6.63152">
        <ele>1549</ele>
        <time>2022-07-31T10:43:50Z</time>
      </trkpt>
      <trkpt lat="46.15256" lon="6.63152">
        <ele>1549</ele>
        <time>2022-07-31T10:43:51Z</time>
      </trkpt>
      <trkpt lat="46.15256" lon="6.63152">
        <ele>1549</ele>
        <time>2022-07-31T10:43:52Z</time>
      </trkpt>
      <trkpt lat="46.15256" lon="6.63152">
        <ele>1549</ele>
        <time>2022-07-31T10:43:53Z</time>
      </trkpt>
      <trkpt lat="46.15256" lon="6.63152">
        <ele>1548</ele>
        <time>2022-07-31T10:43:54Z</time>
      </trkpt>
      <trkpt lat="46.15256" lon="6.63152">
        <ele>1548</ele>
        <time>2022-07-31T10:43:55Z</time>
      </trkpt>
      <trkpt lat="46.15256" lon="6.63151">
        <ele>1548</ele>
        <time>2022-07-31T10:43:56Z</time>
      </trkpt>
      <trkpt lat="46.15256" lon="6.63151">
        <ele>1548</ele>
        <time>2022-07-31T10:43:57Z</time>
      </trkpt>
      <trkpt lat="46.15256" lon="6.63152">
        <ele>1548</ele>
        <time>2022-07-31T10:43:58Z</time>
      </trkpt>
      <trkpt lat="46.15256" lon="6.63151">
        <ele>1548</ele>
        <time>2022-07-31T10:43:59Z</time>
      </trkpt>
      <trkpt lat="46.15256" lon="6.63151">
        <ele>1548</ele>
        <time>2022-07-31T10:44:00Z</time>
      </trkpt>
      <trkpt lat="46.15256" lon="6.63151">
        <ele>1548</ele>
        <time>2022-07-31T10:44:01Z</time>
      </trkpt>
      <trkpt lat="46.15256" lon="6.63152">
        <ele>1548</ele>
        <time>2022-07-31T10:44:02Z</time>
      </trkpt>
      <trkpt lat="46.15256" lon="6.63152">
        <ele>1548</ele>
        <time>2022-07-31T10:44:03Z</time>
      </trkpt>
      <trkpt lat="46.15257" lon="6.63152">
        <ele>1548</ele>
        <time>2022-07-31T10:44:04Z</time>
      </trkpt>
      <trkpt lat="46.15257" lon="6.63152">
        <ele>1548</ele>
        <time>2022-07-31T10:44:05Z</time>
      </trkpt>
      <trkpt lat="46.15256" lon="6.63154">
        <ele>1548</ele>
        <time>2022-07-31T10:44:06Z</time>
      </trkpt>
      <trkpt lat="46.15255" lon="6.63156">
        <ele>1548</ele>
        <time>2022-07-31T10:44:07Z</time>
      </trkpt>
      <trkpt lat="46.15255" lon="6.63157">
        <ele>1548</ele>
        <time>2022-07-31T10:44:08Z</time>
      </trkpt>
      <trkpt lat="46.15255" lon="6.63159">
        <ele>1548</ele>
        <time>2022-07-31T10:44:09Z</time>
      </trkpt>
      <trkpt lat="46.15254" lon="6.63161">
        <ele>1548</ele>
        <time>2022-07-31T10:44:10Z</time>
      </trkpt>
      <trkpt lat="46.15253" lon="6.63164">
        <ele>1548</ele>
        <time>2022-07-31T10:44:11Z</time>
      </trkpt>
      <trkpt lat="46.15253" lon="6.63165">
        <ele>1548</ele>
        <time>2022-07-31T10:44:12Z</time>
      </trkpt>
      <trkpt lat="46.15252" lon="6.63167">
        <ele>1547</ele>
        <time>2022-07-31T10:44:13Z</time>
      </trkpt>
      <trkpt lat="46.15252" lon="6.63169">
        <ele>1547</ele>
        <time>2022-07-31T10:44:14Z</time>
      </trkpt>
      <trkpt lat="46.15252" lon="6.6317">
        <ele>1547</ele>
        <time>2022-07-31T10:44:15Z</time>
      </trkpt>
      <trkpt lat="46.15251" lon="6.63172">
        <ele>1547</ele>
        <time>2022-07-31T10:44:16Z</time>
      </trkpt>
      <trkpt lat="46.15251" lon="6.63173">
        <ele>1547</ele>
        <time>2022-07-31T10:44:17Z</time>
      </trkpt>
      <trkpt lat="46.1525" lon="6.63175">
        <ele>1547</ele>
        <time>2022-07-31T10:44:18Z</time>
      </trkpt>
      <trkpt lat="46.15249" lon="6.63176">
        <ele>1547</ele>
        <time>2022-07-31T10:44:19Z</time>
      </trkpt>
      <trkpt lat="46.15249" lon="6.63177">
        <ele>1547</ele>
        <time>2022-07-31T10:44:20Z</time>
      </trkpt>
      <trkpt lat="46.15249" lon="6.63178">
        <ele>1547</ele>
        <time>2022-07-31T10:44:21Z</time>
      </trkpt>
      <trkpt lat="46.15249" lon="6.63179">
        <ele>1547</ele>
        <time>2022-07-31T10:44:22Z</time>
      </trkpt>
      <trkpt lat="46.15249" lon="6.63181">
        <ele>1547</ele>
        <time>2022-07-31T10:44:23Z</time>
      </trkpt>
      <trkpt lat="46.15248" lon="6.63183">
        <ele>1547</ele>
        <time>2022-07-31T10:44:24Z</time>
      </trkpt>
      <trkpt lat="46.15248" lon="6.63184">
        <ele>1547</ele>
        <time>2022-07-31T10:44:25Z</time>
      </trkpt>
      <trkpt lat="46.15246" lon="6.63186">
        <ele>1547</ele>
        <time>2022-07-31T10:44:26Z</time>
      </trkpt>
      <trkpt lat="46.15246" lon="6.63187">
        <ele>1547</ele>
        <time>2022-07-31T10:44:27Z</time>
      </trkpt>
      <trkpt lat="46.15245" lon="6.63188">
        <ele>1547</ele>
        <time>2022-07-31T10:44:28Z</time>
      </trkpt>
      <trkpt lat="46.15245" lon="6.63189">
        <ele>1547</ele>
        <time>2022-07-31T10:44:29Z</time>
      </trkpt>
      <trkpt lat="46.15244" lon="6.63189">
        <ele>1547</ele>
        <time>2022-07-31T10:44:30Z</time>
      </trkpt>
      <trkpt lat="46.15244" lon="6.6319">
        <ele>1547</ele>
        <time>2022-07-31T10:44:31Z</time>
      </trkpt>
      <trkpt lat="46.15243" lon="6.6319">
        <ele>1547</ele>
        <time>2022-07-31T10:44:32Z</time>
      </trkpt>
      <trkpt lat="46.15242" lon="6.63191">
        <ele>1547</ele>
        <time>2022-07-31T10:44:33Z</time>
      </trkpt>
      <trkpt lat="46.15242" lon="6.63192">
        <ele>1547</ele>
        <time>2022-07-31T10:44:34Z</time>
      </trkpt>
      <trkpt lat="46.15241" lon="6.63193">
        <ele>1547</ele>
        <time>2022-07-31T10:44:35Z</time>
      </trkpt>
      <trkpt lat="46.15241" lon="6.63194">
        <ele>1546</ele>
        <time>2022-07-31T10:44:36Z</time>
      </trkpt>
      <trkpt lat="46.1524" lon="6.63196">
        <ele>1546</ele>
        <time>2022-07-31T10:44:37Z</time>
      </trkpt>
      <trkpt lat="46.1524" lon="6.63197">
        <ele>1546</ele>
        <time>2022-07-31T10:44:38Z</time>
      </trkpt>
      <trkpt lat="46.15239" lon="6.63199">
        <ele>1546</ele>
        <time>2022-07-31T10:44:39Z</time>
      </trkpt>
      <trkpt lat="46.15238" lon="6.632">
        <ele>1546</ele>
        <time>2022-07-31T10:44:40Z</time>
      </trkpt>
      <trkpt lat="46.15238" lon="6.632">
        <ele>1546</ele>
        <time>2022-07-31T10:44:41Z</time>
      </trkpt>
      <trkpt lat="46.15238" lon="6.63201">
        <ele>1546</ele>
        <time>2022-07-31T10:44:42Z</time>
      </trkpt>
      <trkpt lat="46.15238" lon="6.63201">
        <ele>1545</ele>
        <time>2022-07-31T10:44:43Z</time>
      </trkpt>
      <trkpt lat="46.15237" lon="6.63201">
        <ele>1545</ele>
        <time>2022-07-31T10:44:44Z</time>
      </trkpt>
      <trkpt lat="46.15237" lon="6.63201">
        <ele>1545</ele>
        <time>2022-07-31T10:44:45Z</time>
      </trkpt>
      <trkpt lat="46.15237" lon="6.63201">
        <ele>1545</ele>
        <time>2022-07-31T10:44:46Z</time>
      </trkpt>
      <trkpt lat="46.15237" lon="6.63201">
        <ele>1545</ele>
        <time>2022-07-31T10:44:47Z</time>
      </trkpt>
      <trkpt lat="46.15238" lon="6.63201">
        <ele>1545</ele>
        <time>2022-07-31T10:44:48Z</time>
      </trkpt>
      <trkpt lat="46.15238" lon="6.63201">
        <ele>1545</ele>
        <time>2022-07-31T10:44:49Z</time>
      </trkpt>
      <trkpt lat="46.15238" lon="6.63201">
        <ele>1544</ele>
        <time>2022-07-31T10:44:50Z</time>
      </trkpt>
      <trkpt lat="46.15238" lon="6.63201">
        <ele>1544</ele>
        <time>2022-07-31T10:44:51Z</time>
      </trkpt>
      <trkpt lat="46.15238" lon="6.63201">
        <ele>1544</ele>
        <time>2022-07-31T10:44:52Z</time>
      </trkpt>
      <trkpt lat="46.15239" lon="6.63201">
        <ele>1544</ele>
        <time>2022-07-31T10:44:53Z</time>
      </trkpt>
      <trkpt lat="46.1524" lon="6.63201">
        <ele>1544</ele>
        <time>2022-07-31T10:44:54Z</time>
      </trkpt>
      <trkpt lat="46.1524" lon="6.63201">
        <ele>1544</ele>
        <time>2022-07-31T10:44:55Z</time>
      </trkpt>
      <trkpt lat="46.1524" lon="6.63202">
        <ele>1544</ele>
        <time>2022-07-31T10:44:56Z</time>
      </trkpt>
      <trkpt lat="46.1524" lon="6.63201">
        <ele>1544</ele>
        <time>2022-07-31T10:44:57Z</time>
      </trkpt>
      <trkpt lat="46.1524" lon="6.63202">
        <ele>1544</ele>
        <time>2022-07-31T10:44:58Z</time>
      </trkpt>
      <trkpt lat="46.1524" lon="6.63202">
        <ele>1544</ele>
        <time>2022-07-31T10:44:59Z</time>
      </trkpt>
      <trkpt lat="46.1524" lon="6.63202">
        <ele>1544</ele>
        <time>2022-07-31T10:45:00Z</time>
      </trkpt>
      <trkpt lat="46.1524" lon="6.63202">
        <ele>1544</ele>
        <time>2022-07-31T10:45:01Z</time>
      </trkpt>
      <trkpt lat="46.1524" lon="6.63202">
        <ele>1544</ele>
        <time>2022-07-31T10:45:02Z</time>
      </trkpt>
      <trkpt lat="46.1524" lon="6.63202">
        <ele>1544</ele>
        <time>2022-07-31T10:45:03Z</time>
      </trkpt>
      <trkpt lat="46.1524" lon="6.63202">
        <ele>1544</ele>
        <time>2022-07-31T10:45:04Z</time>
      </trkpt>
      <trkpt lat="46.1524" lon="6.63202">
        <ele>1544</ele>
        <time>2022-07-31T10:45:05Z</time>
      </trkpt>
      <trkpt lat="46.1524" lon="6.63202">
        <ele>1544</ele>
        <time>2022-07-31T10:45:06Z</time>
      </trkpt>
      <trkpt lat="46.1524" lon="6.63202">
        <ele>1544</ele>
        <time>2022-07-31T10:45:07Z</time>
      </trkpt>
      <trkpt lat="46.1524" lon="6.63202">
        <ele>1543</ele>
        <time>2022-07-31T10:45:08Z</time>
      </trkpt>
      <trkpt lat="46.1524" lon="6.63202">
        <ele>1543</ele>
        <time>2022-07-31T10:45:09Z</time>
      </trkpt>
      <trkpt lat="46.1524" lon="6.63202">
        <ele>1543</ele>
        <time>2022-07-31T10:45:10Z</time>
      </trkpt>
      <trkpt lat="46.1524" lon="6.63202">
        <ele>1543</ele>
        <time>2022-07-31T10:45:11Z</time>
      </trkpt>
      <trkpt lat="46.1524" lon="6.63202">
        <ele>1543</ele>
        <time>2022-07-31T10:45:12Z</time>
      </trkpt>
      <trkpt lat="46.1524" lon="6.63202">
        <ele>1543</ele>
        <time>2022-07-31T10:45:13Z</time>
      </trkpt>
      <trkpt lat="46.1524" lon="6.63202">
        <ele>1543</ele>
        <time>2022-07-31T10:45:14Z</time>
      </trkpt>
      <trkpt lat="46.1524" lon="6.63202">
        <ele>1543</ele>
        <time>2022-07-31T10:45:15Z</time>
      </trkpt>
      <trkpt lat="46.1524" lon="6.63202">
        <ele>1543</ele>
        <time>2022-07-31T10:45:16Z</time>
      </trkpt>
      <trkpt lat="46.1524" lon="6.63202">
        <ele>1543</ele>
        <time>2022-07-31T10:45:17Z</time>
      </trkpt>
      <trkpt lat="46.1524" lon="6.63202">
        <ele>1543</ele>
        <time>2022-07-31T10:45:18Z</time>
      </trkpt>
      <trkpt lat="46.1524" lon="6.63203">
        <ele>1543</ele>
        <time>2022-07-31T10:45:19Z</time>
      </trkpt>
      <trkpt lat="46.1524" lon="6.63203">
        <ele>1543</ele>
        <time>2022-07-31T10:45:20Z</time>
      </trkpt>
      <trkpt lat="46.1524" lon="6.63203">
        <ele>1543</ele>
        <time>2022-07-31T10:45:21Z</time>
      </trkpt>
      <trkpt lat="46.1524" lon="6.63202">
        <ele>1543</ele>
        <time>2022-07-31T10:45:22Z</time>
      </trkpt>
      <trkpt lat="46.1524" lon="6.632">
        <ele>1543</ele>
        <time>2022-07-31T10:45:23Z</time>
      </trkpt>
      <trkpt lat="46.1524" lon="6.63199">
        <ele>1543</ele>
        <time>2022-07-31T10:45:24Z</time>
      </trkpt>
      <trkpt lat="46.15241" lon="6.63197">
        <ele>1543</ele>
        <time>2022-07-31T10:45:25Z</time>
      </trkpt>
      <trkpt lat="46.15242" lon="6.63196">
        <ele>1544</ele>
        <time>2022-07-31T10:45:26Z</time>
      </trkpt>
      <trkpt lat="46.15242" lon="6.63195">
        <ele>1544</ele>
        <time>2022-07-31T10:45:27Z</time>
      </trkpt>
      <trkpt lat="46.15243" lon="6.63195">
        <ele>1544</ele>
        <time>2022-07-31T10:45:28Z</time>
      </trkpt>
      <trkpt lat="46.15243" lon="6.63195">
        <ele>1544</ele>
        <time>2022-07-31T10:45:29Z</time>
      </trkpt>
      <trkpt lat="46.15243" lon="6.63196">
        <ele>1544</ele>
        <time>2022-07-31T10:45:30Z</time>
      </trkpt>
      <trkpt lat="46.15244" lon="6.63196">
        <ele>1544</ele>
        <time>2022-07-31T10:45:31Z</time>
      </trkpt>
      <trkpt lat="46.15244" lon="6.63197">
        <ele>1544</ele>
        <time>2022-07-31T10:45:32Z</time>
      </trkpt>
      <trkpt lat="46.15244" lon="6.63196">
        <ele>1544</ele>
        <time>2022-07-31T10:45:33Z</time>
      </trkpt>
      <trkpt lat="46.15244" lon="6.63196">
        <ele>1544</ele>
        <time>2022-07-31T10:45:34Z</time>
      </trkpt>
      <trkpt lat="46.15244" lon="6.63196">
        <ele>1544</ele>
        <time>2022-07-31T10:45:35Z</time>
      </trkpt>
      <trkpt lat="46.15243" lon="6.63197">
        <ele>1544</ele>
        <time>2022-07-31T10:45:36Z</time>
      </trkpt>
      <trkpt lat="46.15244" lon="6.63197">
        <ele>1544</ele>
        <time>2022-07-31T10:45:37Z</time>
      </trkpt>
      <trkpt lat="46.15244" lon="6.63198">
        <ele>1544</ele>
        <time>2022-07-31T10:45:38Z</time>
      </trkpt>
      <trkpt lat="46.15243" lon="6.63198">
        <ele>1544</ele>
        <time>2022-07-31T10:45:39Z</time>
      </trkpt>
      <trkpt lat="46.15243" lon="6.63198">
        <ele>1544</ele>
        <time>2022-07-31T10:45:40Z</time>
      </trkpt>
      <trkpt lat="46.15241" lon="6.63199">
        <ele>1544</ele>
        <time>2022-07-31T10:45:41Z</time>
      </trkpt>
      <trkpt lat="46.1524" lon="6.632">
        <ele>1544</ele>
        <time>2022-07-31T10:45:42Z</time>
      </trkpt>
      <trkpt lat="46.1524" lon="6.63202">
        <ele>1543</ele>
        <time>2022-07-31T10:45:43Z</time>
      </trkpt>
      <trkpt lat="46.1524" lon="6.63204">
        <ele>1543</ele>
        <time>2022-07-31T10:45:44Z</time>
      </trkpt>
      <trkpt lat="46.1524" lon="6.63206">
        <ele>1543</ele>
        <time>2022-07-31T10:45:45Z</time>
      </trkpt>
      <trkpt lat="46.1524" lon="6.63206">
        <ele>1543</ele>
        <time>2022-07-31T10:45:46Z</time>
      </trkpt>
      <trkpt lat="46.1524" lon="6.63207">
        <ele>1543</ele>
        <time>2022-07-31T10:45:47Z</time>
      </trkpt>
      <trkpt lat="46.1524" lon="6.63207">
        <ele>1543</ele>
        <time>2022-07-31T10:45:48Z</time>
      </trkpt>
      <trkpt lat="46.15241" lon="6.63206">
        <ele>1543</ele>
        <time>2022-07-31T10:45:49Z</time>
      </trkpt>
      <trkpt lat="46.15242" lon="6.63205">
        <ele>1543</ele>
        <time>2022-07-31T10:45:50Z</time>
      </trkpt>
      <trkpt lat="46.15242" lon="6.63204">
        <ele>1543</ele>
        <time>2022-07-31T10:45:51Z</time>
      </trkpt>
      <trkpt lat="46.15242" lon="6.63204">
        <ele>1543</ele>
        <time>2022-07-31T10:45:52Z</time>
      </trkpt>
      <trkpt lat="46.15242" lon="6.63204">
        <ele>1543</ele>
        <time>2022-07-31T10:45:53Z</time>
      </trkpt>
      <trkpt lat="46.15242" lon="6.63204">
        <ele>1543</ele>
        <time>2022-07-31T10:45:54Z</time>
      </trkpt>
      <trkpt lat="46.15242" lon="6.63203">
        <ele>1543</ele>
        <time>2022-07-31T10:45:55Z</time>
      </trkpt>
      <trkpt lat="46.15242" lon="6.63203">
        <ele>1543</ele>
        <time>2022-07-31T10:45:56Z</time>
      </trkpt>
      <trkpt lat="46.15242" lon="6.63203">
        <ele>1543</ele>
        <time>2022-07-31T10:45:57Z</time>
      </trkpt>
      <trkpt lat="46.15242" lon="6.63203">
        <ele>1543</ele>
        <time>2022-07-31T10:45:58Z</time>
      </trkpt>
      <trkpt lat="46.15242" lon="6.63203">
        <ele>1543</ele>
        <time>2022-07-31T10:45:59Z</time>
      </trkpt>
      <trkpt lat="46.15242" lon="6.63204">
        <ele>1543</ele>
        <time>2022-07-31T10:46:00Z</time>
      </trkpt>
      <trkpt lat="46.15242" lon="6.63204">
        <ele>1543</ele>
        <time>2022-07-31T10:46:01Z</time>
      </trkpt>
      <trkpt lat="46.15242" lon="6.63203">
        <ele>1543</ele>
        <time>2022-07-31T10:46:02Z</time>
      </trkpt>
      <trkpt lat="46.15242" lon="6.63204">
        <ele>1543</ele>
        <time>2022-07-31T10:46:03Z</time>
      </trkpt>
      <trkpt lat="46.15242" lon="6.63204">
        <ele>1543</ele>
        <time>2022-07-31T10:46:04Z</time>
      </trkpt>
      <trkpt lat="46.15242" lon="6.63204">
        <ele>1543</ele>
        <time>2022-07-31T10:46:05Z</time>
      </trkpt>
      <trkpt lat="46.15241" lon="6.63204">
        <ele>1543</ele>
        <time>2022-07-31T10:46:06Z</time>
      </trkpt>
      <trkpt lat="46.15241" lon="6.63204">
        <ele>1543</ele>
        <time>2022-07-31T10:46:07Z</time>
      </trkpt>
      <trkpt lat="46.15241" lon="6.63204">
        <ele>1543</ele>
        <time>2022-07-31T10:46:08Z</time>
      </trkpt>
      <trkpt lat="46.15241" lon="6.63204">
        <ele>1543</ele>
        <time>2022-07-31T10:46:09Z</time>
      </trkpt>
      <trkpt lat="46.15241" lon="6.63204">
        <ele>1543</ele>
        <time>2022-07-31T10:46:10Z</time>
      </trkpt>
      <trkpt lat="46.15241" lon="6.63204">
        <ele>1543</ele>
        <time>2022-07-31T10:46:11Z</time>
      </trkpt>
      <trkpt lat="46.1524" lon="6.63203">
        <ele>1543</ele>
        <time>2022-07-31T10:46:12Z</time>
      </trkpt>
      <trkpt lat="46.1524" lon="6.63204">
        <ele>1543</ele>
        <time>2022-07-31T10:46:13Z</time>
      </trkpt>
      <trkpt lat="46.1524" lon="6.63203">
        <ele>1543</ele>
        <time>2022-07-31T10:46:14Z</time>
      </trkpt>
      <trkpt lat="46.1524" lon="6.63203">
        <ele>1543</ele>
        <time>2022-07-31T10:46:15Z</time>
      </trkpt>
      <trkpt lat="46.1524" lon="6.63203">
        <ele>1543</ele>
        <time>2022-07-31T10:46:16Z</time>
      </trkpt>
      <trkpt lat="46.1524" lon="6.63203">
        <ele>1543</ele>
        <time>2022-07-31T10:46:17Z</time>
      </trkpt>
      <trkpt lat="46.1524" lon="6.63203">
        <ele>1543</ele>
        <time>2022-07-31T10:46:18Z</time>
      </trkpt>
      <trkpt lat="46.1524" lon="6.63203">
        <ele>1543</ele>
        <time>2022-07-31T10:46:19Z</time>
      </trkpt>
      <trkpt lat="46.1524" lon="6.63203">
        <ele>1543</ele>
        <time>2022-07-31T10:46:20Z</time>
      </trkpt>
      <trkpt lat="46.1524" lon="6.63203">
        <ele>1543</ele>
        <time>2022-07-31T10:46:21Z</time>
      </trkpt>
      <trkpt lat="46.1524" lon="6.63203">
        <ele>1543</ele>
        <time>2022-07-31T10:46:22Z</time>
      </trkpt>
      <trkpt lat="46.1524" lon="6.63203">
        <ele>1543</ele>
        <time>2022-07-31T10:46:23Z</time>
      </trkpt>
      <trkpt lat="46.1524" lon="6.63204">
        <ele>1543</ele>
        <time>2022-07-31T10:46:24Z</time>
      </trkpt>
      <trkpt lat="46.15238" lon="6.63206">
        <ele>1543</ele>
        <time>2022-07-31T10:46:25Z</time>
      </trkpt>
      <trkpt lat="46.15238" lon="6.63207">
        <ele>1543</ele>
        <time>2022-07-31T10:46:26Z</time>
      </trkpt>
      <trkpt lat="46.15237" lon="6.6321">
        <ele>1544</ele>
        <time>2022-07-31T10:46:27Z</time>
      </trkpt>
      <trkpt lat="46.15237" lon="6.63212">
        <ele>1544</ele>
        <time>2022-07-31T10:46:28Z</time>
      </trkpt>
      <trkpt lat="46.15237" lon="6.63214">
        <ele>1544</ele>
        <time>2022-07-31T10:46:29Z</time>
      </trkpt>
      <trkpt lat="46.15236" lon="6.63215">
        <ele>1544</ele>
        <time>2022-07-31T10:46:30Z</time>
      </trkpt>
      <trkpt lat="46.15236" lon="6.63216">
        <ele>1544</ele>
        <time>2022-07-31T10:46:31Z</time>
      </trkpt>
      <trkpt lat="46.15235" lon="6.63218">
        <ele>1544</ele>
        <time>2022-07-31T10:46:32Z</time>
      </trkpt>
      <trkpt lat="46.15235" lon="6.6322">
        <ele>1544</ele>
        <time>2022-07-31T10:46:33Z</time>
      </trkpt>
      <trkpt lat="46.15235" lon="6.63223">
        <ele>1544</ele>
        <time>2022-07-31T10:46:34Z</time>
      </trkpt>
      <trkpt lat="46.15235" lon="6.63225">
        <ele>1544</ele>
        <time>2022-07-31T10:46:35Z</time>
      </trkpt>
      <trkpt lat="46.15234" lon="6.63228">
        <ele>1544</ele>
        <time>2022-07-31T10:46:36Z</time>
      </trkpt>
      <trkpt lat="46.15234" lon="6.6323">
        <ele>1544</ele>
        <time>2022-07-31T10:46:37Z</time>
      </trkpt>
      <trkpt lat="46.15234" lon="6.63231">
        <ele>1545</ele>
        <time>2022-07-31T10:46:38Z</time>
      </trkpt>
      <trkpt lat="46.15234" lon="6.63233">
        <ele>1545</ele>
        <time>2022-07-31T10:46:39Z</time>
      </trkpt>
      <trkpt lat="46.15234" lon="6.63235">
        <ele>1545</ele>
        <time>2022-07-31T10:46:40Z</time>
      </trkpt>
      <trkpt lat="46.15234" lon="6.63236">
        <ele>1545</ele>
        <time>2022-07-31T10:46:41Z</time>
      </trkpt>
      <trkpt lat="46.15234" lon="6.63237">
        <ele>1545</ele>
        <time>2022-07-31T10:46:42Z</time>
      </trkpt>
      <trkpt lat="46.15234" lon="6.63239">
        <ele>1545</ele>
        <time>2022-07-31T10:46:43Z</time>
      </trkpt>
      <trkpt lat="46.15234" lon="6.63241">
        <ele>1545</ele>
        <time>2022-07-31T10:46:44Z</time>
      </trkpt>
      <trkpt lat="46.15234" lon="6.63243">
        <ele>1545</ele>
        <time>2022-07-31T10:46:45Z</time>
      </trkpt>
      <trkpt lat="46.15234" lon="6.63244">
        <ele>1545</ele>
        <time>2022-07-31T10:46:46Z</time>
      </trkpt>
      <trkpt lat="46.15234" lon="6.63245">
        <ele>1545</ele>
        <time>2022-07-31T10:46:47Z</time>
      </trkpt>
      <trkpt lat="46.15234" lon="6.63247">
        <ele>1545</ele>
        <time>2022-07-31T10:46:48Z</time>
      </trkpt>
      <trkpt lat="46.15234" lon="6.63248">
        <ele>1545</ele>
        <time>2022-07-31T10:46:49Z</time>
      </trkpt>
      <trkpt lat="46.15234" lon="6.63249">
        <ele>1545</ele>
        <time>2022-07-31T10:46:50Z</time>
      </trkpt>
      <trkpt lat="46.15234" lon="6.6325">
        <ele>1545</ele>
        <time>2022-07-31T10:46:51Z</time>
      </trkpt>
      <trkpt lat="46.15234" lon="6.63252">
        <ele>1545</ele>
        <time>2022-07-31T10:46:52Z</time>
      </trkpt>
      <trkpt lat="46.15234" lon="6.63253">
        <ele>1545</ele>
        <time>2022-07-31T10:46:53Z</time>
      </trkpt>
      <trkpt lat="46.15234" lon="6.63256">
        <ele>1545</ele>
        <time>2022-07-31T10:46:54Z</time>
      </trkpt>
      <trkpt lat="46.15233" lon="6.63258">
        <ele>1545</ele>
        <time>2022-07-31T10:46:55Z</time>
      </trkpt>
      <trkpt lat="46.15233" lon="6.63259">
        <ele>1545</ele>
        <time>2022-07-31T10:46:56Z</time>
      </trkpt>
      <trkpt lat="46.15233" lon="6.63261">
        <ele>1545</ele>
        <time>2022-07-31T10:46:57Z</time>
      </trkpt>
      <trkpt lat="46.15233" lon="6.63263">
        <ele>1545</ele>
        <time>2022-07-31T10:46:58Z</time>
      </trkpt>
      <trkpt lat="46.15233" lon="6.63265">
        <ele>1545</ele>
        <time>2022-07-31T10:46:59Z</time>
      </trkpt>
      <trkpt lat="46.15234" lon="6.63267">
        <ele>1546</ele>
        <time>2022-07-31T10:47:00Z</time>
      </trkpt>
      <trkpt lat="46.15234" lon="6.63269">
        <ele>1546</ele>
        <time>2022-07-31T10:47:01Z</time>
      </trkpt>
      <trkpt lat="46.15235" lon="6.63272">
        <ele>1546</ele>
        <time>2022-07-31T10:47:02Z</time>
      </trkpt>
      <trkpt lat="46.15236" lon="6.63272">
        <ele>1546</ele>
        <time>2022-07-31T10:47:03Z</time>
      </trkpt>
      <trkpt lat="46.15236" lon="6.63274">
        <ele>1546</ele>
        <time>2022-07-31T10:47:04Z</time>
      </trkpt>
      <trkpt lat="46.15236" lon="6.63275">
        <ele>1546</ele>
        <time>2022-07-31T10:47:05Z</time>
      </trkpt>
      <trkpt lat="46.15236" lon="6.63276">
        <ele>1546</ele>
        <time>2022-07-31T10:47:06Z</time>
      </trkpt>
      <trkpt lat="46.15236" lon="6.63277">
        <ele>1546</ele>
        <time>2022-07-31T10:47:07Z</time>
      </trkpt>
      <trkpt lat="46.15236" lon="6.63279">
        <ele>1547</ele>
        <time>2022-07-31T10:47:08Z</time>
      </trkpt>
      <trkpt lat="46.15236" lon="6.63281">
        <ele>1547</ele>
        <time>2022-07-31T10:47:09Z</time>
      </trkpt>
      <trkpt lat="46.15236" lon="6.63283">
        <ele>1546</ele>
        <time>2022-07-31T10:47:10Z</time>
      </trkpt>
      <trkpt lat="46.15235" lon="6.63284">
        <ele>1546</ele>
        <time>2022-07-31T10:47:11Z</time>
      </trkpt>
      <trkpt lat="46.15235" lon="6.63286">
        <ele>1546</ele>
        <time>2022-07-31T10:47:12Z</time>
      </trkpt>
      <trkpt lat="46.15235" lon="6.63288">
        <ele>1546</ele>
        <time>2022-07-31T10:47:13Z</time>
      </trkpt>
      <trkpt lat="46.15235" lon="6.6329">
        <ele>1546</ele>
        <time>2022-07-31T10:47:14Z</time>
      </trkpt>
      <trkpt lat="46.15235" lon="6.63292">
        <ele>1546</ele>
        <time>2022-07-31T10:47:15Z</time>
      </trkpt>
      <trkpt lat="46.15235" lon="6.63293">
        <ele>1546</ele>
        <time>2022-07-31T10:47:16Z</time>
      </trkpt>
      <trkpt lat="46.15235" lon="6.63295">
        <ele>1546</ele>
        <time>2022-07-31T10:47:17Z</time>
      </trkpt>
      <trkpt lat="46.15235" lon="6.63297">
        <ele>1546</ele>
        <time>2022-07-31T10:47:18Z</time>
      </trkpt>
      <trkpt lat="46.15235" lon="6.63299">
        <ele>1546</ele>
        <time>2022-07-31T10:47:19Z</time>
      </trkpt>
      <trkpt lat="46.15235" lon="6.633">
        <ele>1546</ele>
        <time>2022-07-31T10:47:20Z</time>
      </trkpt>
      <trkpt lat="46.15235" lon="6.63302">
        <ele>1546</ele>
        <time>2022-07-31T10:47:21Z</time>
      </trkpt>
      <trkpt lat="46.15235" lon="6.63304">
        <ele>1546</ele>
        <time>2022-07-31T10:47:22Z</time>
      </trkpt>
      <trkpt lat="46.15235" lon="6.63306">
        <ele>1546</ele>
        <time>2022-07-31T10:47:23Z</time>
      </trkpt>
      <trkpt lat="46.15235" lon="6.63308">
        <ele>1546</ele>
        <time>2022-07-31T10:47:24Z</time>
      </trkpt>
      <trkpt lat="46.15236" lon="6.6331">
        <ele>1546</ele>
        <time>2022-07-31T10:47:25Z</time>
      </trkpt>
      <trkpt lat="46.15236" lon="6.63312">
        <ele>1546</ele>
        <time>2022-07-31T10:47:26Z</time>
      </trkpt>
      <trkpt lat="46.15236" lon="6.63314">
        <ele>1546</ele>
        <time>2022-07-31T10:47:27Z</time>
      </trkpt>
      <trkpt lat="46.15236" lon="6.63315">
        <ele>1545</ele>
        <time>2022-07-31T10:47:28Z</time>
      </trkpt>
      <trkpt lat="46.15236" lon="6.63316">
        <ele>1545</ele>
        <time>2022-07-31T10:47:29Z</time>
      </trkpt>
      <trkpt lat="46.15236" lon="6.63318">
        <ele>1546</ele>
        <time>2022-07-31T10:47:30Z</time>
      </trkpt>
      <trkpt lat="46.15236" lon="6.63319">
        <ele>1546</ele>
        <time>2022-07-31T10:47:31Z</time>
      </trkpt>
      <trkpt lat="46.15236" lon="6.63321">
        <ele>1546</ele>
        <time>2022-07-31T10:47:32Z</time>
      </trkpt>
      <trkpt lat="46.15236" lon="6.63323">
        <ele>1546</ele>
        <time>2022-07-31T10:47:33Z</time>
      </trkpt>
      <trkpt lat="46.15235" lon="6.63325">
        <ele>1546</ele>
        <time>2022-07-31T10:47:34Z</time>
      </trkpt>
      <trkpt lat="46.15236" lon="6.63326">
        <ele>1546</ele>
        <time>2022-07-31T10:47:35Z</time>
      </trkpt>
      <trkpt lat="46.15236" lon="6.63328">
        <ele>1546</ele>
        <time>2022-07-31T10:47:36Z</time>
      </trkpt>
      <trkpt lat="46.15236" lon="6.63329">
        <ele>1546</ele>
        <time>2022-07-31T10:47:37Z</time>
      </trkpt>
      <trkpt lat="46.15237" lon="6.63331">
        <ele>1546</ele>
        <time>2022-07-31T10:47:38Z</time>
      </trkpt>
      <trkpt lat="46.15237" lon="6.63333">
        <ele>1546</ele>
        <time>2022-07-31T10:47:39Z</time>
      </trkpt>
      <trkpt lat="46.15238" lon="6.63335">
        <ele>1545</ele>
        <time>2022-07-31T10:47:40Z</time>
      </trkpt>
      <trkpt lat="46.15238" lon="6.63337">
        <ele>1545</ele>
        <time>2022-07-31T10:47:41Z</time>
      </trkpt>
      <trkpt lat="46.15238" lon="6.6334">
        <ele>1545</ele>
        <time>2022-07-31T10:47:42Z</time>
      </trkpt>
      <trkpt lat="46.1524" lon="6.63343">
        <ele>1545</ele>
        <time>2022-07-31T10:47:43Z</time>
      </trkpt>
      <trkpt lat="46.1524" lon="6.63344">
        <ele>1545</ele>
        <time>2022-07-31T10:47:44Z</time>
      </trkpt>
      <trkpt lat="46.1524" lon="6.63346">
        <ele>1545</ele>
        <time>2022-07-31T10:47:45Z</time>
      </trkpt>
      <trkpt lat="46.1524" lon="6.63348">
        <ele>1545</ele>
        <time>2022-07-31T10:47:46Z</time>
      </trkpt>
      <trkpt lat="46.1524" lon="6.6335">
        <ele>1545</ele>
        <time>2022-07-31T10:47:47Z</time>
      </trkpt>
      <trkpt lat="46.1524" lon="6.63353">
        <ele>1545</ele>
        <time>2022-07-31T10:47:48Z</time>
      </trkpt>
      <trkpt lat="46.1524" lon="6.63355">
        <ele>1545</ele>
        <time>2022-07-31T10:47:49Z</time>
      </trkpt>
      <trkpt lat="46.1524" lon="6.63357">
        <ele>1545</ele>
        <time>2022-07-31T10:47:50Z</time>
      </trkpt>
      <trkpt lat="46.15239" lon="6.63359">
        <ele>1544</ele>
        <time>2022-07-31T10:47:51Z</time>
      </trkpt>
      <trkpt lat="46.15238" lon="6.63361">
        <ele>1544</ele>
        <time>2022-07-31T10:47:52Z</time>
      </trkpt>
      <trkpt lat="46.15238" lon="6.63363">
        <ele>1544</ele>
        <time>2022-07-31T10:47:53Z</time>
      </trkpt>
      <trkpt lat="46.15238" lon="6.63366">
        <ele>1544</ele>
        <time>2022-07-31T10:47:54Z</time>
      </trkpt>
      <trkpt lat="46.15239" lon="6.63368">
        <ele>1544</ele>
        <time>2022-07-31T10:47:55Z</time>
      </trkpt>
      <trkpt lat="46.1524" lon="6.6337">
        <ele>1544</ele>
        <time>2022-07-31T10:47:56Z</time>
      </trkpt>
      <trkpt lat="46.1524" lon="6.63372">
        <ele>1544</ele>
        <time>2022-07-31T10:47:57Z</time>
      </trkpt>
      <trkpt lat="46.1524" lon="6.63373">
        <ele>1544</ele>
        <time>2022-07-31T10:47:58Z</time>
      </trkpt>
      <trkpt lat="46.1524" lon="6.63373">
        <ele>1544</ele>
        <time>2022-07-31T10:47:59Z</time>
      </trkpt>
      <trkpt lat="46.1524" lon="6.63374">
        <ele>1544</ele>
        <time>2022-07-31T10:48:00Z</time>
      </trkpt>
      <trkpt lat="46.15241" lon="6.63376">
        <ele>1543</ele>
        <time>2022-07-31T10:48:01Z</time>
      </trkpt>
      <trkpt lat="46.15241" lon="6.63378">
        <ele>1543</ele>
        <time>2022-07-31T10:48:02Z</time>
      </trkpt>
      <trkpt lat="46.15242" lon="6.6338">
        <ele>1543</ele>
        <time>2022-07-31T10:48:03Z</time>
      </trkpt>
      <trkpt lat="46.15243" lon="6.63382">
        <ele>1543</ele>
        <time>2022-07-31T10:48:04Z</time>
      </trkpt>
      <trkpt lat="46.15243" lon="6.63383">
        <ele>1543</ele>
        <time>2022-07-31T10:48:05Z</time>
      </trkpt>
      <trkpt lat="46.15243" lon="6.63385">
        <ele>1542</ele>
        <time>2022-07-31T10:48:06Z</time>
      </trkpt>
      <trkpt lat="46.15244" lon="6.63387">
        <ele>1542</ele>
        <time>2022-07-31T10:48:07Z</time>
      </trkpt>
      <trkpt lat="46.15244" lon="6.63388">
        <ele>1542</ele>
        <time>2022-07-31T10:48:08Z</time>
      </trkpt>
      <trkpt lat="46.15245" lon="6.63391">
        <ele>1542</ele>
        <time>2022-07-31T10:48:09Z</time>
      </trkpt>
      <trkpt lat="46.15246" lon="6.63394">
        <ele>1542</ele>
        <time>2022-07-31T10:48:10Z</time>
      </trkpt>
      <trkpt lat="46.15246" lon="6.63396">
        <ele>1542</ele>
        <time>2022-07-31T10:48:11Z</time>
      </trkpt>
      <trkpt lat="46.15248" lon="6.63398">
        <ele>1541</ele>
        <time>2022-07-31T10:48:12Z</time>
      </trkpt>
      <trkpt lat="46.15248" lon="6.63401">
        <ele>1541</ele>
        <time>2022-07-31T10:48:13Z</time>
      </trkpt>
      <trkpt lat="46.15248" lon="6.63404">
        <ele>1541</ele>
        <time>2022-07-31T10:48:14Z</time>
      </trkpt>
      <trkpt lat="46.15249" lon="6.63407">
        <ele>1541</ele>
        <time>2022-07-31T10:48:15Z</time>
      </trkpt>
      <trkpt lat="46.15249" lon="6.63409">
        <ele>1541</ele>
        <time>2022-07-31T10:48:16Z</time>
      </trkpt>
      <trkpt lat="46.1525" lon="6.63411">
        <ele>1541</ele>
        <time>2022-07-31T10:48:17Z</time>
      </trkpt>
      <trkpt lat="46.15251" lon="6.63413">
        <ele>1541</ele>
        <time>2022-07-31T10:48:18Z</time>
      </trkpt>
      <trkpt lat="46.15251" lon="6.63414">
        <ele>1541</ele>
        <time>2022-07-31T10:48:19Z</time>
      </trkpt>
      <trkpt lat="46.15251" lon="6.63416">
        <ele>1541</ele>
        <time>2022-07-31T10:48:20Z</time>
      </trkpt>
      <trkpt lat="46.15251" lon="6.63419">
        <ele>1540</ele>
        <time>2022-07-31T10:48:21Z</time>
      </trkpt>
      <trkpt lat="46.15252" lon="6.63421">
        <ele>1540</ele>
        <time>2022-07-31T10:48:22Z</time>
      </trkpt>
      <trkpt lat="46.15252" lon="6.63422">
        <ele>1540</ele>
        <time>2022-07-31T10:48:23Z</time>
      </trkpt>
      <trkpt lat="46.15252" lon="6.63423">
        <ele>1541</ele>
        <time>2022-07-31T10:48:24Z</time>
      </trkpt>
      <trkpt lat="46.15253" lon="6.63424">
        <ele>1541</ele>
        <time>2022-07-31T10:48:25Z</time>
      </trkpt>
      <trkpt lat="46.15254" lon="6.63426">
        <ele>1541</ele>
        <time>2022-07-31T10:48:26Z</time>
      </trkpt>
      <trkpt lat="46.15255" lon="6.63427">
        <ele>1541</ele>
        <time>2022-07-31T10:48:27Z</time>
      </trkpt>
      <trkpt lat="46.15256" lon="6.63428">
        <ele>1541</ele>
        <time>2022-07-31T10:48:28Z</time>
      </trkpt>
      <trkpt lat="46.15257" lon="6.6343">
        <ele>1541</ele>
        <time>2022-07-31T10:48:29Z</time>
      </trkpt>
      <trkpt lat="46.15258" lon="6.63431">
        <ele>1541</ele>
        <time>2022-07-31T10:48:30Z</time>
      </trkpt>
      <trkpt lat="46.15259" lon="6.63433">
        <ele>1541</ele>
        <time>2022-07-31T10:48:31Z</time>
      </trkpt>
      <trkpt lat="46.1526" lon="6.63434">
        <ele>1541</ele>
        <time>2022-07-31T10:48:32Z</time>
      </trkpt>
      <trkpt lat="46.1526" lon="6.63434">
        <ele>1541</ele>
        <time>2022-07-31T10:48:33Z</time>
      </trkpt>
      <trkpt lat="46.15261" lon="6.63435">
        <ele>1541</ele>
        <time>2022-07-31T10:48:34Z</time>
      </trkpt>
      <trkpt lat="46.15263" lon="6.63436">
        <ele>1541</ele>
        <time>2022-07-31T10:48:35Z</time>
      </trkpt>
      <trkpt lat="46.15264" lon="6.63437">
        <ele>1541</ele>
        <time>2022-07-31T10:48:36Z</time>
      </trkpt>
      <trkpt lat="46.15264" lon="6.63438">
        <ele>1541</ele>
        <time>2022-07-31T10:48:37Z</time>
      </trkpt>
      <trkpt lat="46.15265" lon="6.6344">
        <ele>1541</ele>
        <time>2022-07-31T10:48:38Z</time>
      </trkpt>
      <trkpt lat="46.15266" lon="6.63441">
        <ele>1541</ele>
        <time>2022-07-31T10:48:39Z</time>
      </trkpt>
      <trkpt lat="46.15266" lon="6.63443">
        <ele>1540</ele>
        <time>2022-07-31T10:48:40Z</time>
      </trkpt>
      <trkpt lat="46.15268" lon="6.63445">
        <ele>1540</ele>
        <time>2022-07-31T10:48:41Z</time>
      </trkpt>
      <trkpt lat="46.15269" lon="6.63446">
        <ele>1540</ele>
        <time>2022-07-31T10:48:42Z</time>
      </trkpt>
      <trkpt lat="46.1527" lon="6.63447">
        <ele>1540</ele>
        <time>2022-07-31T10:48:43Z</time>
      </trkpt>
      <trkpt lat="46.1527" lon="6.63449">
        <ele>1540</ele>
        <time>2022-07-31T10:48:44Z</time>
      </trkpt>
      <trkpt lat="46.15272" lon="6.6345">
        <ele>1540</ele>
        <time>2022-07-31T10:48:45Z</time>
      </trkpt>
      <trkpt lat="46.15273" lon="6.63452">
        <ele>1540</ele>
        <time>2022-07-31T10:48:46Z</time>
      </trkpt>
      <trkpt lat="46.15273" lon="6.63453">
        <ele>1540</ele>
        <time>2022-07-31T10:48:47Z</time>
      </trkpt>
      <trkpt lat="46.15273" lon="6.63455">
        <ele>1539</ele>
        <time>2022-07-31T10:48:48Z</time>
      </trkpt>
      <trkpt lat="46.15274" lon="6.63455">
        <ele>1539</ele>
        <time>2022-07-31T10:48:49Z</time>
      </trkpt>
      <trkpt lat="46.15274" lon="6.63456">
        <ele>1539</ele>
        <time>2022-07-31T10:48:50Z</time>
      </trkpt>
      <trkpt lat="46.15275" lon="6.63458">
        <ele>1539</ele>
        <time>2022-07-31T10:48:51Z</time>
      </trkpt>
      <trkpt lat="46.15275" lon="6.63459">
        <ele>1539</ele>
        <time>2022-07-31T10:48:52Z</time>
      </trkpt>
      <trkpt lat="46.15275" lon="6.63461">
        <ele>1539</ele>
        <time>2022-07-31T10:48:53Z</time>
      </trkpt>
      <trkpt lat="46.15275" lon="6.63463">
        <ele>1539</ele>
        <time>2022-07-31T10:48:54Z</time>
      </trkpt>
      <trkpt lat="46.15275" lon="6.63465">
        <ele>1539</ele>
        <time>2022-07-31T10:48:55Z</time>
      </trkpt>
      <trkpt lat="46.15276" lon="6.63467">
        <ele>1539</ele>
        <time>2022-07-31T10:48:56Z</time>
      </trkpt>
      <trkpt lat="46.15277" lon="6.63469">
        <ele>1539</ele>
        <time>2022-07-31T10:48:57Z</time>
      </trkpt>
      <trkpt lat="46.15277" lon="6.63471">
        <ele>1539</ele>
        <time>2022-07-31T10:48:58Z</time>
      </trkpt>
      <trkpt lat="46.15278" lon="6.63472">
        <ele>1539</ele>
        <time>2022-07-31T10:48:59Z</time>
      </trkpt>
      <trkpt lat="46.15278" lon="6.63473">
        <ele>1539</ele>
        <time>2022-07-31T10:49:00Z</time>
      </trkpt>
      <trkpt lat="46.1528" lon="6.63475">
        <ele>1539</ele>
        <time>2022-07-31T10:49:01Z</time>
      </trkpt>
      <trkpt lat="46.1528" lon="6.63476">
        <ele>1539</ele>
        <time>2022-07-31T10:49:02Z</time>
      </trkpt>
      <trkpt lat="46.1528" lon="6.63477">
        <ele>1539</ele>
        <time>2022-07-31T10:49:03Z</time>
      </trkpt>
      <trkpt lat="46.1528" lon="6.63478">
        <ele>1539</ele>
        <time>2022-07-31T10:49:04Z</time>
      </trkpt>
      <trkpt lat="46.15281" lon="6.63478">
        <ele>1539</ele>
        <time>2022-07-31T10:49:05Z</time>
      </trkpt>
      <trkpt lat="46.15281" lon="6.63479">
        <ele>1538</ele>
        <time>2022-07-31T10:49:06Z</time>
      </trkpt>
      <trkpt lat="46.15281" lon="6.6348">
        <ele>1538</ele>
        <time>2022-07-31T10:49:07Z</time>
      </trkpt>
      <trkpt lat="46.15281" lon="6.63482">
        <ele>1538</ele>
        <time>2022-07-31T10:49:08Z</time>
      </trkpt>
      <trkpt lat="46.15282" lon="6.63485">
        <ele>1538</ele>
        <time>2022-07-31T10:49:09Z</time>
      </trkpt>
      <trkpt lat="46.15283" lon="6.63487">
        <ele>1538</ele>
        <time>2022-07-31T10:49:10Z</time>
      </trkpt>
      <trkpt lat="46.15283" lon="6.6349">
        <ele>1538</ele>
        <time>2022-07-31T10:49:11Z</time>
      </trkpt>
      <trkpt lat="46.15284" lon="6.63491">
        <ele>1538</ele>
        <time>2022-07-31T10:49:12Z</time>
      </trkpt>
      <trkpt lat="46.15285" lon="6.63494">
        <ele>1537</ele>
        <time>2022-07-31T10:49:13Z</time>
      </trkpt>
      <trkpt lat="46.15286" lon="6.63496">
        <ele>1537</ele>
        <time>2022-07-31T10:49:14Z</time>
      </trkpt>
      <trkpt lat="46.15286" lon="6.63498">
        <ele>1537</ele>
        <time>2022-07-31T10:49:15Z</time>
      </trkpt>
      <trkpt lat="46.15286" lon="6.635">
        <ele>1537</ele>
        <time>2022-07-31T10:49:16Z</time>
      </trkpt>
      <trkpt lat="46.15286" lon="6.63501">
        <ele>1537</ele>
        <time>2022-07-31T10:49:17Z</time>
      </trkpt>
      <trkpt lat="46.15287" lon="6.63503">
        <ele>1537</ele>
        <time>2022-07-31T10:49:18Z</time>
      </trkpt>
      <trkpt lat="46.15288" lon="6.63505">
        <ele>1537</ele>
        <time>2022-07-31T10:49:19Z</time>
      </trkpt>
      <trkpt lat="46.15288" lon="6.63506">
        <ele>1537</ele>
        <time>2022-07-31T10:49:20Z</time>
      </trkpt>
      <trkpt lat="46.15288" lon="6.63508">
        <ele>1536</ele>
        <time>2022-07-31T10:49:21Z</time>
      </trkpt>
      <trkpt lat="46.15289" lon="6.63509">
        <ele>1536</ele>
        <time>2022-07-31T10:49:22Z</time>
      </trkpt>
      <trkpt lat="46.15289" lon="6.63511">
        <ele>1536</ele>
        <time>2022-07-31T10:49:23Z</time>
      </trkpt>
      <trkpt lat="46.1529" lon="6.63513">
        <ele>1536</ele>
        <time>2022-07-31T10:49:24Z</time>
      </trkpt>
      <trkpt lat="46.1529" lon="6.63515">
        <ele>1536</ele>
        <time>2022-07-31T10:49:25Z</time>
      </trkpt>
      <trkpt lat="46.1529" lon="6.63517">
        <ele>1536</ele>
        <time>2022-07-31T10:49:26Z</time>
      </trkpt>
      <trkpt lat="46.15291" lon="6.63519">
        <ele>1535</ele>
        <time>2022-07-31T10:49:27Z</time>
      </trkpt>
      <trkpt lat="46.15291" lon="6.63522">
        <ele>1535</ele>
        <time>2022-07-31T10:49:28Z</time>
      </trkpt>
      <trkpt lat="46.15292" lon="6.63523">
        <ele>1535</ele>
        <time>2022-07-31T10:49:29Z</time>
      </trkpt>
      <trkpt lat="46.15292" lon="6.63525">
        <ele>1535</ele>
        <time>2022-07-31T10:49:30Z</time>
      </trkpt>
      <trkpt lat="46.15293" lon="6.63527">
        <ele>1535</ele>
        <time>2022-07-31T10:49:31Z</time>
      </trkpt>
      <trkpt lat="46.15293" lon="6.63529">
        <ele>1534</ele>
        <time>2022-07-31T10:49:32Z</time>
      </trkpt>
      <trkpt lat="46.15293" lon="6.63531">
        <ele>1534</ele>
        <time>2022-07-31T10:49:33Z</time>
      </trkpt>
      <trkpt lat="46.15294" lon="6.63533">
        <ele>1534</ele>
        <time>2022-07-31T10:49:34Z</time>
      </trkpt>
      <trkpt lat="46.15295" lon="6.63535">
        <ele>1534</ele>
        <time>2022-07-31T10:49:35Z</time>
      </trkpt>
      <trkpt lat="46.15295" lon="6.63536">
        <ele>1534</ele>
        <time>2022-07-31T10:49:36Z</time>
      </trkpt>
      <trkpt lat="46.15296" lon="6.63538">
        <ele>1534</ele>
        <time>2022-07-31T10:49:37Z</time>
      </trkpt>
      <trkpt lat="46.15297" lon="6.63539">
        <ele>1533</ele>
        <time>2022-07-31T10:49:38Z</time>
      </trkpt>
      <trkpt lat="46.15297" lon="6.6354">
        <ele>1533</ele>
        <time>2022-07-31T10:49:39Z</time>
      </trkpt>
      <trkpt lat="46.15298" lon="6.63542">
        <ele>1533</ele>
        <time>2022-07-31T10:49:40Z</time>
      </trkpt>
      <trkpt lat="46.15298" lon="6.63544">
        <ele>1533</ele>
        <time>2022-07-31T10:49:41Z</time>
      </trkpt>
      <trkpt lat="46.15299" lon="6.63546">
        <ele>1532</ele>
        <time>2022-07-31T10:49:42Z</time>
      </trkpt>
      <trkpt lat="46.153" lon="6.63547">
        <ele>1532</ele>
        <time>2022-07-31T10:49:43Z</time>
      </trkpt>
      <trkpt lat="46.15301" lon="6.63548">
        <ele>1532</ele>
        <time>2022-07-31T10:49:44Z</time>
      </trkpt>
      <trkpt lat="46.15302" lon="6.6355">
        <ele>1532</ele>
        <time>2022-07-31T10:49:45Z</time>
      </trkpt>
      <trkpt lat="46.15302" lon="6.63552">
        <ele>1531</ele>
        <time>2022-07-31T10:49:46Z</time>
      </trkpt>
      <trkpt lat="46.15303" lon="6.63554">
        <ele>1531</ele>
        <time>2022-07-31T10:49:47Z</time>
      </trkpt>
      <trkpt lat="46.15304" lon="6.63555">
        <ele>1531</ele>
        <time>2022-07-31T10:49:48Z</time>
      </trkpt>
      <trkpt lat="46.15305" lon="6.63557">
        <ele>1531</ele>
        <time>2022-07-31T10:49:49Z</time>
      </trkpt>
      <trkpt lat="46.15307" lon="6.63558">
        <ele>1531</ele>
        <time>2022-07-31T10:49:50Z</time>
      </trkpt>
      <trkpt lat="46.15308" lon="6.6356">
        <ele>1530</ele>
        <time>2022-07-31T10:49:51Z</time>
      </trkpt>
      <trkpt lat="46.15309" lon="6.6356">
        <ele>1530</ele>
        <time>2022-07-31T10:49:52Z</time>
      </trkpt>
      <trkpt lat="46.1531" lon="6.63561">
        <ele>1530</ele>
        <time>2022-07-31T10:49:53Z</time>
      </trkpt>
      <trkpt lat="46.1531" lon="6.63563">
        <ele>1530</ele>
        <time>2022-07-31T10:49:54Z</time>
      </trkpt>
      <trkpt lat="46.15311" lon="6.63565">
        <ele>1530</ele>
        <time>2022-07-31T10:49:55Z</time>
      </trkpt>
      <trkpt lat="46.15312" lon="6.63568">
        <ele>1529</ele>
        <time>2022-07-31T10:49:56Z</time>
      </trkpt>
      <trkpt lat="46.15312" lon="6.6357">
        <ele>1529</ele>
        <time>2022-07-31T10:49:57Z</time>
      </trkpt>
      <trkpt lat="46.15313" lon="6.63572">
        <ele>1529</ele>
        <time>2022-07-31T10:49:58Z</time>
      </trkpt>
      <trkpt lat="46.15314" lon="6.63574">
        <ele>1529</ele>
        <time>2022-07-31T10:49:59Z</time>
      </trkpt>
      <trkpt lat="46.15314" lon="6.63575">
        <ele>1529</ele>
        <time>2022-07-31T10:50:00Z</time>
      </trkpt>
      <trkpt lat="46.15315" lon="6.63578">
        <ele>1528</ele>
        <time>2022-07-31T10:50:01Z</time>
      </trkpt>
      <trkpt lat="46.15315" lon="6.63579">
        <ele>1528</ele>
        <time>2022-07-31T10:50:02Z</time>
      </trkpt>
      <trkpt lat="46.15315" lon="6.63581">
        <ele>1528</ele>
        <time>2022-07-31T10:50:03Z</time>
      </trkpt>
      <trkpt lat="46.15316" lon="6.63583">
        <ele>1528</ele>
        <time>2022-07-31T10:50:04Z</time>
      </trkpt>
      <trkpt lat="46.15316" lon="6.63584">
        <ele>1527</ele>
        <time>2022-07-31T10:50:05Z</time>
      </trkpt>
      <trkpt lat="46.15316" lon="6.63585">
        <ele>1527</ele>
        <time>2022-07-31T10:50:06Z</time>
      </trkpt>
      <trkpt lat="46.15316" lon="6.63587">
        <ele>1527</ele>
        <time>2022-07-31T10:50:07Z</time>
      </trkpt>
      <trkpt lat="46.15316" lon="6.63588">
        <ele>1527</ele>
        <time>2022-07-31T10:50:08Z</time>
      </trkpt>
      <trkpt lat="46.15316" lon="6.6359">
        <ele>1527</ele>
        <time>2022-07-31T10:50:09Z</time>
      </trkpt>
      <trkpt lat="46.15317" lon="6.63591">
        <ele>1527</ele>
        <time>2022-07-31T10:50:10Z</time>
      </trkpt>
      <trkpt lat="46.15318" lon="6.63592">
        <ele>1527</ele>
        <time>2022-07-31T10:50:11Z</time>
      </trkpt>
      <trkpt lat="46.15318" lon="6.63594">
        <ele>1527</ele>
        <time>2022-07-31T10:50:12Z</time>
      </trkpt>
      <trkpt lat="46.15319" lon="6.63596">
        <ele>1527</ele>
        <time>2022-07-31T10:50:13Z</time>
      </trkpt>
      <trkpt lat="46.1532" lon="6.63598">
        <ele>1527</ele>
        <time>2022-07-31T10:50:14Z</time>
      </trkpt>
      <trkpt lat="46.15321" lon="6.636">
        <ele>1527</ele>
        <time>2022-07-31T10:50:15Z</time>
      </trkpt>
      <trkpt lat="46.15322" lon="6.63601">
        <ele>1527</ele>
        <time>2022-07-31T10:50:16Z</time>
      </trkpt>
      <trkpt lat="46.15322" lon="6.63603">
        <ele>1527</ele>
        <time>2022-07-31T10:50:17Z</time>
      </trkpt>
      <trkpt lat="46.15322" lon="6.63604">
        <ele>1527</ele>
        <time>2022-07-31T10:50:18Z</time>
      </trkpt>
      <trkpt lat="46.15323" lon="6.63606">
        <ele>1527</ele>
        <time>2022-07-31T10:50:19Z</time>
      </trkpt>
      <trkpt lat="46.15323" lon="6.63608">
        <ele>1527</ele>
        <time>2022-07-31T10:50:20Z</time>
      </trkpt>
      <trkpt lat="46.15324" lon="6.6361">
        <ele>1527</ele>
        <time>2022-07-31T10:50:21Z</time>
      </trkpt>
      <trkpt lat="46.15324" lon="6.63611">
        <ele>1527</ele>
        <time>2022-07-31T10:50:22Z</time>
      </trkpt>
      <trkpt lat="46.15325" lon="6.63613">
        <ele>1526</ele>
        <time>2022-07-31T10:50:23Z</time>
      </trkpt>
      <trkpt lat="46.15326" lon="6.63614">
        <ele>1526</ele>
        <time>2022-07-31T10:50:24Z</time>
      </trkpt>
      <trkpt lat="46.15327" lon="6.63615">
        <ele>1526</ele>
        <time>2022-07-31T10:50:25Z</time>
      </trkpt>
      <trkpt lat="46.15328" lon="6.63616">
        <ele>1526</ele>
        <time>2022-07-31T10:50:26Z</time>
      </trkpt>
      <trkpt lat="46.1533" lon="6.63617">
        <ele>1526</ele>
        <time>2022-07-31T10:50:27Z</time>
      </trkpt>
      <trkpt lat="46.1533" lon="6.63619">
        <ele>1526</ele>
        <time>2022-07-31T10:50:28Z</time>
      </trkpt>
      <trkpt lat="46.15331" lon="6.6362">
        <ele>1526</ele>
        <time>2022-07-31T10:50:29Z</time>
      </trkpt>
      <trkpt lat="46.15332" lon="6.63621">
        <ele>1526</ele>
        <time>2022-07-31T10:50:30Z</time>
      </trkpt>
      <trkpt lat="46.15333" lon="6.63623">
        <ele>1526</ele>
        <time>2022-07-31T10:50:31Z</time>
      </trkpt>
      <trkpt lat="46.15334" lon="6.63624">
        <ele>1525</ele>
        <time>2022-07-31T10:50:32Z</time>
      </trkpt>
      <trkpt lat="46.15334" lon="6.63626">
        <ele>1525</ele>
        <time>2022-07-31T10:50:33Z</time>
      </trkpt>
      <trkpt lat="46.15334" lon="6.63627">
        <ele>1525</ele>
        <time>2022-07-31T10:50:34Z</time>
      </trkpt>
      <trkpt lat="46.15335" lon="6.63629">
        <ele>1525</ele>
        <time>2022-07-31T10:50:35Z</time>
      </trkpt>
      <trkpt lat="46.15336" lon="6.63631">
        <ele>1525</ele>
        <time>2022-07-31T10:50:36Z</time>
      </trkpt>
      <trkpt lat="46.15337" lon="6.63633">
        <ele>1525</ele>
        <time>2022-07-31T10:50:37Z</time>
      </trkpt>
      <trkpt lat="46.15337" lon="6.63635">
        <ele>1525</ele>
        <time>2022-07-31T10:50:38Z</time>
      </trkpt>
      <trkpt lat="46.15338" lon="6.63638">
        <ele>1525</ele>
        <time>2022-07-31T10:50:39Z</time>
      </trkpt>
      <trkpt lat="46.15339" lon="6.63639">
        <ele>1525</ele>
        <time>2022-07-31T10:50:40Z</time>
      </trkpt>
      <trkpt lat="46.15339" lon="6.63641">
        <ele>1525</ele>
        <time>2022-07-31T10:50:41Z</time>
      </trkpt>
      <trkpt lat="46.1534" lon="6.63643">
        <ele>1525</ele>
        <time>2022-07-31T10:50:42Z</time>
      </trkpt>
      <trkpt lat="46.15341" lon="6.63645">
        <ele>1526</ele>
        <time>2022-07-31T10:50:43Z</time>
      </trkpt>
      <trkpt lat="46.15341" lon="6.63647">
        <ele>1526</ele>
        <time>2022-07-31T10:50:44Z</time>
      </trkpt>
      <trkpt lat="46.15341" lon="6.63649">
        <ele>1526</ele>
        <time>2022-07-31T10:50:45Z</time>
      </trkpt>
      <trkpt lat="46.15341" lon="6.63651">
        <ele>1526</ele>
        <time>2022-07-31T10:50:46Z</time>
      </trkpt>
      <trkpt lat="46.15342" lon="6.63653">
        <ele>1526</ele>
        <time>2022-07-31T10:50:47Z</time>
      </trkpt>
      <trkpt lat="46.15342" lon="6.63655">
        <ele>1525</ele>
        <time>2022-07-31T10:50:48Z</time>
      </trkpt>
      <trkpt lat="46.15343" lon="6.63657">
        <ele>1525</ele>
        <time>2022-07-31T10:50:49Z</time>
      </trkpt>
      <trkpt lat="46.15344" lon="6.63658">
        <ele>1525</ele>
        <time>2022-07-31T10:50:50Z</time>
      </trkpt>
      <trkpt lat="46.15344" lon="6.63659">
        <ele>1525</ele>
        <time>2022-07-31T10:50:51Z</time>
      </trkpt>
      <trkpt lat="46.15345" lon="6.6366">
        <ele>1525</ele>
        <time>2022-07-31T10:50:52Z</time>
      </trkpt>
      <trkpt lat="46.15346" lon="6.63661">
        <ele>1525</ele>
        <time>2022-07-31T10:50:53Z</time>
      </trkpt>
      <trkpt lat="46.15347" lon="6.63663">
        <ele>1525</ele>
        <time>2022-07-31T10:50:54Z</time>
      </trkpt>
      <trkpt lat="46.15348" lon="6.63664">
        <ele>1524</ele>
        <time>2022-07-31T10:50:55Z</time>
      </trkpt>
      <trkpt lat="46.15349" lon="6.63666">
        <ele>1524</ele>
        <time>2022-07-31T10:50:56Z</time>
      </trkpt>
      <trkpt lat="46.1535" lon="6.63667">
        <ele>1524</ele>
        <time>2022-07-31T10:50:57Z</time>
      </trkpt>
      <trkpt lat="46.1535" lon="6.63669">
        <ele>1524</ele>
        <time>2022-07-31T10:50:58Z</time>
      </trkpt>
      <trkpt lat="46.15351" lon="6.6367">
        <ele>1524</ele>
        <time>2022-07-31T10:50:59Z</time>
      </trkpt>
      <trkpt lat="46.15351" lon="6.63672">
        <ele>1524</ele>
        <time>2022-07-31T10:51:00Z</time>
      </trkpt>
      <trkpt lat="46.15351" lon="6.63674">
        <ele>1524</ele>
        <time>2022-07-31T10:51:01Z</time>
      </trkpt>
      <trkpt lat="46.15352" lon="6.63676">
        <ele>1523</ele>
        <time>2022-07-31T10:51:02Z</time>
      </trkpt>
      <trkpt lat="46.15353" lon="6.63677">
        <ele>1523</ele>
        <time>2022-07-31T10:51:03Z</time>
      </trkpt>
      <trkpt lat="46.15354" lon="6.63679">
        <ele>1523</ele>
        <time>2022-07-31T10:51:04Z</time>
      </trkpt>
      <trkpt lat="46.15355" lon="6.6368">
        <ele>1523</ele>
        <time>2022-07-31T10:51:05Z</time>
      </trkpt>
      <trkpt lat="46.15355" lon="6.63682">
        <ele>1523</ele>
        <time>2022-07-31T10:51:06Z</time>
      </trkpt>
      <trkpt lat="46.15355" lon="6.63682">
        <ele>1523</ele>
        <time>2022-07-31T10:51:07Z</time>
      </trkpt>
      <trkpt lat="46.15355" lon="6.63683">
        <ele>1523</ele>
        <time>2022-07-31T10:51:08Z</time>
      </trkpt>
      <trkpt lat="46.15356" lon="6.63684">
        <ele>1523</ele>
        <time>2022-07-31T10:51:09Z</time>
      </trkpt>
      <trkpt lat="46.15357" lon="6.63686">
        <ele>1523</ele>
        <time>2022-07-31T10:51:10Z</time>
      </trkpt>
      <trkpt lat="46.15358" lon="6.63688">
        <ele>1523</ele>
        <time>2022-07-31T10:51:11Z</time>
      </trkpt>
      <trkpt lat="46.15358" lon="6.63689">
        <ele>1523</ele>
        <time>2022-07-31T10:51:12Z</time>
      </trkpt>
      <trkpt lat="46.15359" lon="6.63691">
        <ele>1523</ele>
        <time>2022-07-31T10:51:13Z</time>
      </trkpt>
      <trkpt lat="46.15359" lon="6.63693">
        <ele>1523</ele>
        <time>2022-07-31T10:51:14Z</time>
      </trkpt>
      <trkpt lat="46.1536" lon="6.63695">
        <ele>1523</ele>
        <time>2022-07-31T10:51:15Z</time>
      </trkpt>
      <trkpt lat="46.1536" lon="6.63696">
        <ele>1523</ele>
        <time>2022-07-31T10:51:16Z</time>
      </trkpt>
      <trkpt lat="46.15361" lon="6.63697">
        <ele>1523</ele>
        <time>2022-07-31T10:51:17Z</time>
      </trkpt>
      <trkpt lat="46.15362" lon="6.63698">
        <ele>1523</ele>
        <time>2022-07-31T10:51:18Z</time>
      </trkpt>
      <trkpt lat="46.15363" lon="6.63699">
        <ele>1523</ele>
        <time>2022-07-31T10:51:19Z</time>
      </trkpt>
      <trkpt lat="46.15363" lon="6.63701">
        <ele>1523</ele>
        <time>2022-07-31T10:51:20Z</time>
      </trkpt>
      <trkpt lat="46.15364" lon="6.63703">
        <ele>1523</ele>
        <time>2022-07-31T10:51:21Z</time>
      </trkpt>
      <trkpt lat="46.15366" lon="6.63704">
        <ele>1523</ele>
        <time>2022-07-31T10:51:22Z</time>
      </trkpt>
      <trkpt lat="46.15366" lon="6.63706">
        <ele>1523</ele>
        <time>2022-07-31T10:51:23Z</time>
      </trkpt>
      <trkpt lat="46.15367" lon="6.63707">
        <ele>1523</ele>
        <time>2022-07-31T10:51:24Z</time>
      </trkpt>
      <trkpt lat="46.15367" lon="6.63709">
        <ele>1523</ele>
        <time>2022-07-31T10:51:25Z</time>
      </trkpt>
      <trkpt lat="46.15368" lon="6.6371">
        <ele>1523</ele>
        <time>2022-07-31T10:51:26Z</time>
      </trkpt>
      <trkpt lat="46.15368" lon="6.63711">
        <ele>1523</ele>
        <time>2022-07-31T10:51:27Z</time>
      </trkpt>
      <trkpt lat="46.15369" lon="6.63711">
        <ele>1523</ele>
        <time>2022-07-31T10:51:28Z</time>
      </trkpt>
      <trkpt lat="46.15369" lon="6.63712">
        <ele>1523</ele>
        <time>2022-07-31T10:51:29Z</time>
      </trkpt>
      <trkpt lat="46.15369" lon="6.63713">
        <ele>1523</ele>
        <time>2022-07-31T10:51:30Z</time>
      </trkpt>
      <trkpt lat="46.15371" lon="6.63714">
        <ele>1523</ele>
        <time>2022-07-31T10:51:31Z</time>
      </trkpt>
      <trkpt lat="46.15371" lon="6.63715">
        <ele>1523</ele>
        <time>2022-07-31T10:51:32Z</time>
      </trkpt>
      <trkpt lat="46.15372" lon="6.63715">
        <ele>1523</ele>
        <time>2022-07-31T10:51:33Z</time>
      </trkpt>
      <trkpt lat="46.15373" lon="6.63715">
        <ele>1523</ele>
        <time>2022-07-31T10:51:34Z</time>
      </trkpt>
      <trkpt lat="46.15373" lon="6.63716">
        <ele>1523</ele>
        <time>2022-07-31T10:51:35Z</time>
      </trkpt>
      <trkpt lat="46.15373" lon="6.63717">
        <ele>1523</ele>
        <time>2022-07-31T10:51:36Z</time>
      </trkpt>
      <trkpt lat="46.15374" lon="6.63719">
        <ele>1523</ele>
        <time>2022-07-31T10:51:37Z</time>
      </trkpt>
      <trkpt lat="46.15374" lon="6.6372">
        <ele>1523</ele>
        <time>2022-07-31T10:51:38Z</time>
      </trkpt>
      <trkpt lat="46.15375" lon="6.63723">
        <ele>1523</ele>
        <time>2022-07-31T10:51:39Z</time>
      </trkpt>
      <trkpt lat="46.15375" lon="6.63724">
        <ele>1523</ele>
        <time>2022-07-31T10:51:40Z</time>
      </trkpt>
      <trkpt lat="46.15375" lon="6.63726">
        <ele>1523</ele>
        <time>2022-07-31T10:51:41Z</time>
      </trkpt>
      <trkpt lat="46.15376" lon="6.63728">
        <ele>1523</ele>
        <time>2022-07-31T10:51:42Z</time>
      </trkpt>
      <trkpt lat="46.15377" lon="6.63731">
        <ele>1523</ele>
        <time>2022-07-31T10:51:43Z</time>
      </trkpt>
      <trkpt lat="46.15377" lon="6.63732">
        <ele>1523</ele>
        <time>2022-07-31T10:51:44Z</time>
      </trkpt>
      <trkpt lat="46.15377" lon="6.63734">
        <ele>1523</ele>
        <time>2022-07-31T10:51:45Z</time>
      </trkpt>
      <trkpt lat="46.15377" lon="6.63735">
        <ele>1523</ele>
        <time>2022-07-31T10:51:46Z</time>
      </trkpt>
      <trkpt lat="46.15378" lon="6.63737">
        <ele>1523</ele>
        <time>2022-07-31T10:51:47Z</time>
      </trkpt>
      <trkpt lat="46.15378" lon="6.63739">
        <ele>1523</ele>
        <time>2022-07-31T10:51:48Z</time>
      </trkpt>
      <trkpt lat="46.15378" lon="6.63741">
        <ele>1523</ele>
        <time>2022-07-31T10:51:49Z</time>
      </trkpt>
      <trkpt lat="46.15378" lon="6.63744">
        <ele>1523</ele>
        <time>2022-07-31T10:51:50Z</time>
      </trkpt>
      <trkpt lat="46.15377" lon="6.63746">
        <ele>1523</ele>
        <time>2022-07-31T10:51:51Z</time>
      </trkpt>
      <trkpt lat="46.15378" lon="6.63748">
        <ele>1523</ele>
        <time>2022-07-31T10:51:52Z</time>
      </trkpt>
      <trkpt lat="46.15378" lon="6.6375">
        <ele>1522</ele>
        <time>2022-07-31T10:51:53Z</time>
      </trkpt>
      <trkpt lat="46.15378" lon="6.63751">
        <ele>1522</ele>
        <time>2022-07-31T10:51:54Z</time>
      </trkpt>
      <trkpt lat="46.15378" lon="6.63754">
        <ele>1522</ele>
        <time>2022-07-31T10:51:55Z</time>
      </trkpt>
      <trkpt lat="46.15378" lon="6.63756">
        <ele>1522</ele>
        <time>2022-07-31T10:51:56Z</time>
      </trkpt>
      <trkpt lat="46.15379" lon="6.63758">
        <ele>1522</ele>
        <time>2022-07-31T10:51:57Z</time>
      </trkpt>
      <trkpt lat="46.15378" lon="6.63759">
        <ele>1522</ele>
        <time>2022-07-31T10:51:58Z</time>
      </trkpt>
      <trkpt lat="46.15378" lon="6.63762">
        <ele>1522</ele>
        <time>2022-07-31T10:51:59Z</time>
      </trkpt>
      <trkpt lat="46.15379" lon="6.63764">
        <ele>1522</ele>
        <time>2022-07-31T10:52:00Z</time>
      </trkpt>
      <trkpt lat="46.1538" lon="6.63766">
        <ele>1522</ele>
        <time>2022-07-31T10:52:01Z</time>
      </trkpt>
      <trkpt lat="46.1538" lon="6.63768">
        <ele>1522</ele>
        <time>2022-07-31T10:52:02Z</time>
      </trkpt>
      <trkpt lat="46.1538" lon="6.63769">
        <ele>1522</ele>
        <time>2022-07-31T10:52:03Z</time>
      </trkpt>
      <trkpt lat="46.1538" lon="6.6377">
        <ele>1523</ele>
        <time>2022-07-31T10:52:04Z</time>
      </trkpt>
      <trkpt lat="46.1538" lon="6.63771">
        <ele>1523</ele>
        <time>2022-07-31T10:52:05Z</time>
      </trkpt>
      <trkpt lat="46.1538" lon="6.63773">
        <ele>1523</ele>
        <time>2022-07-31T10:52:06Z</time>
      </trkpt>
      <trkpt lat="46.1538" lon="6.63775">
        <ele>1523</ele>
        <time>2022-07-31T10:52:07Z</time>
      </trkpt>
      <trkpt lat="46.1538" lon="6.63777">
        <ele>1523</ele>
        <time>2022-07-31T10:52:08Z</time>
      </trkpt>
      <trkpt lat="46.1538" lon="6.63778">
        <ele>1523</ele>
        <time>2022-07-31T10:52:09Z</time>
      </trkpt>
      <trkpt lat="46.1538" lon="6.6378">
        <ele>1523</ele>
        <time>2022-07-31T10:52:10Z</time>
      </trkpt>
      <trkpt lat="46.1538" lon="6.63781">
        <ele>1523</ele>
        <time>2022-07-31T10:52:11Z</time>
      </trkpt>
      <trkpt lat="46.1538" lon="6.63783">
        <ele>1523</ele>
        <time>2022-07-31T10:52:12Z</time>
      </trkpt>
      <trkpt lat="46.1538" lon="6.63785">
        <ele>1523</ele>
        <time>2022-07-31T10:52:13Z</time>
      </trkpt>
      <trkpt lat="46.15381" lon="6.63786">
        <ele>1523</ele>
        <time>2022-07-31T10:52:14Z</time>
      </trkpt>
      <trkpt lat="46.15381" lon="6.63788">
        <ele>1523</ele>
        <time>2022-07-31T10:52:15Z</time>
      </trkpt>
      <trkpt lat="46.15382" lon="6.63789">
        <ele>1523</ele>
        <time>2022-07-31T10:52:16Z</time>
      </trkpt>
      <trkpt lat="46.15382" lon="6.63791">
        <ele>1523</ele>
        <time>2022-07-31T10:52:17Z</time>
      </trkpt>
      <trkpt lat="46.15383" lon="6.63792">
        <ele>1523</ele>
        <time>2022-07-31T10:52:18Z</time>
      </trkpt>
      <trkpt lat="46.15383" lon="6.63794">
        <ele>1524</ele>
        <time>2022-07-31T10:52:19Z</time>
      </trkpt>
      <trkpt lat="46.15383" lon="6.63795">
        <ele>1524</ele>
        <time>2022-07-31T10:52:20Z</time>
      </trkpt>
      <trkpt lat="46.15384" lon="6.63797">
        <ele>1524</ele>
        <time>2022-07-31T10:52:21Z</time>
      </trkpt>
      <trkpt lat="46.15384" lon="6.638">
        <ele>1524</ele>
        <time>2022-07-31T10:52:22Z</time>
      </trkpt>
      <trkpt lat="46.15384" lon="6.63802">
        <ele>1524</ele>
        <time>2022-07-31T10:52:23Z</time>
      </trkpt>
      <trkpt lat="46.15385" lon="6.63804">
        <ele>1524</ele>
        <time>2022-07-31T10:52:24Z</time>
      </trkpt>
      <trkpt lat="46.15385" lon="6.63805">
        <ele>1524</ele>
        <time>2022-07-31T10:52:25Z</time>
      </trkpt>
      <trkpt lat="46.15385" lon="6.63807">
        <ele>1524</ele>
        <time>2022-07-31T10:52:26Z</time>
      </trkpt>
      <trkpt lat="46.15386" lon="6.63809">
        <ele>1524</ele>
        <time>2022-07-31T10:52:27Z</time>
      </trkpt>
      <trkpt lat="46.15387" lon="6.6381">
        <ele>1524</ele>
        <time>2022-07-31T10:52:28Z</time>
      </trkpt>
      <trkpt lat="46.15388" lon="6.63812">
        <ele>1524</ele>
        <time>2022-07-31T10:52:29Z</time>
      </trkpt>
      <trkpt lat="46.15388" lon="6.63814">
        <ele>1524</ele>
        <time>2022-07-31T10:52:30Z</time>
      </trkpt>
      <trkpt lat="46.15389" lon="6.63816">
        <ele>1523</ele>
        <time>2022-07-31T10:52:31Z</time>
      </trkpt>
      <trkpt lat="46.1539" lon="6.63819">
        <ele>1523</ele>
        <time>2022-07-31T10:52:32Z</time>
      </trkpt>
      <trkpt lat="46.15391" lon="6.63822">
        <ele>1523</ele>
        <time>2022-07-31T10:52:33Z</time>
      </trkpt>
      <trkpt lat="46.15392" lon="6.63824">
        <ele>1523</ele>
        <time>2022-07-31T10:52:34Z</time>
      </trkpt>
      <trkpt lat="46.15392" lon="6.63825">
        <ele>1523</ele>
        <time>2022-07-31T10:52:35Z</time>
      </trkpt>
      <trkpt lat="46.15392" lon="6.63827">
        <ele>1523</ele>
        <time>2022-07-31T10:52:36Z</time>
      </trkpt>
      <trkpt lat="46.15393" lon="6.63828">
        <ele>1523</ele>
        <time>2022-07-31T10:52:37Z</time>
      </trkpt>
      <trkpt lat="46.15393" lon="6.63829">
        <ele>1523</ele>
        <time>2022-07-31T10:52:38Z</time>
      </trkpt>
      <trkpt lat="46.15393" lon="6.6383">
        <ele>1523</ele>
        <time>2022-07-31T10:52:39Z</time>
      </trkpt>
      <trkpt lat="46.15393" lon="6.63832">
        <ele>1523</ele>
        <time>2022-07-31T10:52:40Z</time>
      </trkpt>
      <trkpt lat="46.15393" lon="6.63833">
        <ele>1523</ele>
        <time>2022-07-31T10:52:41Z</time>
      </trkpt>
      <trkpt lat="46.15393" lon="6.63835">
        <ele>1523</ele>
        <time>2022-07-31T10:52:42Z</time>
      </trkpt>
      <trkpt lat="46.15393" lon="6.63836">
        <ele>1523</ele>
        <time>2022-07-31T10:52:43Z</time>
      </trkpt>
      <trkpt lat="46.15393" lon="6.63837">
        <ele>1523</ele>
        <time>2022-07-31T10:52:44Z</time>
      </trkpt>
      <trkpt lat="46.15394" lon="6.63839">
        <ele>1523</ele>
        <time>2022-07-31T10:52:45Z</time>
      </trkpt>
      <trkpt lat="46.15395" lon="6.63842">
        <ele>1523</ele>
        <time>2022-07-31T10:52:46Z</time>
      </trkpt>
      <trkpt lat="46.15395" lon="6.63843">
        <ele>1523</ele>
        <time>2022-07-31T10:52:47Z</time>
      </trkpt>
      <trkpt lat="46.15395" lon="6.63845">
        <ele>1523</ele>
        <time>2022-07-31T10:52:48Z</time>
      </trkpt>
      <trkpt lat="46.15395" lon="6.63847">
        <ele>1523</ele>
        <time>2022-07-31T10:52:49Z</time>
      </trkpt>
      <trkpt lat="46.15394" lon="6.63849">
        <ele>1523</ele>
        <time>2022-07-31T10:52:50Z</time>
      </trkpt>
      <trkpt lat="46.15393" lon="6.63851">
        <ele>1523</ele>
        <time>2022-07-31T10:52:51Z</time>
      </trkpt>
      <trkpt lat="46.15393" lon="6.63852">
        <ele>1523</ele>
        <time>2022-07-31T10:52:52Z</time>
      </trkpt>
      <trkpt lat="46.15393" lon="6.63854">
        <ele>1523</ele>
        <time>2022-07-31T10:52:53Z</time>
      </trkpt>
      <trkpt lat="46.15393" lon="6.63856">
        <ele>1523</ele>
        <time>2022-07-31T10:52:54Z</time>
      </trkpt>
      <trkpt lat="46.15392" lon="6.63857">
        <ele>1523</ele>
        <time>2022-07-31T10:52:55Z</time>
      </trkpt>
      <trkpt lat="46.15392" lon="6.63858">
        <ele>1523</ele>
        <time>2022-07-31T10:52:56Z</time>
      </trkpt>
      <trkpt lat="46.15392" lon="6.63859">
        <ele>1523</ele>
        <time>2022-07-31T10:52:57Z</time>
      </trkpt>
      <trkpt lat="46.15391" lon="6.63859">
        <ele>1523</ele>
        <time>2022-07-31T10:52:58Z</time>
      </trkpt>
      <trkpt lat="46.1539" lon="6.6386">
        <ele>1523</ele>
        <time>2022-07-31T10:52:59Z</time>
      </trkpt>
      <trkpt lat="46.1539" lon="6.6386">
        <ele>1524</ele>
        <time>2022-07-31T10:53:00Z</time>
      </trkpt>
      <trkpt lat="46.1539" lon="6.63862">
        <ele>1524</ele>
        <time>2022-07-31T10:53:01Z</time>
      </trkpt>
      <trkpt lat="46.1539" lon="6.63863">
        <ele>1524</ele>
        <time>2022-07-31T10:53:02Z</time>
      </trkpt>
      <trkpt lat="46.1539" lon="6.63865">
        <ele>1524</ele>
        <time>2022-07-31T10:53:03Z</time>
      </trkpt>
      <trkpt lat="46.1539" lon="6.63865">
        <ele>1524</ele>
        <time>2022-07-31T10:53:04Z</time>
      </trkpt>
      <trkpt lat="46.1539" lon="6.63867">
        <ele>1524</ele>
        <time>2022-07-31T10:53:05Z</time>
      </trkpt>
      <trkpt lat="46.1539" lon="6.63869">
        <ele>1524</ele>
        <time>2022-07-31T10:53:06Z</time>
      </trkpt>
      <trkpt lat="46.1539" lon="6.6387">
        <ele>1524</ele>
        <time>2022-07-31T10:53:07Z</time>
      </trkpt>
      <trkpt lat="46.15391" lon="6.63871">
        <ele>1524</ele>
        <time>2022-07-31T10:53:08Z</time>
      </trkpt>
      <trkpt lat="46.15392" lon="6.63872">
        <ele>1524</ele>
        <time>2022-07-31T10:53:09Z</time>
      </trkpt>
      <trkpt lat="46.15392" lon="6.63874">
        <ele>1524</ele>
        <time>2022-07-31T10:53:10Z</time>
      </trkpt>
      <trkpt lat="46.15393" lon="6.63875">
        <ele>1524</ele>
        <time>2022-07-31T10:53:11Z</time>
      </trkpt>
      <trkpt lat="46.15395" lon="6.63877">
        <ele>1524</ele>
        <time>2022-07-31T10:53:12Z</time>
      </trkpt>
      <trkpt lat="46.15396" lon="6.63879">
        <ele>1524</ele>
        <time>2022-07-31T10:53:13Z</time>
      </trkpt>
      <trkpt lat="46.15397" lon="6.63881">
        <ele>1524</ele>
        <time>2022-07-31T10:53:14Z</time>
      </trkpt>
      <trkpt lat="46.15398" lon="6.63883">
        <ele>1524</ele>
        <time>2022-07-31T10:53:15Z</time>
      </trkpt>
      <trkpt lat="46.15398" lon="6.63886">
        <ele>1524</ele>
        <time>2022-07-31T10:53:16Z</time>
      </trkpt>
      <trkpt lat="46.15399" lon="6.63889">
        <ele>1524</ele>
        <time>2022-07-31T10:53:17Z</time>
      </trkpt>
      <trkpt lat="46.154" lon="6.63891">
        <ele>1524</ele>
        <time>2022-07-31T10:53:18Z</time>
      </trkpt>
      <trkpt lat="46.15401" lon="6.63893">
        <ele>1524</ele>
        <time>2022-07-31T10:53:19Z</time>
      </trkpt>
      <trkpt lat="46.15402" lon="6.63895">
        <ele>1524</ele>
        <time>2022-07-31T10:53:20Z</time>
      </trkpt>
      <trkpt lat="46.15403" lon="6.63896">
        <ele>1524</ele>
        <time>2022-07-31T10:53:21Z</time>
      </trkpt>
      <trkpt lat="46.15404" lon="6.63899">
        <ele>1524</ele>
        <time>2022-07-31T10:53:22Z</time>
      </trkpt>
      <trkpt lat="46.15404" lon="6.639">
        <ele>1524</ele>
        <time>2022-07-31T10:53:23Z</time>
      </trkpt>
      <trkpt lat="46.15404" lon="6.63903">
        <ele>1524</ele>
        <time>2022-07-31T10:53:24Z</time>
      </trkpt>
      <trkpt lat="46.15404" lon="6.63905">
        <ele>1525</ele>
        <time>2022-07-31T10:53:25Z</time>
      </trkpt>
      <trkpt lat="46.15404" lon="6.63907">
        <ele>1525</ele>
        <time>2022-07-31T10:53:26Z</time>
      </trkpt>
      <trkpt lat="46.15403" lon="6.6391">
        <ele>1525</ele>
        <time>2022-07-31T10:53:27Z</time>
      </trkpt>
      <trkpt lat="46.15403" lon="6.63912">
        <ele>1525</ele>
        <time>2022-07-31T10:53:28Z</time>
      </trkpt>
      <trkpt lat="46.15403" lon="6.63915">
        <ele>1525</ele>
        <time>2022-07-31T10:53:29Z</time>
      </trkpt>
      <trkpt lat="46.15403" lon="6.63917">
        <ele>1525</ele>
        <time>2022-07-31T10:53:30Z</time>
      </trkpt>
      <trkpt lat="46.15404" lon="6.63918">
        <ele>1525</ele>
        <time>2022-07-31T10:53:31Z</time>
      </trkpt>
      <trkpt lat="46.15404" lon="6.6392">
        <ele>1525</ele>
        <time>2022-07-31T10:53:32Z</time>
      </trkpt>
      <trkpt lat="46.15405" lon="6.63922">
        <ele>1525</ele>
        <time>2022-07-31T10:53:33Z</time>
      </trkpt>
      <trkpt lat="46.15405" lon="6.63924">
        <ele>1525</ele>
        <time>2022-07-31T10:53:34Z</time>
      </trkpt>
      <trkpt lat="46.15405" lon="6.63927">
        <ele>1526</ele>
        <time>2022-07-31T10:53:35Z</time>
      </trkpt>
      <trkpt lat="46.15405" lon="6.6393">
        <ele>1526</ele>
        <time>2022-07-31T10:53:36Z</time>
      </trkpt>
      <trkpt lat="46.15405" lon="6.63932">
        <ele>1526</ele>
        <time>2022-07-31T10:53:37Z</time>
      </trkpt>
      <trkpt lat="46.15405" lon="6.63933">
        <ele>1526</ele>
        <time>2022-07-31T10:53:38Z</time>
      </trkpt>
      <trkpt lat="46.15405" lon="6.63934">
        <ele>1526</ele>
        <time>2022-07-31T10:53:39Z</time>
      </trkpt>
      <trkpt lat="46.15405" lon="6.63935">
        <ele>1526</ele>
        <time>2022-07-31T10:53:40Z</time>
      </trkpt>
      <trkpt lat="46.15406" lon="6.63936">
        <ele>1526</ele>
        <time>2022-07-31T10:53:41Z</time>
      </trkpt>
      <trkpt lat="46.15406" lon="6.63938">
        <ele>1526</ele>
        <time>2022-07-31T10:53:42Z</time>
      </trkpt>
      <trkpt lat="46.15407" lon="6.6394">
        <ele>1526</ele>
        <time>2022-07-31T10:53:43Z</time>
      </trkpt>
      <trkpt lat="46.15407" lon="6.63942">
        <ele>1526</ele>
        <time>2022-07-31T10:53:44Z</time>
      </trkpt>
      <trkpt lat="46.15408" lon="6.63944">
        <ele>1526</ele>
        <time>2022-07-31T10:53:45Z</time>
      </trkpt>
      <trkpt lat="46.15408" lon="6.63945">
        <ele>1526</ele>
        <time>2022-07-31T10:53:46Z</time>
      </trkpt>
      <trkpt lat="46.15408" lon="6.63947">
        <ele>1526</ele>
        <time>2022-07-31T10:53:47Z</time>
      </trkpt>
      <trkpt lat="46.15408" lon="6.6395">
        <ele>1526</ele>
        <time>2022-07-31T10:53:48Z</time>
      </trkpt>
      <trkpt lat="46.15408" lon="6.63952">
        <ele>1526</ele>
        <time>2022-07-31T10:53:49Z</time>
      </trkpt>
      <trkpt lat="46.15408" lon="6.63954">
        <ele>1526</ele>
        <time>2022-07-31T10:53:50Z</time>
      </trkpt>
      <trkpt lat="46.15407" lon="6.63955">
        <ele>1526</ele>
        <time>2022-07-31T10:53:51Z</time>
      </trkpt>
      <trkpt lat="46.15408" lon="6.63957">
        <ele>1526</ele>
        <time>2022-07-31T10:53:52Z</time>
      </trkpt>
      <trkpt lat="46.15408" lon="6.63959">
        <ele>1526</ele>
        <time>2022-07-31T10:53:53Z</time>
      </trkpt>
      <trkpt lat="46.15408" lon="6.63962">
        <ele>1526</ele>
        <time>2022-07-31T10:53:54Z</time>
      </trkpt>
      <trkpt lat="46.15408" lon="6.63965">
        <ele>1526</ele>
        <time>2022-07-31T10:53:55Z</time>
      </trkpt>
      <trkpt lat="46.15408" lon="6.63967">
        <ele>1526</ele>
        <time>2022-07-31T10:53:56Z</time>
      </trkpt>
      <trkpt lat="46.15408" lon="6.63969">
        <ele>1526</ele>
        <time>2022-07-31T10:53:57Z</time>
      </trkpt>
      <trkpt lat="46.15409" lon="6.6397">
        <ele>1526</ele>
        <time>2022-07-31T10:53:58Z</time>
      </trkpt>
      <trkpt lat="46.15408" lon="6.63972">
        <ele>1526</ele>
        <time>2022-07-31T10:53:59Z</time>
      </trkpt>
      <trkpt lat="46.15408" lon="6.63974">
        <ele>1526</ele>
        <time>2022-07-31T10:54:00Z</time>
      </trkpt>
      <trkpt lat="46.15409" lon="6.63976">
        <ele>1526</ele>
        <time>2022-07-31T10:54:01Z</time>
      </trkpt>
      <trkpt lat="46.15409" lon="6.63977">
        <ele>1526</ele>
        <time>2022-07-31T10:54:02Z</time>
      </trkpt>
      <trkpt lat="46.1541" lon="6.63979">
        <ele>1526</ele>
        <time>2022-07-31T10:54:03Z</time>
      </trkpt>
      <trkpt lat="46.15411" lon="6.63982">
        <ele>1527</ele>
        <time>2022-07-31T10:54:04Z</time>
      </trkpt>
      <trkpt lat="46.15412" lon="6.63984">
        <ele>1527</ele>
        <time>2022-07-31T10:54:05Z</time>
      </trkpt>
      <trkpt lat="46.15412" lon="6.63985">
        <ele>1527</ele>
        <time>2022-07-31T10:54:06Z</time>
      </trkpt>
      <trkpt lat="46.15413" lon="6.63986">
        <ele>1527</ele>
        <time>2022-07-31T10:54:07Z</time>
      </trkpt>
      <trkpt lat="46.15414" lon="6.63988">
        <ele>1527</ele>
        <time>2022-07-31T10:54:08Z</time>
      </trkpt>
      <trkpt lat="46.15414" lon="6.6399">
        <ele>1527</ele>
        <time>2022-07-31T10:54:09Z</time>
      </trkpt>
      <trkpt lat="46.15415" lon="6.63993">
        <ele>1527</ele>
        <time>2022-07-31T10:54:10Z</time>
      </trkpt>
      <trkpt lat="46.15415" lon="6.63994">
        <ele>1527</ele>
        <time>2022-07-31T10:54:11Z</time>
      </trkpt>
      <trkpt lat="46.15417" lon="6.63996">
        <ele>1527</ele>
        <time>2022-07-31T10:54:12Z</time>
      </trkpt>
      <trkpt lat="46.15417" lon="6.63996">
        <ele>1527</ele>
        <time>2022-07-31T10:54:13Z</time>
      </trkpt>
      <trkpt lat="46.15418" lon="6.63996">
        <ele>1527</ele>
        <time>2022-07-31T10:54:14Z</time>
      </trkpt>
      <trkpt lat="46.15418" lon="6.63997">
        <ele>1527</ele>
        <time>2022-07-31T10:54:15Z</time>
      </trkpt>
      <trkpt lat="46.1542" lon="6.63998">
        <ele>1527</ele>
        <time>2022-07-31T10:54:16Z</time>
      </trkpt>
      <trkpt lat="46.15421" lon="6.63999">
        <ele>1527</ele>
        <time>2022-07-31T10:54:17Z</time>
      </trkpt>
      <trkpt lat="46.15422" lon="6.64">
        <ele>1527</ele>
        <time>2022-07-31T10:54:18Z</time>
      </trkpt>
      <trkpt lat="46.15423" lon="6.64001">
        <ele>1527</ele>
        <time>2022-07-31T10:54:19Z</time>
      </trkpt>
      <trkpt lat="46.15424" lon="6.64001">
        <ele>1527</ele>
        <time>2022-07-31T10:54:20Z</time>
      </trkpt>
      <trkpt lat="46.15425" lon="6.64001">
        <ele>1527</ele>
        <time>2022-07-31T10:54:21Z</time>
      </trkpt>
      <trkpt lat="46.15426" lon="6.64002">
        <ele>1527</ele>
        <time>2022-07-31T10:54:22Z</time>
      </trkpt>
      <trkpt lat="46.15428" lon="6.64003">
        <ele>1527</ele>
        <time>2022-07-31T10:54:23Z</time>
      </trkpt>
      <trkpt lat="46.15429" lon="6.64005">
        <ele>1527</ele>
        <time>2022-07-31T10:54:24Z</time>
      </trkpt>
      <trkpt lat="46.1543" lon="6.64006">
        <ele>1527</ele>
        <time>2022-07-31T10:54:25Z</time>
      </trkpt>
      <trkpt lat="46.1543" lon="6.64007">
        <ele>1527</ele>
        <time>2022-07-31T10:54:26Z</time>
      </trkpt>
      <trkpt lat="46.15432" lon="6.64008">
        <ele>1527</ele>
        <time>2022-07-31T10:54:27Z</time>
      </trkpt>
      <trkpt lat="46.15432" lon="6.64009">
        <ele>1527</ele>
        <time>2022-07-31T10:54:28Z</time>
      </trkpt>
      <trkpt lat="46.15433" lon="6.6401">
        <ele>1527</ele>
        <time>2022-07-31T10:54:29Z</time>
      </trkpt>
      <trkpt lat="46.15434" lon="6.6401">
        <ele>1527</ele>
        <time>2022-07-31T10:54:30Z</time>
      </trkpt>
      <trkpt lat="46.15434" lon="6.64011">
        <ele>1527</ele>
        <time>2022-07-31T10:54:31Z</time>
      </trkpt>
      <trkpt lat="46.15435" lon="6.64012">
        <ele>1527</ele>
        <time>2022-07-31T10:54:32Z</time>
      </trkpt>
      <trkpt lat="46.15436" lon="6.64014">
        <ele>1527</ele>
        <time>2022-07-31T10:54:33Z</time>
      </trkpt>
      <trkpt lat="46.15436" lon="6.64016">
        <ele>1527</ele>
        <time>2022-07-31T10:54:34Z</time>
      </trkpt>
      <trkpt lat="46.15437" lon="6.64018">
        <ele>1527</ele>
        <time>2022-07-31T10:54:35Z</time>
      </trkpt>
      <trkpt lat="46.15438" lon="6.6402">
        <ele>1527</ele>
        <time>2022-07-31T10:54:36Z</time>
      </trkpt>
      <trkpt lat="46.15439" lon="6.64022">
        <ele>1527</ele>
        <time>2022-07-31T10:54:37Z</time>
      </trkpt>
      <trkpt lat="46.1544" lon="6.64023">
        <ele>1527</ele>
        <time>2022-07-31T10:54:38Z</time>
      </trkpt>
      <trkpt lat="46.1544" lon="6.64024">
        <ele>1527</ele>
        <time>2022-07-31T10:54:39Z</time>
      </trkpt>
      <trkpt lat="46.15441" lon="6.64025">
        <ele>1527</ele>
        <time>2022-07-31T10:54:40Z</time>
      </trkpt>
      <trkpt lat="46.15442" lon="6.64027">
        <ele>1527</ele>
        <time>2022-07-31T10:54:41Z</time>
      </trkpt>
      <trkpt lat="46.15442" lon="6.64029">
        <ele>1527</ele>
        <time>2022-07-31T10:54:42Z</time>
      </trkpt>
      <trkpt lat="46.15443" lon="6.64031">
        <ele>1527</ele>
        <time>2022-07-31T10:54:43Z</time>
      </trkpt>
      <trkpt lat="46.15444" lon="6.64032">
        <ele>1527</ele>
        <time>2022-07-31T10:54:44Z</time>
      </trkpt>
      <trkpt lat="46.15445" lon="6.64032">
        <ele>1527</ele>
        <time>2022-07-31T10:54:45Z</time>
      </trkpt>
      <trkpt lat="46.15446" lon="6.64034">
        <ele>1528</ele>
        <time>2022-07-31T10:54:46Z</time>
      </trkpt>
      <trkpt lat="46.15447" lon="6.64035">
        <ele>1528</ele>
        <time>2022-07-31T10:54:47Z</time>
      </trkpt>
      <trkpt lat="46.15447" lon="6.64037">
        <ele>1528</ele>
        <time>2022-07-31T10:54:48Z</time>
      </trkpt>
      <trkpt lat="46.15448" lon="6.64039">
        <ele>1528</ele>
        <time>2022-07-31T10:54:49Z</time>
      </trkpt>
      <trkpt lat="46.15448" lon="6.64041">
        <ele>1528</ele>
        <time>2022-07-31T10:54:50Z</time>
      </trkpt>
      <trkpt lat="46.15448" lon="6.64043">
        <ele>1528</ele>
        <time>2022-07-31T10:54:51Z</time>
      </trkpt>
      <trkpt lat="46.15448" lon="6.64043">
        <ele>1528</ele>
        <time>2022-07-31T10:54:52Z</time>
      </trkpt>
      <trkpt lat="46.15448" lon="6.64044">
        <ele>1528</ele>
        <time>2022-07-31T10:54:53Z</time>
      </trkpt>
      <trkpt lat="46.15448" lon="6.64045">
        <ele>1528</ele>
        <time>2022-07-31T10:54:54Z</time>
      </trkpt>
      <trkpt lat="46.15448" lon="6.64046">
        <ele>1528</ele>
        <time>2022-07-31T10:54:55Z</time>
      </trkpt>
      <trkpt lat="46.15448" lon="6.64048">
        <ele>1528</ele>
        <time>2022-07-31T10:54:56Z</time>
      </trkpt>
      <trkpt lat="46.15449" lon="6.6405">
        <ele>1529</ele>
        <time>2022-07-31T10:54:57Z</time>
      </trkpt>
      <trkpt lat="46.15449" lon="6.64051">
        <ele>1529</ele>
        <time>2022-07-31T10:54:58Z</time>
      </trkpt>
      <trkpt lat="46.1545" lon="6.64053">
        <ele>1529</ele>
        <time>2022-07-31T10:54:59Z</time>
      </trkpt>
      <trkpt lat="46.15451" lon="6.64055">
        <ele>1529</ele>
        <time>2022-07-31T10:55:00Z</time>
      </trkpt>
      <trkpt lat="46.15452" lon="6.64057">
        <ele>1529</ele>
        <time>2022-07-31T10:55:01Z</time>
      </trkpt>
      <trkpt lat="46.15453" lon="6.64058">
        <ele>1529</ele>
        <time>2022-07-31T10:55:02Z</time>
      </trkpt>
      <trkpt lat="46.15454" lon="6.64061">
        <ele>1529</ele>
        <time>2022-07-31T10:55:03Z</time>
      </trkpt>
      <trkpt lat="46.15454" lon="6.64063">
        <ele>1529</ele>
        <time>2022-07-31T10:55:04Z</time>
      </trkpt>
      <trkpt lat="46.15454" lon="6.64064">
        <ele>1529</ele>
        <time>2022-07-31T10:55:05Z</time>
      </trkpt>
      <trkpt lat="46.15455" lon="6.64065">
        <ele>1529</ele>
        <time>2022-07-31T10:55:06Z</time>
      </trkpt>
      <trkpt lat="46.15455" lon="6.64066">
        <ele>1529</ele>
        <time>2022-07-31T10:55:07Z</time>
      </trkpt>
      <trkpt lat="46.15456" lon="6.64066">
        <ele>1529</ele>
        <time>2022-07-31T10:55:08Z</time>
      </trkpt>
      <trkpt lat="46.15457" lon="6.64067">
        <ele>1529</ele>
        <time>2022-07-31T10:55:09Z</time>
      </trkpt>
      <trkpt lat="46.15457" lon="6.64069">
        <ele>1529</ele>
        <time>2022-07-31T10:55:10Z</time>
      </trkpt>
      <trkpt lat="46.15458" lon="6.64071">
        <ele>1529</ele>
        <time>2022-07-31T10:55:11Z</time>
      </trkpt>
      <trkpt lat="46.15458" lon="6.64073">
        <ele>1529</ele>
        <time>2022-07-31T10:55:12Z</time>
      </trkpt>
      <trkpt lat="46.15458" lon="6.64076">
        <ele>1529</ele>
        <time>2022-07-31T10:55:13Z</time>
      </trkpt>
      <trkpt lat="46.15459" lon="6.64078">
        <ele>1529</ele>
        <time>2022-07-31T10:55:14Z</time>
      </trkpt>
      <trkpt lat="46.15461" lon="6.64079">
        <ele>1529</ele>
        <time>2022-07-31T10:55:15Z</time>
      </trkpt>
      <trkpt lat="46.15461" lon="6.64081">
        <ele>1529</ele>
        <time>2022-07-31T10:55:16Z</time>
      </trkpt>
      <trkpt lat="46.15462" lon="6.64082">
        <ele>1529</ele>
        <time>2022-07-31T10:55:17Z</time>
      </trkpt>
      <trkpt lat="46.15462" lon="6.64085">
        <ele>1529</ele>
        <time>2022-07-31T10:55:18Z</time>
      </trkpt>
      <trkpt lat="46.15463" lon="6.64086">
        <ele>1529</ele>
        <time>2022-07-31T10:55:19Z</time>
      </trkpt>
      <trkpt lat="46.15464" lon="6.64087">
        <ele>1529</ele>
        <time>2022-07-31T10:55:20Z</time>
      </trkpt>
      <trkpt lat="46.15465" lon="6.64088">
        <ele>1529</ele>
        <time>2022-07-31T10:55:21Z</time>
      </trkpt>
      <trkpt lat="46.15466" lon="6.64089">
        <ele>1529</ele>
        <time>2022-07-31T10:55:22Z</time>
      </trkpt>
      <trkpt lat="46.15466" lon="6.6409">
        <ele>1529</ele>
        <time>2022-07-31T10:55:23Z</time>
      </trkpt>
      <trkpt lat="46.15467" lon="6.64091">
        <ele>1529</ele>
        <time>2022-07-31T10:55:24Z</time>
      </trkpt>
      <trkpt lat="46.15467" lon="6.64092">
        <ele>1529</ele>
        <time>2022-07-31T10:55:25Z</time>
      </trkpt>
      <trkpt lat="46.15468" lon="6.64093">
        <ele>1529</ele>
        <time>2022-07-31T10:55:26Z</time>
      </trkpt>
      <trkpt lat="46.15469" lon="6.64094">
        <ele>1529</ele>
        <time>2022-07-31T10:55:27Z</time>
      </trkpt>
      <trkpt lat="46.1547" lon="6.64096">
        <ele>1529</ele>
        <time>2022-07-31T10:55:28Z</time>
      </trkpt>
      <trkpt lat="46.15471" lon="6.64098">
        <ele>1529</ele>
        <time>2022-07-31T10:55:29Z</time>
      </trkpt>
      <trkpt lat="46.15471" lon="6.64098">
        <ele>1529</ele>
        <time>2022-07-31T10:55:30Z</time>
      </trkpt>
      <trkpt lat="46.15472" lon="6.64099">
        <ele>1529</ele>
        <time>2022-07-31T10:55:31Z</time>
      </trkpt>
      <trkpt lat="46.15472" lon="6.641">
        <ele>1529</ele>
        <time>2022-07-31T10:55:32Z</time>
      </trkpt>
      <trkpt lat="46.15472" lon="6.64101">
        <ele>1529</ele>
        <time>2022-07-31T10:55:33Z</time>
      </trkpt>
      <trkpt lat="46.15473" lon="6.64102">
        <ele>1529</ele>
        <time>2022-07-31T10:55:34Z</time>
      </trkpt>
      <trkpt lat="46.15472" lon="6.64102">
        <ele>1529</ele>
        <time>2022-07-31T10:55:35Z</time>
      </trkpt>
      <trkpt lat="46.15472" lon="6.64101">
        <ele>1529</ele>
        <time>2022-07-31T10:55:36Z</time>
      </trkpt>
      <trkpt lat="46.15471" lon="6.64102">
        <ele>1529</ele>
        <time>2022-07-31T10:55:37Z</time>
      </trkpt>
      <trkpt lat="46.15471" lon="6.64102">
        <ele>1529</ele>
        <time>2022-07-31T10:55:38Z</time>
      </trkpt>
      <trkpt lat="46.15471" lon="6.64102">
        <ele>1529</ele>
        <time>2022-07-31T10:55:39Z</time>
      </trkpt>
      <trkpt lat="46.15471" lon="6.64102">
        <ele>1529</ele>
        <time>2022-07-31T10:55:40Z</time>
      </trkpt>
      <trkpt lat="46.15471" lon="6.64101">
        <ele>1530</ele>
        <time>2022-07-31T10:55:41Z</time>
      </trkpt>
      <trkpt lat="46.1547" lon="6.641">
        <ele>1530</ele>
        <time>2022-07-31T10:55:42Z</time>
      </trkpt>
      <trkpt lat="46.15469" lon="6.64101">
        <ele>1530</ele>
        <time>2022-07-31T10:55:43Z</time>
      </trkpt>
      <trkpt lat="46.15467" lon="6.64103">
        <ele>1530</ele>
        <time>2022-07-31T10:55:44Z</time>
      </trkpt>
      <trkpt lat="46.15467" lon="6.64105">
        <ele>1530</ele>
        <time>2022-07-31T10:55:45Z</time>
      </trkpt>
      <trkpt lat="46.15467" lon="6.64107">
        <ele>1530</ele>
        <time>2022-07-31T10:55:46Z</time>
      </trkpt>
      <trkpt lat="46.15468" lon="6.64109">
        <ele>1531</ele>
        <time>2022-07-31T10:55:47Z</time>
      </trkpt>
      <trkpt lat="46.15467" lon="6.64111">
        <ele>1531</ele>
        <time>2022-07-31T10:55:48Z</time>
      </trkpt>
      <trkpt lat="46.15467" lon="6.64113">
        <ele>1531</ele>
        <time>2022-07-31T10:55:49Z</time>
      </trkpt>
      <trkpt lat="46.15467" lon="6.64114">
        <ele>1531</ele>
        <time>2022-07-31T10:55:50Z</time>
      </trkpt>
      <trkpt lat="46.15468" lon="6.64115">
        <ele>1531</ele>
        <time>2022-07-31T10:55:51Z</time>
      </trkpt>
      <trkpt lat="46.15469" lon="6.64117">
        <ele>1531</ele>
        <time>2022-07-31T10:55:52Z</time>
      </trkpt>
      <trkpt lat="46.15469" lon="6.64117">
        <ele>1531</ele>
        <time>2022-07-31T10:55:53Z</time>
      </trkpt>
      <trkpt lat="46.1547" lon="6.64119">
        <ele>1531</ele>
        <time>2022-07-31T10:55:54Z</time>
      </trkpt>
      <trkpt lat="46.1547" lon="6.6412">
        <ele>1531</ele>
        <time>2022-07-31T10:55:55Z</time>
      </trkpt>
      <trkpt lat="46.15471" lon="6.64121">
        <ele>1531</ele>
        <time>2022-07-31T10:55:56Z</time>
      </trkpt>
      <trkpt lat="46.15471" lon="6.64123">
        <ele>1531</ele>
        <time>2022-07-31T10:55:57Z</time>
      </trkpt>
      <trkpt lat="46.15471" lon="6.64124">
        <ele>1531</ele>
        <time>2022-07-31T10:55:58Z</time>
      </trkpt>
      <trkpt lat="46.15471" lon="6.64126">
        <ele>1530</ele>
        <time>2022-07-31T10:55:59Z</time>
      </trkpt>
      <trkpt lat="46.15471" lon="6.64128">
        <ele>1530</ele>
        <time>2022-07-31T10:56:00Z</time>
      </trkpt>
      <trkpt lat="46.15471" lon="6.6413">
        <ele>1530</ele>
        <time>2022-07-31T10:56:01Z</time>
      </trkpt>
      <trkpt lat="46.15472" lon="6.64132">
        <ele>1530</ele>
        <time>2022-07-31T10:56:02Z</time>
      </trkpt>
      <trkpt lat="46.15472" lon="6.64134">
        <ele>1530</ele>
        <time>2022-07-31T10:56:03Z</time>
      </trkpt>
      <trkpt lat="46.15473" lon="6.64136">
        <ele>1530</ele>
        <time>2022-07-31T10:56:04Z</time>
      </trkpt>
      <trkpt lat="46.15474" lon="6.64138">
        <ele>1530</ele>
        <time>2022-07-31T10:56:05Z</time>
      </trkpt>
      <trkpt lat="46.15474" lon="6.6414">
        <ele>1530</ele>
        <time>2022-07-31T10:56:06Z</time>
      </trkpt>
      <trkpt lat="46.15474" lon="6.64142">
        <ele>1530</ele>
        <time>2022-07-31T10:56:07Z</time>
      </trkpt>
      <trkpt lat="46.15475" lon="6.64143">
        <ele>1530</ele>
        <time>2022-07-31T10:56:08Z</time>
      </trkpt>
      <trkpt lat="46.15475" lon="6.64146">
        <ele>1530</ele>
        <time>2022-07-31T10:56:09Z</time>
      </trkpt>
      <trkpt lat="46.15476" lon="6.64147">
        <ele>1530</ele>
        <time>2022-07-31T10:56:10Z</time>
      </trkpt>
      <trkpt lat="46.15476" lon="6.64149">
        <ele>1529</ele>
        <time>2022-07-31T10:56:11Z</time>
      </trkpt>
      <trkpt lat="46.15478" lon="6.64151">
        <ele>1529</ele>
        <time>2022-07-31T10:56:12Z</time>
      </trkpt>
      <trkpt lat="46.15478" lon="6.64152">
        <ele>1529</ele>
        <time>2022-07-31T10:56:13Z</time>
      </trkpt>
      <trkpt lat="46.15478" lon="6.64154">
        <ele>1529</ele>
        <time>2022-07-31T10:56:14Z</time>
      </trkpt>
      <trkpt lat="46.15479" lon="6.64156">
        <ele>1529</ele>
        <time>2022-07-31T10:56:15Z</time>
      </trkpt>
      <trkpt lat="46.1548" lon="6.64158">
        <ele>1529</ele>
        <time>2022-07-31T10:56:16Z</time>
      </trkpt>
      <trkpt lat="46.1548" lon="6.64159">
        <ele>1529</ele>
        <time>2022-07-31T10:56:17Z</time>
      </trkpt>
      <trkpt lat="46.1548" lon="6.6416">
        <ele>1529</ele>
        <time>2022-07-31T10:56:18Z</time>
      </trkpt>
      <trkpt lat="46.15481" lon="6.64161">
        <ele>1529</ele>
        <time>2022-07-31T10:56:19Z</time>
      </trkpt>
      <trkpt lat="46.15481" lon="6.64162">
        <ele>1528</ele>
        <time>2022-07-31T10:56:20Z</time>
      </trkpt>
      <trkpt lat="46.15483" lon="6.64163">
        <ele>1528</ele>
        <time>2022-07-31T10:56:21Z</time>
      </trkpt>
      <trkpt lat="46.15483" lon="6.64164">
        <ele>1528</ele>
        <time>2022-07-31T10:56:22Z</time>
      </trkpt>
      <trkpt lat="46.15484" lon="6.64166">
        <ele>1528</ele>
        <time>2022-07-31T10:56:23Z</time>
      </trkpt>
      <trkpt lat="46.15484" lon="6.64168">
        <ele>1528</ele>
        <time>2022-07-31T10:56:24Z</time>
      </trkpt>
      <trkpt lat="46.15484" lon="6.6417">
        <ele>1528</ele>
        <time>2022-07-31T10:56:25Z</time>
      </trkpt>
      <trkpt lat="46.15484" lon="6.64171">
        <ele>1527</ele>
        <time>2022-07-31T10:56:26Z</time>
      </trkpt>
      <trkpt lat="46.15484" lon="6.64173">
        <ele>1527</ele>
        <time>2022-07-31T10:56:27Z</time>
      </trkpt>
      <trkpt lat="46.15484" lon="6.64175">
        <ele>1527</ele>
        <time>2022-07-31T10:56:28Z</time>
      </trkpt>
      <trkpt lat="46.15483" lon="6.64177">
        <ele>1527</ele>
        <time>2022-07-31T10:56:29Z</time>
      </trkpt>
      <trkpt lat="46.15483" lon="6.64179">
        <ele>1527</ele>
        <time>2022-07-31T10:56:30Z</time>
      </trkpt>
      <trkpt lat="46.15483" lon="6.64181">
        <ele>1526</ele>
        <time>2022-07-31T10:56:31Z</time>
      </trkpt>
      <trkpt lat="46.15483" lon="6.64184">
        <ele>1526</ele>
        <time>2022-07-31T10:56:32Z</time>
      </trkpt>
      <trkpt lat="46.15483" lon="6.64187">
        <ele>1526</ele>
        <time>2022-07-31T10:56:33Z</time>
      </trkpt>
      <trkpt lat="46.15483" lon="6.64189">
        <ele>1526</ele>
        <time>2022-07-31T10:56:34Z</time>
      </trkpt>
      <trkpt lat="46.15483" lon="6.64192">
        <ele>1526</ele>
        <time>2022-07-31T10:56:35Z</time>
      </trkpt>
      <trkpt lat="46.15483" lon="6.64194">
        <ele>1525</ele>
        <time>2022-07-31T10:56:36Z</time>
      </trkpt>
      <trkpt lat="46.15484" lon="6.64196">
        <ele>1525</ele>
        <time>2022-07-31T10:56:37Z</time>
      </trkpt>
      <trkpt lat="46.15484" lon="6.64198">
        <ele>1525</ele>
        <time>2022-07-31T10:56:38Z</time>
      </trkpt>
      <trkpt lat="46.15485" lon="6.64201">
        <ele>1525</ele>
        <time>2022-07-31T10:56:39Z</time>
      </trkpt>
      <trkpt lat="46.15485" lon="6.64202">
        <ele>1524</ele>
        <time>2022-07-31T10:56:40Z</time>
      </trkpt>
      <trkpt lat="46.15485" lon="6.64205">
        <ele>1524</ele>
        <time>2022-07-31T10:56:41Z</time>
      </trkpt>
      <trkpt lat="46.15486" lon="6.64206">
        <ele>1524</ele>
        <time>2022-07-31T10:56:42Z</time>
      </trkpt>
      <trkpt lat="46.15486" lon="6.64207">
        <ele>1524</ele>
        <time>2022-07-31T10:56:43Z</time>
      </trkpt>
      <trkpt lat="46.15486" lon="6.64208">
        <ele>1523</ele>
        <time>2022-07-31T10:56:44Z</time>
      </trkpt>
      <trkpt lat="46.15486" lon="6.64209">
        <ele>1523</ele>
        <time>2022-07-31T10:56:45Z</time>
      </trkpt>
      <trkpt lat="46.15486" lon="6.64209">
        <ele>1523</ele>
        <time>2022-07-31T10:56:46Z</time>
      </trkpt>
      <trkpt lat="46.15486" lon="6.64209">
        <ele>1523</ele>
        <time>2022-07-31T10:56:47Z</time>
      </trkpt>
      <trkpt lat="46.15486" lon="6.64208">
        <ele>1523</ele>
        <time>2022-07-31T10:56:48Z</time>
      </trkpt>
      <trkpt lat="46.15486" lon="6.64208">
        <ele>1522</ele>
        <time>2022-07-31T10:56:49Z</time>
      </trkpt>
      <trkpt lat="46.15487" lon="6.6421">
        <ele>1522</ele>
        <time>2022-07-31T10:56:50Z</time>
      </trkpt>
      <trkpt lat="46.15487" lon="6.64211">
        <ele>1522</ele>
        <time>2022-07-31T10:56:51Z</time>
      </trkpt>
      <trkpt lat="46.15488" lon="6.64212">
        <ele>1522</ele>
        <time>2022-07-31T10:56:52Z</time>
      </trkpt>
      <trkpt lat="46.15489" lon="6.64214">
        <ele>1522</ele>
        <time>2022-07-31T10:56:53Z</time>
      </trkpt>
      <trkpt lat="46.15489" lon="6.64216">
        <ele>1522</ele>
        <time>2022-07-31T10:56:54Z</time>
      </trkpt>
      <trkpt lat="46.15489" lon="6.64217">
        <ele>1522</ele>
        <time>2022-07-31T10:56:55Z</time>
      </trkpt>
      <trkpt lat="46.1549" lon="6.64219">
        <ele>1521</ele>
        <time>2022-07-31T10:56:56Z</time>
      </trkpt>
      <trkpt lat="46.15491" lon="6.64221">
        <ele>1521</ele>
        <time>2022-07-31T10:56:57Z</time>
      </trkpt>
      <trkpt lat="46.15492" lon="6.64221">
        <ele>1521</ele>
        <time>2022-07-31T10:56:58Z</time>
      </trkpt>
      <trkpt lat="46.15493" lon="6.64223">
        <ele>1521</ele>
        <time>2022-07-31T10:56:59Z</time>
      </trkpt>
      <trkpt lat="46.15494" lon="6.64224">
        <ele>1521</ele>
        <time>2022-07-31T10:57:00Z</time>
      </trkpt>
      <trkpt lat="46.15495" lon="6.64226">
        <ele>1521</ele>
        <time>2022-07-31T10:57:01Z</time>
      </trkpt>
      <trkpt lat="46.15496" lon="6.64227">
        <ele>1521</ele>
        <time>2022-07-31T10:57:02Z</time>
      </trkpt>
      <trkpt lat="46.15496" lon="6.64228">
        <ele>1521</ele>
        <time>2022-07-31T10:57:03Z</time>
      </trkpt>
      <trkpt lat="46.15498" lon="6.6423">
        <ele>1521</ele>
        <time>2022-07-31T10:57:04Z</time>
      </trkpt>
      <trkpt lat="46.15499" lon="6.64231">
        <ele>1521</ele>
        <time>2022-07-31T10:57:05Z</time>
      </trkpt>
      <trkpt lat="46.15499" lon="6.64232">
        <ele>1521</ele>
        <time>2022-07-31T10:57:06Z</time>
      </trkpt>
      <trkpt lat="46.155" lon="6.64232">
        <ele>1521</ele>
        <time>2022-07-31T10:57:07Z</time>
      </trkpt>
      <trkpt lat="46.15501" lon="6.64233">
        <ele>1521</ele>
        <time>2022-07-31T10:57:08Z</time>
      </trkpt>
      <trkpt lat="46.15502" lon="6.64234">
        <ele>1521</ele>
        <time>2022-07-31T10:57:09Z</time>
      </trkpt>
      <trkpt lat="46.15503" lon="6.64235">
        <ele>1521</ele>
        <time>2022-07-31T10:57:10Z</time>
      </trkpt>
      <trkpt lat="46.15504" lon="6.64236">
        <ele>1521</ele>
        <time>2022-07-31T10:57:11Z</time>
      </trkpt>
      <trkpt lat="46.15505" lon="6.64237">
        <ele>1521</ele>
        <time>2022-07-31T10:57:12Z</time>
      </trkpt>
      <trkpt lat="46.15505" lon="6.64238">
        <ele>1521</ele>
        <time>2022-07-31T10:57:13Z</time>
      </trkpt>
      <trkpt lat="46.15506" lon="6.6424">
        <ele>1520</ele>
        <time>2022-07-31T10:57:14Z</time>
      </trkpt>
      <trkpt lat="46.15507" lon="6.64242">
        <ele>1520</ele>
        <time>2022-07-31T10:57:15Z</time>
      </trkpt>
      <trkpt lat="46.15507" lon="6.64243">
        <ele>1520</ele>
        <time>2022-07-31T10:57:16Z</time>
      </trkpt>
      <trkpt lat="46.15508" lon="6.64243">
        <ele>1520</ele>
        <time>2022-07-31T10:57:17Z</time>
      </trkpt>
      <trkpt lat="46.15509" lon="6.64244">
        <ele>1520</ele>
        <time>2022-07-31T10:57:18Z</time>
      </trkpt>
      <trkpt lat="46.1551" lon="6.64245">
        <ele>1520</ele>
        <time>2022-07-31T10:57:19Z</time>
      </trkpt>
      <trkpt lat="46.15511" lon="6.64246">
        <ele>1519</ele>
        <time>2022-07-31T10:57:20Z</time>
      </trkpt>
      <trkpt lat="46.15512" lon="6.64247">
        <ele>1519</ele>
        <time>2022-07-31T10:57:21Z</time>
      </trkpt>
      <trkpt lat="46.15513" lon="6.64249">
        <ele>1519</ele>
        <time>2022-07-31T10:57:22Z</time>
      </trkpt>
      <trkpt lat="46.15513" lon="6.64251">
        <ele>1519</ele>
        <time>2022-07-31T10:57:23Z</time>
      </trkpt>
      <trkpt lat="46.15515" lon="6.64253">
        <ele>1519</ele>
        <time>2022-07-31T10:57:24Z</time>
      </trkpt>
      <trkpt lat="46.15516" lon="6.64255">
        <ele>1518</ele>
        <time>2022-07-31T10:57:25Z</time>
      </trkpt>
      <trkpt lat="46.15517" lon="6.64257">
        <ele>1518</ele>
        <time>2022-07-31T10:57:26Z</time>
      </trkpt>
      <trkpt lat="46.15519" lon="6.64258">
        <ele>1518</ele>
        <time>2022-07-31T10:57:27Z</time>
      </trkpt>
      <trkpt lat="46.15521" lon="6.64259">
        <ele>1518</ele>
        <time>2022-07-31T10:57:28Z</time>
      </trkpt>
      <trkpt lat="46.15522" lon="6.6426">
        <ele>1518</ele>
        <time>2022-07-31T10:57:29Z</time>
      </trkpt>
      <trkpt lat="46.15523" lon="6.64262">
        <ele>1518</ele>
        <time>2022-07-31T10:57:30Z</time>
      </trkpt>
      <trkpt lat="46.15524" lon="6.64263">
        <ele>1517</ele>
        <time>2022-07-31T10:57:31Z</time>
      </trkpt>
      <trkpt lat="46.15525" lon="6.64264">
        <ele>1517</ele>
        <time>2022-07-31T10:57:32Z</time>
      </trkpt>
      <trkpt lat="46.15526" lon="6.64265">
        <ele>1517</ele>
        <time>2022-07-31T10:57:33Z</time>
      </trkpt>
      <trkpt lat="46.15527" lon="6.64268">
        <ele>1517</ele>
        <time>2022-07-31T10:57:34Z</time>
      </trkpt>
      <trkpt lat="46.15528" lon="6.64269">
        <ele>1517</ele>
        <time>2022-07-31T10:57:35Z</time>
      </trkpt>
      <trkpt lat="46.15529" lon="6.64271">
        <ele>1516</ele>
        <time>2022-07-31T10:57:36Z</time>
      </trkpt>
      <trkpt lat="46.15529" lon="6.64273">
        <ele>1516</ele>
        <time>2022-07-31T10:57:37Z</time>
      </trkpt>
      <trkpt lat="46.15529" lon="6.64274">
        <ele>1516</ele>
        <time>2022-07-31T10:57:38Z</time>
      </trkpt>
      <trkpt lat="46.1553" lon="6.64275">
        <ele>1516</ele>
        <time>2022-07-31T10:57:39Z</time>
      </trkpt>
      <trkpt lat="46.1553" lon="6.64277">
        <ele>1516</ele>
        <time>2022-07-31T10:57:40Z</time>
      </trkpt>
      <trkpt lat="46.1553" lon="6.64278">
        <ele>1516</ele>
        <time>2022-07-31T10:57:41Z</time>
      </trkpt>
      <trkpt lat="46.15532" lon="6.64278">
        <ele>1516</ele>
        <time>2022-07-31T10:57:42Z</time>
      </trkpt>
      <trkpt lat="46.15533" lon="6.64279">
        <ele>1515</ele>
        <time>2022-07-31T10:57:43Z</time>
      </trkpt>
      <trkpt lat="46.15533" lon="6.64281">
        <ele>1515</ele>
        <time>2022-07-31T10:57:44Z</time>
      </trkpt>
      <trkpt lat="46.15533" lon="6.64283">
        <ele>1515</ele>
        <time>2022-07-31T10:57:45Z</time>
      </trkpt>
      <trkpt lat="46.15535" lon="6.64284">
        <ele>1515</ele>
        <time>2022-07-31T10:57:46Z</time>
      </trkpt>
      <trkpt lat="46.15535" lon="6.64284">
        <ele>1515</ele>
        <time>2022-07-31T10:57:47Z</time>
      </trkpt>
      <trkpt lat="46.15536" lon="6.64285">
        <ele>1515</ele>
        <time>2022-07-31T10:57:48Z</time>
      </trkpt>
      <trkpt lat="46.15536" lon="6.64286">
        <ele>1515</ele>
        <time>2022-07-31T10:57:49Z</time>
      </trkpt>
      <trkpt lat="46.15537" lon="6.64287">
        <ele>1515</ele>
        <time>2022-07-31T10:57:50Z</time>
      </trkpt>
      <trkpt lat="46.15538" lon="6.64288">
        <ele>1515</ele>
        <time>2022-07-31T10:57:51Z</time>
      </trkpt>
      <trkpt lat="46.1554" lon="6.64289">
        <ele>1515</ele>
        <time>2022-07-31T10:57:52Z</time>
      </trkpt>
      <trkpt lat="46.1554" lon="6.6429">
        <ele>1514</ele>
        <time>2022-07-31T10:57:53Z</time>
      </trkpt>
      <trkpt lat="46.15541" lon="6.64292">
        <ele>1514</ele>
        <time>2022-07-31T10:57:54Z</time>
      </trkpt>
      <trkpt lat="46.15541" lon="6.64293">
        <ele>1514</ele>
        <time>2022-07-31T10:57:55Z</time>
      </trkpt>
      <trkpt lat="46.15541" lon="6.64296">
        <ele>1514</ele>
        <time>2022-07-31T10:57:56Z</time>
      </trkpt>
      <trkpt lat="46.15542" lon="6.64297">
        <ele>1514</ele>
        <time>2022-07-31T10:57:57Z</time>
      </trkpt>
      <trkpt lat="46.15542" lon="6.64298">
        <ele>1514</ele>
        <time>2022-07-31T10:57:58Z</time>
      </trkpt>
      <trkpt lat="46.15543" lon="6.64299">
        <ele>1514</ele>
        <time>2022-07-31T10:57:59Z</time>
      </trkpt>
      <trkpt lat="46.15543" lon="6.643">
        <ele>1514</ele>
        <time>2022-07-31T10:58:00Z</time>
      </trkpt>
      <trkpt lat="46.15544" lon="6.643">
        <ele>1514</ele>
        <time>2022-07-31T10:58:01Z</time>
      </trkpt>
      <trkpt lat="46.15544" lon="6.64301">
        <ele>1514</ele>
        <time>2022-07-31T10:58:02Z</time>
      </trkpt>
      <trkpt lat="46.15544" lon="6.64302">
        <ele>1514</ele>
        <time>2022-07-31T10:58:03Z</time>
      </trkpt>
      <trkpt lat="46.15545" lon="6.64303">
        <ele>1514</ele>
        <time>2022-07-31T10:58:04Z</time>
      </trkpt>
      <trkpt lat="46.15545" lon="6.64304">
        <ele>1514</ele>
        <time>2022-07-31T10:58:05Z</time>
      </trkpt>
      <trkpt lat="46.15546" lon="6.64305">
        <ele>1514</ele>
        <time>2022-07-31T10:58:06Z</time>
      </trkpt>
      <trkpt lat="46.15546" lon="6.64305">
        <ele>1514</ele>
        <time>2022-07-31T10:58:07Z</time>
      </trkpt>
      <trkpt lat="46.15547" lon="6.64305">
        <ele>1514</ele>
        <time>2022-07-31T10:58:08Z</time>
      </trkpt>
      <trkpt lat="46.15548" lon="6.64306">
        <ele>1513</ele>
        <time>2022-07-31T10:58:09Z</time>
      </trkpt>
      <trkpt lat="46.15549" lon="6.64306">
        <ele>1513</ele>
        <time>2022-07-31T10:58:10Z</time>
      </trkpt>
      <trkpt lat="46.1555" lon="6.64307">
        <ele>1513</ele>
        <time>2022-07-31T10:58:11Z</time>
      </trkpt>
      <trkpt lat="46.1555" lon="6.64309">
        <ele>1513</ele>
        <time>2022-07-31T10:58:12Z</time>
      </trkpt>
      <trkpt lat="46.15552" lon="6.6431">
        <ele>1513</ele>
        <time>2022-07-31T10:58:13Z</time>
      </trkpt>
      <trkpt lat="46.15552" lon="6.64312">
        <ele>1513</ele>
        <time>2022-07-31T10:58:14Z</time>
      </trkpt>
      <trkpt lat="46.15553" lon="6.64313">
        <ele>1512</ele>
        <time>2022-07-31T10:58:15Z</time>
      </trkpt>
      <trkpt lat="46.15554" lon="6.64314">
        <ele>1512</ele>
        <time>2022-07-31T10:58:16Z</time>
      </trkpt>
      <trkpt lat="46.15554" lon="6.64315">
        <ele>1512</ele>
        <time>2022-07-31T10:58:17Z</time>
      </trkpt>
      <trkpt lat="46.15554" lon="6.64317">
        <ele>1512</ele>
        <time>2022-07-31T10:58:18Z</time>
      </trkpt>
      <trkpt lat="46.15554" lon="6.6432">
        <ele>1512</ele>
        <time>2022-07-31T10:58:19Z</time>
      </trkpt>
      <trkpt lat="46.15553" lon="6.64322">
        <ele>1512</ele>
        <time>2022-07-31T10:58:20Z</time>
      </trkpt>
      <trkpt lat="46.15553" lon="6.64324">
        <ele>1511</ele>
        <time>2022-07-31T10:58:21Z</time>
      </trkpt>
      <trkpt lat="46.15554" lon="6.64326">
        <ele>1511</ele>
        <time>2022-07-31T10:58:22Z</time>
      </trkpt>
      <trkpt lat="46.15554" lon="6.64328">
        <ele>1511</ele>
        <time>2022-07-31T10:58:23Z</time>
      </trkpt>
      <trkpt lat="46.15553" lon="6.6433">
        <ele>1511</ele>
        <time>2022-07-31T10:58:24Z</time>
      </trkpt>
      <trkpt lat="46.15553" lon="6.64332">
        <ele>1511</ele>
        <time>2022-07-31T10:58:25Z</time>
      </trkpt>
      <trkpt lat="46.15553" lon="6.64335">
        <ele>1511</ele>
        <time>2022-07-31T10:58:26Z</time>
      </trkpt>
      <trkpt lat="46.15553" lon="6.64337">
        <ele>1511</ele>
        <time>2022-07-31T10:58:27Z</time>
      </trkpt>
      <trkpt lat="46.15553" lon="6.6434">
        <ele>1511</ele>
        <time>2022-07-31T10:58:28Z</time>
      </trkpt>
      <trkpt lat="46.15553" lon="6.64341">
        <ele>1511</ele>
        <time>2022-07-31T10:58:29Z</time>
      </trkpt>
      <trkpt lat="46.15553" lon="6.64341">
        <ele>1510</ele>
        <time>2022-07-31T10:58:30Z</time>
      </trkpt>
      <trkpt lat="46.15553" lon="6.64341">
        <ele>1510</ele>
        <time>2022-07-31T10:58:31Z</time>
      </trkpt>
      <trkpt lat="46.15553" lon="6.64342">
        <ele>1510</ele>
        <time>2022-07-31T10:58:32Z</time>
      </trkpt>
      <trkpt lat="46.15553" lon="6.64342">
        <ele>1510</ele>
        <time>2022-07-31T10:58:33Z</time>
      </trkpt>
      <trkpt lat="46.15553" lon="6.64342">
        <ele>1510</ele>
        <time>2022-07-31T10:58:34Z</time>
      </trkpt>
      <trkpt lat="46.15552" lon="6.64342">
        <ele>1510</ele>
        <time>2022-07-31T10:58:35Z</time>
      </trkpt>
      <trkpt lat="46.15552" lon="6.64343">
        <ele>1510</ele>
        <time>2022-07-31T10:58:36Z</time>
      </trkpt>
      <trkpt lat="46.15553" lon="6.64344">
        <ele>1509</ele>
        <time>2022-07-31T10:58:37Z</time>
      </trkpt>
      <trkpt lat="46.15553" lon="6.64345">
        <ele>1509</ele>
        <time>2022-07-31T10:58:38Z</time>
      </trkpt>
      <trkpt lat="46.15553" lon="6.64345">
        <ele>1509</ele>
        <time>2022-07-31T10:58:39Z</time>
      </trkpt>
      <trkpt lat="46.15553" lon="6.64346">
        <ele>1509</ele>
        <time>2022-07-31T10:58:40Z</time>
      </trkpt>
      <trkpt lat="46.15552" lon="6.64347">
        <ele>1509</ele>
        <time>2022-07-31T10:58:41Z</time>
      </trkpt>
      <trkpt lat="46.15551" lon="6.64348">
        <ele>1509</ele>
        <time>2022-07-31T10:58:42Z</time>
      </trkpt>
      <trkpt lat="46.1555" lon="6.64349">
        <ele>1508</ele>
        <time>2022-07-31T10:58:43Z</time>
      </trkpt>
      <trkpt lat="46.1555" lon="6.6435">
        <ele>1508</ele>
        <time>2022-07-31T10:58:44Z</time>
      </trkpt>
      <trkpt lat="46.15549" lon="6.64353">
        <ele>1508</ele>
        <time>2022-07-31T10:58:45Z</time>
      </trkpt>
      <trkpt lat="46.15547" lon="6.64354">
        <ele>1508</ele>
        <time>2022-07-31T10:58:46Z</time>
      </trkpt>
      <trkpt lat="46.15546" lon="6.64356">
        <ele>1508</ele>
        <time>2022-07-31T10:58:47Z</time>
      </trkpt>
      <trkpt lat="46.15546" lon="6.64358">
        <ele>1507</ele>
        <time>2022-07-31T10:58:48Z</time>
      </trkpt>
      <trkpt lat="46.15546" lon="6.6436">
        <ele>1507</ele>
        <time>2022-07-31T10:58:49Z</time>
      </trkpt>
      <trkpt lat="46.15546" lon="6.64362">
        <ele>1507</ele>
        <time>2022-07-31T10:58:50Z</time>
      </trkpt>
      <trkpt lat="46.15546" lon="6.64363">
        <ele>1507</ele>
        <time>2022-07-31T10:58:51Z</time>
      </trkpt>
      <trkpt lat="46.15547" lon="6.64365">
        <ele>1507</ele>
        <time>2022-07-31T10:58:52Z</time>
      </trkpt>
      <trkpt lat="46.15548" lon="6.64366">
        <ele>1506</ele>
        <time>2022-07-31T10:58:53Z</time>
      </trkpt>
      <trkpt lat="46.15548" lon="6.64367">
        <ele>1506</ele>
        <time>2022-07-31T10:58:54Z</time>
      </trkpt>
      <trkpt lat="46.15548" lon="6.64368">
        <ele>1506</ele>
        <time>2022-07-31T10:58:55Z</time>
      </trkpt>
      <trkpt lat="46.15548" lon="6.64368">
        <ele>1506</ele>
        <time>2022-07-31T10:58:56Z</time>
      </trkpt>
      <trkpt lat="46.15548" lon="6.6437">
        <ele>1506</ele>
        <time>2022-07-31T10:58:57Z</time>
      </trkpt>
      <trkpt lat="46.15549" lon="6.64372">
        <ele>1506</ele>
        <time>2022-07-31T10:58:58Z</time>
      </trkpt>
      <trkpt lat="46.15549" lon="6.64374">
        <ele>1506</ele>
        <time>2022-07-31T10:58:59Z</time>
      </trkpt>
      <trkpt lat="46.15548" lon="6.64375">
        <ele>1505</ele>
        <time>2022-07-31T10:59:00Z</time>
      </trkpt>
      <trkpt lat="46.15547" lon="6.64377">
        <ele>1505</ele>
        <time>2022-07-31T10:59:01Z</time>
      </trkpt>
      <trkpt lat="46.15547" lon="6.64379">
        <ele>1505</ele>
        <time>2022-07-31T10:59:02Z</time>
      </trkpt>
      <trkpt lat="46.15546" lon="6.6438">
        <ele>1505</ele>
        <time>2022-07-31T10:59:03Z</time>
      </trkpt>
      <trkpt lat="46.15546" lon="6.64382">
        <ele>1505</ele>
        <time>2022-07-31T10:59:04Z</time>
      </trkpt>
      <trkpt lat="46.15546" lon="6.64384">
        <ele>1505</ele>
        <time>2022-07-31T10:59:05Z</time>
      </trkpt>
      <trkpt lat="46.15546" lon="6.64386">
        <ele>1505</ele>
        <time>2022-07-31T10:59:06Z</time>
      </trkpt>
      <trkpt lat="46.15546" lon="6.64387">
        <ele>1504</ele>
        <time>2022-07-31T10:59:07Z</time>
      </trkpt>
      <trkpt lat="46.15546" lon="6.64389">
        <ele>1504</ele>
        <time>2022-07-31T10:59:08Z</time>
      </trkpt>
      <trkpt lat="46.15546" lon="6.64391">
        <ele>1504</ele>
        <time>2022-07-31T10:59:09Z</time>
      </trkpt>
      <trkpt lat="46.15546" lon="6.64393">
        <ele>1504</ele>
        <time>2022-07-31T10:59:10Z</time>
      </trkpt>
      <trkpt lat="46.15546" lon="6.64395">
        <ele>1504</ele>
        <time>2022-07-31T10:59:11Z</time>
      </trkpt>
      <trkpt lat="46.15546" lon="6.64396">
        <ele>1504</ele>
        <time>2022-07-31T10:59:12Z</time>
      </trkpt>
      <trkpt lat="46.15546" lon="6.64398">
        <ele>1504</ele>
        <time>2022-07-31T10:59:13Z</time>
      </trkpt>
      <trkpt lat="46.15546" lon="6.644">
        <ele>1504</ele>
        <time>2022-07-31T10:59:14Z</time>
      </trkpt>
      <trkpt lat="46.15546" lon="6.64401">
        <ele>1504</ele>
        <time>2022-07-31T10:59:15Z</time>
      </trkpt>
      <trkpt lat="46.15545" lon="6.64402">
        <ele>1504</ele>
        <time>2022-07-31T10:59:16Z</time>
      </trkpt>
      <trkpt lat="46.15545" lon="6.64405">
        <ele>1504</ele>
        <time>2022-07-31T10:59:17Z</time>
      </trkpt>
      <trkpt lat="46.15545" lon="6.64407">
        <ele>1504</ele>
        <time>2022-07-31T10:59:18Z</time>
      </trkpt>
      <trkpt lat="46.15545" lon="6.64408">
        <ele>1504</ele>
        <time>2022-07-31T10:59:19Z</time>
      </trkpt>
      <trkpt lat="46.15545" lon="6.6441">
        <ele>1504</ele>
        <time>2022-07-31T10:59:20Z</time>
      </trkpt>
      <trkpt lat="46.15545" lon="6.64411">
        <ele>1503</ele>
        <time>2022-07-31T10:59:21Z</time>
      </trkpt>
      <trkpt lat="46.15545" lon="6.64413">
        <ele>1503</ele>
        <time>2022-07-31T10:59:22Z</time>
      </trkpt>
      <trkpt lat="46.15546" lon="6.64414">
        <ele>1503</ele>
        <time>2022-07-31T10:59:23Z</time>
      </trkpt>
      <trkpt lat="46.15546" lon="6.64416">
        <ele>1503</ele>
        <time>2022-07-31T10:59:24Z</time>
      </trkpt>
      <trkpt lat="46.15547" lon="6.64418">
        <ele>1502</ele>
        <time>2022-07-31T10:59:25Z</time>
      </trkpt>
      <trkpt lat="46.15548" lon="6.64419">
        <ele>1502</ele>
        <time>2022-07-31T10:59:26Z</time>
      </trkpt>
      <trkpt lat="46.15549" lon="6.6442">
        <ele>1502</ele>
        <time>2022-07-31T10:59:27Z</time>
      </trkpt>
      <trkpt lat="46.1555" lon="6.64422">
        <ele>1501</ele>
        <time>2022-07-31T10:59:28Z</time>
      </trkpt>
      <trkpt lat="46.15552" lon="6.64422">
        <ele>1501</ele>
        <time>2022-07-31T10:59:29Z</time>
      </trkpt>
      <trkpt lat="46.15554" lon="6.64421">
        <ele>1501</ele>
        <time>2022-07-31T10:59:30Z</time>
      </trkpt>
      <trkpt lat="46.15554" lon="6.64422">
        <ele>1501</ele>
        <time>2022-07-31T10:59:31Z</time>
      </trkpt>
      <trkpt lat="46.15555" lon="6.64423">
        <ele>1501</ele>
        <time>2022-07-31T10:59:32Z</time>
      </trkpt>
      <trkpt lat="46.15556" lon="6.64424">
        <ele>1501</ele>
        <time>2022-07-31T10:59:33Z</time>
      </trkpt>
      <trkpt lat="46.15557" lon="6.64425">
        <ele>1500</ele>
        <time>2022-07-31T10:59:34Z</time>
      </trkpt>
      <trkpt lat="46.15557" lon="6.64425">
        <ele>1500</ele>
        <time>2022-07-31T10:59:35Z</time>
      </trkpt>
      <trkpt lat="46.15556" lon="6.64427">
        <ele>1500</ele>
        <time>2022-07-31T10:59:36Z</time>
      </trkpt>
      <trkpt lat="46.15556" lon="6.64428">
        <ele>1500</ele>
        <time>2022-07-31T10:59:37Z</time>
      </trkpt>
      <trkpt lat="46.15555" lon="6.64429">
        <ele>1500</ele>
        <time>2022-07-31T10:59:38Z</time>
      </trkpt>
      <trkpt lat="46.15555" lon="6.64431">
        <ele>1500</ele>
        <time>2022-07-31T10:59:39Z</time>
      </trkpt>
      <trkpt lat="46.15555" lon="6.64433">
        <ele>1500</ele>
        <time>2022-07-31T10:59:40Z</time>
      </trkpt>
      <trkpt lat="46.15555" lon="6.64434">
        <ele>1500</ele>
        <time>2022-07-31T10:59:41Z</time>
      </trkpt>
      <trkpt lat="46.15555" lon="6.64435">
        <ele>1499</ele>
        <time>2022-07-31T10:59:42Z</time>
      </trkpt>
      <trkpt lat="46.15555" lon="6.64437">
        <ele>1499</ele>
        <time>2022-07-31T10:59:43Z</time>
      </trkpt>
      <trkpt lat="46.15555" lon="6.64438">
        <ele>1499</ele>
        <time>2022-07-31T10:59:44Z</time>
      </trkpt>
      <trkpt lat="46.15555" lon="6.64439">
        <ele>1499</ele>
        <time>2022-07-31T10:59:45Z</time>
      </trkpt>
      <trkpt lat="46.15555" lon="6.64441">
        <ele>1499</ele>
        <time>2022-07-31T10:59:46Z</time>
      </trkpt>
      <trkpt lat="46.15555" lon="6.64443">
        <ele>1499</ele>
        <time>2022-07-31T10:59:47Z</time>
      </trkpt>
      <trkpt lat="46.15555" lon="6.64444">
        <ele>1499</ele>
        <time>2022-07-31T10:59:48Z</time>
      </trkpt>
      <trkpt lat="46.15555" lon="6.64444">
        <ele>1498</ele>
        <time>2022-07-31T10:59:49Z</time>
      </trkpt>
      <trkpt lat="46.15555" lon="6.64445">
        <ele>1498</ele>
        <time>2022-07-31T10:59:50Z</time>
      </trkpt>
      <trkpt lat="46.15555" lon="6.64446">
        <ele>1498</ele>
        <time>2022-07-31T10:59:51Z</time>
      </trkpt>
      <trkpt lat="46.15554" lon="6.64447">
        <ele>1498</ele>
        <time>2022-07-31T10:59:52Z</time>
      </trkpt>
      <trkpt lat="46.15554" lon="6.64449">
        <ele>1498</ele>
        <time>2022-07-31T10:59:53Z</time>
      </trkpt>
      <trkpt lat="46.15554" lon="6.64451">
        <ele>1498</ele>
        <time>2022-07-31T10:59:54Z</time>
      </trkpt>
      <trkpt lat="46.15555" lon="6.64453">
        <ele>1498</ele>
        <time>2022-07-31T10:59:55Z</time>
      </trkpt>
      <trkpt lat="46.15556" lon="6.64455">
        <ele>1498</ele>
        <time>2022-07-31T10:59:56Z</time>
      </trkpt>
      <trkpt lat="46.15557" lon="6.64456">
        <ele>1498</ele>
        <time>2022-07-31T10:59:57Z</time>
      </trkpt>
      <trkpt lat="46.15558" lon="6.64456">
        <ele>1498</ele>
        <time>2022-07-31T10:59:58Z</time>
      </trkpt>
      <trkpt lat="46.15558" lon="6.64457">
        <ele>1498</ele>
        <time>2022-07-31T10:59:59Z</time>
      </trkpt>
      <trkpt lat="46.1556" lon="6.64457">
        <ele>1498</ele>
        <time>2022-07-31T11:00:00Z</time>
      </trkpt>
      <trkpt lat="46.15561" lon="6.64458">
        <ele>1498</ele>
        <time>2022-07-31T11:00:01Z</time>
      </trkpt>
      <trkpt lat="46.15561" lon="6.64458">
        <ele>1498</ele>
        <time>2022-07-31T11:00:02Z</time>
      </trkpt>
      <trkpt lat="46.15561" lon="6.64459">
        <ele>1498</ele>
        <time>2022-07-31T11:00:03Z</time>
      </trkpt>
      <trkpt lat="46.1556" lon="6.6446">
        <ele>1497</ele>
        <time>2022-07-31T11:00:04Z</time>
      </trkpt>
      <trkpt lat="46.15558" lon="6.6446">
        <ele>1497</ele>
        <time>2022-07-31T11:00:05Z</time>
      </trkpt>
      <trkpt lat="46.15558" lon="6.6446">
        <ele>1497</ele>
        <time>2022-07-31T11:00:06Z</time>
      </trkpt>
      <trkpt lat="46.15557" lon="6.64461">
        <ele>1497</ele>
        <time>2022-07-31T11:00:07Z</time>
      </trkpt>
      <trkpt lat="46.15557" lon="6.64462">
        <ele>1497</ele>
        <time>2022-07-31T11:00:08Z</time>
      </trkpt>
      <trkpt lat="46.15556" lon="6.64464">
        <ele>1497</ele>
        <time>2022-07-31T11:00:09Z</time>
      </trkpt>
      <trkpt lat="46.15556" lon="6.64465">
        <ele>1497</ele>
        <time>2022-07-31T11:00:10Z</time>
      </trkpt>
      <trkpt lat="46.15555" lon="6.64466">
        <ele>1497</ele>
        <time>2022-07-31T11:00:11Z</time>
      </trkpt>
      <trkpt lat="46.15555" lon="6.64467">
        <ele>1496</ele>
        <time>2022-07-31T11:00:12Z</time>
      </trkpt>
      <trkpt lat="46.15554" lon="6.64467">
        <ele>1496</ele>
        <time>2022-07-31T11:00:13Z</time>
      </trkpt>
      <trkpt lat="46.15554" lon="6.64469">
        <ele>1496</ele>
        <time>2022-07-31T11:00:14Z</time>
      </trkpt>
      <trkpt lat="46.15553" lon="6.64469">
        <ele>1496</ele>
        <time>2022-07-31T11:00:15Z</time>
      </trkpt>
      <trkpt lat="46.15553" lon="6.64469">
        <ele>1496</ele>
        <time>2022-07-31T11:00:16Z</time>
      </trkpt>
      <trkpt lat="46.15553" lon="6.64469">
        <ele>1496</ele>
        <time>2022-07-31T11:00:17Z</time>
      </trkpt>
      <trkpt lat="46.15552" lon="6.6447">
        <ele>1496</ele>
        <time>2022-07-31T11:00:18Z</time>
      </trkpt>
      <trkpt lat="46.15551" lon="6.64471">
        <ele>1496</ele>
        <time>2022-07-31T11:00:19Z</time>
      </trkpt>
      <trkpt lat="46.1555" lon="6.64472">
        <ele>1496</ele>
        <time>2022-07-31T11:00:20Z</time>
      </trkpt>
      <trkpt lat="46.15549" lon="6.64473">
        <ele>1495</ele>
        <time>2022-07-31T11:00:21Z</time>
      </trkpt>
      <trkpt lat="46.15548" lon="6.64475">
        <ele>1495</ele>
        <time>2022-07-31T11:00:22Z</time>
      </trkpt>
      <trkpt lat="46.15548" lon="6.64477">
        <ele>1495</ele>
        <time>2022-07-31T11:00:23Z</time>
      </trkpt>
      <trkpt lat="46.15548" lon="6.64479">
        <ele>1495</ele>
        <time>2022-07-31T11:00:24Z</time>
      </trkpt>
      <trkpt lat="46.15547" lon="6.6448">
        <ele>1494</ele>
        <time>2022-07-31T11:00:25Z</time>
      </trkpt>
      <trkpt lat="46.15547" lon="6.64481">
        <ele>1494</ele>
        <time>2022-07-31T11:00:26Z</time>
      </trkpt>
      <trkpt lat="46.15546" lon="6.64482">
        <ele>1494</ele>
        <time>2022-07-31T11:00:27Z</time>
      </trkpt>
      <trkpt lat="46.15546" lon="6.64483">
        <ele>1494</ele>
        <time>2022-07-31T11:00:28Z</time>
      </trkpt>
      <trkpt lat="46.15545" lon="6.64484">
        <ele>1494</ele>
        <time>2022-07-31T11:00:29Z</time>
      </trkpt>
      <trkpt lat="46.15544" lon="6.64484">
        <ele>1493</ele>
        <time>2022-07-31T11:00:30Z</time>
      </trkpt>
      <trkpt lat="46.15544" lon="6.64484">
        <ele>1493</ele>
        <time>2022-07-31T11:00:31Z</time>
      </trkpt>
      <trkpt lat="46.15544" lon="6.64484">
        <ele>1493</ele>
        <time>2022-07-31T11:00:32Z</time>
      </trkpt>
      <trkpt lat="46.15544" lon="6.64483">
        <ele>1493</ele>
        <time>2022-07-31T11:00:33Z</time>
      </trkpt>
      <trkpt lat="46.15544" lon="6.64483">
        <ele>1493</ele>
        <time>2022-07-31T11:00:34Z</time>
      </trkpt>
      <trkpt lat="46.15544" lon="6.64483">
        <ele>1492</ele>
        <time>2022-07-31T11:00:35Z</time>
      </trkpt>
      <trkpt lat="46.15544" lon="6.64482">
        <ele>1492</ele>
        <time>2022-07-31T11:00:36Z</time>
      </trkpt>
      <trkpt lat="46.15545" lon="6.64482">
        <ele>1492</ele>
        <time>2022-07-31T11:00:37Z</time>
      </trkpt>
      <trkpt lat="46.15545" lon="6.64481">
        <ele>1492</ele>
        <time>2022-07-31T11:00:38Z</time>
      </trkpt>
      <trkpt lat="46.15545" lon="6.6448">
        <ele>1492</ele>
        <time>2022-07-31T11:00:39Z</time>
      </trkpt>
      <trkpt lat="46.15545" lon="6.6448">
        <ele>1492</ele>
        <time>2022-07-31T11:00:40Z</time>
      </trkpt>
      <trkpt lat="46.15545" lon="6.6448">
        <ele>1492</ele>
        <time>2022-07-31T11:00:41Z</time>
      </trkpt>
      <trkpt lat="46.15545" lon="6.64481">
        <ele>1492</ele>
        <time>2022-07-31T11:00:42Z</time>
      </trkpt>
      <trkpt lat="46.15545" lon="6.64481">
        <ele>1492</ele>
        <time>2022-07-31T11:00:43Z</time>
      </trkpt>
      <trkpt lat="46.15545" lon="6.64482">
        <ele>1492</ele>
        <time>2022-07-31T11:00:44Z</time>
      </trkpt>
      <trkpt lat="46.15545" lon="6.64482">
        <ele>1492</ele>
        <time>2022-07-31T11:00:45Z</time>
      </trkpt>
      <trkpt lat="46.15545" lon="6.64482">
        <ele>1491</ele>
        <time>2022-07-31T11:00:46Z</time>
      </trkpt>
      <trkpt lat="46.15545" lon="6.64483">
        <ele>1491</ele>
        <time>2022-07-31T11:00:47Z</time>
      </trkpt>
      <trkpt lat="46.15545" lon="6.64483">
        <ele>1492</ele>
        <time>2022-07-31T11:00:48Z</time>
      </trkpt>
      <trkpt lat="46.15545" lon="6.64484">
        <ele>1492</ele>
        <time>2022-07-31T11:00:49Z</time>
      </trkpt>
      <trkpt lat="46.15545" lon="6.64484">
        <ele>1492</ele>
        <time>2022-07-31T11:00:50Z</time>
      </trkpt>
      <trkpt lat="46.15545" lon="6.64485">
        <ele>1492</ele>
        <time>2022-07-31T11:00:51Z</time>
      </trkpt>
      <trkpt lat="46.15544" lon="6.64485">
        <ele>1492</ele>
        <time>2022-07-31T11:00:52Z</time>
      </trkpt>
      <trkpt lat="46.15544" lon="6.64486">
        <ele>1492</ele>
        <time>2022-07-31T11:00:53Z</time>
      </trkpt>
      <trkpt lat="46.15544" lon="6.64485">
        <ele>1492</ele>
        <time>2022-07-31T11:00:54Z</time>
      </trkpt>
      <trkpt lat="46.15544" lon="6.64485">
        <ele>1492</ele>
        <time>2022-07-31T11:00:55Z</time>
      </trkpt>
      <trkpt lat="46.15543" lon="6.64485">
        <ele>1492</ele>
        <time>2022-07-31T11:00:56Z</time>
      </trkpt>
      <trkpt lat="46.15543" lon="6.64485">
        <ele>1492</ele>
        <time>2022-07-31T11:00:57Z</time>
      </trkpt>
      <trkpt lat="46.15543" lon="6.64485">
        <ele>1492</ele>
        <time>2022-07-31T11:00:58Z</time>
      </trkpt>
      <trkpt lat="46.15543" lon="6.64485">
        <ele>1492</ele>
        <time>2022-07-31T11:00:59Z</time>
      </trkpt>
      <trkpt lat="46.15543" lon="6.64485">
        <ele>1492</ele>
        <time>2022-07-31T11:01:00Z</time>
      </trkpt>
      <trkpt lat="46.15542" lon="6.64485">
        <ele>1492</ele>
        <time>2022-07-31T11:01:01Z</time>
      </trkpt>
      <trkpt lat="46.15542" lon="6.64484">
        <ele>1492</ele>
        <time>2022-07-31T11:01:02Z</time>
      </trkpt>
      <trkpt lat="46.15542" lon="6.64484">
        <ele>1492</ele>
        <time>2022-07-31T11:01:03Z</time>
      </trkpt>
      <trkpt lat="46.15542" lon="6.64484">
        <ele>1492</ele>
        <time>2022-07-31T11:01:04Z</time>
      </trkpt>
      <trkpt lat="46.15542" lon="6.64484">
        <ele>1492</ele>
        <time>2022-07-31T11:01:05Z</time>
      </trkpt>
      <trkpt lat="46.15542" lon="6.64484">
        <ele>1492</ele>
        <time>2022-07-31T11:01:06Z</time>
      </trkpt>
      <trkpt lat="46.15542" lon="6.64484">
        <ele>1492</ele>
        <time>2022-07-31T11:01:07Z</time>
      </trkpt>
      <trkpt lat="46.15542" lon="6.64484">
        <ele>1492</ele>
        <time>2022-07-31T11:01:08Z</time>
      </trkpt>
      <trkpt lat="46.15542" lon="6.64484">
        <ele>1492</ele>
        <time>2022-07-31T11:01:09Z</time>
      </trkpt>
      <trkpt lat="46.15543" lon="6.64484">
        <ele>1492</ele>
        <time>2022-07-31T11:01:10Z</time>
      </trkpt>
      <trkpt lat="46.15543" lon="6.64484">
        <ele>1492</ele>
        <time>2022-07-31T11:01:11Z</time>
      </trkpt>
      <trkpt lat="46.15544" lon="6.64483">
        <ele>1492</ele>
        <time>2022-07-31T11:01:12Z</time>
      </trkpt>
      <trkpt lat="46.15544" lon="6.64481">
        <ele>1492</ele>
        <time>2022-07-31T11:01:13Z</time>
      </trkpt>
      <trkpt lat="46.15544" lon="6.6448">
        <ele>1492</ele>
        <time>2022-07-31T11:01:14Z</time>
      </trkpt>
      <trkpt lat="46.15543" lon="6.64479">
        <ele>1492</ele>
        <time>2022-07-31T11:01:15Z</time>
      </trkpt>
      <trkpt lat="46.15542" lon="6.64478">
        <ele>1492</ele>
        <time>2022-07-31T11:01:16Z</time>
      </trkpt>
      <trkpt lat="46.15541" lon="6.64476">
        <ele>1492</ele>
        <time>2022-07-31T11:01:17Z</time>
      </trkpt>
      <trkpt lat="46.15542" lon="6.64474">
        <ele>1492</ele>
        <time>2022-07-31T11:01:18Z</time>
      </trkpt>
      <trkpt lat="46.15542" lon="6.64473">
        <ele>1492</ele>
        <time>2022-07-31T11:01:19Z</time>
      </trkpt>
      <trkpt lat="46.15543" lon="6.64472">
        <ele>1492</ele>
        <time>2022-07-31T11:01:20Z</time>
      </trkpt>
      <trkpt lat="46.15543" lon="6.64471">
        <ele>1492</ele>
        <time>2022-07-31T11:01:21Z</time>
      </trkpt>
      <trkpt lat="46.15543" lon="6.64471">
        <ele>1492</ele>
        <time>2022-07-31T11:01:22Z</time>
      </trkpt>
      <trkpt lat="46.15543" lon="6.64471">
        <ele>1492</ele>
        <time>2022-07-31T11:01:23Z</time>
      </trkpt>
      <trkpt lat="46.15543" lon="6.64471">
        <ele>1492</ele>
        <time>2022-07-31T11:01:24Z</time>
      </trkpt>
      <trkpt lat="46.15543" lon="6.64471">
        <ele>1492</ele>
        <time>2022-07-31T11:01:25Z</time>
      </trkpt>
      <trkpt lat="46.15543" lon="6.64471">
        <ele>1492</ele>
        <time>2022-07-31T11:01:26Z</time>
      </trkpt>
      <trkpt lat="46.15542" lon="6.6447">
        <ele>1492</ele>
        <time>2022-07-31T11:01:27Z</time>
      </trkpt>
      <trkpt lat="46.15542" lon="6.6447">
        <ele>1492</ele>
        <time>2022-07-31T11:01:28Z</time>
      </trkpt>
      <trkpt lat="46.15542" lon="6.6447">
        <ele>1492</ele>
        <time>2022-07-31T11:01:29Z</time>
      </trkpt>
      <trkpt lat="46.15542" lon="6.64469">
        <ele>1491</ele>
        <time>2022-07-31T11:01:30Z</time>
      </trkpt>
      <trkpt lat="46.15541" lon="6.64469">
        <ele>1491</ele>
        <time>2022-07-31T11:01:31Z</time>
      </trkpt>
      <trkpt lat="46.15542" lon="6.64469">
        <ele>1491</ele>
        <time>2022-07-31T11:01:32Z</time>
      </trkpt>
      <trkpt lat="46.15543" lon="6.64468">
        <ele>1491</ele>
        <time>2022-07-31T11:01:33Z</time>
      </trkpt>
      <trkpt lat="46.15542" lon="6.64467">
        <ele>1491</ele>
        <time>2022-07-31T11:01:34Z</time>
      </trkpt>
      <trkpt lat="46.15542" lon="6.64467">
        <ele>1490</ele>
        <time>2022-07-31T11:01:35Z</time>
      </trkpt>
      <trkpt lat="46.1554" lon="6.64466">
        <ele>1490</ele>
        <time>2022-07-31T11:01:36Z</time>
      </trkpt>
      <trkpt lat="46.15539" lon="6.64466">
        <ele>1490</ele>
        <time>2022-07-31T11:01:37Z</time>
      </trkpt>
      <trkpt lat="46.15538" lon="6.64466">
        <ele>1490</ele>
        <time>2022-07-31T11:01:38Z</time>
      </trkpt>
      <trkpt lat="46.15537" lon="6.64468">
        <ele>1490</ele>
        <time>2022-07-31T11:01:39Z</time>
      </trkpt>
      <trkpt lat="46.15536" lon="6.64469">
        <ele>1490</ele>
        <time>2022-07-31T11:01:40Z</time>
      </trkpt>
      <trkpt lat="46.15535" lon="6.64471">
        <ele>1490</ele>
        <time>2022-07-31T11:01:41Z</time>
      </trkpt>
      <trkpt lat="46.15533" lon="6.64472">
        <ele>1489</ele>
        <time>2022-07-31T11:01:42Z</time>
      </trkpt>
      <trkpt lat="46.15533" lon="6.64473">
        <ele>1489</ele>
        <time>2022-07-31T11:01:43Z</time>
      </trkpt>
      <trkpt lat="46.15532" lon="6.64474">
        <ele>1489</ele>
        <time>2022-07-31T11:01:44Z</time>
      </trkpt>
      <trkpt lat="46.15532" lon="6.64475">
        <ele>1489</ele>
        <time>2022-07-31T11:01:45Z</time>
      </trkpt>
      <trkpt lat="46.15532" lon="6.64476">
        <ele>1489</ele>
        <time>2022-07-31T11:01:46Z</time>
      </trkpt>
      <trkpt lat="46.15531" lon="6.64477">
        <ele>1488</ele>
        <time>2022-07-31T11:01:47Z</time>
      </trkpt>
      <trkpt lat="46.15531" lon="6.64478">
        <ele>1488</ele>
        <time>2022-07-31T11:01:48Z</time>
      </trkpt>
      <trkpt lat="46.1553" lon="6.64479">
        <ele>1488</ele>
        <time>2022-07-31T11:01:49Z</time>
      </trkpt>
      <trkpt lat="46.1553" lon="6.6448">
        <ele>1488</ele>
        <time>2022-07-31T11:01:50Z</time>
      </trkpt>
      <trkpt lat="46.15529" lon="6.64481">
        <ele>1488</ele>
        <time>2022-07-31T11:01:51Z</time>
      </trkpt>
      <trkpt lat="46.15529" lon="6.64483">
        <ele>1487</ele>
        <time>2022-07-31T11:01:52Z</time>
      </trkpt>
      <trkpt lat="46.15528" lon="6.64484">
        <ele>1487</ele>
        <time>2022-07-31T11:01:53Z</time>
      </trkpt>
      <trkpt lat="46.15528" lon="6.64484">
        <ele>1487</ele>
        <time>2022-07-31T11:01:54Z</time>
      </trkpt>
      <trkpt lat="46.15526" lon="6.64485">
        <ele>1487</ele>
        <time>2022-07-31T11:01:55Z</time>
      </trkpt>
      <trkpt lat="46.15525" lon="6.64486">
        <ele>1486</ele>
        <time>2022-07-31T11:01:56Z</time>
      </trkpt>
      <trkpt lat="46.15524" lon="6.64487">
        <ele>1486</ele>
        <time>2022-07-31T11:01:57Z</time>
      </trkpt>
      <trkpt lat="46.15523" lon="6.64488">
        <ele>1486</ele>
        <time>2022-07-31T11:01:58Z</time>
      </trkpt>
      <trkpt lat="46.15521" lon="6.64488">
        <ele>1486</ele>
        <time>2022-07-31T11:01:59Z</time>
      </trkpt>
      <trkpt lat="46.15521" lon="6.64488">
        <ele>1485</ele>
        <time>2022-07-31T11:02:00Z</time>
      </trkpt>
      <trkpt lat="46.1552" lon="6.64489">
        <ele>1485</ele>
        <time>2022-07-31T11:02:01Z</time>
      </trkpt>
      <trkpt lat="46.15518" lon="6.6449">
        <ele>1485</ele>
        <time>2022-07-31T11:02:02Z</time>
      </trkpt>
      <trkpt lat="46.15518" lon="6.64493">
        <ele>1485</ele>
        <time>2022-07-31T11:02:03Z</time>
      </trkpt>
      <trkpt lat="46.15518" lon="6.64495">
        <ele>1484</ele>
        <time>2022-07-31T11:02:04Z</time>
      </trkpt>
      <trkpt lat="46.15518" lon="6.64496">
        <ele>1484</ele>
        <time>2022-07-31T11:02:05Z</time>
      </trkpt>
      <trkpt lat="46.15518" lon="6.64498">
        <ele>1484</ele>
        <time>2022-07-31T11:02:06Z</time>
      </trkpt>
      <trkpt lat="46.1552" lon="6.645">
        <ele>1484</ele>
        <time>2022-07-31T11:02:07Z</time>
      </trkpt>
      <trkpt lat="46.1552" lon="6.64502">
        <ele>1483</ele>
        <time>2022-07-31T11:02:08Z</time>
      </trkpt>
      <trkpt lat="46.15521" lon="6.64505">
        <ele>1483</ele>
        <time>2022-07-31T11:02:09Z</time>
      </trkpt>
      <trkpt lat="46.15521" lon="6.64507">
        <ele>1483</ele>
        <time>2022-07-31T11:02:10Z</time>
      </trkpt>
      <trkpt lat="46.15521" lon="6.64509">
        <ele>1482</ele>
        <time>2022-07-31T11:02:11Z</time>
      </trkpt>
      <trkpt lat="46.15521" lon="6.64511">
        <ele>1482</ele>
        <time>2022-07-31T11:02:12Z</time>
      </trkpt>
      <trkpt lat="46.15521" lon="6.64513">
        <ele>1482</ele>
        <time>2022-07-31T11:02:13Z</time>
      </trkpt>
      <trkpt lat="46.1552" lon="6.64515">
        <ele>1481</ele>
        <time>2022-07-31T11:02:14Z</time>
      </trkpt>
      <trkpt lat="46.1552" lon="6.64516">
        <ele>1481</ele>
        <time>2022-07-31T11:02:15Z</time>
      </trkpt>
      <trkpt lat="46.1552" lon="6.64517">
        <ele>1481</ele>
        <time>2022-07-31T11:02:16Z</time>
      </trkpt>
      <trkpt lat="46.1552" lon="6.64518">
        <ele>1481</ele>
        <time>2022-07-31T11:02:17Z</time>
      </trkpt>
      <trkpt lat="46.1552" lon="6.64519">
        <ele>1481</ele>
        <time>2022-07-31T11:02:18Z</time>
      </trkpt>
      <trkpt lat="46.1552" lon="6.64521">
        <ele>1480</ele>
        <time>2022-07-31T11:02:19Z</time>
      </trkpt>
      <trkpt lat="46.1552" lon="6.64522">
        <ele>1480</ele>
        <time>2022-07-31T11:02:20Z</time>
      </trkpt>
      <trkpt lat="46.1552" lon="6.64523">
        <ele>1480</ele>
        <time>2022-07-31T11:02:21Z</time>
      </trkpt>
      <trkpt lat="46.15521" lon="6.64524">
        <ele>1480</ele>
        <time>2022-07-31T11:02:22Z</time>
      </trkpt>
      <trkpt lat="46.1552" lon="6.64525">
        <ele>1480</ele>
        <time>2022-07-31T11:02:23Z</time>
      </trkpt>
      <trkpt lat="46.1552" lon="6.64526">
        <ele>1480</ele>
        <time>2022-07-31T11:02:24Z</time>
      </trkpt>
      <trkpt lat="46.1552" lon="6.64528">
        <ele>1480</ele>
        <time>2022-07-31T11:02:25Z</time>
      </trkpt>
      <trkpt lat="46.1552" lon="6.64529">
        <ele>1480</ele>
        <time>2022-07-31T11:02:26Z</time>
      </trkpt>
      <trkpt lat="46.1552" lon="6.6453">
        <ele>1479</ele>
        <time>2022-07-31T11:02:27Z</time>
      </trkpt>
      <trkpt lat="46.1552" lon="6.64532">
        <ele>1479</ele>
        <time>2022-07-31T11:02:28Z</time>
      </trkpt>
      <trkpt lat="46.1552" lon="6.64533">
        <ele>1479</ele>
        <time>2022-07-31T11:02:29Z</time>
      </trkpt>
      <trkpt lat="46.15521" lon="6.64534">
        <ele>1479</ele>
        <time>2022-07-31T11:02:30Z</time>
      </trkpt>
      <trkpt lat="46.15521" lon="6.64535">
        <ele>1479</ele>
        <time>2022-07-31T11:02:31Z</time>
      </trkpt>
      <trkpt lat="46.15522" lon="6.64534">
        <ele>1479</ele>
        <time>2022-07-31T11:02:32Z</time>
      </trkpt>
      <trkpt lat="46.15523" lon="6.64535">
        <ele>1479</ele>
        <time>2022-07-31T11:02:33Z</time>
      </trkpt>
      <trkpt lat="46.15524" lon="6.64535">
        <ele>1479</ele>
        <time>2022-07-31T11:02:34Z</time>
      </trkpt>
      <trkpt lat="46.15524" lon="6.64535">
        <ele>1479</ele>
        <time>2022-07-31T11:02:35Z</time>
      </trkpt>
      <trkpt lat="46.15525" lon="6.64535">
        <ele>1478</ele>
        <time>2022-07-31T11:02:36Z</time>
      </trkpt>
      <trkpt lat="46.15525" lon="6.64536">
        <ele>1478</ele>
        <time>2022-07-31T11:02:37Z</time>
      </trkpt>
      <trkpt lat="46.15528" lon="6.64536">
        <ele>1478</ele>
        <time>2022-07-31T11:02:38Z</time>
      </trkpt>
      <trkpt lat="46.15528" lon="6.64536">
        <ele>1478</ele>
        <time>2022-07-31T11:02:39Z</time>
      </trkpt>
      <trkpt lat="46.15529" lon="6.64537">
        <ele>1478</ele>
        <time>2022-07-31T11:02:40Z</time>
      </trkpt>
      <trkpt lat="46.15529" lon="6.64537">
        <ele>1478</ele>
        <time>2022-07-31T11:02:41Z</time>
      </trkpt>
      <trkpt lat="46.1553" lon="6.64539">
        <ele>1478</ele>
        <time>2022-07-31T11:02:42Z</time>
      </trkpt>
      <trkpt lat="46.15529" lon="6.64541">
        <ele>1478</ele>
        <time>2022-07-31T11:02:43Z</time>
      </trkpt>
      <trkpt lat="46.15529" lon="6.64542">
        <ele>1477</ele>
        <time>2022-07-31T11:02:44Z</time>
      </trkpt>
      <trkpt lat="46.15528" lon="6.64542">
        <ele>1477</ele>
        <time>2022-07-31T11:02:45Z</time>
      </trkpt>
      <trkpt lat="46.15528" lon="6.64542">
        <ele>1477</ele>
        <time>2022-07-31T11:02:46Z</time>
      </trkpt>
      <trkpt lat="46.15528" lon="6.64543">
        <ele>1477</ele>
        <time>2022-07-31T11:02:47Z</time>
      </trkpt>
      <trkpt lat="46.15528" lon="6.64544">
        <ele>1477</ele>
        <time>2022-07-31T11:02:48Z</time>
      </trkpt>
      <trkpt lat="46.15528" lon="6.64545">
        <ele>1476</ele>
        <time>2022-07-31T11:02:49Z</time>
      </trkpt>
      <trkpt lat="46.15528" lon="6.64545">
        <ele>1476</ele>
        <time>2022-07-31T11:02:50Z</time>
      </trkpt>
      <trkpt lat="46.15529" lon="6.64546">
        <ele>1476</ele>
        <time>2022-07-31T11:02:51Z</time>
      </trkpt>
      <trkpt lat="46.15529" lon="6.64547">
        <ele>1476</ele>
        <time>2022-07-31T11:02:52Z</time>
      </trkpt>
      <trkpt lat="46.15529" lon="6.64548">
        <ele>1475</ele>
        <time>2022-07-31T11:02:53Z</time>
      </trkpt>
      <trkpt lat="46.15529" lon="6.6455">
        <ele>1475</ele>
        <time>2022-07-31T11:02:54Z</time>
      </trkpt>
      <trkpt lat="46.15528" lon="6.64551">
        <ele>1475</ele>
        <time>2022-07-31T11:02:55Z</time>
      </trkpt>
      <trkpt lat="46.15528" lon="6.64552">
        <ele>1475</ele>
        <time>2022-07-31T11:02:56Z</time>
      </trkpt>
      <trkpt lat="46.15529" lon="6.64553">
        <ele>1474</ele>
        <time>2022-07-31T11:02:57Z</time>
      </trkpt>
      <trkpt lat="46.15529" lon="6.64555">
        <ele>1474</ele>
        <time>2022-07-31T11:02:58Z</time>
      </trkpt>
      <trkpt lat="46.15529" lon="6.64556">
        <ele>1474</ele>
        <time>2022-07-31T11:02:59Z</time>
      </trkpt>
      <trkpt lat="46.1553" lon="6.64558">
        <ele>1474</ele>
        <time>2022-07-31T11:03:00Z</time>
      </trkpt>
      <trkpt lat="46.15529" lon="6.64559">
        <ele>1474</ele>
        <time>2022-07-31T11:03:01Z</time>
      </trkpt>
      <trkpt lat="46.15529" lon="6.6456">
        <ele>1473</ele>
        <time>2022-07-31T11:03:02Z</time>
      </trkpt>
      <trkpt lat="46.1553" lon="6.64562">
        <ele>1473</ele>
        <time>2022-07-31T11:03:03Z</time>
      </trkpt>
      <trkpt lat="46.1553" lon="6.64564">
        <ele>1473</ele>
        <time>2022-07-31T11:03:04Z</time>
      </trkpt>
      <trkpt lat="46.1553" lon="6.64566">
        <ele>1473</ele>
        <time>2022-07-31T11:03:05Z</time>
      </trkpt>
      <trkpt lat="46.1553" lon="6.64567">
        <ele>1472</ele>
        <time>2022-07-31T11:03:06Z</time>
      </trkpt>
      <trkpt lat="46.1553" lon="6.6457">
        <ele>1472</ele>
        <time>2022-07-31T11:03:07Z</time>
      </trkpt>
      <trkpt lat="46.15531" lon="6.64572">
        <ele>1472</ele>
        <time>2022-07-31T11:03:08Z</time>
      </trkpt>
      <trkpt lat="46.15531" lon="6.64574">
        <ele>1472</ele>
        <time>2022-07-31T11:03:09Z</time>
      </trkpt>
      <trkpt lat="46.15531" lon="6.64576">
        <ele>1471</ele>
        <time>2022-07-31T11:03:10Z</time>
      </trkpt>
      <trkpt lat="46.15532" lon="6.64578">
        <ele>1471</ele>
        <time>2022-07-31T11:03:11Z</time>
      </trkpt>
      <trkpt lat="46.15533" lon="6.6458">
        <ele>1471</ele>
        <time>2022-07-31T11:03:12Z</time>
      </trkpt>
      <trkpt lat="46.15534" lon="6.64581">
        <ele>1471</ele>
        <time>2022-07-31T11:03:13Z</time>
      </trkpt>
      <trkpt lat="46.15536" lon="6.64583">
        <ele>1470</ele>
        <time>2022-07-31T11:03:14Z</time>
      </trkpt>
      <trkpt lat="46.15536" lon="6.64584">
        <ele>1470</ele>
        <time>2022-07-31T11:03:15Z</time>
      </trkpt>
      <trkpt lat="46.15536" lon="6.64586">
        <ele>1470</ele>
        <time>2022-07-31T11:03:16Z</time>
      </trkpt>
      <trkpt lat="46.15536" lon="6.64587">
        <ele>1470</ele>
        <time>2022-07-31T11:03:17Z</time>
      </trkpt>
      <trkpt lat="46.15537" lon="6.64589">
        <ele>1469</ele>
        <time>2022-07-31T11:03:18Z</time>
      </trkpt>
      <trkpt lat="46.15538" lon="6.6459">
        <ele>1469</ele>
        <time>2022-07-31T11:03:19Z</time>
      </trkpt>
      <trkpt lat="46.15538" lon="6.64592">
        <ele>1469</ele>
        <time>2022-07-31T11:03:20Z</time>
      </trkpt>
      <trkpt lat="46.15539" lon="6.64594">
        <ele>1469</ele>
        <time>2022-07-31T11:03:21Z</time>
      </trkpt>
      <trkpt lat="46.15539" lon="6.64596">
        <ele>1469</ele>
        <time>2022-07-31T11:03:22Z</time>
      </trkpt>
      <trkpt lat="46.15539" lon="6.64597">
        <ele>1468</ele>
        <time>2022-07-31T11:03:23Z</time>
      </trkpt>
      <trkpt lat="46.15539" lon="6.64598">
        <ele>1468</ele>
        <time>2022-07-31T11:03:24Z</time>
      </trkpt>
      <trkpt lat="46.15539" lon="6.646">
        <ele>1468</ele>
        <time>2022-07-31T11:03:25Z</time>
      </trkpt>
      <trkpt lat="46.15539" lon="6.64601">
        <ele>1468</ele>
        <time>2022-07-31T11:03:26Z</time>
      </trkpt>
      <trkpt lat="46.15539" lon="6.64603">
        <ele>1468</ele>
        <time>2022-07-31T11:03:27Z</time>
      </trkpt>
      <trkpt lat="46.15538" lon="6.64604">
        <ele>1467</ele>
        <time>2022-07-31T11:03:28Z</time>
      </trkpt>
      <trkpt lat="46.15538" lon="6.64605">
        <ele>1467</ele>
        <time>2022-07-31T11:03:29Z</time>
      </trkpt>
      <trkpt lat="46.15538" lon="6.64607">
        <ele>1467</ele>
        <time>2022-07-31T11:03:30Z</time>
      </trkpt>
      <trkpt lat="46.15538" lon="6.64609">
        <ele>1467</ele>
        <time>2022-07-31T11:03:31Z</time>
      </trkpt>
      <trkpt lat="46.15537" lon="6.6461">
        <ele>1466</ele>
        <time>2022-07-31T11:03:32Z</time>
      </trkpt>
      <trkpt lat="46.15537" lon="6.64611">
        <ele>1466</ele>
        <time>2022-07-31T11:03:33Z</time>
      </trkpt>
      <trkpt lat="46.15537" lon="6.64612">
        <ele>1466</ele>
        <time>2022-07-31T11:03:34Z</time>
      </trkpt>
      <trkpt lat="46.15537" lon="6.64614">
        <ele>1466</ele>
        <time>2022-07-31T11:03:35Z</time>
      </trkpt>
      <trkpt lat="46.15536" lon="6.64616">
        <ele>1466</ele>
        <time>2022-07-31T11:03:36Z</time>
      </trkpt>
      <trkpt lat="46.15537" lon="6.64619">
        <ele>1466</ele>
        <time>2022-07-31T11:03:37Z</time>
      </trkpt>
      <trkpt lat="46.15537" lon="6.64621">
        <ele>1465</ele>
        <time>2022-07-31T11:03:38Z</time>
      </trkpt>
      <trkpt lat="46.15538" lon="6.64624">
        <ele>1465</ele>
        <time>2022-07-31T11:03:39Z</time>
      </trkpt>
      <trkpt lat="46.15538" lon="6.64626">
        <ele>1465</ele>
        <time>2022-07-31T11:03:40Z</time>
      </trkpt>
      <trkpt lat="46.1554" lon="6.64629">
        <ele>1465</ele>
        <time>2022-07-31T11:03:41Z</time>
      </trkpt>
      <trkpt lat="46.1554" lon="6.64631">
        <ele>1465</ele>
        <time>2022-07-31T11:03:42Z</time>
      </trkpt>
      <trkpt lat="46.15542" lon="6.64632">
        <ele>1464</ele>
        <time>2022-07-31T11:03:43Z</time>
      </trkpt>
      <trkpt lat="46.15543" lon="6.64634">
        <ele>1464</ele>
        <time>2022-07-31T11:03:44Z</time>
      </trkpt>
      <trkpt lat="46.15544" lon="6.64636">
        <ele>1464</ele>
        <time>2022-07-31T11:03:45Z</time>
      </trkpt>
      <trkpt lat="46.15544" lon="6.64638">
        <ele>1464</ele>
        <time>2022-07-31T11:03:46Z</time>
      </trkpt>
      <trkpt lat="46.15545" lon="6.64639">
        <ele>1463</ele>
        <time>2022-07-31T11:03:47Z</time>
      </trkpt>
      <trkpt lat="46.15546" lon="6.6464">
        <ele>1463</ele>
        <time>2022-07-31T11:03:48Z</time>
      </trkpt>
      <trkpt lat="46.15546" lon="6.64642">
        <ele>1463</ele>
        <time>2022-07-31T11:03:49Z</time>
      </trkpt>
      <trkpt lat="46.15548" lon="6.64643">
        <ele>1463</ele>
        <time>2022-07-31T11:03:50Z</time>
      </trkpt>
      <trkpt lat="46.15549" lon="6.64643">
        <ele>1462</ele>
        <time>2022-07-31T11:03:51Z</time>
      </trkpt>
      <trkpt lat="46.1555" lon="6.64644">
        <ele>1462</ele>
        <time>2022-07-31T11:03:52Z</time>
      </trkpt>
      <trkpt lat="46.1555" lon="6.64644">
        <ele>1462</ele>
        <time>2022-07-31T11:03:53Z</time>
      </trkpt>
      <trkpt lat="46.15552" lon="6.64646">
        <ele>1462</ele>
        <time>2022-07-31T11:03:54Z</time>
      </trkpt>
      <trkpt lat="46.15552" lon="6.64647">
        <ele>1461</ele>
        <time>2022-07-31T11:03:55Z</time>
      </trkpt>
      <trkpt lat="46.15553" lon="6.64648">
        <ele>1461</ele>
        <time>2022-07-31T11:03:56Z</time>
      </trkpt>
      <trkpt lat="46.15554" lon="6.6465">
        <ele>1461</ele>
        <time>2022-07-31T11:03:57Z</time>
      </trkpt>
      <trkpt lat="46.15554" lon="6.64651">
        <ele>1461</ele>
        <time>2022-07-31T11:03:58Z</time>
      </trkpt>
      <trkpt lat="46.15555" lon="6.64653">
        <ele>1461</ele>
        <time>2022-07-31T11:03:59Z</time>
      </trkpt>
      <trkpt lat="46.15555" lon="6.64656">
        <ele>1460</ele>
        <time>2022-07-31T11:04:00Z</time>
      </trkpt>
      <trkpt lat="46.15556" lon="6.64658">
        <ele>1460</ele>
        <time>2022-07-31T11:04:01Z</time>
      </trkpt>
      <trkpt lat="46.15556" lon="6.6466">
        <ele>1460</ele>
        <time>2022-07-31T11:04:02Z</time>
      </trkpt>
      <trkpt lat="46.15557" lon="6.64661">
        <ele>1460</ele>
        <time>2022-07-31T11:04:03Z</time>
      </trkpt>
      <trkpt lat="46.15557" lon="6.64663">
        <ele>1460</ele>
        <time>2022-07-31T11:04:04Z</time>
      </trkpt>
      <trkpt lat="46.15558" lon="6.64665">
        <ele>1460</ele>
        <time>2022-07-31T11:04:05Z</time>
      </trkpt>
      <trkpt lat="46.1556" lon="6.64668">
        <ele>1459</ele>
        <time>2022-07-31T11:04:06Z</time>
      </trkpt>
      <trkpt lat="46.15561" lon="6.64669">
        <ele>1459</ele>
        <time>2022-07-31T11:04:07Z</time>
      </trkpt>
      <trkpt lat="46.15562" lon="6.6467">
        <ele>1459</ele>
        <time>2022-07-31T11:04:08Z</time>
      </trkpt>
      <trkpt lat="46.15562" lon="6.64672">
        <ele>1459</ele>
        <time>2022-07-31T11:04:09Z</time>
      </trkpt>
      <trkpt lat="46.15564" lon="6.64674">
        <ele>1459</ele>
        <time>2022-07-31T11:04:10Z</time>
      </trkpt>
      <trkpt lat="46.15565" lon="6.64674">
        <ele>1458</ele>
        <time>2022-07-31T11:04:11Z</time>
      </trkpt>
      <trkpt lat="46.15566" lon="6.64675">
        <ele>1458</ele>
        <time>2022-07-31T11:04:12Z</time>
      </trkpt>
      <trkpt lat="46.15567" lon="6.64676">
        <ele>1458</ele>
        <time>2022-07-31T11:04:13Z</time>
      </trkpt>
      <trkpt lat="46.15568" lon="6.64678">
        <ele>1458</ele>
        <time>2022-07-31T11:04:14Z</time>
      </trkpt>
      <trkpt lat="46.15569" lon="6.6468">
        <ele>1458</ele>
        <time>2022-07-31T11:04:15Z</time>
      </trkpt>
      <trkpt lat="46.15569" lon="6.64682">
        <ele>1457</ele>
        <time>2022-07-31T11:04:16Z</time>
      </trkpt>
      <trkpt lat="46.15568" lon="6.64684">
        <ele>1457</ele>
        <time>2022-07-31T11:04:17Z</time>
      </trkpt>
      <trkpt lat="46.15568" lon="6.64684">
        <ele>1457</ele>
        <time>2022-07-31T11:04:18Z</time>
      </trkpt>
      <trkpt lat="46.15568" lon="6.64684">
        <ele>1457</ele>
        <time>2022-07-31T11:04:19Z</time>
      </trkpt>
      <trkpt lat="46.15568" lon="6.64685">
        <ele>1457</ele>
        <time>2022-07-31T11:04:20Z</time>
      </trkpt>
      <trkpt lat="46.15569" lon="6.64686">
        <ele>1456</ele>
        <time>2022-07-31T11:04:21Z</time>
      </trkpt>
      <trkpt lat="46.1557" lon="6.64686">
        <ele>1456</ele>
        <time>2022-07-31T11:04:22Z</time>
      </trkpt>
      <trkpt lat="46.1557" lon="6.64687">
        <ele>1456</ele>
        <time>2022-07-31T11:04:23Z</time>
      </trkpt>
      <trkpt lat="46.1557" lon="6.64686">
        <ele>1456</ele>
        <time>2022-07-31T11:04:24Z</time>
      </trkpt>
      <trkpt lat="46.15571" lon="6.64687">
        <ele>1456</ele>
        <time>2022-07-31T11:04:25Z</time>
      </trkpt>
      <trkpt lat="46.15572" lon="6.64687">
        <ele>1456</ele>
        <time>2022-07-31T11:04:26Z</time>
      </trkpt>
      <trkpt lat="46.15573" lon="6.64688">
        <ele>1456</ele>
        <time>2022-07-31T11:04:27Z</time>
      </trkpt>
      <trkpt lat="46.15573" lon="6.64688">
        <ele>1456</ele>
        <time>2022-07-31T11:04:28Z</time>
      </trkpt>
      <trkpt lat="46.15574" lon="6.64689">
        <ele>1456</ele>
        <time>2022-07-31T11:04:29Z</time>
      </trkpt>
      <trkpt lat="46.15576" lon="6.64689">
        <ele>1456</ele>
        <time>2022-07-31T11:04:30Z</time>
      </trkpt>
      <trkpt lat="46.15576" lon="6.6469">
        <ele>1456</ele>
        <time>2022-07-31T11:04:31Z</time>
      </trkpt>
      <trkpt lat="46.15577" lon="6.64691">
        <ele>1455</ele>
        <time>2022-07-31T11:04:32Z</time>
      </trkpt>
      <trkpt lat="46.15578" lon="6.64693">
        <ele>1455</ele>
        <time>2022-07-31T11:04:33Z</time>
      </trkpt>
      <trkpt lat="46.15579" lon="6.64694">
        <ele>1455</ele>
        <time>2022-07-31T11:04:34Z</time>
      </trkpt>
      <trkpt lat="46.1558" lon="6.64695">
        <ele>1455</ele>
        <time>2022-07-31T11:04:35Z</time>
      </trkpt>
      <trkpt lat="46.15581" lon="6.64694">
        <ele>1455</ele>
        <time>2022-07-31T11:04:36Z</time>
      </trkpt>
      <trkpt lat="46.15581" lon="6.64695">
        <ele>1455</ele>
        <time>2022-07-31T11:04:37Z</time>
      </trkpt>
      <trkpt lat="46.15581" lon="6.64695">
        <ele>1455</ele>
        <time>2022-07-31T11:04:38Z</time>
      </trkpt>
      <trkpt lat="46.15581" lon="6.64696">
        <ele>1455</ele>
        <time>2022-07-31T11:04:39Z</time>
      </trkpt>
      <trkpt lat="46.15582" lon="6.64698">
        <ele>1455</ele>
        <time>2022-07-31T11:04:40Z</time>
      </trkpt>
      <trkpt lat="46.15582" lon="6.64699">
        <ele>1455</ele>
        <time>2022-07-31T11:04:41Z</time>
      </trkpt>
      <trkpt lat="46.15583" lon="6.647">
        <ele>1455</ele>
        <time>2022-07-31T11:04:42Z</time>
      </trkpt>
      <trkpt lat="46.15583" lon="6.64701">
        <ele>1455</ele>
        <time>2022-07-31T11:04:43Z</time>
      </trkpt>
      <trkpt lat="46.15583" lon="6.64702">
        <ele>1454</ele>
        <time>2022-07-31T11:04:44Z</time>
      </trkpt>
      <trkpt lat="46.15584" lon="6.64703">
        <ele>1454</ele>
        <time>2022-07-31T11:04:45Z</time>
      </trkpt>
      <trkpt lat="46.15584" lon="6.64706">
        <ele>1454</ele>
        <time>2022-07-31T11:04:46Z</time>
      </trkpt>
      <trkpt lat="46.15586" lon="6.64708">
        <ele>1454</ele>
        <time>2022-07-31T11:04:47Z</time>
      </trkpt>
      <trkpt lat="46.15586" lon="6.64709">
        <ele>1454</ele>
        <time>2022-07-31T11:04:48Z</time>
      </trkpt>
      <trkpt lat="46.15587" lon="6.64711">
        <ele>1454</ele>
        <time>2022-07-31T11:04:49Z</time>
      </trkpt>
      <trkpt lat="46.15587" lon="6.64713">
        <ele>1453</ele>
        <time>2022-07-31T11:04:50Z</time>
      </trkpt>
      <trkpt lat="46.15587" lon="6.64715">
        <ele>1453</ele>
        <time>2022-07-31T11:04:51Z</time>
      </trkpt>
      <trkpt lat="46.15588" lon="6.64716">
        <ele>1453</ele>
        <time>2022-07-31T11:04:52Z</time>
      </trkpt>
      <trkpt lat="46.15589" lon="6.64718">
        <ele>1453</ele>
        <time>2022-07-31T11:04:53Z</time>
      </trkpt>
      <trkpt lat="46.15589" lon="6.6472">
        <ele>1453</ele>
        <time>2022-07-31T11:04:54Z</time>
      </trkpt>
      <trkpt lat="46.1559" lon="6.64721">
        <ele>1452</ele>
        <time>2022-07-31T11:04:55Z</time>
      </trkpt>
      <trkpt lat="46.1559" lon="6.64723">
        <ele>1452</ele>
        <time>2022-07-31T11:04:56Z</time>
      </trkpt>
      <trkpt lat="46.1559" lon="6.64724">
        <ele>1452</ele>
        <time>2022-07-31T11:04:57Z</time>
      </trkpt>
      <trkpt lat="46.1559" lon="6.64725">
        <ele>1452</ele>
        <time>2022-07-31T11:04:58Z</time>
      </trkpt>
      <trkpt lat="46.1559" lon="6.64725">
        <ele>1452</ele>
        <time>2022-07-31T11:04:59Z</time>
      </trkpt>
      <trkpt lat="46.15591" lon="6.64726">
        <ele>1452</ele>
        <time>2022-07-31T11:05:00Z</time>
      </trkpt>
      <trkpt lat="46.15591" lon="6.64728">
        <ele>1451</ele>
        <time>2022-07-31T11:05:01Z</time>
      </trkpt>
      <trkpt lat="46.15592" lon="6.64729">
        <ele>1451</ele>
        <time>2022-07-31T11:05:02Z</time>
      </trkpt>
      <trkpt lat="46.15593" lon="6.64731">
        <ele>1451</ele>
        <time>2022-07-31T11:05:03Z</time>
      </trkpt>
      <trkpt lat="46.15594" lon="6.64732">
        <ele>1451</ele>
        <time>2022-07-31T11:05:04Z</time>
      </trkpt>
      <trkpt lat="46.15595" lon="6.64733">
        <ele>1451</ele>
        <time>2022-07-31T11:05:05Z</time>
      </trkpt>
      <trkpt lat="46.15595" lon="6.64734">
        <ele>1451</ele>
        <time>2022-07-31T11:05:06Z</time>
      </trkpt>
      <trkpt lat="46.15596" lon="6.64735">
        <ele>1451</ele>
        <time>2022-07-31T11:05:07Z</time>
      </trkpt>
      <trkpt lat="46.15596" lon="6.64737">
        <ele>1451</ele>
        <time>2022-07-31T11:05:08Z</time>
      </trkpt>
      <trkpt lat="46.15597" lon="6.64738">
        <ele>1451</ele>
        <time>2022-07-31T11:05:09Z</time>
      </trkpt>
      <trkpt lat="46.15598" lon="6.6474">
        <ele>1451</ele>
        <time>2022-07-31T11:05:10Z</time>
      </trkpt>
      <trkpt lat="46.15598" lon="6.64743">
        <ele>1451</ele>
        <time>2022-07-31T11:05:11Z</time>
      </trkpt>
      <trkpt lat="46.15598" lon="6.64745">
        <ele>1451</ele>
        <time>2022-07-31T11:05:12Z</time>
      </trkpt>
      <trkpt lat="46.15598" lon="6.64747">
        <ele>1450</ele>
        <time>2022-07-31T11:05:13Z</time>
      </trkpt>
      <trkpt lat="46.15598" lon="6.64749">
        <ele>1450</ele>
        <time>2022-07-31T11:05:14Z</time>
      </trkpt>
      <trkpt lat="46.15598" lon="6.6475">
        <ele>1450</ele>
        <time>2022-07-31T11:05:15Z</time>
      </trkpt>
      <trkpt lat="46.15598" lon="6.64751">
        <ele>1450</ele>
        <time>2022-07-31T11:05:16Z</time>
      </trkpt>
      <trkpt lat="46.15598" lon="6.64753">
        <ele>1450</ele>
        <time>2022-07-31T11:05:17Z</time>
      </trkpt>
      <trkpt lat="46.15599" lon="6.64755">
        <ele>1450</ele>
        <time>2022-07-31T11:05:18Z</time>
      </trkpt>
      <trkpt lat="46.15599" lon="6.64757">
        <ele>1449</ele>
        <time>2022-07-31T11:05:19Z</time>
      </trkpt>
      <trkpt lat="46.15601" lon="6.64757">
        <ele>1449</ele>
        <time>2022-07-31T11:05:20Z</time>
      </trkpt>
      <trkpt lat="46.15602" lon="6.64758">
        <ele>1449</ele>
        <time>2022-07-31T11:05:21Z</time>
      </trkpt>
      <trkpt lat="46.15602" lon="6.64759">
        <ele>1449</ele>
        <time>2022-07-31T11:05:22Z</time>
      </trkpt>
      <trkpt lat="46.15602" lon="6.6476">
        <ele>1449</ele>
        <time>2022-07-31T11:05:23Z</time>
      </trkpt>
      <trkpt lat="46.15603" lon="6.64761">
        <ele>1449</ele>
        <time>2022-07-31T11:05:24Z</time>
      </trkpt>
      <trkpt lat="46.15603" lon="6.64762">
        <ele>1448</ele>
        <time>2022-07-31T11:05:25Z</time>
      </trkpt>
      <trkpt lat="46.15604" lon="6.64762">
        <ele>1448</ele>
        <time>2022-07-31T11:05:26Z</time>
      </trkpt>
      <trkpt lat="46.15604" lon="6.64763">
        <ele>1448</ele>
        <time>2022-07-31T11:05:27Z</time>
      </trkpt>
      <trkpt lat="46.15604" lon="6.64765">
        <ele>1448</ele>
        <time>2022-07-31T11:05:28Z</time>
      </trkpt>
      <trkpt lat="46.15605" lon="6.64766">
        <ele>1448</ele>
        <time>2022-07-31T11:05:29Z</time>
      </trkpt>
      <trkpt lat="46.15606" lon="6.64767">
        <ele>1448</ele>
        <time>2022-07-31T11:05:30Z</time>
      </trkpt>
      <trkpt lat="46.15607" lon="6.64768">
        <ele>1448</ele>
        <time>2022-07-31T11:05:31Z</time>
      </trkpt>
      <trkpt lat="46.15608" lon="6.64769">
        <ele>1448</ele>
        <time>2022-07-31T11:05:32Z</time>
      </trkpt>
      <trkpt lat="46.1561" lon="6.6477">
        <ele>1448</ele>
        <time>2022-07-31T11:05:33Z</time>
      </trkpt>
      <trkpt lat="46.15611" lon="6.6477">
        <ele>1448</ele>
        <time>2022-07-31T11:05:34Z</time>
      </trkpt>
      <trkpt lat="46.15612" lon="6.64772">
        <ele>1448</ele>
        <time>2022-07-31T11:05:35Z</time>
      </trkpt>
      <trkpt lat="46.15613" lon="6.64774">
        <ele>1448</ele>
        <time>2022-07-31T11:05:36Z</time>
      </trkpt>
      <trkpt lat="46.15615" lon="6.64776">
        <ele>1448</ele>
        <time>2022-07-31T11:05:37Z</time>
      </trkpt>
      <trkpt lat="46.15616" lon="6.64778">
        <ele>1447</ele>
        <time>2022-07-31T11:05:38Z</time>
      </trkpt>
      <trkpt lat="46.15618" lon="6.64781">
        <ele>1447</ele>
        <time>2022-07-31T11:05:39Z</time>
      </trkpt>
      <trkpt lat="46.15619" lon="6.64784">
        <ele>1447</ele>
        <time>2022-07-31T11:05:40Z</time>
      </trkpt>
      <trkpt lat="46.1562" lon="6.64786">
        <ele>1447</ele>
        <time>2022-07-31T11:05:41Z</time>
      </trkpt>
      <trkpt lat="46.15621" lon="6.64787">
        <ele>1447</ele>
        <time>2022-07-31T11:05:42Z</time>
      </trkpt>
      <trkpt lat="46.15623" lon="6.64788">
        <ele>1447</ele>
        <time>2022-07-31T11:05:43Z</time>
      </trkpt>
      <trkpt lat="46.15624" lon="6.6479">
        <ele>1447</ele>
        <time>2022-07-31T11:05:44Z</time>
      </trkpt>
      <trkpt lat="46.15626" lon="6.64792">
        <ele>1447</ele>
        <time>2022-07-31T11:05:45Z</time>
      </trkpt>
      <trkpt lat="46.15627" lon="6.64794">
        <ele>1447</ele>
        <time>2022-07-31T11:05:46Z</time>
      </trkpt>
      <trkpt lat="46.15627" lon="6.64795">
        <ele>1447</ele>
        <time>2022-07-31T11:05:47Z</time>
      </trkpt>
      <trkpt lat="46.15628" lon="6.64797">
        <ele>1447</ele>
        <time>2022-07-31T11:05:48Z</time>
      </trkpt>
      <trkpt lat="46.15629" lon="6.64799">
        <ele>1447</ele>
        <time>2022-07-31T11:05:49Z</time>
      </trkpt>
      <trkpt lat="46.1563" lon="6.648">
        <ele>1447</ele>
        <time>2022-07-31T11:05:50Z</time>
      </trkpt>
      <trkpt lat="46.15631" lon="6.64801">
        <ele>1447</ele>
        <time>2022-07-31T11:05:51Z</time>
      </trkpt>
      <trkpt lat="46.15632" lon="6.64801">
        <ele>1447</ele>
        <time>2022-07-31T11:05:52Z</time>
      </trkpt>
      <trkpt lat="46.15632" lon="6.64801">
        <ele>1447</ele>
        <time>2022-07-31T11:05:53Z</time>
      </trkpt>
      <trkpt lat="46.15633" lon="6.64802">
        <ele>1446</ele>
        <time>2022-07-31T11:05:54Z</time>
      </trkpt>
      <trkpt lat="46.15633" lon="6.64803">
        <ele>1446</ele>
        <time>2022-07-31T11:05:55Z</time>
      </trkpt>
      <trkpt lat="46.15634" lon="6.64805">
        <ele>1446</ele>
        <time>2022-07-31T11:05:56Z</time>
      </trkpt>
      <trkpt lat="46.15635" lon="6.64807">
        <ele>1446</ele>
        <time>2022-07-31T11:05:57Z</time>
      </trkpt>
      <trkpt lat="46.15636" lon="6.64809">
        <ele>1446</ele>
        <time>2022-07-31T11:05:58Z</time>
      </trkpt>
      <trkpt lat="46.15636" lon="6.64809">
        <ele>1446</ele>
        <time>2022-07-31T11:05:59Z</time>
      </trkpt>
      <trkpt lat="46.15637" lon="6.6481">
        <ele>1446</ele>
        <time>2022-07-31T11:06:00Z</time>
      </trkpt>
      <trkpt lat="46.15638" lon="6.64811">
        <ele>1446</ele>
        <time>2022-07-31T11:06:01Z</time>
      </trkpt>
      <trkpt lat="46.15638" lon="6.64812">
        <ele>1446</ele>
        <time>2022-07-31T11:06:02Z</time>
      </trkpt>
      <trkpt lat="46.15639" lon="6.64813">
        <ele>1446</ele>
        <time>2022-07-31T11:06:03Z</time>
      </trkpt>
      <trkpt lat="46.1564" lon="6.64814">
        <ele>1446</ele>
        <time>2022-07-31T11:06:04Z</time>
      </trkpt>
      <trkpt lat="46.15641" lon="6.64816">
        <ele>1446</ele>
        <time>2022-07-31T11:06:05Z</time>
      </trkpt>
      <trkpt lat="46.15642" lon="6.64817">
        <ele>1445</ele>
        <time>2022-07-31T11:06:06Z</time>
      </trkpt>
      <trkpt lat="46.15643" lon="6.64818">
        <ele>1445</ele>
        <time>2022-07-31T11:06:07Z</time>
      </trkpt>
      <trkpt lat="46.15644" lon="6.64819">
        <ele>1445</ele>
        <time>2022-07-31T11:06:08Z</time>
      </trkpt>
      <trkpt lat="46.15645" lon="6.6482">
        <ele>1445</ele>
        <time>2022-07-31T11:06:09Z</time>
      </trkpt>
      <trkpt lat="46.15646" lon="6.64821">
        <ele>1445</ele>
        <time>2022-07-31T11:06:10Z</time>
      </trkpt>
      <trkpt lat="46.15647" lon="6.64823">
        <ele>1445</ele>
        <time>2022-07-31T11:06:11Z</time>
      </trkpt>
      <trkpt lat="46.15648" lon="6.64823">
        <ele>1445</ele>
        <time>2022-07-31T11:06:12Z</time>
      </trkpt>
      <trkpt lat="46.15649" lon="6.64824">
        <ele>1444</ele>
        <time>2022-07-31T11:06:13Z</time>
      </trkpt>
      <trkpt lat="46.1565" lon="6.64825">
        <ele>1444</ele>
        <time>2022-07-31T11:06:14Z</time>
      </trkpt>
      <trkpt lat="46.1565" lon="6.64826">
        <ele>1444</ele>
        <time>2022-07-31T11:06:15Z</time>
      </trkpt>
      <trkpt lat="46.15651" lon="6.64827">
        <ele>1444</ele>
        <time>2022-07-31T11:06:16Z</time>
      </trkpt>
      <trkpt lat="46.15652" lon="6.64828">
        <ele>1444</ele>
        <time>2022-07-31T11:06:17Z</time>
      </trkpt>
      <trkpt lat="46.15653" lon="6.64829">
        <ele>1443</ele>
        <time>2022-07-31T11:06:18Z</time>
      </trkpt>
      <trkpt lat="46.15653" lon="6.64831">
        <ele>1443</ele>
        <time>2022-07-31T11:06:19Z</time>
      </trkpt>
      <trkpt lat="46.15654" lon="6.64833">
        <ele>1443</ele>
        <time>2022-07-31T11:06:20Z</time>
      </trkpt>
      <trkpt lat="46.15655" lon="6.64834">
        <ele>1443</ele>
        <time>2022-07-31T11:06:21Z</time>
      </trkpt>
      <trkpt lat="46.15656" lon="6.64835">
        <ele>1442</ele>
        <time>2022-07-31T11:06:22Z</time>
      </trkpt>
      <trkpt lat="46.15657" lon="6.64837">
        <ele>1442</ele>
        <time>2022-07-31T11:06:23Z</time>
      </trkpt>
      <trkpt lat="46.15658" lon="6.6484">
        <ele>1442</ele>
        <time>2022-07-31T11:06:24Z</time>
      </trkpt>
      <trkpt lat="46.15658" lon="6.64841">
        <ele>1442</ele>
        <time>2022-07-31T11:06:25Z</time>
      </trkpt>
      <trkpt lat="46.1566" lon="6.64842">
        <ele>1442</ele>
        <time>2022-07-31T11:06:26Z</time>
      </trkpt>
      <trkpt lat="46.1566" lon="6.64842">
        <ele>1442</ele>
        <time>2022-07-31T11:06:27Z</time>
      </trkpt>
      <trkpt lat="46.1566" lon="6.64844">
        <ele>1442</ele>
        <time>2022-07-31T11:06:28Z</time>
      </trkpt>
      <trkpt lat="46.15661" lon="6.64845">
        <ele>1441</ele>
        <time>2022-07-31T11:06:29Z</time>
      </trkpt>
      <trkpt lat="46.15663" lon="6.64846">
        <ele>1441</ele>
        <time>2022-07-31T11:06:30Z</time>
      </trkpt>
      <trkpt lat="46.15663" lon="6.64848">
        <ele>1441</ele>
        <time>2022-07-31T11:06:31Z</time>
      </trkpt>
      <trkpt lat="46.15664" lon="6.6485">
        <ele>1441</ele>
        <time>2022-07-31T11:06:32Z</time>
      </trkpt>
      <trkpt lat="46.15664" lon="6.64851">
        <ele>1441</ele>
        <time>2022-07-31T11:06:33Z</time>
      </trkpt>
      <trkpt lat="46.15665" lon="6.64852">
        <ele>1441</ele>
        <time>2022-07-31T11:06:34Z</time>
      </trkpt>
      <trkpt lat="46.15665" lon="6.64854">
        <ele>1441</ele>
        <time>2022-07-31T11:06:35Z</time>
      </trkpt>
      <trkpt lat="46.15667" lon="6.64856">
        <ele>1441</ele>
        <time>2022-07-31T11:06:36Z</time>
      </trkpt>
      <trkpt lat="46.15667" lon="6.64857">
        <ele>1441</ele>
        <time>2022-07-31T11:06:37Z</time>
      </trkpt>
      <trkpt lat="46.15668" lon="6.64858">
        <ele>1440</ele>
        <time>2022-07-31T11:06:38Z</time>
      </trkpt>
      <trkpt lat="46.15669" lon="6.64859">
        <ele>1440</ele>
        <time>2022-07-31T11:06:39Z</time>
      </trkpt>
      <trkpt lat="46.1567" lon="6.64859">
        <ele>1440</ele>
        <time>2022-07-31T11:06:40Z</time>
      </trkpt>
      <trkpt lat="46.15671" lon="6.6486">
        <ele>1440</ele>
        <time>2022-07-31T11:06:41Z</time>
      </trkpt>
      <trkpt lat="46.15672" lon="6.64862">
        <ele>1440</ele>
        <time>2022-07-31T11:06:42Z</time>
      </trkpt>
      <trkpt lat="46.15672" lon="6.64864">
        <ele>1440</ele>
        <time>2022-07-31T11:06:43Z</time>
      </trkpt>
      <trkpt lat="46.15673" lon="6.64866">
        <ele>1440</ele>
        <time>2022-07-31T11:06:44Z</time>
      </trkpt>
      <trkpt lat="46.15675" lon="6.64867">
        <ele>1440</ele>
        <time>2022-07-31T11:06:45Z</time>
      </trkpt>
      <trkpt lat="46.15675" lon="6.64868">
        <ele>1440</ele>
        <time>2022-07-31T11:06:46Z</time>
      </trkpt>
      <trkpt lat="46.15676" lon="6.64869">
        <ele>1440</ele>
        <time>2022-07-31T11:06:47Z</time>
      </trkpt>
      <trkpt lat="46.15676" lon="6.64871">
        <ele>1440</ele>
        <time>2022-07-31T11:06:48Z</time>
      </trkpt>
      <trkpt lat="46.15675" lon="6.64873">
        <ele>1440</ele>
        <time>2022-07-31T11:06:49Z</time>
      </trkpt>
      <trkpt lat="46.15676" lon="6.64874">
        <ele>1440</ele>
        <time>2022-07-31T11:06:50Z</time>
      </trkpt>
      <trkpt lat="46.15676" lon="6.64876">
        <ele>1439</ele>
        <time>2022-07-31T11:06:51Z</time>
      </trkpt>
      <trkpt lat="46.15676" lon="6.64878">
        <ele>1439</ele>
        <time>2022-07-31T11:06:52Z</time>
      </trkpt>
      <trkpt lat="46.15677" lon="6.64879">
        <ele>1439</ele>
        <time>2022-07-31T11:06:53Z</time>
      </trkpt>
      <trkpt lat="46.15678" lon="6.6488">
        <ele>1439</ele>
        <time>2022-07-31T11:06:54Z</time>
      </trkpt>
      <trkpt lat="46.15678" lon="6.6488">
        <ele>1439</ele>
        <time>2022-07-31T11:06:55Z</time>
      </trkpt>
      <trkpt lat="46.15678" lon="6.64881">
        <ele>1439</ele>
        <time>2022-07-31T11:06:56Z</time>
      </trkpt>
      <trkpt lat="46.15679" lon="6.64883">
        <ele>1439</ele>
        <time>2022-07-31T11:06:57Z</time>
      </trkpt>
      <trkpt lat="46.1568" lon="6.64884">
        <ele>1439</ele>
        <time>2022-07-31T11:06:58Z</time>
      </trkpt>
      <trkpt lat="46.15681" lon="6.64886">
        <ele>1439</ele>
        <time>2022-07-31T11:06:59Z</time>
      </trkpt>
      <trkpt lat="46.15681" lon="6.64887">
        <ele>1438</ele>
        <time>2022-07-31T11:07:00Z</time>
      </trkpt>
      <trkpt lat="46.15682" lon="6.64889">
        <ele>1438</ele>
        <time>2022-07-31T11:07:01Z</time>
      </trkpt>
      <trkpt lat="46.15682" lon="6.64891">
        <ele>1438</ele>
        <time>2022-07-31T11:07:02Z</time>
      </trkpt>
      <trkpt lat="46.15682" lon="6.64893">
        <ele>1438</ele>
        <time>2022-07-31T11:07:03Z</time>
      </trkpt>
      <trkpt lat="46.15684" lon="6.64896">
        <ele>1438</ele>
        <time>2022-07-31T11:07:04Z</time>
      </trkpt>
      <trkpt lat="46.15684" lon="6.64897">
        <ele>1438</ele>
        <time>2022-07-31T11:07:05Z</time>
      </trkpt>
      <trkpt lat="46.15685" lon="6.649">
        <ele>1438</ele>
        <time>2022-07-31T11:07:06Z</time>
      </trkpt>
      <trkpt lat="46.15686" lon="6.64903">
        <ele>1438</ele>
        <time>2022-07-31T11:07:07Z</time>
      </trkpt>
      <trkpt lat="46.15686" lon="6.64905">
        <ele>1438</ele>
        <time>2022-07-31T11:07:08Z</time>
      </trkpt>
      <trkpt lat="46.15687" lon="6.64907">
        <ele>1438</ele>
        <time>2022-07-31T11:07:09Z</time>
      </trkpt>
      <trkpt lat="46.15688" lon="6.64909">
        <ele>1437</ele>
        <time>2022-07-31T11:07:10Z</time>
      </trkpt>
      <trkpt lat="46.15689" lon="6.64911">
        <ele>1437</ele>
        <time>2022-07-31T11:07:11Z</time>
      </trkpt>
      <trkpt lat="46.15689" lon="6.64914">
        <ele>1437</ele>
        <time>2022-07-31T11:07:12Z</time>
      </trkpt>
      <trkpt lat="46.1569" lon="6.64916">
        <ele>1437</ele>
        <time>2022-07-31T11:07:13Z</time>
      </trkpt>
      <trkpt lat="46.15691" lon="6.64918">
        <ele>1437</ele>
        <time>2022-07-31T11:07:14Z</time>
      </trkpt>
      <trkpt lat="46.15692" lon="6.64919">
        <ele>1437</ele>
        <time>2022-07-31T11:07:15Z</time>
      </trkpt>
      <trkpt lat="46.15692" lon="6.6492">
        <ele>1436</ele>
        <time>2022-07-31T11:07:16Z</time>
      </trkpt>
      <trkpt lat="46.15692" lon="6.64921">
        <ele>1436</ele>
        <time>2022-07-31T11:07:17Z</time>
      </trkpt>
      <trkpt lat="46.15692" lon="6.64922">
        <ele>1436</ele>
        <time>2022-07-31T11:07:18Z</time>
      </trkpt>
      <trkpt lat="46.15693" lon="6.64923">
        <ele>1436</ele>
        <time>2022-07-31T11:07:19Z</time>
      </trkpt>
      <trkpt lat="46.15693" lon="6.64923">
        <ele>1436</ele>
        <time>2022-07-31T11:07:20Z</time>
      </trkpt>
      <trkpt lat="46.15694" lon="6.64924">
        <ele>1436</ele>
        <time>2022-07-31T11:07:21Z</time>
      </trkpt>
      <trkpt lat="46.15694" lon="6.64925">
        <ele>1436</ele>
        <time>2022-07-31T11:07:22Z</time>
      </trkpt>
      <trkpt lat="46.15695" lon="6.64927">
        <ele>1436</ele>
        <time>2022-07-31T11:07:23Z</time>
      </trkpt>
      <trkpt lat="46.15696" lon="6.64928">
        <ele>1436</ele>
        <time>2022-07-31T11:07:24Z</time>
      </trkpt>
      <trkpt lat="46.15697" lon="6.64928">
        <ele>1436</ele>
        <time>2022-07-31T11:07:25Z</time>
      </trkpt>
      <trkpt lat="46.15697" lon="6.64928">
        <ele>1436</ele>
        <time>2022-07-31T11:07:26Z</time>
      </trkpt>
      <trkpt lat="46.15697" lon="6.64929">
        <ele>1436</ele>
        <time>2022-07-31T11:07:27Z</time>
      </trkpt>
      <trkpt lat="46.15698" lon="6.6493">
        <ele>1436</ele>
        <time>2022-07-31T11:07:28Z</time>
      </trkpt>
      <trkpt lat="46.15699" lon="6.6493">
        <ele>1437</ele>
        <time>2022-07-31T11:07:29Z</time>
      </trkpt>
      <trkpt lat="46.157" lon="6.64931">
        <ele>1437</ele>
        <time>2022-07-31T11:07:30Z</time>
      </trkpt>
      <trkpt lat="46.15701" lon="6.64932">
        <ele>1437</ele>
        <time>2022-07-31T11:07:31Z</time>
      </trkpt>
      <trkpt lat="46.15701" lon="6.64932">
        <ele>1437</ele>
        <time>2022-07-31T11:07:32Z</time>
      </trkpt>
      <trkpt lat="46.15702" lon="6.64931">
        <ele>1437</ele>
        <time>2022-07-31T11:07:33Z</time>
      </trkpt>
      <trkpt lat="46.15703" lon="6.64931">
        <ele>1437</ele>
        <time>2022-07-31T11:07:34Z</time>
      </trkpt>
      <trkpt lat="46.15704" lon="6.64932">
        <ele>1437</ele>
        <time>2022-07-31T11:07:35Z</time>
      </trkpt>
      <trkpt lat="46.15705" lon="6.64932">
        <ele>1437</ele>
        <time>2022-07-31T11:07:36Z</time>
      </trkpt>
      <trkpt lat="46.15705" lon="6.64931">
        <ele>1437</ele>
        <time>2022-07-31T11:07:37Z</time>
      </trkpt>
      <trkpt lat="46.15705" lon="6.64931">
        <ele>1437</ele>
        <time>2022-07-31T11:07:38Z</time>
      </trkpt>
      <trkpt lat="46.15706" lon="6.64931">
        <ele>1437</ele>
        <time>2022-07-31T11:07:39Z</time>
      </trkpt>
      <trkpt lat="46.15706" lon="6.64931">
        <ele>1437</ele>
        <time>2022-07-31T11:07:40Z</time>
      </trkpt>
      <trkpt lat="46.15706" lon="6.64931">
        <ele>1437</ele>
        <time>2022-07-31T11:07:41Z</time>
      </trkpt>
      <trkpt lat="46.15706" lon="6.64931">
        <ele>1437</ele>
        <time>2022-07-31T11:07:42Z</time>
      </trkpt>
      <trkpt lat="46.15707" lon="6.64932">
        <ele>1437</ele>
        <time>2022-07-31T11:07:43Z</time>
      </trkpt>
      <trkpt lat="46.15707" lon="6.64933">
        <ele>1437</ele>
        <time>2022-07-31T11:07:44Z</time>
      </trkpt>
      <trkpt lat="46.15708" lon="6.64933">
        <ele>1437</ele>
        <time>2022-07-31T11:07:45Z</time>
      </trkpt>
      <trkpt lat="46.15709" lon="6.64933">
        <ele>1437</ele>
        <time>2022-07-31T11:07:46Z</time>
      </trkpt>
      <trkpt lat="46.1571" lon="6.64933">
        <ele>1437</ele>
        <time>2022-07-31T11:07:47Z</time>
      </trkpt>
      <trkpt lat="46.15712" lon="6.64934">
        <ele>1437</ele>
        <time>2022-07-31T11:07:48Z</time>
      </trkpt>
      <trkpt lat="46.15714" lon="6.64936">
        <ele>1437</ele>
        <time>2022-07-31T11:07:49Z</time>
      </trkpt>
      <trkpt lat="46.15715" lon="6.64937">
        <ele>1437</ele>
        <time>2022-07-31T11:07:50Z</time>
      </trkpt>
      <trkpt lat="46.15717" lon="6.64937">
        <ele>1437</ele>
        <time>2022-07-31T11:07:51Z</time>
      </trkpt>
      <trkpt lat="46.15719" lon="6.64938">
        <ele>1437</ele>
        <time>2022-07-31T11:07:52Z</time>
      </trkpt>
      <trkpt lat="46.15719" lon="6.64939">
        <ele>1437</ele>
        <time>2022-07-31T11:07:53Z</time>
      </trkpt>
      <trkpt lat="46.15721" lon="6.64939">
        <ele>1437</ele>
        <time>2022-07-31T11:07:54Z</time>
      </trkpt>
      <trkpt lat="46.15722" lon="6.64941">
        <ele>1437</ele>
        <time>2022-07-31T11:07:55Z</time>
      </trkpt>
      <trkpt lat="46.15723" lon="6.64942">
        <ele>1437</ele>
        <time>2022-07-31T11:07:56Z</time>
      </trkpt>
      <trkpt lat="46.15726" lon="6.64943">
        <ele>1437</ele>
        <time>2022-07-31T11:07:57Z</time>
      </trkpt>
      <trkpt lat="46.15727" lon="6.64945">
        <ele>1437</ele>
        <time>2022-07-31T11:07:58Z</time>
      </trkpt>
      <trkpt lat="46.15729" lon="6.64947">
        <ele>1437</ele>
        <time>2022-07-31T11:07:59Z</time>
      </trkpt>
      <trkpt lat="46.1573" lon="6.64948">
        <ele>1437</ele>
        <time>2022-07-31T11:08:00Z</time>
      </trkpt>
      <trkpt lat="46.15732" lon="6.64949">
        <ele>1436</ele>
        <time>2022-07-31T11:08:01Z</time>
      </trkpt>
      <trkpt lat="46.15734" lon="6.64951">
        <ele>1436</ele>
        <time>2022-07-31T11:08:02Z</time>
      </trkpt>
      <trkpt lat="46.15735" lon="6.64952">
        <ele>1436</ele>
        <time>2022-07-31T11:08:03Z</time>
      </trkpt>
      <trkpt lat="46.15737" lon="6.64953">
        <ele>1436</ele>
        <time>2022-07-31T11:08:04Z</time>
      </trkpt>
      <trkpt lat="46.15738" lon="6.64953">
        <ele>1436</ele>
        <time>2022-07-31T11:08:05Z</time>
      </trkpt>
      <trkpt lat="46.15738" lon="6.64953">
        <ele>1436</ele>
        <time>2022-07-31T11:08:06Z</time>
      </trkpt>
      <trkpt lat="46.15739" lon="6.64953">
        <ele>1436</ele>
        <time>2022-07-31T11:08:07Z</time>
      </trkpt>
      <trkpt lat="46.1574" lon="6.64952">
        <ele>1436</ele>
        <time>2022-07-31T11:08:08Z</time>
      </trkpt>
      <trkpt lat="46.1574" lon="6.64953">
        <ele>1436</ele>
        <time>2022-07-31T11:08:09Z</time>
      </trkpt>
      <trkpt lat="46.15742" lon="6.64952">
        <ele>1436</ele>
        <time>2022-07-31T11:08:10Z</time>
      </trkpt>
      <trkpt lat="46.15744" lon="6.64952">
        <ele>1436</ele>
        <time>2022-07-31T11:08:11Z</time>
      </trkpt>
      <trkpt lat="46.15746" lon="6.64952">
        <ele>1436</ele>
        <time>2022-07-31T11:08:12Z</time>
      </trkpt>
      <trkpt lat="46.15748" lon="6.64953">
        <ele>1436</ele>
        <time>2022-07-31T11:08:13Z</time>
      </trkpt>
      <trkpt lat="46.1575" lon="6.64954">
        <ele>1436</ele>
        <time>2022-07-31T11:08:14Z</time>
      </trkpt>
      <trkpt lat="46.15751" lon="6.64955">
        <ele>1436</ele>
        <time>2022-07-31T11:08:15Z</time>
      </trkpt>
      <trkpt lat="46.15751" lon="6.64955">
        <ele>1436</ele>
        <time>2022-07-31T11:08:16Z</time>
      </trkpt>
      <trkpt lat="46.1575" lon="6.64956">
        <ele>1436</ele>
        <time>2022-07-31T11:08:17Z</time>
      </trkpt>
      <trkpt lat="46.1575" lon="6.64956">
        <ele>1436</ele>
        <time>2022-07-31T11:08:18Z</time>
      </trkpt>
      <trkpt lat="46.1575" lon="6.64958">
        <ele>1436</ele>
        <time>2022-07-31T11:08:19Z</time>
      </trkpt>
      <trkpt lat="46.15751" lon="6.64959">
        <ele>1436</ele>
        <time>2022-07-31T11:08:20Z</time>
      </trkpt>
      <trkpt lat="46.15751" lon="6.6496">
        <ele>1436</ele>
        <time>2022-07-31T11:08:21Z</time>
      </trkpt>
      <trkpt lat="46.1575" lon="6.64961">
        <ele>1436</ele>
        <time>2022-07-31T11:08:22Z</time>
      </trkpt>
      <trkpt lat="46.1575" lon="6.64963">
        <ele>1436</ele>
        <time>2022-07-31T11:08:23Z</time>
      </trkpt>
      <trkpt lat="46.15751" lon="6.64964">
        <ele>1436</ele>
        <time>2022-07-31T11:08:24Z</time>
      </trkpt>
      <trkpt lat="46.15751" lon="6.64966">
        <ele>1436</ele>
        <time>2022-07-31T11:08:25Z</time>
      </trkpt>
      <trkpt lat="46.15751" lon="6.64967">
        <ele>1436</ele>
        <time>2022-07-31T11:08:26Z</time>
      </trkpt>
      <trkpt lat="46.15751" lon="6.64968">
        <ele>1436</ele>
        <time>2022-07-31T11:08:27Z</time>
      </trkpt>
      <trkpt lat="46.15751" lon="6.64968">
        <ele>1436</ele>
        <time>2022-07-31T11:08:28Z</time>
      </trkpt>
      <trkpt lat="46.15751" lon="6.64969">
        <ele>1436</ele>
        <time>2022-07-31T11:08:29Z</time>
      </trkpt>
      <trkpt lat="46.15751" lon="6.64971">
        <ele>1436</ele>
        <time>2022-07-31T11:08:30Z</time>
      </trkpt>
      <trkpt lat="46.15751" lon="6.64972">
        <ele>1436</ele>
        <time>2022-07-31T11:08:31Z</time>
      </trkpt>
      <trkpt lat="46.15751" lon="6.64972">
        <ele>1437</ele>
        <time>2022-07-31T11:08:32Z</time>
      </trkpt>
      <trkpt lat="46.15751" lon="6.64972">
        <ele>1437</ele>
        <time>2022-07-31T11:08:33Z</time>
      </trkpt>
      <trkpt lat="46.15751" lon="6.64973">
        <ele>1437</ele>
        <time>2022-07-31T11:08:34Z</time>
      </trkpt>
      <trkpt lat="46.15751" lon="6.64973">
        <ele>1437</ele>
        <time>2022-07-31T11:08:35Z</time>
      </trkpt>
      <trkpt lat="46.15751" lon="6.64974">
        <ele>1437</ele>
        <time>2022-07-31T11:08:36Z</time>
      </trkpt>
      <trkpt lat="46.15751" lon="6.64975">
        <ele>1437</ele>
        <time>2022-07-31T11:08:37Z</time>
      </trkpt>
      <trkpt lat="46.15752" lon="6.64976">
        <ele>1437</ele>
        <time>2022-07-31T11:08:38Z</time>
      </trkpt>
      <trkpt lat="46.15752" lon="6.64978">
        <ele>1436</ele>
        <time>2022-07-31T11:08:39Z</time>
      </trkpt>
      <trkpt lat="46.15753" lon="6.64978">
        <ele>1436</ele>
        <time>2022-07-31T11:08:40Z</time>
      </trkpt>
      <trkpt lat="46.15753" lon="6.6498">
        <ele>1436</ele>
        <time>2022-07-31T11:08:41Z</time>
      </trkpt>
      <trkpt lat="46.15754" lon="6.64982">
        <ele>1436</ele>
        <time>2022-07-31T11:08:42Z</time>
      </trkpt>
      <trkpt lat="46.15756" lon="6.64984">
        <ele>1436</ele>
        <time>2022-07-31T11:08:43Z</time>
      </trkpt>
      <trkpt lat="46.15757" lon="6.64986">
        <ele>1436</ele>
        <time>2022-07-31T11:08:44Z</time>
      </trkpt>
      <trkpt lat="46.15758" lon="6.64988">
        <ele>1436</ele>
        <time>2022-07-31T11:08:45Z</time>
      </trkpt>
      <trkpt lat="46.15758" lon="6.6499">
        <ele>1436</ele>
        <time>2022-07-31T11:08:46Z</time>
      </trkpt>
      <trkpt lat="46.15758" lon="6.6499">
        <ele>1436</ele>
        <time>2022-07-31T11:08:47Z</time>
      </trkpt>
      <trkpt lat="46.15758" lon="6.64991">
        <ele>1436</ele>
        <time>2022-07-31T11:08:48Z</time>
      </trkpt>
      <trkpt lat="46.15758" lon="6.64992">
        <ele>1436</ele>
        <time>2022-07-31T11:08:49Z</time>
      </trkpt>
      <trkpt lat="46.15758" lon="6.64993">
        <ele>1437</ele>
        <time>2022-07-31T11:08:50Z</time>
      </trkpt>
      <trkpt lat="46.15758" lon="6.64994">
        <ele>1437</ele>
        <time>2022-07-31T11:08:51Z</time>
      </trkpt>
      <trkpt lat="46.15758" lon="6.64995">
        <ele>1437</ele>
        <time>2022-07-31T11:08:52Z</time>
      </trkpt>
      <trkpt lat="46.15758" lon="6.64997">
        <ele>1437</ele>
        <time>2022-07-31T11:08:53Z</time>
      </trkpt>
      <trkpt lat="46.15756" lon="6.64997">
        <ele>1437</ele>
        <time>2022-07-31T11:08:54Z</time>
      </trkpt>
      <trkpt lat="46.15756" lon="6.64997">
        <ele>1437</ele>
        <time>2022-07-31T11:08:55Z</time>
      </trkpt>
      <trkpt lat="46.15755" lon="6.64997">
        <ele>1437</ele>
        <time>2022-07-31T11:08:56Z</time>
      </trkpt>
      <trkpt lat="46.15753" lon="6.64996">
        <ele>1437</ele>
        <time>2022-07-31T11:08:57Z</time>
      </trkpt>
      <trkpt lat="46.15753" lon="6.64997">
        <ele>1437</ele>
        <time>2022-07-31T11:08:58Z</time>
      </trkpt>
      <trkpt lat="46.15753" lon="6.64997">
        <ele>1437</ele>
        <time>2022-07-31T11:08:59Z</time>
      </trkpt>
      <trkpt lat="46.15753" lon="6.64997">
        <ele>1437</ele>
        <time>2022-07-31T11:09:00Z</time>
      </trkpt>
      <trkpt lat="46.15753" lon="6.64998">
        <ele>1436</ele>
        <time>2022-07-31T11:09:01Z</time>
      </trkpt>
      <trkpt lat="46.15753" lon="6.64998">
        <ele>1436</ele>
        <time>2022-07-31T11:09:02Z</time>
      </trkpt>
      <trkpt lat="46.15753" lon="6.64999">
        <ele>1436</ele>
        <time>2022-07-31T11:09:03Z</time>
      </trkpt>
      <trkpt lat="46.15753" lon="6.65001">
        <ele>1436</ele>
        <time>2022-07-31T11:09:04Z</time>
      </trkpt>
      <trkpt lat="46.15753" lon="6.65002">
        <ele>1436</ele>
        <time>2022-07-31T11:09:05Z</time>
      </trkpt>
      <trkpt lat="46.15753" lon="6.65003">
        <ele>1435</ele>
        <time>2022-07-31T11:09:06Z</time>
      </trkpt>
      <trkpt lat="46.15753" lon="6.65003">
        <ele>1435</ele>
        <time>2022-07-31T11:09:07Z</time>
      </trkpt>
      <trkpt lat="46.15753" lon="6.65003">
        <ele>1435</ele>
        <time>2022-07-31T11:09:08Z</time>
      </trkpt>
      <trkpt lat="46.15752" lon="6.65004">
        <ele>1435</ele>
        <time>2022-07-31T11:09:09Z</time>
      </trkpt>
      <trkpt lat="46.15752" lon="6.65004">
        <ele>1435</ele>
        <time>2022-07-31T11:09:10Z</time>
      </trkpt>
      <trkpt lat="46.15752" lon="6.65004">
        <ele>1435</ele>
        <time>2022-07-31T11:09:11Z</time>
      </trkpt>
      <trkpt lat="46.15751" lon="6.65005">
        <ele>1435</ele>
        <time>2022-07-31T11:09:12Z</time>
      </trkpt>
      <trkpt lat="46.15751" lon="6.65005">
        <ele>1435</ele>
        <time>2022-07-31T11:09:13Z</time>
      </trkpt>
      <trkpt lat="46.15751" lon="6.65006">
        <ele>1435</ele>
        <time>2022-07-31T11:09:14Z</time>
      </trkpt>
      <trkpt lat="46.1575" lon="6.65007">
        <ele>1435</ele>
        <time>2022-07-31T11:09:15Z</time>
      </trkpt>
      <trkpt lat="46.1575" lon="6.65009">
        <ele>1435</ele>
        <time>2022-07-31T11:09:16Z</time>
      </trkpt>
      <trkpt lat="46.15749" lon="6.6501">
        <ele>1435</ele>
        <time>2022-07-31T11:09:17Z</time>
      </trkpt>
      <trkpt lat="46.15748" lon="6.65012">
        <ele>1435</ele>
        <time>2022-07-31T11:09:18Z</time>
      </trkpt>
      <trkpt lat="46.15748" lon="6.65014">
        <ele>1435</ele>
        <time>2022-07-31T11:09:19Z</time>
      </trkpt>
      <trkpt lat="46.15748" lon="6.65016">
        <ele>1435</ele>
        <time>2022-07-31T11:09:20Z</time>
      </trkpt>
      <trkpt lat="46.15748" lon="6.65017">
        <ele>1435</ele>
        <time>2022-07-31T11:09:21Z</time>
      </trkpt>
      <trkpt lat="46.15748" lon="6.65019">
        <ele>1435</ele>
        <time>2022-07-31T11:09:22Z</time>
      </trkpt>
      <trkpt lat="46.15748" lon="6.65021">
        <ele>1435</ele>
        <time>2022-07-31T11:09:23Z</time>
      </trkpt>
      <trkpt lat="46.15747" lon="6.65023">
        <ele>1435</ele>
        <time>2022-07-31T11:09:24Z</time>
      </trkpt>
      <trkpt lat="46.15747" lon="6.65025">
        <ele>1435</ele>
        <time>2022-07-31T11:09:25Z</time>
      </trkpt>
      <trkpt lat="46.15747" lon="6.65026">
        <ele>1435</ele>
        <time>2022-07-31T11:09:26Z</time>
      </trkpt>
      <trkpt lat="46.15747" lon="6.65027">
        <ele>1435</ele>
        <time>2022-07-31T11:09:27Z</time>
      </trkpt>
      <trkpt lat="46.15747" lon="6.65028">
        <ele>1435</ele>
        <time>2022-07-31T11:09:28Z</time>
      </trkpt>
      <trkpt lat="46.15748" lon="6.6503">
        <ele>1435</ele>
        <time>2022-07-31T11:09:29Z</time>
      </trkpt>
      <trkpt lat="46.15747" lon="6.65031">
        <ele>1435</ele>
        <time>2022-07-31T11:09:30Z</time>
      </trkpt>
      <trkpt lat="46.15747" lon="6.65033">
        <ele>1435</ele>
        <time>2022-07-31T11:09:31Z</time>
      </trkpt>
      <trkpt lat="46.15748" lon="6.65037">
        <ele>1435</ele>
        <time>2022-07-31T11:09:32Z</time>
      </trkpt>
      <trkpt lat="46.15748" lon="6.6504">
        <ele>1435</ele>
        <time>2022-07-31T11:09:33Z</time>
      </trkpt>
      <trkpt lat="46.15749" lon="6.65043">
        <ele>1435</ele>
        <time>2022-07-31T11:09:34Z</time>
      </trkpt>
      <trkpt lat="46.1575" lon="6.65046">
        <ele>1435</ele>
        <time>2022-07-31T11:09:35Z</time>
      </trkpt>
      <trkpt lat="46.1575" lon="6.65048">
        <ele>1435</ele>
        <time>2022-07-31T11:09:36Z</time>
      </trkpt>
      <trkpt lat="46.15751" lon="6.6505">
        <ele>1435</ele>
        <time>2022-07-31T11:09:37Z</time>
      </trkpt>
      <trkpt lat="46.15751" lon="6.65052">
        <ele>1435</ele>
        <time>2022-07-31T11:09:38Z</time>
      </trkpt>
      <trkpt lat="46.15751" lon="6.65055">
        <ele>1435</ele>
        <time>2022-07-31T11:09:39Z</time>
      </trkpt>
      <trkpt lat="46.15751" lon="6.65057">
        <ele>1435</ele>
        <time>2022-07-31T11:09:40Z</time>
      </trkpt>
      <trkpt lat="46.15751" lon="6.65058">
        <ele>1435</ele>
        <time>2022-07-31T11:09:41Z</time>
      </trkpt>
      <trkpt lat="46.15752" lon="6.65059">
        <ele>1435</ele>
        <time>2022-07-31T11:09:42Z</time>
      </trkpt>
      <trkpt lat="46.15752" lon="6.6506">
        <ele>1435</ele>
        <time>2022-07-31T11:09:43Z</time>
      </trkpt>
      <trkpt lat="46.15752" lon="6.65061">
        <ele>1435</ele>
        <time>2022-07-31T11:09:44Z</time>
      </trkpt>
      <trkpt lat="46.15753" lon="6.65062">
        <ele>1435</ele>
        <time>2022-07-31T11:09:45Z</time>
      </trkpt>
      <trkpt lat="46.15754" lon="6.65063">
        <ele>1435</ele>
        <time>2022-07-31T11:09:46Z</time>
      </trkpt>
      <trkpt lat="46.15755" lon="6.65063">
        <ele>1435</ele>
        <time>2022-07-31T11:09:47Z</time>
      </trkpt>
      <trkpt lat="46.15756" lon="6.65064">
        <ele>1435</ele>
        <time>2022-07-31T11:09:48Z</time>
      </trkpt>
      <trkpt lat="46.15758" lon="6.65066">
        <ele>1435</ele>
        <time>2022-07-31T11:09:49Z</time>
      </trkpt>
      <trkpt lat="46.15759" lon="6.65067">
        <ele>1435</ele>
        <time>2022-07-31T11:09:50Z</time>
      </trkpt>
      <trkpt lat="46.15759" lon="6.65069">
        <ele>1435</ele>
        <time>2022-07-31T11:09:51Z</time>
      </trkpt>
      <trkpt lat="46.1576" lon="6.65072">
        <ele>1435</ele>
        <time>2022-07-31T11:09:52Z</time>
      </trkpt>
      <trkpt lat="46.15761" lon="6.65073">
        <ele>1435</ele>
        <time>2022-07-31T11:09:53Z</time>
      </trkpt>
      <trkpt lat="46.15763" lon="6.65075">
        <ele>1435</ele>
        <time>2022-07-31T11:09:54Z</time>
      </trkpt>
      <trkpt lat="46.15764" lon="6.65077">
        <ele>1434</ele>
        <time>2022-07-31T11:09:55Z</time>
      </trkpt>
      <trkpt lat="46.15766" lon="6.65077">
        <ele>1434</ele>
        <time>2022-07-31T11:09:56Z</time>
      </trkpt>
      <trkpt lat="46.15767" lon="6.65078">
        <ele>1434</ele>
        <time>2022-07-31T11:09:57Z</time>
      </trkpt>
      <trkpt lat="46.15767" lon="6.65079">
        <ele>1434</ele>
        <time>2022-07-31T11:09:58Z</time>
      </trkpt>
      <trkpt lat="46.15767" lon="6.65081">
        <ele>1434</ele>
        <time>2022-07-31T11:09:59Z</time>
      </trkpt>
      <trkpt lat="46.15768" lon="6.65083">
        <ele>1434</ele>
        <time>2022-07-31T11:10:00Z</time>
      </trkpt>
      <trkpt lat="46.15768" lon="6.65084">
        <ele>1434</ele>
        <time>2022-07-31T11:10:01Z</time>
      </trkpt>
      <trkpt lat="46.15768" lon="6.65085">
        <ele>1434</ele>
        <time>2022-07-31T11:10:02Z</time>
      </trkpt>
      <trkpt lat="46.15768" lon="6.65087">
        <ele>1434</ele>
        <time>2022-07-31T11:10:03Z</time>
      </trkpt>
      <trkpt lat="46.15767" lon="6.65087">
        <ele>1434</ele>
        <time>2022-07-31T11:10:04Z</time>
      </trkpt>
      <trkpt lat="46.15768" lon="6.65088">
        <ele>1434</ele>
        <time>2022-07-31T11:10:05Z</time>
      </trkpt>
      <trkpt lat="46.15768" lon="6.65088">
        <ele>1434</ele>
        <time>2022-07-31T11:10:06Z</time>
      </trkpt>
      <trkpt lat="46.15768" lon="6.65088">
        <ele>1434</ele>
        <time>2022-07-31T11:10:07Z</time>
      </trkpt>
      <trkpt lat="46.15768" lon="6.65089">
        <ele>1434</ele>
        <time>2022-07-31T11:10:08Z</time>
      </trkpt>
      <trkpt lat="46.15768" lon="6.6509">
        <ele>1434</ele>
        <time>2022-07-31T11:10:09Z</time>
      </trkpt>
      <trkpt lat="46.15767" lon="6.6509">
        <ele>1434</ele>
        <time>2022-07-31T11:10:10Z</time>
      </trkpt>
      <trkpt lat="46.15768" lon="6.65091">
        <ele>1434</ele>
        <time>2022-07-31T11:10:11Z</time>
      </trkpt>
      <trkpt lat="46.15767" lon="6.65091">
        <ele>1434</ele>
        <time>2022-07-31T11:10:12Z</time>
      </trkpt>
      <trkpt lat="46.15767" lon="6.65091">
        <ele>1434</ele>
        <time>2022-07-31T11:10:13Z</time>
      </trkpt>
      <trkpt lat="46.15766" lon="6.65091">
        <ele>1434</ele>
        <time>2022-07-31T11:10:14Z</time>
      </trkpt>
      <trkpt lat="46.15767" lon="6.6509">
        <ele>1434</ele>
        <time>2022-07-31T11:10:15Z</time>
      </trkpt>
      <trkpt lat="46.15767" lon="6.65091">
        <ele>1434</ele>
        <time>2022-07-31T11:10:16Z</time>
      </trkpt>
      <trkpt lat="46.15767" lon="6.65092">
        <ele>1434</ele>
        <time>2022-07-31T11:10:17Z</time>
      </trkpt>
      <trkpt lat="46.15766" lon="6.65094">
        <ele>1434</ele>
        <time>2022-07-31T11:10:18Z</time>
      </trkpt>
      <trkpt lat="46.15767" lon="6.65095">
        <ele>1434</ele>
        <time>2022-07-31T11:10:19Z</time>
      </trkpt>
      <trkpt lat="46.15767" lon="6.65096">
        <ele>1434</ele>
        <time>2022-07-31T11:10:20Z</time>
      </trkpt>
      <trkpt lat="46.15767" lon="6.65097">
        <ele>1434</ele>
        <time>2022-07-31T11:10:21Z</time>
      </trkpt>
      <trkpt lat="46.15768" lon="6.65098">
        <ele>1434</ele>
        <time>2022-07-31T11:10:22Z</time>
      </trkpt>
      <trkpt lat="46.15768" lon="6.65098">
        <ele>1434</ele>
        <time>2022-07-31T11:10:23Z</time>
      </trkpt>
      <trkpt lat="46.15768" lon="6.65099">
        <ele>1434</ele>
        <time>2022-07-31T11:10:24Z</time>
      </trkpt>
      <trkpt lat="46.15768" lon="6.651">
        <ele>1434</ele>
        <time>2022-07-31T11:10:25Z</time>
      </trkpt>
      <trkpt lat="46.15768" lon="6.65101">
        <ele>1434</ele>
        <time>2022-07-31T11:10:26Z</time>
      </trkpt>
      <trkpt lat="46.15768" lon="6.65101">
        <ele>1434</ele>
        <time>2022-07-31T11:10:27Z</time>
      </trkpt>
      <trkpt lat="46.15768" lon="6.65102">
        <ele>1434</ele>
        <time>2022-07-31T11:10:28Z</time>
      </trkpt>
      <trkpt lat="46.15768" lon="6.65103">
        <ele>1434</ele>
        <time>2022-07-31T11:10:29Z</time>
      </trkpt>
      <trkpt lat="46.15768" lon="6.65105">
        <ele>1434</ele>
        <time>2022-07-31T11:10:30Z</time>
      </trkpt>
      <trkpt lat="46.15768" lon="6.65105">
        <ele>1434</ele>
        <time>2022-07-31T11:10:31Z</time>
      </trkpt>
      <trkpt lat="46.15768" lon="6.65106">
        <ele>1433</ele>
        <time>2022-07-31T11:10:32Z</time>
      </trkpt>
      <trkpt lat="46.15768" lon="6.65108">
        <ele>1433</ele>
        <time>2022-07-31T11:10:33Z</time>
      </trkpt>
      <trkpt lat="46.15767" lon="6.6511">
        <ele>1433</ele>
        <time>2022-07-31T11:10:34Z</time>
      </trkpt>
      <trkpt lat="46.15767" lon="6.65112">
        <ele>1433</ele>
        <time>2022-07-31T11:10:35Z</time>
      </trkpt>
      <trkpt lat="46.15767" lon="6.65114">
        <ele>1433</ele>
        <time>2022-07-31T11:10:36Z</time>
      </trkpt>
      <trkpt lat="46.15767" lon="6.65116">
        <ele>1433</ele>
        <time>2022-07-31T11:10:37Z</time>
      </trkpt>
      <trkpt lat="46.15767" lon="6.65117">
        <ele>1432</ele>
        <time>2022-07-31T11:10:38Z</time>
      </trkpt>
      <trkpt lat="46.15767" lon="6.65119">
        <ele>1432</ele>
        <time>2022-07-31T11:10:39Z</time>
      </trkpt>
      <trkpt lat="46.15766" lon="6.65122">
        <ele>1432</ele>
        <time>2022-07-31T11:10:40Z</time>
      </trkpt>
      <trkpt lat="46.15767" lon="6.65123">
        <ele>1432</ele>
        <time>2022-07-31T11:10:41Z</time>
      </trkpt>
      <trkpt lat="46.15766" lon="6.65125">
        <ele>1432</ele>
        <time>2022-07-31T11:10:42Z</time>
      </trkpt>
      <trkpt lat="46.15766" lon="6.65127">
        <ele>1432</ele>
        <time>2022-07-31T11:10:43Z</time>
      </trkpt>
      <trkpt lat="46.15766" lon="6.65129">
        <ele>1431</ele>
        <time>2022-07-31T11:10:44Z</time>
      </trkpt>
      <trkpt lat="46.15767" lon="6.6513">
        <ele>1431</ele>
        <time>2022-07-31T11:10:45Z</time>
      </trkpt>
      <trkpt lat="46.15767" lon="6.65131">
        <ele>1431</ele>
        <time>2022-07-31T11:10:46Z</time>
      </trkpt>
      <trkpt lat="46.15768" lon="6.65133">
        <ele>1431</ele>
        <time>2022-07-31T11:10:47Z</time>
      </trkpt>
      <trkpt lat="46.15769" lon="6.65134">
        <ele>1431</ele>
        <time>2022-07-31T11:10:48Z</time>
      </trkpt>
      <trkpt lat="46.1577" lon="6.65135">
        <ele>1430</ele>
        <time>2022-07-31T11:10:49Z</time>
      </trkpt>
      <trkpt lat="46.15771" lon="6.65136">
        <ele>1430</ele>
        <time>2022-07-31T11:10:50Z</time>
      </trkpt>
      <trkpt lat="46.15772" lon="6.65138">
        <ele>1430</ele>
        <time>2022-07-31T11:10:51Z</time>
      </trkpt>
      <trkpt lat="46.15774" lon="6.6514">
        <ele>1430</ele>
        <time>2022-07-31T11:10:52Z</time>
      </trkpt>
      <trkpt lat="46.15775" lon="6.65142">
        <ele>1429</ele>
        <time>2022-07-31T11:10:53Z</time>
      </trkpt>
      <trkpt lat="46.15776" lon="6.65143">
        <ele>1429</ele>
        <time>2022-07-31T11:10:54Z</time>
      </trkpt>
      <trkpt lat="46.15778" lon="6.65145">
        <ele>1429</ele>
        <time>2022-07-31T11:10:55Z</time>
      </trkpt>
      <trkpt lat="46.15779" lon="6.65146">
        <ele>1429</ele>
        <time>2022-07-31T11:10:56Z</time>
      </trkpt>
      <trkpt lat="46.1578" lon="6.65147">
        <ele>1428</ele>
        <time>2022-07-31T11:10:57Z</time>
      </trkpt>
      <trkpt lat="46.1578" lon="6.65148">
        <ele>1428</ele>
        <time>2022-07-31T11:10:58Z</time>
      </trkpt>
      <trkpt lat="46.15781" lon="6.65149">
        <ele>1428</ele>
        <time>2022-07-31T11:10:59Z</time>
      </trkpt>
      <trkpt lat="46.15782" lon="6.65148">
        <ele>1428</ele>
        <time>2022-07-31T11:11:00Z</time>
      </trkpt>
      <trkpt lat="46.15783" lon="6.6515">
        <ele>1428</ele>
        <time>2022-07-31T11:11:01Z</time>
      </trkpt>
      <trkpt lat="46.15783" lon="6.65151">
        <ele>1427</ele>
        <time>2022-07-31T11:11:02Z</time>
      </trkpt>
      <trkpt lat="46.15784" lon="6.65151">
        <ele>1427</ele>
        <time>2022-07-31T11:11:03Z</time>
      </trkpt>
      <trkpt lat="46.15785" lon="6.65152">
        <ele>1427</ele>
        <time>2022-07-31T11:11:04Z</time>
      </trkpt>
      <trkpt lat="46.15785" lon="6.65153">
        <ele>1427</ele>
        <time>2022-07-31T11:11:05Z</time>
      </trkpt>
      <trkpt lat="46.15786" lon="6.65154">
        <ele>1427</ele>
        <time>2022-07-31T11:11:06Z</time>
      </trkpt>
      <trkpt lat="46.15787" lon="6.65156">
        <ele>1426</ele>
        <time>2022-07-31T11:11:07Z</time>
      </trkpt>
      <trkpt lat="46.15787" lon="6.65157">
        <ele>1426</ele>
        <time>2022-07-31T11:11:08Z</time>
      </trkpt>
      <trkpt lat="46.15788" lon="6.65159">
        <ele>1426</ele>
        <time>2022-07-31T11:11:09Z</time>
      </trkpt>
      <trkpt lat="46.15788" lon="6.6516">
        <ele>1426</ele>
        <time>2022-07-31T11:11:10Z</time>
      </trkpt>
      <trkpt lat="46.15789" lon="6.65162">
        <ele>1426</ele>
        <time>2022-07-31T11:11:11Z</time>
      </trkpt>
      <trkpt lat="46.15789" lon="6.65164">
        <ele>1426</ele>
        <time>2022-07-31T11:11:12Z</time>
      </trkpt>
      <trkpt lat="46.1579" lon="6.65165">
        <ele>1425</ele>
        <time>2022-07-31T11:11:13Z</time>
      </trkpt>
      <trkpt lat="46.1579" lon="6.65167">
        <ele>1425</ele>
        <time>2022-07-31T11:11:14Z</time>
      </trkpt>
      <trkpt lat="46.15792" lon="6.65168">
        <ele>1425</ele>
        <time>2022-07-31T11:11:15Z</time>
      </trkpt>
      <trkpt lat="46.15792" lon="6.65169">
        <ele>1425</ele>
        <time>2022-07-31T11:11:16Z</time>
      </trkpt>
      <trkpt lat="46.15793" lon="6.6517">
        <ele>1424</ele>
        <time>2022-07-31T11:11:17Z</time>
      </trkpt>
      <trkpt lat="46.15794" lon="6.65171">
        <ele>1424</ele>
        <time>2022-07-31T11:11:18Z</time>
      </trkpt>
      <trkpt lat="46.15794" lon="6.65172">
        <ele>1424</ele>
        <time>2022-07-31T11:11:19Z</time>
      </trkpt>
      <trkpt lat="46.15795" lon="6.65173">
        <ele>1424</ele>
        <time>2022-07-31T11:11:20Z</time>
      </trkpt>
      <trkpt lat="46.15795" lon="6.65174">
        <ele>1424</ele>
        <time>2022-07-31T11:11:21Z</time>
      </trkpt>
      <trkpt lat="46.15795" lon="6.65174">
        <ele>1424</ele>
        <time>2022-07-31T11:11:22Z</time>
      </trkpt>
      <trkpt lat="46.15796" lon="6.65175">
        <ele>1423</ele>
        <time>2022-07-31T11:11:23Z</time>
      </trkpt>
      <trkpt lat="46.15796" lon="6.65175">
        <ele>1423</ele>
        <time>2022-07-31T11:11:24Z</time>
      </trkpt>
      <trkpt lat="46.15797" lon="6.65177">
        <ele>1423</ele>
        <time>2022-07-31T11:11:25Z</time>
      </trkpt>
      <trkpt lat="46.15797" lon="6.65179">
        <ele>1423</ele>
        <time>2022-07-31T11:11:26Z</time>
      </trkpt>
      <trkpt lat="46.15798" lon="6.6518">
        <ele>1423</ele>
        <time>2022-07-31T11:11:27Z</time>
      </trkpt>
      <trkpt lat="46.158" lon="6.65181">
        <ele>1423</ele>
        <time>2022-07-31T11:11:28Z</time>
      </trkpt>
      <trkpt lat="46.15801" lon="6.65182">
        <ele>1423</ele>
        <time>2022-07-31T11:11:29Z</time>
      </trkpt>
      <trkpt lat="46.15802" lon="6.65183">
        <ele>1423</ele>
        <time>2022-07-31T11:11:30Z</time>
      </trkpt>
      <trkpt lat="46.15802" lon="6.65185">
        <ele>1423</ele>
        <time>2022-07-31T11:11:31Z</time>
      </trkpt>
      <trkpt lat="46.15804" lon="6.65186">
        <ele>1423</ele>
        <time>2022-07-31T11:11:32Z</time>
      </trkpt>
      <trkpt lat="46.15804" lon="6.65188">
        <ele>1423</ele>
        <time>2022-07-31T11:11:33Z</time>
      </trkpt>
      <trkpt lat="46.15805" lon="6.65189">
        <ele>1423</ele>
        <time>2022-07-31T11:11:34Z</time>
      </trkpt>
      <trkpt lat="46.15807" lon="6.6519">
        <ele>1423</ele>
        <time>2022-07-31T11:11:35Z</time>
      </trkpt>
      <trkpt lat="46.15808" lon="6.65191">
        <ele>1423</ele>
        <time>2022-07-31T11:11:36Z</time>
      </trkpt>
      <trkpt lat="46.15809" lon="6.65192">
        <ele>1423</ele>
        <time>2022-07-31T11:11:37Z</time>
      </trkpt>
      <trkpt lat="46.1581" lon="6.65192">
        <ele>1423</ele>
        <time>2022-07-31T11:11:38Z</time>
      </trkpt>
      <trkpt lat="46.15812" lon="6.65192">
        <ele>1423</ele>
        <time>2022-07-31T11:11:39Z</time>
      </trkpt>
      <trkpt lat="46.15813" lon="6.65192">
        <ele>1423</ele>
        <time>2022-07-31T11:11:40Z</time>
      </trkpt>
      <trkpt lat="46.15813" lon="6.65193">
        <ele>1423</ele>
        <time>2022-07-31T11:11:41Z</time>
      </trkpt>
      <trkpt lat="46.15815" lon="6.65194">
        <ele>1423</ele>
        <time>2022-07-31T11:11:42Z</time>
      </trkpt>
      <trkpt lat="46.15816" lon="6.65194">
        <ele>1423</ele>
        <time>2022-07-31T11:11:43Z</time>
      </trkpt>
      <trkpt lat="46.15817" lon="6.65194">
        <ele>1423</ele>
        <time>2022-07-31T11:11:44Z</time>
      </trkpt>
      <trkpt lat="46.15819" lon="6.65194">
        <ele>1423</ele>
        <time>2022-07-31T11:11:45Z</time>
      </trkpt>
      <trkpt lat="46.1582" lon="6.65193">
        <ele>1423</ele>
        <time>2022-07-31T11:11:46Z</time>
      </trkpt>
      <trkpt lat="46.15821" lon="6.65192">
        <ele>1423</ele>
        <time>2022-07-31T11:11:47Z</time>
      </trkpt>
      <trkpt lat="46.15822" lon="6.65191">
        <ele>1422</ele>
        <time>2022-07-31T11:11:48Z</time>
      </trkpt>
      <trkpt lat="46.15824" lon="6.6519">
        <ele>1422</ele>
        <time>2022-07-31T11:11:49Z</time>
      </trkpt>
      <trkpt lat="46.15825" lon="6.65189">
        <ele>1422</ele>
        <time>2022-07-31T11:11:50Z</time>
      </trkpt>
      <trkpt lat="46.15826" lon="6.65187">
        <ele>1422</ele>
        <time>2022-07-31T11:11:51Z</time>
      </trkpt>
      <trkpt lat="46.15827" lon="6.65185">
        <ele>1422</ele>
        <time>2022-07-31T11:11:52Z</time>
      </trkpt>
      <trkpt lat="46.15829" lon="6.65184">
        <ele>1422</ele>
        <time>2022-07-31T11:11:53Z</time>
      </trkpt>
      <trkpt lat="46.1583" lon="6.65182">
        <ele>1422</ele>
        <time>2022-07-31T11:11:54Z</time>
      </trkpt>
      <trkpt lat="46.1583" lon="6.65181">
        <ele>1422</ele>
        <time>2022-07-31T11:11:55Z</time>
      </trkpt>
      <trkpt lat="46.15832" lon="6.65181">
        <ele>1422</ele>
        <time>2022-07-31T11:11:56Z</time>
      </trkpt>
      <trkpt lat="46.15833" lon="6.65182">
        <ele>1422</ele>
        <time>2022-07-31T11:11:57Z</time>
      </trkpt>
      <trkpt lat="46.15834" lon="6.65181">
        <ele>1422</ele>
        <time>2022-07-31T11:11:58Z</time>
      </trkpt>
      <trkpt lat="46.15835" lon="6.65179">
        <ele>1422</ele>
        <time>2022-07-31T11:11:59Z</time>
      </trkpt>
      <trkpt lat="46.15837" lon="6.65178">
        <ele>1422</ele>
        <time>2022-07-31T11:12:00Z</time>
      </trkpt>
      <trkpt lat="46.15838" lon="6.65177">
        <ele>1422</ele>
        <time>2022-07-31T11:12:01Z</time>
      </trkpt>
      <trkpt lat="46.1584" lon="6.65176">
        <ele>1422</ele>
        <time>2022-07-31T11:12:02Z</time>
      </trkpt>
      <trkpt lat="46.15841" lon="6.65175">
        <ele>1422</ele>
        <time>2022-07-31T11:12:03Z</time>
      </trkpt>
      <trkpt lat="46.15841" lon="6.65174">
        <ele>1422</ele>
        <time>2022-07-31T11:12:04Z</time>
      </trkpt>
      <trkpt lat="46.15842" lon="6.65173">
        <ele>1422</ele>
        <time>2022-07-31T11:12:05Z</time>
      </trkpt>
      <trkpt lat="46.15842" lon="6.65174">
        <ele>1422</ele>
        <time>2022-07-31T11:12:06Z</time>
      </trkpt>
      <trkpt lat="46.15844" lon="6.65173">
        <ele>1422</ele>
        <time>2022-07-31T11:12:07Z</time>
      </trkpt>
      <trkpt lat="46.15845" lon="6.65173">
        <ele>1422</ele>
        <time>2022-07-31T11:12:08Z</time>
      </trkpt>
      <trkpt lat="46.15846" lon="6.65172">
        <ele>1423</ele>
        <time>2022-07-31T11:12:09Z</time>
      </trkpt>
      <trkpt lat="46.15846" lon="6.65172">
        <ele>1423</ele>
        <time>2022-07-31T11:12:10Z</time>
      </trkpt>
      <trkpt lat="46.15847" lon="6.65171">
        <ele>1423</ele>
        <time>2022-07-31T11:12:11Z</time>
      </trkpt>
      <trkpt lat="46.15848" lon="6.65172">
        <ele>1423</ele>
        <time>2022-07-31T11:12:12Z</time>
      </trkpt>
      <trkpt lat="46.15848" lon="6.65173">
        <ele>1423</ele>
        <time>2022-07-31T11:12:13Z</time>
      </trkpt>
      <trkpt lat="46.15849" lon="6.65173">
        <ele>1422</ele>
        <time>2022-07-31T11:12:14Z</time>
      </trkpt>
      <trkpt lat="46.15849" lon="6.65175">
        <ele>1422</ele>
        <time>2022-07-31T11:12:15Z</time>
      </trkpt>
      <trkpt lat="46.15849" lon="6.65177">
        <ele>1422</ele>
        <time>2022-07-31T11:12:16Z</time>
      </trkpt>
      <trkpt lat="46.15848" lon="6.65178">
        <ele>1422</ele>
        <time>2022-07-31T11:12:17Z</time>
      </trkpt>
      <trkpt lat="46.15847" lon="6.65179">
        <ele>1422</ele>
        <time>2022-07-31T11:12:18Z</time>
      </trkpt>
      <trkpt lat="46.15848" lon="6.65179">
        <ele>1422</ele>
        <time>2022-07-31T11:12:19Z</time>
      </trkpt>
      <trkpt lat="46.15848" lon="6.65178">
        <ele>1422</ele>
        <time>2022-07-31T11:12:20Z</time>
      </trkpt>
      <trkpt lat="46.15847" lon="6.65178">
        <ele>1422</ele>
        <time>2022-07-31T11:12:21Z</time>
      </trkpt>
      <trkpt lat="46.15847" lon="6.65177">
        <ele>1422</ele>
        <time>2022-07-31T11:12:22Z</time>
      </trkpt>
      <trkpt lat="46.15846" lon="6.65177">
        <ele>1422</ele>
        <time>2022-07-31T11:12:23Z</time>
      </trkpt>
      <trkpt lat="46.15846" lon="6.65177">
        <ele>1422</ele>
        <time>2022-07-31T11:12:24Z</time>
      </trkpt>
      <trkpt lat="46.15846" lon="6.65177">
        <ele>1421</ele>
        <time>2022-07-31T11:12:25Z</time>
      </trkpt>
      <trkpt lat="46.15846" lon="6.65177">
        <ele>1421</ele>
        <time>2022-07-31T11:12:26Z</time>
      </trkpt>
      <trkpt lat="46.15846" lon="6.65177">
        <ele>1421</ele>
        <time>2022-07-31T11:12:27Z</time>
      </trkpt>
      <trkpt lat="46.15846" lon="6.65176">
        <ele>1421</ele>
        <time>2022-07-31T11:12:28Z</time>
      </trkpt>
      <trkpt lat="46.15846" lon="6.65176">
        <ele>1421</ele>
        <time>2022-07-31T11:12:29Z</time>
      </trkpt>
      <trkpt lat="46.15846" lon="6.65176">
        <ele>1421</ele>
        <time>2022-07-31T11:12:30Z</time>
      </trkpt>
      <trkpt lat="46.15846" lon="6.65175">
        <ele>1421</ele>
        <time>2022-07-31T11:12:31Z</time>
      </trkpt>
      <trkpt lat="46.15846" lon="6.65175">
        <ele>1421</ele>
        <time>2022-07-31T11:12:32Z</time>
      </trkpt>
      <trkpt lat="46.15846" lon="6.65174">
        <ele>1421</ele>
        <time>2022-07-31T11:12:33Z</time>
      </trkpt>
      <trkpt lat="46.15846" lon="6.65174">
        <ele>1420</ele>
        <time>2022-07-31T11:12:34Z</time>
      </trkpt>
      <trkpt lat="46.15846" lon="6.65175">
        <ele>1420</ele>
        <time>2022-07-31T11:12:35Z</time>
      </trkpt>
      <trkpt lat="46.15846" lon="6.65176">
        <ele>1420</ele>
        <time>2022-07-31T11:12:36Z</time>
      </trkpt>
      <trkpt lat="46.15846" lon="6.65177">
        <ele>1420</ele>
        <time>2022-07-31T11:12:37Z</time>
      </trkpt>
      <trkpt lat="46.15846" lon="6.65178">
        <ele>1420</ele>
        <time>2022-07-31T11:12:38Z</time>
      </trkpt>
      <trkpt lat="46.15846" lon="6.65179">
        <ele>1420</ele>
        <time>2022-07-31T11:12:39Z</time>
      </trkpt>
      <trkpt lat="46.15846" lon="6.65181">
        <ele>1420</ele>
        <time>2022-07-31T11:12:40Z</time>
      </trkpt>
      <trkpt lat="46.15846" lon="6.65182">
        <ele>1420</ele>
        <time>2022-07-31T11:12:41Z</time>
      </trkpt>
      <trkpt lat="46.15846" lon="6.65184">
        <ele>1420</ele>
        <time>2022-07-31T11:12:42Z</time>
      </trkpt>
      <trkpt lat="46.15846" lon="6.65185">
        <ele>1420</ele>
        <time>2022-07-31T11:12:43Z</time>
      </trkpt>
      <trkpt lat="46.15846" lon="6.65186">
        <ele>1420</ele>
        <time>2022-07-31T11:12:44Z</time>
      </trkpt>
      <trkpt lat="46.15846" lon="6.65185">
        <ele>1420</ele>
        <time>2022-07-31T11:12:45Z</time>
      </trkpt>
      <trkpt lat="46.15845" lon="6.65186">
        <ele>1420</ele>
        <time>2022-07-31T11:12:46Z</time>
      </trkpt>
      <trkpt lat="46.15844" lon="6.65187">
        <ele>1420</ele>
        <time>2022-07-31T11:12:47Z</time>
      </trkpt>
      <trkpt lat="46.15844" lon="6.65189">
        <ele>1420</ele>
        <time>2022-07-31T11:12:48Z</time>
      </trkpt>
      <trkpt lat="46.15844" lon="6.65189">
        <ele>1420</ele>
        <time>2022-07-31T11:12:49Z</time>
      </trkpt>
      <trkpt lat="46.15844" lon="6.65189">
        <ele>1421</ele>
        <time>2022-07-31T11:12:50Z</time>
      </trkpt>
      <trkpt lat="46.15845" lon="6.65188">
        <ele>1421</ele>
        <time>2022-07-31T11:12:51Z</time>
      </trkpt>
      <trkpt lat="46.15845" lon="6.65187">
        <ele>1421</ele>
        <time>2022-07-31T11:12:52Z</time>
      </trkpt>
      <trkpt lat="46.15845" lon="6.65186">
        <ele>1421</ele>
        <time>2022-07-31T11:12:53Z</time>
      </trkpt>
      <trkpt lat="46.15846" lon="6.65186">
        <ele>1421</ele>
        <time>2022-07-31T11:12:54Z</time>
      </trkpt>
      <trkpt lat="46.15846" lon="6.65186">
        <ele>1421</ele>
        <time>2022-07-31T11:12:55Z</time>
      </trkpt>
      <trkpt lat="46.15846" lon="6.65185">
        <ele>1421</ele>
        <time>2022-07-31T11:12:56Z</time>
      </trkpt>
      <trkpt lat="46.15847" lon="6.65184">
        <ele>1421</ele>
        <time>2022-07-31T11:12:57Z</time>
      </trkpt>
      <trkpt lat="46.15847" lon="6.65183">
        <ele>1421</ele>
        <time>2022-07-31T11:12:58Z</time>
      </trkpt>
      <trkpt lat="46.15847" lon="6.65182">
        <ele>1421</ele>
        <time>2022-07-31T11:12:59Z</time>
      </trkpt>
      <trkpt lat="46.15847" lon="6.65181">
        <ele>1421</ele>
        <time>2022-07-31T11:13:00Z</time>
      </trkpt>
      <trkpt lat="46.15848" lon="6.6518">
        <ele>1421</ele>
        <time>2022-07-31T11:13:01Z</time>
      </trkpt>
      <trkpt lat="46.15849" lon="6.65178">
        <ele>1421</ele>
        <time>2022-07-31T11:13:02Z</time>
      </trkpt>
      <trkpt lat="46.15849" lon="6.65177">
        <ele>1421</ele>
        <time>2022-07-31T11:13:03Z</time>
      </trkpt>
      <trkpt lat="46.15849" lon="6.65177">
        <ele>1421</ele>
        <time>2022-07-31T11:13:04Z</time>
      </trkpt>
      <trkpt lat="46.1585" lon="6.65176">
        <ele>1421</ele>
        <time>2022-07-31T11:13:05Z</time>
      </trkpt>
      <trkpt lat="46.15851" lon="6.65175">
        <ele>1421</ele>
        <time>2022-07-31T11:13:06Z</time>
      </trkpt>
      <trkpt lat="46.15851" lon="6.65174">
        <ele>1421</ele>
        <time>2022-07-31T11:13:07Z</time>
      </trkpt>
      <trkpt lat="46.15852" lon="6.65175">
        <ele>1421</ele>
        <time>2022-07-31T11:13:08Z</time>
      </trkpt>
      <trkpt lat="46.15853" lon="6.65174">
        <ele>1422</ele>
        <time>2022-07-31T11:13:09Z</time>
      </trkpt>
      <trkpt lat="46.15853" lon="6.65173">
        <ele>1422</ele>
        <time>2022-07-31T11:13:10Z</time>
      </trkpt>
      <trkpt lat="46.15854" lon="6.65172">
        <ele>1422</ele>
        <time>2022-07-31T11:13:11Z</time>
      </trkpt>
      <trkpt lat="46.15854" lon="6.65171">
        <ele>1422</ele>
        <time>2022-07-31T11:13:12Z</time>
      </trkpt>
      <trkpt lat="46.15854" lon="6.65171">
        <ele>1422</ele>
        <time>2022-07-31T11:13:13Z</time>
      </trkpt>
      <trkpt lat="46.15855" lon="6.65172">
        <ele>1423</ele>
        <time>2022-07-31T11:13:14Z</time>
      </trkpt>
      <trkpt lat="46.15856" lon="6.65171">
        <ele>1423</ele>
        <time>2022-07-31T11:13:15Z</time>
      </trkpt>
      <trkpt lat="46.15856" lon="6.65171">
        <ele>1423</ele>
        <time>2022-07-31T11:13:16Z</time>
      </trkpt>
      <trkpt lat="46.15856" lon="6.65172">
        <ele>1423</ele>
        <time>2022-07-31T11:13:17Z</time>
      </trkpt>
      <trkpt lat="46.15856" lon="6.65174">
        <ele>1423</ele>
        <time>2022-07-31T11:13:18Z</time>
      </trkpt>
      <trkpt lat="46.15856" lon="6.65176">
        <ele>1424</ele>
        <time>2022-07-31T11:13:19Z</time>
      </trkpt>
      <trkpt lat="46.15856" lon="6.65178">
        <ele>1424</ele>
        <time>2022-07-31T11:13:20Z</time>
      </trkpt>
      <trkpt lat="46.15856" lon="6.65179">
        <ele>1424</ele>
        <time>2022-07-31T11:13:21Z</time>
      </trkpt>
      <trkpt lat="46.15856" lon="6.65182">
        <ele>1424</ele>
        <time>2022-07-31T11:13:22Z</time>
      </trkpt>
      <trkpt lat="46.15856" lon="6.65184">
        <ele>1424</ele>
        <time>2022-07-31T11:13:23Z</time>
      </trkpt>
      <trkpt lat="46.15857" lon="6.65186">
        <ele>1425</ele>
        <time>2022-07-31T11:13:24Z</time>
      </trkpt>
      <trkpt lat="46.15858" lon="6.65189">
        <ele>1425</ele>
        <time>2022-07-31T11:13:25Z</time>
      </trkpt>
      <trkpt lat="46.15857" lon="6.65191">
        <ele>1425</ele>
        <time>2022-07-31T11:13:26Z</time>
      </trkpt>
      <trkpt lat="46.15855" lon="6.65194">
        <ele>1425</ele>
        <time>2022-07-31T11:13:27Z</time>
      </trkpt>
      <trkpt lat="46.15855" lon="6.65195">
        <ele>1425</ele>
        <time>2022-07-31T11:13:28Z</time>
      </trkpt>
      <trkpt lat="46.15855" lon="6.65197">
        <ele>1425</ele>
        <time>2022-07-31T11:13:29Z</time>
      </trkpt>
      <trkpt lat="46.15856" lon="6.65198">
        <ele>1425</ele>
        <time>2022-07-31T11:13:30Z</time>
      </trkpt>
      <trkpt lat="46.15855" lon="6.652">
        <ele>1425</ele>
        <time>2022-07-31T11:13:31Z</time>
      </trkpt>
      <trkpt lat="46.15855" lon="6.65202">
        <ele>1425</ele>
        <time>2022-07-31T11:13:32Z</time>
      </trkpt>
      <trkpt lat="46.15854" lon="6.65204">
        <ele>1425</ele>
        <time>2022-07-31T11:13:33Z</time>
      </trkpt>
      <trkpt lat="46.15854" lon="6.65206">
        <ele>1425</ele>
        <time>2022-07-31T11:13:34Z</time>
      </trkpt>
      <trkpt lat="46.15854" lon="6.65207">
        <ele>1425</ele>
        <time>2022-07-31T11:13:35Z</time>
      </trkpt>
      <trkpt lat="46.15854" lon="6.65209">
        <ele>1425</ele>
        <time>2022-07-31T11:13:36Z</time>
      </trkpt>
      <trkpt lat="46.15853" lon="6.65211">
        <ele>1425</ele>
        <time>2022-07-31T11:13:37Z</time>
      </trkpt>
      <trkpt lat="46.15853" lon="6.65212">
        <ele>1425</ele>
        <time>2022-07-31T11:13:38Z</time>
      </trkpt>
      <trkpt lat="46.15853" lon="6.65213">
        <ele>1425</ele>
        <time>2022-07-31T11:13:39Z</time>
      </trkpt>
      <trkpt lat="46.15852" lon="6.65216">
        <ele>1425</ele>
        <time>2022-07-31T11:13:40Z</time>
      </trkpt>
      <trkpt lat="46.15852" lon="6.65219">
        <ele>1425</ele>
        <time>2022-07-31T11:13:41Z</time>
      </trkpt>
      <trkpt lat="46.15852" lon="6.65222">
        <ele>1425</ele>
        <time>2022-07-31T11:13:42Z</time>
      </trkpt>
      <trkpt lat="46.15852" lon="6.65224">
        <ele>1424</ele>
        <time>2022-07-31T11:13:43Z</time>
      </trkpt>
      <trkpt lat="46.15852" lon="6.65226">
        <ele>1424</ele>
        <time>2022-07-31T11:13:44Z</time>
      </trkpt>
      <trkpt lat="46.15851" lon="6.65228">
        <ele>1424</ele>
        <time>2022-07-31T11:13:45Z</time>
      </trkpt>
      <trkpt lat="46.15851" lon="6.6523">
        <ele>1424</ele>
        <time>2022-07-31T11:13:46Z</time>
      </trkpt>
      <trkpt lat="46.15851" lon="6.65231">
        <ele>1424</ele>
        <time>2022-07-31T11:13:47Z</time>
      </trkpt>
      <trkpt lat="46.1585" lon="6.65233">
        <ele>1424</ele>
        <time>2022-07-31T11:13:48Z</time>
      </trkpt>
      <trkpt lat="46.15849" lon="6.65235">
        <ele>1423</ele>
        <time>2022-07-31T11:13:49Z</time>
      </trkpt>
      <trkpt lat="46.15849" lon="6.65237">
        <ele>1423</ele>
        <time>2022-07-31T11:13:50Z</time>
      </trkpt>
      <trkpt lat="46.15849" lon="6.65238">
        <ele>1423</ele>
        <time>2022-07-31T11:13:51Z</time>
      </trkpt>
      <trkpt lat="46.15849" lon="6.65239">
        <ele>1423</ele>
        <time>2022-07-31T11:13:52Z</time>
      </trkpt>
      <trkpt lat="46.15848" lon="6.6524">
        <ele>1423</ele>
        <time>2022-07-31T11:13:53Z</time>
      </trkpt>
      <trkpt lat="46.15848" lon="6.65242">
        <ele>1422</ele>
        <time>2022-07-31T11:13:54Z</time>
      </trkpt>
      <trkpt lat="46.15846" lon="6.65244">
        <ele>1422</ele>
        <time>2022-07-31T11:13:55Z</time>
      </trkpt>
      <trkpt lat="46.15846" lon="6.65245">
        <ele>1422</ele>
        <time>2022-07-31T11:13:56Z</time>
      </trkpt>
      <trkpt lat="46.15846" lon="6.65247">
        <ele>1422</ele>
        <time>2022-07-31T11:13:57Z</time>
      </trkpt>
      <trkpt lat="46.15846" lon="6.65248">
        <ele>1422</ele>
        <time>2022-07-31T11:13:58Z</time>
      </trkpt>
      <trkpt lat="46.15846" lon="6.6525">
        <ele>1422</ele>
        <time>2022-07-31T11:13:59Z</time>
      </trkpt>
      <trkpt lat="46.15845" lon="6.65252">
        <ele>1421</ele>
        <time>2022-07-31T11:14:00Z</time>
      </trkpt>
      <trkpt lat="46.15845" lon="6.65253">
        <ele>1421</ele>
        <time>2022-07-31T11:14:01Z</time>
      </trkpt>
      <trkpt lat="46.15846" lon="6.65254">
        <ele>1421</ele>
        <time>2022-07-31T11:14:02Z</time>
      </trkpt>
      <trkpt lat="46.15846" lon="6.65257">
        <ele>1421</ele>
        <time>2022-07-31T11:14:03Z</time>
      </trkpt>
      <trkpt lat="46.15847" lon="6.65259">
        <ele>1421</ele>
        <time>2022-07-31T11:14:04Z</time>
      </trkpt>
      <trkpt lat="46.15847" lon="6.65261">
        <ele>1421</ele>
        <time>2022-07-31T11:14:05Z</time>
      </trkpt>
      <trkpt lat="46.15847" lon="6.65264">
        <ele>1421</ele>
        <time>2022-07-31T11:14:06Z</time>
      </trkpt>
      <trkpt lat="46.15848" lon="6.65266">
        <ele>1420</ele>
        <time>2022-07-31T11:14:07Z</time>
      </trkpt>
      <trkpt lat="46.15849" lon="6.65267">
        <ele>1420</ele>
        <time>2022-07-31T11:14:08Z</time>
      </trkpt>
      <trkpt lat="46.15849" lon="6.65269">
        <ele>1420</ele>
        <time>2022-07-31T11:14:09Z</time>
      </trkpt>
      <trkpt lat="46.1585" lon="6.65271">
        <ele>1420</ele>
        <time>2022-07-31T11:14:10Z</time>
      </trkpt>
      <trkpt lat="46.1585" lon="6.65273">
        <ele>1420</ele>
        <time>2022-07-31T11:14:11Z</time>
      </trkpt>
      <trkpt lat="46.1585" lon="6.65274">
        <ele>1420</ele>
        <time>2022-07-31T11:14:12Z</time>
      </trkpt>
      <trkpt lat="46.15851" lon="6.65276">
        <ele>1420</ele>
        <time>2022-07-31T11:14:13Z</time>
      </trkpt>
      <trkpt lat="46.15851" lon="6.65277">
        <ele>1420</ele>
        <time>2022-07-31T11:14:14Z</time>
      </trkpt>
      <trkpt lat="46.15852" lon="6.6528">
        <ele>1420</ele>
        <time>2022-07-31T11:14:15Z</time>
      </trkpt>
      <trkpt lat="46.15852" lon="6.65283">
        <ele>1420</ele>
        <time>2022-07-31T11:14:16Z</time>
      </trkpt>
      <trkpt lat="46.15852" lon="6.65285">
        <ele>1420</ele>
        <time>2022-07-31T11:14:17Z</time>
      </trkpt>
      <trkpt lat="46.15852" lon="6.65287">
        <ele>1420</ele>
        <time>2022-07-31T11:14:18Z</time>
      </trkpt>
      <trkpt lat="46.15852" lon="6.65288">
        <ele>1420</ele>
        <time>2022-07-31T11:14:19Z</time>
      </trkpt>
      <trkpt lat="46.15853" lon="6.6529">
        <ele>1420</ele>
        <time>2022-07-31T11:14:20Z</time>
      </trkpt>
      <trkpt lat="46.15853" lon="6.65291">
        <ele>1420</ele>
        <time>2022-07-31T11:14:21Z</time>
      </trkpt>
      <trkpt lat="46.15853" lon="6.65292">
        <ele>1420</ele>
        <time>2022-07-31T11:14:22Z</time>
      </trkpt>
      <trkpt lat="46.15853" lon="6.65294">
        <ele>1420</ele>
        <time>2022-07-31T11:14:23Z</time>
      </trkpt>
      <trkpt lat="46.15853" lon="6.65295">
        <ele>1420</ele>
        <time>2022-07-31T11:14:24Z</time>
      </trkpt>
      <trkpt lat="46.15853" lon="6.65296">
        <ele>1420</ele>
        <time>2022-07-31T11:14:25Z</time>
      </trkpt>
      <trkpt lat="46.15853" lon="6.65297">
        <ele>1420</ele>
        <time>2022-07-31T11:14:26Z</time>
      </trkpt>
      <trkpt lat="46.15853" lon="6.65299">
        <ele>1420</ele>
        <time>2022-07-31T11:14:27Z</time>
      </trkpt>
      <trkpt lat="46.15852" lon="6.653">
        <ele>1420</ele>
        <time>2022-07-31T11:14:28Z</time>
      </trkpt>
      <trkpt lat="46.15852" lon="6.65301">
        <ele>1420</ele>
        <time>2022-07-31T11:14:29Z</time>
      </trkpt>
      <trkpt lat="46.15851" lon="6.65302">
        <ele>1420</ele>
        <time>2022-07-31T11:14:30Z</time>
      </trkpt>
      <trkpt lat="46.1585" lon="6.65303">
        <ele>1420</ele>
        <time>2022-07-31T11:14:31Z</time>
      </trkpt>
      <trkpt lat="46.1585" lon="6.65304">
        <ele>1420</ele>
        <time>2022-07-31T11:14:32Z</time>
      </trkpt>
      <trkpt lat="46.1585" lon="6.65306">
        <ele>1420</ele>
        <time>2022-07-31T11:14:33Z</time>
      </trkpt>
      <trkpt lat="46.15849" lon="6.65308">
        <ele>1420</ele>
        <time>2022-07-31T11:14:34Z</time>
      </trkpt>
      <trkpt lat="46.15848" lon="6.65309">
        <ele>1420</ele>
        <time>2022-07-31T11:14:35Z</time>
      </trkpt>
      <trkpt lat="46.15847" lon="6.65311">
        <ele>1420</ele>
        <time>2022-07-31T11:14:36Z</time>
      </trkpt>
      <trkpt lat="46.15847" lon="6.65313">
        <ele>1420</ele>
        <time>2022-07-31T11:14:37Z</time>
      </trkpt>
      <trkpt lat="46.15847" lon="6.65315">
        <ele>1420</ele>
        <time>2022-07-31T11:14:38Z</time>
      </trkpt>
      <trkpt lat="46.15847" lon="6.65317">
        <ele>1420</ele>
        <time>2022-07-31T11:14:39Z</time>
      </trkpt>
      <trkpt lat="46.15847" lon="6.65318">
        <ele>1420</ele>
        <time>2022-07-31T11:14:40Z</time>
      </trkpt>
      <trkpt lat="46.15847" lon="6.6532">
        <ele>1420</ele>
        <time>2022-07-31T11:14:41Z</time>
      </trkpt>
      <trkpt lat="46.15847" lon="6.65321">
        <ele>1420</ele>
        <time>2022-07-31T11:14:42Z</time>
      </trkpt>
      <trkpt lat="46.15847" lon="6.65324">
        <ele>1420</ele>
        <time>2022-07-31T11:14:43Z</time>
      </trkpt>
      <trkpt lat="46.15846" lon="6.65326">
        <ele>1420</ele>
        <time>2022-07-31T11:14:44Z</time>
      </trkpt>
      <trkpt lat="46.15846" lon="6.65328">
        <ele>1420</ele>
        <time>2022-07-31T11:14:45Z</time>
      </trkpt>
      <trkpt lat="46.15845" lon="6.65329">
        <ele>1420</ele>
        <time>2022-07-31T11:14:46Z</time>
      </trkpt>
      <trkpt lat="46.15845" lon="6.6533">
        <ele>1420</ele>
        <time>2022-07-31T11:14:47Z</time>
      </trkpt>
      <trkpt lat="46.15845" lon="6.65331">
        <ele>1420</ele>
        <time>2022-07-31T11:14:48Z</time>
      </trkpt>
      <trkpt lat="46.15845" lon="6.65332">
        <ele>1420</ele>
        <time>2022-07-31T11:14:49Z</time>
      </trkpt>
      <trkpt lat="46.15845" lon="6.65333">
        <ele>1420</ele>
        <time>2022-07-31T11:14:50Z</time>
      </trkpt>
      <trkpt lat="46.15845" lon="6.65334">
        <ele>1420</ele>
        <time>2022-07-31T11:14:51Z</time>
      </trkpt>
      <trkpt lat="46.15845" lon="6.65335">
        <ele>1420</ele>
        <time>2022-07-31T11:14:52Z</time>
      </trkpt>
      <trkpt lat="46.15845" lon="6.65336">
        <ele>1419</ele>
        <time>2022-07-31T11:14:53Z</time>
      </trkpt>
      <trkpt lat="46.15844" lon="6.65338">
        <ele>1419</ele>
        <time>2022-07-31T11:14:54Z</time>
      </trkpt>
      <trkpt lat="46.15844" lon="6.6534">
        <ele>1419</ele>
        <time>2022-07-31T11:14:55Z</time>
      </trkpt>
      <trkpt lat="46.15844" lon="6.65342">
        <ele>1419</ele>
        <time>2022-07-31T11:14:56Z</time>
      </trkpt>
      <trkpt lat="46.15844" lon="6.65344">
        <ele>1419</ele>
        <time>2022-07-31T11:14:57Z</time>
      </trkpt>
      <trkpt lat="46.15844" lon="6.65346">
        <ele>1419</ele>
        <time>2022-07-31T11:14:58Z</time>
      </trkpt>
      <trkpt lat="46.15844" lon="6.65348">
        <ele>1419</ele>
        <time>2022-07-31T11:14:59Z</time>
      </trkpt>
      <trkpt lat="46.15844" lon="6.6535">
        <ele>1419</ele>
        <time>2022-07-31T11:15:00Z</time>
      </trkpt>
      <trkpt lat="46.15844" lon="6.65351">
        <ele>1419</ele>
        <time>2022-07-31T11:15:01Z</time>
      </trkpt>
      <trkpt lat="46.15844" lon="6.65353">
        <ele>1419</ele>
        <time>2022-07-31T11:15:02Z</time>
      </trkpt>
      <trkpt lat="46.15844" lon="6.65354">
        <ele>1419</ele>
        <time>2022-07-31T11:15:03Z</time>
      </trkpt>
      <trkpt lat="46.15845" lon="6.65356">
        <ele>1419</ele>
        <time>2022-07-31T11:15:04Z</time>
      </trkpt>
      <trkpt lat="46.15845" lon="6.65357">
        <ele>1418</ele>
        <time>2022-07-31T11:15:05Z</time>
      </trkpt>
      <trkpt lat="46.15844" lon="6.65359">
        <ele>1418</ele>
        <time>2022-07-31T11:15:06Z</time>
      </trkpt>
      <trkpt lat="46.15844" lon="6.6536">
        <ele>1418</ele>
        <time>2022-07-31T11:15:07Z</time>
      </trkpt>
      <trkpt lat="46.15844" lon="6.65361">
        <ele>1419</ele>
        <time>2022-07-31T11:15:08Z</time>
      </trkpt>
      <trkpt lat="46.15844" lon="6.65363">
        <ele>1419</ele>
        <time>2022-07-31T11:15:09Z</time>
      </trkpt>
      <trkpt lat="46.15844" lon="6.65365">
        <ele>1419</ele>
        <time>2022-07-31T11:15:10Z</time>
      </trkpt>
      <trkpt lat="46.15844" lon="6.65367">
        <ele>1419</ele>
        <time>2022-07-31T11:15:11Z</time>
      </trkpt>
      <trkpt lat="46.15844" lon="6.65369">
        <ele>1419</ele>
        <time>2022-07-31T11:15:12Z</time>
      </trkpt>
      <trkpt lat="46.15844" lon="6.65371">
        <ele>1419</ele>
        <time>2022-07-31T11:15:13Z</time>
      </trkpt>
      <trkpt lat="46.15845" lon="6.65373">
        <ele>1419</ele>
        <time>2022-07-31T11:15:14Z</time>
      </trkpt>
      <trkpt lat="46.15845" lon="6.65374">
        <ele>1418</ele>
        <time>2022-07-31T11:15:15Z</time>
      </trkpt>
      <trkpt lat="46.15846" lon="6.65376">
        <ele>1418</ele>
        <time>2022-07-31T11:15:16Z</time>
      </trkpt>
      <trkpt lat="46.15846" lon="6.65378">
        <ele>1418</ele>
        <time>2022-07-31T11:15:17Z</time>
      </trkpt>
      <trkpt lat="46.15846" lon="6.6538">
        <ele>1418</ele>
        <time>2022-07-31T11:15:18Z</time>
      </trkpt>
      <trkpt lat="46.15847" lon="6.65381">
        <ele>1418</ele>
        <time>2022-07-31T11:15:19Z</time>
      </trkpt>
      <trkpt lat="46.15847" lon="6.65382">
        <ele>1418</ele>
        <time>2022-07-31T11:15:20Z</time>
      </trkpt>
      <trkpt lat="46.15848" lon="6.65384">
        <ele>1418</ele>
        <time>2022-07-31T11:15:21Z</time>
      </trkpt>
      <trkpt lat="46.15848" lon="6.65386">
        <ele>1418</ele>
        <time>2022-07-31T11:15:22Z</time>
      </trkpt>
      <trkpt lat="46.15849" lon="6.65387">
        <ele>1418</ele>
        <time>2022-07-31T11:15:23Z</time>
      </trkpt>
      <trkpt lat="46.15849" lon="6.65388">
        <ele>1417</ele>
        <time>2022-07-31T11:15:24Z</time>
      </trkpt>
      <trkpt lat="46.15849" lon="6.65389">
        <ele>1417</ele>
        <time>2022-07-31T11:15:25Z</time>
      </trkpt>
      <trkpt lat="46.1585" lon="6.6539">
        <ele>1417</ele>
        <time>2022-07-31T11:15:26Z</time>
      </trkpt>
      <trkpt lat="46.15851" lon="6.6539">
        <ele>1417</ele>
        <time>2022-07-31T11:15:27Z</time>
      </trkpt>
      <trkpt lat="46.15852" lon="6.65391">
        <ele>1417</ele>
        <time>2022-07-31T11:15:28Z</time>
      </trkpt>
      <trkpt lat="46.15852" lon="6.65392">
        <ele>1417</ele>
        <time>2022-07-31T11:15:29Z</time>
      </trkpt>
      <trkpt lat="46.15853" lon="6.65394">
        <ele>1417</ele>
        <time>2022-07-31T11:15:30Z</time>
      </trkpt>
      <trkpt lat="46.15853" lon="6.65395">
        <ele>1417</ele>
        <time>2022-07-31T11:15:31Z</time>
      </trkpt>
      <trkpt lat="46.15854" lon="6.65396">
        <ele>1417</ele>
        <time>2022-07-31T11:15:32Z</time>
      </trkpt>
      <trkpt lat="46.15854" lon="6.65397">
        <ele>1417</ele>
        <time>2022-07-31T11:15:33Z</time>
      </trkpt>
      <trkpt lat="46.15854" lon="6.65399">
        <ele>1417</ele>
        <time>2022-07-31T11:15:34Z</time>
      </trkpt>
      <trkpt lat="46.15856" lon="6.654">
        <ele>1417</ele>
        <time>2022-07-31T11:15:35Z</time>
      </trkpt>
      <trkpt lat="46.15856" lon="6.65402">
        <ele>1417</ele>
        <time>2022-07-31T11:15:36Z</time>
      </trkpt>
      <trkpt lat="46.15856" lon="6.65403">
        <ele>1416</ele>
        <time>2022-07-31T11:15:37Z</time>
      </trkpt>
      <trkpt lat="46.15856" lon="6.65405">
        <ele>1416</ele>
        <time>2022-07-31T11:15:38Z</time>
      </trkpt>
      <trkpt lat="46.15857" lon="6.65406">
        <ele>1416</ele>
        <time>2022-07-31T11:15:39Z</time>
      </trkpt>
      <trkpt lat="46.15857" lon="6.65408">
        <ele>1416</ele>
        <time>2022-07-31T11:15:40Z</time>
      </trkpt>
      <trkpt lat="46.15858" lon="6.6541">
        <ele>1416</ele>
        <time>2022-07-31T11:15:41Z</time>
      </trkpt>
      <trkpt lat="46.15858" lon="6.6541">
        <ele>1416</ele>
        <time>2022-07-31T11:15:42Z</time>
      </trkpt>
      <trkpt lat="46.15858" lon="6.6541">
        <ele>1416</ele>
        <time>2022-07-31T11:15:43Z</time>
      </trkpt>
      <trkpt lat="46.15859" lon="6.65412">
        <ele>1416</ele>
        <time>2022-07-31T11:15:44Z</time>
      </trkpt>
      <trkpt lat="46.15859" lon="6.65414">
        <ele>1416</ele>
        <time>2022-07-31T11:15:45Z</time>
      </trkpt>
      <trkpt lat="46.15859" lon="6.65416">
        <ele>1416</ele>
        <time>2022-07-31T11:15:46Z</time>
      </trkpt>
      <trkpt lat="46.15859" lon="6.65417">
        <ele>1416</ele>
        <time>2022-07-31T11:15:47Z</time>
      </trkpt>
      <trkpt lat="46.15859" lon="6.65419">
        <ele>1416</ele>
        <time>2022-07-31T11:15:48Z</time>
      </trkpt>
      <trkpt lat="46.1586" lon="6.65421">
        <ele>1416</ele>
        <time>2022-07-31T11:15:49Z</time>
      </trkpt>
      <trkpt lat="46.1586" lon="6.65423">
        <ele>1416</ele>
        <time>2022-07-31T11:15:50Z</time>
      </trkpt>
      <trkpt lat="46.15861" lon="6.65424">
        <ele>1416</ele>
        <time>2022-07-31T11:15:51Z</time>
      </trkpt>
      <trkpt lat="46.15861" lon="6.65425">
        <ele>1416</ele>
        <time>2022-07-31T11:15:52Z</time>
      </trkpt>
      <trkpt lat="46.15861" lon="6.65425">
        <ele>1416</ele>
        <time>2022-07-31T11:15:53Z</time>
      </trkpt>
      <trkpt lat="46.15862" lon="6.65426">
        <ele>1416</ele>
        <time>2022-07-31T11:15:54Z</time>
      </trkpt>
      <trkpt lat="46.15861" lon="6.65428">
        <ele>1416</ele>
        <time>2022-07-31T11:15:55Z</time>
      </trkpt>
      <trkpt lat="46.15862" lon="6.65431">
        <ele>1416</ele>
        <time>2022-07-31T11:15:56Z</time>
      </trkpt>
      <trkpt lat="46.15861" lon="6.65434">
        <ele>1416</ele>
        <time>2022-07-31T11:15:57Z</time>
      </trkpt>
      <trkpt lat="46.15861" lon="6.65436">
        <ele>1416</ele>
        <time>2022-07-31T11:15:58Z</time>
      </trkpt>
      <trkpt lat="46.15861" lon="6.65439">
        <ele>1416</ele>
        <time>2022-07-31T11:15:59Z</time>
      </trkpt>
      <trkpt lat="46.15861" lon="6.65442">
        <ele>1416</ele>
        <time>2022-07-31T11:16:00Z</time>
      </trkpt>
      <trkpt lat="46.15861" lon="6.65443">
        <ele>1416</ele>
        <time>2022-07-31T11:16:01Z</time>
      </trkpt>
      <trkpt lat="46.15862" lon="6.65445">
        <ele>1416</ele>
        <time>2022-07-31T11:16:02Z</time>
      </trkpt>
      <trkpt lat="46.15863" lon="6.65446">
        <ele>1416</ele>
        <time>2022-07-31T11:16:03Z</time>
      </trkpt>
      <trkpt lat="46.15864" lon="6.65448">
        <ele>1415</ele>
        <time>2022-07-31T11:16:04Z</time>
      </trkpt>
      <trkpt lat="46.15866" lon="6.6545">
        <ele>1415</ele>
        <time>2022-07-31T11:16:05Z</time>
      </trkpt>
      <trkpt lat="46.15866" lon="6.65452">
        <ele>1415</ele>
        <time>2022-07-31T11:16:06Z</time>
      </trkpt>
      <trkpt lat="46.15866" lon="6.65453">
        <ele>1415</ele>
        <time>2022-07-31T11:16:07Z</time>
      </trkpt>
      <trkpt lat="46.15868" lon="6.65453">
        <ele>1415</ele>
        <time>2022-07-31T11:16:08Z</time>
      </trkpt>
      <trkpt lat="46.15868" lon="6.65454">
        <ele>1415</ele>
        <time>2022-07-31T11:16:09Z</time>
      </trkpt>
      <trkpt lat="46.15869" lon="6.65455">
        <ele>1415</ele>
        <time>2022-07-31T11:16:10Z</time>
      </trkpt>
      <trkpt lat="46.1587" lon="6.65456">
        <ele>1415</ele>
        <time>2022-07-31T11:16:11Z</time>
      </trkpt>
      <trkpt lat="46.15871" lon="6.65457">
        <ele>1415</ele>
        <time>2022-07-31T11:16:12Z</time>
      </trkpt>
      <trkpt lat="46.15871" lon="6.65459">
        <ele>1415</ele>
        <time>2022-07-31T11:16:13Z</time>
      </trkpt>
      <trkpt lat="46.15872" lon="6.6546">
        <ele>1415</ele>
        <time>2022-07-31T11:16:14Z</time>
      </trkpt>
      <trkpt lat="46.15873" lon="6.65461">
        <ele>1415</ele>
        <time>2022-07-31T11:16:15Z</time>
      </trkpt>
      <trkpt lat="46.15874" lon="6.65462">
        <ele>1415</ele>
        <time>2022-07-31T11:16:16Z</time>
      </trkpt>
      <trkpt lat="46.15875" lon="6.65462">
        <ele>1415</ele>
        <time>2022-07-31T11:16:17Z</time>
      </trkpt>
      <trkpt lat="46.15875" lon="6.65463">
        <ele>1416</ele>
        <time>2022-07-31T11:16:18Z</time>
      </trkpt>
      <trkpt lat="46.15876" lon="6.65464">
        <ele>1416</ele>
        <time>2022-07-31T11:16:19Z</time>
      </trkpt>
      <trkpt lat="46.15876" lon="6.65465">
        <ele>1416</ele>
        <time>2022-07-31T11:16:20Z</time>
      </trkpt>
      <trkpt lat="46.15877" lon="6.65467">
        <ele>1416</ele>
        <time>2022-07-31T11:16:21Z</time>
      </trkpt>
      <trkpt lat="46.15878" lon="6.65469">
        <ele>1416</ele>
        <time>2022-07-31T11:16:22Z</time>
      </trkpt>
      <trkpt lat="46.15879" lon="6.65471">
        <ele>1416</ele>
        <time>2022-07-31T11:16:23Z</time>
      </trkpt>
      <trkpt lat="46.15879" lon="6.65473">
        <ele>1416</ele>
        <time>2022-07-31T11:16:24Z</time>
      </trkpt>
      <trkpt lat="46.15879" lon="6.65474">
        <ele>1415</ele>
        <time>2022-07-31T11:16:25Z</time>
      </trkpt>
      <trkpt lat="46.15881" lon="6.65475">
        <ele>1415</ele>
        <time>2022-07-31T11:16:26Z</time>
      </trkpt>
      <trkpt lat="46.15881" lon="6.65477">
        <ele>1415</ele>
        <time>2022-07-31T11:16:27Z</time>
      </trkpt>
      <trkpt lat="46.15882" lon="6.65478">
        <ele>1415</ele>
        <time>2022-07-31T11:16:28Z</time>
      </trkpt>
      <trkpt lat="46.15882" lon="6.6548">
        <ele>1415</ele>
        <time>2022-07-31T11:16:29Z</time>
      </trkpt>
      <trkpt lat="46.15882" lon="6.65481">
        <ele>1415</ele>
        <time>2022-07-31T11:16:30Z</time>
      </trkpt>
      <trkpt lat="46.15882" lon="6.65481">
        <ele>1415</ele>
        <time>2022-07-31T11:16:31Z</time>
      </trkpt>
      <trkpt lat="46.15882" lon="6.65481">
        <ele>1415</ele>
        <time>2022-07-31T11:16:32Z</time>
      </trkpt>
      <trkpt lat="46.15882" lon="6.65483">
        <ele>1415</ele>
        <time>2022-07-31T11:16:33Z</time>
      </trkpt>
      <trkpt lat="46.15881" lon="6.65483">
        <ele>1415</ele>
        <time>2022-07-31T11:16:34Z</time>
      </trkpt>
      <trkpt lat="46.1588" lon="6.65483">
        <ele>1415</ele>
        <time>2022-07-31T11:16:35Z</time>
      </trkpt>
      <trkpt lat="46.15879" lon="6.65483">
        <ele>1415</ele>
        <time>2022-07-31T11:16:36Z</time>
      </trkpt>
      <trkpt lat="46.15878" lon="6.65483">
        <ele>1415</ele>
        <time>2022-07-31T11:16:37Z</time>
      </trkpt>
      <trkpt lat="46.15877" lon="6.65483">
        <ele>1415</ele>
        <time>2022-07-31T11:16:38Z</time>
      </trkpt>
      <trkpt lat="46.15876" lon="6.65483">
        <ele>1415</ele>
        <time>2022-07-31T11:16:39Z</time>
      </trkpt>
      <trkpt lat="46.15875" lon="6.65483">
        <ele>1415</ele>
        <time>2022-07-31T11:16:40Z</time>
      </trkpt>
      <trkpt lat="46.15874" lon="6.65482">
        <ele>1415</ele>
        <time>2022-07-31T11:16:41Z</time>
      </trkpt>
      <trkpt lat="46.15873" lon="6.65481">
        <ele>1415</ele>
        <time>2022-07-31T11:16:42Z</time>
      </trkpt>
      <trkpt lat="46.15871" lon="6.65481">
        <ele>1415</ele>
        <time>2022-07-31T11:16:43Z</time>
      </trkpt>
      <trkpt lat="46.1587" lon="6.65481">
        <ele>1415</ele>
        <time>2022-07-31T11:16:44Z</time>
      </trkpt>
      <trkpt lat="46.15869" lon="6.65481">
        <ele>1415</ele>
        <time>2022-07-31T11:16:45Z</time>
      </trkpt>
      <trkpt lat="46.15868" lon="6.6548">
        <ele>1415</ele>
        <time>2022-07-31T11:16:46Z</time>
      </trkpt>
      <trkpt lat="46.15867" lon="6.6548">
        <ele>1416</ele>
        <time>2022-07-31T11:16:47Z</time>
      </trkpt>
      <trkpt lat="46.15867" lon="6.65479">
        <ele>1416</ele>
        <time>2022-07-31T11:16:48Z</time>
      </trkpt>
      <trkpt lat="46.15866" lon="6.65478">
        <ele>1416</ele>
        <time>2022-07-31T11:16:49Z</time>
      </trkpt>
      <trkpt lat="46.15864" lon="6.65477">
        <ele>1416</ele>
        <time>2022-07-31T11:16:50Z</time>
      </trkpt>
      <trkpt lat="46.15862" lon="6.65476">
        <ele>1416</ele>
        <time>2022-07-31T11:16:51Z</time>
      </trkpt>
      <trkpt lat="46.15861" lon="6.65476">
        <ele>1416</ele>
        <time>2022-07-31T11:16:52Z</time>
      </trkpt>
      <trkpt lat="46.15859" lon="6.65476">
        <ele>1417</ele>
        <time>2022-07-31T11:16:53Z</time>
      </trkpt>
      <trkpt lat="46.15858" lon="6.65476">
        <ele>1417</ele>
        <time>2022-07-31T11:16:54Z</time>
      </trkpt>
      <trkpt lat="46.15856" lon="6.65476">
        <ele>1417</ele>
        <time>2022-07-31T11:16:55Z</time>
      </trkpt>
      <trkpt lat="46.15855" lon="6.65477">
        <ele>1417</ele>
        <time>2022-07-31T11:16:56Z</time>
      </trkpt>
      <trkpt lat="46.15854" lon="6.65478">
        <ele>1417</ele>
        <time>2022-07-31T11:16:57Z</time>
      </trkpt>
      <trkpt lat="46.15854" lon="6.65479">
        <ele>1417</ele>
        <time>2022-07-31T11:16:58Z</time>
      </trkpt>
      <trkpt lat="46.15853" lon="6.6548">
        <ele>1417</ele>
        <time>2022-07-31T11:16:59Z</time>
      </trkpt>
      <trkpt lat="46.15853" lon="6.6548">
        <ele>1417</ele>
        <time>2022-07-31T11:17:00Z</time>
      </trkpt>
      <trkpt lat="46.15852" lon="6.65481">
        <ele>1418</ele>
        <time>2022-07-31T11:17:01Z</time>
      </trkpt>
      <trkpt lat="46.15852" lon="6.65481">
        <ele>1418</ele>
        <time>2022-07-31T11:17:02Z</time>
      </trkpt>
      <trkpt lat="46.15851" lon="6.65481">
        <ele>1418</ele>
        <time>2022-07-31T11:17:03Z</time>
      </trkpt>
      <trkpt lat="46.1585" lon="6.65481">
        <ele>1418</ele>
        <time>2022-07-31T11:17:04Z</time>
      </trkpt>
      <trkpt lat="46.1585" lon="6.65482">
        <ele>1418</ele>
        <time>2022-07-31T11:17:05Z</time>
      </trkpt>
      <trkpt lat="46.1585" lon="6.65481">
        <ele>1418</ele>
        <time>2022-07-31T11:17:06Z</time>
      </trkpt>
      <trkpt lat="46.15849" lon="6.65482">
        <ele>1418</ele>
        <time>2022-07-31T11:17:07Z</time>
      </trkpt>
      <trkpt lat="46.15849" lon="6.65482">
        <ele>1418</ele>
        <time>2022-07-31T11:17:08Z</time>
      </trkpt>
      <trkpt lat="46.15849" lon="6.65482">
        <ele>1418</ele>
        <time>2022-07-31T11:17:09Z</time>
      </trkpt>
      <trkpt lat="46.15849" lon="6.65481">
        <ele>1418</ele>
        <time>2022-07-31T11:17:10Z</time>
      </trkpt>
      <trkpt lat="46.15849" lon="6.65481">
        <ele>1418</ele>
        <time>2022-07-31T11:17:11Z</time>
      </trkpt>
      <trkpt lat="46.15849" lon="6.6548">
        <ele>1418</ele>
        <time>2022-07-31T11:17:12Z</time>
      </trkpt>
      <trkpt lat="46.15849" lon="6.65479">
        <ele>1418</ele>
        <time>2022-07-31T11:17:13Z</time>
      </trkpt>
      <trkpt lat="46.15849" lon="6.65478">
        <ele>1419</ele>
        <time>2022-07-31T11:17:14Z</time>
      </trkpt>
      <trkpt lat="46.15849" lon="6.65477">
        <ele>1419</ele>
        <time>2022-07-31T11:17:15Z</time>
      </trkpt>
      <trkpt lat="46.15849" lon="6.65476">
        <ele>1419</ele>
        <time>2022-07-31T11:17:16Z</time>
      </trkpt>
      <trkpt lat="46.15849" lon="6.65477">
        <ele>1419</ele>
        <time>2022-07-31T11:17:17Z</time>
      </trkpt>
      <trkpt lat="46.15849" lon="6.65478">
        <ele>1419</ele>
        <time>2022-07-31T11:17:18Z</time>
      </trkpt>
      <trkpt lat="46.15849" lon="6.65477">
        <ele>1419</ele>
        <time>2022-07-31T11:17:19Z</time>
      </trkpt>
      <trkpt lat="46.15849" lon="6.65478">
        <ele>1419</ele>
        <time>2022-07-31T11:17:20Z</time>
      </trkpt>
      <trkpt lat="46.15848" lon="6.65478">
        <ele>1419</ele>
        <time>2022-07-31T11:17:21Z</time>
      </trkpt>
      <trkpt lat="46.15848" lon="6.65478">
        <ele>1420</ele>
        <time>2022-07-31T11:17:22Z</time>
      </trkpt>
      <trkpt lat="46.15847" lon="6.65478">
        <ele>1420</ele>
        <time>2022-07-31T11:17:23Z</time>
      </trkpt>
      <trkpt lat="46.15846" lon="6.65479">
        <ele>1420</ele>
        <time>2022-07-31T11:17:24Z</time>
      </trkpt>
      <trkpt lat="46.15847" lon="6.65479">
        <ele>1420</ele>
        <time>2022-07-31T11:17:25Z</time>
      </trkpt>
      <trkpt lat="46.15846" lon="6.65479">
        <ele>1420</ele>
        <time>2022-07-31T11:17:26Z</time>
      </trkpt>
      <trkpt lat="46.15846" lon="6.65479">
        <ele>1420</ele>
        <time>2022-07-31T11:17:27Z</time>
      </trkpt>
      <trkpt lat="46.15846" lon="6.65479">
        <ele>1421</ele>
        <time>2022-07-31T11:17:28Z</time>
      </trkpt>
      <trkpt lat="46.15846" lon="6.65478">
        <ele>1421</ele>
        <time>2022-07-31T11:17:29Z</time>
      </trkpt>
      <trkpt lat="46.15846" lon="6.65479">
        <ele>1421</ele>
        <time>2022-07-31T11:17:30Z</time>
      </trkpt>
      <trkpt lat="46.15846" lon="6.6548">
        <ele>1421</ele>
        <time>2022-07-31T11:17:31Z</time>
      </trkpt>
      <trkpt lat="46.15846" lon="6.65481">
        <ele>1421</ele>
        <time>2022-07-31T11:17:32Z</time>
      </trkpt>
      <trkpt lat="46.15846" lon="6.65482">
        <ele>1422</ele>
        <time>2022-07-31T11:17:33Z</time>
      </trkpt>
      <trkpt lat="46.15846" lon="6.65482">
        <ele>1422</ele>
        <time>2022-07-31T11:17:34Z</time>
      </trkpt>
      <trkpt lat="46.15846" lon="6.65481">
        <ele>1422</ele>
        <time>2022-07-31T11:17:35Z</time>
      </trkpt>
      <trkpt lat="46.15846" lon="6.65482">
        <ele>1422</ele>
        <time>2022-07-31T11:17:36Z</time>
      </trkpt>
      <trkpt lat="46.15846" lon="6.65483">
        <ele>1422</ele>
        <time>2022-07-31T11:17:37Z</time>
      </trkpt>
      <trkpt lat="46.15846" lon="6.65484">
        <ele>1423</ele>
        <time>2022-07-31T11:17:38Z</time>
      </trkpt>
      <trkpt lat="46.15846" lon="6.65484">
        <ele>1423</ele>
        <time>2022-07-31T11:17:39Z</time>
      </trkpt>
      <trkpt lat="46.15847" lon="6.65485">
        <ele>1423</ele>
        <time>2022-07-31T11:17:40Z</time>
      </trkpt>
      <trkpt lat="46.15848" lon="6.65485">
        <ele>1423</ele>
        <time>2022-07-31T11:17:41Z</time>
      </trkpt>
      <trkpt lat="46.15848" lon="6.65485">
        <ele>1424</ele>
        <time>2022-07-31T11:17:42Z</time>
      </trkpt>
      <trkpt lat="46.15849" lon="6.65485">
        <ele>1424</ele>
        <time>2022-07-31T11:17:43Z</time>
      </trkpt>
      <trkpt lat="46.15849" lon="6.65485">
        <ele>1424</ele>
        <time>2022-07-31T11:17:44Z</time>
      </trkpt>
      <trkpt lat="46.15849" lon="6.65485">
        <ele>1424</ele>
        <time>2022-07-31T11:17:45Z</time>
      </trkpt>
      <trkpt lat="46.1585" lon="6.65484">
        <ele>1424</ele>
        <time>2022-07-31T11:17:46Z</time>
      </trkpt>
      <trkpt lat="46.15851" lon="6.65485">
        <ele>1424</ele>
        <time>2022-07-31T11:17:47Z</time>
      </trkpt>
      <trkpt lat="46.15852" lon="6.65485">
        <ele>1424</ele>
        <time>2022-07-31T11:17:48Z</time>
      </trkpt>
      <trkpt lat="46.15851" lon="6.65485">
        <ele>1425</ele>
        <time>2022-07-31T11:17:49Z</time>
      </trkpt>
      <trkpt lat="46.15851" lon="6.65485">
        <ele>1425</ele>
        <time>2022-07-31T11:17:50Z</time>
      </trkpt>
      <trkpt lat="46.15851" lon="6.65484">
        <ele>1425</ele>
        <time>2022-07-31T11:17:51Z</time>
      </trkpt>
      <trkpt lat="46.15852" lon="6.65484">
        <ele>1425</ele>
        <time>2022-07-31T11:17:52Z</time>
      </trkpt>
      <trkpt lat="46.15852" lon="6.65484">
        <ele>1425</ele>
        <time>2022-07-31T11:17:53Z</time>
      </trkpt>
      <trkpt lat="46.15852" lon="6.65485">
        <ele>1425</ele>
        <time>2022-07-31T11:17:54Z</time>
      </trkpt>
      <trkpt lat="46.15852" lon="6.65485">
        <ele>1425</ele>
        <time>2022-07-31T11:17:55Z</time>
      </trkpt>
      <trkpt lat="46.15852" lon="6.65486">
        <ele>1425</ele>
        <time>2022-07-31T11:17:56Z</time>
      </trkpt>
      <trkpt lat="46.15852" lon="6.65487">
        <ele>1425</ele>
        <time>2022-07-31T11:17:57Z</time>
      </trkpt>
      <trkpt lat="46.15852" lon="6.65487">
        <ele>1425</ele>
        <time>2022-07-31T11:17:58Z</time>
      </trkpt>
      <trkpt lat="46.1585" lon="6.65487">
        <ele>1425</ele>
        <time>2022-07-31T11:17:59Z</time>
      </trkpt>
      <trkpt lat="46.15849" lon="6.65487">
        <ele>1425</ele>
        <time>2022-07-31T11:18:00Z</time>
      </trkpt>
      <trkpt lat="46.15849" lon="6.65487">
        <ele>1425</ele>
        <time>2022-07-31T11:18:01Z</time>
      </trkpt>
      <trkpt lat="46.15849" lon="6.65487">
        <ele>1425</ele>
        <time>2022-07-31T11:18:02Z</time>
      </trkpt>
      <trkpt lat="46.15849" lon="6.65488">
        <ele>1425</ele>
        <time>2022-07-31T11:18:03Z</time>
      </trkpt>
      <trkpt lat="46.15849" lon="6.65488">
        <ele>1425</ele>
        <time>2022-07-31T11:18:04Z</time>
      </trkpt>
      <trkpt lat="46.15848" lon="6.65488">
        <ele>1425</ele>
        <time>2022-07-31T11:18:05Z</time>
      </trkpt>
      <trkpt lat="46.15847" lon="6.65487">
        <ele>1425</ele>
        <time>2022-07-31T11:18:06Z</time>
      </trkpt>
      <trkpt lat="46.15846" lon="6.65487">
        <ele>1425</ele>
        <time>2022-07-31T11:18:07Z</time>
      </trkpt>
      <trkpt lat="46.15846" lon="6.65487">
        <ele>1425</ele>
        <time>2022-07-31T11:18:08Z</time>
      </trkpt>
      <trkpt lat="46.15846" lon="6.65487">
        <ele>1425</ele>
        <time>2022-07-31T11:18:09Z</time>
      </trkpt>
      <trkpt lat="46.15846" lon="6.65488">
        <ele>1425</ele>
        <time>2022-07-31T11:18:10Z</time>
      </trkpt>
      <trkpt lat="46.15846" lon="6.65489">
        <ele>1425</ele>
        <time>2022-07-31T11:18:11Z</time>
      </trkpt>
      <trkpt lat="46.15846" lon="6.65489">
        <ele>1425</ele>
        <time>2022-07-31T11:18:12Z</time>
      </trkpt>
      <trkpt lat="46.15846" lon="6.65489">
        <ele>1425</ele>
        <time>2022-07-31T11:18:13Z</time>
      </trkpt>
      <trkpt lat="46.15846" lon="6.65489">
        <ele>1425</ele>
        <time>2022-07-31T11:18:14Z</time>
      </trkpt>
      <trkpt lat="46.15846" lon="6.65489">
        <ele>1426</ele>
        <time>2022-07-31T11:18:15Z</time>
      </trkpt>
      <trkpt lat="46.15846" lon="6.6549">
        <ele>1426</ele>
        <time>2022-07-31T11:18:16Z</time>
      </trkpt>
      <trkpt lat="46.15846" lon="6.6549">
        <ele>1426</ele>
        <time>2022-07-31T11:18:17Z</time>
      </trkpt>
      <trkpt lat="46.15846" lon="6.65491">
        <ele>1426</ele>
        <time>2022-07-31T11:18:18Z</time>
      </trkpt>
      <trkpt lat="46.15846" lon="6.6549">
        <ele>1426</ele>
        <time>2022-07-31T11:18:19Z</time>
      </trkpt>
      <trkpt lat="46.15846" lon="6.6549">
        <ele>1425</ele>
        <time>2022-07-31T11:18:20Z</time>
      </trkpt>
      <trkpt lat="46.15846" lon="6.65489">
        <ele>1425</ele>
        <time>2022-07-31T11:18:21Z</time>
      </trkpt>
      <trkpt lat="46.15846" lon="6.6549">
        <ele>1425</ele>
        <time>2022-07-31T11:18:22Z</time>
      </trkpt>
      <trkpt lat="46.15845" lon="6.65491">
        <ele>1425</ele>
        <time>2022-07-31T11:18:23Z</time>
      </trkpt>
      <trkpt lat="46.15845" lon="6.6549">
        <ele>1425</ele>
        <time>2022-07-31T11:18:24Z</time>
      </trkpt>
      <trkpt lat="46.15844" lon="6.65489">
        <ele>1425</ele>
        <time>2022-07-31T11:18:25Z</time>
      </trkpt>
      <trkpt lat="46.15842" lon="6.65489">
        <ele>1425</ele>
        <time>2022-07-31T11:18:26Z</time>
      </trkpt>
      <trkpt lat="46.15841" lon="6.65489">
        <ele>1424</ele>
        <time>2022-07-31T11:18:27Z</time>
      </trkpt>
      <trkpt lat="46.1584" lon="6.65489">
        <ele>1424</ele>
        <time>2022-07-31T11:18:28Z</time>
      </trkpt>
      <trkpt lat="46.15839" lon="6.65489">
        <ele>1424</ele>
        <time>2022-07-31T11:18:29Z</time>
      </trkpt>
      <trkpt lat="46.15838" lon="6.65489">
        <ele>1423</ele>
        <time>2022-07-31T11:18:30Z</time>
      </trkpt>
      <trkpt lat="46.15836" lon="6.65489">
        <ele>1423</ele>
        <time>2022-07-31T11:18:31Z</time>
      </trkpt>
      <trkpt lat="46.15834" lon="6.6549">
        <ele>1423</ele>
        <time>2022-07-31T11:18:32Z</time>
      </trkpt>
      <trkpt lat="46.15834" lon="6.6549">
        <ele>1423</ele>
        <time>2022-07-31T11:18:33Z</time>
      </trkpt>
      <trkpt lat="46.15833" lon="6.6549">
        <ele>1422</ele>
        <time>2022-07-31T11:18:34Z</time>
      </trkpt>
      <trkpt lat="46.15832" lon="6.6549">
        <ele>1422</ele>
        <time>2022-07-31T11:18:35Z</time>
      </trkpt>
      <trkpt lat="46.15831" lon="6.65491">
        <ele>1422</ele>
        <time>2022-07-31T11:18:36Z</time>
      </trkpt>
      <trkpt lat="46.1583" lon="6.65492">
        <ele>1422</ele>
        <time>2022-07-31T11:18:37Z</time>
      </trkpt>
      <trkpt lat="46.15829" lon="6.65493">
        <ele>1422</ele>
        <time>2022-07-31T11:18:38Z</time>
      </trkpt>
      <trkpt lat="46.15827" lon="6.65494">
        <ele>1421</ele>
        <time>2022-07-31T11:18:39Z</time>
      </trkpt>
      <trkpt lat="46.15826" lon="6.65495">
        <ele>1421</ele>
        <time>2022-07-31T11:18:40Z</time>
      </trkpt>
      <trkpt lat="46.15825" lon="6.65495">
        <ele>1421</ele>
        <time>2022-07-31T11:18:41Z</time>
      </trkpt>
      <trkpt lat="46.15824" lon="6.65495">
        <ele>1420</ele>
        <time>2022-07-31T11:18:42Z</time>
      </trkpt>
      <trkpt lat="46.15822" lon="6.65496">
        <ele>1420</ele>
        <time>2022-07-31T11:18:43Z</time>
      </trkpt>
      <trkpt lat="46.15821" lon="6.65496">
        <ele>1420</ele>
        <time>2022-07-31T11:18:44Z</time>
      </trkpt>
      <trkpt lat="46.15821" lon="6.65496">
        <ele>1420</ele>
        <time>2022-07-31T11:18:45Z</time>
      </trkpt>
      <trkpt lat="46.15821" lon="6.65496">
        <ele>1419</ele>
        <time>2022-07-31T11:18:46Z</time>
      </trkpt>
      <trkpt lat="46.1582" lon="6.65496">
        <ele>1419</ele>
        <time>2022-07-31T11:18:47Z</time>
      </trkpt>
      <trkpt lat="46.1582" lon="6.65496">
        <ele>1419</ele>
        <time>2022-07-31T11:18:48Z</time>
      </trkpt>
      <trkpt lat="46.1582" lon="6.65496">
        <ele>1419</ele>
        <time>2022-07-31T11:18:49Z</time>
      </trkpt>
      <trkpt lat="46.15819" lon="6.65497">
        <ele>1418</ele>
        <time>2022-07-31T11:18:50Z</time>
      </trkpt>
      <trkpt lat="46.15819" lon="6.65497">
        <ele>1418</ele>
        <time>2022-07-31T11:18:51Z</time>
      </trkpt>
      <trkpt lat="46.15819" lon="6.65497">
        <ele>1418</ele>
        <time>2022-07-31T11:18:52Z</time>
      </trkpt>
      <trkpt lat="46.15819" lon="6.65497">
        <ele>1418</ele>
        <time>2022-07-31T11:18:53Z</time>
      </trkpt>
      <trkpt lat="46.15819" lon="6.65497">
        <ele>1417</ele>
        <time>2022-07-31T11:18:54Z</time>
      </trkpt>
      <trkpt lat="46.15818" lon="6.65497">
        <ele>1417</ele>
        <time>2022-07-31T11:18:55Z</time>
      </trkpt>
      <trkpt lat="46.15818" lon="6.65497">
        <ele>1417</ele>
        <time>2022-07-31T11:18:56Z</time>
      </trkpt>
      <trkpt lat="46.15818" lon="6.65497">
        <ele>1417</ele>
        <time>2022-07-31T11:18:57Z</time>
      </trkpt>
      <trkpt lat="46.15818" lon="6.65497">
        <ele>1417</ele>
        <time>2022-07-31T11:18:58Z</time>
      </trkpt>
      <trkpt lat="46.15818" lon="6.65498">
        <ele>1416</ele>
        <time>2022-07-31T11:18:59Z</time>
      </trkpt>
      <trkpt lat="46.15818" lon="6.65498">
        <ele>1416</ele>
        <time>2022-07-31T11:19:00Z</time>
      </trkpt>
      <trkpt lat="46.15818" lon="6.65498">
        <ele>1416</ele>
        <time>2022-07-31T11:19:01Z</time>
      </trkpt>
      <trkpt lat="46.15818" lon="6.65498">
        <ele>1416</ele>
        <time>2022-07-31T11:19:02Z</time>
      </trkpt>
      <trkpt lat="46.15818" lon="6.65498">
        <ele>1416</ele>
        <time>2022-07-31T11:19:03Z</time>
      </trkpt>
      <trkpt lat="46.15819" lon="6.65498">
        <ele>1416</ele>
        <time>2022-07-31T11:19:04Z</time>
      </trkpt>
      <trkpt lat="46.15819" lon="6.65498">
        <ele>1416</ele>
        <time>2022-07-31T11:19:05Z</time>
      </trkpt>
      <trkpt lat="46.15819" lon="6.65498">
        <ele>1415</ele>
        <time>2022-07-31T11:19:06Z</time>
      </trkpt>
      <trkpt lat="46.15819" lon="6.65498">
        <ele>1415</ele>
        <time>2022-07-31T11:19:07Z</time>
      </trkpt>
      <trkpt lat="46.15819" lon="6.65498">
        <ele>1415</ele>
        <time>2022-07-31T11:19:08Z</time>
      </trkpt>
      <trkpt lat="46.15819" lon="6.65498">
        <ele>1415</ele>
        <time>2022-07-31T11:19:09Z</time>
      </trkpt>
      <trkpt lat="46.15819" lon="6.65498">
        <ele>1415</ele>
        <time>2022-07-31T11:19:10Z</time>
      </trkpt>
      <trkpt lat="46.15819" lon="6.65498">
        <ele>1415</ele>
        <time>2022-07-31T11:19:11Z</time>
      </trkpt>
      <trkpt lat="46.15818" lon="6.65497">
        <ele>1415</ele>
        <time>2022-07-31T11:19:12Z</time>
      </trkpt>
      <trkpt lat="46.15818" lon="6.65497">
        <ele>1415</ele>
        <time>2022-07-31T11:19:13Z</time>
      </trkpt>
      <trkpt lat="46.15818" lon="6.65497">
        <ele>1415</ele>
        <time>2022-07-31T11:19:14Z</time>
      </trkpt>
      <trkpt lat="46.15818" lon="6.65497">
        <ele>1415</ele>
        <time>2022-07-31T11:19:15Z</time>
      </trkpt>
      <trkpt lat="46.15818" lon="6.65497">
        <ele>1415</ele>
        <time>2022-07-31T11:19:16Z</time>
      </trkpt>
      <trkpt lat="46.15818" lon="6.65497">
        <ele>1415</ele>
        <time>2022-07-31T11:19:17Z</time>
      </trkpt>
      <trkpt lat="46.15818" lon="6.65497">
        <ele>1414</ele>
        <time>2022-07-31T11:19:18Z</time>
      </trkpt>
      <trkpt lat="46.15817" lon="6.65497">
        <ele>1414</ele>
        <time>2022-07-31T11:19:19Z</time>
      </trkpt>
      <trkpt lat="46.15817" lon="6.65497">
        <ele>1414</ele>
        <time>2022-07-31T11:19:20Z</time>
      </trkpt>
      <trkpt lat="46.15817" lon="6.65497">
        <ele>1414</ele>
        <time>2022-07-31T11:19:21Z</time>
      </trkpt>
      <trkpt lat="46.15817" lon="6.65497">
        <ele>1414</ele>
        <time>2022-07-31T11:19:22Z</time>
      </trkpt>
      <trkpt lat="46.15817" lon="6.65497">
        <ele>1414</ele>
        <time>2022-07-31T11:19:23Z</time>
      </trkpt>
      <trkpt lat="46.15817" lon="6.65497">
        <ele>1415</ele>
        <time>2022-07-31T11:19:24Z</time>
      </trkpt>
      <trkpt lat="46.15817" lon="6.65497">
        <ele>1415</ele>
        <time>2022-07-31T11:19:25Z</time>
      </trkpt>
      <trkpt lat="46.15817" lon="6.65497">
        <ele>1415</ele>
        <time>2022-07-31T11:19:26Z</time>
      </trkpt>
      <trkpt lat="46.15817" lon="6.65498">
        <ele>1415</ele>
        <time>2022-07-31T11:19:27Z</time>
      </trkpt>
      <trkpt lat="46.15817" lon="6.65498">
        <ele>1415</ele>
        <time>2022-07-31T11:19:28Z</time>
      </trkpt>
      <trkpt lat="46.15817" lon="6.65498">
        <ele>1415</ele>
        <time>2022-07-31T11:19:29Z</time>
      </trkpt>
      <trkpt lat="46.15817" lon="6.65497">
        <ele>1415</ele>
        <time>2022-07-31T11:19:30Z</time>
      </trkpt>
      <trkpt lat="46.15817" lon="6.65497">
        <ele>1415</ele>
        <time>2022-07-31T11:19:31Z</time>
      </trkpt>
      <trkpt lat="46.15817" lon="6.65498">
        <ele>1415</ele>
        <time>2022-07-31T11:19:32Z</time>
      </trkpt>
      <trkpt lat="46.15818" lon="6.65498">
        <ele>1415</ele>
        <time>2022-07-31T11:19:33Z</time>
      </trkpt>
      <trkpt lat="46.15817" lon="6.65498">
        <ele>1415</ele>
        <time>2022-07-31T11:19:34Z</time>
      </trkpt>
      <trkpt lat="46.15817" lon="6.65497">
        <ele>1415</ele>
        <time>2022-07-31T11:19:35Z</time>
      </trkpt>
      <trkpt lat="46.15817" lon="6.65497">
        <ele>1415</ele>
        <time>2022-07-31T11:19:36Z</time>
      </trkpt>
      <trkpt lat="46.15817" lon="6.65497">
        <ele>1415</ele>
        <time>2022-07-31T11:19:37Z</time>
      </trkpt>
      <trkpt lat="46.15817" lon="6.65497">
        <ele>1415</ele>
        <time>2022-07-31T11:19:38Z</time>
      </trkpt>
      <trkpt lat="46.15816" lon="6.65496">
        <ele>1415</ele>
        <time>2022-07-31T11:19:39Z</time>
      </trkpt>
      <trkpt lat="46.15816" lon="6.65496">
        <ele>1415</ele>
        <time>2022-07-31T11:19:40Z</time>
      </trkpt>
      <trkpt lat="46.15817" lon="6.65496">
        <ele>1415</ele>
        <time>2022-07-31T11:19:41Z</time>
      </trkpt>
      <trkpt lat="46.15817" lon="6.65495">
        <ele>1415</ele>
        <time>2022-07-31T11:19:42Z</time>
      </trkpt>
      <trkpt lat="46.15817" lon="6.65495">
        <ele>1415</ele>
        <time>2022-07-31T11:19:43Z</time>
      </trkpt>
      <trkpt lat="46.15817" lon="6.65494">
        <ele>1415</ele>
        <time>2022-07-31T11:19:44Z</time>
      </trkpt>
      <trkpt lat="46.15817" lon="6.65494">
        <ele>1415</ele>
        <time>2022-07-31T11:19:45Z</time>
      </trkpt>
      <trkpt lat="46.15817" lon="6.65493">
        <ele>1415</ele>
        <time>2022-07-31T11:19:46Z</time>
      </trkpt>
      <trkpt lat="46.15817" lon="6.65493">
        <ele>1415</ele>
        <time>2022-07-31T11:19:47Z</time>
      </trkpt>
      <trkpt lat="46.15817" lon="6.65492">
        <ele>1415</ele>
        <time>2022-07-31T11:19:48Z</time>
      </trkpt>
      <trkpt lat="46.15816" lon="6.65491">
        <ele>1415</ele>
        <time>2022-07-31T11:19:49Z</time>
      </trkpt>
      <trkpt lat="46.15816" lon="6.6549">
        <ele>1415</ele>
        <time>2022-07-31T11:19:50Z</time>
      </trkpt>
      <trkpt lat="46.15815" lon="6.65492">
        <ele>1415</ele>
        <time>2022-07-31T11:19:51Z</time>
      </trkpt>
      <trkpt lat="46.15813" lon="6.65493">
        <ele>1415</ele>
        <time>2022-07-31T11:19:52Z</time>
      </trkpt>
      <trkpt lat="46.15812" lon="6.65494">
        <ele>1415</ele>
        <time>2022-07-31T11:19:53Z</time>
      </trkpt>
      <trkpt lat="46.15812" lon="6.65496">
        <ele>1415</ele>
        <time>2022-07-31T11:19:54Z</time>
      </trkpt>
      <trkpt lat="46.1581" lon="6.65497">
        <ele>1415</ele>
        <time>2022-07-31T11:19:55Z</time>
      </trkpt>
      <trkpt lat="46.15809" lon="6.65498">
        <ele>1415</ele>
        <time>2022-07-31T11:19:56Z</time>
      </trkpt>
      <trkpt lat="46.15808" lon="6.65499">
        <ele>1415</ele>
        <time>2022-07-31T11:19:57Z</time>
      </trkpt>
      <trkpt lat="46.15808" lon="6.655">
        <ele>1415</ele>
        <time>2022-07-31T11:19:58Z</time>
      </trkpt>
      <trkpt lat="46.15805" lon="6.65501">
        <ele>1415</ele>
        <time>2022-07-31T11:19:59Z</time>
      </trkpt>
      <trkpt lat="46.15805" lon="6.65502">
        <ele>1415</ele>
        <time>2022-07-31T11:20:00Z</time>
      </trkpt>
      <trkpt lat="46.15804" lon="6.65503">
        <ele>1415</ele>
        <time>2022-07-31T11:20:01Z</time>
      </trkpt>
      <trkpt lat="46.15802" lon="6.65504">
        <ele>1415</ele>
        <time>2022-07-31T11:20:02Z</time>
      </trkpt>
      <trkpt lat="46.15801" lon="6.65506">
        <ele>1415</ele>
        <time>2022-07-31T11:20:03Z</time>
      </trkpt>
      <trkpt lat="46.15801" lon="6.65507">
        <ele>1414</ele>
        <time>2022-07-31T11:20:04Z</time>
      </trkpt>
      <trkpt lat="46.158" lon="6.65508">
        <ele>1414</ele>
        <time>2022-07-31T11:20:05Z</time>
      </trkpt>
      <trkpt lat="46.158" lon="6.65507">
        <ele>1414</ele>
        <time>2022-07-31T11:20:06Z</time>
      </trkpt>
      <trkpt lat="46.158" lon="6.65508">
        <ele>1414</ele>
        <time>2022-07-31T11:20:07Z</time>
      </trkpt>
      <trkpt lat="46.158" lon="6.65508">
        <ele>1414</ele>
        <time>2022-07-31T11:20:08Z</time>
      </trkpt>
      <trkpt lat="46.15799" lon="6.65509">
        <ele>1414</ele>
        <time>2022-07-31T11:20:09Z</time>
      </trkpt>
      <trkpt lat="46.15798" lon="6.6551">
        <ele>1414</ele>
        <time>2022-07-31T11:20:10Z</time>
      </trkpt>
      <trkpt lat="46.15797" lon="6.65511">
        <ele>1414</ele>
        <time>2022-07-31T11:20:11Z</time>
      </trkpt>
      <trkpt lat="46.15796" lon="6.65512">
        <ele>1414</ele>
        <time>2022-07-31T11:20:12Z</time>
      </trkpt>
      <trkpt lat="46.15795" lon="6.65513">
        <ele>1414</ele>
        <time>2022-07-31T11:20:13Z</time>
      </trkpt>
      <trkpt lat="46.15795" lon="6.65514">
        <ele>1414</ele>
        <time>2022-07-31T11:20:14Z</time>
      </trkpt>
      <trkpt lat="46.15794" lon="6.65514">
        <ele>1414</ele>
        <time>2022-07-31T11:20:15Z</time>
      </trkpt>
      <trkpt lat="46.15794" lon="6.65516">
        <ele>1414</ele>
        <time>2022-07-31T11:20:16Z</time>
      </trkpt>
      <trkpt lat="46.15793" lon="6.65517">
        <ele>1414</ele>
        <time>2022-07-31T11:20:17Z</time>
      </trkpt>
      <trkpt lat="46.15792" lon="6.65518">
        <ele>1414</ele>
        <time>2022-07-31T11:20:18Z</time>
      </trkpt>
      <trkpt lat="46.15791" lon="6.65518">
        <ele>1415</ele>
        <time>2022-07-31T11:20:19Z</time>
      </trkpt>
      <trkpt lat="46.1579" lon="6.65519">
        <ele>1415</ele>
        <time>2022-07-31T11:20:20Z</time>
      </trkpt>
      <trkpt lat="46.15789" lon="6.65519">
        <ele>1415</ele>
        <time>2022-07-31T11:20:21Z</time>
      </trkpt>
      <trkpt lat="46.15789" lon="6.6552">
        <ele>1415</ele>
        <time>2022-07-31T11:20:22Z</time>
      </trkpt>
      <trkpt lat="46.15788" lon="6.65521">
        <ele>1415</ele>
        <time>2022-07-31T11:20:23Z</time>
      </trkpt>
      <trkpt lat="46.15787" lon="6.65522">
        <ele>1415</ele>
        <time>2022-07-31T11:20:24Z</time>
      </trkpt>
      <trkpt lat="46.15785" lon="6.65523">
        <ele>1415</ele>
        <time>2022-07-31T11:20:25Z</time>
      </trkpt>
      <trkpt lat="46.15784" lon="6.65524">
        <ele>1415</ele>
        <time>2022-07-31T11:20:26Z</time>
      </trkpt>
      <trkpt lat="46.15783" lon="6.65524">
        <ele>1415</ele>
        <time>2022-07-31T11:20:27Z</time>
      </trkpt>
      <trkpt lat="46.15782" lon="6.65526">
        <ele>1415</ele>
        <time>2022-07-31T11:20:28Z</time>
      </trkpt>
      <trkpt lat="46.15781" lon="6.65527">
        <ele>1415</ele>
        <time>2022-07-31T11:20:29Z</time>
      </trkpt>
      <trkpt lat="46.15779" lon="6.65529">
        <ele>1415</ele>
        <time>2022-07-31T11:20:30Z</time>
      </trkpt>
      <trkpt lat="46.15779" lon="6.6553">
        <ele>1415</ele>
        <time>2022-07-31T11:20:31Z</time>
      </trkpt>
      <trkpt lat="46.15778" lon="6.65531">
        <ele>1414</ele>
        <time>2022-07-31T11:20:32Z</time>
      </trkpt>
      <trkpt lat="46.15776" lon="6.65533">
        <ele>1414</ele>
        <time>2022-07-31T11:20:33Z</time>
      </trkpt>
      <trkpt lat="46.15775" lon="6.65534">
        <ele>1414</ele>
        <time>2022-07-31T11:20:34Z</time>
      </trkpt>
      <trkpt lat="46.15773" lon="6.65537">
        <ele>1414</ele>
        <time>2022-07-31T11:20:35Z</time>
      </trkpt>
      <trkpt lat="46.15772" lon="6.6554">
        <ele>1414</ele>
        <time>2022-07-31T11:20:36Z</time>
      </trkpt>
      <trkpt lat="46.15771" lon="6.65543">
        <ele>1413</ele>
        <time>2022-07-31T11:20:37Z</time>
      </trkpt>
      <trkpt lat="46.15771" lon="6.65546">
        <ele>1413</ele>
        <time>2022-07-31T11:20:38Z</time>
      </trkpt>
      <trkpt lat="46.15771" lon="6.65548">
        <ele>1413</ele>
        <time>2022-07-31T11:20:39Z</time>
      </trkpt>
      <trkpt lat="46.15771" lon="6.6555">
        <ele>1413</ele>
        <time>2022-07-31T11:20:40Z</time>
      </trkpt>
      <trkpt lat="46.1577" lon="6.65553">
        <ele>1412</ele>
        <time>2022-07-31T11:20:41Z</time>
      </trkpt>
      <trkpt lat="46.1577" lon="6.65556">
        <ele>1412</ele>
        <time>2022-07-31T11:20:42Z</time>
      </trkpt>
      <trkpt lat="46.1577" lon="6.65559">
        <ele>1412</ele>
        <time>2022-07-31T11:20:43Z</time>
      </trkpt>
      <trkpt lat="46.1577" lon="6.65561">
        <ele>1411</ele>
        <time>2022-07-31T11:20:44Z</time>
      </trkpt>
      <trkpt lat="46.15769" lon="6.65564">
        <ele>1411</ele>
        <time>2022-07-31T11:20:45Z</time>
      </trkpt>
      <trkpt lat="46.1577" lon="6.65566">
        <ele>1411</ele>
        <time>2022-07-31T11:20:46Z</time>
      </trkpt>
      <trkpt lat="46.1577" lon="6.65569">
        <ele>1410</ele>
        <time>2022-07-31T11:20:47Z</time>
      </trkpt>
      <trkpt lat="46.1577" lon="6.65571">
        <ele>1410</ele>
        <time>2022-07-31T11:20:48Z</time>
      </trkpt>
      <trkpt lat="46.15769" lon="6.65573">
        <ele>1410</ele>
        <time>2022-07-31T11:20:49Z</time>
      </trkpt>
      <trkpt lat="46.15769" lon="6.65575">
        <ele>1409</ele>
        <time>2022-07-31T11:20:50Z</time>
      </trkpt>
      <trkpt lat="46.15769" lon="6.65577">
        <ele>1409</ele>
        <time>2022-07-31T11:20:51Z</time>
      </trkpt>
      <trkpt lat="46.15768" lon="6.6558">
        <ele>1409</ele>
        <time>2022-07-31T11:20:52Z</time>
      </trkpt>
      <trkpt lat="46.15768" lon="6.65581">
        <ele>1408</ele>
        <time>2022-07-31T11:20:53Z</time>
      </trkpt>
      <trkpt lat="46.15768" lon="6.65583">
        <ele>1408</ele>
        <time>2022-07-31T11:20:54Z</time>
      </trkpt>
      <trkpt lat="46.15768" lon="6.65584">
        <ele>1408</ele>
        <time>2022-07-31T11:20:55Z</time>
      </trkpt>
      <trkpt lat="46.15768" lon="6.65586">
        <ele>1407</ele>
        <time>2022-07-31T11:20:56Z</time>
      </trkpt>
      <trkpt lat="46.15767" lon="6.65588">
        <ele>1407</ele>
        <time>2022-07-31T11:20:57Z</time>
      </trkpt>
      <trkpt lat="46.15767" lon="6.65589">
        <ele>1407</ele>
        <time>2022-07-31T11:20:58Z</time>
      </trkpt>
      <trkpt lat="46.15767" lon="6.6559">
        <ele>1407</ele>
        <time>2022-07-31T11:20:59Z</time>
      </trkpt>
      <trkpt lat="46.15767" lon="6.65592">
        <ele>1406</ele>
        <time>2022-07-31T11:21:00Z</time>
      </trkpt>
      <trkpt lat="46.15767" lon="6.65593">
        <ele>1406</ele>
        <time>2022-07-31T11:21:01Z</time>
      </trkpt>
      <trkpt lat="46.15766" lon="6.65595">
        <ele>1406</ele>
        <time>2022-07-31T11:21:02Z</time>
      </trkpt>
      <trkpt lat="46.15766" lon="6.65597">
        <ele>1406</ele>
        <time>2022-07-31T11:21:03Z</time>
      </trkpt>
      <trkpt lat="46.15766" lon="6.65599">
        <ele>1405</ele>
        <time>2022-07-31T11:21:04Z</time>
      </trkpt>
      <trkpt lat="46.15766" lon="6.65601">
        <ele>1405</ele>
        <time>2022-07-31T11:21:05Z</time>
      </trkpt>
      <trkpt lat="46.15766" lon="6.65603">
        <ele>1405</ele>
        <time>2022-07-31T11:21:06Z</time>
      </trkpt>
      <trkpt lat="46.15766" lon="6.65604">
        <ele>1404</ele>
        <time>2022-07-31T11:21:07Z</time>
      </trkpt>
      <trkpt lat="46.15765" lon="6.65606">
        <ele>1404</ele>
        <time>2022-07-31T11:21:08Z</time>
      </trkpt>
      <trkpt lat="46.15764" lon="6.65607">
        <ele>1404</ele>
        <time>2022-07-31T11:21:09Z</time>
      </trkpt>
      <trkpt lat="46.15764" lon="6.65609">
        <ele>1404</ele>
        <time>2022-07-31T11:21:10Z</time>
      </trkpt>
      <trkpt lat="46.15763" lon="6.65611">
        <ele>1403</ele>
        <time>2022-07-31T11:21:11Z</time>
      </trkpt>
      <trkpt lat="46.15762" lon="6.65613">
        <ele>1403</ele>
        <time>2022-07-31T11:21:12Z</time>
      </trkpt>
      <trkpt lat="46.15762" lon="6.65615">
        <ele>1403</ele>
        <time>2022-07-31T11:21:13Z</time>
      </trkpt>
      <trkpt lat="46.15761" lon="6.65617">
        <ele>1403</ele>
        <time>2022-07-31T11:21:14Z</time>
      </trkpt>
      <trkpt lat="46.15761" lon="6.6562">
        <ele>1403</ele>
        <time>2022-07-31T11:21:15Z</time>
      </trkpt>
      <trkpt lat="46.1576" lon="6.65621">
        <ele>1402</ele>
        <time>2022-07-31T11:21:16Z</time>
      </trkpt>
      <trkpt lat="46.1576" lon="6.65623">
        <ele>1402</ele>
        <time>2022-07-31T11:21:17Z</time>
      </trkpt>
      <trkpt lat="46.15759" lon="6.65626">
        <ele>1402</ele>
        <time>2022-07-31T11:21:18Z</time>
      </trkpt>
      <trkpt lat="46.15758" lon="6.65628">
        <ele>1402</ele>
        <time>2022-07-31T11:21:19Z</time>
      </trkpt>
      <trkpt lat="46.15758" lon="6.65631">
        <ele>1402</ele>
        <time>2022-07-31T11:21:20Z</time>
      </trkpt>
      <trkpt lat="46.15757" lon="6.65634">
        <ele>1401</ele>
        <time>2022-07-31T11:21:21Z</time>
      </trkpt>
      <trkpt lat="46.15756" lon="6.65636">
        <ele>1401</ele>
        <time>2022-07-31T11:21:22Z</time>
      </trkpt>
      <trkpt lat="46.15755" lon="6.65638">
        <ele>1401</ele>
        <time>2022-07-31T11:21:23Z</time>
      </trkpt>
      <trkpt lat="46.15755" lon="6.65641">
        <ele>1401</ele>
        <time>2022-07-31T11:21:24Z</time>
      </trkpt>
      <trkpt lat="46.15754" lon="6.65644">
        <ele>1401</ele>
        <time>2022-07-31T11:21:25Z</time>
      </trkpt>
      <trkpt lat="46.15754" lon="6.65646">
        <ele>1401</ele>
        <time>2022-07-31T11:21:26Z</time>
      </trkpt>
      <trkpt lat="46.15754" lon="6.65649">
        <ele>1400</ele>
        <time>2022-07-31T11:21:27Z</time>
      </trkpt>
      <trkpt lat="46.15754" lon="6.65651">
        <ele>1400</ele>
        <time>2022-07-31T11:21:28Z</time>
      </trkpt>
      <trkpt lat="46.15753" lon="6.65654">
        <ele>1400</ele>
        <time>2022-07-31T11:21:29Z</time>
      </trkpt>
      <trkpt lat="46.15754" lon="6.65655">
        <ele>1400</ele>
        <time>2022-07-31T11:21:30Z</time>
      </trkpt>
      <trkpt lat="46.15754" lon="6.65657">
        <ele>1400</ele>
        <time>2022-07-31T11:21:31Z</time>
      </trkpt>
      <trkpt lat="46.15754" lon="6.65658">
        <ele>1400</ele>
        <time>2022-07-31T11:21:32Z</time>
      </trkpt>
      <trkpt lat="46.15753" lon="6.6566">
        <ele>1400</ele>
        <time>2022-07-31T11:21:33Z</time>
      </trkpt>
      <trkpt lat="46.15753" lon="6.65662">
        <ele>1400</ele>
        <time>2022-07-31T11:21:34Z</time>
      </trkpt>
      <trkpt lat="46.15753" lon="6.65663">
        <ele>1400</ele>
        <time>2022-07-31T11:21:35Z</time>
      </trkpt>
      <trkpt lat="46.15753" lon="6.65664">
        <ele>1400</ele>
        <time>2022-07-31T11:21:36Z</time>
      </trkpt>
      <trkpt lat="46.15754" lon="6.65666">
        <ele>1400</ele>
        <time>2022-07-31T11:21:37Z</time>
      </trkpt>
      <trkpt lat="46.15755" lon="6.65668">
        <ele>1400</ele>
        <time>2022-07-31T11:21:38Z</time>
      </trkpt>
      <trkpt lat="46.15755" lon="6.6567">
        <ele>1400</ele>
        <time>2022-07-31T11:21:39Z</time>
      </trkpt>
      <trkpt lat="46.15756" lon="6.65672">
        <ele>1400</ele>
        <time>2022-07-31T11:21:40Z</time>
      </trkpt>
      <trkpt lat="46.15756" lon="6.65674">
        <ele>1399</ele>
        <time>2022-07-31T11:21:41Z</time>
      </trkpt>
      <trkpt lat="46.15756" lon="6.65676">
        <ele>1399</ele>
        <time>2022-07-31T11:21:42Z</time>
      </trkpt>
      <trkpt lat="46.15756" lon="6.65678">
        <ele>1399</ele>
        <time>2022-07-31T11:21:43Z</time>
      </trkpt>
      <trkpt lat="46.15757" lon="6.65679">
        <ele>1399</ele>
        <time>2022-07-31T11:21:44Z</time>
      </trkpt>
      <trkpt lat="46.15758" lon="6.6568">
        <ele>1399</ele>
        <time>2022-07-31T11:21:45Z</time>
      </trkpt>
      <trkpt lat="46.15759" lon="6.65681">
        <ele>1399</ele>
        <time>2022-07-31T11:21:46Z</time>
      </trkpt>
      <trkpt lat="46.15759" lon="6.65682">
        <ele>1398</ele>
        <time>2022-07-31T11:21:47Z</time>
      </trkpt>
      <trkpt lat="46.15759" lon="6.65684">
        <ele>1398</ele>
        <time>2022-07-31T11:21:48Z</time>
      </trkpt>
      <trkpt lat="46.15759" lon="6.65686">
        <ele>1398</ele>
        <time>2022-07-31T11:21:49Z</time>
      </trkpt>
      <trkpt lat="46.15759" lon="6.65687">
        <ele>1398</ele>
        <time>2022-07-31T11:21:50Z</time>
      </trkpt>
      <trkpt lat="46.15759" lon="6.65689">
        <ele>1397</ele>
        <time>2022-07-31T11:21:51Z</time>
      </trkpt>
      <trkpt lat="46.15759" lon="6.6569">
        <ele>1397</ele>
        <time>2022-07-31T11:21:52Z</time>
      </trkpt>
      <trkpt lat="46.15759" lon="6.65691">
        <ele>1397</ele>
        <time>2022-07-31T11:21:53Z</time>
      </trkpt>
      <trkpt lat="46.15759" lon="6.65693">
        <ele>1397</ele>
        <time>2022-07-31T11:21:54Z</time>
      </trkpt>
      <trkpt lat="46.15759" lon="6.65694">
        <ele>1397</ele>
        <time>2022-07-31T11:21:55Z</time>
      </trkpt>
      <trkpt lat="46.15758" lon="6.65696">
        <ele>1396</ele>
        <time>2022-07-31T11:21:56Z</time>
      </trkpt>
      <trkpt lat="46.15758" lon="6.65697">
        <ele>1396</ele>
        <time>2022-07-31T11:21:57Z</time>
      </trkpt>
      <trkpt lat="46.15759" lon="6.65699">
        <ele>1396</ele>
        <time>2022-07-31T11:21:58Z</time>
      </trkpt>
      <trkpt lat="46.15759" lon="6.65701">
        <ele>1396</ele>
        <time>2022-07-31T11:21:59Z</time>
      </trkpt>
      <trkpt lat="46.15759" lon="6.65702">
        <ele>1396</ele>
        <time>2022-07-31T11:22:00Z</time>
      </trkpt>
      <trkpt lat="46.15759" lon="6.65703">
        <ele>1396</ele>
        <time>2022-07-31T11:22:01Z</time>
      </trkpt>
      <trkpt lat="46.15759" lon="6.65704">
        <ele>1396</ele>
        <time>2022-07-31T11:22:02Z</time>
      </trkpt>
      <trkpt lat="46.15759" lon="6.65706">
        <ele>1395</ele>
        <time>2022-07-31T11:22:03Z</time>
      </trkpt>
      <trkpt lat="46.15759" lon="6.65708">
        <ele>1395</ele>
        <time>2022-07-31T11:22:04Z</time>
      </trkpt>
      <trkpt lat="46.1576" lon="6.65709">
        <ele>1395</ele>
        <time>2022-07-31T11:22:05Z</time>
      </trkpt>
      <trkpt lat="46.15761" lon="6.65711">
        <ele>1395</ele>
        <time>2022-07-31T11:22:06Z</time>
      </trkpt>
      <trkpt lat="46.15761" lon="6.65712">
        <ele>1395</ele>
        <time>2022-07-31T11:22:07Z</time>
      </trkpt>
      <trkpt lat="46.15761" lon="6.65713">
        <ele>1395</ele>
        <time>2022-07-31T11:22:08Z</time>
      </trkpt>
      <trkpt lat="46.15761" lon="6.65715">
        <ele>1394</ele>
        <time>2022-07-31T11:22:09Z</time>
      </trkpt>
      <trkpt lat="46.15761" lon="6.65717">
        <ele>1394</ele>
        <time>2022-07-31T11:22:10Z</time>
      </trkpt>
      <trkpt lat="46.15761" lon="6.65719">
        <ele>1394</ele>
        <time>2022-07-31T11:22:11Z</time>
      </trkpt>
      <trkpt lat="46.15761" lon="6.6572">
        <ele>1394</ele>
        <time>2022-07-31T11:22:12Z</time>
      </trkpt>
      <trkpt lat="46.15762" lon="6.65723">
        <ele>1393</ele>
        <time>2022-07-31T11:22:13Z</time>
      </trkpt>
      <trkpt lat="46.15763" lon="6.65725">
        <ele>1393</ele>
        <time>2022-07-31T11:22:14Z</time>
      </trkpt>
      <trkpt lat="46.15763" lon="6.65728">
        <ele>1393</ele>
        <time>2022-07-31T11:22:15Z</time>
      </trkpt>
      <trkpt lat="46.15763" lon="6.6573">
        <ele>1392</ele>
        <time>2022-07-31T11:22:16Z</time>
      </trkpt>
      <trkpt lat="46.15763" lon="6.65731">
        <ele>1392</ele>
        <time>2022-07-31T11:22:17Z</time>
      </trkpt>
      <trkpt lat="46.15763" lon="6.65734">
        <ele>1392</ele>
        <time>2022-07-31T11:22:18Z</time>
      </trkpt>
      <trkpt lat="46.15764" lon="6.65736">
        <ele>1392</ele>
        <time>2022-07-31T11:22:19Z</time>
      </trkpt>
      <trkpt lat="46.15764" lon="6.65739">
        <ele>1391</ele>
        <time>2022-07-31T11:22:20Z</time>
      </trkpt>
      <trkpt lat="46.15764" lon="6.65741">
        <ele>1391</ele>
        <time>2022-07-31T11:22:21Z</time>
      </trkpt>
      <trkpt lat="46.15764" lon="6.65743">
        <ele>1391</ele>
        <time>2022-07-31T11:22:22Z</time>
      </trkpt>
      <trkpt lat="46.15764" lon="6.65744">
        <ele>1390</ele>
        <time>2022-07-31T11:22:23Z</time>
      </trkpt>
      <trkpt lat="46.15764" lon="6.65745">
        <ele>1390</ele>
        <time>2022-07-31T11:22:24Z</time>
      </trkpt>
      <trkpt lat="46.15763" lon="6.65747">
        <ele>1390</ele>
        <time>2022-07-31T11:22:25Z</time>
      </trkpt>
      <trkpt lat="46.15763" lon="6.65748">
        <ele>1390</ele>
        <time>2022-07-31T11:22:26Z</time>
      </trkpt>
      <trkpt lat="46.15763" lon="6.6575">
        <ele>1390</ele>
        <time>2022-07-31T11:22:27Z</time>
      </trkpt>
      <trkpt lat="46.15763" lon="6.65752">
        <ele>1389</ele>
        <time>2022-07-31T11:22:28Z</time>
      </trkpt>
      <trkpt lat="46.15763" lon="6.65754">
        <ele>1389</ele>
        <time>2022-07-31T11:22:29Z</time>
      </trkpt>
      <trkpt lat="46.15763" lon="6.65756">
        <ele>1389</ele>
        <time>2022-07-31T11:22:30Z</time>
      </trkpt>
      <trkpt lat="46.15763" lon="6.65756">
        <ele>1389</ele>
        <time>2022-07-31T11:22:31Z</time>
      </trkpt>
      <trkpt lat="46.15764" lon="6.65758">
        <ele>1389</ele>
        <time>2022-07-31T11:22:32Z</time>
      </trkpt>
      <trkpt lat="46.15763" lon="6.6576">
        <ele>1389</ele>
        <time>2022-07-31T11:22:33Z</time>
      </trkpt>
      <trkpt lat="46.15762" lon="6.6576">
        <ele>1389</ele>
        <time>2022-07-31T11:22:34Z</time>
      </trkpt>
      <trkpt lat="46.15761" lon="6.6576">
        <ele>1389</ele>
        <time>2022-07-31T11:22:35Z</time>
      </trkpt>
      <trkpt lat="46.1576" lon="6.65761">
        <ele>1389</ele>
        <time>2022-07-31T11:22:36Z</time>
      </trkpt>
      <trkpt lat="46.1576" lon="6.65762">
        <ele>1389</ele>
        <time>2022-07-31T11:22:37Z</time>
      </trkpt>
      <trkpt lat="46.15759" lon="6.65763">
        <ele>1389</ele>
        <time>2022-07-31T11:22:38Z</time>
      </trkpt>
      <trkpt lat="46.15759" lon="6.65763">
        <ele>1389</ele>
        <time>2022-07-31T11:22:39Z</time>
      </trkpt>
      <trkpt lat="46.15758" lon="6.65764">
        <ele>1389</ele>
        <time>2022-07-31T11:22:40Z</time>
      </trkpt>
      <trkpt lat="46.15757" lon="6.65765">
        <ele>1389</ele>
        <time>2022-07-31T11:22:41Z</time>
      </trkpt>
      <trkpt lat="46.15756" lon="6.65766">
        <ele>1389</ele>
        <time>2022-07-31T11:22:42Z</time>
      </trkpt>
      <trkpt lat="46.15756" lon="6.65767">
        <ele>1389</ele>
        <time>2022-07-31T11:22:43Z</time>
      </trkpt>
      <trkpt lat="46.15755" lon="6.65769">
        <ele>1389</ele>
        <time>2022-07-31T11:22:44Z</time>
      </trkpt>
      <trkpt lat="46.15755" lon="6.6577">
        <ele>1389</ele>
        <time>2022-07-31T11:22:45Z</time>
      </trkpt>
      <trkpt lat="46.15754" lon="6.65771">
        <ele>1389</ele>
        <time>2022-07-31T11:22:46Z</time>
      </trkpt>
      <trkpt lat="46.15753" lon="6.65772">
        <ele>1390</ele>
        <time>2022-07-31T11:22:47Z</time>
      </trkpt>
      <trkpt lat="46.15753" lon="6.65772">
        <ele>1390</ele>
        <time>2022-07-31T11:22:48Z</time>
      </trkpt>
      <trkpt lat="46.15751" lon="6.65773">
        <ele>1390</ele>
        <time>2022-07-31T11:22:49Z</time>
      </trkpt>
      <trkpt lat="46.15751" lon="6.65775">
        <ele>1390</ele>
        <time>2022-07-31T11:22:50Z</time>
      </trkpt>
      <trkpt lat="46.1575" lon="6.65776">
        <ele>1390</ele>
        <time>2022-07-31T11:22:51Z</time>
      </trkpt>
      <trkpt lat="46.15749" lon="6.65776">
        <ele>1390</ele>
        <time>2022-07-31T11:22:52Z</time>
      </trkpt>
      <trkpt lat="46.15748" lon="6.65777">
        <ele>1390</ele>
        <time>2022-07-31T11:22:53Z</time>
      </trkpt>
      <trkpt lat="46.15747" lon="6.65778">
        <ele>1390</ele>
        <time>2022-07-31T11:22:54Z</time>
      </trkpt>
      <trkpt lat="46.15746" lon="6.6578">
        <ele>1390</ele>
        <time>2022-07-31T11:22:55Z</time>
      </trkpt>
      <trkpt lat="46.15745" lon="6.6578">
        <ele>1390</ele>
        <time>2022-07-31T11:22:56Z</time>
      </trkpt>
      <trkpt lat="46.15744" lon="6.65781">
        <ele>1390</ele>
        <time>2022-07-31T11:22:57Z</time>
      </trkpt>
      <trkpt lat="46.15744" lon="6.65783">
        <ele>1391</ele>
        <time>2022-07-31T11:22:58Z</time>
      </trkpt>
      <trkpt lat="46.15743" lon="6.65784">
        <ele>1391</ele>
        <time>2022-07-31T11:22:59Z</time>
      </trkpt>
      <trkpt lat="46.15744" lon="6.65785">
        <ele>1391</ele>
        <time>2022-07-31T11:23:00Z</time>
      </trkpt>
      <trkpt lat="46.15744" lon="6.65786">
        <ele>1390</ele>
        <time>2022-07-31T11:23:01Z</time>
      </trkpt>
      <trkpt lat="46.15744" lon="6.65787">
        <ele>1390</ele>
        <time>2022-07-31T11:23:02Z</time>
      </trkpt>
      <trkpt lat="46.15745" lon="6.65787">
        <ele>1390</ele>
        <time>2022-07-31T11:23:03Z</time>
      </trkpt>
      <trkpt lat="46.15745" lon="6.65787">
        <ele>1390</ele>
        <time>2022-07-31T11:23:04Z</time>
      </trkpt>
      <trkpt lat="46.15745" lon="6.65787">
        <ele>1390</ele>
        <time>2022-07-31T11:23:05Z</time>
      </trkpt>
      <trkpt lat="46.15746" lon="6.65788">
        <ele>1390</ele>
        <time>2022-07-31T11:23:06Z</time>
      </trkpt>
      <trkpt lat="46.15746" lon="6.65788">
        <ele>1390</ele>
        <time>2022-07-31T11:23:07Z</time>
      </trkpt>
      <trkpt lat="46.15746" lon="6.65788">
        <ele>1390</ele>
        <time>2022-07-31T11:23:08Z</time>
      </trkpt>
      <trkpt lat="46.15746" lon="6.65788">
        <ele>1390</ele>
        <time>2022-07-31T11:23:09Z</time>
      </trkpt>
      <trkpt lat="46.15746" lon="6.65788">
        <ele>1390</ele>
        <time>2022-07-31T11:23:10Z</time>
      </trkpt>
      <trkpt lat="46.15747" lon="6.65788">
        <ele>1390</ele>
        <time>2022-07-31T11:23:11Z</time>
      </trkpt>
      <trkpt lat="46.15747" lon="6.65788">
        <ele>1389</ele>
        <time>2022-07-31T11:23:12Z</time>
      </trkpt>
      <trkpt lat="46.15748" lon="6.65788">
        <ele>1389</ele>
        <time>2022-07-31T11:23:13Z</time>
      </trkpt>
      <trkpt lat="46.15748" lon="6.65788">
        <ele>1389</ele>
        <time>2022-07-31T11:23:14Z</time>
      </trkpt>
      <trkpt lat="46.15748" lon="6.65788">
        <ele>1389</ele>
        <time>2022-07-31T11:23:15Z</time>
      </trkpt>
      <trkpt lat="46.15749" lon="6.65788">
        <ele>1389</ele>
        <time>2022-07-31T11:23:16Z</time>
      </trkpt>
      <trkpt lat="46.15749" lon="6.65788">
        <ele>1389</ele>
        <time>2022-07-31T11:23:17Z</time>
      </trkpt>
      <trkpt lat="46.15749" lon="6.65788">
        <ele>1389</ele>
        <time>2022-07-31T11:23:18Z</time>
      </trkpt>
      <trkpt lat="46.1575" lon="6.65788">
        <ele>1389</ele>
        <time>2022-07-31T11:23:19Z</time>
      </trkpt>
      <trkpt lat="46.15751" lon="6.65789">
        <ele>1389</ele>
        <time>2022-07-31T11:23:20Z</time>
      </trkpt>
      <trkpt lat="46.15752" lon="6.65791">
        <ele>1388</ele>
        <time>2022-07-31T11:23:21Z</time>
      </trkpt>
      <trkpt lat="46.15752" lon="6.65792">
        <ele>1388</ele>
        <time>2022-07-31T11:23:22Z</time>
      </trkpt>
      <trkpt lat="46.15753" lon="6.65794">
        <ele>1388</ele>
        <time>2022-07-31T11:23:23Z</time>
      </trkpt>
      <trkpt lat="46.15753" lon="6.65796">
        <ele>1388</ele>
        <time>2022-07-31T11:23:24Z</time>
      </trkpt>
      <trkpt lat="46.15754" lon="6.65798">
        <ele>1387</ele>
        <time>2022-07-31T11:23:25Z</time>
      </trkpt>
      <trkpt lat="46.15755" lon="6.658">
        <ele>1387</ele>
        <time>2022-07-31T11:23:26Z</time>
      </trkpt>
      <trkpt lat="46.15756" lon="6.65801">
        <ele>1387</ele>
        <time>2022-07-31T11:23:27Z</time>
      </trkpt>
      <trkpt lat="46.15756" lon="6.65801">
        <ele>1387</ele>
        <time>2022-07-31T11:23:28Z</time>
      </trkpt>
      <trkpt lat="46.15758" lon="6.65802">
        <ele>1386</ele>
        <time>2022-07-31T11:23:29Z</time>
      </trkpt>
      <trkpt lat="46.15758" lon="6.65803">
        <ele>1386</ele>
        <time>2022-07-31T11:23:30Z</time>
      </trkpt>
      <trkpt lat="46.15759" lon="6.65804">
        <ele>1386</ele>
        <time>2022-07-31T11:23:31Z</time>
      </trkpt>
      <trkpt lat="46.15759" lon="6.65805">
        <ele>1386</ele>
        <time>2022-07-31T11:23:32Z</time>
      </trkpt>
      <trkpt lat="46.15759" lon="6.65806">
        <ele>1386</ele>
        <time>2022-07-31T11:23:33Z</time>
      </trkpt>
      <trkpt lat="46.1576" lon="6.65807">
        <ele>1385</ele>
        <time>2022-07-31T11:23:34Z</time>
      </trkpt>
      <trkpt lat="46.15761" lon="6.65808">
        <ele>1385</ele>
        <time>2022-07-31T11:23:35Z</time>
      </trkpt>
      <trkpt lat="46.15761" lon="6.6581">
        <ele>1385</ele>
        <time>2022-07-31T11:23:36Z</time>
      </trkpt>
      <trkpt lat="46.15762" lon="6.65811">
        <ele>1385</ele>
        <time>2022-07-31T11:23:37Z</time>
      </trkpt>
      <trkpt lat="46.15763" lon="6.65812">
        <ele>1385</ele>
        <time>2022-07-31T11:23:38Z</time>
      </trkpt>
      <trkpt lat="46.15764" lon="6.65813">
        <ele>1384</ele>
        <time>2022-07-31T11:23:39Z</time>
      </trkpt>
      <trkpt lat="46.15765" lon="6.65814">
        <ele>1384</ele>
        <time>2022-07-31T11:23:40Z</time>
      </trkpt>
      <trkpt lat="46.15766" lon="6.65814">
        <ele>1384</ele>
        <time>2022-07-31T11:23:41Z</time>
      </trkpt>
      <trkpt lat="46.15767" lon="6.65814">
        <ele>1384</ele>
        <time>2022-07-31T11:23:42Z</time>
      </trkpt>
      <trkpt lat="46.15767" lon="6.65814">
        <ele>1384</ele>
        <time>2022-07-31T11:23:43Z</time>
      </trkpt>
      <trkpt lat="46.15767" lon="6.65815">
        <ele>1383</ele>
        <time>2022-07-31T11:23:44Z</time>
      </trkpt>
      <trkpt lat="46.15768" lon="6.65816">
        <ele>1383</ele>
        <time>2022-07-31T11:23:45Z</time>
      </trkpt>
      <trkpt lat="46.15769" lon="6.65818">
        <ele>1383</ele>
        <time>2022-07-31T11:23:46Z</time>
      </trkpt>
      <trkpt lat="46.1577" lon="6.65819">
        <ele>1383</ele>
        <time>2022-07-31T11:23:47Z</time>
      </trkpt>
      <trkpt lat="46.15771" lon="6.65821">
        <ele>1383</ele>
        <time>2022-07-31T11:23:48Z</time>
      </trkpt>
      <trkpt lat="46.15771" lon="6.65822">
        <ele>1383</ele>
        <time>2022-07-31T11:23:49Z</time>
      </trkpt>
      <trkpt lat="46.15772" lon="6.65822">
        <ele>1383</ele>
        <time>2022-07-31T11:23:50Z</time>
      </trkpt>
      <trkpt lat="46.15772" lon="6.65824">
        <ele>1382</ele>
        <time>2022-07-31T11:23:51Z</time>
      </trkpt>
      <trkpt lat="46.15774" lon="6.65825">
        <ele>1382</ele>
        <time>2022-07-31T11:23:52Z</time>
      </trkpt>
      <trkpt lat="46.15775" lon="6.65825">
        <ele>1382</ele>
        <time>2022-07-31T11:23:53Z</time>
      </trkpt>
      <trkpt lat="46.15776" lon="6.65826">
        <ele>1382</ele>
        <time>2022-07-31T11:23:54Z</time>
      </trkpt>
      <trkpt lat="46.15777" lon="6.65828">
        <ele>1382</ele>
        <time>2022-07-31T11:23:55Z</time>
      </trkpt>
      <trkpt lat="46.15778" lon="6.65829">
        <ele>1382</ele>
        <time>2022-07-31T11:23:56Z</time>
      </trkpt>
      <trkpt lat="46.15779" lon="6.6583">
        <ele>1382</ele>
        <time>2022-07-31T11:23:57Z</time>
      </trkpt>
      <trkpt lat="46.15779" lon="6.65831">
        <ele>1382</ele>
        <time>2022-07-31T11:23:58Z</time>
      </trkpt>
      <trkpt lat="46.1578" lon="6.65832">
        <ele>1382</ele>
        <time>2022-07-31T11:23:59Z</time>
      </trkpt>
      <trkpt lat="46.1578" lon="6.65833">
        <ele>1382</ele>
        <time>2022-07-31T11:24:00Z</time>
      </trkpt>
      <trkpt lat="46.15781" lon="6.65834">
        <ele>1381</ele>
        <time>2022-07-31T11:24:01Z</time>
      </trkpt>
      <trkpt lat="46.15781" lon="6.65834">
        <ele>1381</ele>
        <time>2022-07-31T11:24:02Z</time>
      </trkpt>
      <trkpt lat="46.15782" lon="6.65835">
        <ele>1381</ele>
        <time>2022-07-31T11:24:03Z</time>
      </trkpt>
      <trkpt lat="46.15783" lon="6.65836">
        <ele>1381</ele>
        <time>2022-07-31T11:24:04Z</time>
      </trkpt>
      <trkpt lat="46.15784" lon="6.65836">
        <ele>1381</ele>
        <time>2022-07-31T11:24:05Z</time>
      </trkpt>
      <trkpt lat="46.15785" lon="6.65838">
        <ele>1381</ele>
        <time>2022-07-31T11:24:06Z</time>
      </trkpt>
      <trkpt lat="46.15785" lon="6.65839">
        <ele>1381</ele>
        <time>2022-07-31T11:24:07Z</time>
      </trkpt>
      <trkpt lat="46.15786" lon="6.6584">
        <ele>1381</ele>
        <time>2022-07-31T11:24:08Z</time>
      </trkpt>
      <trkpt lat="46.15787" lon="6.65842">
        <ele>1381</ele>
        <time>2022-07-31T11:24:09Z</time>
      </trkpt>
      <trkpt lat="46.15787" lon="6.65844">
        <ele>1381</ele>
        <time>2022-07-31T11:24:10Z</time>
      </trkpt>
      <trkpt lat="46.15788" lon="6.65846">
        <ele>1381</ele>
        <time>2022-07-31T11:24:11Z</time>
      </trkpt>
      <trkpt lat="46.15789" lon="6.65846">
        <ele>1381</ele>
        <time>2022-07-31T11:24:12Z</time>
      </trkpt>
      <trkpt lat="46.15789" lon="6.65847">
        <ele>1381</ele>
        <time>2022-07-31T11:24:13Z</time>
      </trkpt>
      <trkpt lat="46.15789" lon="6.65846">
        <ele>1381</ele>
        <time>2022-07-31T11:24:14Z</time>
      </trkpt>
      <trkpt lat="46.15789" lon="6.65845">
        <ele>1381</ele>
        <time>2022-07-31T11:24:15Z</time>
      </trkpt>
      <trkpt lat="46.15788" lon="6.65845">
        <ele>1381</ele>
        <time>2022-07-31T11:24:16Z</time>
      </trkpt>
      <trkpt lat="46.15788" lon="6.65844">
        <ele>1381</ele>
        <time>2022-07-31T11:24:17Z</time>
      </trkpt>
      <trkpt lat="46.15789" lon="6.65845">
        <ele>1381</ele>
        <time>2022-07-31T11:24:18Z</time>
      </trkpt>
      <trkpt lat="46.15789" lon="6.65845">
        <ele>1381</ele>
        <time>2022-07-31T11:24:19Z</time>
      </trkpt>
      <trkpt lat="46.1579" lon="6.65846">
        <ele>1382</ele>
        <time>2022-07-31T11:24:20Z</time>
      </trkpt>
      <trkpt lat="46.15791" lon="6.65846">
        <ele>1382</ele>
        <time>2022-07-31T11:24:21Z</time>
      </trkpt>
      <trkpt lat="46.15792" lon="6.65847">
        <ele>1382</ele>
        <time>2022-07-31T11:24:22Z</time>
      </trkpt>
      <trkpt lat="46.15792" lon="6.65849">
        <ele>1382</ele>
        <time>2022-07-31T11:24:23Z</time>
      </trkpt>
      <trkpt lat="46.15793" lon="6.6585">
        <ele>1382</ele>
        <time>2022-07-31T11:24:24Z</time>
      </trkpt>
      <trkpt lat="46.15793" lon="6.65851">
        <ele>1382</ele>
        <time>2022-07-31T11:24:25Z</time>
      </trkpt>
      <trkpt lat="46.15795" lon="6.65852">
        <ele>1382</ele>
        <time>2022-07-31T11:24:26Z</time>
      </trkpt>
      <trkpt lat="46.15795" lon="6.65854">
        <ele>1382</ele>
        <time>2022-07-31T11:24:27Z</time>
      </trkpt>
      <trkpt lat="46.15796" lon="6.65856">
        <ele>1382</ele>
        <time>2022-07-31T11:24:28Z</time>
      </trkpt>
      <trkpt lat="46.15796" lon="6.65857">
        <ele>1382</ele>
        <time>2022-07-31T11:24:29Z</time>
      </trkpt>
      <trkpt lat="46.15797" lon="6.65859">
        <ele>1382</ele>
        <time>2022-07-31T11:24:30Z</time>
      </trkpt>
      <trkpt lat="46.15797" lon="6.65861">
        <ele>1382</ele>
        <time>2022-07-31T11:24:31Z</time>
      </trkpt>
      <trkpt lat="46.15798" lon="6.65862">
        <ele>1382</ele>
        <time>2022-07-31T11:24:32Z</time>
      </trkpt>
      <trkpt lat="46.15798" lon="6.65863">
        <ele>1382</ele>
        <time>2022-07-31T11:24:33Z</time>
      </trkpt>
      <trkpt lat="46.15799" lon="6.65864">
        <ele>1382</ele>
        <time>2022-07-31T11:24:34Z</time>
      </trkpt>
      <trkpt lat="46.158" lon="6.65865">
        <ele>1382</ele>
        <time>2022-07-31T11:24:35Z</time>
      </trkpt>
      <trkpt lat="46.158" lon="6.65866">
        <ele>1382</ele>
        <time>2022-07-31T11:24:36Z</time>
      </trkpt>
      <trkpt lat="46.15801" lon="6.65866">
        <ele>1382</ele>
        <time>2022-07-31T11:24:37Z</time>
      </trkpt>
      <trkpt lat="46.15801" lon="6.65865">
        <ele>1382</ele>
        <time>2022-07-31T11:24:38Z</time>
      </trkpt>
      <trkpt lat="46.15801" lon="6.65866">
        <ele>1382</ele>
        <time>2022-07-31T11:24:39Z</time>
      </trkpt>
      <trkpt lat="46.15802" lon="6.65867">
        <ele>1382</ele>
        <time>2022-07-31T11:24:40Z</time>
      </trkpt>
      <trkpt lat="46.15802" lon="6.65867">
        <ele>1382</ele>
        <time>2022-07-31T11:24:41Z</time>
      </trkpt>
      <trkpt lat="46.15804" lon="6.65867">
        <ele>1382</ele>
        <time>2022-07-31T11:24:42Z</time>
      </trkpt>
      <trkpt lat="46.15805" lon="6.65868">
        <ele>1382</ele>
        <time>2022-07-31T11:24:43Z</time>
      </trkpt>
      <trkpt lat="46.15806" lon="6.65868">
        <ele>1382</ele>
        <time>2022-07-31T11:24:44Z</time>
      </trkpt>
      <trkpt lat="46.15807" lon="6.65869">
        <ele>1382</ele>
        <time>2022-07-31T11:24:45Z</time>
      </trkpt>
      <trkpt lat="46.15809" lon="6.65871">
        <ele>1382</ele>
        <time>2022-07-31T11:24:46Z</time>
      </trkpt>
      <trkpt lat="46.1581" lon="6.65874">
        <ele>1382</ele>
        <time>2022-07-31T11:24:47Z</time>
      </trkpt>
      <trkpt lat="46.1581" lon="6.65875">
        <ele>1382</ele>
        <time>2022-07-31T11:24:48Z</time>
      </trkpt>
      <trkpt lat="46.15811" lon="6.65877">
        <ele>1382</ele>
        <time>2022-07-31T11:24:49Z</time>
      </trkpt>
      <trkpt lat="46.15812" lon="6.6588">
        <ele>1382</ele>
        <time>2022-07-31T11:24:50Z</time>
      </trkpt>
      <trkpt lat="46.15812" lon="6.65881">
        <ele>1382</ele>
        <time>2022-07-31T11:24:51Z</time>
      </trkpt>
      <trkpt lat="46.15812" lon="6.65882">
        <ele>1382</ele>
        <time>2022-07-31T11:24:52Z</time>
      </trkpt>
      <trkpt lat="46.15812" lon="6.65883">
        <ele>1382</ele>
        <time>2022-07-31T11:24:53Z</time>
      </trkpt>
      <trkpt lat="46.15812" lon="6.65884">
        <ele>1382</ele>
        <time>2022-07-31T11:24:54Z</time>
      </trkpt>
      <trkpt lat="46.15812" lon="6.65884">
        <ele>1382</ele>
        <time>2022-07-31T11:24:55Z</time>
      </trkpt>
      <trkpt lat="46.15812" lon="6.65885">
        <ele>1382</ele>
        <time>2022-07-31T11:24:56Z</time>
      </trkpt>
      <trkpt lat="46.15812" lon="6.65886">
        <ele>1382</ele>
        <time>2022-07-31T11:24:57Z</time>
      </trkpt>
      <trkpt lat="46.15813" lon="6.65888">
        <ele>1382</ele>
        <time>2022-07-31T11:24:58Z</time>
      </trkpt>
      <trkpt lat="46.15814" lon="6.65889">
        <ele>1382</ele>
        <time>2022-07-31T11:24:59Z</time>
      </trkpt>
      <trkpt lat="46.15815" lon="6.6589">
        <ele>1382</ele>
        <time>2022-07-31T11:25:00Z</time>
      </trkpt>
      <trkpt lat="46.15816" lon="6.65891">
        <ele>1382</ele>
        <time>2022-07-31T11:25:01Z</time>
      </trkpt>
      <trkpt lat="46.15817" lon="6.65892">
        <ele>1382</ele>
        <time>2022-07-31T11:25:02Z</time>
      </trkpt>
      <trkpt lat="46.15818" lon="6.65893">
        <ele>1382</ele>
        <time>2022-07-31T11:25:03Z</time>
      </trkpt>
      <trkpt lat="46.15819" lon="6.65894">
        <ele>1382</ele>
        <time>2022-07-31T11:25:04Z</time>
      </trkpt>
      <trkpt lat="46.15819" lon="6.65896">
        <ele>1382</ele>
        <time>2022-07-31T11:25:05Z</time>
      </trkpt>
      <trkpt lat="46.1582" lon="6.65897">
        <ele>1382</ele>
        <time>2022-07-31T11:25:06Z</time>
      </trkpt>
      <trkpt lat="46.1582" lon="6.65898">
        <ele>1382</ele>
        <time>2022-07-31T11:25:07Z</time>
      </trkpt>
      <trkpt lat="46.15821" lon="6.659">
        <ele>1383</ele>
        <time>2022-07-31T11:25:08Z</time>
      </trkpt>
      <trkpt lat="46.15822" lon="6.65901">
        <ele>1383</ele>
        <time>2022-07-31T11:25:09Z</time>
      </trkpt>
      <trkpt lat="46.15824" lon="6.65901">
        <ele>1383</ele>
        <time>2022-07-31T11:25:10Z</time>
      </trkpt>
      <trkpt lat="46.15825" lon="6.65902">
        <ele>1383</ele>
        <time>2022-07-31T11:25:11Z</time>
      </trkpt>
      <trkpt lat="46.15826" lon="6.65903">
        <ele>1383</ele>
        <time>2022-07-31T11:25:12Z</time>
      </trkpt>
      <trkpt lat="46.15828" lon="6.65903">
        <ele>1383</ele>
        <time>2022-07-31T11:25:13Z</time>
      </trkpt>
      <trkpt lat="46.15829" lon="6.65905">
        <ele>1383</ele>
        <time>2022-07-31T11:25:14Z</time>
      </trkpt>
      <trkpt lat="46.1583" lon="6.65907">
        <ele>1383</ele>
        <time>2022-07-31T11:25:15Z</time>
      </trkpt>
      <trkpt lat="46.15832" lon="6.65907">
        <ele>1383</ele>
        <time>2022-07-31T11:25:16Z</time>
      </trkpt>
      <trkpt lat="46.15833" lon="6.65908">
        <ele>1383</ele>
        <time>2022-07-31T11:25:17Z</time>
      </trkpt>
      <trkpt lat="46.15834" lon="6.65908">
        <ele>1383</ele>
        <time>2022-07-31T11:25:18Z</time>
      </trkpt>
      <trkpt lat="46.15835" lon="6.6591">
        <ele>1383</ele>
        <time>2022-07-31T11:25:19Z</time>
      </trkpt>
      <trkpt lat="46.15835" lon="6.65911">
        <ele>1383</ele>
        <time>2022-07-31T11:25:20Z</time>
      </trkpt>
      <trkpt lat="46.15836" lon="6.65913">
        <ele>1383</ele>
        <time>2022-07-31T11:25:21Z</time>
      </trkpt>
      <trkpt lat="46.15837" lon="6.65914">
        <ele>1383</ele>
        <time>2022-07-31T11:25:22Z</time>
      </trkpt>
      <trkpt lat="46.15838" lon="6.65915">
        <ele>1384</ele>
        <time>2022-07-31T11:25:23Z</time>
      </trkpt>
      <trkpt lat="46.15839" lon="6.65916">
        <ele>1384</ele>
        <time>2022-07-31T11:25:24Z</time>
      </trkpt>
      <trkpt lat="46.1584" lon="6.65918">
        <ele>1384</ele>
        <time>2022-07-31T11:25:25Z</time>
      </trkpt>
      <trkpt lat="46.15841" lon="6.65919">
        <ele>1384</ele>
        <time>2022-07-31T11:25:26Z</time>
      </trkpt>
      <trkpt lat="46.15842" lon="6.65921">
        <ele>1384</ele>
        <time>2022-07-31T11:25:27Z</time>
      </trkpt>
      <trkpt lat="46.15842" lon="6.65922">
        <ele>1384</ele>
        <time>2022-07-31T11:25:28Z</time>
      </trkpt>
      <trkpt lat="46.15844" lon="6.65922">
        <ele>1384</ele>
        <time>2022-07-31T11:25:29Z</time>
      </trkpt>
      <trkpt lat="46.15844" lon="6.65923">
        <ele>1384</ele>
        <time>2022-07-31T11:25:30Z</time>
      </trkpt>
      <trkpt lat="46.15844" lon="6.65925">
        <ele>1384</ele>
        <time>2022-07-31T11:25:31Z</time>
      </trkpt>
      <trkpt lat="46.15845" lon="6.65925">
        <ele>1384</ele>
        <time>2022-07-31T11:25:32Z</time>
      </trkpt>
      <trkpt lat="46.15845" lon="6.65925">
        <ele>1384</ele>
        <time>2022-07-31T11:25:33Z</time>
      </trkpt>
      <trkpt lat="46.15846" lon="6.65927">
        <ele>1384</ele>
        <time>2022-07-31T11:25:34Z</time>
      </trkpt>
      <trkpt lat="46.15846" lon="6.65928">
        <ele>1384</ele>
        <time>2022-07-31T11:25:35Z</time>
      </trkpt>
      <trkpt lat="46.15847" lon="6.65928">
        <ele>1383</ele>
        <time>2022-07-31T11:25:36Z</time>
      </trkpt>
      <trkpt lat="46.15849" lon="6.65929">
        <ele>1383</ele>
        <time>2022-07-31T11:25:37Z</time>
      </trkpt>
      <trkpt lat="46.1585" lon="6.6593">
        <ele>1383</ele>
        <time>2022-07-31T11:25:38Z</time>
      </trkpt>
      <trkpt lat="46.1585" lon="6.65931">
        <ele>1383</ele>
        <time>2022-07-31T11:25:39Z</time>
      </trkpt>
      <trkpt lat="46.15852" lon="6.65932">
        <ele>1383</ele>
        <time>2022-07-31T11:25:40Z</time>
      </trkpt>
      <trkpt lat="46.15852" lon="6.65933">
        <ele>1383</ele>
        <time>2022-07-31T11:25:41Z</time>
      </trkpt>
      <trkpt lat="46.15853" lon="6.65935">
        <ele>1383</ele>
        <time>2022-07-31T11:25:42Z</time>
      </trkpt>
      <trkpt lat="46.15854" lon="6.65937">
        <ele>1383</ele>
        <time>2022-07-31T11:25:43Z</time>
      </trkpt>
      <trkpt lat="46.15856" lon="6.65938">
        <ele>1383</ele>
        <time>2022-07-31T11:25:44Z</time>
      </trkpt>
      <trkpt lat="46.15857" lon="6.6594">
        <ele>1382</ele>
        <time>2022-07-31T11:25:45Z</time>
      </trkpt>
      <trkpt lat="46.15857" lon="6.65943">
        <ele>1382</ele>
        <time>2022-07-31T11:25:46Z</time>
      </trkpt>
      <trkpt lat="46.15859" lon="6.65946">
        <ele>1382</ele>
        <time>2022-07-31T11:25:47Z</time>
      </trkpt>
      <trkpt lat="46.15861" lon="6.65948">
        <ele>1382</ele>
        <time>2022-07-31T11:25:48Z</time>
      </trkpt>
      <trkpt lat="46.15862" lon="6.65951">
        <ele>1381</ele>
        <time>2022-07-31T11:25:49Z</time>
      </trkpt>
      <trkpt lat="46.15863" lon="6.65952">
        <ele>1381</ele>
        <time>2022-07-31T11:25:50Z</time>
      </trkpt>
      <trkpt lat="46.15864" lon="6.65953">
        <ele>1381</ele>
        <time>2022-07-31T11:25:51Z</time>
      </trkpt>
      <trkpt lat="46.15866" lon="6.65955">
        <ele>1380</ele>
        <time>2022-07-31T11:25:52Z</time>
      </trkpt>
      <trkpt lat="46.15867" lon="6.65956">
        <ele>1380</ele>
        <time>2022-07-31T11:25:53Z</time>
      </trkpt>
      <trkpt lat="46.15868" lon="6.65958">
        <ele>1380</ele>
        <time>2022-07-31T11:25:54Z</time>
      </trkpt>
      <trkpt lat="46.15869" lon="6.65959">
        <ele>1380</ele>
        <time>2022-07-31T11:25:55Z</time>
      </trkpt>
      <trkpt lat="46.1587" lon="6.6596">
        <ele>1379</ele>
        <time>2022-07-31T11:25:56Z</time>
      </trkpt>
      <trkpt lat="46.1587" lon="6.65962">
        <ele>1379</ele>
        <time>2022-07-31T11:25:57Z</time>
      </trkpt>
      <trkpt lat="46.15872" lon="6.65962">
        <ele>1379</ele>
        <time>2022-07-31T11:25:58Z</time>
      </trkpt>
      <trkpt lat="46.15874" lon="6.65964">
        <ele>1378</ele>
        <time>2022-07-31T11:25:59Z</time>
      </trkpt>
      <trkpt lat="46.15875" lon="6.65965">
        <ele>1378</ele>
        <time>2022-07-31T11:26:00Z</time>
      </trkpt>
      <trkpt lat="46.15875" lon="6.65966">
        <ele>1378</ele>
        <time>2022-07-31T11:26:01Z</time>
      </trkpt>
      <trkpt lat="46.15876" lon="6.65968">
        <ele>1378</ele>
        <time>2022-07-31T11:26:02Z</time>
      </trkpt>
      <trkpt lat="46.15877" lon="6.65969">
        <ele>1378</ele>
        <time>2022-07-31T11:26:03Z</time>
      </trkpt>
      <trkpt lat="46.15878" lon="6.65971">
        <ele>1377</ele>
        <time>2022-07-31T11:26:04Z</time>
      </trkpt>
      <trkpt lat="46.15879" lon="6.65972">
        <ele>1377</ele>
        <time>2022-07-31T11:26:05Z</time>
      </trkpt>
      <trkpt lat="46.15881" lon="6.65974">
        <ele>1377</ele>
        <time>2022-07-31T11:26:06Z</time>
      </trkpt>
      <trkpt lat="46.15881" lon="6.65976">
        <ele>1377</ele>
        <time>2022-07-31T11:26:07Z</time>
      </trkpt>
      <trkpt lat="46.15882" lon="6.65977">
        <ele>1377</ele>
        <time>2022-07-31T11:26:08Z</time>
      </trkpt>
      <trkpt lat="46.15883" lon="6.65978">
        <ele>1377</ele>
        <time>2022-07-31T11:26:09Z</time>
      </trkpt>
      <trkpt lat="46.15884" lon="6.65978">
        <ele>1377</ele>
        <time>2022-07-31T11:26:10Z</time>
      </trkpt>
      <trkpt lat="46.15885" lon="6.65979">
        <ele>1377</ele>
        <time>2022-07-31T11:26:11Z</time>
      </trkpt>
      <trkpt lat="46.15886" lon="6.65979">
        <ele>1377</ele>
        <time>2022-07-31T11:26:12Z</time>
      </trkpt>
      <trkpt lat="46.15887" lon="6.6598">
        <ele>1377</ele>
        <time>2022-07-31T11:26:13Z</time>
      </trkpt>
      <trkpt lat="46.15889" lon="6.65981">
        <ele>1377</ele>
        <time>2022-07-31T11:26:14Z</time>
      </trkpt>
      <trkpt lat="46.15891" lon="6.65982">
        <ele>1377</ele>
        <time>2022-07-31T11:26:15Z</time>
      </trkpt>
      <trkpt lat="46.15891" lon="6.65983">
        <ele>1377</ele>
        <time>2022-07-31T11:26:16Z</time>
      </trkpt>
      <trkpt lat="46.15892" lon="6.65985">
        <ele>1377</ele>
        <time>2022-07-31T11:26:17Z</time>
      </trkpt>
      <trkpt lat="46.15892" lon="6.65986">
        <ele>1377</ele>
        <time>2022-07-31T11:26:18Z</time>
      </trkpt>
      <trkpt lat="46.15893" lon="6.65988">
        <ele>1377</ele>
        <time>2022-07-31T11:26:19Z</time>
      </trkpt>
      <trkpt lat="46.15894" lon="6.65989">
        <ele>1377</ele>
        <time>2022-07-31T11:26:20Z</time>
      </trkpt>
      <trkpt lat="46.15895" lon="6.65989">
        <ele>1377</ele>
        <time>2022-07-31T11:26:21Z</time>
      </trkpt>
      <trkpt lat="46.15896" lon="6.65991">
        <ele>1377</ele>
        <time>2022-07-31T11:26:22Z</time>
      </trkpt>
      <trkpt lat="46.15898" lon="6.65993">
        <ele>1377</ele>
        <time>2022-07-31T11:26:23Z</time>
      </trkpt>
      <trkpt lat="46.15898" lon="6.65994">
        <ele>1376</ele>
        <time>2022-07-31T11:26:24Z</time>
      </trkpt>
      <trkpt lat="46.15899" lon="6.65995">
        <ele>1376</ele>
        <time>2022-07-31T11:26:25Z</time>
      </trkpt>
      <trkpt lat="46.159" lon="6.65997">
        <ele>1376</ele>
        <time>2022-07-31T11:26:26Z</time>
      </trkpt>
      <trkpt lat="46.15901" lon="6.65998">
        <ele>1376</ele>
        <time>2022-07-31T11:26:27Z</time>
      </trkpt>
      <trkpt lat="46.15902" lon="6.66">
        <ele>1376</ele>
        <time>2022-07-31T11:26:28Z</time>
      </trkpt>
      <trkpt lat="46.15903" lon="6.66001">
        <ele>1376</ele>
        <time>2022-07-31T11:26:29Z</time>
      </trkpt>
      <trkpt lat="46.15904" lon="6.66003">
        <ele>1376</ele>
        <time>2022-07-31T11:26:30Z</time>
      </trkpt>
      <trkpt lat="46.15905" lon="6.66003">
        <ele>1376</ele>
        <time>2022-07-31T11:26:31Z</time>
      </trkpt>
      <trkpt lat="46.15906" lon="6.66004">
        <ele>1376</ele>
        <time>2022-07-31T11:26:32Z</time>
      </trkpt>
      <trkpt lat="46.15907" lon="6.66005">
        <ele>1376</ele>
        <time>2022-07-31T11:26:33Z</time>
      </trkpt>
      <trkpt lat="46.15908" lon="6.66005">
        <ele>1377</ele>
        <time>2022-07-31T11:26:34Z</time>
      </trkpt>
      <trkpt lat="46.1591" lon="6.66006">
        <ele>1377</ele>
        <time>2022-07-31T11:26:35Z</time>
      </trkpt>
      <trkpt lat="46.15911" lon="6.66008">
        <ele>1377</ele>
        <time>2022-07-31T11:26:36Z</time>
      </trkpt>
      <trkpt lat="46.15912" lon="6.66008">
        <ele>1377</ele>
        <time>2022-07-31T11:26:37Z</time>
      </trkpt>
      <trkpt lat="46.15913" lon="6.66009">
        <ele>1377</ele>
        <time>2022-07-31T11:26:38Z</time>
      </trkpt>
      <trkpt lat="46.15913" lon="6.66011">
        <ele>1377</ele>
        <time>2022-07-31T11:26:39Z</time>
      </trkpt>
      <trkpt lat="46.15915" lon="6.66011">
        <ele>1377</ele>
        <time>2022-07-31T11:26:40Z</time>
      </trkpt>
      <trkpt lat="46.15915" lon="6.66012">
        <ele>1377</ele>
        <time>2022-07-31T11:26:41Z</time>
      </trkpt>
      <trkpt lat="46.15916" lon="6.66012">
        <ele>1377</ele>
        <time>2022-07-31T11:26:42Z</time>
      </trkpt>
      <trkpt lat="46.15918" lon="6.66013">
        <ele>1377</ele>
        <time>2022-07-31T11:26:43Z</time>
      </trkpt>
      <trkpt lat="46.15919" lon="6.66013">
        <ele>1377</ele>
        <time>2022-07-31T11:26:44Z</time>
      </trkpt>
      <trkpt lat="46.1592" lon="6.66014">
        <ele>1378</ele>
        <time>2022-07-31T11:26:45Z</time>
      </trkpt>
      <trkpt lat="46.15921" lon="6.66015">
        <ele>1378</ele>
        <time>2022-07-31T11:26:46Z</time>
      </trkpt>
      <trkpt lat="46.15922" lon="6.66016">
        <ele>1378</ele>
        <time>2022-07-31T11:26:47Z</time>
      </trkpt>
      <trkpt lat="46.15923" lon="6.66017">
        <ele>1378</ele>
        <time>2022-07-31T11:26:48Z</time>
      </trkpt>
      <trkpt lat="46.15925" lon="6.66018">
        <ele>1378</ele>
        <time>2022-07-31T11:26:49Z</time>
      </trkpt>
      <trkpt lat="46.15925" lon="6.6602">
        <ele>1378</ele>
        <time>2022-07-31T11:26:50Z</time>
      </trkpt>
      <trkpt lat="46.15926" lon="6.6602">
        <ele>1378</ele>
        <time>2022-07-31T11:26:51Z</time>
      </trkpt>
      <trkpt lat="46.15927" lon="6.66021">
        <ele>1378</ele>
        <time>2022-07-31T11:26:52Z</time>
      </trkpt>
      <trkpt lat="46.15928" lon="6.66021">
        <ele>1378</ele>
        <time>2022-07-31T11:26:53Z</time>
      </trkpt>
      <trkpt lat="46.15929" lon="6.66022">
        <ele>1378</ele>
        <time>2022-07-31T11:26:54Z</time>
      </trkpt>
      <trkpt lat="46.15929" lon="6.66021">
        <ele>1378</ele>
        <time>2022-07-31T11:26:55Z</time>
      </trkpt>
      <trkpt lat="46.15932" lon="6.66022">
        <ele>1379</ele>
        <time>2022-07-31T11:26:56Z</time>
      </trkpt>
      <trkpt lat="46.15933" lon="6.66022">
        <ele>1379</ele>
        <time>2022-07-31T11:26:57Z</time>
      </trkpt>
      <trkpt lat="46.15934" lon="6.66023">
        <ele>1379</ele>
        <time>2022-07-31T11:26:58Z</time>
      </trkpt>
      <trkpt lat="46.15935" lon="6.66023">
        <ele>1379</ele>
        <time>2022-07-31T11:26:59Z</time>
      </trkpt>
      <trkpt lat="46.15936" lon="6.66023">
        <ele>1379</ele>
        <time>2022-07-31T11:27:00Z</time>
      </trkpt>
      <trkpt lat="46.15938" lon="6.66024">
        <ele>1379</ele>
        <time>2022-07-31T11:27:01Z</time>
      </trkpt>
      <trkpt lat="46.1594" lon="6.66024">
        <ele>1379</ele>
        <time>2022-07-31T11:27:02Z</time>
      </trkpt>
      <trkpt lat="46.15941" lon="6.66024">
        <ele>1379</ele>
        <time>2022-07-31T11:27:03Z</time>
      </trkpt>
      <trkpt lat="46.15942" lon="6.66024">
        <ele>1379</ele>
        <time>2022-07-31T11:27:04Z</time>
      </trkpt>
      <trkpt lat="46.15942" lon="6.66025">
        <ele>1379</ele>
        <time>2022-07-31T11:27:05Z</time>
      </trkpt>
      <trkpt lat="46.15944" lon="6.66025">
        <ele>1379</ele>
        <time>2022-07-31T11:27:06Z</time>
      </trkpt>
      <trkpt lat="46.15945" lon="6.66025">
        <ele>1379</ele>
        <time>2022-07-31T11:27:07Z</time>
      </trkpt>
      <trkpt lat="46.15945" lon="6.66026">
        <ele>1379</ele>
        <time>2022-07-31T11:27:08Z</time>
      </trkpt>
      <trkpt lat="46.15946" lon="6.66028">
        <ele>1379</ele>
        <time>2022-07-31T11:27:09Z</time>
      </trkpt>
      <trkpt lat="46.15947" lon="6.66029">
        <ele>1379</ele>
        <time>2022-07-31T11:27:10Z</time>
      </trkpt>
      <trkpt lat="46.15948" lon="6.66029">
        <ele>1379</ele>
        <time>2022-07-31T11:27:11Z</time>
      </trkpt>
      <trkpt lat="46.15948" lon="6.66029">
        <ele>1379</ele>
        <time>2022-07-31T11:27:12Z</time>
      </trkpt>
      <trkpt lat="46.15949" lon="6.66029">
        <ele>1379</ele>
        <time>2022-07-31T11:27:13Z</time>
      </trkpt>
      <trkpt lat="46.15949" lon="6.6603">
        <ele>1379</ele>
        <time>2022-07-31T11:27:14Z</time>
      </trkpt>
      <trkpt lat="46.1595" lon="6.6603">
        <ele>1379</ele>
        <time>2022-07-31T11:27:15Z</time>
      </trkpt>
      <trkpt lat="46.15952" lon="6.66031">
        <ele>1379</ele>
        <time>2022-07-31T11:27:16Z</time>
      </trkpt>
      <trkpt lat="46.15953" lon="6.66033">
        <ele>1380</ele>
        <time>2022-07-31T11:27:17Z</time>
      </trkpt>
      <trkpt lat="46.15954" lon="6.66034">
        <ele>1380</ele>
        <time>2022-07-31T11:27:18Z</time>
      </trkpt>
      <trkpt lat="46.15956" lon="6.66035">
        <ele>1380</ele>
        <time>2022-07-31T11:27:19Z</time>
      </trkpt>
      <trkpt lat="46.15956" lon="6.66036">
        <ele>1380</ele>
        <time>2022-07-31T11:27:20Z</time>
      </trkpt>
      <trkpt lat="46.15957" lon="6.66036">
        <ele>1380</ele>
        <time>2022-07-31T11:27:21Z</time>
      </trkpt>
      <trkpt lat="46.15958" lon="6.66037">
        <ele>1380</ele>
        <time>2022-07-31T11:27:22Z</time>
      </trkpt>
      <trkpt lat="46.15959" lon="6.66037">
        <ele>1380</ele>
        <time>2022-07-31T11:27:23Z</time>
      </trkpt>
      <trkpt lat="46.1596" lon="6.66038">
        <ele>1380</ele>
        <time>2022-07-31T11:27:24Z</time>
      </trkpt>
      <trkpt lat="46.15961" lon="6.66039">
        <ele>1380</ele>
        <time>2022-07-31T11:27:25Z</time>
      </trkpt>
      <trkpt lat="46.15962" lon="6.6604">
        <ele>1380</ele>
        <time>2022-07-31T11:27:26Z</time>
      </trkpt>
      <trkpt lat="46.15964" lon="6.66042">
        <ele>1381</ele>
        <time>2022-07-31T11:27:27Z</time>
      </trkpt>
      <trkpt lat="46.15965" lon="6.66042">
        <ele>1381</ele>
        <time>2022-07-31T11:27:28Z</time>
      </trkpt>
      <trkpt lat="46.15965" lon="6.66043">
        <ele>1381</ele>
        <time>2022-07-31T11:27:29Z</time>
      </trkpt>
      <trkpt lat="46.15965" lon="6.66043">
        <ele>1381</ele>
        <time>2022-07-31T11:27:30Z</time>
      </trkpt>
      <trkpt lat="46.15966" lon="6.66044">
        <ele>1381</ele>
        <time>2022-07-31T11:27:31Z</time>
      </trkpt>
      <trkpt lat="46.15966" lon="6.66044">
        <ele>1381</ele>
        <time>2022-07-31T11:27:32Z</time>
      </trkpt>
      <trkpt lat="46.15967" lon="6.66046">
        <ele>1381</ele>
        <time>2022-07-31T11:27:33Z</time>
      </trkpt>
      <trkpt lat="46.15969" lon="6.66046">
        <ele>1381</ele>
        <time>2022-07-31T11:27:34Z</time>
      </trkpt>
      <trkpt lat="46.1597" lon="6.66047">
        <ele>1382</ele>
        <time>2022-07-31T11:27:35Z</time>
      </trkpt>
      <trkpt lat="46.1597" lon="6.66049">
        <ele>1382</ele>
        <time>2022-07-31T11:27:36Z</time>
      </trkpt>
      <trkpt lat="46.15972" lon="6.66049">
        <ele>1382</ele>
        <time>2022-07-31T11:27:37Z</time>
      </trkpt>
      <trkpt lat="46.15973" lon="6.66049">
        <ele>1382</ele>
        <time>2022-07-31T11:27:38Z</time>
      </trkpt>
      <trkpt lat="46.15973" lon="6.66048">
        <ele>1382</ele>
        <time>2022-07-31T11:27:39Z</time>
      </trkpt>
      <trkpt lat="46.15974" lon="6.66049">
        <ele>1382</ele>
        <time>2022-07-31T11:27:40Z</time>
      </trkpt>
      <trkpt lat="46.15974" lon="6.6605">
        <ele>1382</ele>
        <time>2022-07-31T11:27:41Z</time>
      </trkpt>
      <trkpt lat="46.15976" lon="6.66052">
        <ele>1382</ele>
        <time>2022-07-31T11:27:42Z</time>
      </trkpt>
      <trkpt lat="46.15977" lon="6.66052">
        <ele>1383</ele>
        <time>2022-07-31T11:27:43Z</time>
      </trkpt>
      <trkpt lat="46.15977" lon="6.66052">
        <ele>1383</ele>
        <time>2022-07-31T11:27:44Z</time>
      </trkpt>
      <trkpt lat="46.15978" lon="6.66053">
        <ele>1383</ele>
        <time>2022-07-31T11:27:45Z</time>
      </trkpt>
      <trkpt lat="46.15978" lon="6.66055">
        <ele>1383</ele>
        <time>2022-07-31T11:27:46Z</time>
      </trkpt>
      <trkpt lat="46.15979" lon="6.66057">
        <ele>1383</ele>
        <time>2022-07-31T11:27:47Z</time>
      </trkpt>
      <trkpt lat="46.1598" lon="6.66058">
        <ele>1383</ele>
        <time>2022-07-31T11:27:48Z</time>
      </trkpt>
      <trkpt lat="46.15981" lon="6.66059">
        <ele>1383</ele>
        <time>2022-07-31T11:27:49Z</time>
      </trkpt>
      <trkpt lat="46.15981" lon="6.66061">
        <ele>1384</ele>
        <time>2022-07-31T11:27:50Z</time>
      </trkpt>
      <trkpt lat="46.15982" lon="6.66063">
        <ele>1384</ele>
        <time>2022-07-31T11:27:51Z</time>
      </trkpt>
      <trkpt lat="46.15982" lon="6.66064">
        <ele>1384</ele>
        <time>2022-07-31T11:27:52Z</time>
      </trkpt>
      <trkpt lat="46.15984" lon="6.66065">
        <ele>1384</ele>
        <time>2022-07-31T11:27:53Z</time>
      </trkpt>
      <trkpt lat="46.15984" lon="6.66066">
        <ele>1384</ele>
        <time>2022-07-31T11:27:54Z</time>
      </trkpt>
      <trkpt lat="46.15985" lon="6.66067">
        <ele>1384</ele>
        <time>2022-07-31T11:27:55Z</time>
      </trkpt>
      <trkpt lat="46.15986" lon="6.66066">
        <ele>1385</ele>
        <time>2022-07-31T11:27:56Z</time>
      </trkpt>
      <trkpt lat="46.15988" lon="6.66066">
        <ele>1385</ele>
        <time>2022-07-31T11:27:57Z</time>
      </trkpt>
      <trkpt lat="46.15989" lon="6.66066">
        <ele>1385</ele>
        <time>2022-07-31T11:27:58Z</time>
      </trkpt>
      <trkpt lat="46.1599" lon="6.66066">
        <ele>1385</ele>
        <time>2022-07-31T11:27:59Z</time>
      </trkpt>
      <trkpt lat="46.15991" lon="6.66066">
        <ele>1385</ele>
        <time>2022-07-31T11:28:00Z</time>
      </trkpt>
      <trkpt lat="46.15992" lon="6.66066">
        <ele>1386</ele>
        <time>2022-07-31T11:28:01Z</time>
      </trkpt>
      <trkpt lat="46.15993" lon="6.66066">
        <ele>1386</ele>
        <time>2022-07-31T11:28:02Z</time>
      </trkpt>
      <trkpt lat="46.15994" lon="6.66067">
        <ele>1386</ele>
        <time>2022-07-31T11:28:03Z</time>
      </trkpt>
      <trkpt lat="46.15995" lon="6.66067">
        <ele>1386</ele>
        <time>2022-07-31T11:28:04Z</time>
      </trkpt>
      <trkpt lat="46.15996" lon="6.66067">
        <ele>1386</ele>
        <time>2022-07-31T11:28:05Z</time>
      </trkpt>
      <trkpt lat="46.15998" lon="6.66067">
        <ele>1387</ele>
        <time>2022-07-31T11:28:06Z</time>
      </trkpt>
      <trkpt lat="46.15998" lon="6.66067">
        <ele>1387</ele>
        <time>2022-07-31T11:28:07Z</time>
      </trkpt>
      <trkpt lat="46.15999" lon="6.66067">
        <ele>1387</ele>
        <time>2022-07-31T11:28:08Z</time>
      </trkpt>
      <trkpt lat="46.16" lon="6.66069">
        <ele>1388</ele>
        <time>2022-07-31T11:28:09Z</time>
      </trkpt>
      <trkpt lat="46.16001" lon="6.66069">
        <ele>1388</ele>
        <time>2022-07-31T11:28:10Z</time>
      </trkpt>
      <trkpt lat="46.16002" lon="6.66071">
        <ele>1388</ele>
        <time>2022-07-31T11:28:11Z</time>
      </trkpt>
      <trkpt lat="46.16003" lon="6.66072">
        <ele>1388</ele>
        <time>2022-07-31T11:28:12Z</time>
      </trkpt>
      <trkpt lat="46.16005" lon="6.66073">
        <ele>1388</ele>
        <time>2022-07-31T11:28:13Z</time>
      </trkpt>
      <trkpt lat="46.16006" lon="6.66074">
        <ele>1388</ele>
        <time>2022-07-31T11:28:14Z</time>
      </trkpt>
      <trkpt lat="46.16007" lon="6.66074">
        <ele>1389</ele>
        <time>2022-07-31T11:28:15Z</time>
      </trkpt>
      <trkpt lat="46.16008" lon="6.66074">
        <ele>1389</ele>
        <time>2022-07-31T11:28:16Z</time>
      </trkpt>
      <trkpt lat="46.1601" lon="6.66074">
        <ele>1389</ele>
        <time>2022-07-31T11:28:17Z</time>
      </trkpt>
      <trkpt lat="46.16011" lon="6.66072">
        <ele>1389</ele>
        <time>2022-07-31T11:28:18Z</time>
      </trkpt>
      <trkpt lat="46.16013" lon="6.66072">
        <ele>1389</ele>
        <time>2022-07-31T11:28:19Z</time>
      </trkpt>
      <trkpt lat="46.16015" lon="6.66072">
        <ele>1389</ele>
        <time>2022-07-31T11:28:20Z</time>
      </trkpt>
      <trkpt lat="46.16017" lon="6.66071">
        <ele>1390</ele>
        <time>2022-07-31T11:28:21Z</time>
      </trkpt>
      <trkpt lat="46.16018" lon="6.6607">
        <ele>1390</ele>
        <time>2022-07-31T11:28:22Z</time>
      </trkpt>
      <trkpt lat="46.1602" lon="6.6607">
        <ele>1390</ele>
        <time>2022-07-31T11:28:23Z</time>
      </trkpt>
      <trkpt lat="46.16021" lon="6.66069">
        <ele>1390</ele>
        <time>2022-07-31T11:28:24Z</time>
      </trkpt>
      <trkpt lat="46.16022" lon="6.66069">
        <ele>1390</ele>
        <time>2022-07-31T11:28:25Z</time>
      </trkpt>
      <trkpt lat="46.16022" lon="6.66068">
        <ele>1391</ele>
        <time>2022-07-31T11:28:26Z</time>
      </trkpt>
      <trkpt lat="46.16023" lon="6.66068">
        <ele>1391</ele>
        <time>2022-07-31T11:28:27Z</time>
      </trkpt>
      <trkpt lat="46.16025" lon="6.66068">
        <ele>1391</ele>
        <time>2022-07-31T11:28:28Z</time>
      </trkpt>
      <trkpt lat="46.16026" lon="6.66068">
        <ele>1391</ele>
        <time>2022-07-31T11:28:29Z</time>
      </trkpt>
      <trkpt lat="46.16027" lon="6.66068">
        <ele>1391</ele>
        <time>2022-07-31T11:28:30Z</time>
      </trkpt>
      <trkpt lat="46.16028" lon="6.66067">
        <ele>1391</ele>
        <time>2022-07-31T11:28:31Z</time>
      </trkpt>
      <trkpt lat="46.1603" lon="6.66067">
        <ele>1391</ele>
        <time>2022-07-31T11:28:32Z</time>
      </trkpt>
      <trkpt lat="46.16031" lon="6.66067">
        <ele>1391</ele>
        <time>2022-07-31T11:28:33Z</time>
      </trkpt>
      <trkpt lat="46.16031" lon="6.66067">
        <ele>1392</ele>
        <time>2022-07-31T11:28:34Z</time>
      </trkpt>
      <trkpt lat="46.16031" lon="6.66066">
        <ele>1392</ele>
        <time>2022-07-31T11:28:35Z</time>
      </trkpt>
      <trkpt lat="46.1603" lon="6.66067">
        <ele>1392</ele>
        <time>2022-07-31T11:28:36Z</time>
      </trkpt>
      <trkpt lat="46.1603" lon="6.66066">
        <ele>1392</ele>
        <time>2022-07-31T11:28:37Z</time>
      </trkpt>
      <trkpt lat="46.1603" lon="6.66067">
        <ele>1392</ele>
        <time>2022-07-31T11:28:38Z</time>
      </trkpt>
      <trkpt lat="46.16029" lon="6.66068">
        <ele>1392</ele>
        <time>2022-07-31T11:28:39Z</time>
      </trkpt>
      <trkpt lat="46.16028" lon="6.66068">
        <ele>1393</ele>
        <time>2022-07-31T11:28:40Z</time>
      </trkpt>
      <trkpt lat="46.16028" lon="6.66069">
        <ele>1393</ele>
        <time>2022-07-31T11:28:41Z</time>
      </trkpt>
      <trkpt lat="46.16028" lon="6.66069">
        <ele>1393</ele>
        <time>2022-07-31T11:28:42Z</time>
      </trkpt>
      <trkpt lat="46.16028" lon="6.66069">
        <ele>1393</ele>
        <time>2022-07-31T11:28:43Z</time>
      </trkpt>
      <trkpt lat="46.16028" lon="6.66069">
        <ele>1393</ele>
        <time>2022-07-31T11:28:44Z</time>
      </trkpt>
      <trkpt lat="46.16028" lon="6.66069">
        <ele>1393</ele>
        <time>2022-07-31T11:28:45Z</time>
      </trkpt>
      <trkpt lat="46.16028" lon="6.66069">
        <ele>1393</ele>
        <time>2022-07-31T11:28:46Z</time>
      </trkpt>
      <trkpt lat="46.16028" lon="6.66069">
        <ele>1393</ele>
        <time>2022-07-31T11:28:47Z</time>
      </trkpt>
      <trkpt lat="46.1603" lon="6.6607">
        <ele>1393</ele>
        <time>2022-07-31T11:28:48Z</time>
      </trkpt>
      <trkpt lat="46.16031" lon="6.66071">
        <ele>1393</ele>
        <time>2022-07-31T11:28:49Z</time>
      </trkpt>
      <trkpt lat="46.16032" lon="6.66071">
        <ele>1393</ele>
        <time>2022-07-31T11:28:50Z</time>
      </trkpt>
      <trkpt lat="46.16033" lon="6.66071">
        <ele>1393</ele>
        <time>2022-07-31T11:28:51Z</time>
      </trkpt>
      <trkpt lat="46.16035" lon="6.66071">
        <ele>1393</ele>
        <time>2022-07-31T11:28:52Z</time>
      </trkpt>
      <trkpt lat="46.16036" lon="6.6607">
        <ele>1393</ele>
        <time>2022-07-31T11:28:53Z</time>
      </trkpt>
      <trkpt lat="46.16037" lon="6.66071">
        <ele>1393</ele>
        <time>2022-07-31T11:28:54Z</time>
      </trkpt>
      <trkpt lat="46.16038" lon="6.66072">
        <ele>1393</ele>
        <time>2022-07-31T11:28:55Z</time>
      </trkpt>
      <trkpt lat="46.16039" lon="6.66072">
        <ele>1393</ele>
        <time>2022-07-31T11:28:56Z</time>
      </trkpt>
      <trkpt lat="46.1604" lon="6.66073">
        <ele>1393</ele>
        <time>2022-07-31T11:28:57Z</time>
      </trkpt>
      <trkpt lat="46.16041" lon="6.66073">
        <ele>1394</ele>
        <time>2022-07-31T11:28:58Z</time>
      </trkpt>
      <trkpt lat="46.16041" lon="6.66074">
        <ele>1394</ele>
        <time>2022-07-31T11:28:59Z</time>
      </trkpt>
      <trkpt lat="46.16043" lon="6.66072">
        <ele>1394</ele>
        <time>2022-07-31T11:29:00Z</time>
      </trkpt>
      <trkpt lat="46.16044" lon="6.66073">
        <ele>1394</ele>
        <time>2022-07-31T11:29:01Z</time>
      </trkpt>
      <trkpt lat="46.16045" lon="6.66075">
        <ele>1394</ele>
        <time>2022-07-31T11:29:02Z</time>
      </trkpt>
      <trkpt lat="46.16046" lon="6.66075">
        <ele>1394</ele>
        <time>2022-07-31T11:29:03Z</time>
      </trkpt>
      <trkpt lat="46.16047" lon="6.66075">
        <ele>1394</ele>
        <time>2022-07-31T11:29:04Z</time>
      </trkpt>
      <trkpt lat="46.16048" lon="6.66076">
        <ele>1394</ele>
        <time>2022-07-31T11:29:05Z</time>
      </trkpt>
      <trkpt lat="46.16049" lon="6.66077">
        <ele>1394</ele>
        <time>2022-07-31T11:29:06Z</time>
      </trkpt>
      <trkpt lat="46.1605" lon="6.66078">
        <ele>1394</ele>
        <time>2022-07-31T11:29:07Z</time>
      </trkpt>
      <trkpt lat="46.16051" lon="6.66079">
        <ele>1394</ele>
        <time>2022-07-31T11:29:08Z</time>
      </trkpt>
      <trkpt lat="46.16051" lon="6.6608">
        <ele>1394</ele>
        <time>2022-07-31T11:29:09Z</time>
      </trkpt>
      <trkpt lat="46.16052" lon="6.66081">
        <ele>1394</ele>
        <time>2022-07-31T11:29:10Z</time>
      </trkpt>
      <trkpt lat="46.16053" lon="6.66082">
        <ele>1394</ele>
        <time>2022-07-31T11:29:11Z</time>
      </trkpt>
      <trkpt lat="46.16054" lon="6.66083">
        <ele>1394</ele>
        <time>2022-07-31T11:29:12Z</time>
      </trkpt>
      <trkpt lat="46.16054" lon="6.66084">
        <ele>1394</ele>
        <time>2022-07-31T11:29:13Z</time>
      </trkpt>
      <trkpt lat="46.16055" lon="6.66084">
        <ele>1394</ele>
        <time>2022-07-31T11:29:14Z</time>
      </trkpt>
      <trkpt lat="46.16056" lon="6.66085">
        <ele>1394</ele>
        <time>2022-07-31T11:29:15Z</time>
      </trkpt>
      <trkpt lat="46.16056" lon="6.66086">
        <ele>1395</ele>
        <time>2022-07-31T11:29:16Z</time>
      </trkpt>
      <trkpt lat="46.16057" lon="6.66088">
        <ele>1395</ele>
        <time>2022-07-31T11:29:17Z</time>
      </trkpt>
      <trkpt lat="46.16059" lon="6.66089">
        <ele>1395</ele>
        <time>2022-07-31T11:29:18Z</time>
      </trkpt>
      <trkpt lat="46.16059" lon="6.66089">
        <ele>1395</ele>
        <time>2022-07-31T11:29:19Z</time>
      </trkpt>
      <trkpt lat="46.1606" lon="6.66089">
        <ele>1395</ele>
        <time>2022-07-31T11:29:20Z</time>
      </trkpt>
      <trkpt lat="46.16061" lon="6.66088">
        <ele>1395</ele>
        <time>2022-07-31T11:29:21Z</time>
      </trkpt>
      <trkpt lat="46.16062" lon="6.66088">
        <ele>1395</ele>
        <time>2022-07-31T11:29:22Z</time>
      </trkpt>
      <trkpt lat="46.16063" lon="6.66088">
        <ele>1395</ele>
        <time>2022-07-31T11:29:23Z</time>
      </trkpt>
      <trkpt lat="46.16065" lon="6.66088">
        <ele>1396</ele>
        <time>2022-07-31T11:29:24Z</time>
      </trkpt>
      <trkpt lat="46.16065" lon="6.66087">
        <ele>1396</ele>
        <time>2022-07-31T11:29:25Z</time>
      </trkpt>
      <trkpt lat="46.16066" lon="6.66086">
        <ele>1396</ele>
        <time>2022-07-31T11:29:26Z</time>
      </trkpt>
      <trkpt lat="46.16067" lon="6.66085">
        <ele>1396</ele>
        <time>2022-07-31T11:29:27Z</time>
      </trkpt>
      <trkpt lat="46.16068" lon="6.66084">
        <ele>1397</ele>
        <time>2022-07-31T11:29:28Z</time>
      </trkpt>
      <trkpt lat="46.16069" lon="6.66085">
        <ele>1397</ele>
        <time>2022-07-31T11:29:29Z</time>
      </trkpt>
      <trkpt lat="46.1607" lon="6.66085">
        <ele>1397</ele>
        <time>2022-07-31T11:29:30Z</time>
      </trkpt>
      <trkpt lat="46.16072" lon="6.66085">
        <ele>1397</ele>
        <time>2022-07-31T11:29:31Z</time>
      </trkpt>
      <trkpt lat="46.16073" lon="6.66086">
        <ele>1398</ele>
        <time>2022-07-31T11:29:32Z</time>
      </trkpt>
      <trkpt lat="46.16074" lon="6.66086">
        <ele>1398</ele>
        <time>2022-07-31T11:29:33Z</time>
      </trkpt>
      <trkpt lat="46.16074" lon="6.66087">
        <ele>1398</ele>
        <time>2022-07-31T11:29:34Z</time>
      </trkpt>
      <trkpt lat="46.16075" lon="6.66088">
        <ele>1398</ele>
        <time>2022-07-31T11:29:35Z</time>
      </trkpt>
      <trkpt lat="46.16075" lon="6.66088">
        <ele>1398</ele>
        <time>2022-07-31T11:29:36Z</time>
      </trkpt>
      <trkpt lat="46.16076" lon="6.66089">
        <ele>1398</ele>
        <time>2022-07-31T11:29:37Z</time>
      </trkpt>
      <trkpt lat="46.16076" lon="6.66089">
        <ele>1398</ele>
        <time>2022-07-31T11:29:38Z</time>
      </trkpt>
      <trkpt lat="46.16077" lon="6.6609">
        <ele>1399</ele>
        <time>2022-07-31T11:29:39Z</time>
      </trkpt>
      <trkpt lat="46.1608" lon="6.66091">
        <ele>1399</ele>
        <time>2022-07-31T11:29:40Z</time>
      </trkpt>
      <trkpt lat="46.16081" lon="6.66092">
        <ele>1399</ele>
        <time>2022-07-31T11:29:41Z</time>
      </trkpt>
      <trkpt lat="46.16082" lon="6.66092">
        <ele>1399</ele>
        <time>2022-07-31T11:29:42Z</time>
      </trkpt>
      <trkpt lat="46.16082" lon="6.66093">
        <ele>1399</ele>
        <time>2022-07-31T11:29:43Z</time>
      </trkpt>
      <trkpt lat="46.16083" lon="6.66094">
        <ele>1399</ele>
        <time>2022-07-31T11:29:44Z</time>
      </trkpt>
      <trkpt lat="46.16083" lon="6.66095">
        <ele>1399</ele>
        <time>2022-07-31T11:29:45Z</time>
      </trkpt>
      <trkpt lat="46.16084" lon="6.66096">
        <ele>1399</ele>
        <time>2022-07-31T11:29:46Z</time>
      </trkpt>
      <trkpt lat="46.16085" lon="6.66098">
        <ele>1399</ele>
        <time>2022-07-31T11:29:47Z</time>
      </trkpt>
      <trkpt lat="46.16086" lon="6.66099">
        <ele>1399</ele>
        <time>2022-07-31T11:29:48Z</time>
      </trkpt>
      <trkpt lat="46.16087" lon="6.661">
        <ele>1399</ele>
        <time>2022-07-31T11:29:49Z</time>
      </trkpt>
      <trkpt lat="46.16088" lon="6.66101">
        <ele>1399</ele>
        <time>2022-07-31T11:29:50Z</time>
      </trkpt>
      <trkpt lat="46.16088" lon="6.66101">
        <ele>1399</ele>
        <time>2022-07-31T11:29:51Z</time>
      </trkpt>
      <trkpt lat="46.16089" lon="6.66102">
        <ele>1399</ele>
        <time>2022-07-31T11:29:52Z</time>
      </trkpt>
      <trkpt lat="46.1609" lon="6.66104">
        <ele>1399</ele>
        <time>2022-07-31T11:29:53Z</time>
      </trkpt>
      <trkpt lat="46.16091" lon="6.66105">
        <ele>1399</ele>
        <time>2022-07-31T11:29:54Z</time>
      </trkpt>
      <trkpt lat="46.16092" lon="6.66105">
        <ele>1399</ele>
        <time>2022-07-31T11:29:55Z</time>
      </trkpt>
      <trkpt lat="46.16092" lon="6.66105">
        <ele>1399</ele>
        <time>2022-07-31T11:29:56Z</time>
      </trkpt>
      <trkpt lat="46.16093" lon="6.66106">
        <ele>1399</ele>
        <time>2022-07-31T11:29:57Z</time>
      </trkpt>
      <trkpt lat="46.16094" lon="6.66108">
        <ele>1399</ele>
        <time>2022-07-31T11:29:58Z</time>
      </trkpt>
      <trkpt lat="46.16095" lon="6.66109">
        <ele>1399</ele>
        <time>2022-07-31T11:29:59Z</time>
      </trkpt>
      <trkpt lat="46.16096" lon="6.66111">
        <ele>1399</ele>
        <time>2022-07-31T11:30:00Z</time>
      </trkpt>
      <trkpt lat="46.16097" lon="6.66112">
        <ele>1399</ele>
        <time>2022-07-31T11:30:01Z</time>
      </trkpt>
      <trkpt lat="46.16099" lon="6.66113">
        <ele>1399</ele>
        <time>2022-07-31T11:30:02Z</time>
      </trkpt>
      <trkpt lat="46.16101" lon="6.66113">
        <ele>1399</ele>
        <time>2022-07-31T11:30:03Z</time>
      </trkpt>
      <trkpt lat="46.16102" lon="6.66114">
        <ele>1399</ele>
        <time>2022-07-31T11:30:04Z</time>
      </trkpt>
      <trkpt lat="46.16104" lon="6.66115">
        <ele>1400</ele>
        <time>2022-07-31T11:30:05Z</time>
      </trkpt>
      <trkpt lat="46.16106" lon="6.66115">
        <ele>1400</ele>
        <time>2022-07-31T11:30:06Z</time>
      </trkpt>
      <trkpt lat="46.16107" lon="6.66115">
        <ele>1400</ele>
        <time>2022-07-31T11:30:07Z</time>
      </trkpt>
      <trkpt lat="46.16109" lon="6.66115">
        <ele>1400</ele>
        <time>2022-07-31T11:30:08Z</time>
      </trkpt>
      <trkpt lat="46.1611" lon="6.66114">
        <ele>1400</ele>
        <time>2022-07-31T11:30:09Z</time>
      </trkpt>
      <trkpt lat="46.16112" lon="6.66114">
        <ele>1400</ele>
        <time>2022-07-31T11:30:10Z</time>
      </trkpt>
      <trkpt lat="46.16113" lon="6.66113">
        <ele>1400</ele>
        <time>2022-07-31T11:30:11Z</time>
      </trkpt>
      <trkpt lat="46.16114" lon="6.66113">
        <ele>1401</ele>
        <time>2022-07-31T11:30:12Z</time>
      </trkpt>
      <trkpt lat="46.16116" lon="6.66113">
        <ele>1401</ele>
        <time>2022-07-31T11:30:13Z</time>
      </trkpt>
      <trkpt lat="46.16117" lon="6.66113">
        <ele>1401</ele>
        <time>2022-07-31T11:30:14Z</time>
      </trkpt>
      <trkpt lat="46.16119" lon="6.66113">
        <ele>1401</ele>
        <time>2022-07-31T11:30:15Z</time>
      </trkpt>
      <trkpt lat="46.16121" lon="6.66112">
        <ele>1401</ele>
        <time>2022-07-31T11:30:16Z</time>
      </trkpt>
      <trkpt lat="46.16122" lon="6.66112">
        <ele>1402</ele>
        <time>2022-07-31T11:30:17Z</time>
      </trkpt>
      <trkpt lat="46.16124" lon="6.66112">
        <ele>1402</ele>
        <time>2022-07-31T11:30:18Z</time>
      </trkpt>
      <trkpt lat="46.16125" lon="6.6611">
        <ele>1402</ele>
        <time>2022-07-31T11:30:19Z</time>
      </trkpt>
      <trkpt lat="46.16126" lon="6.66109">
        <ele>1402</ele>
        <time>2022-07-31T11:30:20Z</time>
      </trkpt>
      <trkpt lat="46.16128" lon="6.66109">
        <ele>1402</ele>
        <time>2022-07-31T11:30:21Z</time>
      </trkpt>
      <trkpt lat="46.16129" lon="6.66108">
        <ele>1402</ele>
        <time>2022-07-31T11:30:22Z</time>
      </trkpt>
      <trkpt lat="46.16131" lon="6.66108">
        <ele>1402</ele>
        <time>2022-07-31T11:30:23Z</time>
      </trkpt>
      <trkpt lat="46.16133" lon="6.66107">
        <ele>1402</ele>
        <time>2022-07-31T11:30:24Z</time>
      </trkpt>
      <trkpt lat="46.16134" lon="6.66106">
        <ele>1402</ele>
        <time>2022-07-31T11:30:25Z</time>
      </trkpt>
      <trkpt lat="46.16136" lon="6.66106">
        <ele>1402</ele>
        <time>2022-07-31T11:30:26Z</time>
      </trkpt>
      <trkpt lat="46.16137" lon="6.66106">
        <ele>1403</ele>
        <time>2022-07-31T11:30:27Z</time>
      </trkpt>
      <trkpt lat="46.16138" lon="6.66106">
        <ele>1403</ele>
        <time>2022-07-31T11:30:28Z</time>
      </trkpt>
      <trkpt lat="46.16139" lon="6.66104">
        <ele>1403</ele>
        <time>2022-07-31T11:30:29Z</time>
      </trkpt>
      <trkpt lat="46.16141" lon="6.66103">
        <ele>1403</ele>
        <time>2022-07-31T11:30:30Z</time>
      </trkpt>
      <trkpt lat="46.16142" lon="6.66102">
        <ele>1403</ele>
        <time>2022-07-31T11:30:31Z</time>
      </trkpt>
      <trkpt lat="46.16142" lon="6.661">
        <ele>1403</ele>
        <time>2022-07-31T11:30:32Z</time>
      </trkpt>
      <trkpt lat="46.16143" lon="6.66098">
        <ele>1404</ele>
        <time>2022-07-31T11:30:33Z</time>
      </trkpt>
      <trkpt lat="46.16143" lon="6.66095">
        <ele>1404</ele>
        <time>2022-07-31T11:30:34Z</time>
      </trkpt>
      <trkpt lat="46.16144" lon="6.66093">
        <ele>1404</ele>
        <time>2022-07-31T11:30:35Z</time>
      </trkpt>
      <trkpt lat="46.16146" lon="6.66092">
        <ele>1405</ele>
        <time>2022-07-31T11:30:36Z</time>
      </trkpt>
      <trkpt lat="46.16148" lon="6.66091">
        <ele>1405</ele>
        <time>2022-07-31T11:30:37Z</time>
      </trkpt>
      <trkpt lat="46.1615" lon="6.66089">
        <ele>1405</ele>
        <time>2022-07-31T11:30:38Z</time>
      </trkpt>
      <trkpt lat="46.16151" lon="6.66088">
        <ele>1406</ele>
        <time>2022-07-31T11:30:39Z</time>
      </trkpt>
      <trkpt lat="46.16154" lon="6.66087">
        <ele>1406</ele>
        <time>2022-07-31T11:30:40Z</time>
      </trkpt>
      <trkpt lat="46.16155" lon="6.66086">
        <ele>1406</ele>
        <time>2022-07-31T11:30:41Z</time>
      </trkpt>
      <trkpt lat="46.16156" lon="6.66084">
        <ele>1407</ele>
        <time>2022-07-31T11:30:42Z</time>
      </trkpt>
      <trkpt lat="46.16158" lon="6.66083">
        <ele>1407</ele>
        <time>2022-07-31T11:30:43Z</time>
      </trkpt>
      <trkpt lat="46.16159" lon="6.66083">
        <ele>1407</ele>
        <time>2022-07-31T11:30:44Z</time>
      </trkpt>
      <trkpt lat="46.1616" lon="6.66084">
        <ele>1407</ele>
        <time>2022-07-31T11:30:45Z</time>
      </trkpt>
      <trkpt lat="46.16161" lon="6.66085">
        <ele>1408</ele>
        <time>2022-07-31T11:30:46Z</time>
      </trkpt>
      <trkpt lat="46.16162" lon="6.66086">
        <ele>1408</ele>
        <time>2022-07-31T11:30:47Z</time>
      </trkpt>
      <trkpt lat="46.16162" lon="6.66086">
        <ele>1408</ele>
        <time>2022-07-31T11:30:48Z</time>
      </trkpt>
      <trkpt lat="46.16163" lon="6.66086">
        <ele>1408</ele>
        <time>2022-07-31T11:30:49Z</time>
      </trkpt>
      <trkpt lat="46.16163" lon="6.66087">
        <ele>1409</ele>
        <time>2022-07-31T11:30:50Z</time>
      </trkpt>
      <trkpt lat="46.16163" lon="6.66089">
        <ele>1409</ele>
        <time>2022-07-31T11:30:51Z</time>
      </trkpt>
      <trkpt lat="46.16163" lon="6.66091">
        <ele>1409</ele>
        <time>2022-07-31T11:30:52Z</time>
      </trkpt>
      <trkpt lat="46.16162" lon="6.66092">
        <ele>1409</ele>
        <time>2022-07-31T11:30:53Z</time>
      </trkpt>
      <trkpt lat="46.16162" lon="6.66092">
        <ele>1410</ele>
        <time>2022-07-31T11:30:54Z</time>
      </trkpt>
      <trkpt lat="46.16162" lon="6.66091">
        <ele>1410</ele>
        <time>2022-07-31T11:30:55Z</time>
      </trkpt>
      <trkpt lat="46.16161" lon="6.66093">
        <ele>1410</ele>
        <time>2022-07-31T11:30:56Z</time>
      </trkpt>
      <trkpt lat="46.1616" lon="6.66095">
        <ele>1410</ele>
        <time>2022-07-31T11:30:57Z</time>
      </trkpt>
      <trkpt lat="46.16159" lon="6.66096">
        <ele>1410</ele>
        <time>2022-07-31T11:30:58Z</time>
      </trkpt>
      <trkpt lat="46.16158" lon="6.66097">
        <ele>1410</ele>
        <time>2022-07-31T11:30:59Z</time>
      </trkpt>
      <trkpt lat="46.16158" lon="6.66098">
        <ele>1410</ele>
        <time>2022-07-31T11:31:00Z</time>
      </trkpt>
      <trkpt lat="46.16157" lon="6.66098">
        <ele>1410</ele>
        <time>2022-07-31T11:31:01Z</time>
      </trkpt>
      <trkpt lat="46.16156" lon="6.66099">
        <ele>1410</ele>
        <time>2022-07-31T11:31:02Z</time>
      </trkpt>
      <trkpt lat="46.16156" lon="6.661">
        <ele>1410</ele>
        <time>2022-07-31T11:31:03Z</time>
      </trkpt>
      <trkpt lat="46.16155" lon="6.66101">
        <ele>1410</ele>
        <time>2022-07-31T11:31:04Z</time>
      </trkpt>
      <trkpt lat="46.16155" lon="6.66102">
        <ele>1410</ele>
        <time>2022-07-31T11:31:05Z</time>
      </trkpt>
      <trkpt lat="46.16155" lon="6.66103">
        <ele>1410</ele>
        <time>2022-07-31T11:31:06Z</time>
      </trkpt>
      <trkpt lat="46.16155" lon="6.66105">
        <ele>1410</ele>
        <time>2022-07-31T11:31:07Z</time>
      </trkpt>
      <trkpt lat="46.16155" lon="6.66106">
        <ele>1410</ele>
        <time>2022-07-31T11:31:08Z</time>
      </trkpt>
      <trkpt lat="46.16156" lon="6.66107">
        <ele>1410</ele>
        <time>2022-07-31T11:31:09Z</time>
      </trkpt>
      <trkpt lat="46.16156" lon="6.66109">
        <ele>1410</ele>
        <time>2022-07-31T11:31:10Z</time>
      </trkpt>
      <trkpt lat="46.16156" lon="6.6611">
        <ele>1410</ele>
        <time>2022-07-31T11:31:11Z</time>
      </trkpt>
      <trkpt lat="46.16156" lon="6.66112">
        <ele>1410</ele>
        <time>2022-07-31T11:31:12Z</time>
      </trkpt>
      <trkpt lat="46.16156" lon="6.66114">
        <ele>1410</ele>
        <time>2022-07-31T11:31:13Z</time>
      </trkpt>
      <trkpt lat="46.16156" lon="6.66115">
        <ele>1410</ele>
        <time>2022-07-31T11:31:14Z</time>
      </trkpt>
      <trkpt lat="46.16155" lon="6.66116">
        <ele>1409</ele>
        <time>2022-07-31T11:31:15Z</time>
      </trkpt>
      <trkpt lat="46.16155" lon="6.66118">
        <ele>1409</ele>
        <time>2022-07-31T11:31:16Z</time>
      </trkpt>
      <trkpt lat="46.16154" lon="6.6612">
        <ele>1409</ele>
        <time>2022-07-31T11:31:17Z</time>
      </trkpt>
      <trkpt lat="46.16154" lon="6.66121">
        <ele>1409</ele>
        <time>2022-07-31T11:31:18Z</time>
      </trkpt>
      <trkpt lat="46.16154" lon="6.66123">
        <ele>1408</ele>
        <time>2022-07-31T11:31:19Z</time>
      </trkpt>
      <trkpt lat="46.16154" lon="6.66124">
        <ele>1408</ele>
        <time>2022-07-31T11:31:20Z</time>
      </trkpt>
      <trkpt lat="46.16154" lon="6.66126">
        <ele>1408</ele>
        <time>2022-07-31T11:31:21Z</time>
      </trkpt>
      <trkpt lat="46.16154" lon="6.66128">
        <ele>1408</ele>
        <time>2022-07-31T11:31:22Z</time>
      </trkpt>
      <trkpt lat="46.16155" lon="6.66129">
        <ele>1408</ele>
        <time>2022-07-31T11:31:23Z</time>
      </trkpt>
      <trkpt lat="46.16156" lon="6.6613">
        <ele>1407</ele>
        <time>2022-07-31T11:31:24Z</time>
      </trkpt>
      <trkpt lat="46.16156" lon="6.66132">
        <ele>1407</ele>
        <time>2022-07-31T11:31:25Z</time>
      </trkpt>
      <trkpt lat="46.16156" lon="6.66134">
        <ele>1407</ele>
        <time>2022-07-31T11:31:26Z</time>
      </trkpt>
      <trkpt lat="46.16157" lon="6.66136">
        <ele>1407</ele>
        <time>2022-07-31T11:31:27Z</time>
      </trkpt>
      <trkpt lat="46.16158" lon="6.66139">
        <ele>1407</ele>
        <time>2022-07-31T11:31:28Z</time>
      </trkpt>
      <trkpt lat="46.16159" lon="6.66142">
        <ele>1407</ele>
        <time>2022-07-31T11:31:29Z</time>
      </trkpt>
      <trkpt lat="46.1616" lon="6.66144">
        <ele>1406</ele>
        <time>2022-07-31T11:31:30Z</time>
      </trkpt>
      <trkpt lat="46.16161" lon="6.66146">
        <ele>1406</ele>
        <time>2022-07-31T11:31:31Z</time>
      </trkpt>
      <trkpt lat="46.16162" lon="6.66148">
        <ele>1406</ele>
        <time>2022-07-31T11:31:32Z</time>
      </trkpt>
      <trkpt lat="46.16163" lon="6.66149">
        <ele>1406</ele>
        <time>2022-07-31T11:31:33Z</time>
      </trkpt>
      <trkpt lat="46.16164" lon="6.6615">
        <ele>1406</ele>
        <time>2022-07-31T11:31:34Z</time>
      </trkpt>
      <trkpt lat="46.16165" lon="6.66152">
        <ele>1405</ele>
        <time>2022-07-31T11:31:35Z</time>
      </trkpt>
      <trkpt lat="46.16167" lon="6.66152">
        <ele>1405</ele>
        <time>2022-07-31T11:31:36Z</time>
      </trkpt>
      <trkpt lat="46.16168" lon="6.66154">
        <ele>1405</ele>
        <time>2022-07-31T11:31:37Z</time>
      </trkpt>
      <trkpt lat="46.16169" lon="6.66155">
        <ele>1404</ele>
        <time>2022-07-31T11:31:38Z</time>
      </trkpt>
      <trkpt lat="46.1617" lon="6.66157">
        <ele>1404</ele>
        <time>2022-07-31T11:31:39Z</time>
      </trkpt>
      <trkpt lat="46.16171" lon="6.6616">
        <ele>1404</ele>
        <time>2022-07-31T11:31:40Z</time>
      </trkpt>
      <trkpt lat="46.16172" lon="6.66162">
        <ele>1403</ele>
        <time>2022-07-31T11:31:41Z</time>
      </trkpt>
      <trkpt lat="46.16173" lon="6.66163">
        <ele>1403</ele>
        <time>2022-07-31T11:31:42Z</time>
      </trkpt>
      <trkpt lat="46.16173" lon="6.66164">
        <ele>1403</ele>
        <time>2022-07-31T11:31:43Z</time>
      </trkpt>
      <trkpt lat="46.16175" lon="6.66165">
        <ele>1402</ele>
        <time>2022-07-31T11:31:44Z</time>
      </trkpt>
      <trkpt lat="46.16176" lon="6.66167">
        <ele>1402</ele>
        <time>2022-07-31T11:31:45Z</time>
      </trkpt>
      <trkpt lat="46.16177" lon="6.66168">
        <ele>1402</ele>
        <time>2022-07-31T11:31:46Z</time>
      </trkpt>
      <trkpt lat="46.16178" lon="6.66169">
        <ele>1401</ele>
        <time>2022-07-31T11:31:47Z</time>
      </trkpt>
      <trkpt lat="46.16179" lon="6.66169">
        <ele>1401</ele>
        <time>2022-07-31T11:31:48Z</time>
      </trkpt>
      <trkpt lat="46.1618" lon="6.6617">
        <ele>1401</ele>
        <time>2022-07-31T11:31:49Z</time>
      </trkpt>
      <trkpt lat="46.16181" lon="6.66171">
        <ele>1401</ele>
        <time>2022-07-31T11:31:50Z</time>
      </trkpt>
      <trkpt lat="46.16181" lon="6.66172">
        <ele>1401</ele>
        <time>2022-07-31T11:31:51Z</time>
      </trkpt>
      <trkpt lat="46.16183" lon="6.66173">
        <ele>1401</ele>
        <time>2022-07-31T11:31:52Z</time>
      </trkpt>
      <trkpt lat="46.16183" lon="6.66174">
        <ele>1401</ele>
        <time>2022-07-31T11:31:53Z</time>
      </trkpt>
      <trkpt lat="46.16184" lon="6.66176">
        <ele>1401</ele>
        <time>2022-07-31T11:31:54Z</time>
      </trkpt>
      <trkpt lat="46.16185" lon="6.66177">
        <ele>1401</ele>
        <time>2022-07-31T11:31:55Z</time>
      </trkpt>
      <trkpt lat="46.16186" lon="6.66178">
        <ele>1401</ele>
        <time>2022-07-31T11:31:56Z</time>
      </trkpt>
      <trkpt lat="46.16187" lon="6.66179">
        <ele>1400</ele>
        <time>2022-07-31T11:31:57Z</time>
      </trkpt>
      <trkpt lat="46.16188" lon="6.66181">
        <ele>1400</ele>
        <time>2022-07-31T11:31:58Z</time>
      </trkpt>
      <trkpt lat="46.16188" lon="6.66182">
        <ele>1400</ele>
        <time>2022-07-31T11:31:59Z</time>
      </trkpt>
      <trkpt lat="46.1619" lon="6.66183">
        <ele>1401</ele>
        <time>2022-07-31T11:32:00Z</time>
      </trkpt>
      <trkpt lat="46.16191" lon="6.66185">
        <ele>1401</ele>
        <time>2022-07-31T11:32:01Z</time>
      </trkpt>
      <trkpt lat="46.16192" lon="6.66187">
        <ele>1401</ele>
        <time>2022-07-31T11:32:02Z</time>
      </trkpt>
      <trkpt lat="46.16192" lon="6.66189">
        <ele>1401</ele>
        <time>2022-07-31T11:32:03Z</time>
      </trkpt>
      <trkpt lat="46.16194" lon="6.66189">
        <ele>1401</ele>
        <time>2022-07-31T11:32:04Z</time>
      </trkpt>
      <trkpt lat="46.16195" lon="6.66189">
        <ele>1401</ele>
        <time>2022-07-31T11:32:05Z</time>
      </trkpt>
      <trkpt lat="46.16197" lon="6.6619">
        <ele>1401</ele>
        <time>2022-07-31T11:32:06Z</time>
      </trkpt>
      <trkpt lat="46.16198" lon="6.66191">
        <ele>1401</ele>
        <time>2022-07-31T11:32:07Z</time>
      </trkpt>
      <trkpt lat="46.16199" lon="6.66193">
        <ele>1401</ele>
        <time>2022-07-31T11:32:08Z</time>
      </trkpt>
      <trkpt lat="46.162" lon="6.66193">
        <ele>1401</ele>
        <time>2022-07-31T11:32:09Z</time>
      </trkpt>
      <trkpt lat="46.162" lon="6.66193">
        <ele>1401</ele>
        <time>2022-07-31T11:32:10Z</time>
      </trkpt>
      <trkpt lat="46.16201" lon="6.66194">
        <ele>1402</ele>
        <time>2022-07-31T11:32:11Z</time>
      </trkpt>
      <trkpt lat="46.16201" lon="6.66194">
        <ele>1402</ele>
        <time>2022-07-31T11:32:12Z</time>
      </trkpt>
      <trkpt lat="46.16202" lon="6.66195">
        <ele>1402</ele>
        <time>2022-07-31T11:32:13Z</time>
      </trkpt>
      <trkpt lat="46.16202" lon="6.66195">
        <ele>1402</ele>
        <time>2022-07-31T11:32:14Z</time>
      </trkpt>
      <trkpt lat="46.16203" lon="6.66196">
        <ele>1402</ele>
        <time>2022-07-31T11:32:15Z</time>
      </trkpt>
      <trkpt lat="46.16205" lon="6.66198">
        <ele>1402</ele>
        <time>2022-07-31T11:32:16Z</time>
      </trkpt>
      <trkpt lat="46.16205" lon="6.66199">
        <ele>1402</ele>
        <time>2022-07-31T11:32:17Z</time>
      </trkpt>
      <trkpt lat="46.16206" lon="6.66199">
        <ele>1402</ele>
        <time>2022-07-31T11:32:18Z</time>
      </trkpt>
      <trkpt lat="46.16207" lon="6.66199">
        <ele>1402</ele>
        <time>2022-07-31T11:32:19Z</time>
      </trkpt>
      <trkpt lat="46.16207" lon="6.662">
        <ele>1402</ele>
        <time>2022-07-31T11:32:20Z</time>
      </trkpt>
      <trkpt lat="46.16208" lon="6.66201">
        <ele>1402</ele>
        <time>2022-07-31T11:32:21Z</time>
      </trkpt>
      <trkpt lat="46.16208" lon="6.66201">
        <ele>1402</ele>
        <time>2022-07-31T11:32:22Z</time>
      </trkpt>
      <trkpt lat="46.16209" lon="6.66202">
        <ele>1402</ele>
        <time>2022-07-31T11:32:23Z</time>
      </trkpt>
      <trkpt lat="46.1621" lon="6.66204">
        <ele>1402</ele>
        <time>2022-07-31T11:32:24Z</time>
      </trkpt>
      <trkpt lat="46.1621" lon="6.66206">
        <ele>1402</ele>
        <time>2022-07-31T11:32:25Z</time>
      </trkpt>
      <trkpt lat="46.16212" lon="6.66207">
        <ele>1402</ele>
        <time>2022-07-31T11:32:26Z</time>
      </trkpt>
      <trkpt lat="46.16213" lon="6.66208">
        <ele>1402</ele>
        <time>2022-07-31T11:32:27Z</time>
      </trkpt>
      <trkpt lat="46.16214" lon="6.66209">
        <ele>1402</ele>
        <time>2022-07-31T11:32:28Z</time>
      </trkpt>
      <trkpt lat="46.16214" lon="6.6621">
        <ele>1402</ele>
        <time>2022-07-31T11:32:29Z</time>
      </trkpt>
      <trkpt lat="46.16216" lon="6.66211">
        <ele>1402</ele>
        <time>2022-07-31T11:32:30Z</time>
      </trkpt>
      <trkpt lat="46.16217" lon="6.66213">
        <ele>1402</ele>
        <time>2022-07-31T11:32:31Z</time>
      </trkpt>
      <trkpt lat="46.16217" lon="6.66215">
        <ele>1402</ele>
        <time>2022-07-31T11:32:32Z</time>
      </trkpt>
      <trkpt lat="46.16219" lon="6.66215">
        <ele>1402</ele>
        <time>2022-07-31T11:32:33Z</time>
      </trkpt>
      <trkpt lat="46.16219" lon="6.66215">
        <ele>1402</ele>
        <time>2022-07-31T11:32:34Z</time>
      </trkpt>
      <trkpt lat="46.16219" lon="6.66217">
        <ele>1402</ele>
        <time>2022-07-31T11:32:35Z</time>
      </trkpt>
      <trkpt lat="46.16219" lon="6.66217">
        <ele>1402</ele>
        <time>2022-07-31T11:32:36Z</time>
      </trkpt>
      <trkpt lat="46.16219" lon="6.66217">
        <ele>1402</ele>
        <time>2022-07-31T11:32:37Z</time>
      </trkpt>
      <trkpt lat="46.16219" lon="6.66216">
        <ele>1402</ele>
        <time>2022-07-31T11:32:38Z</time>
      </trkpt>
      <trkpt lat="46.16219" lon="6.66216">
        <ele>1402</ele>
        <time>2022-07-31T11:32:39Z</time>
      </trkpt>
      <trkpt lat="46.16219" lon="6.66216">
        <ele>1402</ele>
        <time>2022-07-31T11:32:40Z</time>
      </trkpt>
      <trkpt lat="46.16219" lon="6.66215">
        <ele>1402</ele>
        <time>2022-07-31T11:32:41Z</time>
      </trkpt>
      <trkpt lat="46.1622" lon="6.66215">
        <ele>1402</ele>
        <time>2022-07-31T11:32:42Z</time>
      </trkpt>
      <trkpt lat="46.1622" lon="6.66215">
        <ele>1402</ele>
        <time>2022-07-31T11:32:43Z</time>
      </trkpt>
      <trkpt lat="46.16219" lon="6.66215">
        <ele>1402</ele>
        <time>2022-07-31T11:32:44Z</time>
      </trkpt>
      <trkpt lat="46.16217" lon="6.66215">
        <ele>1402</ele>
        <time>2022-07-31T11:32:45Z</time>
      </trkpt>
      <trkpt lat="46.16217" lon="6.66215">
        <ele>1402</ele>
        <time>2022-07-31T11:32:46Z</time>
      </trkpt>
      <trkpt lat="46.16216" lon="6.66215">
        <ele>1402</ele>
        <time>2022-07-31T11:32:47Z</time>
      </trkpt>
      <trkpt lat="46.16216" lon="6.66215">
        <ele>1401</ele>
        <time>2022-07-31T11:32:48Z</time>
      </trkpt>
      <trkpt lat="46.16215" lon="6.66215">
        <ele>1401</ele>
        <time>2022-07-31T11:32:49Z</time>
      </trkpt>
      <trkpt lat="46.16216" lon="6.66217">
        <ele>1401</ele>
        <time>2022-07-31T11:32:50Z</time>
      </trkpt>
      <trkpt lat="46.16216" lon="6.66218">
        <ele>1401</ele>
        <time>2022-07-31T11:32:51Z</time>
      </trkpt>
      <trkpt lat="46.16216" lon="6.66218">
        <ele>1401</ele>
        <time>2022-07-31T11:32:52Z</time>
      </trkpt>
      <trkpt lat="46.16216" lon="6.66218">
        <ele>1400</ele>
        <time>2022-07-31T11:32:53Z</time>
      </trkpt>
      <trkpt lat="46.16216" lon="6.66218">
        <ele>1400</ele>
        <time>2022-07-31T11:32:54Z</time>
      </trkpt>
      <trkpt lat="46.16217" lon="6.66218">
        <ele>1400</ele>
        <time>2022-07-31T11:32:55Z</time>
      </trkpt>
      <trkpt lat="46.16217" lon="6.66218">
        <ele>1400</ele>
        <time>2022-07-31T11:32:56Z</time>
      </trkpt>
      <trkpt lat="46.16219" lon="6.66217">
        <ele>1400</ele>
        <time>2022-07-31T11:32:57Z</time>
      </trkpt>
      <trkpt lat="46.16219" lon="6.66215">
        <ele>1400</ele>
        <time>2022-07-31T11:32:58Z</time>
      </trkpt>
      <trkpt lat="46.16219" lon="6.66216">
        <ele>1401</ele>
        <time>2022-07-31T11:32:59Z</time>
      </trkpt>
      <trkpt lat="46.16217" lon="6.66215">
        <ele>1401</ele>
        <time>2022-07-31T11:33:00Z</time>
      </trkpt>
      <trkpt lat="46.16217" lon="6.66215">
        <ele>1401</ele>
        <time>2022-07-31T11:33:01Z</time>
      </trkpt>
      <trkpt lat="46.16217" lon="6.66215">
        <ele>1401</ele>
        <time>2022-07-31T11:33:02Z</time>
      </trkpt>
      <trkpt lat="46.16217" lon="6.66215">
        <ele>1401</ele>
        <time>2022-07-31T11:33:03Z</time>
      </trkpt>
      <trkpt lat="46.16217" lon="6.66215">
        <ele>1401</ele>
        <time>2022-07-31T11:33:04Z</time>
      </trkpt>
      <trkpt lat="46.16219" lon="6.66214">
        <ele>1401</ele>
        <time>2022-07-31T11:33:05Z</time>
      </trkpt>
      <trkpt lat="46.16219" lon="6.66215">
        <ele>1401</ele>
        <time>2022-07-31T11:33:06Z</time>
      </trkpt>
      <trkpt lat="46.16219" lon="6.66216">
        <ele>1401</ele>
        <time>2022-07-31T11:33:07Z</time>
      </trkpt>
      <trkpt lat="46.1622" lon="6.66216">
        <ele>1401</ele>
        <time>2022-07-31T11:33:08Z</time>
      </trkpt>
      <trkpt lat="46.16221" lon="6.66217">
        <ele>1401</ele>
        <time>2022-07-31T11:33:09Z</time>
      </trkpt>
      <trkpt lat="46.16222" lon="6.66219">
        <ele>1401</ele>
        <time>2022-07-31T11:33:10Z</time>
      </trkpt>
      <trkpt lat="46.16222" lon="6.6622">
        <ele>1401</ele>
        <time>2022-07-31T11:33:11Z</time>
      </trkpt>
      <trkpt lat="46.16223" lon="6.66221">
        <ele>1401</ele>
        <time>2022-07-31T11:33:12Z</time>
      </trkpt>
      <trkpt lat="46.16223" lon="6.6622">
        <ele>1402</ele>
        <time>2022-07-31T11:33:13Z</time>
      </trkpt>
      <trkpt lat="46.16223" lon="6.6622">
        <ele>1402</ele>
        <time>2022-07-31T11:33:14Z</time>
      </trkpt>
      <trkpt lat="46.16223" lon="6.66222">
        <ele>1402</ele>
        <time>2022-07-31T11:33:15Z</time>
      </trkpt>
      <trkpt lat="46.16223" lon="6.66223">
        <ele>1402</ele>
        <time>2022-07-31T11:33:16Z</time>
      </trkpt>
      <trkpt lat="46.16224" lon="6.66224">
        <ele>1402</ele>
        <time>2022-07-31T11:33:17Z</time>
      </trkpt>
      <trkpt lat="46.16224" lon="6.66225">
        <ele>1402</ele>
        <time>2022-07-31T11:33:18Z</time>
      </trkpt>
      <trkpt lat="46.16225" lon="6.66225">
        <ele>1402</ele>
        <time>2022-07-31T11:33:19Z</time>
      </trkpt>
      <trkpt lat="46.16225" lon="6.66226">
        <ele>1402</ele>
        <time>2022-07-31T11:33:20Z</time>
      </trkpt>
      <trkpt lat="46.16226" lon="6.66227">
        <ele>1402</ele>
        <time>2022-07-31T11:33:21Z</time>
      </trkpt>
      <trkpt lat="46.16228" lon="6.66228">
        <ele>1402</ele>
        <time>2022-07-31T11:33:22Z</time>
      </trkpt>
      <trkpt lat="46.16228" lon="6.6623">
        <ele>1402</ele>
        <time>2022-07-31T11:33:23Z</time>
      </trkpt>
      <trkpt lat="46.16229" lon="6.6623">
        <ele>1402</ele>
        <time>2022-07-31T11:33:24Z</time>
      </trkpt>
      <trkpt lat="46.16229" lon="6.66231">
        <ele>1402</ele>
        <time>2022-07-31T11:33:25Z</time>
      </trkpt>
      <trkpt lat="46.1623" lon="6.66232">
        <ele>1402</ele>
        <time>2022-07-31T11:33:26Z</time>
      </trkpt>
      <trkpt lat="46.1623" lon="6.66232">
        <ele>1403</ele>
        <time>2022-07-31T11:33:27Z</time>
      </trkpt>
      <trkpt lat="46.1623" lon="6.66232">
        <ele>1403</ele>
        <time>2022-07-31T11:33:28Z</time>
      </trkpt>
      <trkpt lat="46.16231" lon="6.66233">
        <ele>1403</ele>
        <time>2022-07-31T11:33:29Z</time>
      </trkpt>
      <trkpt lat="46.16231" lon="6.66233">
        <ele>1403</ele>
        <time>2022-07-31T11:33:30Z</time>
      </trkpt>
      <trkpt lat="46.16232" lon="6.66234">
        <ele>1403</ele>
        <time>2022-07-31T11:33:31Z</time>
      </trkpt>
      <trkpt lat="46.16233" lon="6.66235">
        <ele>1403</ele>
        <time>2022-07-31T11:33:32Z</time>
      </trkpt>
      <trkpt lat="46.16234" lon="6.66236">
        <ele>1403</ele>
        <time>2022-07-31T11:33:33Z</time>
      </trkpt>
      <trkpt lat="46.16234" lon="6.66237">
        <ele>1403</ele>
        <time>2022-07-31T11:33:34Z</time>
      </trkpt>
      <trkpt lat="46.16236" lon="6.66238">
        <ele>1404</ele>
        <time>2022-07-31T11:33:35Z</time>
      </trkpt>
      <trkpt lat="46.16236" lon="6.66238">
        <ele>1404</ele>
        <time>2022-07-31T11:33:36Z</time>
      </trkpt>
      <trkpt lat="46.16237" lon="6.66238">
        <ele>1404</ele>
        <time>2022-07-31T11:33:37Z</time>
      </trkpt>
      <trkpt lat="46.16237" lon="6.66238">
        <ele>1404</ele>
        <time>2022-07-31T11:33:38Z</time>
      </trkpt>
      <trkpt lat="46.16238" lon="6.66238">
        <ele>1404</ele>
        <time>2022-07-31T11:33:39Z</time>
      </trkpt>
      <trkpt lat="46.16239" lon="6.66239">
        <ele>1404</ele>
        <time>2022-07-31T11:33:40Z</time>
      </trkpt>
      <trkpt lat="46.16239" lon="6.66241">
        <ele>1404</ele>
        <time>2022-07-31T11:33:41Z</time>
      </trkpt>
      <trkpt lat="46.16241" lon="6.66241">
        <ele>1404</ele>
        <time>2022-07-31T11:33:42Z</time>
      </trkpt>
      <trkpt lat="46.16242" lon="6.66241">
        <ele>1404</ele>
        <time>2022-07-31T11:33:43Z</time>
      </trkpt>
      <trkpt lat="46.16244" lon="6.6624">
        <ele>1404</ele>
        <time>2022-07-31T11:33:44Z</time>
      </trkpt>
      <trkpt lat="46.16245" lon="6.6624">
        <ele>1405</ele>
        <time>2022-07-31T11:33:45Z</time>
      </trkpt>
      <trkpt lat="46.16246" lon="6.6624">
        <ele>1405</ele>
        <time>2022-07-31T11:33:46Z</time>
      </trkpt>
      <trkpt lat="46.16248" lon="6.6624">
        <ele>1405</ele>
        <time>2022-07-31T11:33:47Z</time>
      </trkpt>
      <trkpt lat="46.1625" lon="6.66239">
        <ele>1405</ele>
        <time>2022-07-31T11:33:48Z</time>
      </trkpt>
      <trkpt lat="46.16251" lon="6.66239">
        <ele>1405</ele>
        <time>2022-07-31T11:33:49Z</time>
      </trkpt>
      <trkpt lat="46.16252" lon="6.66239">
        <ele>1405</ele>
        <time>2022-07-31T11:33:50Z</time>
      </trkpt>
      <trkpt lat="46.16254" lon="6.66241">
        <ele>1405</ele>
        <time>2022-07-31T11:33:51Z</time>
      </trkpt>
      <trkpt lat="46.16254" lon="6.66241">
        <ele>1406</ele>
        <time>2022-07-31T11:33:52Z</time>
      </trkpt>
      <trkpt lat="46.16256" lon="6.66242">
        <ele>1406</ele>
        <time>2022-07-31T11:33:53Z</time>
      </trkpt>
      <trkpt lat="46.16257" lon="6.66243">
        <ele>1406</ele>
        <time>2022-07-31T11:33:54Z</time>
      </trkpt>
      <trkpt lat="46.16258" lon="6.66244">
        <ele>1406</ele>
        <time>2022-07-31T11:33:55Z</time>
      </trkpt>
      <trkpt lat="46.16259" lon="6.66244">
        <ele>1406</ele>
        <time>2022-07-31T11:33:56Z</time>
      </trkpt>
      <trkpt lat="46.1626" lon="6.66243">
        <ele>1406</ele>
        <time>2022-07-31T11:33:57Z</time>
      </trkpt>
      <trkpt lat="46.16261" lon="6.66243">
        <ele>1406</ele>
        <time>2022-07-31T11:33:58Z</time>
      </trkpt>
      <trkpt lat="46.16261" lon="6.66243">
        <ele>1406</ele>
        <time>2022-07-31T11:33:59Z</time>
      </trkpt>
      <trkpt lat="46.16262" lon="6.66244">
        <ele>1406</ele>
        <time>2022-07-31T11:34:00Z</time>
      </trkpt>
      <trkpt lat="46.16264" lon="6.66245">
        <ele>1406</ele>
        <time>2022-07-31T11:34:01Z</time>
      </trkpt>
      <trkpt lat="46.16264" lon="6.66246">
        <ele>1406</ele>
        <time>2022-07-31T11:34:02Z</time>
      </trkpt>
      <trkpt lat="46.16265" lon="6.66248">
        <ele>1406</ele>
        <time>2022-07-31T11:34:03Z</time>
      </trkpt>
      <trkpt lat="46.16265" lon="6.66249">
        <ele>1406</ele>
        <time>2022-07-31T11:34:04Z</time>
      </trkpt>
      <trkpt lat="46.16266" lon="6.66249">
        <ele>1406</ele>
        <time>2022-07-31T11:34:05Z</time>
      </trkpt>
      <trkpt lat="46.16267" lon="6.6625">
        <ele>1406</ele>
        <time>2022-07-31T11:34:06Z</time>
      </trkpt>
      <trkpt lat="46.16268" lon="6.66251">
        <ele>1406</ele>
        <time>2022-07-31T11:34:07Z</time>
      </trkpt>
      <trkpt lat="46.16269" lon="6.66252">
        <ele>1406</ele>
        <time>2022-07-31T11:34:08Z</time>
      </trkpt>
      <trkpt lat="46.1627" lon="6.66252">
        <ele>1406</ele>
        <time>2022-07-31T11:34:09Z</time>
      </trkpt>
      <trkpt lat="46.1627" lon="6.66253">
        <ele>1406</ele>
        <time>2022-07-31T11:34:10Z</time>
      </trkpt>
      <trkpt lat="46.1627" lon="6.66254">
        <ele>1406</ele>
        <time>2022-07-31T11:34:11Z</time>
      </trkpt>
      <trkpt lat="46.16271" lon="6.66254">
        <ele>1406</ele>
        <time>2022-07-31T11:34:12Z</time>
      </trkpt>
      <trkpt lat="46.16271" lon="6.66255">
        <ele>1406</ele>
        <time>2022-07-31T11:34:13Z</time>
      </trkpt>
      <trkpt lat="46.16271" lon="6.66255">
        <ele>1406</ele>
        <time>2022-07-31T11:34:14Z</time>
      </trkpt>
      <trkpt lat="46.16272" lon="6.66255">
        <ele>1406</ele>
        <time>2022-07-31T11:34:15Z</time>
      </trkpt>
      <trkpt lat="46.16273" lon="6.66255">
        <ele>1406</ele>
        <time>2022-07-31T11:34:16Z</time>
      </trkpt>
      <trkpt lat="46.16273" lon="6.66257">
        <ele>1406</ele>
        <time>2022-07-31T11:34:17Z</time>
      </trkpt>
      <trkpt lat="46.16274" lon="6.66258">
        <ele>1406</ele>
        <time>2022-07-31T11:34:18Z</time>
      </trkpt>
      <trkpt lat="46.16274" lon="6.66258">
        <ele>1406</ele>
        <time>2022-07-31T11:34:19Z</time>
      </trkpt>
      <trkpt lat="46.16275" lon="6.66259">
        <ele>1406</ele>
        <time>2022-07-31T11:34:20Z</time>
      </trkpt>
      <trkpt lat="46.16276" lon="6.6626">
        <ele>1406</ele>
        <time>2022-07-31T11:34:21Z</time>
      </trkpt>
      <trkpt lat="46.16276" lon="6.66261">
        <ele>1406</ele>
        <time>2022-07-31T11:34:22Z</time>
      </trkpt>
      <trkpt lat="46.16276" lon="6.66262">
        <ele>1406</ele>
        <time>2022-07-31T11:34:23Z</time>
      </trkpt>
      <trkpt lat="46.16276" lon="6.66262">
        <ele>1406</ele>
        <time>2022-07-31T11:34:24Z</time>
      </trkpt>
      <trkpt lat="46.16278" lon="6.66264">
        <ele>1406</ele>
        <time>2022-07-31T11:34:25Z</time>
      </trkpt>
      <trkpt lat="46.16278" lon="6.66264">
        <ele>1406</ele>
        <time>2022-07-31T11:34:26Z</time>
      </trkpt>
      <trkpt lat="46.16279" lon="6.66266">
        <ele>1406</ele>
        <time>2022-07-31T11:34:27Z</time>
      </trkpt>
      <trkpt lat="46.1628" lon="6.66267">
        <ele>1406</ele>
        <time>2022-07-31T11:34:28Z</time>
      </trkpt>
      <trkpt lat="46.1628" lon="6.66268">
        <ele>1406</ele>
        <time>2022-07-31T11:34:29Z</time>
      </trkpt>
      <trkpt lat="46.16281" lon="6.66268">
        <ele>1406</ele>
        <time>2022-07-31T11:34:30Z</time>
      </trkpt>
      <trkpt lat="46.16281" lon="6.66269">
        <ele>1406</ele>
        <time>2022-07-31T11:34:31Z</time>
      </trkpt>
      <trkpt lat="46.16282" lon="6.6627">
        <ele>1406</ele>
        <time>2022-07-31T11:34:32Z</time>
      </trkpt>
      <trkpt lat="46.16283" lon="6.66272">
        <ele>1406</ele>
        <time>2022-07-31T11:34:33Z</time>
      </trkpt>
      <trkpt lat="46.16283" lon="6.66273">
        <ele>1406</ele>
        <time>2022-07-31T11:34:34Z</time>
      </trkpt>
      <trkpt lat="46.16284" lon="6.66275">
        <ele>1406</ele>
        <time>2022-07-31T11:34:35Z</time>
      </trkpt>
      <trkpt lat="46.16285" lon="6.66277">
        <ele>1406</ele>
        <time>2022-07-31T11:34:36Z</time>
      </trkpt>
      <trkpt lat="46.16286" lon="6.66278">
        <ele>1406</ele>
        <time>2022-07-31T11:34:37Z</time>
      </trkpt>
      <trkpt lat="46.16287" lon="6.66279">
        <ele>1406</ele>
        <time>2022-07-31T11:34:38Z</time>
      </trkpt>
      <trkpt lat="46.16287" lon="6.6628">
        <ele>1406</ele>
        <time>2022-07-31T11:34:39Z</time>
      </trkpt>
      <trkpt lat="46.16287" lon="6.66281">
        <ele>1406</ele>
        <time>2022-07-31T11:34:40Z</time>
      </trkpt>
      <trkpt lat="46.16287" lon="6.66283">
        <ele>1407</ele>
        <time>2022-07-31T11:34:41Z</time>
      </trkpt>
      <trkpt lat="46.16288" lon="6.66284">
        <ele>1407</ele>
        <time>2022-07-31T11:34:42Z</time>
      </trkpt>
      <trkpt lat="46.16288" lon="6.66286">
        <ele>1407</ele>
        <time>2022-07-31T11:34:43Z</time>
      </trkpt>
      <trkpt lat="46.16289" lon="6.66288">
        <ele>1407</ele>
        <time>2022-07-31T11:34:44Z</time>
      </trkpt>
      <trkpt lat="46.16289" lon="6.66289">
        <ele>1407</ele>
        <time>2022-07-31T11:34:45Z</time>
      </trkpt>
      <trkpt lat="46.1629" lon="6.66291">
        <ele>1407</ele>
        <time>2022-07-31T11:34:46Z</time>
      </trkpt>
      <trkpt lat="46.1629" lon="6.66292">
        <ele>1407</ele>
        <time>2022-07-31T11:34:47Z</time>
      </trkpt>
      <trkpt lat="46.16291" lon="6.66292">
        <ele>1407</ele>
        <time>2022-07-31T11:34:48Z</time>
      </trkpt>
      <trkpt lat="46.16291" lon="6.66293">
        <ele>1407</ele>
        <time>2022-07-31T11:34:49Z</time>
      </trkpt>
      <trkpt lat="46.16291" lon="6.66294">
        <ele>1407</ele>
        <time>2022-07-31T11:34:50Z</time>
      </trkpt>
      <trkpt lat="46.16293" lon="6.66296">
        <ele>1407</ele>
        <time>2022-07-31T11:34:51Z</time>
      </trkpt>
      <trkpt lat="46.16293" lon="6.66298">
        <ele>1407</ele>
        <time>2022-07-31T11:34:52Z</time>
      </trkpt>
      <trkpt lat="46.16293" lon="6.663">
        <ele>1407</ele>
        <time>2022-07-31T11:34:53Z</time>
      </trkpt>
      <trkpt lat="46.16294" lon="6.66301">
        <ele>1407</ele>
        <time>2022-07-31T11:34:54Z</time>
      </trkpt>
      <trkpt lat="46.16294" lon="6.66303">
        <ele>1408</ele>
        <time>2022-07-31T11:34:55Z</time>
      </trkpt>
      <trkpt lat="46.16295" lon="6.66304">
        <ele>1408</ele>
        <time>2022-07-31T11:34:56Z</time>
      </trkpt>
      <trkpt lat="46.16296" lon="6.66306">
        <ele>1408</ele>
        <time>2022-07-31T11:34:57Z</time>
      </trkpt>
      <trkpt lat="46.16297" lon="6.66307">
        <ele>1408</ele>
        <time>2022-07-31T11:34:58Z</time>
      </trkpt>
      <trkpt lat="46.16298" lon="6.66307">
        <ele>1408</ele>
        <time>2022-07-31T11:34:59Z</time>
      </trkpt>
      <trkpt lat="46.16299" lon="6.66309">
        <ele>1408</ele>
        <time>2022-07-31T11:35:00Z</time>
      </trkpt>
      <trkpt lat="46.163" lon="6.66311">
        <ele>1408</ele>
        <time>2022-07-31T11:35:01Z</time>
      </trkpt>
      <trkpt lat="46.16301" lon="6.66312">
        <ele>1408</ele>
        <time>2022-07-31T11:35:02Z</time>
      </trkpt>
      <trkpt lat="46.16302" lon="6.66314">
        <ele>1408</ele>
        <time>2022-07-31T11:35:03Z</time>
      </trkpt>
      <trkpt lat="46.16303" lon="6.66316">
        <ele>1408</ele>
        <time>2022-07-31T11:35:04Z</time>
      </trkpt>
      <trkpt lat="46.16303" lon="6.66319">
        <ele>1408</ele>
        <time>2022-07-31T11:35:05Z</time>
      </trkpt>
      <trkpt lat="46.16304" lon="6.66322">
        <ele>1408</ele>
        <time>2022-07-31T11:35:06Z</time>
      </trkpt>
      <trkpt lat="46.16305" lon="6.66324">
        <ele>1408</ele>
        <time>2022-07-31T11:35:07Z</time>
      </trkpt>
      <trkpt lat="46.16305" lon="6.66325">
        <ele>1408</ele>
        <time>2022-07-31T11:35:08Z</time>
      </trkpt>
      <trkpt lat="46.16306" lon="6.66327">
        <ele>1408</ele>
        <time>2022-07-31T11:35:09Z</time>
      </trkpt>
      <trkpt lat="46.16306" lon="6.66329">
        <ele>1408</ele>
        <time>2022-07-31T11:35:10Z</time>
      </trkpt>
      <trkpt lat="46.16307" lon="6.6633">
        <ele>1408</ele>
        <time>2022-07-31T11:35:11Z</time>
      </trkpt>
      <trkpt lat="46.16308" lon="6.6633">
        <ele>1408</ele>
        <time>2022-07-31T11:35:12Z</time>
      </trkpt>
      <trkpt lat="46.16308" lon="6.66331">
        <ele>1408</ele>
        <time>2022-07-31T11:35:13Z</time>
      </trkpt>
      <trkpt lat="46.1631" lon="6.66332">
        <ele>1408</ele>
        <time>2022-07-31T11:35:14Z</time>
      </trkpt>
      <trkpt lat="46.16311" lon="6.66334">
        <ele>1408</ele>
        <time>2022-07-31T11:35:15Z</time>
      </trkpt>
      <trkpt lat="46.16312" lon="6.66336">
        <ele>1408</ele>
        <time>2022-07-31T11:35:16Z</time>
      </trkpt>
      <trkpt lat="46.16312" lon="6.66339">
        <ele>1408</ele>
        <time>2022-07-31T11:35:17Z</time>
      </trkpt>
      <trkpt lat="46.16312" lon="6.66339">
        <ele>1408</ele>
        <time>2022-07-31T11:35:18Z</time>
      </trkpt>
      <trkpt lat="46.16312" lon="6.6634">
        <ele>1409</ele>
        <time>2022-07-31T11:35:19Z</time>
      </trkpt>
      <trkpt lat="46.16313" lon="6.66343">
        <ele>1409</ele>
        <time>2022-07-31T11:35:20Z</time>
      </trkpt>
      <trkpt lat="46.16315" lon="6.66345">
        <ele>1409</ele>
        <time>2022-07-31T11:35:21Z</time>
      </trkpt>
      <trkpt lat="46.16315" lon="6.66346">
        <ele>1409</ele>
        <time>2022-07-31T11:35:22Z</time>
      </trkpt>
      <trkpt lat="46.16316" lon="6.66347">
        <ele>1409</ele>
        <time>2022-07-31T11:35:23Z</time>
      </trkpt>
      <trkpt lat="46.16316" lon="6.66348">
        <ele>1409</ele>
        <time>2022-07-31T11:35:24Z</time>
      </trkpt>
      <trkpt lat="46.16317" lon="6.66349">
        <ele>1409</ele>
        <time>2022-07-31T11:35:25Z</time>
      </trkpt>
      <trkpt lat="46.16318" lon="6.66351">
        <ele>1409</ele>
        <time>2022-07-31T11:35:26Z</time>
      </trkpt>
      <trkpt lat="46.16319" lon="6.66352">
        <ele>1409</ele>
        <time>2022-07-31T11:35:27Z</time>
      </trkpt>
      <trkpt lat="46.16319" lon="6.66353">
        <ele>1409</ele>
        <time>2022-07-31T11:35:28Z</time>
      </trkpt>
      <trkpt lat="46.1632" lon="6.66355">
        <ele>1410</ele>
        <time>2022-07-31T11:35:29Z</time>
      </trkpt>
      <trkpt lat="46.16321" lon="6.66356">
        <ele>1410</ele>
        <time>2022-07-31T11:35:30Z</time>
      </trkpt>
      <trkpt lat="46.16322" lon="6.66358">
        <ele>1410</ele>
        <time>2022-07-31T11:35:31Z</time>
      </trkpt>
      <trkpt lat="46.16322" lon="6.6636">
        <ele>1410</ele>
        <time>2022-07-31T11:35:32Z</time>
      </trkpt>
      <trkpt lat="46.16323" lon="6.66361">
        <ele>1410</ele>
        <time>2022-07-31T11:35:33Z</time>
      </trkpt>
      <trkpt lat="46.16324" lon="6.66361">
        <ele>1410</ele>
        <time>2022-07-31T11:35:34Z</time>
      </trkpt>
      <trkpt lat="46.16325" lon="6.66361">
        <ele>1410</ele>
        <time>2022-07-31T11:35:35Z</time>
      </trkpt>
      <trkpt lat="46.16327" lon="6.66362">
        <ele>1410</ele>
        <time>2022-07-31T11:35:36Z</time>
      </trkpt>
      <trkpt lat="46.16328" lon="6.66363">
        <ele>1410</ele>
        <time>2022-07-31T11:35:37Z</time>
      </trkpt>
      <trkpt lat="46.16329" lon="6.66364">
        <ele>1409</ele>
        <time>2022-07-31T11:35:38Z</time>
      </trkpt>
      <trkpt lat="46.16329" lon="6.66364">
        <ele>1409</ele>
        <time>2022-07-31T11:35:39Z</time>
      </trkpt>
      <trkpt lat="46.1633" lon="6.66364">
        <ele>1409</ele>
        <time>2022-07-31T11:35:40Z</time>
      </trkpt>
      <trkpt lat="46.1633" lon="6.66365">
        <ele>1409</ele>
        <time>2022-07-31T11:35:41Z</time>
      </trkpt>
      <trkpt lat="46.16331" lon="6.66366">
        <ele>1409</ele>
        <time>2022-07-31T11:35:42Z</time>
      </trkpt>
      <trkpt lat="46.16332" lon="6.66366">
        <ele>1409</ele>
        <time>2022-07-31T11:35:43Z</time>
      </trkpt>
      <trkpt lat="46.16333" lon="6.66367">
        <ele>1409</ele>
        <time>2022-07-31T11:35:44Z</time>
      </trkpt>
      <trkpt lat="46.16334" lon="6.66368">
        <ele>1409</ele>
        <time>2022-07-31T11:35:45Z</time>
      </trkpt>
      <trkpt lat="46.16334" lon="6.66368">
        <ele>1409</ele>
        <time>2022-07-31T11:35:46Z</time>
      </trkpt>
      <trkpt lat="46.16335" lon="6.66369">
        <ele>1409</ele>
        <time>2022-07-31T11:35:47Z</time>
      </trkpt>
      <trkpt lat="46.16337" lon="6.6637">
        <ele>1409</ele>
        <time>2022-07-31T11:35:48Z</time>
      </trkpt>
      <trkpt lat="46.16338" lon="6.66372">
        <ele>1409</ele>
        <time>2022-07-31T11:35:49Z</time>
      </trkpt>
      <trkpt lat="46.16339" lon="6.66373">
        <ele>1409</ele>
        <time>2022-07-31T11:35:50Z</time>
      </trkpt>
      <trkpt lat="46.1634" lon="6.66375">
        <ele>1409</ele>
        <time>2022-07-31T11:35:51Z</time>
      </trkpt>
      <trkpt lat="46.1634" lon="6.66376">
        <ele>1409</ele>
        <time>2022-07-31T11:35:52Z</time>
      </trkpt>
      <trkpt lat="46.1634" lon="6.66377">
        <ele>1409</ele>
        <time>2022-07-31T11:35:53Z</time>
      </trkpt>
      <trkpt lat="46.16341" lon="6.66378">
        <ele>1408</ele>
        <time>2022-07-31T11:35:54Z</time>
      </trkpt>
      <trkpt lat="46.16342" lon="6.66379">
        <ele>1408</ele>
        <time>2022-07-31T11:35:55Z</time>
      </trkpt>
      <trkpt lat="46.16342" lon="6.6638">
        <ele>1408</ele>
        <time>2022-07-31T11:35:56Z</time>
      </trkpt>
      <trkpt lat="46.16343" lon="6.6638">
        <ele>1408</ele>
        <time>2022-07-31T11:35:57Z</time>
      </trkpt>
      <trkpt lat="46.16344" lon="6.66381">
        <ele>1408</ele>
        <time>2022-07-31T11:35:58Z</time>
      </trkpt>
      <trkpt lat="46.16345" lon="6.66383">
        <ele>1408</ele>
        <time>2022-07-31T11:35:59Z</time>
      </trkpt>
      <trkpt lat="46.16346" lon="6.66383">
        <ele>1408</ele>
        <time>2022-07-31T11:36:00Z</time>
      </trkpt>
      <trkpt lat="46.16347" lon="6.66384">
        <ele>1408</ele>
        <time>2022-07-31T11:36:01Z</time>
      </trkpt>
      <trkpt lat="46.16348" lon="6.66385">
        <ele>1408</ele>
        <time>2022-07-31T11:36:02Z</time>
      </trkpt>
      <trkpt lat="46.16348" lon="6.66386">
        <ele>1408</ele>
        <time>2022-07-31T11:36:03Z</time>
      </trkpt>
      <trkpt lat="46.16349" lon="6.66388">
        <ele>1408</ele>
        <time>2022-07-31T11:36:04Z</time>
      </trkpt>
      <trkpt lat="46.16349" lon="6.66388">
        <ele>1408</ele>
        <time>2022-07-31T11:36:05Z</time>
      </trkpt>
      <trkpt lat="46.1635" lon="6.66388">
        <ele>1408</ele>
        <time>2022-07-31T11:36:06Z</time>
      </trkpt>
      <trkpt lat="46.16352" lon="6.66388">
        <ele>1408</ele>
        <time>2022-07-31T11:36:07Z</time>
      </trkpt>
      <trkpt lat="46.16352" lon="6.6639">
        <ele>1408</ele>
        <time>2022-07-31T11:36:08Z</time>
      </trkpt>
      <trkpt lat="46.16353" lon="6.6639">
        <ele>1408</ele>
        <time>2022-07-31T11:36:09Z</time>
      </trkpt>
      <trkpt lat="46.16355" lon="6.66391">
        <ele>1408</ele>
        <time>2022-07-31T11:36:10Z</time>
      </trkpt>
      <trkpt lat="46.16356" lon="6.66392">
        <ele>1408</ele>
        <time>2022-07-31T11:36:11Z</time>
      </trkpt>
      <trkpt lat="46.16357" lon="6.66393">
        <ele>1408</ele>
        <time>2022-07-31T11:36:12Z</time>
      </trkpt>
      <trkpt lat="46.16359" lon="6.66395">
        <ele>1408</ele>
        <time>2022-07-31T11:36:13Z</time>
      </trkpt>
      <trkpt lat="46.1636" lon="6.66396">
        <ele>1407</ele>
        <time>2022-07-31T11:36:14Z</time>
      </trkpt>
      <trkpt lat="46.16361" lon="6.66397">
        <ele>1407</ele>
        <time>2022-07-31T11:36:15Z</time>
      </trkpt>
      <trkpt lat="46.16362" lon="6.66399">
        <ele>1407</ele>
        <time>2022-07-31T11:36:16Z</time>
      </trkpt>
      <trkpt lat="46.16364" lon="6.664">
        <ele>1407</ele>
        <time>2022-07-31T11:36:17Z</time>
      </trkpt>
      <trkpt lat="46.16365" lon="6.66402">
        <ele>1406</ele>
        <time>2022-07-31T11:36:18Z</time>
      </trkpt>
      <trkpt lat="46.16368" lon="6.66404">
        <ele>1406</ele>
        <time>2022-07-31T11:36:19Z</time>
      </trkpt>
      <trkpt lat="46.16369" lon="6.66406">
        <ele>1406</ele>
        <time>2022-07-31T11:36:20Z</time>
      </trkpt>
      <trkpt lat="46.16371" lon="6.66407">
        <ele>1405</ele>
        <time>2022-07-31T11:36:21Z</time>
      </trkpt>
      <trkpt lat="46.16371" lon="6.66408">
        <ele>1405</ele>
        <time>2022-07-31T11:36:22Z</time>
      </trkpt>
      <trkpt lat="46.16373" lon="6.66409">
        <ele>1405</ele>
        <time>2022-07-31T11:36:23Z</time>
      </trkpt>
      <trkpt lat="46.16374" lon="6.6641">
        <ele>1405</ele>
        <time>2022-07-31T11:36:24Z</time>
      </trkpt>
      <trkpt lat="46.16376" lon="6.66411">
        <ele>1404</ele>
        <time>2022-07-31T11:36:25Z</time>
      </trkpt>
      <trkpt lat="46.16377" lon="6.66413">
        <ele>1404</ele>
        <time>2022-07-31T11:36:26Z</time>
      </trkpt>
      <trkpt lat="46.16378" lon="6.66414">
        <ele>1404</ele>
        <time>2022-07-31T11:36:27Z</time>
      </trkpt>
      <trkpt lat="46.16379" lon="6.66414">
        <ele>1404</ele>
        <time>2022-07-31T11:36:28Z</time>
      </trkpt>
      <trkpt lat="46.16379" lon="6.66414">
        <ele>1404</ele>
        <time>2022-07-31T11:36:29Z</time>
      </trkpt>
      <trkpt lat="46.1638" lon="6.66415">
        <ele>1404</ele>
        <time>2022-07-31T11:36:30Z</time>
      </trkpt>
      <trkpt lat="46.16381" lon="6.66415">
        <ele>1404</ele>
        <time>2022-07-31T11:36:31Z</time>
      </trkpt>
      <trkpt lat="46.16381" lon="6.66416">
        <ele>1403</ele>
        <time>2022-07-31T11:36:32Z</time>
      </trkpt>
      <trkpt lat="46.16382" lon="6.66416">
        <ele>1403</ele>
        <time>2022-07-31T11:36:33Z</time>
      </trkpt>
      <trkpt lat="46.16382" lon="6.66416">
        <ele>1403</ele>
        <time>2022-07-31T11:36:34Z</time>
      </trkpt>
      <trkpt lat="46.16382" lon="6.66415">
        <ele>1403</ele>
        <time>2022-07-31T11:36:35Z</time>
      </trkpt>
      <trkpt lat="46.16382" lon="6.66415">
        <ele>1403</ele>
        <time>2022-07-31T11:36:36Z</time>
      </trkpt>
      <trkpt lat="46.16382" lon="6.66416">
        <ele>1403</ele>
        <time>2022-07-31T11:36:37Z</time>
      </trkpt>
      <trkpt lat="46.16382" lon="6.66416">
        <ele>1403</ele>
        <time>2022-07-31T11:36:38Z</time>
      </trkpt>
      <trkpt lat="46.16382" lon="6.66417">
        <ele>1403</ele>
        <time>2022-07-31T11:36:39Z</time>
      </trkpt>
      <trkpt lat="46.16382" lon="6.66417">
        <ele>1403</ele>
        <time>2022-07-31T11:36:40Z</time>
      </trkpt>
      <trkpt lat="46.16384" lon="6.66418">
        <ele>1403</ele>
        <time>2022-07-31T11:36:41Z</time>
      </trkpt>
      <trkpt lat="46.16384" lon="6.66418">
        <ele>1403</ele>
        <time>2022-07-31T11:36:42Z</time>
      </trkpt>
      <trkpt lat="46.16384" lon="6.66419">
        <ele>1403</ele>
        <time>2022-07-31T11:36:43Z</time>
      </trkpt>
      <trkpt lat="46.16385" lon="6.66419">
        <ele>1403</ele>
        <time>2022-07-31T11:36:44Z</time>
      </trkpt>
      <trkpt lat="46.16386" lon="6.66419">
        <ele>1403</ele>
        <time>2022-07-31T11:36:45Z</time>
      </trkpt>
      <trkpt lat="46.16386" lon="6.66419">
        <ele>1403</ele>
        <time>2022-07-31T11:36:46Z</time>
      </trkpt>
      <trkpt lat="46.16386" lon="6.6642">
        <ele>1403</ele>
        <time>2022-07-31T11:36:47Z</time>
      </trkpt>
      <trkpt lat="46.16386" lon="6.6642">
        <ele>1403</ele>
        <time>2022-07-31T11:36:48Z</time>
      </trkpt>
      <trkpt lat="46.16387" lon="6.66421">
        <ele>1403</ele>
        <time>2022-07-31T11:36:49Z</time>
      </trkpt>
      <trkpt lat="46.16388" lon="6.6642">
        <ele>1403</ele>
        <time>2022-07-31T11:36:50Z</time>
      </trkpt>
      <trkpt lat="46.16389" lon="6.66419">
        <ele>1403</ele>
        <time>2022-07-31T11:36:51Z</time>
      </trkpt>
      <trkpt lat="46.16389" lon="6.66419">
        <ele>1403</ele>
        <time>2022-07-31T11:36:52Z</time>
      </trkpt>
      <trkpt lat="46.1639" lon="6.6642">
        <ele>1403</ele>
        <time>2022-07-31T11:36:53Z</time>
      </trkpt>
      <trkpt lat="46.1639" lon="6.66421">
        <ele>1403</ele>
        <time>2022-07-31T11:36:54Z</time>
      </trkpt>
      <trkpt lat="46.16391" lon="6.66422">
        <ele>1403</ele>
        <time>2022-07-31T11:36:55Z</time>
      </trkpt>
      <trkpt lat="46.16392" lon="6.66423">
        <ele>1403</ele>
        <time>2022-07-31T11:36:56Z</time>
      </trkpt>
      <trkpt lat="46.16393" lon="6.66422">
        <ele>1403</ele>
        <time>2022-07-31T11:36:57Z</time>
      </trkpt>
      <trkpt lat="46.16393" lon="6.66422">
        <ele>1403</ele>
        <time>2022-07-31T11:36:58Z</time>
      </trkpt>
      <trkpt lat="46.16395" lon="6.66422">
        <ele>1403</ele>
        <time>2022-07-31T11:36:59Z</time>
      </trkpt>
      <trkpt lat="46.16397" lon="6.66422">
        <ele>1403</ele>
        <time>2022-07-31T11:37:00Z</time>
      </trkpt>
      <trkpt lat="46.16398" lon="6.66422">
        <ele>1403</ele>
        <time>2022-07-31T11:37:01Z</time>
      </trkpt>
      <trkpt lat="46.164" lon="6.6642">
        <ele>1403</ele>
        <time>2022-07-31T11:37:02Z</time>
      </trkpt>
      <trkpt lat="46.16401" lon="6.6642">
        <ele>1403</ele>
        <time>2022-07-31T11:37:03Z</time>
      </trkpt>
      <trkpt lat="46.16403" lon="6.6642">
        <ele>1403</ele>
        <time>2022-07-31T11:37:04Z</time>
      </trkpt>
      <trkpt lat="46.16404" lon="6.66422">
        <ele>1403</ele>
        <time>2022-07-31T11:37:05Z</time>
      </trkpt>
      <trkpt lat="46.16405" lon="6.66423">
        <ele>1403</ele>
        <time>2022-07-31T11:37:06Z</time>
      </trkpt>
      <trkpt lat="46.16406" lon="6.66424">
        <ele>1403</ele>
        <time>2022-07-31T11:37:07Z</time>
      </trkpt>
      <trkpt lat="46.16406" lon="6.66424">
        <ele>1403</ele>
        <time>2022-07-31T11:37:08Z</time>
      </trkpt>
      <trkpt lat="46.16407" lon="6.66424">
        <ele>1404</ele>
        <time>2022-07-31T11:37:09Z</time>
      </trkpt>
      <trkpt lat="46.16408" lon="6.66424">
        <ele>1404</ele>
        <time>2022-07-31T11:37:10Z</time>
      </trkpt>
      <trkpt lat="46.1641" lon="6.66425">
        <ele>1404</ele>
        <time>2022-07-31T11:37:11Z</time>
      </trkpt>
      <trkpt lat="46.16411" lon="6.66426">
        <ele>1404</ele>
        <time>2022-07-31T11:37:12Z</time>
      </trkpt>
      <trkpt lat="46.16412" lon="6.66426">
        <ele>1404</ele>
        <time>2022-07-31T11:37:13Z</time>
      </trkpt>
      <trkpt lat="46.16413" lon="6.66426">
        <ele>1404</ele>
        <time>2022-07-31T11:37:14Z</time>
      </trkpt>
      <trkpt lat="46.16414" lon="6.66428">
        <ele>1404</ele>
        <time>2022-07-31T11:37:15Z</time>
      </trkpt>
      <trkpt lat="46.16414" lon="6.66429">
        <ele>1404</ele>
        <time>2022-07-31T11:37:16Z</time>
      </trkpt>
      <trkpt lat="46.16415" lon="6.6643">
        <ele>1404</ele>
        <time>2022-07-31T11:37:17Z</time>
      </trkpt>
      <trkpt lat="46.16416" lon="6.66431">
        <ele>1403</ele>
        <time>2022-07-31T11:37:18Z</time>
      </trkpt>
      <trkpt lat="46.16416" lon="6.66432">
        <ele>1403</ele>
        <time>2022-07-31T11:37:19Z</time>
      </trkpt>
      <trkpt lat="46.16418" lon="6.66433">
        <ele>1403</ele>
        <time>2022-07-31T11:37:20Z</time>
      </trkpt>
      <trkpt lat="46.16419" lon="6.66434">
        <ele>1403</ele>
        <time>2022-07-31T11:37:21Z</time>
      </trkpt>
      <trkpt lat="46.1642" lon="6.66435">
        <ele>1403</ele>
        <time>2022-07-31T11:37:22Z</time>
      </trkpt>
      <trkpt lat="46.16421" lon="6.66436">
        <ele>1403</ele>
        <time>2022-07-31T11:37:23Z</time>
      </trkpt>
      <trkpt lat="46.16422" lon="6.66437">
        <ele>1403</ele>
        <time>2022-07-31T11:37:24Z</time>
      </trkpt>
      <trkpt lat="46.16423" lon="6.66439">
        <ele>1403</ele>
        <time>2022-07-31T11:37:25Z</time>
      </trkpt>
      <trkpt lat="46.16423" lon="6.66439">
        <ele>1403</ele>
        <time>2022-07-31T11:37:26Z</time>
      </trkpt>
      <trkpt lat="46.16425" lon="6.6644">
        <ele>1403</ele>
        <time>2022-07-31T11:37:27Z</time>
      </trkpt>
      <trkpt lat="46.16426" lon="6.6644">
        <ele>1403</ele>
        <time>2022-07-31T11:37:28Z</time>
      </trkpt>
      <trkpt lat="46.16427" lon="6.66442">
        <ele>1402</ele>
        <time>2022-07-31T11:37:29Z</time>
      </trkpt>
      <trkpt lat="46.16428" lon="6.66443">
        <ele>1402</ele>
        <time>2022-07-31T11:37:30Z</time>
      </trkpt>
      <trkpt lat="46.16428" lon="6.66444">
        <ele>1402</ele>
        <time>2022-07-31T11:37:31Z</time>
      </trkpt>
      <trkpt lat="46.16429" lon="6.66445">
        <ele>1402</ele>
        <time>2022-07-31T11:37:32Z</time>
      </trkpt>
      <trkpt lat="46.1643" lon="6.66446">
        <ele>1402</ele>
        <time>2022-07-31T11:37:33Z</time>
      </trkpt>
      <trkpt lat="46.1643" lon="6.66447">
        <ele>1402</ele>
        <time>2022-07-31T11:37:34Z</time>
      </trkpt>
      <trkpt lat="46.16431" lon="6.66448">
        <ele>1402</ele>
        <time>2022-07-31T11:37:35Z</time>
      </trkpt>
      <trkpt lat="46.16433" lon="6.66449">
        <ele>1402</ele>
        <time>2022-07-31T11:37:36Z</time>
      </trkpt>
      <trkpt lat="46.16433" lon="6.6645">
        <ele>1402</ele>
        <time>2022-07-31T11:37:37Z</time>
      </trkpt>
      <trkpt lat="46.16434" lon="6.66451">
        <ele>1402</ele>
        <time>2022-07-31T11:37:38Z</time>
      </trkpt>
      <trkpt lat="46.16434" lon="6.66454">
        <ele>1401</ele>
        <time>2022-07-31T11:37:39Z</time>
      </trkpt>
      <trkpt lat="46.16434" lon="6.66455">
        <ele>1401</ele>
        <time>2022-07-31T11:37:40Z</time>
      </trkpt>
      <trkpt lat="46.16435" lon="6.66456">
        <ele>1401</ele>
        <time>2022-07-31T11:37:41Z</time>
      </trkpt>
      <trkpt lat="46.16436" lon="6.66454">
        <ele>1401</ele>
        <time>2022-07-31T11:37:42Z</time>
      </trkpt>
      <trkpt lat="46.16436" lon="6.66453">
        <ele>1401</ele>
        <time>2022-07-31T11:37:43Z</time>
      </trkpt>
      <trkpt lat="46.16436" lon="6.66452">
        <ele>1401</ele>
        <time>2022-07-31T11:37:44Z</time>
      </trkpt>
      <trkpt lat="46.16436" lon="6.6645">
        <ele>1401</ele>
        <time>2022-07-31T11:37:45Z</time>
      </trkpt>
      <trkpt lat="46.16437" lon="6.6645">
        <ele>1401</ele>
        <time>2022-07-31T11:37:46Z</time>
      </trkpt>
      <trkpt lat="46.16437" lon="6.6645">
        <ele>1401</ele>
        <time>2022-07-31T11:37:47Z</time>
      </trkpt>
      <trkpt lat="46.16438" lon="6.66449">
        <ele>1401</ele>
        <time>2022-07-31T11:37:48Z</time>
      </trkpt>
      <trkpt lat="46.16439" lon="6.6645">
        <ele>1401</ele>
        <time>2022-07-31T11:37:49Z</time>
      </trkpt>
      <trkpt lat="46.1644" lon="6.66451">
        <ele>1401</ele>
        <time>2022-07-31T11:37:50Z</time>
      </trkpt>
      <trkpt lat="46.1644" lon="6.66452">
        <ele>1401</ele>
        <time>2022-07-31T11:37:51Z</time>
      </trkpt>
      <trkpt lat="46.16441" lon="6.66453">
        <ele>1401</ele>
        <time>2022-07-31T11:37:52Z</time>
      </trkpt>
      <trkpt lat="46.16441" lon="6.66454">
        <ele>1401</ele>
        <time>2022-07-31T11:37:53Z</time>
      </trkpt>
      <trkpt lat="46.16442" lon="6.66454">
        <ele>1401</ele>
        <time>2022-07-31T11:37:54Z</time>
      </trkpt>
      <trkpt lat="46.16442" lon="6.66454">
        <ele>1401</ele>
        <time>2022-07-31T11:37:55Z</time>
      </trkpt>
      <trkpt lat="46.16443" lon="6.66455">
        <ele>1402</ele>
        <time>2022-07-31T11:37:56Z</time>
      </trkpt>
      <trkpt lat="46.16444" lon="6.66455">
        <ele>1402</ele>
        <time>2022-07-31T11:37:57Z</time>
      </trkpt>
      <trkpt lat="46.16445" lon="6.66455">
        <ele>1402</ele>
        <time>2022-07-31T11:37:58Z</time>
      </trkpt>
      <trkpt lat="46.16446" lon="6.66455">
        <ele>1402</ele>
        <time>2022-07-31T11:37:59Z</time>
      </trkpt>
      <trkpt lat="46.16447" lon="6.66455">
        <ele>1402</ele>
        <time>2022-07-31T11:38:00Z</time>
      </trkpt>
      <trkpt lat="46.16448" lon="6.66456">
        <ele>1402</ele>
        <time>2022-07-31T11:38:01Z</time>
      </trkpt>
      <trkpt lat="46.16449" lon="6.66456">
        <ele>1402</ele>
        <time>2022-07-31T11:38:02Z</time>
      </trkpt>
      <trkpt lat="46.1645" lon="6.66457">
        <ele>1402</ele>
        <time>2022-07-31T11:38:03Z</time>
      </trkpt>
      <trkpt lat="46.16451" lon="6.66457">
        <ele>1402</ele>
        <time>2022-07-31T11:38:04Z</time>
      </trkpt>
      <trkpt lat="46.16452" lon="6.66457">
        <ele>1402</ele>
        <time>2022-07-31T11:38:05Z</time>
      </trkpt>
      <trkpt lat="46.16453" lon="6.66456">
        <ele>1402</ele>
        <time>2022-07-31T11:38:06Z</time>
      </trkpt>
      <trkpt lat="46.16453" lon="6.66455">
        <ele>1402</ele>
        <time>2022-07-31T11:38:07Z</time>
      </trkpt>
      <trkpt lat="46.16455" lon="6.66455">
        <ele>1402</ele>
        <time>2022-07-31T11:38:08Z</time>
      </trkpt>
      <trkpt lat="46.16457" lon="6.66457">
        <ele>1402</ele>
        <time>2022-07-31T11:38:09Z</time>
      </trkpt>
      <trkpt lat="46.16459" lon="6.66459">
        <ele>1402</ele>
        <time>2022-07-31T11:38:10Z</time>
      </trkpt>
      <trkpt lat="46.1646" lon="6.66459">
        <ele>1402</ele>
        <time>2022-07-31T11:38:11Z</time>
      </trkpt>
      <trkpt lat="46.16461" lon="6.6646">
        <ele>1402</ele>
        <time>2022-07-31T11:38:12Z</time>
      </trkpt>
      <trkpt lat="46.16462" lon="6.66461">
        <ele>1402</ele>
        <time>2022-07-31T11:38:13Z</time>
      </trkpt>
      <trkpt lat="46.16463" lon="6.66462">
        <ele>1402</ele>
        <time>2022-07-31T11:38:14Z</time>
      </trkpt>
      <trkpt lat="46.16464" lon="6.66462">
        <ele>1402</ele>
        <time>2022-07-31T11:38:15Z</time>
      </trkpt>
      <trkpt lat="46.16465" lon="6.66463">
        <ele>1401</ele>
        <time>2022-07-31T11:38:16Z</time>
      </trkpt>
      <trkpt lat="46.16466" lon="6.66462">
        <ele>1401</ele>
        <time>2022-07-31T11:38:17Z</time>
      </trkpt>
      <trkpt lat="46.16466" lon="6.66461">
        <ele>1401</ele>
        <time>2022-07-31T11:38:18Z</time>
      </trkpt>
      <trkpt lat="46.16467" lon="6.6646">
        <ele>1401</ele>
        <time>2022-07-31T11:38:19Z</time>
      </trkpt>
      <trkpt lat="46.16467" lon="6.66459">
        <ele>1401</ele>
        <time>2022-07-31T11:38:20Z</time>
      </trkpt>
      <trkpt lat="46.16468" lon="6.66458">
        <ele>1400</ele>
        <time>2022-07-31T11:38:21Z</time>
      </trkpt>
      <trkpt lat="46.1647" lon="6.66457">
        <ele>1400</ele>
        <time>2022-07-31T11:38:22Z</time>
      </trkpt>
      <trkpt lat="46.16471" lon="6.66458">
        <ele>1400</ele>
        <time>2022-07-31T11:38:23Z</time>
      </trkpt>
      <trkpt lat="46.16471" lon="6.66458">
        <ele>1400</ele>
        <time>2022-07-31T11:38:24Z</time>
      </trkpt>
      <trkpt lat="46.16472" lon="6.66457">
        <ele>1400</ele>
        <time>2022-07-31T11:38:25Z</time>
      </trkpt>
      <trkpt lat="46.16473" lon="6.66458">
        <ele>1400</ele>
        <time>2022-07-31T11:38:26Z</time>
      </trkpt>
      <trkpt lat="46.16472" lon="6.66458">
        <ele>1400</ele>
        <time>2022-07-31T11:38:27Z</time>
      </trkpt>
      <trkpt lat="46.16472" lon="6.6646">
        <ele>1400</ele>
        <time>2022-07-31T11:38:28Z</time>
      </trkpt>
      <trkpt lat="46.16471" lon="6.66463">
        <ele>1400</ele>
        <time>2022-07-31T11:38:29Z</time>
      </trkpt>
      <trkpt lat="46.16471" lon="6.66465">
        <ele>1400</ele>
        <time>2022-07-31T11:38:30Z</time>
      </trkpt>
      <trkpt lat="46.1647" lon="6.66465">
        <ele>1400</ele>
        <time>2022-07-31T11:38:31Z</time>
      </trkpt>
      <trkpt lat="46.1647" lon="6.66466">
        <ele>1400</ele>
        <time>2022-07-31T11:38:32Z</time>
      </trkpt>
      <trkpt lat="46.1647" lon="6.66468">
        <ele>1399</ele>
        <time>2022-07-31T11:38:33Z</time>
      </trkpt>
      <trkpt lat="46.16468" lon="6.6647">
        <ele>1399</ele>
        <time>2022-07-31T11:38:34Z</time>
      </trkpt>
      <trkpt lat="46.16468" lon="6.66472">
        <ele>1399</ele>
        <time>2022-07-31T11:38:35Z</time>
      </trkpt>
      <trkpt lat="46.16468" lon="6.66474">
        <ele>1399</ele>
        <time>2022-07-31T11:38:36Z</time>
      </trkpt>
      <trkpt lat="46.16468" lon="6.66475">
        <ele>1399</ele>
        <time>2022-07-31T11:38:37Z</time>
      </trkpt>
      <trkpt lat="46.16468" lon="6.66478">
        <ele>1399</ele>
        <time>2022-07-31T11:38:38Z</time>
      </trkpt>
      <trkpt lat="46.16468" lon="6.6648">
        <ele>1399</ele>
        <time>2022-07-31T11:38:39Z</time>
      </trkpt>
      <trkpt lat="46.16469" lon="6.66481">
        <ele>1399</ele>
        <time>2022-07-31T11:38:40Z</time>
      </trkpt>
      <trkpt lat="46.1647" lon="6.66483">
        <ele>1399</ele>
        <time>2022-07-31T11:38:41Z</time>
      </trkpt>
      <trkpt lat="46.1647" lon="6.66484">
        <ele>1399</ele>
        <time>2022-07-31T11:38:42Z</time>
      </trkpt>
      <trkpt lat="46.16471" lon="6.66487">
        <ele>1399</ele>
        <time>2022-07-31T11:38:43Z</time>
      </trkpt>
      <trkpt lat="46.16472" lon="6.66489">
        <ele>1398</ele>
        <time>2022-07-31T11:38:44Z</time>
      </trkpt>
      <trkpt lat="46.16473" lon="6.66491">
        <ele>1398</ele>
        <time>2022-07-31T11:38:45Z</time>
      </trkpt>
      <trkpt lat="46.16474" lon="6.66492">
        <ele>1398</ele>
        <time>2022-07-31T11:38:46Z</time>
      </trkpt>
      <trkpt lat="46.16474" lon="6.66493">
        <ele>1398</ele>
        <time>2022-07-31T11:38:47Z</time>
      </trkpt>
      <trkpt lat="46.16475" lon="6.66493">
        <ele>1398</ele>
        <time>2022-07-31T11:38:48Z</time>
      </trkpt>
      <trkpt lat="46.16476" lon="6.66493">
        <ele>1397</ele>
        <time>2022-07-31T11:38:49Z</time>
      </trkpt>
      <trkpt lat="46.16476" lon="6.66492">
        <ele>1397</ele>
        <time>2022-07-31T11:38:50Z</time>
      </trkpt>
      <trkpt lat="46.16476" lon="6.66491">
        <ele>1397</ele>
        <time>2022-07-31T11:38:51Z</time>
      </trkpt>
      <trkpt lat="46.16477" lon="6.66492">
        <ele>1397</ele>
        <time>2022-07-31T11:38:52Z</time>
      </trkpt>
      <trkpt lat="46.16476" lon="6.66494">
        <ele>1397</ele>
        <time>2022-07-31T11:38:53Z</time>
      </trkpt>
      <trkpt lat="46.16476" lon="6.66496">
        <ele>1397</ele>
        <time>2022-07-31T11:38:54Z</time>
      </trkpt>
      <trkpt lat="46.16476" lon="6.66498">
        <ele>1397</ele>
        <time>2022-07-31T11:38:55Z</time>
      </trkpt>
      <trkpt lat="46.16477" lon="6.665">
        <ele>1397</ele>
        <time>2022-07-31T11:38:56Z</time>
      </trkpt>
      <trkpt lat="46.16478" lon="6.66501">
        <ele>1397</ele>
        <time>2022-07-31T11:38:57Z</time>
      </trkpt>
      <trkpt lat="46.16479" lon="6.66502">
        <ele>1397</ele>
        <time>2022-07-31T11:38:58Z</time>
      </trkpt>
      <trkpt lat="46.16479" lon="6.66504">
        <ele>1396</ele>
        <time>2022-07-31T11:38:59Z</time>
      </trkpt>
      <trkpt lat="46.1648" lon="6.66506">
        <ele>1396</ele>
        <time>2022-07-31T11:39:00Z</time>
      </trkpt>
      <trkpt lat="46.1648" lon="6.66507">
        <ele>1396</ele>
        <time>2022-07-31T11:39:01Z</time>
      </trkpt>
      <trkpt lat="46.16482" lon="6.66509">
        <ele>1396</ele>
        <time>2022-07-31T11:39:02Z</time>
      </trkpt>
      <trkpt lat="46.16482" lon="6.6651">
        <ele>1396</ele>
        <time>2022-07-31T11:39:03Z</time>
      </trkpt>
      <trkpt lat="46.16484" lon="6.66511">
        <ele>1395</ele>
        <time>2022-07-31T11:39:04Z</time>
      </trkpt>
      <trkpt lat="46.16484" lon="6.66512">
        <ele>1395</ele>
        <time>2022-07-31T11:39:05Z</time>
      </trkpt>
      <trkpt lat="46.16485" lon="6.66513">
        <ele>1395</ele>
        <time>2022-07-31T11:39:06Z</time>
      </trkpt>
      <trkpt lat="46.16485" lon="6.66514">
        <ele>1395</ele>
        <time>2022-07-31T11:39:07Z</time>
      </trkpt>
      <trkpt lat="46.16486" lon="6.66515">
        <ele>1395</ele>
        <time>2022-07-31T11:39:08Z</time>
      </trkpt>
      <trkpt lat="46.16487" lon="6.66515">
        <ele>1395</ele>
        <time>2022-07-31T11:39:09Z</time>
      </trkpt>
      <trkpt lat="46.16488" lon="6.66517">
        <ele>1394</ele>
        <time>2022-07-31T11:39:10Z</time>
      </trkpt>
      <trkpt lat="46.16488" lon="6.66518">
        <ele>1394</ele>
        <time>2022-07-31T11:39:11Z</time>
      </trkpt>
      <trkpt lat="46.16489" lon="6.66519">
        <ele>1394</ele>
        <time>2022-07-31T11:39:12Z</time>
      </trkpt>
      <trkpt lat="46.16489" lon="6.66519">
        <ele>1394</ele>
        <time>2022-07-31T11:39:13Z</time>
      </trkpt>
      <trkpt lat="46.1649" lon="6.6652">
        <ele>1394</ele>
        <time>2022-07-31T11:39:14Z</time>
      </trkpt>
      <trkpt lat="46.16492" lon="6.6652">
        <ele>1394</ele>
        <time>2022-07-31T11:39:15Z</time>
      </trkpt>
      <trkpt lat="46.16492" lon="6.6652">
        <ele>1394</ele>
        <time>2022-07-31T11:39:16Z</time>
      </trkpt>
      <trkpt lat="46.16493" lon="6.66521">
        <ele>1394</ele>
        <time>2022-07-31T11:39:17Z</time>
      </trkpt>
      <trkpt lat="46.16493" lon="6.66521">
        <ele>1394</ele>
        <time>2022-07-31T11:39:18Z</time>
      </trkpt>
      <trkpt lat="46.16494" lon="6.6652">
        <ele>1394</ele>
        <time>2022-07-31T11:39:19Z</time>
      </trkpt>
      <trkpt lat="46.16494" lon="6.66521">
        <ele>1394</ele>
        <time>2022-07-31T11:39:20Z</time>
      </trkpt>
      <trkpt lat="46.16494" lon="6.66521">
        <ele>1394</ele>
        <time>2022-07-31T11:39:21Z</time>
      </trkpt>
      <trkpt lat="46.16494" lon="6.66522">
        <ele>1394</ele>
        <time>2022-07-31T11:39:22Z</time>
      </trkpt>
      <trkpt lat="46.16494" lon="6.66522">
        <ele>1394</ele>
        <time>2022-07-31T11:39:23Z</time>
      </trkpt>
      <trkpt lat="46.16494" lon="6.66523">
        <ele>1394</ele>
        <time>2022-07-31T11:39:24Z</time>
      </trkpt>
      <trkpt lat="46.16494" lon="6.66524">
        <ele>1394</ele>
        <time>2022-07-31T11:39:25Z</time>
      </trkpt>
      <trkpt lat="46.16493" lon="6.66525">
        <ele>1395</ele>
        <time>2022-07-31T11:39:26Z</time>
      </trkpt>
      <trkpt lat="46.16493" lon="6.66526">
        <ele>1395</ele>
        <time>2022-07-31T11:39:27Z</time>
      </trkpt>
      <trkpt lat="46.16493" lon="6.66526">
        <ele>1395</ele>
        <time>2022-07-31T11:39:28Z</time>
      </trkpt>
      <trkpt lat="46.16493" lon="6.66528">
        <ele>1395</ele>
        <time>2022-07-31T11:39:29Z</time>
      </trkpt>
      <trkpt lat="46.16494" lon="6.6653">
        <ele>1395</ele>
        <time>2022-07-31T11:39:30Z</time>
      </trkpt>
      <trkpt lat="46.16494" lon="6.66532">
        <ele>1395</ele>
        <time>2022-07-31T11:39:31Z</time>
      </trkpt>
      <trkpt lat="46.16495" lon="6.66534">
        <ele>1395</ele>
        <time>2022-07-31T11:39:32Z</time>
      </trkpt>
      <trkpt lat="46.16496" lon="6.66535">
        <ele>1395</ele>
        <time>2022-07-31T11:39:33Z</time>
      </trkpt>
      <trkpt lat="46.16497" lon="6.66537">
        <ele>1395</ele>
        <time>2022-07-31T11:39:34Z</time>
      </trkpt>
      <trkpt lat="46.16497" lon="6.66538">
        <ele>1395</ele>
        <time>2022-07-31T11:39:35Z</time>
      </trkpt>
      <trkpt lat="46.16499" lon="6.66539">
        <ele>1395</ele>
        <time>2022-07-31T11:39:36Z</time>
      </trkpt>
      <trkpt lat="46.165" lon="6.66541">
        <ele>1395</ele>
        <time>2022-07-31T11:39:37Z</time>
      </trkpt>
      <trkpt lat="46.16501" lon="6.66541">
        <ele>1395</ele>
        <time>2022-07-31T11:39:38Z</time>
      </trkpt>
      <trkpt lat="46.16502" lon="6.66541">
        <ele>1395</ele>
        <time>2022-07-31T11:39:39Z</time>
      </trkpt>
      <trkpt lat="46.16504" lon="6.66542">
        <ele>1395</ele>
        <time>2022-07-31T11:39:40Z</time>
      </trkpt>
      <trkpt lat="46.16504" lon="6.66542">
        <ele>1395</ele>
        <time>2022-07-31T11:39:41Z</time>
      </trkpt>
      <trkpt lat="46.16505" lon="6.66543">
        <ele>1395</ele>
        <time>2022-07-31T11:39:42Z</time>
      </trkpt>
      <trkpt lat="46.16506" lon="6.66544">
        <ele>1395</ele>
        <time>2022-07-31T11:39:43Z</time>
      </trkpt>
      <trkpt lat="46.16507" lon="6.66545">
        <ele>1395</ele>
        <time>2022-07-31T11:39:44Z</time>
      </trkpt>
      <trkpt lat="46.16508" lon="6.66547">
        <ele>1394</ele>
        <time>2022-07-31T11:39:45Z</time>
      </trkpt>
      <trkpt lat="46.16508" lon="6.66549">
        <ele>1394</ele>
        <time>2022-07-31T11:39:46Z</time>
      </trkpt>
      <trkpt lat="46.16508" lon="6.66551">
        <ele>1394</ele>
        <time>2022-07-31T11:39:47Z</time>
      </trkpt>
      <trkpt lat="46.16508" lon="6.66552">
        <ele>1394</ele>
        <time>2022-07-31T11:39:48Z</time>
      </trkpt>
      <trkpt lat="46.16508" lon="6.66553">
        <ele>1394</ele>
        <time>2022-07-31T11:39:49Z</time>
      </trkpt>
      <trkpt lat="46.16508" lon="6.66553">
        <ele>1393</ele>
        <time>2022-07-31T11:39:50Z</time>
      </trkpt>
      <trkpt lat="46.16508" lon="6.66553">
        <ele>1393</ele>
        <time>2022-07-31T11:39:51Z</time>
      </trkpt>
      <trkpt lat="46.16508" lon="6.66553">
        <ele>1393</ele>
        <time>2022-07-31T11:39:52Z</time>
      </trkpt>
      <trkpt lat="46.16508" lon="6.66553">
        <ele>1393</ele>
        <time>2022-07-31T11:39:53Z</time>
      </trkpt>
      <trkpt lat="46.16508" lon="6.66553">
        <ele>1393</ele>
        <time>2022-07-31T11:39:54Z</time>
      </trkpt>
      <trkpt lat="46.16508" lon="6.66553">
        <ele>1393</ele>
        <time>2022-07-31T11:39:55Z</time>
      </trkpt>
      <trkpt lat="46.16507" lon="6.66553">
        <ele>1393</ele>
        <time>2022-07-31T11:39:56Z</time>
      </trkpt>
      <trkpt lat="46.16506" lon="6.66554">
        <ele>1393</ele>
        <time>2022-07-31T11:39:57Z</time>
      </trkpt>
      <trkpt lat="46.16506" lon="6.66556">
        <ele>1393</ele>
        <time>2022-07-31T11:39:58Z</time>
      </trkpt>
      <trkpt lat="46.16505" lon="6.66557">
        <ele>1393</ele>
        <time>2022-07-31T11:39:59Z</time>
      </trkpt>
      <trkpt lat="46.16505" lon="6.66558">
        <ele>1393</ele>
        <time>2022-07-31T11:40:00Z</time>
      </trkpt>
      <trkpt lat="46.16504" lon="6.66559">
        <ele>1393</ele>
        <time>2022-07-31T11:40:01Z</time>
      </trkpt>
      <trkpt lat="46.16503" lon="6.66559">
        <ele>1393</ele>
        <time>2022-07-31T11:40:02Z</time>
      </trkpt>
      <trkpt lat="46.16502" lon="6.6656">
        <ele>1393</ele>
        <time>2022-07-31T11:40:03Z</time>
      </trkpt>
      <trkpt lat="46.16501" lon="6.66561">
        <ele>1393</ele>
        <time>2022-07-31T11:40:04Z</time>
      </trkpt>
      <trkpt lat="46.165" lon="6.66562">
        <ele>1393</ele>
        <time>2022-07-31T11:40:05Z</time>
      </trkpt>
      <trkpt lat="46.165" lon="6.66562">
        <ele>1393</ele>
        <time>2022-07-31T11:40:06Z</time>
      </trkpt>
      <trkpt lat="46.16497" lon="6.66563">
        <ele>1393</ele>
        <time>2022-07-31T11:40:07Z</time>
      </trkpt>
      <trkpt lat="46.16496" lon="6.66564">
        <ele>1393</ele>
        <time>2022-07-31T11:40:08Z</time>
      </trkpt>
      <trkpt lat="46.16496" lon="6.66564">
        <ele>1393</ele>
        <time>2022-07-31T11:40:09Z</time>
      </trkpt>
      <trkpt lat="46.16495" lon="6.66564">
        <ele>1394</ele>
        <time>2022-07-31T11:40:10Z</time>
      </trkpt>
      <trkpt lat="46.16494" lon="6.66565">
        <ele>1394</ele>
        <time>2022-07-31T11:40:11Z</time>
      </trkpt>
      <trkpt lat="46.16494" lon="6.66566">
        <ele>1394</ele>
        <time>2022-07-31T11:40:12Z</time>
      </trkpt>
      <trkpt lat="46.16493" lon="6.66567">
        <ele>1394</ele>
        <time>2022-07-31T11:40:13Z</time>
      </trkpt>
      <trkpt lat="46.16492" lon="6.66567">
        <ele>1394</ele>
        <time>2022-07-31T11:40:14Z</time>
      </trkpt>
      <trkpt lat="46.16491" lon="6.66567">
        <ele>1394</ele>
        <time>2022-07-31T11:40:15Z</time>
      </trkpt>
      <trkpt lat="46.1649" lon="6.66568">
        <ele>1394</ele>
        <time>2022-07-31T11:40:16Z</time>
      </trkpt>
      <trkpt lat="46.1649" lon="6.6657">
        <ele>1394</ele>
        <time>2022-07-31T11:40:17Z</time>
      </trkpt>
      <trkpt lat="46.1649" lon="6.66571">
        <ele>1394</ele>
        <time>2022-07-31T11:40:18Z</time>
      </trkpt>
      <trkpt lat="46.1649" lon="6.66573">
        <ele>1394</ele>
        <time>2022-07-31T11:40:19Z</time>
      </trkpt>
      <trkpt lat="46.1649" lon="6.66576">
        <ele>1394</ele>
        <time>2022-07-31T11:40:20Z</time>
      </trkpt>
      <trkpt lat="46.1649" lon="6.66578">
        <ele>1393</ele>
        <time>2022-07-31T11:40:21Z</time>
      </trkpt>
      <trkpt lat="46.16491" lon="6.6658">
        <ele>1393</ele>
        <time>2022-07-31T11:40:22Z</time>
      </trkpt>
      <trkpt lat="46.16492" lon="6.66581">
        <ele>1393</ele>
        <time>2022-07-31T11:40:23Z</time>
      </trkpt>
      <trkpt lat="46.16492" lon="6.66582">
        <ele>1393</ele>
        <time>2022-07-31T11:40:24Z</time>
      </trkpt>
      <trkpt lat="46.16493" lon="6.66584">
        <ele>1393</ele>
        <time>2022-07-31T11:40:25Z</time>
      </trkpt>
      <trkpt lat="46.16493" lon="6.66586">
        <ele>1393</ele>
        <time>2022-07-31T11:40:26Z</time>
      </trkpt>
      <trkpt lat="46.16493" lon="6.66587">
        <ele>1393</ele>
        <time>2022-07-31T11:40:27Z</time>
      </trkpt>
      <trkpt lat="46.16493" lon="6.66589">
        <ele>1392</ele>
        <time>2022-07-31T11:40:28Z</time>
      </trkpt>
      <trkpt lat="46.16493" lon="6.6659">
        <ele>1392</ele>
        <time>2022-07-31T11:40:29Z</time>
      </trkpt>
      <trkpt lat="46.16493" lon="6.66591">
        <ele>1392</ele>
        <time>2022-07-31T11:40:30Z</time>
      </trkpt>
      <trkpt lat="46.16493" lon="6.66593">
        <ele>1392</ele>
        <time>2022-07-31T11:40:31Z</time>
      </trkpt>
      <trkpt lat="46.16493" lon="6.66596">
        <ele>1392</ele>
        <time>2022-07-31T11:40:32Z</time>
      </trkpt>
      <trkpt lat="46.16492" lon="6.66597">
        <ele>1391</ele>
        <time>2022-07-31T11:40:33Z</time>
      </trkpt>
      <trkpt lat="46.1649" lon="6.66598">
        <ele>1391</ele>
        <time>2022-07-31T11:40:34Z</time>
      </trkpt>
      <trkpt lat="46.16489" lon="6.66599">
        <ele>1391</ele>
        <time>2022-07-31T11:40:35Z</time>
      </trkpt>
      <trkpt lat="46.16488" lon="6.666">
        <ele>1391</ele>
        <time>2022-07-31T11:40:36Z</time>
      </trkpt>
      <trkpt lat="46.16488" lon="6.66601">
        <ele>1390</ele>
        <time>2022-07-31T11:40:37Z</time>
      </trkpt>
      <trkpt lat="46.16487" lon="6.66601">
        <ele>1390</ele>
        <time>2022-07-31T11:40:38Z</time>
      </trkpt>
      <trkpt lat="46.16486" lon="6.66602">
        <ele>1390</ele>
        <time>2022-07-31T11:40:39Z</time>
      </trkpt>
      <trkpt lat="46.16485" lon="6.66603">
        <ele>1390</ele>
        <time>2022-07-31T11:40:40Z</time>
      </trkpt>
      <trkpt lat="46.16484" lon="6.66605">
        <ele>1390</ele>
        <time>2022-07-31T11:40:41Z</time>
      </trkpt>
      <trkpt lat="46.16484" lon="6.66607">
        <ele>1390</ele>
        <time>2022-07-31T11:40:42Z</time>
      </trkpt>
      <trkpt lat="46.16484" lon="6.66609">
        <ele>1389</ele>
        <time>2022-07-31T11:40:43Z</time>
      </trkpt>
      <trkpt lat="46.16482" lon="6.6661">
        <ele>1389</ele>
        <time>2022-07-31T11:40:44Z</time>
      </trkpt>
      <trkpt lat="46.16482" lon="6.66611">
        <ele>1389</ele>
        <time>2022-07-31T11:40:45Z</time>
      </trkpt>
      <trkpt lat="46.16481" lon="6.66613">
        <ele>1389</ele>
        <time>2022-07-31T11:40:46Z</time>
      </trkpt>
      <trkpt lat="46.1648" lon="6.66615">
        <ele>1389</ele>
        <time>2022-07-31T11:40:47Z</time>
      </trkpt>
      <trkpt lat="46.1648" lon="6.66617">
        <ele>1388</ele>
        <time>2022-07-31T11:40:48Z</time>
      </trkpt>
      <trkpt lat="46.16479" lon="6.66618">
        <ele>1388</ele>
        <time>2022-07-31T11:40:49Z</time>
      </trkpt>
      <trkpt lat="46.16479" lon="6.6662">
        <ele>1388</ele>
        <time>2022-07-31T11:40:50Z</time>
      </trkpt>
      <trkpt lat="46.16478" lon="6.66622">
        <ele>1388</ele>
        <time>2022-07-31T11:40:51Z</time>
      </trkpt>
      <trkpt lat="46.16478" lon="6.66624">
        <ele>1387</ele>
        <time>2022-07-31T11:40:52Z</time>
      </trkpt>
      <trkpt lat="46.16478" lon="6.66625">
        <ele>1387</ele>
        <time>2022-07-31T11:40:53Z</time>
      </trkpt>
      <trkpt lat="46.16477" lon="6.66627">
        <ele>1387</ele>
        <time>2022-07-31T11:40:54Z</time>
      </trkpt>
      <trkpt lat="46.16477" lon="6.66629">
        <ele>1387</ele>
        <time>2022-07-31T11:40:55Z</time>
      </trkpt>
      <trkpt lat="46.16477" lon="6.66631">
        <ele>1386</ele>
        <time>2022-07-31T11:40:56Z</time>
      </trkpt>
      <trkpt lat="46.16477" lon="6.66634">
        <ele>1386</ele>
        <time>2022-07-31T11:40:57Z</time>
      </trkpt>
      <trkpt lat="46.16476" lon="6.66636">
        <ele>1386</ele>
        <time>2022-07-31T11:40:58Z</time>
      </trkpt>
      <trkpt lat="46.16476" lon="6.66638">
        <ele>1385</ele>
        <time>2022-07-31T11:40:59Z</time>
      </trkpt>
      <trkpt lat="46.16476" lon="6.6664">
        <ele>1385</ele>
        <time>2022-07-31T11:41:00Z</time>
      </trkpt>
      <trkpt lat="46.16475" lon="6.66641">
        <ele>1385</ele>
        <time>2022-07-31T11:41:01Z</time>
      </trkpt>
      <trkpt lat="46.16475" lon="6.66642">
        <ele>1385</ele>
        <time>2022-07-31T11:41:02Z</time>
      </trkpt>
      <trkpt lat="46.16475" lon="6.66643">
        <ele>1384</ele>
        <time>2022-07-31T11:41:03Z</time>
      </trkpt>
      <trkpt lat="46.16475" lon="6.66645">
        <ele>1384</ele>
        <time>2022-07-31T11:41:04Z</time>
      </trkpt>
      <trkpt lat="46.16475" lon="6.66646">
        <ele>1384</ele>
        <time>2022-07-31T11:41:05Z</time>
      </trkpt>
      <trkpt lat="46.16475" lon="6.66647">
        <ele>1384</ele>
        <time>2022-07-31T11:41:06Z</time>
      </trkpt>
      <trkpt lat="46.16475" lon="6.66647">
        <ele>1383</ele>
        <time>2022-07-31T11:41:07Z</time>
      </trkpt>
      <trkpt lat="46.16475" lon="6.66647">
        <ele>1383</ele>
        <time>2022-07-31T11:41:08Z</time>
      </trkpt>
      <trkpt lat="46.16475" lon="6.66647">
        <ele>1383</ele>
        <time>2022-07-31T11:41:09Z</time>
      </trkpt>
      <trkpt lat="46.16475" lon="6.66647">
        <ele>1383</ele>
        <time>2022-07-31T11:41:10Z</time>
      </trkpt>
      <trkpt lat="46.16474" lon="6.66647">
        <ele>1383</ele>
        <time>2022-07-31T11:41:11Z</time>
      </trkpt>
      <trkpt lat="46.16474" lon="6.66647">
        <ele>1383</ele>
        <time>2022-07-31T11:41:12Z</time>
      </trkpt>
      <trkpt lat="46.16475" lon="6.66647">
        <ele>1383</ele>
        <time>2022-07-31T11:41:13Z</time>
      </trkpt>
      <trkpt lat="46.16476" lon="6.66647">
        <ele>1383</ele>
        <time>2022-07-31T11:41:14Z</time>
      </trkpt>
      <trkpt lat="46.16476" lon="6.66647">
        <ele>1383</ele>
        <time>2022-07-31T11:41:15Z</time>
      </trkpt>
      <trkpt lat="46.16477" lon="6.66647">
        <ele>1383</ele>
        <time>2022-07-31T11:41:16Z</time>
      </trkpt>
      <trkpt lat="46.16477" lon="6.66647">
        <ele>1383</ele>
        <time>2022-07-31T11:41:17Z</time>
      </trkpt>
      <trkpt lat="46.16477" lon="6.66647">
        <ele>1383</ele>
        <time>2022-07-31T11:41:18Z</time>
      </trkpt>
      <trkpt lat="46.16478" lon="6.66647">
        <ele>1383</ele>
        <time>2022-07-31T11:41:19Z</time>
      </trkpt>
      <trkpt lat="46.16478" lon="6.66647">
        <ele>1383</ele>
        <time>2022-07-31T11:41:20Z</time>
      </trkpt>
      <trkpt lat="46.16478" lon="6.66646">
        <ele>1383</ele>
        <time>2022-07-31T11:41:21Z</time>
      </trkpt>
      <trkpt lat="46.16478" lon="6.66647">
        <ele>1383</ele>
        <time>2022-07-31T11:41:22Z</time>
      </trkpt>
      <trkpt lat="46.16479" lon="6.66647">
        <ele>1383</ele>
        <time>2022-07-31T11:41:23Z</time>
      </trkpt>
      <trkpt lat="46.16479" lon="6.66646">
        <ele>1383</ele>
        <time>2022-07-31T11:41:24Z</time>
      </trkpt>
      <trkpt lat="46.16479" lon="6.66646">
        <ele>1383</ele>
        <time>2022-07-31T11:41:25Z</time>
      </trkpt>
      <trkpt lat="46.16479" lon="6.66646">
        <ele>1383</ele>
        <time>2022-07-31T11:41:26Z</time>
      </trkpt>
      <trkpt lat="46.1648" lon="6.66646">
        <ele>1384</ele>
        <time>2022-07-31T11:41:27Z</time>
      </trkpt>
      <trkpt lat="46.1648" lon="6.66646">
        <ele>1384</ele>
        <time>2022-07-31T11:41:28Z</time>
      </trkpt>
      <trkpt lat="46.1648" lon="6.66646">
        <ele>1384</ele>
        <time>2022-07-31T11:41:29Z</time>
      </trkpt>
      <trkpt lat="46.1648" lon="6.66646">
        <ele>1384</ele>
        <time>2022-07-31T11:41:30Z</time>
      </trkpt>
      <trkpt lat="46.1648" lon="6.66645">
        <ele>1384</ele>
        <time>2022-07-31T11:41:31Z</time>
      </trkpt>
      <trkpt lat="46.1648" lon="6.66645">
        <ele>1384</ele>
        <time>2022-07-31T11:41:32Z</time>
      </trkpt>
      <trkpt lat="46.1648" lon="6.66645">
        <ele>1384</ele>
        <time>2022-07-31T11:41:33Z</time>
      </trkpt>
      <trkpt lat="46.1648" lon="6.66645">
        <ele>1384</ele>
        <time>2022-07-31T11:41:34Z</time>
      </trkpt>
      <trkpt lat="46.1648" lon="6.66645">
        <ele>1384</ele>
        <time>2022-07-31T11:41:35Z</time>
      </trkpt>
      <trkpt lat="46.1648" lon="6.66645">
        <ele>1384</ele>
        <time>2022-07-31T11:41:36Z</time>
      </trkpt>
      <trkpt lat="46.1648" lon="6.66645">
        <ele>1384</ele>
        <time>2022-07-31T11:41:37Z</time>
      </trkpt>
      <trkpt lat="46.1648" lon="6.66645">
        <ele>1384</ele>
        <time>2022-07-31T11:41:38Z</time>
      </trkpt>
      <trkpt lat="46.1648" lon="6.66645">
        <ele>1384</ele>
        <time>2022-07-31T11:41:39Z</time>
      </trkpt>
      <trkpt lat="46.1648" lon="6.66645">
        <ele>1385</ele>
        <time>2022-07-31T11:41:40Z</time>
      </trkpt>
      <trkpt lat="46.1648" lon="6.66645">
        <ele>1385</ele>
        <time>2022-07-31T11:41:41Z</time>
      </trkpt>
      <trkpt lat="46.1648" lon="6.66645">
        <ele>1385</ele>
        <time>2022-07-31T11:41:42Z</time>
      </trkpt>
      <trkpt lat="46.1648" lon="6.66645">
        <ele>1385</ele>
        <time>2022-07-31T11:41:43Z</time>
      </trkpt>
      <trkpt lat="46.1648" lon="6.66645">
        <ele>1385</ele>
        <time>2022-07-31T11:41:44Z</time>
      </trkpt>
      <trkpt lat="46.1648" lon="6.66645">
        <ele>1385</ele>
        <time>2022-07-31T11:41:45Z</time>
      </trkpt>
      <trkpt lat="46.1648" lon="6.66645">
        <ele>1385</ele>
        <time>2022-07-31T11:41:46Z</time>
      </trkpt>
      <trkpt lat="46.1648" lon="6.66645">
        <ele>1385</ele>
        <time>2022-07-31T11:41:47Z</time>
      </trkpt>
      <trkpt lat="46.1648" lon="6.66645">
        <ele>1385</ele>
        <time>2022-07-31T11:41:48Z</time>
      </trkpt>
      <trkpt lat="46.1648" lon="6.66645">
        <ele>1385</ele>
        <time>2022-07-31T11:41:49Z</time>
      </trkpt>
      <trkpt lat="46.1648" lon="6.66645">
        <ele>1385</ele>
        <time>2022-07-31T11:41:50Z</time>
      </trkpt>
      <trkpt lat="46.1648" lon="6.66645">
        <ele>1385</ele>
        <time>2022-07-31T11:41:51Z</time>
      </trkpt>
      <trkpt lat="46.1648" lon="6.66645">
        <ele>1385</ele>
        <time>2022-07-31T11:41:52Z</time>
      </trkpt>
      <trkpt lat="46.1648" lon="6.66646">
        <ele>1385</ele>
        <time>2022-07-31T11:41:53Z</time>
      </trkpt>
      <trkpt lat="46.16481" lon="6.66647">
        <ele>1385</ele>
        <time>2022-07-31T11:41:54Z</time>
      </trkpt>
      <trkpt lat="46.16481" lon="6.66648">
        <ele>1385</ele>
        <time>2022-07-31T11:41:55Z</time>
      </trkpt>
      <trkpt lat="46.16482" lon="6.6665">
        <ele>1384</ele>
        <time>2022-07-31T11:41:56Z</time>
      </trkpt>
      <trkpt lat="46.16482" lon="6.66652">
        <ele>1384</ele>
        <time>2022-07-31T11:41:57Z</time>
      </trkpt>
      <trkpt lat="46.16483" lon="6.66655">
        <ele>1384</ele>
        <time>2022-07-31T11:41:58Z</time>
      </trkpt>
      <trkpt lat="46.16484" lon="6.66657">
        <ele>1384</ele>
        <time>2022-07-31T11:41:59Z</time>
      </trkpt>
      <trkpt lat="46.16484" lon="6.66658">
        <ele>1384</ele>
        <time>2022-07-31T11:42:00Z</time>
      </trkpt>
      <trkpt lat="46.16485" lon="6.6666">
        <ele>1384</ele>
        <time>2022-07-31T11:42:01Z</time>
      </trkpt>
      <trkpt lat="46.16485" lon="6.66662">
        <ele>1384</ele>
        <time>2022-07-31T11:42:02Z</time>
      </trkpt>
      <trkpt lat="46.16485" lon="6.66663">
        <ele>1384</ele>
        <time>2022-07-31T11:42:03Z</time>
      </trkpt>
      <trkpt lat="46.16486" lon="6.66665">
        <ele>1383</ele>
        <time>2022-07-31T11:42:04Z</time>
      </trkpt>
      <trkpt lat="46.16486" lon="6.66668">
        <ele>1383</ele>
        <time>2022-07-31T11:42:05Z</time>
      </trkpt>
      <trkpt lat="46.16486" lon="6.66669">
        <ele>1383</ele>
        <time>2022-07-31T11:42:06Z</time>
      </trkpt>
      <trkpt lat="46.16486" lon="6.66671">
        <ele>1383</ele>
        <time>2022-07-31T11:42:07Z</time>
      </trkpt>
      <trkpt lat="46.16486" lon="6.66673">
        <ele>1383</ele>
        <time>2022-07-31T11:42:08Z</time>
      </trkpt>
      <trkpt lat="46.16487" lon="6.66675">
        <ele>1382</ele>
        <time>2022-07-31T11:42:09Z</time>
      </trkpt>
      <trkpt lat="46.16487" lon="6.66676">
        <ele>1382</ele>
        <time>2022-07-31T11:42:10Z</time>
      </trkpt>
      <trkpt lat="46.16488" lon="6.66678">
        <ele>1382</ele>
        <time>2022-07-31T11:42:11Z</time>
      </trkpt>
      <trkpt lat="46.16488" lon="6.66679">
        <ele>1382</ele>
        <time>2022-07-31T11:42:12Z</time>
      </trkpt>
      <trkpt lat="46.16489" lon="6.66679">
        <ele>1382</ele>
        <time>2022-07-31T11:42:13Z</time>
      </trkpt>
      <trkpt lat="46.16489" lon="6.66679">
        <ele>1381</ele>
        <time>2022-07-31T11:42:14Z</time>
      </trkpt>
      <trkpt lat="46.16489" lon="6.6668">
        <ele>1381</ele>
        <time>2022-07-31T11:42:15Z</time>
      </trkpt>
      <trkpt lat="46.1649" lon="6.6668">
        <ele>1381</ele>
        <time>2022-07-31T11:42:16Z</time>
      </trkpt>
      <trkpt lat="46.1649" lon="6.66681">
        <ele>1381</ele>
        <time>2022-07-31T11:42:17Z</time>
      </trkpt>
      <trkpt lat="46.16492" lon="6.66682">
        <ele>1381</ele>
        <time>2022-07-31T11:42:18Z</time>
      </trkpt>
      <trkpt lat="46.16492" lon="6.66683">
        <ele>1380</ele>
        <time>2022-07-31T11:42:19Z</time>
      </trkpt>
      <trkpt lat="46.16493" lon="6.66684">
        <ele>1380</ele>
        <time>2022-07-31T11:42:20Z</time>
      </trkpt>
      <trkpt lat="46.16493" lon="6.66684">
        <ele>1380</ele>
        <time>2022-07-31T11:42:21Z</time>
      </trkpt>
      <trkpt lat="46.16494" lon="6.66685">
        <ele>1380</ele>
        <time>2022-07-31T11:42:22Z</time>
      </trkpt>
      <trkpt lat="46.16494" lon="6.66686">
        <ele>1379</ele>
        <time>2022-07-31T11:42:23Z</time>
      </trkpt>
      <trkpt lat="46.16495" lon="6.66688">
        <ele>1379</ele>
        <time>2022-07-31T11:42:24Z</time>
      </trkpt>
      <trkpt lat="46.16495" lon="6.66689">
        <ele>1378</ele>
        <time>2022-07-31T11:42:25Z</time>
      </trkpt>
      <trkpt lat="46.16495" lon="6.66691">
        <ele>1378</ele>
        <time>2022-07-31T11:42:26Z</time>
      </trkpt>
      <trkpt lat="46.16496" lon="6.66693">
        <ele>1377</ele>
        <time>2022-07-31T11:42:27Z</time>
      </trkpt>
      <trkpt lat="46.16496" lon="6.66695">
        <ele>1377</ele>
        <time>2022-07-31T11:42:28Z</time>
      </trkpt>
      <trkpt lat="46.16497" lon="6.66696">
        <ele>1376</ele>
        <time>2022-07-31T11:42:29Z</time>
      </trkpt>
      <trkpt lat="46.16499" lon="6.66697">
        <ele>1376</ele>
        <time>2022-07-31T11:42:30Z</time>
      </trkpt>
      <trkpt lat="46.16499" lon="6.66698">
        <ele>1375</ele>
        <time>2022-07-31T11:42:31Z</time>
      </trkpt>
      <trkpt lat="46.165" lon="6.66698">
        <ele>1375</ele>
        <time>2022-07-31T11:42:32Z</time>
      </trkpt>
      <trkpt lat="46.16501" lon="6.66699">
        <ele>1374</ele>
        <time>2022-07-31T11:42:33Z</time>
      </trkpt>
      <trkpt lat="46.16502" lon="6.667">
        <ele>1374</ele>
        <time>2022-07-31T11:42:34Z</time>
      </trkpt>
      <trkpt lat="46.16502" lon="6.66701">
        <ele>1373</ele>
        <time>2022-07-31T11:42:35Z</time>
      </trkpt>
      <trkpt lat="46.16503" lon="6.66702">
        <ele>1373</ele>
        <time>2022-07-31T11:42:36Z</time>
      </trkpt>
      <trkpt lat="46.16504" lon="6.66703">
        <ele>1372</ele>
        <time>2022-07-31T11:42:37Z</time>
      </trkpt>
      <trkpt lat="46.16505" lon="6.66704">
        <ele>1372</ele>
        <time>2022-07-31T11:42:38Z</time>
      </trkpt>
      <trkpt lat="46.16505" lon="6.66706">
        <ele>1371</ele>
        <time>2022-07-31T11:42:39Z</time>
      </trkpt>
      <trkpt lat="46.16506" lon="6.66707">
        <ele>1371</ele>
        <time>2022-07-31T11:42:40Z</time>
      </trkpt>
      <trkpt lat="46.16507" lon="6.66708">
        <ele>1371</ele>
        <time>2022-07-31T11:42:41Z</time>
      </trkpt>
      <trkpt lat="46.16508" lon="6.66708">
        <ele>1370</ele>
        <time>2022-07-31T11:42:42Z</time>
      </trkpt>
      <trkpt lat="46.16508" lon="6.66708">
        <ele>1370</ele>
        <time>2022-07-31T11:42:43Z</time>
      </trkpt>
      <trkpt lat="46.16509" lon="6.6671">
        <ele>1370</ele>
        <time>2022-07-31T11:42:44Z</time>
      </trkpt>
      <trkpt lat="46.1651" lon="6.66711">
        <ele>1369</ele>
        <time>2022-07-31T11:42:45Z</time>
      </trkpt>
      <trkpt lat="46.16511" lon="6.66713">
        <ele>1369</ele>
        <time>2022-07-31T11:42:46Z</time>
      </trkpt>
      <trkpt lat="46.16512" lon="6.66714">
        <ele>1369</ele>
        <time>2022-07-31T11:42:47Z</time>
      </trkpt>
      <trkpt lat="46.16512" lon="6.66716">
        <ele>1368</ele>
        <time>2022-07-31T11:42:48Z</time>
      </trkpt>
      <trkpt lat="46.16513" lon="6.66718">
        <ele>1368</ele>
        <time>2022-07-31T11:42:49Z</time>
      </trkpt>
      <trkpt lat="46.16514" lon="6.66719">
        <ele>1368</ele>
        <time>2022-07-31T11:42:50Z</time>
      </trkpt>
      <trkpt lat="46.16514" lon="6.66721">
        <ele>1367</ele>
        <time>2022-07-31T11:42:51Z</time>
      </trkpt>
      <trkpt lat="46.16516" lon="6.66722">
        <ele>1367</ele>
        <time>2022-07-31T11:42:52Z</time>
      </trkpt>
      <trkpt lat="46.16517" lon="6.66723">
        <ele>1367</ele>
        <time>2022-07-31T11:42:53Z</time>
      </trkpt>
      <trkpt lat="46.16518" lon="6.66723">
        <ele>1366</ele>
        <time>2022-07-31T11:42:54Z</time>
      </trkpt>
      <trkpt lat="46.16519" lon="6.66724">
        <ele>1366</ele>
        <time>2022-07-31T11:42:55Z</time>
      </trkpt>
      <trkpt lat="46.16521" lon="6.66725">
        <ele>1366</ele>
        <time>2022-07-31T11:42:56Z</time>
      </trkpt>
      <trkpt lat="46.16522" lon="6.66726">
        <ele>1366</ele>
        <time>2022-07-31T11:42:57Z</time>
      </trkpt>
      <trkpt lat="46.16522" lon="6.66726">
        <ele>1365</ele>
        <time>2022-07-31T11:42:58Z</time>
      </trkpt>
      <trkpt lat="46.16524" lon="6.66726">
        <ele>1365</ele>
        <time>2022-07-31T11:42:59Z</time>
      </trkpt>
      <trkpt lat="46.16525" lon="6.66727">
        <ele>1365</ele>
        <time>2022-07-31T11:43:00Z</time>
      </trkpt>
      <trkpt lat="46.16526" lon="6.66728">
        <ele>1365</ele>
        <time>2022-07-31T11:43:01Z</time>
      </trkpt>
      <trkpt lat="46.16526" lon="6.66728">
        <ele>1365</ele>
        <time>2022-07-31T11:43:02Z</time>
      </trkpt>
      <trkpt lat="46.16527" lon="6.66728">
        <ele>1364</ele>
        <time>2022-07-31T11:43:03Z</time>
      </trkpt>
      <trkpt lat="46.16529" lon="6.66728">
        <ele>1364</ele>
        <time>2022-07-31T11:43:04Z</time>
      </trkpt>
      <trkpt lat="46.1653" lon="6.66729">
        <ele>1364</ele>
        <time>2022-07-31T11:43:05Z</time>
      </trkpt>
      <trkpt lat="46.16531" lon="6.6673">
        <ele>1364</ele>
        <time>2022-07-31T11:43:06Z</time>
      </trkpt>
      <trkpt lat="46.16532" lon="6.66731">
        <ele>1364</ele>
        <time>2022-07-31T11:43:07Z</time>
      </trkpt>
      <trkpt lat="46.16533" lon="6.66733">
        <ele>1363</ele>
        <time>2022-07-31T11:43:08Z</time>
      </trkpt>
      <trkpt lat="46.16534" lon="6.66734">
        <ele>1363</ele>
        <time>2022-07-31T11:43:09Z</time>
      </trkpt>
      <trkpt lat="46.16536" lon="6.66735">
        <ele>1363</ele>
        <time>2022-07-31T11:43:10Z</time>
      </trkpt>
      <trkpt lat="46.16537" lon="6.66736">
        <ele>1363</ele>
        <time>2022-07-31T11:43:11Z</time>
      </trkpt>
      <trkpt lat="46.16538" lon="6.66737">
        <ele>1363</ele>
        <time>2022-07-31T11:43:12Z</time>
      </trkpt>
      <trkpt lat="46.16538" lon="6.66739">
        <ele>1362</ele>
        <time>2022-07-31T11:43:13Z</time>
      </trkpt>
      <trkpt lat="46.16539" lon="6.66739">
        <ele>1362</ele>
        <time>2022-07-31T11:43:14Z</time>
      </trkpt>
      <trkpt lat="46.1654" lon="6.6674">
        <ele>1362</ele>
        <time>2022-07-31T11:43:15Z</time>
      </trkpt>
      <trkpt lat="46.16541" lon="6.66742">
        <ele>1362</ele>
        <time>2022-07-31T11:43:16Z</time>
      </trkpt>
      <trkpt lat="46.16542" lon="6.66742">
        <ele>1362</ele>
        <time>2022-07-31T11:43:17Z</time>
      </trkpt>
      <trkpt lat="46.16543" lon="6.66743">
        <ele>1361</ele>
        <time>2022-07-31T11:43:18Z</time>
      </trkpt>
      <trkpt lat="46.16545" lon="6.66743">
        <ele>1361</ele>
        <time>2022-07-31T11:43:19Z</time>
      </trkpt>
      <trkpt lat="46.16546" lon="6.66744">
        <ele>1361</ele>
        <time>2022-07-31T11:43:20Z</time>
      </trkpt>
      <trkpt lat="46.16546" lon="6.66745">
        <ele>1361</ele>
        <time>2022-07-31T11:43:21Z</time>
      </trkpt>
      <trkpt lat="46.16547" lon="6.66747">
        <ele>1361</ele>
        <time>2022-07-31T11:43:22Z</time>
      </trkpt>
      <trkpt lat="46.16548" lon="6.66748">
        <ele>1361</ele>
        <time>2022-07-31T11:43:23Z</time>
      </trkpt>
      <trkpt lat="46.16549" lon="6.66749">
        <ele>1360</ele>
        <time>2022-07-31T11:43:24Z</time>
      </trkpt>
      <trkpt lat="46.16549" lon="6.6675">
        <ele>1360</ele>
        <time>2022-07-31T11:43:25Z</time>
      </trkpt>
      <trkpt lat="46.16551" lon="6.66751">
        <ele>1360</ele>
        <time>2022-07-31T11:43:26Z</time>
      </trkpt>
      <trkpt lat="46.16552" lon="6.66753">
        <ele>1360</ele>
        <time>2022-07-31T11:43:27Z</time>
      </trkpt>
      <trkpt lat="46.16552" lon="6.66753">
        <ele>1360</ele>
        <time>2022-07-31T11:43:28Z</time>
      </trkpt>
      <trkpt lat="46.16553" lon="6.66753">
        <ele>1360</ele>
        <time>2022-07-31T11:43:29Z</time>
      </trkpt>
      <trkpt lat="46.16553" lon="6.66753">
        <ele>1360</ele>
        <time>2022-07-31T11:43:30Z</time>
      </trkpt>
      <trkpt lat="46.16553" lon="6.66754">
        <ele>1359</ele>
        <time>2022-07-31T11:43:31Z</time>
      </trkpt>
      <trkpt lat="46.16553" lon="6.66755">
        <ele>1359</ele>
        <time>2022-07-31T11:43:32Z</time>
      </trkpt>
      <trkpt lat="46.16553" lon="6.66756">
        <ele>1359</ele>
        <time>2022-07-31T11:43:33Z</time>
      </trkpt>
      <trkpt lat="46.16553" lon="6.66758">
        <ele>1359</ele>
        <time>2022-07-31T11:43:34Z</time>
      </trkpt>
      <trkpt lat="46.16553" lon="6.66759">
        <ele>1359</ele>
        <time>2022-07-31T11:43:35Z</time>
      </trkpt>
      <trkpt lat="46.16553" lon="6.66761">
        <ele>1358</ele>
        <time>2022-07-31T11:43:36Z</time>
      </trkpt>
      <trkpt lat="46.16552" lon="6.66762">
        <ele>1358</ele>
        <time>2022-07-31T11:43:37Z</time>
      </trkpt>
      <trkpt lat="46.16551" lon="6.66763">
        <ele>1358</ele>
        <time>2022-07-31T11:43:38Z</time>
      </trkpt>
      <trkpt lat="46.1655" lon="6.66764">
        <ele>1358</ele>
        <time>2022-07-31T11:43:39Z</time>
      </trkpt>
      <trkpt lat="46.16549" lon="6.66764">
        <ele>1358</ele>
        <time>2022-07-31T11:43:40Z</time>
      </trkpt>
      <trkpt lat="46.16548" lon="6.66765">
        <ele>1357</ele>
        <time>2022-07-31T11:43:41Z</time>
      </trkpt>
      <trkpt lat="46.16548" lon="6.66765">
        <ele>1357</ele>
        <time>2022-07-31T11:43:42Z</time>
      </trkpt>
      <trkpt lat="46.16548" lon="6.66766">
        <ele>1357</ele>
        <time>2022-07-31T11:43:43Z</time>
      </trkpt>
      <trkpt lat="46.16548" lon="6.66767">
        <ele>1357</ele>
        <time>2022-07-31T11:43:44Z</time>
      </trkpt>
      <trkpt lat="46.16547" lon="6.66769">
        <ele>1357</ele>
        <time>2022-07-31T11:43:45Z</time>
      </trkpt>
      <trkpt lat="46.16548" lon="6.66772">
        <ele>1357</ele>
        <time>2022-07-31T11:43:46Z</time>
      </trkpt>
      <trkpt lat="46.16548" lon="6.66774">
        <ele>1356</ele>
        <time>2022-07-31T11:43:47Z</time>
      </trkpt>
      <trkpt lat="46.16548" lon="6.66777">
        <ele>1356</ele>
        <time>2022-07-31T11:43:48Z</time>
      </trkpt>
      <trkpt lat="46.16548" lon="6.66779">
        <ele>1356</ele>
        <time>2022-07-31T11:43:49Z</time>
      </trkpt>
      <trkpt lat="46.16547" lon="6.6678">
        <ele>1355</ele>
        <time>2022-07-31T11:43:50Z</time>
      </trkpt>
      <trkpt lat="46.16546" lon="6.66779">
        <ele>1355</ele>
        <time>2022-07-31T11:43:51Z</time>
      </trkpt>
      <trkpt lat="46.16545" lon="6.66778">
        <ele>1355</ele>
        <time>2022-07-31T11:43:52Z</time>
      </trkpt>
      <trkpt lat="46.16545" lon="6.66777">
        <ele>1355</ele>
        <time>2022-07-31T11:43:53Z</time>
      </trkpt>
      <trkpt lat="46.16544" lon="6.66776">
        <ele>1354</ele>
        <time>2022-07-31T11:43:54Z</time>
      </trkpt>
      <trkpt lat="46.16544" lon="6.66776">
        <ele>1354</ele>
        <time>2022-07-31T11:43:55Z</time>
      </trkpt>
      <trkpt lat="46.16545" lon="6.66776">
        <ele>1354</ele>
        <time>2022-07-31T11:43:56Z</time>
      </trkpt>
      <trkpt lat="46.16545" lon="6.66777">
        <ele>1354</ele>
        <time>2022-07-31T11:43:57Z</time>
      </trkpt>
      <trkpt lat="46.16545" lon="6.66778">
        <ele>1353</ele>
        <time>2022-07-31T11:43:58Z</time>
      </trkpt>
      <trkpt lat="46.16545" lon="6.66778">
        <ele>1353</ele>
        <time>2022-07-31T11:43:59Z</time>
      </trkpt>
      <trkpt lat="46.16545" lon="6.66778">
        <ele>1353</ele>
        <time>2022-07-31T11:44:00Z</time>
      </trkpt>
      <trkpt lat="46.16545" lon="6.66778">
        <ele>1352</ele>
        <time>2022-07-31T11:44:01Z</time>
      </trkpt>
      <trkpt lat="46.16546" lon="6.66777">
        <ele>1352</ele>
        <time>2022-07-31T11:44:02Z</time>
      </trkpt>
      <trkpt lat="46.16546" lon="6.66776">
        <ele>1352</ele>
        <time>2022-07-31T11:44:03Z</time>
      </trkpt>
      <trkpt lat="46.16546" lon="6.66776">
        <ele>1352</ele>
        <time>2022-07-31T11:44:04Z</time>
      </trkpt>
      <trkpt lat="46.16546" lon="6.66775">
        <ele>1352</ele>
        <time>2022-07-31T11:44:05Z</time>
      </trkpt>
      <trkpt lat="46.16547" lon="6.66775">
        <ele>1352</ele>
        <time>2022-07-31T11:44:06Z</time>
      </trkpt>
      <trkpt lat="46.16548" lon="6.66774">
        <ele>1352</ele>
        <time>2022-07-31T11:44:07Z</time>
      </trkpt>
      <trkpt lat="46.16548" lon="6.66774">
        <ele>1352</ele>
        <time>2022-07-31T11:44:08Z</time>
      </trkpt>
      <trkpt lat="46.16548" lon="6.66774">
        <ele>1351</ele>
        <time>2022-07-31T11:44:09Z</time>
      </trkpt>
      <trkpt lat="46.16548" lon="6.66774">
        <ele>1351</ele>
        <time>2022-07-31T11:44:10Z</time>
      </trkpt>
      <trkpt lat="46.16548" lon="6.66774">
        <ele>1351</ele>
        <time>2022-07-31T11:44:11Z</time>
      </trkpt>
      <trkpt lat="46.16548" lon="6.66774">
        <ele>1351</ele>
        <time>2022-07-31T11:44:12Z</time>
      </trkpt>
      <trkpt lat="46.16548" lon="6.66774">
        <ele>1351</ele>
        <time>2022-07-31T11:44:13Z</time>
      </trkpt>
      <trkpt lat="46.16548" lon="6.66774">
        <ele>1351</ele>
        <time>2022-07-31T11:44:14Z</time>
      </trkpt>
      <trkpt lat="46.16548" lon="6.66774">
        <ele>1351</ele>
        <time>2022-07-31T11:44:15Z</time>
      </trkpt>
      <trkpt lat="46.16548" lon="6.66774">
        <ele>1351</ele>
        <time>2022-07-31T11:44:16Z</time>
      </trkpt>
      <trkpt lat="46.16548" lon="6.66774">
        <ele>1351</ele>
        <time>2022-07-31T11:44:17Z</time>
      </trkpt>
      <trkpt lat="46.16548" lon="6.66774">
        <ele>1351</ele>
        <time>2022-07-31T11:44:18Z</time>
      </trkpt>
      <trkpt lat="46.16548" lon="6.66774">
        <ele>1351</ele>
        <time>2022-07-31T11:44:19Z</time>
      </trkpt>
      <trkpt lat="46.16548" lon="6.66774">
        <ele>1351</ele>
        <time>2022-07-31T11:44:20Z</time>
      </trkpt>
      <trkpt lat="46.16548" lon="6.66774">
        <ele>1351</ele>
        <time>2022-07-31T11:44:21Z</time>
      </trkpt>
      <trkpt lat="46.16548" lon="6.66774">
        <ele>1351</ele>
        <time>2022-07-31T11:44:22Z</time>
      </trkpt>
      <trkpt lat="46.16548" lon="6.66774">
        <ele>1351</ele>
        <time>2022-07-31T11:44:23Z</time>
      </trkpt>
      <trkpt lat="46.16549" lon="6.66774">
        <ele>1351</ele>
        <time>2022-07-31T11:44:24Z</time>
      </trkpt>
      <trkpt lat="46.16549" lon="6.66774">
        <ele>1351</ele>
        <time>2022-07-31T11:44:25Z</time>
      </trkpt>
      <trkpt lat="46.16549" lon="6.66774">
        <ele>1351</ele>
        <time>2022-07-31T11:44:26Z</time>
      </trkpt>
      <trkpt lat="46.16549" lon="6.66774">
        <ele>1351</ele>
        <time>2022-07-31T11:44:27Z</time>
      </trkpt>
      <trkpt lat="46.16549" lon="6.66774">
        <ele>1351</ele>
        <time>2022-07-31T11:44:28Z</time>
      </trkpt>
      <trkpt lat="46.16549" lon="6.66774">
        <ele>1351</ele>
        <time>2022-07-31T11:44:29Z</time>
      </trkpt>
      <trkpt lat="46.16549" lon="6.66775">
        <ele>1351</ele>
        <time>2022-07-31T11:44:30Z</time>
      </trkpt>
      <trkpt lat="46.16549" lon="6.66775">
        <ele>1351</ele>
        <time>2022-07-31T11:44:31Z</time>
      </trkpt>
      <trkpt lat="46.16549" lon="6.66775">
        <ele>1351</ele>
        <time>2022-07-31T11:44:32Z</time>
      </trkpt>
      <trkpt lat="46.16549" lon="6.66775">
        <ele>1351</ele>
        <time>2022-07-31T11:44:33Z</time>
      </trkpt>
      <trkpt lat="46.16549" lon="6.66775">
        <ele>1351</ele>
        <time>2022-07-31T11:44:34Z</time>
      </trkpt>
      <trkpt lat="46.16549" lon="6.66775">
        <ele>1351</ele>
        <time>2022-07-31T11:44:35Z</time>
      </trkpt>
      <trkpt lat="46.16549" lon="6.66775">
        <ele>1351</ele>
        <time>2022-07-31T11:44:36Z</time>
      </trkpt>
      <trkpt lat="46.16549" lon="6.66775">
        <ele>1351</ele>
        <time>2022-07-31T11:44:37Z</time>
      </trkpt>
      <trkpt lat="46.16549" lon="6.66775">
        <ele>1351</ele>
        <time>2022-07-31T11:44:38Z</time>
      </trkpt>
      <trkpt lat="46.16549" lon="6.66775">
        <ele>1351</ele>
        <time>2022-07-31T11:44:39Z</time>
      </trkpt>
      <trkpt lat="46.16549" lon="6.66775">
        <ele>1351</ele>
        <time>2022-07-31T11:44:40Z</time>
      </trkpt>
      <trkpt lat="46.16549" lon="6.66775">
        <ele>1351</ele>
        <time>2022-07-31T11:44:41Z</time>
      </trkpt>
      <trkpt lat="46.16549" lon="6.66775">
        <ele>1351</ele>
        <time>2022-07-31T11:44:42Z</time>
      </trkpt>
      <trkpt lat="46.16549" lon="6.66776">
        <ele>1351</ele>
        <time>2022-07-31T11:44:43Z</time>
      </trkpt>
      <trkpt lat="46.1655" lon="6.66776">
        <ele>1351</ele>
        <time>2022-07-31T11:44:44Z</time>
      </trkpt>
      <trkpt lat="46.1655" lon="6.66776">
        <ele>1351</ele>
        <time>2022-07-31T11:44:45Z</time>
      </trkpt>
      <trkpt lat="46.1655" lon="6.66776">
        <ele>1351</ele>
        <time>2022-07-31T11:44:46Z</time>
      </trkpt>
      <trkpt lat="46.1655" lon="6.66776">
        <ele>1350</ele>
        <time>2022-07-31T11:44:47Z</time>
      </trkpt>
      <trkpt lat="46.16549" lon="6.66776">
        <ele>1350</ele>
        <time>2022-07-31T11:44:48Z</time>
      </trkpt>
      <trkpt lat="46.16548" lon="6.66776">
        <ele>1350</ele>
        <time>2022-07-31T11:44:49Z</time>
      </trkpt>
      <trkpt lat="46.16548" lon="6.66777">
        <ele>1350</ele>
        <time>2022-07-31T11:44:50Z</time>
      </trkpt>
      <trkpt lat="46.16548" lon="6.66778">
        <ele>1350</ele>
        <time>2022-07-31T11:44:51Z</time>
      </trkpt>
      <trkpt lat="46.16547" lon="6.6678">
        <ele>1350</ele>
        <time>2022-07-31T11:44:52Z</time>
      </trkpt>
      <trkpt lat="46.16546" lon="6.66781">
        <ele>1350</ele>
        <time>2022-07-31T11:44:53Z</time>
      </trkpt>
      <trkpt lat="46.16546" lon="6.66781">
        <ele>1350</ele>
        <time>2022-07-31T11:44:54Z</time>
      </trkpt>
      <trkpt lat="46.16545" lon="6.66781">
        <ele>1350</ele>
        <time>2022-07-31T11:44:55Z</time>
      </trkpt>
      <trkpt lat="46.16544" lon="6.66781">
        <ele>1350</ele>
        <time>2022-07-31T11:44:56Z</time>
      </trkpt>
      <trkpt lat="46.16544" lon="6.66781">
        <ele>1350</ele>
        <time>2022-07-31T11:44:57Z</time>
      </trkpt>
      <trkpt lat="46.16544" lon="6.66781">
        <ele>1350</ele>
        <time>2022-07-31T11:44:58Z</time>
      </trkpt>
      <trkpt lat="46.16544" lon="6.66781">
        <ele>1350</ele>
        <time>2022-07-31T11:44:59Z</time>
      </trkpt>
      <trkpt lat="46.16544" lon="6.66781">
        <ele>1350</ele>
        <time>2022-07-31T11:45:00Z</time>
      </trkpt>
      <trkpt lat="46.16545" lon="6.66782">
        <ele>1350</ele>
        <time>2022-07-31T11:45:01Z</time>
      </trkpt>
      <trkpt lat="46.16546" lon="6.66782">
        <ele>1350</ele>
        <time>2022-07-31T11:45:02Z</time>
      </trkpt>
      <trkpt lat="46.16546" lon="6.66782">
        <ele>1350</ele>
        <time>2022-07-31T11:45:03Z</time>
      </trkpt>
      <trkpt lat="46.16545" lon="6.66782">
        <ele>1350</ele>
        <time>2022-07-31T11:45:04Z</time>
      </trkpt>
      <trkpt lat="46.16545" lon="6.66781">
        <ele>1350</ele>
        <time>2022-07-31T11:45:05Z</time>
      </trkpt>
      <trkpt lat="46.16545" lon="6.66781">
        <ele>1350</ele>
        <time>2022-07-31T11:45:06Z</time>
      </trkpt>
      <trkpt lat="46.16545" lon="6.66781">
        <ele>1350</ele>
        <time>2022-07-31T11:45:07Z</time>
      </trkpt>
      <trkpt lat="46.16545" lon="6.66781">
        <ele>1350</ele>
        <time>2022-07-31T11:45:08Z</time>
      </trkpt>
      <trkpt lat="46.16545" lon="6.66781">
        <ele>1350</ele>
        <time>2022-07-31T11:45:09Z</time>
      </trkpt>
      <trkpt lat="46.16545" lon="6.66781">
        <ele>1350</ele>
        <time>2022-07-31T11:45:10Z</time>
      </trkpt>
      <trkpt lat="46.16545" lon="6.66781">
        <ele>1350</ele>
        <time>2022-07-31T11:45:11Z</time>
      </trkpt>
      <trkpt lat="46.16545" lon="6.66782">
        <ele>1350</ele>
        <time>2022-07-31T11:45:12Z</time>
      </trkpt>
      <trkpt lat="46.16545" lon="6.66782">
        <ele>1350</ele>
        <time>2022-07-31T11:45:13Z</time>
      </trkpt>
      <trkpt lat="46.16545" lon="6.66782">
        <ele>1350</ele>
        <time>2022-07-31T11:45:14Z</time>
      </trkpt>
      <trkpt lat="46.16545" lon="6.66782">
        <ele>1350</ele>
        <time>2022-07-31T11:45:15Z</time>
      </trkpt>
      <trkpt lat="46.16545" lon="6.66782">
        <ele>1350</ele>
        <time>2022-07-31T11:45:16Z</time>
      </trkpt>
      <trkpt lat="46.16545" lon="6.66782">
        <ele>1350</ele>
        <time>2022-07-31T11:45:17Z</time>
      </trkpt>
      <trkpt lat="46.16545" lon="6.66782">
        <ele>1350</ele>
        <time>2022-07-31T11:45:18Z</time>
      </trkpt>
      <trkpt lat="46.16545" lon="6.66783">
        <ele>1350</ele>
        <time>2022-07-31T11:45:19Z</time>
      </trkpt>
      <trkpt lat="46.16545" lon="6.66783">
        <ele>1350</ele>
        <time>2022-07-31T11:45:20Z</time>
      </trkpt>
      <trkpt lat="46.16545" lon="6.66783">
        <ele>1350</ele>
        <time>2022-07-31T11:45:21Z</time>
      </trkpt>
      <trkpt lat="46.16545" lon="6.66784">
        <ele>1350</ele>
        <time>2022-07-31T11:45:22Z</time>
      </trkpt>
      <trkpt lat="46.16545" lon="6.66784">
        <ele>1350</ele>
        <time>2022-07-31T11:45:23Z</time>
      </trkpt>
      <trkpt lat="46.16546" lon="6.66784">
        <ele>1350</ele>
        <time>2022-07-31T11:45:24Z</time>
      </trkpt>
      <trkpt lat="46.16546" lon="6.66784">
        <ele>1350</ele>
        <time>2022-07-31T11:45:25Z</time>
      </trkpt>
      <trkpt lat="46.16546" lon="6.66784">
        <ele>1350</ele>
        <time>2022-07-31T11:45:26Z</time>
      </trkpt>
      <trkpt lat="46.16546" lon="6.66785">
        <ele>1350</ele>
        <time>2022-07-31T11:45:27Z</time>
      </trkpt>
      <trkpt lat="46.16546" lon="6.66785">
        <ele>1350</ele>
        <time>2022-07-31T11:45:28Z</time>
      </trkpt>
      <trkpt lat="46.16546" lon="6.66785">
        <ele>1350</ele>
        <time>2022-07-31T11:45:29Z</time>
      </trkpt>
      <trkpt lat="46.16546" lon="6.66785">
        <ele>1350</ele>
        <time>2022-07-31T11:45:30Z</time>
      </trkpt>
      <trkpt lat="46.16546" lon="6.66785">
        <ele>1350</ele>
        <time>2022-07-31T11:45:31Z</time>
      </trkpt>
      <trkpt lat="46.16546" lon="6.66785">
        <ele>1350</ele>
        <time>2022-07-31T11:45:32Z</time>
      </trkpt>
      <trkpt lat="46.16546" lon="6.66785">
        <ele>1350</ele>
        <time>2022-07-31T11:45:33Z</time>
      </trkpt>
      <trkpt lat="46.16546" lon="6.66786">
        <ele>1350</ele>
        <time>2022-07-31T11:45:34Z</time>
      </trkpt>
      <trkpt lat="46.16546" lon="6.66785">
        <ele>1350</ele>
        <time>2022-07-31T11:45:35Z</time>
      </trkpt>
      <trkpt lat="46.16546" lon="6.66785">
        <ele>1350</ele>
        <time>2022-07-31T11:45:36Z</time>
      </trkpt>
      <trkpt lat="46.16546" lon="6.66785">
        <ele>1350</ele>
        <time>2022-07-31T11:45:37Z</time>
      </trkpt>
      <trkpt lat="46.16546" lon="6.66785">
        <ele>1350</ele>
        <time>2022-07-31T11:45:38Z</time>
      </trkpt>
      <trkpt lat="46.16546" lon="6.66785">
        <ele>1350</ele>
        <time>2022-07-31T11:45:39Z</time>
      </trkpt>
      <trkpt lat="46.16546" lon="6.66785">
        <ele>1350</ele>
        <time>2022-07-31T11:45:40Z</time>
      </trkpt>
      <trkpt lat="46.16546" lon="6.66786">
        <ele>1350</ele>
        <time>2022-07-31T11:45:41Z</time>
      </trkpt>
      <trkpt lat="46.16546" lon="6.66786">
        <ele>1350</ele>
        <time>2022-07-31T11:45:42Z</time>
      </trkpt>
      <trkpt lat="46.16546" lon="6.66787">
        <ele>1350</ele>
        <time>2022-07-31T11:45:43Z</time>
      </trkpt>
      <trkpt lat="46.16546" lon="6.66789">
        <ele>1350</ele>
        <time>2022-07-31T11:45:44Z</time>
      </trkpt>
      <trkpt lat="46.16546" lon="6.6679">
        <ele>1351</ele>
        <time>2022-07-31T11:45:45Z</time>
      </trkpt>
      <trkpt lat="46.16546" lon="6.66791">
        <ele>1351</ele>
        <time>2022-07-31T11:45:46Z</time>
      </trkpt>
      <trkpt lat="46.16545" lon="6.66793">
        <ele>1351</ele>
        <time>2022-07-31T11:45:47Z</time>
      </trkpt>
      <trkpt lat="46.16544" lon="6.66794">
        <ele>1351</ele>
        <time>2022-07-31T11:45:48Z</time>
      </trkpt>
      <trkpt lat="46.16544" lon="6.66796">
        <ele>1351</ele>
        <time>2022-07-31T11:45:49Z</time>
      </trkpt>
      <trkpt lat="46.16544" lon="6.66797">
        <ele>1351</ele>
        <time>2022-07-31T11:45:50Z</time>
      </trkpt>
      <trkpt lat="46.16543" lon="6.66797">
        <ele>1351</ele>
        <time>2022-07-31T11:45:51Z</time>
      </trkpt>
      <trkpt lat="46.16544" lon="6.66799">
        <ele>1351</ele>
        <time>2022-07-31T11:45:52Z</time>
      </trkpt>
      <trkpt lat="46.16544" lon="6.668">
        <ele>1351</ele>
        <time>2022-07-31T11:45:53Z</time>
      </trkpt>
      <trkpt lat="46.16545" lon="6.66801">
        <ele>1351</ele>
        <time>2022-07-31T11:45:54Z</time>
      </trkpt>
      <trkpt lat="46.16545" lon="6.66802">
        <ele>1351</ele>
        <time>2022-07-31T11:45:55Z</time>
      </trkpt>
      <trkpt lat="46.16545" lon="6.66804">
        <ele>1351</ele>
        <time>2022-07-31T11:45:56Z</time>
      </trkpt>
      <trkpt lat="46.16544" lon="6.66805">
        <ele>1351</ele>
        <time>2022-07-31T11:45:57Z</time>
      </trkpt>
      <trkpt lat="46.16544" lon="6.66808">
        <ele>1351</ele>
        <time>2022-07-31T11:45:58Z</time>
      </trkpt>
      <trkpt lat="46.16544" lon="6.66809">
        <ele>1351</ele>
        <time>2022-07-31T11:45:59Z</time>
      </trkpt>
      <trkpt lat="46.16543" lon="6.66811">
        <ele>1350</ele>
        <time>2022-07-31T11:46:00Z</time>
      </trkpt>
      <trkpt lat="46.16543" lon="6.66813">
        <ele>1350</ele>
        <time>2022-07-31T11:46:01Z</time>
      </trkpt>
      <trkpt lat="46.16543" lon="6.66814">
        <ele>1350</ele>
        <time>2022-07-31T11:46:02Z</time>
      </trkpt>
      <trkpt lat="46.16543" lon="6.66815">
        <ele>1350</ele>
        <time>2022-07-31T11:46:03Z</time>
      </trkpt>
      <trkpt lat="46.16543" lon="6.66816">
        <ele>1350</ele>
        <time>2022-07-31T11:46:04Z</time>
      </trkpt>
      <trkpt lat="46.16543" lon="6.66817">
        <ele>1350</ele>
        <time>2022-07-31T11:46:05Z</time>
      </trkpt>
      <trkpt lat="46.16543" lon="6.66818">
        <ele>1350</ele>
        <time>2022-07-31T11:46:06Z</time>
      </trkpt>
      <trkpt lat="46.16543" lon="6.66819">
        <ele>1350</ele>
        <time>2022-07-31T11:46:07Z</time>
      </trkpt>
      <trkpt lat="46.16543" lon="6.6682">
        <ele>1350</ele>
        <time>2022-07-31T11:46:08Z</time>
      </trkpt>
      <trkpt lat="46.16543" lon="6.66822">
        <ele>1350</ele>
        <time>2022-07-31T11:46:09Z</time>
      </trkpt>
      <trkpt lat="46.16543" lon="6.66824">
        <ele>1350</ele>
        <time>2022-07-31T11:46:10Z</time>
      </trkpt>
      <trkpt lat="46.16543" lon="6.66826">
        <ele>1350</ele>
        <time>2022-07-31T11:46:11Z</time>
      </trkpt>
      <trkpt lat="46.16543" lon="6.66828">
        <ele>1350</ele>
        <time>2022-07-31T11:46:12Z</time>
      </trkpt>
      <trkpt lat="46.16542" lon="6.6683">
        <ele>1350</ele>
        <time>2022-07-31T11:46:13Z</time>
      </trkpt>
      <trkpt lat="46.16542" lon="6.66832">
        <ele>1350</ele>
        <time>2022-07-31T11:46:14Z</time>
      </trkpt>
      <trkpt lat="46.16542" lon="6.66835">
        <ele>1349</ele>
        <time>2022-07-31T11:46:15Z</time>
      </trkpt>
      <trkpt lat="46.16543" lon="6.66837">
        <ele>1349</ele>
        <time>2022-07-31T11:46:16Z</time>
      </trkpt>
      <trkpt lat="46.16543" lon="6.66838">
        <ele>1349</ele>
        <time>2022-07-31T11:46:17Z</time>
      </trkpt>
      <trkpt lat="46.16542" lon="6.6684">
        <ele>1349</ele>
        <time>2022-07-31T11:46:18Z</time>
      </trkpt>
      <trkpt lat="46.16542" lon="6.66841">
        <ele>1349</ele>
        <time>2022-07-31T11:46:19Z</time>
      </trkpt>
      <trkpt lat="46.16541" lon="6.66843">
        <ele>1348</ele>
        <time>2022-07-31T11:46:20Z</time>
      </trkpt>
      <trkpt lat="46.16541" lon="6.66844">
        <ele>1348</ele>
        <time>2022-07-31T11:46:21Z</time>
      </trkpt>
      <trkpt lat="46.1654" lon="6.66847">
        <ele>1348</ele>
        <time>2022-07-31T11:46:22Z</time>
      </trkpt>
      <trkpt lat="46.1654" lon="6.66849">
        <ele>1348</ele>
        <time>2022-07-31T11:46:23Z</time>
      </trkpt>
      <trkpt lat="46.16539" lon="6.66851">
        <ele>1348</ele>
        <time>2022-07-31T11:46:24Z</time>
      </trkpt>
      <trkpt lat="46.16538" lon="6.66852">
        <ele>1348</ele>
        <time>2022-07-31T11:46:25Z</time>
      </trkpt>
      <trkpt lat="46.16537" lon="6.66852">
        <ele>1347</ele>
        <time>2022-07-31T11:46:26Z</time>
      </trkpt>
      <trkpt lat="46.16536" lon="6.66854">
        <ele>1347</ele>
        <time>2022-07-31T11:46:27Z</time>
      </trkpt>
      <trkpt lat="46.16534" lon="6.66855">
        <ele>1347</ele>
        <time>2022-07-31T11:46:28Z</time>
      </trkpt>
      <trkpt lat="46.16533" lon="6.66856">
        <ele>1347</ele>
        <time>2022-07-31T11:46:29Z</time>
      </trkpt>
      <trkpt lat="46.16532" lon="6.66858">
        <ele>1347</ele>
        <time>2022-07-31T11:46:30Z</time>
      </trkpt>
      <trkpt lat="46.16531" lon="6.66858">
        <ele>1347</ele>
        <time>2022-07-31T11:46:31Z</time>
      </trkpt>
      <trkpt lat="46.1653" lon="6.66858">
        <ele>1347</ele>
        <time>2022-07-31T11:46:32Z</time>
      </trkpt>
      <trkpt lat="46.16529" lon="6.66859">
        <ele>1347</ele>
        <time>2022-07-31T11:46:33Z</time>
      </trkpt>
      <trkpt lat="46.16527" lon="6.66859">
        <ele>1347</ele>
        <time>2022-07-31T11:46:34Z</time>
      </trkpt>
      <trkpt lat="46.16526" lon="6.66859">
        <ele>1347</ele>
        <time>2022-07-31T11:46:35Z</time>
      </trkpt>
      <trkpt lat="46.16525" lon="6.6686">
        <ele>1347</ele>
        <time>2022-07-31T11:46:36Z</time>
      </trkpt>
      <trkpt lat="46.16524" lon="6.66861">
        <ele>1347</ele>
        <time>2022-07-31T11:46:37Z</time>
      </trkpt>
      <trkpt lat="46.16523" lon="6.66862">
        <ele>1347</ele>
        <time>2022-07-31T11:46:38Z</time>
      </trkpt>
      <trkpt lat="46.16522" lon="6.66862">
        <ele>1346</ele>
        <time>2022-07-31T11:46:39Z</time>
      </trkpt>
      <trkpt lat="46.16522" lon="6.66862">
        <ele>1346</ele>
        <time>2022-07-31T11:46:40Z</time>
      </trkpt>
      <trkpt lat="46.16522" lon="6.66862">
        <ele>1346</ele>
        <time>2022-07-31T11:46:41Z</time>
      </trkpt>
      <trkpt lat="46.16521" lon="6.66862">
        <ele>1346</ele>
        <time>2022-07-31T11:46:42Z</time>
      </trkpt>
      <trkpt lat="46.1652" lon="6.66863">
        <ele>1346</ele>
        <time>2022-07-31T11:46:43Z</time>
      </trkpt>
      <trkpt lat="46.16518" lon="6.66863">
        <ele>1346</ele>
        <time>2022-07-31T11:46:44Z</time>
      </trkpt>
      <trkpt lat="46.16517" lon="6.66863">
        <ele>1346</ele>
        <time>2022-07-31T11:46:45Z</time>
      </trkpt>
      <trkpt lat="46.16516" lon="6.66862">
        <ele>1346</ele>
        <time>2022-07-31T11:46:46Z</time>
      </trkpt>
      <trkpt lat="46.16516" lon="6.66861">
        <ele>1346</ele>
        <time>2022-07-31T11:46:47Z</time>
      </trkpt>
      <trkpt lat="46.16516" lon="6.66861">
        <ele>1346</ele>
        <time>2022-07-31T11:46:48Z</time>
      </trkpt>
      <trkpt lat="46.16514" lon="6.66861">
        <ele>1346</ele>
        <time>2022-07-31T11:46:49Z</time>
      </trkpt>
      <trkpt lat="46.16513" lon="6.66861">
        <ele>1346</ele>
        <time>2022-07-31T11:46:50Z</time>
      </trkpt>
      <trkpt lat="46.16512" lon="6.66861">
        <ele>1345</ele>
        <time>2022-07-31T11:46:51Z</time>
      </trkpt>
      <trkpt lat="46.1651" lon="6.66861">
        <ele>1345</ele>
        <time>2022-07-31T11:46:52Z</time>
      </trkpt>
      <trkpt lat="46.16509" lon="6.66862">
        <ele>1345</ele>
        <time>2022-07-31T11:46:53Z</time>
      </trkpt>
      <trkpt lat="46.16508" lon="6.66863">
        <ele>1345</ele>
        <time>2022-07-31T11:46:54Z</time>
      </trkpt>
      <trkpt lat="46.16507" lon="6.66863">
        <ele>1344</ele>
        <time>2022-07-31T11:46:55Z</time>
      </trkpt>
      <trkpt lat="46.16505" lon="6.66863">
        <ele>1344</ele>
        <time>2022-07-31T11:46:56Z</time>
      </trkpt>
      <trkpt lat="46.16504" lon="6.66862">
        <ele>1344</ele>
        <time>2022-07-31T11:46:57Z</time>
      </trkpt>
      <trkpt lat="46.16504" lon="6.66862">
        <ele>1344</ele>
        <time>2022-07-31T11:46:58Z</time>
      </trkpt>
      <trkpt lat="46.16503" lon="6.66862">
        <ele>1343</ele>
        <time>2022-07-31T11:46:59Z</time>
      </trkpt>
      <trkpt lat="46.16502" lon="6.66861">
        <ele>1343</ele>
        <time>2022-07-31T11:47:00Z</time>
      </trkpt>
      <trkpt lat="46.165" lon="6.66859">
        <ele>1343</ele>
        <time>2022-07-31T11:47:01Z</time>
      </trkpt>
      <trkpt lat="46.16499" lon="6.66858">
        <ele>1343</ele>
        <time>2022-07-31T11:47:02Z</time>
      </trkpt>
      <trkpt lat="46.16497" lon="6.66858">
        <ele>1343</ele>
        <time>2022-07-31T11:47:03Z</time>
      </trkpt>
      <trkpt lat="46.16497" lon="6.66857">
        <ele>1343</ele>
        <time>2022-07-31T11:47:04Z</time>
      </trkpt>
      <trkpt lat="46.16496" lon="6.66856">
        <ele>1342</ele>
        <time>2022-07-31T11:47:05Z</time>
      </trkpt>
      <trkpt lat="46.16496" lon="6.66857">
        <ele>1342</ele>
        <time>2022-07-31T11:47:06Z</time>
      </trkpt>
      <trkpt lat="46.16494" lon="6.66857">
        <ele>1342</ele>
        <time>2022-07-31T11:47:07Z</time>
      </trkpt>
      <trkpt lat="46.16494" lon="6.66858">
        <ele>1342</ele>
        <time>2022-07-31T11:47:08Z</time>
      </trkpt>
      <trkpt lat="46.16492" lon="6.66858">
        <ele>1342</ele>
        <time>2022-07-31T11:47:09Z</time>
      </trkpt>
      <trkpt lat="46.16489" lon="6.66859">
        <ele>1341</ele>
        <time>2022-07-31T11:47:10Z</time>
      </trkpt>
      <trkpt lat="46.16488" lon="6.6686">
        <ele>1341</ele>
        <time>2022-07-31T11:47:11Z</time>
      </trkpt>
      <trkpt lat="46.16487" lon="6.6686">
        <ele>1341</ele>
        <time>2022-07-31T11:47:12Z</time>
      </trkpt>
      <trkpt lat="46.16486" lon="6.66862">
        <ele>1341</ele>
        <time>2022-07-31T11:47:13Z</time>
      </trkpt>
      <trkpt lat="46.16485" lon="6.66863">
        <ele>1341</ele>
        <time>2022-07-31T11:47:14Z</time>
      </trkpt>
      <trkpt lat="46.16484" lon="6.66866">
        <ele>1340</ele>
        <time>2022-07-31T11:47:15Z</time>
      </trkpt>
      <trkpt lat="46.16484" lon="6.66869">
        <ele>1340</ele>
        <time>2022-07-31T11:47:16Z</time>
      </trkpt>
      <trkpt lat="46.16484" lon="6.66871">
        <ele>1340</ele>
        <time>2022-07-31T11:47:17Z</time>
      </trkpt>
      <trkpt lat="46.16482" lon="6.66872">
        <ele>1339</ele>
        <time>2022-07-31T11:47:18Z</time>
      </trkpt>
      <trkpt lat="46.16482" lon="6.66874">
        <ele>1339</ele>
        <time>2022-07-31T11:47:19Z</time>
      </trkpt>
      <trkpt lat="46.1648" lon="6.66875">
        <ele>1339</ele>
        <time>2022-07-31T11:47:20Z</time>
      </trkpt>
      <trkpt lat="46.16479" lon="6.66877">
        <ele>1339</ele>
        <time>2022-07-31T11:47:21Z</time>
      </trkpt>
      <trkpt lat="46.16478" lon="6.66878">
        <ele>1338</ele>
        <time>2022-07-31T11:47:22Z</time>
      </trkpt>
      <trkpt lat="46.16477" lon="6.6688">
        <ele>1338</ele>
        <time>2022-07-31T11:47:23Z</time>
      </trkpt>
      <trkpt lat="46.16477" lon="6.66882">
        <ele>1338</ele>
        <time>2022-07-31T11:47:24Z</time>
      </trkpt>
      <trkpt lat="46.16477" lon="6.66883">
        <ele>1338</ele>
        <time>2022-07-31T11:47:25Z</time>
      </trkpt>
      <trkpt lat="46.16476" lon="6.66884">
        <ele>1337</ele>
        <time>2022-07-31T11:47:26Z</time>
      </trkpt>
      <trkpt lat="46.16474" lon="6.66886">
        <ele>1337</ele>
        <time>2022-07-31T11:47:27Z</time>
      </trkpt>
      <trkpt lat="46.16473" lon="6.66886">
        <ele>1337</ele>
        <time>2022-07-31T11:47:28Z</time>
      </trkpt>
      <trkpt lat="46.16472" lon="6.66888">
        <ele>1337</ele>
        <time>2022-07-31T11:47:29Z</time>
      </trkpt>
      <trkpt lat="46.16471" lon="6.66889">
        <ele>1336</ele>
        <time>2022-07-31T11:47:30Z</time>
      </trkpt>
      <trkpt lat="46.16471" lon="6.66891">
        <ele>1336</ele>
        <time>2022-07-31T11:47:31Z</time>
      </trkpt>
      <trkpt lat="46.16471" lon="6.66892">
        <ele>1336</ele>
        <time>2022-07-31T11:47:32Z</time>
      </trkpt>
      <trkpt lat="46.1647" lon="6.66894">
        <ele>1336</ele>
        <time>2022-07-31T11:47:33Z</time>
      </trkpt>
      <trkpt lat="46.1647" lon="6.66895">
        <ele>1336</ele>
        <time>2022-07-31T11:47:34Z</time>
      </trkpt>
      <trkpt lat="46.16469" lon="6.66895">
        <ele>1335</ele>
        <time>2022-07-31T11:47:35Z</time>
      </trkpt>
      <trkpt lat="46.16468" lon="6.66896">
        <ele>1335</ele>
        <time>2022-07-31T11:47:36Z</time>
      </trkpt>
      <trkpt lat="46.16468" lon="6.66897">
        <ele>1335</ele>
        <time>2022-07-31T11:47:37Z</time>
      </trkpt>
      <trkpt lat="46.16467" lon="6.66897">
        <ele>1335</ele>
        <time>2022-07-31T11:47:38Z</time>
      </trkpt>
      <trkpt lat="46.16467" lon="6.66899">
        <ele>1335</ele>
        <time>2022-07-31T11:47:39Z</time>
      </trkpt>
      <trkpt lat="46.16467" lon="6.66901">
        <ele>1334</ele>
        <time>2022-07-31T11:47:40Z</time>
      </trkpt>
      <trkpt lat="46.16467" lon="6.66902">
        <ele>1334</ele>
        <time>2022-07-31T11:47:41Z</time>
      </trkpt>
      <trkpt lat="46.16466" lon="6.66904">
        <ele>1334</ele>
        <time>2022-07-31T11:47:42Z</time>
      </trkpt>
      <trkpt lat="46.16466" lon="6.66905">
        <ele>1334</ele>
        <time>2022-07-31T11:47:43Z</time>
      </trkpt>
      <trkpt lat="46.16466" lon="6.66907">
        <ele>1333</ele>
        <time>2022-07-31T11:47:44Z</time>
      </trkpt>
      <trkpt lat="46.16466" lon="6.66909">
        <ele>1333</ele>
        <time>2022-07-31T11:47:45Z</time>
      </trkpt>
      <trkpt lat="46.16466" lon="6.66911">
        <ele>1333</ele>
        <time>2022-07-31T11:47:46Z</time>
      </trkpt>
      <trkpt lat="46.16466" lon="6.66912">
        <ele>1332</ele>
        <time>2022-07-31T11:47:47Z</time>
      </trkpt>
      <trkpt lat="46.16465" lon="6.66914">
        <ele>1332</ele>
        <time>2022-07-31T11:47:48Z</time>
      </trkpt>
      <trkpt lat="46.16465" lon="6.66915">
        <ele>1332</ele>
        <time>2022-07-31T11:47:49Z</time>
      </trkpt>
      <trkpt lat="46.16465" lon="6.66917">
        <ele>1331</ele>
        <time>2022-07-31T11:47:50Z</time>
      </trkpt>
      <trkpt lat="46.16464" lon="6.66918">
        <ele>1331</ele>
        <time>2022-07-31T11:47:51Z</time>
      </trkpt>
      <trkpt lat="46.16464" lon="6.66919">
        <ele>1331</ele>
        <time>2022-07-31T11:47:52Z</time>
      </trkpt>
      <trkpt lat="46.16464" lon="6.66921">
        <ele>1330</ele>
        <time>2022-07-31T11:47:53Z</time>
      </trkpt>
      <trkpt lat="46.16463" lon="6.66922">
        <ele>1330</ele>
        <time>2022-07-31T11:47:54Z</time>
      </trkpt>
      <trkpt lat="46.16463" lon="6.66923">
        <ele>1330</ele>
        <time>2022-07-31T11:47:55Z</time>
      </trkpt>
      <trkpt lat="46.16462" lon="6.66925">
        <ele>1330</ele>
        <time>2022-07-31T11:47:56Z</time>
      </trkpt>
      <trkpt lat="46.16461" lon="6.66927">
        <ele>1329</ele>
        <time>2022-07-31T11:47:57Z</time>
      </trkpt>
      <trkpt lat="46.1646" lon="6.66928">
        <ele>1329</ele>
        <time>2022-07-31T11:47:58Z</time>
      </trkpt>
      <trkpt lat="46.16459" lon="6.6693">
        <ele>1329</ele>
        <time>2022-07-31T11:47:59Z</time>
      </trkpt>
      <trkpt lat="46.16459" lon="6.66931">
        <ele>1328</ele>
        <time>2022-07-31T11:48:00Z</time>
      </trkpt>
      <trkpt lat="46.16458" lon="6.66932">
        <ele>1328</ele>
        <time>2022-07-31T11:48:01Z</time>
      </trkpt>
      <trkpt lat="46.16457" lon="6.66932">
        <ele>1328</ele>
        <time>2022-07-31T11:48:02Z</time>
      </trkpt>
      <trkpt lat="46.16456" lon="6.66932">
        <ele>1328</ele>
        <time>2022-07-31T11:48:03Z</time>
      </trkpt>
      <trkpt lat="46.16456" lon="6.66933">
        <ele>1327</ele>
        <time>2022-07-31T11:48:04Z</time>
      </trkpt>
      <trkpt lat="46.16455" lon="6.66935">
        <ele>1327</ele>
        <time>2022-07-31T11:48:05Z</time>
      </trkpt>
      <trkpt lat="46.16455" lon="6.66937">
        <ele>1327</ele>
        <time>2022-07-31T11:48:06Z</time>
      </trkpt>
      <trkpt lat="46.16455" lon="6.66939">
        <ele>1326</ele>
        <time>2022-07-31T11:48:07Z</time>
      </trkpt>
      <trkpt lat="46.16455" lon="6.66941">
        <ele>1326</ele>
        <time>2022-07-31T11:48:08Z</time>
      </trkpt>
      <trkpt lat="46.16455" lon="6.66943">
        <ele>1325</ele>
        <time>2022-07-31T11:48:09Z</time>
      </trkpt>
      <trkpt lat="46.16455" lon="6.66944">
        <ele>1325</ele>
        <time>2022-07-31T11:48:10Z</time>
      </trkpt>
      <trkpt lat="46.16455" lon="6.66945">
        <ele>1325</ele>
        <time>2022-07-31T11:48:11Z</time>
      </trkpt>
      <trkpt lat="46.16455" lon="6.66946">
        <ele>1324</ele>
        <time>2022-07-31T11:48:12Z</time>
      </trkpt>
      <trkpt lat="46.16453" lon="6.66947">
        <ele>1324</ele>
        <time>2022-07-31T11:48:13Z</time>
      </trkpt>
      <trkpt lat="46.16453" lon="6.66949">
        <ele>1324</ele>
        <time>2022-07-31T11:48:14Z</time>
      </trkpt>
      <trkpt lat="46.16452" lon="6.6695">
        <ele>1323</ele>
        <time>2022-07-31T11:48:15Z</time>
      </trkpt>
      <trkpt lat="46.16452" lon="6.66951">
        <ele>1323</ele>
        <time>2022-07-31T11:48:16Z</time>
      </trkpt>
      <trkpt lat="46.16452" lon="6.66952">
        <ele>1323</ele>
        <time>2022-07-31T11:48:17Z</time>
      </trkpt>
      <trkpt lat="46.16452" lon="6.66951">
        <ele>1322</ele>
        <time>2022-07-31T11:48:18Z</time>
      </trkpt>
      <trkpt lat="46.16452" lon="6.66951">
        <ele>1322</ele>
        <time>2022-07-31T11:48:19Z</time>
      </trkpt>
      <trkpt lat="46.16452" lon="6.6695">
        <ele>1322</ele>
        <time>2022-07-31T11:48:20Z</time>
      </trkpt>
      <trkpt lat="46.16452" lon="6.6695">
        <ele>1322</ele>
        <time>2022-07-31T11:48:21Z</time>
      </trkpt>
      <trkpt lat="46.16452" lon="6.66951">
        <ele>1321</ele>
        <time>2022-07-31T11:48:22Z</time>
      </trkpt>
      <trkpt lat="46.16452" lon="6.66951">
        <ele>1321</ele>
        <time>2022-07-31T11:48:23Z</time>
      </trkpt>
      <trkpt lat="46.16452" lon="6.66952">
        <ele>1321</ele>
        <time>2022-07-31T11:48:24Z</time>
      </trkpt>
      <trkpt lat="46.16452" lon="6.66954">
        <ele>1321</ele>
        <time>2022-07-31T11:48:25Z</time>
      </trkpt>
      <trkpt lat="46.16452" lon="6.66955">
        <ele>1320</ele>
        <time>2022-07-31T11:48:26Z</time>
      </trkpt>
      <trkpt lat="46.16452" lon="6.66956">
        <ele>1320</ele>
        <time>2022-07-31T11:48:27Z</time>
      </trkpt>
      <trkpt lat="46.16452" lon="6.66956">
        <ele>1320</ele>
        <time>2022-07-31T11:48:28Z</time>
      </trkpt>
      <trkpt lat="46.16451" lon="6.66956">
        <ele>1320</ele>
        <time>2022-07-31T11:48:29Z</time>
      </trkpt>
      <trkpt lat="46.16451" lon="6.66957">
        <ele>1320</ele>
        <time>2022-07-31T11:48:30Z</time>
      </trkpt>
      <trkpt lat="46.16451" lon="6.66958">
        <ele>1320</ele>
        <time>2022-07-31T11:48:31Z</time>
      </trkpt>
      <trkpt lat="46.16451" lon="6.66959">
        <ele>1319</ele>
        <time>2022-07-31T11:48:32Z</time>
      </trkpt>
      <trkpt lat="46.16451" lon="6.66959">
        <ele>1319</ele>
        <time>2022-07-31T11:48:33Z</time>
      </trkpt>
      <trkpt lat="46.16451" lon="6.6696">
        <ele>1319</ele>
        <time>2022-07-31T11:48:34Z</time>
      </trkpt>
      <trkpt lat="46.16451" lon="6.66961">
        <ele>1319</ele>
        <time>2022-07-31T11:48:35Z</time>
      </trkpt>
      <trkpt lat="46.16451" lon="6.66962">
        <ele>1319</ele>
        <time>2022-07-31T11:48:36Z</time>
      </trkpt>
      <trkpt lat="46.16451" lon="6.66963">
        <ele>1319</ele>
        <time>2022-07-31T11:48:37Z</time>
      </trkpt>
      <trkpt lat="46.16451" lon="6.66963">
        <ele>1318</ele>
        <time>2022-07-31T11:48:38Z</time>
      </trkpt>
      <trkpt lat="46.1645" lon="6.66965">
        <ele>1318</ele>
        <time>2022-07-31T11:48:39Z</time>
      </trkpt>
      <trkpt lat="46.1645" lon="6.66966">
        <ele>1318</ele>
        <time>2022-07-31T11:48:40Z</time>
      </trkpt>
      <trkpt lat="46.1645" lon="6.66969">
        <ele>1318</ele>
        <time>2022-07-31T11:48:41Z</time>
      </trkpt>
      <trkpt lat="46.16449" lon="6.6697">
        <ele>1317</ele>
        <time>2022-07-31T11:48:42Z</time>
      </trkpt>
      <trkpt lat="46.16449" lon="6.66971">
        <ele>1317</ele>
        <time>2022-07-31T11:48:43Z</time>
      </trkpt>
      <trkpt lat="46.16448" lon="6.66971">
        <ele>1317</ele>
        <time>2022-07-31T11:48:44Z</time>
      </trkpt>
      <trkpt lat="46.16448" lon="6.66973">
        <ele>1317</ele>
        <time>2022-07-31T11:48:45Z</time>
      </trkpt>
      <trkpt lat="46.16448" lon="6.66973">
        <ele>1316</ele>
        <time>2022-07-31T11:48:46Z</time>
      </trkpt>
      <trkpt lat="46.16449" lon="6.66974">
        <ele>1316</ele>
        <time>2022-07-31T11:48:47Z</time>
      </trkpt>
      <trkpt lat="46.16449" lon="6.66974">
        <ele>1316</ele>
        <time>2022-07-31T11:48:48Z</time>
      </trkpt>
      <trkpt lat="46.16449" lon="6.66975">
        <ele>1316</ele>
        <time>2022-07-31T11:48:49Z</time>
      </trkpt>
      <trkpt lat="46.16449" lon="6.66975">
        <ele>1315</ele>
        <time>2022-07-31T11:48:50Z</time>
      </trkpt>
      <trkpt lat="46.16448" lon="6.66976">
        <ele>1315</ele>
        <time>2022-07-31T11:48:51Z</time>
      </trkpt>
      <trkpt lat="46.16448" lon="6.66975">
        <ele>1315</ele>
        <time>2022-07-31T11:48:52Z</time>
      </trkpt>
      <trkpt lat="46.16448" lon="6.66975">
        <ele>1315</ele>
        <time>2022-07-31T11:48:53Z</time>
      </trkpt>
      <trkpt lat="46.16447" lon="6.66974">
        <ele>1315</ele>
        <time>2022-07-31T11:48:54Z</time>
      </trkpt>
      <trkpt lat="46.16447" lon="6.66975">
        <ele>1314</ele>
        <time>2022-07-31T11:48:55Z</time>
      </trkpt>
      <trkpt lat="46.16447" lon="6.66975">
        <ele>1314</ele>
        <time>2022-07-31T11:48:56Z</time>
      </trkpt>
      <trkpt lat="46.16448" lon="6.66975">
        <ele>1314</ele>
        <time>2022-07-31T11:48:57Z</time>
      </trkpt>
      <trkpt lat="46.16448" lon="6.66975">
        <ele>1314</ele>
        <time>2022-07-31T11:48:58Z</time>
      </trkpt>
      <trkpt lat="46.16447" lon="6.66975">
        <ele>1314</ele>
        <time>2022-07-31T11:48:59Z</time>
      </trkpt>
      <trkpt lat="46.16446" lon="6.66975">
        <ele>1314</ele>
        <time>2022-07-31T11:49:00Z</time>
      </trkpt>
      <trkpt lat="46.16445" lon="6.66975">
        <ele>1313</ele>
        <time>2022-07-31T11:49:01Z</time>
      </trkpt>
      <trkpt lat="46.16445" lon="6.66974">
        <ele>1313</ele>
        <time>2022-07-31T11:49:02Z</time>
      </trkpt>
      <trkpt lat="46.16444" lon="6.66975">
        <ele>1313</ele>
        <time>2022-07-31T11:49:03Z</time>
      </trkpt>
      <trkpt lat="46.16443" lon="6.66975">
        <ele>1313</ele>
        <time>2022-07-31T11:49:04Z</time>
      </trkpt>
      <trkpt lat="46.16442" lon="6.66976">
        <ele>1313</ele>
        <time>2022-07-31T11:49:05Z</time>
      </trkpt>
      <trkpt lat="46.16442" lon="6.66976">
        <ele>1312</ele>
        <time>2022-07-31T11:49:06Z</time>
      </trkpt>
      <trkpt lat="46.16441" lon="6.66976">
        <ele>1312</ele>
        <time>2022-07-31T11:49:07Z</time>
      </trkpt>
      <trkpt lat="46.16439" lon="6.66977">
        <ele>1312</ele>
        <time>2022-07-31T11:49:08Z</time>
      </trkpt>
      <trkpt lat="46.16439" lon="6.66978">
        <ele>1311</ele>
        <time>2022-07-31T11:49:09Z</time>
      </trkpt>
      <trkpt lat="46.16438" lon="6.66978">
        <ele>1311</ele>
        <time>2022-07-31T11:49:10Z</time>
      </trkpt>
      <trkpt lat="46.16437" lon="6.66978">
        <ele>1311</ele>
        <time>2022-07-31T11:49:11Z</time>
      </trkpt>
      <trkpt lat="46.16436" lon="6.66978">
        <ele>1310</ele>
        <time>2022-07-31T11:49:12Z</time>
      </trkpt>
      <trkpt lat="46.16435" lon="6.66977">
        <ele>1310</ele>
        <time>2022-07-31T11:49:13Z</time>
      </trkpt>
      <trkpt lat="46.16434" lon="6.66977">
        <ele>1310</ele>
        <time>2022-07-31T11:49:14Z</time>
      </trkpt>
      <trkpt lat="46.16433" lon="6.66977">
        <ele>1309</ele>
        <time>2022-07-31T11:49:15Z</time>
      </trkpt>
      <trkpt lat="46.16433" lon="6.66977">
        <ele>1309</ele>
        <time>2022-07-31T11:49:16Z</time>
      </trkpt>
      <trkpt lat="46.1643" lon="6.66976">
        <ele>1309</ele>
        <time>2022-07-31T11:49:17Z</time>
      </trkpt>
      <trkpt lat="46.16428" lon="6.66976">
        <ele>1308</ele>
        <time>2022-07-31T11:49:18Z</time>
      </trkpt>
      <trkpt lat="46.16426" lon="6.66975">
        <ele>1308</ele>
        <time>2022-07-31T11:49:19Z</time>
      </trkpt>
      <trkpt lat="46.16426" lon="6.66976">
        <ele>1308</ele>
        <time>2022-07-31T11:49:20Z</time>
      </trkpt>
      <trkpt lat="46.16425" lon="6.66976">
        <ele>1308</ele>
        <time>2022-07-31T11:49:21Z</time>
      </trkpt>
      <trkpt lat="46.16422" lon="6.66976">
        <ele>1307</ele>
        <time>2022-07-31T11:49:22Z</time>
      </trkpt>
      <trkpt lat="46.16421" lon="6.66976">
        <ele>1307</ele>
        <time>2022-07-31T11:49:23Z</time>
      </trkpt>
      <trkpt lat="46.1642" lon="6.66976">
        <ele>1306</ele>
        <time>2022-07-31T11:49:24Z</time>
      </trkpt>
      <trkpt lat="46.16419" lon="6.66976">
        <ele>1306</ele>
        <time>2022-07-31T11:49:25Z</time>
      </trkpt>
      <trkpt lat="46.16418" lon="6.66977">
        <ele>1306</ele>
        <time>2022-07-31T11:49:26Z</time>
      </trkpt>
      <trkpt lat="46.16416" lon="6.66977">
        <ele>1305</ele>
        <time>2022-07-31T11:49:27Z</time>
      </trkpt>
      <trkpt lat="46.16415" lon="6.66977">
        <ele>1305</ele>
        <time>2022-07-31T11:49:28Z</time>
      </trkpt>
      <trkpt lat="46.16413" lon="6.66977">
        <ele>1305</ele>
        <time>2022-07-31T11:49:29Z</time>
      </trkpt>
      <trkpt lat="46.16412" lon="6.66976">
        <ele>1305</ele>
        <time>2022-07-31T11:49:30Z</time>
      </trkpt>
      <trkpt lat="46.1641" lon="6.66976">
        <ele>1304</ele>
        <time>2022-07-31T11:49:31Z</time>
      </trkpt>
      <trkpt lat="46.16409" lon="6.66976">
        <ele>1304</ele>
        <time>2022-07-31T11:49:32Z</time>
      </trkpt>
      <trkpt lat="46.16408" lon="6.66976">
        <ele>1304</ele>
        <time>2022-07-31T11:49:33Z</time>
      </trkpt>
      <trkpt lat="46.16408" lon="6.66978">
        <ele>1304</ele>
        <time>2022-07-31T11:49:34Z</time>
      </trkpt>
      <trkpt lat="46.16408" lon="6.66979">
        <ele>1304</ele>
        <time>2022-07-31T11:49:35Z</time>
      </trkpt>
      <trkpt lat="46.16408" lon="6.6698">
        <ele>1303</ele>
        <time>2022-07-31T11:49:36Z</time>
      </trkpt>
      <trkpt lat="46.16408" lon="6.66981">
        <ele>1303</ele>
        <time>2022-07-31T11:49:37Z</time>
      </trkpt>
      <trkpt lat="46.16408" lon="6.66981">
        <ele>1303</ele>
        <time>2022-07-31T11:49:38Z</time>
      </trkpt>
      <trkpt lat="46.16409" lon="6.66981">
        <ele>1302</ele>
        <time>2022-07-31T11:49:39Z</time>
      </trkpt>
      <trkpt lat="46.16409" lon="6.66982">
        <ele>1302</ele>
        <time>2022-07-31T11:49:40Z</time>
      </trkpt>
      <trkpt lat="46.16408" lon="6.66982">
        <ele>1301</ele>
        <time>2022-07-31T11:49:41Z</time>
      </trkpt>
      <trkpt lat="46.16409" lon="6.66983">
        <ele>1301</ele>
        <time>2022-07-31T11:49:42Z</time>
      </trkpt>
      <trkpt lat="46.16409" lon="6.66983">
        <ele>1301</ele>
        <time>2022-07-31T11:49:43Z</time>
      </trkpt>
      <trkpt lat="46.16409" lon="6.66982">
        <ele>1301</ele>
        <time>2022-07-31T11:49:44Z</time>
      </trkpt>
      <trkpt lat="46.16409" lon="6.66981">
        <ele>1300</ele>
        <time>2022-07-31T11:49:45Z</time>
      </trkpt>
      <trkpt lat="46.16409" lon="6.66981">
        <ele>1300</ele>
        <time>2022-07-31T11:49:46Z</time>
      </trkpt>
      <trkpt lat="46.1641" lon="6.66981">
        <ele>1300</ele>
        <time>2022-07-31T11:49:47Z</time>
      </trkpt>
      <trkpt lat="46.1641" lon="6.66981">
        <ele>1300</ele>
        <time>2022-07-31T11:49:48Z</time>
      </trkpt>
      <trkpt lat="46.1641" lon="6.66981">
        <ele>1300</ele>
        <time>2022-07-31T11:49:49Z</time>
      </trkpt>
      <trkpt lat="46.1641" lon="6.66981">
        <ele>1299</ele>
        <time>2022-07-31T11:49:50Z</time>
      </trkpt>
      <trkpt lat="46.16411" lon="6.66981">
        <ele>1299</ele>
        <time>2022-07-31T11:49:51Z</time>
      </trkpt>
      <trkpt lat="46.16411" lon="6.66981">
        <ele>1299</ele>
        <time>2022-07-31T11:49:52Z</time>
      </trkpt>
      <trkpt lat="46.16411" lon="6.66981">
        <ele>1299</ele>
        <time>2022-07-31T11:49:53Z</time>
      </trkpt>
      <trkpt lat="46.16411" lon="6.66981">
        <ele>1299</ele>
        <time>2022-07-31T11:49:54Z</time>
      </trkpt>
      <trkpt lat="46.16411" lon="6.66981">
        <ele>1299</ele>
        <time>2022-07-31T11:49:55Z</time>
      </trkpt>
      <trkpt lat="46.16411" lon="6.66981">
        <ele>1299</ele>
        <time>2022-07-31T11:49:56Z</time>
      </trkpt>
      <trkpt lat="46.16412" lon="6.66981">
        <ele>1299</ele>
        <time>2022-07-31T11:49:57Z</time>
      </trkpt>
      <trkpt lat="46.16412" lon="6.66981">
        <ele>1298</ele>
        <time>2022-07-31T11:49:58Z</time>
      </trkpt>
      <trkpt lat="46.16412" lon="6.66982">
        <ele>1298</ele>
        <time>2022-07-31T11:49:59Z</time>
      </trkpt>
      <trkpt lat="46.16412" lon="6.66982">
        <ele>1298</ele>
        <time>2022-07-31T11:50:00Z</time>
      </trkpt>
      <trkpt lat="46.16412" lon="6.66982">
        <ele>1298</ele>
        <time>2022-07-31T11:50:01Z</time>
      </trkpt>
      <trkpt lat="46.16412" lon="6.66982">
        <ele>1298</ele>
        <time>2022-07-31T11:50:02Z</time>
      </trkpt>
      <trkpt lat="46.16412" lon="6.66982">
        <ele>1298</ele>
        <time>2022-07-31T11:50:03Z</time>
      </trkpt>
      <trkpt lat="46.16412" lon="6.66982">
        <ele>1298</ele>
        <time>2022-07-31T11:50:04Z</time>
      </trkpt>
      <trkpt lat="46.16412" lon="6.66981">
        <ele>1297</ele>
        <time>2022-07-31T11:50:05Z</time>
      </trkpt>
      <trkpt lat="46.16411" lon="6.6698">
        <ele>1297</ele>
        <time>2022-07-31T11:50:06Z</time>
      </trkpt>
      <trkpt lat="46.16411" lon="6.66979">
        <ele>1297</ele>
        <time>2022-07-31T11:50:07Z</time>
      </trkpt>
      <trkpt lat="46.16411" lon="6.66978">
        <ele>1297</ele>
        <time>2022-07-31T11:50:08Z</time>
      </trkpt>
      <trkpt lat="46.1641" lon="6.66978">
        <ele>1297</ele>
        <time>2022-07-31T11:50:09Z</time>
      </trkpt>
      <trkpt lat="46.16408" lon="6.66977">
        <ele>1297</ele>
        <time>2022-07-31T11:50:10Z</time>
      </trkpt>
      <trkpt lat="46.16406" lon="6.66976">
        <ele>1297</ele>
        <time>2022-07-31T11:50:11Z</time>
      </trkpt>
      <trkpt lat="46.16405" lon="6.66975">
        <ele>1297</ele>
        <time>2022-07-31T11:50:12Z</time>
      </trkpt>
      <trkpt lat="46.16404" lon="6.66974">
        <ele>1297</ele>
        <time>2022-07-31T11:50:13Z</time>
      </trkpt>
      <trkpt lat="46.16403" lon="6.66973">
        <ele>1296</ele>
        <time>2022-07-31T11:50:14Z</time>
      </trkpt>
      <trkpt lat="46.16402" lon="6.66972">
        <ele>1296</ele>
        <time>2022-07-31T11:50:15Z</time>
      </trkpt>
      <trkpt lat="46.16401" lon="6.6697">
        <ele>1296</ele>
        <time>2022-07-31T11:50:16Z</time>
      </trkpt>
      <trkpt lat="46.164" lon="6.66969">
        <ele>1296</ele>
        <time>2022-07-31T11:50:17Z</time>
      </trkpt>
      <trkpt lat="46.16399" lon="6.66968">
        <ele>1296</ele>
        <time>2022-07-31T11:50:18Z</time>
      </trkpt>
      <trkpt lat="46.16398" lon="6.66967">
        <ele>1296</ele>
        <time>2022-07-31T11:50:19Z</time>
      </trkpt>
      <trkpt lat="46.16398" lon="6.66966">
        <ele>1296</ele>
        <time>2022-07-31T11:50:20Z</time>
      </trkpt>
      <trkpt lat="46.16397" lon="6.66965">
        <ele>1296</ele>
        <time>2022-07-31T11:50:21Z</time>
      </trkpt>
      <trkpt lat="46.16396" lon="6.66964">
        <ele>1296</ele>
        <time>2022-07-31T11:50:22Z</time>
      </trkpt>
      <trkpt lat="46.16396" lon="6.66963">
        <ele>1296</ele>
        <time>2022-07-31T11:50:23Z</time>
      </trkpt>
      <trkpt lat="46.16394" lon="6.66962">
        <ele>1296</ele>
        <time>2022-07-31T11:50:24Z</time>
      </trkpt>
      <trkpt lat="46.16394" lon="6.66963">
        <ele>1296</ele>
        <time>2022-07-31T11:50:25Z</time>
      </trkpt>
      <trkpt lat="46.16393" lon="6.66962">
        <ele>1295</ele>
        <time>2022-07-31T11:50:26Z</time>
      </trkpt>
      <trkpt lat="46.16392" lon="6.66962">
        <ele>1295</ele>
        <time>2022-07-31T11:50:27Z</time>
      </trkpt>
      <trkpt lat="46.16392" lon="6.66961">
        <ele>1295</ele>
        <time>2022-07-31T11:50:28Z</time>
      </trkpt>
      <trkpt lat="46.1639" lon="6.6696">
        <ele>1295</ele>
        <time>2022-07-31T11:50:29Z</time>
      </trkpt>
      <trkpt lat="46.16389" lon="6.66959">
        <ele>1295</ele>
        <time>2022-07-31T11:50:30Z</time>
      </trkpt>
      <trkpt lat="46.16389" lon="6.66958">
        <ele>1295</ele>
        <time>2022-07-31T11:50:31Z</time>
      </trkpt>
      <trkpt lat="46.16387" lon="6.66958">
        <ele>1295</ele>
        <time>2022-07-31T11:50:32Z</time>
      </trkpt>
      <trkpt lat="46.16386" lon="6.66958">
        <ele>1295</ele>
        <time>2022-07-31T11:50:33Z</time>
      </trkpt>
      <trkpt lat="46.16385" lon="6.66957">
        <ele>1295</ele>
        <time>2022-07-31T11:50:34Z</time>
      </trkpt>
      <trkpt lat="46.16384" lon="6.66955">
        <ele>1295</ele>
        <time>2022-07-31T11:50:35Z</time>
      </trkpt>
      <trkpt lat="46.16382" lon="6.66954">
        <ele>1295</ele>
        <time>2022-07-31T11:50:36Z</time>
      </trkpt>
      <trkpt lat="46.16381" lon="6.66953">
        <ele>1294</ele>
        <time>2022-07-31T11:50:37Z</time>
      </trkpt>
      <trkpt lat="46.1638" lon="6.66954">
        <ele>1294</ele>
        <time>2022-07-31T11:50:38Z</time>
      </trkpt>
      <trkpt lat="46.16379" lon="6.66954">
        <ele>1294</ele>
        <time>2022-07-31T11:50:39Z</time>
      </trkpt>
      <trkpt lat="46.16379" lon="6.66953">
        <ele>1294</ele>
        <time>2022-07-31T11:50:40Z</time>
      </trkpt>
      <trkpt lat="46.16378" lon="6.66952">
        <ele>1294</ele>
        <time>2022-07-31T11:50:41Z</time>
      </trkpt>
      <trkpt lat="46.16377" lon="6.66951">
        <ele>1294</ele>
        <time>2022-07-31T11:50:42Z</time>
      </trkpt>
      <trkpt lat="46.16377" lon="6.66952">
        <ele>1293</ele>
        <time>2022-07-31T11:50:43Z</time>
      </trkpt>
      <trkpt lat="46.16377" lon="6.66952">
        <ele>1293</ele>
        <time>2022-07-31T11:50:44Z</time>
      </trkpt>
      <trkpt lat="46.16377" lon="6.66953">
        <ele>1293</ele>
        <time>2022-07-31T11:50:45Z</time>
      </trkpt>
      <trkpt lat="46.16377" lon="6.66953">
        <ele>1293</ele>
        <time>2022-07-31T11:50:46Z</time>
      </trkpt>
      <trkpt lat="46.16376" lon="6.66953">
        <ele>1292</ele>
        <time>2022-07-31T11:50:47Z</time>
      </trkpt>
      <trkpt lat="46.16375" lon="6.66952">
        <ele>1292</ele>
        <time>2022-07-31T11:50:48Z</time>
      </trkpt>
      <trkpt lat="46.16373" lon="6.66952">
        <ele>1292</ele>
        <time>2022-07-31T11:50:49Z</time>
      </trkpt>
      <trkpt lat="46.16372" lon="6.6695">
        <ele>1292</ele>
        <time>2022-07-31T11:50:50Z</time>
      </trkpt>
      <trkpt lat="46.1637" lon="6.6695">
        <ele>1292</ele>
        <time>2022-07-31T11:50:51Z</time>
      </trkpt>
      <trkpt lat="46.16369" lon="6.66949">
        <ele>1291</ele>
        <time>2022-07-31T11:50:52Z</time>
      </trkpt>
      <trkpt lat="46.16369" lon="6.66948">
        <ele>1291</ele>
        <time>2022-07-31T11:50:53Z</time>
      </trkpt>
      <trkpt lat="46.16368" lon="6.66947">
        <ele>1291</ele>
        <time>2022-07-31T11:50:54Z</time>
      </trkpt>
      <trkpt lat="46.16367" lon="6.66947">
        <ele>1291</ele>
        <time>2022-07-31T11:50:55Z</time>
      </trkpt>
      <trkpt lat="46.16365" lon="6.66947">
        <ele>1291</ele>
        <time>2022-07-31T11:50:56Z</time>
      </trkpt>
      <trkpt lat="46.16364" lon="6.66947">
        <ele>1290</ele>
        <time>2022-07-31T11:50:57Z</time>
      </trkpt>
      <trkpt lat="46.16364" lon="6.66947">
        <ele>1290</ele>
        <time>2022-07-31T11:50:58Z</time>
      </trkpt>
      <trkpt lat="46.16364" lon="6.66948">
        <ele>1290</ele>
        <time>2022-07-31T11:50:59Z</time>
      </trkpt>
      <trkpt lat="46.16365" lon="6.6695">
        <ele>1290</ele>
        <time>2022-07-31T11:51:00Z</time>
      </trkpt>
      <trkpt lat="46.16366" lon="6.6695">
        <ele>1289</ele>
        <time>2022-07-31T11:51:01Z</time>
      </trkpt>
      <trkpt lat="46.16368" lon="6.6695">
        <ele>1289</ele>
        <time>2022-07-31T11:51:02Z</time>
      </trkpt>
      <trkpt lat="46.16369" lon="6.66951">
        <ele>1289</ele>
        <time>2022-07-31T11:51:03Z</time>
      </trkpt>
      <trkpt lat="46.16369" lon="6.66952">
        <ele>1289</ele>
        <time>2022-07-31T11:51:04Z</time>
      </trkpt>
      <trkpt lat="46.1637" lon="6.66953">
        <ele>1288</ele>
        <time>2022-07-31T11:51:05Z</time>
      </trkpt>
      <trkpt lat="46.1637" lon="6.66954">
        <ele>1288</ele>
        <time>2022-07-31T11:51:06Z</time>
      </trkpt>
      <trkpt lat="46.16371" lon="6.66954">
        <ele>1288</ele>
        <time>2022-07-31T11:51:07Z</time>
      </trkpt>
      <trkpt lat="46.16371" lon="6.66954">
        <ele>1288</ele>
        <time>2022-07-31T11:51:08Z</time>
      </trkpt>
      <trkpt lat="46.1637" lon="6.66954">
        <ele>1287</ele>
        <time>2022-07-31T11:51:09Z</time>
      </trkpt>
      <trkpt lat="46.1637" lon="6.66954">
        <ele>1287</ele>
        <time>2022-07-31T11:51:10Z</time>
      </trkpt>
      <trkpt lat="46.1637" lon="6.66954">
        <ele>1287</ele>
        <time>2022-07-31T11:51:11Z</time>
      </trkpt>
      <trkpt lat="46.16369" lon="6.66952">
        <ele>1287</ele>
        <time>2022-07-31T11:51:12Z</time>
      </trkpt>
      <trkpt lat="46.16368" lon="6.6695">
        <ele>1287</ele>
        <time>2022-07-31T11:51:13Z</time>
      </trkpt>
      <trkpt lat="46.16367" lon="6.66949">
        <ele>1287</ele>
        <time>2022-07-31T11:51:14Z</time>
      </trkpt>
      <trkpt lat="46.16365" lon="6.66947">
        <ele>1287</ele>
        <time>2022-07-31T11:51:15Z</time>
      </trkpt>
      <trkpt lat="46.16365" lon="6.66946">
        <ele>1287</ele>
        <time>2022-07-31T11:51:16Z</time>
      </trkpt>
      <trkpt lat="46.16364" lon="6.66945">
        <ele>1287</ele>
        <time>2022-07-31T11:51:17Z</time>
      </trkpt>
      <trkpt lat="46.16364" lon="6.66944">
        <ele>1287</ele>
        <time>2022-07-31T11:51:18Z</time>
      </trkpt>
      <trkpt lat="46.16363" lon="6.66945">
        <ele>1287</ele>
        <time>2022-07-31T11:51:19Z</time>
      </trkpt>
      <trkpt lat="46.16362" lon="6.66946">
        <ele>1287</ele>
        <time>2022-07-31T11:51:20Z</time>
      </trkpt>
      <trkpt lat="46.16361" lon="6.66946">
        <ele>1287</ele>
        <time>2022-07-31T11:51:21Z</time>
      </trkpt>
      <trkpt lat="46.16361" lon="6.66947">
        <ele>1287</ele>
        <time>2022-07-31T11:51:22Z</time>
      </trkpt>
      <trkpt lat="46.1636" lon="6.6695">
        <ele>1287</ele>
        <time>2022-07-31T11:51:23Z</time>
      </trkpt>
      <trkpt lat="46.16359" lon="6.66951">
        <ele>1287</ele>
        <time>2022-07-31T11:51:24Z</time>
      </trkpt>
      <trkpt lat="46.1636" lon="6.66954">
        <ele>1287</ele>
        <time>2022-07-31T11:51:25Z</time>
      </trkpt>
      <trkpt lat="46.16359" lon="6.66955">
        <ele>1287</ele>
        <time>2022-07-31T11:51:26Z</time>
      </trkpt>
      <trkpt lat="46.16359" lon="6.66957">
        <ele>1287</ele>
        <time>2022-07-31T11:51:27Z</time>
      </trkpt>
      <trkpt lat="46.16357" lon="6.66957">
        <ele>1287</ele>
        <time>2022-07-31T11:51:28Z</time>
      </trkpt>
      <trkpt lat="46.16356" lon="6.66957">
        <ele>1287</ele>
        <time>2022-07-31T11:51:29Z</time>
      </trkpt>
      <trkpt lat="46.16354" lon="6.66957">
        <ele>1287</ele>
        <time>2022-07-31T11:51:30Z</time>
      </trkpt>
      <trkpt lat="46.16354" lon="6.66958">
        <ele>1287</ele>
        <time>2022-07-31T11:51:31Z</time>
      </trkpt>
      <trkpt lat="46.16353" lon="6.66958">
        <ele>1287</ele>
        <time>2022-07-31T11:51:32Z</time>
      </trkpt>
      <trkpt lat="46.16352" lon="6.66957">
        <ele>1287</ele>
        <time>2022-07-31T11:51:33Z</time>
      </trkpt>
      <trkpt lat="46.1635" lon="6.66957">
        <ele>1287</ele>
        <time>2022-07-31T11:51:34Z</time>
      </trkpt>
      <trkpt lat="46.16349" lon="6.66956">
        <ele>1287</ele>
        <time>2022-07-31T11:51:35Z</time>
      </trkpt>
      <trkpt lat="46.16348" lon="6.66956">
        <ele>1287</ele>
        <time>2022-07-31T11:51:36Z</time>
      </trkpt>
      <trkpt lat="46.16347" lon="6.66955">
        <ele>1287</ele>
        <time>2022-07-31T11:51:37Z</time>
      </trkpt>
      <trkpt lat="46.16346" lon="6.66954">
        <ele>1287</ele>
        <time>2022-07-31T11:51:38Z</time>
      </trkpt>
      <trkpt lat="46.16345" lon="6.66954">
        <ele>1287</ele>
        <time>2022-07-31T11:51:39Z</time>
      </trkpt>
      <trkpt lat="46.16345" lon="6.66953">
        <ele>1287</ele>
        <time>2022-07-31T11:51:40Z</time>
      </trkpt>
      <trkpt lat="46.16344" lon="6.66953">
        <ele>1287</ele>
        <time>2022-07-31T11:51:41Z</time>
      </trkpt>
      <trkpt lat="46.16343" lon="6.66953">
        <ele>1287</ele>
        <time>2022-07-31T11:51:42Z</time>
      </trkpt>
      <trkpt lat="46.16342" lon="6.66952">
        <ele>1287</ele>
        <time>2022-07-31T11:51:43Z</time>
      </trkpt>
      <trkpt lat="46.16342" lon="6.66952">
        <ele>1287</ele>
        <time>2022-07-31T11:51:44Z</time>
      </trkpt>
      <trkpt lat="46.16341" lon="6.66952">
        <ele>1287</ele>
        <time>2022-07-31T11:51:45Z</time>
      </trkpt>
      <trkpt lat="46.1634" lon="6.66952">
        <ele>1287</ele>
        <time>2022-07-31T11:51:46Z</time>
      </trkpt>
      <trkpt lat="46.1634" lon="6.66951">
        <ele>1287</ele>
        <time>2022-07-31T11:51:47Z</time>
      </trkpt>
      <trkpt lat="46.16339" lon="6.66952">
        <ele>1287</ele>
        <time>2022-07-31T11:51:48Z</time>
      </trkpt>
      <trkpt lat="46.16338" lon="6.66951">
        <ele>1286</ele>
        <time>2022-07-31T11:51:49Z</time>
      </trkpt>
      <trkpt lat="46.16337" lon="6.66952">
        <ele>1286</ele>
        <time>2022-07-31T11:51:50Z</time>
      </trkpt>
      <trkpt lat="46.16336" lon="6.66953">
        <ele>1286</ele>
        <time>2022-07-31T11:51:51Z</time>
      </trkpt>
      <trkpt lat="46.16335" lon="6.66953">
        <ele>1286</ele>
        <time>2022-07-31T11:51:52Z</time>
      </trkpt>
      <trkpt lat="46.16334" lon="6.66953">
        <ele>1286</ele>
        <time>2022-07-31T11:51:53Z</time>
      </trkpt>
      <trkpt lat="46.16333" lon="6.66952">
        <ele>1286</ele>
        <time>2022-07-31T11:51:54Z</time>
      </trkpt>
      <trkpt lat="46.16332" lon="6.66952">
        <ele>1286</ele>
        <time>2022-07-31T11:51:55Z</time>
      </trkpt>
      <trkpt lat="46.16331" lon="6.66951">
        <ele>1286</ele>
        <time>2022-07-31T11:51:56Z</time>
      </trkpt>
      <trkpt lat="46.1633" lon="6.66951">
        <ele>1286</ele>
        <time>2022-07-31T11:51:57Z</time>
      </trkpt>
      <trkpt lat="46.1633" lon="6.66951">
        <ele>1286</ele>
        <time>2022-07-31T11:51:58Z</time>
      </trkpt>
      <trkpt lat="46.16328" lon="6.6695">
        <ele>1286</ele>
        <time>2022-07-31T11:51:59Z</time>
      </trkpt>
      <trkpt lat="46.16327" lon="6.66951">
        <ele>1286</ele>
        <time>2022-07-31T11:52:00Z</time>
      </trkpt>
      <trkpt lat="46.16327" lon="6.66951">
        <ele>1285</ele>
        <time>2022-07-31T11:52:01Z</time>
      </trkpt>
      <trkpt lat="46.16326" lon="6.6695">
        <ele>1285</ele>
        <time>2022-07-31T11:52:02Z</time>
      </trkpt>
      <trkpt lat="46.16325" lon="6.66951">
        <ele>1285</ele>
        <time>2022-07-31T11:52:03Z</time>
      </trkpt>
      <trkpt lat="46.16324" lon="6.66951">
        <ele>1285</ele>
        <time>2022-07-31T11:52:04Z</time>
      </trkpt>
      <trkpt lat="46.16323" lon="6.6695">
        <ele>1285</ele>
        <time>2022-07-31T11:52:05Z</time>
      </trkpt>
      <trkpt lat="46.16322" lon="6.6695">
        <ele>1285</ele>
        <time>2022-07-31T11:52:06Z</time>
      </trkpt>
      <trkpt lat="46.1632" lon="6.66951">
        <ele>1285</ele>
        <time>2022-07-31T11:52:07Z</time>
      </trkpt>
      <trkpt lat="46.16319" lon="6.6695">
        <ele>1285</ele>
        <time>2022-07-31T11:52:08Z</time>
      </trkpt>
      <trkpt lat="46.16318" lon="6.66949">
        <ele>1285</ele>
        <time>2022-07-31T11:52:09Z</time>
      </trkpt>
      <trkpt lat="46.16317" lon="6.66949">
        <ele>1284</ele>
        <time>2022-07-31T11:52:10Z</time>
      </trkpt>
      <trkpt lat="46.16315" lon="6.66949">
        <ele>1284</ele>
        <time>2022-07-31T11:52:11Z</time>
      </trkpt>
      <trkpt lat="46.16314" lon="6.66949">
        <ele>1284</ele>
        <time>2022-07-31T11:52:12Z</time>
      </trkpt>
      <trkpt lat="46.16313" lon="6.66949">
        <ele>1284</ele>
        <time>2022-07-31T11:52:13Z</time>
      </trkpt>
      <trkpt lat="46.16311" lon="6.66949">
        <ele>1284</ele>
        <time>2022-07-31T11:52:14Z</time>
      </trkpt>
      <trkpt lat="46.16311" lon="6.66948">
        <ele>1283</ele>
        <time>2022-07-31T11:52:15Z</time>
      </trkpt>
      <trkpt lat="46.1631" lon="6.66947">
        <ele>1283</ele>
        <time>2022-07-31T11:52:16Z</time>
      </trkpt>
      <trkpt lat="46.16308" lon="6.66946">
        <ele>1283</ele>
        <time>2022-07-31T11:52:17Z</time>
      </trkpt>
      <trkpt lat="46.16307" lon="6.66946">
        <ele>1283</ele>
        <time>2022-07-31T11:52:18Z</time>
      </trkpt>
      <trkpt lat="46.16306" lon="6.66946">
        <ele>1283</ele>
        <time>2022-07-31T11:52:19Z</time>
      </trkpt>
      <trkpt lat="46.16305" lon="6.66946">
        <ele>1283</ele>
        <time>2022-07-31T11:52:20Z</time>
      </trkpt>
      <trkpt lat="46.16304" lon="6.66946">
        <ele>1283</ele>
        <time>2022-07-31T11:52:21Z</time>
      </trkpt>
      <trkpt lat="46.16303" lon="6.66945">
        <ele>1282</ele>
        <time>2022-07-31T11:52:22Z</time>
      </trkpt>
      <trkpt lat="46.16301" lon="6.66944">
        <ele>1282</ele>
        <time>2022-07-31T11:52:23Z</time>
      </trkpt>
      <trkpt lat="46.16299" lon="6.66943">
        <ele>1282</ele>
        <time>2022-07-31T11:52:24Z</time>
      </trkpt>
      <trkpt lat="46.16298" lon="6.66943">
        <ele>1282</ele>
        <time>2022-07-31T11:52:25Z</time>
      </trkpt>
      <trkpt lat="46.16297" lon="6.66942">
        <ele>1281</ele>
        <time>2022-07-31T11:52:26Z</time>
      </trkpt>
      <trkpt lat="46.16296" lon="6.66942">
        <ele>1281</ele>
        <time>2022-07-31T11:52:27Z</time>
      </trkpt>
      <trkpt lat="46.16295" lon="6.66942">
        <ele>1281</ele>
        <time>2022-07-31T11:52:28Z</time>
      </trkpt>
      <trkpt lat="46.16295" lon="6.66942">
        <ele>1281</ele>
        <time>2022-07-31T11:52:29Z</time>
      </trkpt>
      <trkpt lat="46.16294" lon="6.66942">
        <ele>1281</ele>
        <time>2022-07-31T11:52:30Z</time>
      </trkpt>
      <trkpt lat="46.16293" lon="6.66942">
        <ele>1280</ele>
        <time>2022-07-31T11:52:31Z</time>
      </trkpt>
      <trkpt lat="46.16291" lon="6.66942">
        <ele>1280</ele>
        <time>2022-07-31T11:52:32Z</time>
      </trkpt>
      <trkpt lat="46.1629" lon="6.66942">
        <ele>1280</ele>
        <time>2022-07-31T11:52:33Z</time>
      </trkpt>
      <trkpt lat="46.16289" lon="6.66942">
        <ele>1280</ele>
        <time>2022-07-31T11:52:34Z</time>
      </trkpt>
      <trkpt lat="46.16289" lon="6.66941">
        <ele>1280</ele>
        <time>2022-07-31T11:52:35Z</time>
      </trkpt>
      <trkpt lat="46.16288" lon="6.6694">
        <ele>1280</ele>
        <time>2022-07-31T11:52:36Z</time>
      </trkpt>
      <trkpt lat="46.16288" lon="6.6694">
        <ele>1280</ele>
        <time>2022-07-31T11:52:37Z</time>
      </trkpt>
      <trkpt lat="46.16287" lon="6.66941">
        <ele>1280</ele>
        <time>2022-07-31T11:52:38Z</time>
      </trkpt>
      <trkpt lat="46.16286" lon="6.66943">
        <ele>1280</ele>
        <time>2022-07-31T11:52:39Z</time>
      </trkpt>
      <trkpt lat="46.16285" lon="6.66945">
        <ele>1280</ele>
        <time>2022-07-31T11:52:40Z</time>
      </trkpt>
      <trkpt lat="46.16284" lon="6.66946">
        <ele>1280</ele>
        <time>2022-07-31T11:52:41Z</time>
      </trkpt>
      <trkpt lat="46.16284" lon="6.66946">
        <ele>1279</ele>
        <time>2022-07-31T11:52:42Z</time>
      </trkpt>
      <trkpt lat="46.16283" lon="6.66946">
        <ele>1279</ele>
        <time>2022-07-31T11:52:43Z</time>
      </trkpt>
      <trkpt lat="46.16283" lon="6.66947">
        <ele>1279</ele>
        <time>2022-07-31T11:52:44Z</time>
      </trkpt>
      <trkpt lat="46.16282" lon="6.66948">
        <ele>1279</ele>
        <time>2022-07-31T11:52:45Z</time>
      </trkpt>
      <trkpt lat="46.16281" lon="6.66949">
        <ele>1279</ele>
        <time>2022-07-31T11:52:46Z</time>
      </trkpt>
      <trkpt lat="46.16279" lon="6.6695">
        <ele>1279</ele>
        <time>2022-07-31T11:52:47Z</time>
      </trkpt>
      <trkpt lat="46.16278" lon="6.6695">
        <ele>1278</ele>
        <time>2022-07-31T11:52:48Z</time>
      </trkpt>
      <trkpt lat="46.16278" lon="6.6695">
        <ele>1278</ele>
        <time>2022-07-31T11:52:49Z</time>
      </trkpt>
      <trkpt lat="46.16277" lon="6.66949">
        <ele>1278</ele>
        <time>2022-07-31T11:52:50Z</time>
      </trkpt>
      <trkpt lat="46.16276" lon="6.66948">
        <ele>1278</ele>
        <time>2022-07-31T11:52:51Z</time>
      </trkpt>
      <trkpt lat="46.16276" lon="6.66948">
        <ele>1278</ele>
        <time>2022-07-31T11:52:52Z</time>
      </trkpt>
      <trkpt lat="46.16274" lon="6.66948">
        <ele>1277</ele>
        <time>2022-07-31T11:52:53Z</time>
      </trkpt>
      <trkpt lat="46.16274" lon="6.66949">
        <ele>1277</ele>
        <time>2022-07-31T11:52:54Z</time>
      </trkpt>
      <trkpt lat="46.16273" lon="6.66949">
        <ele>1277</ele>
        <time>2022-07-31T11:52:55Z</time>
      </trkpt>
      <trkpt lat="46.16271" lon="6.66949">
        <ele>1277</ele>
        <time>2022-07-31T11:52:56Z</time>
      </trkpt>
      <trkpt lat="46.1627" lon="6.66948">
        <ele>1276</ele>
        <time>2022-07-31T11:52:57Z</time>
      </trkpt>
      <trkpt lat="46.16269" lon="6.66947">
        <ele>1276</ele>
        <time>2022-07-31T11:52:58Z</time>
      </trkpt>
      <trkpt lat="46.16268" lon="6.66947">
        <ele>1276</ele>
        <time>2022-07-31T11:52:59Z</time>
      </trkpt>
      <trkpt lat="46.16266" lon="6.66947">
        <ele>1276</ele>
        <time>2022-07-31T11:53:00Z</time>
      </trkpt>
      <trkpt lat="46.16266" lon="6.66946">
        <ele>1276</ele>
        <time>2022-07-31T11:53:01Z</time>
      </trkpt>
      <trkpt lat="46.16265" lon="6.66946">
        <ele>1276</ele>
        <time>2022-07-31T11:53:02Z</time>
      </trkpt>
      <trkpt lat="46.16263" lon="6.66944">
        <ele>1275</ele>
        <time>2022-07-31T11:53:03Z</time>
      </trkpt>
      <trkpt lat="46.16261" lon="6.66942">
        <ele>1275</ele>
        <time>2022-07-31T11:53:04Z</time>
      </trkpt>
      <trkpt lat="46.16259" lon="6.66941">
        <ele>1275</ele>
        <time>2022-07-31T11:53:05Z</time>
      </trkpt>
      <trkpt lat="46.16258" lon="6.66941">
        <ele>1275</ele>
        <time>2022-07-31T11:53:06Z</time>
      </trkpt>
      <trkpt lat="46.16257" lon="6.66941">
        <ele>1275</ele>
        <time>2022-07-31T11:53:07Z</time>
      </trkpt>
      <trkpt lat="46.16255" lon="6.66942">
        <ele>1275</ele>
        <time>2022-07-31T11:53:08Z</time>
      </trkpt>
      <trkpt lat="46.16254" lon="6.66942">
        <ele>1274</ele>
        <time>2022-07-31T11:53:09Z</time>
      </trkpt>
      <trkpt lat="46.16253" lon="6.66943">
        <ele>1274</ele>
        <time>2022-07-31T11:53:10Z</time>
      </trkpt>
      <trkpt lat="46.16251" lon="6.66944">
        <ele>1274</ele>
        <time>2022-07-31T11:53:11Z</time>
      </trkpt>
      <trkpt lat="46.1625" lon="6.66944">
        <ele>1274</ele>
        <time>2022-07-31T11:53:12Z</time>
      </trkpt>
      <trkpt lat="46.16249" lon="6.66945">
        <ele>1274</ele>
        <time>2022-07-31T11:53:13Z</time>
      </trkpt>
      <trkpt lat="46.16247" lon="6.66946">
        <ele>1273</ele>
        <time>2022-07-31T11:53:14Z</time>
      </trkpt>
      <trkpt lat="46.16246" lon="6.66947">
        <ele>1273</ele>
        <time>2022-07-31T11:53:15Z</time>
      </trkpt>
      <trkpt lat="46.16245" lon="6.66949">
        <ele>1273</ele>
        <time>2022-07-31T11:53:16Z</time>
      </trkpt>
      <trkpt lat="46.16245" lon="6.66949">
        <ele>1273</ele>
        <time>2022-07-31T11:53:17Z</time>
      </trkpt>
      <trkpt lat="46.16244" lon="6.6695">
        <ele>1272</ele>
        <time>2022-07-31T11:53:18Z</time>
      </trkpt>
      <trkpt lat="46.16242" lon="6.6695">
        <ele>1272</ele>
        <time>2022-07-31T11:53:19Z</time>
      </trkpt>
      <trkpt lat="46.16242" lon="6.66951">
        <ele>1272</ele>
        <time>2022-07-31T11:53:20Z</time>
      </trkpt>
      <trkpt lat="46.16242" lon="6.66952">
        <ele>1272</ele>
        <time>2022-07-31T11:53:21Z</time>
      </trkpt>
      <trkpt lat="46.16241" lon="6.66953">
        <ele>1271</ele>
        <time>2022-07-31T11:53:22Z</time>
      </trkpt>
      <trkpt lat="46.16239" lon="6.66954">
        <ele>1271</ele>
        <time>2022-07-31T11:53:23Z</time>
      </trkpt>
      <trkpt lat="46.16238" lon="6.66954">
        <ele>1271</ele>
        <time>2022-07-31T11:53:24Z</time>
      </trkpt>
      <trkpt lat="46.16238" lon="6.66954">
        <ele>1270</ele>
        <time>2022-07-31T11:53:25Z</time>
      </trkpt>
      <trkpt lat="46.16238" lon="6.66956">
        <ele>1270</ele>
        <time>2022-07-31T11:53:26Z</time>
      </trkpt>
      <trkpt lat="46.16237" lon="6.66957">
        <ele>1270</ele>
        <time>2022-07-31T11:53:27Z</time>
      </trkpt>
      <trkpt lat="46.16237" lon="6.66958">
        <ele>1269</ele>
        <time>2022-07-31T11:53:28Z</time>
      </trkpt>
      <trkpt lat="46.16236" lon="6.66958">
        <ele>1269</ele>
        <time>2022-07-31T11:53:29Z</time>
      </trkpt>
      <trkpt lat="46.16236" lon="6.66959">
        <ele>1269</ele>
        <time>2022-07-31T11:53:30Z</time>
      </trkpt>
      <trkpt lat="46.16236" lon="6.66958">
        <ele>1269</ele>
        <time>2022-07-31T11:53:31Z</time>
      </trkpt>
      <trkpt lat="46.16235" lon="6.66958">
        <ele>1268</ele>
        <time>2022-07-31T11:53:32Z</time>
      </trkpt>
      <trkpt lat="46.16234" lon="6.66959">
        <ele>1268</ele>
        <time>2022-07-31T11:53:33Z</time>
      </trkpt>
      <trkpt lat="46.16232" lon="6.66958">
        <ele>1268</ele>
        <time>2022-07-31T11:53:34Z</time>
      </trkpt>
      <trkpt lat="46.16231" lon="6.66958">
        <ele>1268</ele>
        <time>2022-07-31T11:53:35Z</time>
      </trkpt>
      <trkpt lat="46.1623" lon="6.66958">
        <ele>1268</ele>
        <time>2022-07-31T11:53:36Z</time>
      </trkpt>
      <trkpt lat="46.16229" lon="6.66959">
        <ele>1267</ele>
        <time>2022-07-31T11:53:37Z</time>
      </trkpt>
      <trkpt lat="46.16229" lon="6.66959">
        <ele>1267</ele>
        <time>2022-07-31T11:53:38Z</time>
      </trkpt>
      <trkpt lat="46.16228" lon="6.66959">
        <ele>1267</ele>
        <time>2022-07-31T11:53:39Z</time>
      </trkpt>
      <trkpt lat="46.16228" lon="6.66958">
        <ele>1267</ele>
        <time>2022-07-31T11:53:40Z</time>
      </trkpt>
      <trkpt lat="46.16227" lon="6.66958">
        <ele>1267</ele>
        <time>2022-07-31T11:53:41Z</time>
      </trkpt>
      <trkpt lat="46.16225" lon="6.66958">
        <ele>1267</ele>
        <time>2022-07-31T11:53:42Z</time>
      </trkpt>
      <trkpt lat="46.16225" lon="6.66957">
        <ele>1267</ele>
        <time>2022-07-31T11:53:43Z</time>
      </trkpt>
      <trkpt lat="46.16224" lon="6.66957">
        <ele>1267</ele>
        <time>2022-07-31T11:53:44Z</time>
      </trkpt>
      <trkpt lat="46.16224" lon="6.66957">
        <ele>1267</ele>
        <time>2022-07-31T11:53:45Z</time>
      </trkpt>
      <trkpt lat="46.16224" lon="6.66957">
        <ele>1266</ele>
        <time>2022-07-31T11:53:46Z</time>
      </trkpt>
      <trkpt lat="46.16224" lon="6.66957">
        <ele>1266</ele>
        <time>2022-07-31T11:53:47Z</time>
      </trkpt>
      <trkpt lat="46.16223" lon="6.66957">
        <ele>1266</ele>
        <time>2022-07-31T11:53:48Z</time>
      </trkpt>
      <trkpt lat="46.16222" lon="6.66956">
        <ele>1266</ele>
        <time>2022-07-31T11:53:49Z</time>
      </trkpt>
      <trkpt lat="46.16221" lon="6.66956">
        <ele>1266</ele>
        <time>2022-07-31T11:53:50Z</time>
      </trkpt>
      <trkpt lat="46.16219" lon="6.66956">
        <ele>1266</ele>
        <time>2022-07-31T11:53:51Z</time>
      </trkpt>
      <trkpt lat="46.16217" lon="6.66955">
        <ele>1266</ele>
        <time>2022-07-31T11:53:52Z</time>
      </trkpt>
      <trkpt lat="46.16217" lon="6.66954">
        <ele>1265</ele>
        <time>2022-07-31T11:53:53Z</time>
      </trkpt>
      <trkpt lat="46.16217" lon="6.66954">
        <ele>1265</ele>
        <time>2022-07-31T11:53:54Z</time>
      </trkpt>
      <trkpt lat="46.16216" lon="6.66954">
        <ele>1265</ele>
        <time>2022-07-31T11:53:55Z</time>
      </trkpt>
      <trkpt lat="46.16215" lon="6.66953">
        <ele>1265</ele>
        <time>2022-07-31T11:53:56Z</time>
      </trkpt>
      <trkpt lat="46.16214" lon="6.66952">
        <ele>1265</ele>
        <time>2022-07-31T11:53:57Z</time>
      </trkpt>
      <trkpt lat="46.16213" lon="6.66952">
        <ele>1265</ele>
        <time>2022-07-31T11:53:58Z</time>
      </trkpt>
      <trkpt lat="46.16213" lon="6.66952">
        <ele>1265</ele>
        <time>2022-07-31T11:53:59Z</time>
      </trkpt>
      <trkpt lat="46.16212" lon="6.66951">
        <ele>1265</ele>
        <time>2022-07-31T11:54:00Z</time>
      </trkpt>
      <trkpt lat="46.16211" lon="6.6695">
        <ele>1264</ele>
        <time>2022-07-31T11:54:01Z</time>
      </trkpt>
      <trkpt lat="46.16209" lon="6.6695">
        <ele>1264</ele>
        <time>2022-07-31T11:54:02Z</time>
      </trkpt>
      <trkpt lat="46.16208" lon="6.66949">
        <ele>1264</ele>
        <time>2022-07-31T11:54:03Z</time>
      </trkpt>
      <trkpt lat="46.16208" lon="6.66949">
        <ele>1264</ele>
        <time>2022-07-31T11:54:04Z</time>
      </trkpt>
      <trkpt lat="46.16207" lon="6.66948">
        <ele>1264</ele>
        <time>2022-07-31T11:54:05Z</time>
      </trkpt>
      <trkpt lat="46.16205" lon="6.66947">
        <ele>1263</ele>
        <time>2022-07-31T11:54:06Z</time>
      </trkpt>
      <trkpt lat="46.16204" lon="6.66946">
        <ele>1263</ele>
        <time>2022-07-31T11:54:07Z</time>
      </trkpt>
      <trkpt lat="46.16203" lon="6.66945">
        <ele>1263</ele>
        <time>2022-07-31T11:54:08Z</time>
      </trkpt>
      <trkpt lat="46.16201" lon="6.66944">
        <ele>1263</ele>
        <time>2022-07-31T11:54:09Z</time>
      </trkpt>
      <trkpt lat="46.16199" lon="6.66944">
        <ele>1263</ele>
        <time>2022-07-31T11:54:10Z</time>
      </trkpt>
      <trkpt lat="46.16198" lon="6.66943">
        <ele>1262</ele>
        <time>2022-07-31T11:54:11Z</time>
      </trkpt>
      <trkpt lat="46.16197" lon="6.66943">
        <ele>1262</ele>
        <time>2022-07-31T11:54:12Z</time>
      </trkpt>
      <trkpt lat="46.16195" lon="6.66943">
        <ele>1262</ele>
        <time>2022-07-31T11:54:13Z</time>
      </trkpt>
      <trkpt lat="46.16195" lon="6.66943">
        <ele>1262</ele>
        <time>2022-07-31T11:54:14Z</time>
      </trkpt>
      <trkpt lat="46.16193" lon="6.66943">
        <ele>1261</ele>
        <time>2022-07-31T11:54:15Z</time>
      </trkpt>
      <trkpt lat="46.16192" lon="6.66943">
        <ele>1261</ele>
        <time>2022-07-31T11:54:16Z</time>
      </trkpt>
      <trkpt lat="46.16191" lon="6.66944">
        <ele>1261</ele>
        <time>2022-07-31T11:54:17Z</time>
      </trkpt>
      <trkpt lat="46.16189" lon="6.66944">
        <ele>1261</ele>
        <time>2022-07-31T11:54:18Z</time>
      </trkpt>
      <trkpt lat="46.16187" lon="6.66943">
        <ele>1261</ele>
        <time>2022-07-31T11:54:19Z</time>
      </trkpt>
      <trkpt lat="46.16186" lon="6.66943">
        <ele>1260</ele>
        <time>2022-07-31T11:54:20Z</time>
      </trkpt>
      <trkpt lat="46.16184" lon="6.66943">
        <ele>1260</ele>
        <time>2022-07-31T11:54:21Z</time>
      </trkpt>
      <trkpt lat="46.16184" lon="6.66943">
        <ele>1260</ele>
        <time>2022-07-31T11:54:22Z</time>
      </trkpt>
      <trkpt lat="46.16182" lon="6.66943">
        <ele>1260</ele>
        <time>2022-07-31T11:54:23Z</time>
      </trkpt>
      <trkpt lat="46.1618" lon="6.66944">
        <ele>1260</ele>
        <time>2022-07-31T11:54:24Z</time>
      </trkpt>
      <trkpt lat="46.16179" lon="6.66943">
        <ele>1259</ele>
        <time>2022-07-31T11:54:25Z</time>
      </trkpt>
      <trkpt lat="46.16178" lon="6.66944">
        <ele>1259</ele>
        <time>2022-07-31T11:54:26Z</time>
      </trkpt>
      <trkpt lat="46.16178" lon="6.66944">
        <ele>1259</ele>
        <time>2022-07-31T11:54:27Z</time>
      </trkpt>
      <trkpt lat="46.16178" lon="6.66945">
        <ele>1259</ele>
        <time>2022-07-31T11:54:28Z</time>
      </trkpt>
      <trkpt lat="46.16179" lon="6.66946">
        <ele>1258</ele>
        <time>2022-07-31T11:54:29Z</time>
      </trkpt>
      <trkpt lat="46.16179" lon="6.66946">
        <ele>1258</ele>
        <time>2022-07-31T11:54:30Z</time>
      </trkpt>
      <trkpt lat="46.1618" lon="6.66947">
        <ele>1258</ele>
        <time>2022-07-31T11:54:31Z</time>
      </trkpt>
      <trkpt lat="46.1618" lon="6.66948">
        <ele>1257</ele>
        <time>2022-07-31T11:54:32Z</time>
      </trkpt>
      <trkpt lat="46.16179" lon="6.66948">
        <ele>1257</ele>
        <time>2022-07-31T11:54:33Z</time>
      </trkpt>
      <trkpt lat="46.16179" lon="6.66947">
        <ele>1257</ele>
        <time>2022-07-31T11:54:34Z</time>
      </trkpt>
      <trkpt lat="46.16178" lon="6.66946">
        <ele>1256</ele>
        <time>2022-07-31T11:54:35Z</time>
      </trkpt>
      <trkpt lat="46.16178" lon="6.66945">
        <ele>1256</ele>
        <time>2022-07-31T11:54:36Z</time>
      </trkpt>
      <trkpt lat="46.16178" lon="6.66944">
        <ele>1256</ele>
        <time>2022-07-31T11:54:37Z</time>
      </trkpt>
      <trkpt lat="46.16178" lon="6.66944">
        <ele>1256</ele>
        <time>2022-07-31T11:54:38Z</time>
      </trkpt>
      <trkpt lat="46.16178" lon="6.66943">
        <ele>1255</ele>
        <time>2022-07-31T11:54:39Z</time>
      </trkpt>
      <trkpt lat="46.16178" lon="6.66943">
        <ele>1255</ele>
        <time>2022-07-31T11:54:40Z</time>
      </trkpt>
      <trkpt lat="46.16178" lon="6.66943">
        <ele>1255</ele>
        <time>2022-07-31T11:54:41Z</time>
      </trkpt>
      <trkpt lat="46.16178" lon="6.66943">
        <ele>1254</ele>
        <time>2022-07-31T11:54:42Z</time>
      </trkpt>
      <trkpt lat="46.16178" lon="6.66943">
        <ele>1254</ele>
        <time>2022-07-31T11:54:43Z</time>
      </trkpt>
      <trkpt lat="46.16178" lon="6.66943">
        <ele>1254</ele>
        <time>2022-07-31T11:54:44Z</time>
      </trkpt>
      <trkpt lat="46.16178" lon="6.66943">
        <ele>1254</ele>
        <time>2022-07-31T11:54:45Z</time>
      </trkpt>
      <trkpt lat="46.16178" lon="6.66943">
        <ele>1254</ele>
        <time>2022-07-31T11:54:46Z</time>
      </trkpt>
      <trkpt lat="46.16178" lon="6.66943">
        <ele>1253</ele>
        <time>2022-07-31T11:54:47Z</time>
      </trkpt>
      <trkpt lat="46.16178" lon="6.66943">
        <ele>1253</ele>
        <time>2022-07-31T11:54:48Z</time>
      </trkpt>
      <trkpt lat="46.16178" lon="6.66943">
        <ele>1253</ele>
        <time>2022-07-31T11:54:49Z</time>
      </trkpt>
      <trkpt lat="46.16178" lon="6.66943">
        <ele>1253</ele>
        <time>2022-07-31T11:54:50Z</time>
      </trkpt>
      <trkpt lat="46.16178" lon="6.66943">
        <ele>1253</ele>
        <time>2022-07-31T11:54:51Z</time>
      </trkpt>
      <trkpt lat="46.16178" lon="6.66943">
        <ele>1253</ele>
        <time>2022-07-31T11:54:52Z</time>
      </trkpt>
      <trkpt lat="46.16178" lon="6.66943">
        <ele>1253</ele>
        <time>2022-07-31T11:54:53Z</time>
      </trkpt>
      <trkpt lat="46.16178" lon="6.66943">
        <ele>1252</ele>
        <time>2022-07-31T11:54:54Z</time>
      </trkpt>
      <trkpt lat="46.16178" lon="6.66943">
        <ele>1252</ele>
        <time>2022-07-31T11:54:55Z</time>
      </trkpt>
      <trkpt lat="46.16178" lon="6.66943">
        <ele>1252</ele>
        <time>2022-07-31T11:54:56Z</time>
      </trkpt>
      <trkpt lat="46.16178" lon="6.66943">
        <ele>1252</ele>
        <time>2022-07-31T11:54:57Z</time>
      </trkpt>
      <trkpt lat="46.16178" lon="6.66943">
        <ele>1252</ele>
        <time>2022-07-31T11:54:58Z</time>
      </trkpt>
      <trkpt lat="46.16178" lon="6.66943">
        <ele>1252</ele>
        <time>2022-07-31T11:54:59Z</time>
      </trkpt>
      <trkpt lat="46.16178" lon="6.66943">
        <ele>1252</ele>
        <time>2022-07-31T11:55:00Z</time>
      </trkpt>
      <trkpt lat="46.16178" lon="6.66943">
        <ele>1251</ele>
        <time>2022-07-31T11:55:01Z</time>
      </trkpt>
      <trkpt lat="46.16178" lon="6.66943">
        <ele>1251</ele>
        <time>2022-07-31T11:55:02Z</time>
      </trkpt>
      <trkpt lat="46.16178" lon="6.66943">
        <ele>1251</ele>
        <time>2022-07-31T11:55:03Z</time>
      </trkpt>
      <trkpt lat="46.16178" lon="6.66943">
        <ele>1251</ele>
        <time>2022-07-31T11:55:04Z</time>
      </trkpt>
      <trkpt lat="46.16177" lon="6.66943">
        <ele>1251</ele>
        <time>2022-07-31T11:55:05Z</time>
      </trkpt>
      <trkpt lat="46.16176" lon="6.66942">
        <ele>1251</ele>
        <time>2022-07-31T11:55:06Z</time>
      </trkpt>
      <trkpt lat="46.16175" lon="6.66942">
        <ele>1251</ele>
        <time>2022-07-31T11:55:07Z</time>
      </trkpt>
      <trkpt lat="46.16174" lon="6.66942">
        <ele>1251</ele>
        <time>2022-07-31T11:55:08Z</time>
      </trkpt>
      <trkpt lat="46.16173" lon="6.66942">
        <ele>1251</ele>
        <time>2022-07-31T11:55:09Z</time>
      </trkpt>
      <trkpt lat="46.16172" lon="6.66942">
        <ele>1250</ele>
        <time>2022-07-31T11:55:10Z</time>
      </trkpt>
      <trkpt lat="46.16172" lon="6.66942">
        <ele>1250</ele>
        <time>2022-07-31T11:55:11Z</time>
      </trkpt>
      <trkpt lat="46.16171" lon="6.66942">
        <ele>1250</ele>
        <time>2022-07-31T11:55:12Z</time>
      </trkpt>
      <trkpt lat="46.16171" lon="6.66942">
        <ele>1250</ele>
        <time>2022-07-31T11:55:13Z</time>
      </trkpt>
      <trkpt lat="46.16171" lon="6.66943">
        <ele>1250</ele>
        <time>2022-07-31T11:55:14Z</time>
      </trkpt>
      <trkpt lat="46.16171" lon="6.66943">
        <ele>1249</ele>
        <time>2022-07-31T11:55:15Z</time>
      </trkpt>
      <trkpt lat="46.16171" lon="6.66943">
        <ele>1249</ele>
        <time>2022-07-31T11:55:16Z</time>
      </trkpt>
      <trkpt lat="46.16171" lon="6.66943">
        <ele>1249</ele>
        <time>2022-07-31T11:55:17Z</time>
      </trkpt>
      <trkpt lat="46.1617" lon="6.66944">
        <ele>1248</ele>
        <time>2022-07-31T11:55:18Z</time>
      </trkpt>
      <trkpt lat="46.1617" lon="6.66945">
        <ele>1248</ele>
        <time>2022-07-31T11:55:19Z</time>
      </trkpt>
      <trkpt lat="46.16168" lon="6.66946">
        <ele>1248</ele>
        <time>2022-07-31T11:55:20Z</time>
      </trkpt>
      <trkpt lat="46.16168" lon="6.66946">
        <ele>1247</ele>
        <time>2022-07-31T11:55:21Z</time>
      </trkpt>
      <trkpt lat="46.16167" lon="6.66946">
        <ele>1247</ele>
        <time>2022-07-31T11:55:22Z</time>
      </trkpt>
      <trkpt lat="46.16166" lon="6.66946">
        <ele>1247</ele>
        <time>2022-07-31T11:55:23Z</time>
      </trkpt>
      <trkpt lat="46.16165" lon="6.66947">
        <ele>1246</ele>
        <time>2022-07-31T11:55:24Z</time>
      </trkpt>
      <trkpt lat="46.16164" lon="6.66946">
        <ele>1246</ele>
        <time>2022-07-31T11:55:25Z</time>
      </trkpt>
      <trkpt lat="46.16164" lon="6.66945">
        <ele>1246</ele>
        <time>2022-07-31T11:55:26Z</time>
      </trkpt>
      <trkpt lat="46.16163" lon="6.66944">
        <ele>1246</ele>
        <time>2022-07-31T11:55:27Z</time>
      </trkpt>
      <trkpt lat="46.16162" lon="6.66944">
        <ele>1245</ele>
        <time>2022-07-31T11:55:28Z</time>
      </trkpt>
      <trkpt lat="46.16162" lon="6.66944">
        <ele>1245</ele>
        <time>2022-07-31T11:55:29Z</time>
      </trkpt>
      <trkpt lat="46.16161" lon="6.66944">
        <ele>1245</ele>
        <time>2022-07-31T11:55:30Z</time>
      </trkpt>
      <trkpt lat="46.1616" lon="6.66944">
        <ele>1245</ele>
        <time>2022-07-31T11:55:31Z</time>
      </trkpt>
      <trkpt lat="46.16159" lon="6.66943">
        <ele>1245</ele>
        <time>2022-07-31T11:55:32Z</time>
      </trkpt>
      <trkpt lat="46.16159" lon="6.66942">
        <ele>1244</ele>
        <time>2022-07-31T11:55:33Z</time>
      </trkpt>
      <trkpt lat="46.16159" lon="6.66941">
        <ele>1244</ele>
        <time>2022-07-31T11:55:34Z</time>
      </trkpt>
      <trkpt lat="46.16159" lon="6.66941">
        <ele>1244</ele>
        <time>2022-07-31T11:55:35Z</time>
      </trkpt>
      <trkpt lat="46.16159" lon="6.6694">
        <ele>1244</ele>
        <time>2022-07-31T11:55:36Z</time>
      </trkpt>
      <trkpt lat="46.16159" lon="6.6694">
        <ele>1244</ele>
        <time>2022-07-31T11:55:37Z</time>
      </trkpt>
      <trkpt lat="46.16159" lon="6.66941">
        <ele>1244</ele>
        <time>2022-07-31T11:55:38Z</time>
      </trkpt>
      <trkpt lat="46.16158" lon="6.66941">
        <ele>1243</ele>
        <time>2022-07-31T11:55:39Z</time>
      </trkpt>
      <trkpt lat="46.16158" lon="6.66942">
        <ele>1243</ele>
        <time>2022-07-31T11:55:40Z</time>
      </trkpt>
      <trkpt lat="46.16158" lon="6.66942">
        <ele>1243</ele>
        <time>2022-07-31T11:55:41Z</time>
      </trkpt>
      <trkpt lat="46.16158" lon="6.66942">
        <ele>1243</ele>
        <time>2022-07-31T11:55:42Z</time>
      </trkpt>
      <trkpt lat="46.16158" lon="6.66943">
        <ele>1243</ele>
        <time>2022-07-31T11:55:43Z</time>
      </trkpt>
      <trkpt lat="46.16158" lon="6.66942">
        <ele>1243</ele>
        <time>2022-07-31T11:55:44Z</time>
      </trkpt>
      <trkpt lat="46.16158" lon="6.66942">
        <ele>1243</ele>
        <time>2022-07-31T11:55:45Z</time>
      </trkpt>
      <trkpt lat="46.16158" lon="6.66941">
        <ele>1243</ele>
        <time>2022-07-31T11:55:46Z</time>
      </trkpt>
      <trkpt lat="46.16158" lon="6.6694">
        <ele>1243</ele>
        <time>2022-07-31T11:55:47Z</time>
      </trkpt>
      <trkpt lat="46.16158" lon="6.6694">
        <ele>1243</ele>
        <time>2022-07-31T11:55:48Z</time>
      </trkpt>
      <trkpt lat="46.16158" lon="6.66939">
        <ele>1243</ele>
        <time>2022-07-31T11:55:49Z</time>
      </trkpt>
      <trkpt lat="46.16158" lon="6.66939">
        <ele>1243</ele>
        <time>2022-07-31T11:55:50Z</time>
      </trkpt>
      <trkpt lat="46.16158" lon="6.66938">
        <ele>1243</ele>
        <time>2022-07-31T11:55:51Z</time>
      </trkpt>
      <trkpt lat="46.16158" lon="6.66938">
        <ele>1243</ele>
        <time>2022-07-31T11:55:52Z</time>
      </trkpt>
      <trkpt lat="46.16158" lon="6.66937">
        <ele>1243</ele>
        <time>2022-07-31T11:55:53Z</time>
      </trkpt>
      <trkpt lat="46.16158" lon="6.66936">
        <ele>1243</ele>
        <time>2022-07-31T11:55:54Z</time>
      </trkpt>
      <trkpt lat="46.16158" lon="6.66934">
        <ele>1243</ele>
        <time>2022-07-31T11:55:55Z</time>
      </trkpt>
      <trkpt lat="46.16158" lon="6.66933">
        <ele>1243</ele>
        <time>2022-07-31T11:55:56Z</time>
      </trkpt>
      <trkpt lat="46.16157" lon="6.66932">
        <ele>1243</ele>
        <time>2022-07-31T11:55:57Z</time>
      </trkpt>
      <trkpt lat="46.16156" lon="6.66931">
        <ele>1243</ele>
        <time>2022-07-31T11:55:58Z</time>
      </trkpt>
      <trkpt lat="46.16156" lon="6.6693">
        <ele>1243</ele>
        <time>2022-07-31T11:55:59Z</time>
      </trkpt>
      <trkpt lat="46.16156" lon="6.6693">
        <ele>1243</ele>
        <time>2022-07-31T11:56:00Z</time>
      </trkpt>
      <trkpt lat="46.16155" lon="6.6693">
        <ele>1243</ele>
        <time>2022-07-31T11:56:01Z</time>
      </trkpt>
      <trkpt lat="46.16155" lon="6.6693">
        <ele>1243</ele>
        <time>2022-07-31T11:56:02Z</time>
      </trkpt>
      <trkpt lat="46.16155" lon="6.6693">
        <ele>1243</ele>
        <time>2022-07-31T11:56:03Z</time>
      </trkpt>
      <trkpt lat="46.16155" lon="6.66929">
        <ele>1243</ele>
        <time>2022-07-31T11:56:04Z</time>
      </trkpt>
      <trkpt lat="46.16154" lon="6.66928">
        <ele>1243</ele>
        <time>2022-07-31T11:56:05Z</time>
      </trkpt>
      <trkpt lat="46.16154" lon="6.66927">
        <ele>1243</ele>
        <time>2022-07-31T11:56:06Z</time>
      </trkpt>
      <trkpt lat="46.16153" lon="6.66926">
        <ele>1243</ele>
        <time>2022-07-31T11:56:07Z</time>
      </trkpt>
      <trkpt lat="46.16152" lon="6.66925">
        <ele>1243</ele>
        <time>2022-07-31T11:56:08Z</time>
      </trkpt>
      <trkpt lat="46.16151" lon="6.66924">
        <ele>1243</ele>
        <time>2022-07-31T11:56:09Z</time>
      </trkpt>
      <trkpt lat="46.1615" lon="6.66923">
        <ele>1242</ele>
        <time>2022-07-31T11:56:10Z</time>
      </trkpt>
      <trkpt lat="46.16149" lon="6.66922">
        <ele>1242</ele>
        <time>2022-07-31T11:56:11Z</time>
      </trkpt>
      <trkpt lat="46.16147" lon="6.66921">
        <ele>1242</ele>
        <time>2022-07-31T11:56:12Z</time>
      </trkpt>
      <trkpt lat="46.16147" lon="6.66921">
        <ele>1242</ele>
        <time>2022-07-31T11:56:13Z</time>
      </trkpt>
      <trkpt lat="46.16146" lon="6.66921">
        <ele>1242</ele>
        <time>2022-07-31T11:56:14Z</time>
      </trkpt>
      <trkpt lat="46.16146" lon="6.6692">
        <ele>1242</ele>
        <time>2022-07-31T11:56:15Z</time>
      </trkpt>
      <trkpt lat="46.16146" lon="6.6692">
        <ele>1242</ele>
        <time>2022-07-31T11:56:16Z</time>
      </trkpt>
      <trkpt lat="46.16144" lon="6.6692">
        <ele>1241</ele>
        <time>2022-07-31T11:56:17Z</time>
      </trkpt>
      <trkpt lat="46.16144" lon="6.6692">
        <ele>1241</ele>
        <time>2022-07-31T11:56:18Z</time>
      </trkpt>
      <trkpt lat="46.16144" lon="6.6692">
        <ele>1241</ele>
        <time>2022-07-31T11:56:19Z</time>
      </trkpt>
      <trkpt lat="46.16144" lon="6.6692">
        <ele>1241</ele>
        <time>2022-07-31T11:56:20Z</time>
      </trkpt>
      <trkpt lat="46.16144" lon="6.66921">
        <ele>1241</ele>
        <time>2022-07-31T11:56:21Z</time>
      </trkpt>
      <trkpt lat="46.16144" lon="6.66921">
        <ele>1241</ele>
        <time>2022-07-31T11:56:22Z</time>
      </trkpt>
      <trkpt lat="46.16143" lon="6.66921">
        <ele>1240</ele>
        <time>2022-07-31T11:56:23Z</time>
      </trkpt>
      <trkpt lat="46.16142" lon="6.66921">
        <ele>1240</ele>
        <time>2022-07-31T11:56:24Z</time>
      </trkpt>
      <trkpt lat="46.16142" lon="6.66921">
        <ele>1240</ele>
        <time>2022-07-31T11:56:25Z</time>
      </trkpt>
      <trkpt lat="46.16142" lon="6.66921">
        <ele>1240</ele>
        <time>2022-07-31T11:56:26Z</time>
      </trkpt>
      <trkpt lat="46.16142" lon="6.6692">
        <ele>1240</ele>
        <time>2022-07-31T11:56:27Z</time>
      </trkpt>
      <trkpt lat="46.16142" lon="6.66919">
        <ele>1240</ele>
        <time>2022-07-31T11:56:28Z</time>
      </trkpt>
      <trkpt lat="46.16142" lon="6.66919">
        <ele>1240</ele>
        <time>2022-07-31T11:56:29Z</time>
      </trkpt>
      <trkpt lat="46.16142" lon="6.66917">
        <ele>1240</ele>
        <time>2022-07-31T11:56:30Z</time>
      </trkpt>
      <trkpt lat="46.16141" lon="6.66916">
        <ele>1240</ele>
        <time>2022-07-31T11:56:31Z</time>
      </trkpt>
      <trkpt lat="46.16141" lon="6.66916">
        <ele>1240</ele>
        <time>2022-07-31T11:56:32Z</time>
      </trkpt>
      <trkpt lat="46.16142" lon="6.66915">
        <ele>1240</ele>
        <time>2022-07-31T11:56:33Z</time>
      </trkpt>
      <trkpt lat="46.16142" lon="6.66915">
        <ele>1240</ele>
        <time>2022-07-31T11:56:34Z</time>
      </trkpt>
      <trkpt lat="46.16142" lon="6.66914">
        <ele>1240</ele>
        <time>2022-07-31T11:56:35Z</time>
      </trkpt>
      <trkpt lat="46.16142" lon="6.66913">
        <ele>1241</ele>
        <time>2022-07-31T11:56:36Z</time>
      </trkpt>
      <trkpt lat="46.16142" lon="6.66913">
        <ele>1241</ele>
        <time>2022-07-31T11:56:37Z</time>
      </trkpt>
      <trkpt lat="46.16142" lon="6.66913">
        <ele>1241</ele>
        <time>2022-07-31T11:56:38Z</time>
      </trkpt>
      <trkpt lat="46.16142" lon="6.66913">
        <ele>1241</ele>
        <time>2022-07-31T11:56:39Z</time>
      </trkpt>
      <trkpt lat="46.16142" lon="6.66913">
        <ele>1241</ele>
        <time>2022-07-31T11:56:40Z</time>
      </trkpt>
      <trkpt lat="46.16142" lon="6.66913">
        <ele>1241</ele>
        <time>2022-07-31T11:56:41Z</time>
      </trkpt>
      <trkpt lat="46.16141" lon="6.66913">
        <ele>1241</ele>
        <time>2022-07-31T11:56:42Z</time>
      </trkpt>
      <trkpt lat="46.16141" lon="6.66913">
        <ele>1241</ele>
        <time>2022-07-31T11:56:43Z</time>
      </trkpt>
      <trkpt lat="46.1614" lon="6.66913">
        <ele>1241</ele>
        <time>2022-07-31T11:56:44Z</time>
      </trkpt>
      <trkpt lat="46.16139" lon="6.66913">
        <ele>1241</ele>
        <time>2022-07-31T11:56:45Z</time>
      </trkpt>
      <trkpt lat="46.16139" lon="6.66913">
        <ele>1241</ele>
        <time>2022-07-31T11:56:46Z</time>
      </trkpt>
      <trkpt lat="46.16138" lon="6.66912">
        <ele>1241</ele>
        <time>2022-07-31T11:56:47Z</time>
      </trkpt>
      <trkpt lat="46.16136" lon="6.66911">
        <ele>1242</ele>
        <time>2022-07-31T11:56:48Z</time>
      </trkpt>
      <trkpt lat="46.16135" lon="6.6691">
        <ele>1242</ele>
        <time>2022-07-31T11:56:49Z</time>
      </trkpt>
      <trkpt lat="46.16134" lon="6.6691">
        <ele>1242</ele>
        <time>2022-07-31T11:56:50Z</time>
      </trkpt>
      <trkpt lat="46.16133" lon="6.66909">
        <ele>1242</ele>
        <time>2022-07-31T11:56:51Z</time>
      </trkpt>
      <trkpt lat="46.16133" lon="6.6691">
        <ele>1242</ele>
        <time>2022-07-31T11:56:52Z</time>
      </trkpt>
      <trkpt lat="46.16132" lon="6.6691">
        <ele>1242</ele>
        <time>2022-07-31T11:56:53Z</time>
      </trkpt>
      <trkpt lat="46.16133" lon="6.6691">
        <ele>1242</ele>
        <time>2022-07-31T11:56:54Z</time>
      </trkpt>
      <trkpt lat="46.16131" lon="6.66909">
        <ele>1242</ele>
        <time>2022-07-31T11:56:55Z</time>
      </trkpt>
      <trkpt lat="46.1613" lon="6.66908">
        <ele>1242</ele>
        <time>2022-07-31T11:56:56Z</time>
      </trkpt>
      <trkpt lat="46.16128" lon="6.66907">
        <ele>1242</ele>
        <time>2022-07-31T11:56:57Z</time>
      </trkpt>
      <trkpt lat="46.16127" lon="6.66907">
        <ele>1242</ele>
        <time>2022-07-31T11:56:58Z</time>
      </trkpt>
      <trkpt lat="46.16126" lon="6.66907">
        <ele>1242</ele>
        <time>2022-07-31T11:56:59Z</time>
      </trkpt>
      <trkpt lat="46.16125" lon="6.66906">
        <ele>1242</ele>
        <time>2022-07-31T11:57:00Z</time>
      </trkpt>
      <trkpt lat="46.16125" lon="6.66906">
        <ele>1242</ele>
        <time>2022-07-31T11:57:01Z</time>
      </trkpt>
      <trkpt lat="46.16124" lon="6.66905">
        <ele>1242</ele>
        <time>2022-07-31T11:57:02Z</time>
      </trkpt>
      <trkpt lat="46.16122" lon="6.66904">
        <ele>1242</ele>
        <time>2022-07-31T11:57:03Z</time>
      </trkpt>
      <trkpt lat="46.16121" lon="6.66903">
        <ele>1242</ele>
        <time>2022-07-31T11:57:04Z</time>
      </trkpt>
      <trkpt lat="46.1612" lon="6.66903">
        <ele>1242</ele>
        <time>2022-07-31T11:57:05Z</time>
      </trkpt>
      <trkpt lat="46.16119" lon="6.66903">
        <ele>1242</ele>
        <time>2022-07-31T11:57:06Z</time>
      </trkpt>
      <trkpt lat="46.16119" lon="6.66903">
        <ele>1242</ele>
        <time>2022-07-31T11:57:07Z</time>
      </trkpt>
      <trkpt lat="46.16118" lon="6.66902">
        <ele>1242</ele>
        <time>2022-07-31T11:57:08Z</time>
      </trkpt>
      <trkpt lat="46.16118" lon="6.66901">
        <ele>1242</ele>
        <time>2022-07-31T11:57:09Z</time>
      </trkpt>
      <trkpt lat="46.16118" lon="6.669">
        <ele>1242</ele>
        <time>2022-07-31T11:57:10Z</time>
      </trkpt>
      <trkpt lat="46.16117" lon="6.669">
        <ele>1242</ele>
        <time>2022-07-31T11:57:11Z</time>
      </trkpt>
      <trkpt lat="46.16117" lon="6.669">
        <ele>1242</ele>
        <time>2022-07-31T11:57:12Z</time>
      </trkpt>
      <trkpt lat="46.16116" lon="6.669">
        <ele>1242</ele>
        <time>2022-07-31T11:57:13Z</time>
      </trkpt>
      <trkpt lat="46.16116" lon="6.66899">
        <ele>1242</ele>
        <time>2022-07-31T11:57:14Z</time>
      </trkpt>
      <trkpt lat="46.16114" lon="6.66899">
        <ele>1242</ele>
        <time>2022-07-31T11:57:15Z</time>
      </trkpt>
      <trkpt lat="46.16113" lon="6.66898">
        <ele>1241</ele>
        <time>2022-07-31T11:57:16Z</time>
      </trkpt>
      <trkpt lat="46.16112" lon="6.66896">
        <ele>1241</ele>
        <time>2022-07-31T11:57:17Z</time>
      </trkpt>
      <trkpt lat="46.1611" lon="6.66896">
        <ele>1241</ele>
        <time>2022-07-31T11:57:18Z</time>
      </trkpt>
      <trkpt lat="46.16109" lon="6.66896">
        <ele>1241</ele>
        <time>2022-07-31T11:57:19Z</time>
      </trkpt>
      <trkpt lat="46.16109" lon="6.66896">
        <ele>1241</ele>
        <time>2022-07-31T11:57:20Z</time>
      </trkpt>
      <trkpt lat="46.16107" lon="6.66895">
        <ele>1241</ele>
        <time>2022-07-31T11:57:21Z</time>
      </trkpt>
      <trkpt lat="46.16106" lon="6.66895">
        <ele>1241</ele>
        <time>2022-07-31T11:57:22Z</time>
      </trkpt>
      <trkpt lat="46.16105" lon="6.66894">
        <ele>1241</ele>
        <time>2022-07-31T11:57:23Z</time>
      </trkpt>
      <trkpt lat="46.16105" lon="6.66894">
        <ele>1241</ele>
        <time>2022-07-31T11:57:24Z</time>
      </trkpt>
      <trkpt lat="46.16104" lon="6.66894">
        <ele>1240</ele>
        <time>2022-07-31T11:57:25Z</time>
      </trkpt>
      <trkpt lat="46.16102" lon="6.66892">
        <ele>1240</ele>
        <time>2022-07-31T11:57:26Z</time>
      </trkpt>
      <trkpt lat="46.16101" lon="6.66892">
        <ele>1240</ele>
        <time>2022-07-31T11:57:27Z</time>
      </trkpt>
      <trkpt lat="46.161" lon="6.66892">
        <ele>1240</ele>
        <time>2022-07-31T11:57:28Z</time>
      </trkpt>
      <trkpt lat="46.16098" lon="6.66892">
        <ele>1240</ele>
        <time>2022-07-31T11:57:29Z</time>
      </trkpt>
      <trkpt lat="46.16097" lon="6.66891">
        <ele>1240</ele>
        <time>2022-07-31T11:57:30Z</time>
      </trkpt>
      <trkpt lat="46.16096" lon="6.6689">
        <ele>1240</ele>
        <time>2022-07-31T11:57:31Z</time>
      </trkpt>
      <trkpt lat="46.16096" lon="6.66889">
        <ele>1240</ele>
        <time>2022-07-31T11:57:32Z</time>
      </trkpt>
      <trkpt lat="46.16094" lon="6.66889">
        <ele>1240</ele>
        <time>2022-07-31T11:57:33Z</time>
      </trkpt>
      <trkpt lat="46.16093" lon="6.66889">
        <ele>1240</ele>
        <time>2022-07-31T11:57:34Z</time>
      </trkpt>
      <trkpt lat="46.16092" lon="6.66888">
        <ele>1240</ele>
        <time>2022-07-31T11:57:35Z</time>
      </trkpt>
      <trkpt lat="46.16091" lon="6.66889">
        <ele>1240</ele>
        <time>2022-07-31T11:57:36Z</time>
      </trkpt>
      <trkpt lat="46.1609" lon="6.66889">
        <ele>1240</ele>
        <time>2022-07-31T11:57:37Z</time>
      </trkpt>
      <trkpt lat="46.1609" lon="6.6689">
        <ele>1240</ele>
        <time>2022-07-31T11:57:38Z</time>
      </trkpt>
      <trkpt lat="46.16089" lon="6.66891">
        <ele>1240</ele>
        <time>2022-07-31T11:57:39Z</time>
      </trkpt>
      <trkpt lat="46.16088" lon="6.66891">
        <ele>1240</ele>
        <time>2022-07-31T11:57:40Z</time>
      </trkpt>
      <trkpt lat="46.16087" lon="6.66891">
        <ele>1240</ele>
        <time>2022-07-31T11:57:41Z</time>
      </trkpt>
      <trkpt lat="46.16085" lon="6.6689">
        <ele>1240</ele>
        <time>2022-07-31T11:57:42Z</time>
      </trkpt>
      <trkpt lat="46.16082" lon="6.6689">
        <ele>1240</ele>
        <time>2022-07-31T11:57:43Z</time>
      </trkpt>
      <trkpt lat="46.16081" lon="6.66889">
        <ele>1240</ele>
        <time>2022-07-31T11:57:44Z</time>
      </trkpt>
      <trkpt lat="46.1608" lon="6.66889">
        <ele>1240</ele>
        <time>2022-07-31T11:57:45Z</time>
      </trkpt>
      <trkpt lat="46.16077" lon="6.66889">
        <ele>1239</ele>
        <time>2022-07-31T11:57:46Z</time>
      </trkpt>
      <trkpt lat="46.16076" lon="6.6689">
        <ele>1239</ele>
        <time>2022-07-31T11:57:47Z</time>
      </trkpt>
      <trkpt lat="46.16075" lon="6.6689">
        <ele>1239</ele>
        <time>2022-07-31T11:57:48Z</time>
      </trkpt>
      <trkpt lat="46.16074" lon="6.66889">
        <ele>1239</ele>
        <time>2022-07-31T11:57:49Z</time>
      </trkpt>
      <trkpt lat="46.16073" lon="6.66889">
        <ele>1239</ele>
        <time>2022-07-31T11:57:50Z</time>
      </trkpt>
      <trkpt lat="46.16072" lon="6.66888">
        <ele>1239</ele>
        <time>2022-07-31T11:57:51Z</time>
      </trkpt>
      <trkpt lat="46.16071" lon="6.66888">
        <ele>1239</ele>
        <time>2022-07-31T11:57:52Z</time>
      </trkpt>
      <trkpt lat="46.16069" lon="6.66888">
        <ele>1238</ele>
        <time>2022-07-31T11:57:53Z</time>
      </trkpt>
      <trkpt lat="46.16069" lon="6.66888">
        <ele>1238</ele>
        <time>2022-07-31T11:57:54Z</time>
      </trkpt>
      <trkpt lat="46.16068" lon="6.66888">
        <ele>1238</ele>
        <time>2022-07-31T11:57:55Z</time>
      </trkpt>
      <trkpt lat="46.16067" lon="6.66888">
        <ele>1238</ele>
        <time>2022-07-31T11:57:56Z</time>
      </trkpt>
      <trkpt lat="46.16066" lon="6.66888">
        <ele>1238</ele>
        <time>2022-07-31T11:57:57Z</time>
      </trkpt>
      <trkpt lat="46.16065" lon="6.66888">
        <ele>1238</ele>
        <time>2022-07-31T11:57:58Z</time>
      </trkpt>
      <trkpt lat="46.16063" lon="6.66887">
        <ele>1238</ele>
        <time>2022-07-31T11:57:59Z</time>
      </trkpt>
      <trkpt lat="46.16062" lon="6.66888">
        <ele>1237</ele>
        <time>2022-07-31T11:58:00Z</time>
      </trkpt>
      <trkpt lat="46.16061" lon="6.66888">
        <ele>1237</ele>
        <time>2022-07-31T11:58:01Z</time>
      </trkpt>
      <trkpt lat="46.1606" lon="6.66888">
        <ele>1237</ele>
        <time>2022-07-31T11:58:02Z</time>
      </trkpt>
      <trkpt lat="46.16058" lon="6.66888">
        <ele>1237</ele>
        <time>2022-07-31T11:58:03Z</time>
      </trkpt>
      <trkpt lat="46.16057" lon="6.66888">
        <ele>1237</ele>
        <time>2022-07-31T11:58:04Z</time>
      </trkpt>
      <trkpt lat="46.16056" lon="6.66888">
        <ele>1236</ele>
        <time>2022-07-31T11:58:05Z</time>
      </trkpt>
      <trkpt lat="46.16054" lon="6.66889">
        <ele>1236</ele>
        <time>2022-07-31T11:58:06Z</time>
      </trkpt>
      <trkpt lat="46.16052" lon="6.66889">
        <ele>1236</ele>
        <time>2022-07-31T11:58:07Z</time>
      </trkpt>
      <trkpt lat="46.16051" lon="6.66889">
        <ele>1236</ele>
        <time>2022-07-31T11:58:08Z</time>
      </trkpt>
      <trkpt lat="46.1605" lon="6.66891">
        <ele>1235</ele>
        <time>2022-07-31T11:58:09Z</time>
      </trkpt>
      <trkpt lat="46.16048" lon="6.66892">
        <ele>1235</ele>
        <time>2022-07-31T11:58:10Z</time>
      </trkpt>
      <trkpt lat="46.16048" lon="6.66892">
        <ele>1235</ele>
        <time>2022-07-31T11:58:11Z</time>
      </trkpt>
      <trkpt lat="46.16048" lon="6.66892">
        <ele>1235</ele>
        <time>2022-07-31T11:58:12Z</time>
      </trkpt>
      <trkpt lat="46.16048" lon="6.66893">
        <ele>1235</ele>
        <time>2022-07-31T11:58:13Z</time>
      </trkpt>
      <trkpt lat="46.16047" lon="6.66894">
        <ele>1235</ele>
        <time>2022-07-31T11:58:14Z</time>
      </trkpt>
      <trkpt lat="46.16045" lon="6.66895">
        <ele>1234</ele>
        <time>2022-07-31T11:58:15Z</time>
      </trkpt>
      <trkpt lat="46.16044" lon="6.66896">
        <ele>1234</ele>
        <time>2022-07-31T11:58:16Z</time>
      </trkpt>
      <trkpt lat="46.16043" lon="6.66896">
        <ele>1234</ele>
        <time>2022-07-31T11:58:17Z</time>
      </trkpt>
      <trkpt lat="46.16042" lon="6.66896">
        <ele>1234</ele>
        <time>2022-07-31T11:58:18Z</time>
      </trkpt>
      <trkpt lat="46.16041" lon="6.66896">
        <ele>1234</ele>
        <time>2022-07-31T11:58:19Z</time>
      </trkpt>
      <trkpt lat="46.1604" lon="6.66897">
        <ele>1233</ele>
        <time>2022-07-31T11:58:20Z</time>
      </trkpt>
      <trkpt lat="46.1604" lon="6.66898">
        <ele>1233</ele>
        <time>2022-07-31T11:58:21Z</time>
      </trkpt>
      <trkpt lat="46.1604" lon="6.669">
        <ele>1233</ele>
        <time>2022-07-31T11:58:22Z</time>
      </trkpt>
      <trkpt lat="46.16041" lon="6.66902">
        <ele>1233</ele>
        <time>2022-07-31T11:58:23Z</time>
      </trkpt>
      <trkpt lat="46.16043" lon="6.66904">
        <ele>1232</ele>
        <time>2022-07-31T11:58:24Z</time>
      </trkpt>
      <trkpt lat="46.16044" lon="6.66905">
        <ele>1232</ele>
        <time>2022-07-31T11:58:25Z</time>
      </trkpt>
      <trkpt lat="46.16045" lon="6.66907">
        <ele>1232</ele>
        <time>2022-07-31T11:58:26Z</time>
      </trkpt>
      <trkpt lat="46.16046" lon="6.66909">
        <ele>1231</ele>
        <time>2022-07-31T11:58:27Z</time>
      </trkpt>
      <trkpt lat="46.16047" lon="6.6691">
        <ele>1231</ele>
        <time>2022-07-31T11:58:28Z</time>
      </trkpt>
      <trkpt lat="46.16047" lon="6.66911">
        <ele>1231</ele>
        <time>2022-07-31T11:58:29Z</time>
      </trkpt>
      <trkpt lat="46.16047" lon="6.66913">
        <ele>1230</ele>
        <time>2022-07-31T11:58:30Z</time>
      </trkpt>
      <trkpt lat="46.16048" lon="6.66914">
        <ele>1230</ele>
        <time>2022-07-31T11:58:31Z</time>
      </trkpt>
      <trkpt lat="46.16047" lon="6.66916">
        <ele>1229</ele>
        <time>2022-07-31T11:58:32Z</time>
      </trkpt>
      <trkpt lat="46.16047" lon="6.66918">
        <ele>1229</ele>
        <time>2022-07-31T11:58:33Z</time>
      </trkpt>
      <trkpt lat="46.16047" lon="6.6692">
        <ele>1228</ele>
        <time>2022-07-31T11:58:34Z</time>
      </trkpt>
      <trkpt lat="46.16048" lon="6.66922">
        <ele>1228</ele>
        <time>2022-07-31T11:58:35Z</time>
      </trkpt>
      <trkpt lat="46.16048" lon="6.66924">
        <ele>1227</ele>
        <time>2022-07-31T11:58:36Z</time>
      </trkpt>
      <trkpt lat="46.16049" lon="6.66925">
        <ele>1227</ele>
        <time>2022-07-31T11:58:37Z</time>
      </trkpt>
      <trkpt lat="46.1605" lon="6.66927">
        <ele>1226</ele>
        <time>2022-07-31T11:58:38Z</time>
      </trkpt>
      <trkpt lat="46.16051" lon="6.66929">
        <ele>1226</ele>
        <time>2022-07-31T11:58:39Z</time>
      </trkpt>
      <trkpt lat="46.1605" lon="6.66929">
        <ele>1226</ele>
        <time>2022-07-31T11:58:40Z</time>
      </trkpt>
      <trkpt lat="46.1605" lon="6.66928">
        <ele>1225</ele>
        <time>2022-07-31T11:58:41Z</time>
      </trkpt>
      <trkpt lat="46.1605" lon="6.66927">
        <ele>1225</ele>
        <time>2022-07-31T11:58:42Z</time>
      </trkpt>
      <trkpt lat="46.16049" lon="6.66925">
        <ele>1225</ele>
        <time>2022-07-31T11:58:43Z</time>
      </trkpt>
      <trkpt lat="46.16048" lon="6.66923">
        <ele>1225</ele>
        <time>2022-07-31T11:58:44Z</time>
      </trkpt>
      <trkpt lat="46.16048" lon="6.66922">
        <ele>1225</ele>
        <time>2022-07-31T11:58:45Z</time>
      </trkpt>
      <trkpt lat="46.16047" lon="6.66921">
        <ele>1224</ele>
        <time>2022-07-31T11:58:46Z</time>
      </trkpt>
      <trkpt lat="46.16046" lon="6.66919">
        <ele>1224</ele>
        <time>2022-07-31T11:58:47Z</time>
      </trkpt>
      <trkpt lat="46.16045" lon="6.66918">
        <ele>1224</ele>
        <time>2022-07-31T11:58:48Z</time>
      </trkpt>
      <trkpt lat="46.16044" lon="6.66917">
        <ele>1224</ele>
        <time>2022-07-31T11:58:49Z</time>
      </trkpt>
      <trkpt lat="46.16043" lon="6.66916">
        <ele>1224</ele>
        <time>2022-07-31T11:58:50Z</time>
      </trkpt>
      <trkpt lat="46.16041" lon="6.66915">
        <ele>1224</ele>
        <time>2022-07-31T11:58:51Z</time>
      </trkpt>
      <trkpt lat="46.1604" lon="6.66913">
        <ele>1224</ele>
        <time>2022-07-31T11:58:52Z</time>
      </trkpt>
      <trkpt lat="46.16039" lon="6.66912">
        <ele>1224</ele>
        <time>2022-07-31T11:58:53Z</time>
      </trkpt>
      <trkpt lat="46.16039" lon="6.66914">
        <ele>1224</ele>
        <time>2022-07-31T11:58:54Z</time>
      </trkpt>
      <trkpt lat="46.16039" lon="6.66915">
        <ele>1224</ele>
        <time>2022-07-31T11:58:55Z</time>
      </trkpt>
      <trkpt lat="46.16039" lon="6.66917">
        <ele>1224</ele>
        <time>2022-07-31T11:58:56Z</time>
      </trkpt>
      <trkpt lat="46.16039" lon="6.6692">
        <ele>1223</ele>
        <time>2022-07-31T11:58:57Z</time>
      </trkpt>
      <trkpt lat="46.16038" lon="6.66922">
        <ele>1223</ele>
        <time>2022-07-31T11:58:58Z</time>
      </trkpt>
      <trkpt lat="46.16038" lon="6.66923">
        <ele>1223</ele>
        <time>2022-07-31T11:58:59Z</time>
      </trkpt>
      <trkpt lat="46.16038" lon="6.66923">
        <ele>1223</ele>
        <time>2022-07-31T11:59:00Z</time>
      </trkpt>
      <trkpt lat="46.16036" lon="6.66924">
        <ele>1223</ele>
        <time>2022-07-31T11:59:01Z</time>
      </trkpt>
      <trkpt lat="46.16036" lon="6.66924">
        <ele>1223</ele>
        <time>2022-07-31T11:59:02Z</time>
      </trkpt>
      <trkpt lat="46.16035" lon="6.66924">
        <ele>1222</ele>
        <time>2022-07-31T11:59:03Z</time>
      </trkpt>
      <trkpt lat="46.16033" lon="6.66924">
        <ele>1222</ele>
        <time>2022-07-31T11:59:04Z</time>
      </trkpt>
      <trkpt lat="46.16033" lon="6.66924">
        <ele>1222</ele>
        <time>2022-07-31T11:59:05Z</time>
      </trkpt>
      <trkpt lat="46.16032" lon="6.66923">
        <ele>1222</ele>
        <time>2022-07-31T11:59:06Z</time>
      </trkpt>
      <trkpt lat="46.16031" lon="6.66923">
        <ele>1222</ele>
        <time>2022-07-31T11:59:07Z</time>
      </trkpt>
      <trkpt lat="46.16031" lon="6.66923">
        <ele>1222</ele>
        <time>2022-07-31T11:59:08Z</time>
      </trkpt>
      <trkpt lat="46.1603" lon="6.66923">
        <ele>1222</ele>
        <time>2022-07-31T11:59:09Z</time>
      </trkpt>
      <trkpt lat="46.1603" lon="6.66923">
        <ele>1222</ele>
        <time>2022-07-31T11:59:10Z</time>
      </trkpt>
      <trkpt lat="46.16029" lon="6.66922">
        <ele>1222</ele>
        <time>2022-07-31T11:59:11Z</time>
      </trkpt>
      <trkpt lat="46.16028" lon="6.66921">
        <ele>1222</ele>
        <time>2022-07-31T11:59:12Z</time>
      </trkpt>
      <trkpt lat="46.16026" lon="6.6692">
        <ele>1222</ele>
        <time>2022-07-31T11:59:13Z</time>
      </trkpt>
      <trkpt lat="46.16025" lon="6.66919">
        <ele>1222</ele>
        <time>2022-07-31T11:59:14Z</time>
      </trkpt>
      <trkpt lat="46.16025" lon="6.66919">
        <ele>1222</ele>
        <time>2022-07-31T11:59:15Z</time>
      </trkpt>
      <trkpt lat="46.16024" lon="6.6692">
        <ele>1222</ele>
        <time>2022-07-31T11:59:16Z</time>
      </trkpt>
      <trkpt lat="46.16023" lon="6.6692">
        <ele>1222</ele>
        <time>2022-07-31T11:59:17Z</time>
      </trkpt>
      <trkpt lat="46.16022" lon="6.6692">
        <ele>1222</ele>
        <time>2022-07-31T11:59:18Z</time>
      </trkpt>
      <trkpt lat="46.1602" lon="6.6692">
        <ele>1222</ele>
        <time>2022-07-31T11:59:19Z</time>
      </trkpt>
      <trkpt lat="46.16019" lon="6.6692">
        <ele>1222</ele>
        <time>2022-07-31T11:59:20Z</time>
      </trkpt>
      <trkpt lat="46.16018" lon="6.66921">
        <ele>1222</ele>
        <time>2022-07-31T11:59:21Z</time>
      </trkpt>
      <trkpt lat="46.16016" lon="6.66922">
        <ele>1222</ele>
        <time>2022-07-31T11:59:22Z</time>
      </trkpt>
      <trkpt lat="46.16015" lon="6.66922">
        <ele>1222</ele>
        <time>2022-07-31T11:59:23Z</time>
      </trkpt>
      <trkpt lat="46.16014" lon="6.66923">
        <ele>1222</ele>
        <time>2022-07-31T11:59:24Z</time>
      </trkpt>
      <trkpt lat="46.16014" lon="6.66924">
        <ele>1222</ele>
        <time>2022-07-31T11:59:25Z</time>
      </trkpt>
      <trkpt lat="46.16012" lon="6.66925">
        <ele>1222</ele>
        <time>2022-07-31T11:59:26Z</time>
      </trkpt>
      <trkpt lat="46.16011" lon="6.66926">
        <ele>1222</ele>
        <time>2022-07-31T11:59:27Z</time>
      </trkpt>
      <trkpt lat="46.1601" lon="6.66927">
        <ele>1222</ele>
        <time>2022-07-31T11:59:28Z</time>
      </trkpt>
      <trkpt lat="46.16009" lon="6.66929">
        <ele>1222</ele>
        <time>2022-07-31T11:59:29Z</time>
      </trkpt>
      <trkpt lat="46.16008" lon="6.6693">
        <ele>1222</ele>
        <time>2022-07-31T11:59:30Z</time>
      </trkpt>
      <trkpt lat="46.16007" lon="6.66931">
        <ele>1222</ele>
        <time>2022-07-31T11:59:31Z</time>
      </trkpt>
      <trkpt lat="46.16005" lon="6.66931">
        <ele>1222</ele>
        <time>2022-07-31T11:59:32Z</time>
      </trkpt>
      <trkpt lat="46.16004" lon="6.66931">
        <ele>1222</ele>
        <time>2022-07-31T11:59:33Z</time>
      </trkpt>
      <trkpt lat="46.16003" lon="6.66932">
        <ele>1222</ele>
        <time>2022-07-31T11:59:34Z</time>
      </trkpt>
      <trkpt lat="46.16001" lon="6.66932">
        <ele>1222</ele>
        <time>2022-07-31T11:59:35Z</time>
      </trkpt>
      <trkpt lat="46.16" lon="6.66933">
        <ele>1223</ele>
        <time>2022-07-31T11:59:36Z</time>
      </trkpt>
      <trkpt lat="46.15998" lon="6.66933">
        <ele>1223</ele>
        <time>2022-07-31T11:59:37Z</time>
      </trkpt>
      <trkpt lat="46.15997" lon="6.66934">
        <ele>1223</ele>
        <time>2022-07-31T11:59:38Z</time>
      </trkpt>
      <trkpt lat="46.15996" lon="6.66935">
        <ele>1223</ele>
        <time>2022-07-31T11:59:39Z</time>
      </trkpt>
      <trkpt lat="46.15995" lon="6.66935">
        <ele>1223</ele>
        <time>2022-07-31T11:59:40Z</time>
      </trkpt>
      <trkpt lat="46.15994" lon="6.66935">
        <ele>1223</ele>
        <time>2022-07-31T11:59:41Z</time>
      </trkpt>
      <trkpt lat="46.15993" lon="6.66936">
        <ele>1223</ele>
        <time>2022-07-31T11:59:42Z</time>
      </trkpt>
      <trkpt lat="46.15992" lon="6.66938">
        <ele>1223</ele>
        <time>2022-07-31T11:59:43Z</time>
      </trkpt>
      <trkpt lat="46.15991" lon="6.6694">
        <ele>1223</ele>
        <time>2022-07-31T11:59:44Z</time>
      </trkpt>
      <trkpt lat="46.1599" lon="6.6694">
        <ele>1223</ele>
        <time>2022-07-31T11:59:45Z</time>
      </trkpt>
      <trkpt lat="46.15989" lon="6.66941">
        <ele>1223</ele>
        <time>2022-07-31T11:59:46Z</time>
      </trkpt>
      <trkpt lat="46.15988" lon="6.66941">
        <ele>1224</ele>
        <time>2022-07-31T11:59:47Z</time>
      </trkpt>
      <trkpt lat="46.15987" lon="6.66942">
        <ele>1224</ele>
        <time>2022-07-31T11:59:48Z</time>
      </trkpt>
      <trkpt lat="46.15986" lon="6.66942">
        <ele>1224</ele>
        <time>2022-07-31T11:59:49Z</time>
      </trkpt>
      <trkpt lat="46.15985" lon="6.66942">
        <ele>1224</ele>
        <time>2022-07-31T11:59:50Z</time>
      </trkpt>
      <trkpt lat="46.15984" lon="6.66942">
        <ele>1224</ele>
        <time>2022-07-31T11:59:51Z</time>
      </trkpt>
      <trkpt lat="46.15982" lon="6.66942">
        <ele>1224</ele>
        <time>2022-07-31T11:59:52Z</time>
      </trkpt>
      <trkpt lat="46.15982" lon="6.66943">
        <ele>1223</ele>
        <time>2022-07-31T11:59:53Z</time>
      </trkpt>
      <trkpt lat="46.15981" lon="6.66943">
        <ele>1223</ele>
        <time>2022-07-31T11:59:54Z</time>
      </trkpt>
      <trkpt lat="46.1598" lon="6.66944">
        <ele>1223</ele>
        <time>2022-07-31T11:59:55Z</time>
      </trkpt>
      <trkpt lat="46.15979" lon="6.66945">
        <ele>1223</ele>
        <time>2022-07-31T11:59:56Z</time>
      </trkpt>
      <trkpt lat="46.15978" lon="6.66946">
        <ele>1223</ele>
        <time>2022-07-31T11:59:57Z</time>
      </trkpt>
      <trkpt lat="46.15978" lon="6.66947">
        <ele>1223</ele>
        <time>2022-07-31T11:59:58Z</time>
      </trkpt>
      <trkpt lat="46.15977" lon="6.66949">
        <ele>1223</ele>
        <time>2022-07-31T11:59:59Z</time>
      </trkpt>
      <trkpt lat="46.15976" lon="6.66949">
        <ele>1223</ele>
        <time>2022-07-31T12:00:00Z</time>
      </trkpt>
      <trkpt lat="46.15976" lon="6.66951">
        <ele>1222</ele>
        <time>2022-07-31T12:00:01Z</time>
      </trkpt>
      <trkpt lat="46.15975" lon="6.66952">
        <ele>1222</ele>
        <time>2022-07-31T12:00:02Z</time>
      </trkpt>
      <trkpt lat="46.15974" lon="6.66954">
        <ele>1222</ele>
        <time>2022-07-31T12:00:03Z</time>
      </trkpt>
      <trkpt lat="46.15973" lon="6.66956">
        <ele>1222</ele>
        <time>2022-07-31T12:00:04Z</time>
      </trkpt>
      <trkpt lat="46.15972" lon="6.66956">
        <ele>1222</ele>
        <time>2022-07-31T12:00:05Z</time>
      </trkpt>
      <trkpt lat="46.1597" lon="6.66957">
        <ele>1221</ele>
        <time>2022-07-31T12:00:06Z</time>
      </trkpt>
      <trkpt lat="46.15969" lon="6.66959">
        <ele>1221</ele>
        <time>2022-07-31T12:00:07Z</time>
      </trkpt>
      <trkpt lat="46.15967" lon="6.6696">
        <ele>1221</ele>
        <time>2022-07-31T12:00:08Z</time>
      </trkpt>
      <trkpt lat="46.15966" lon="6.6696">
        <ele>1221</ele>
        <time>2022-07-31T12:00:09Z</time>
      </trkpt>
      <trkpt lat="46.15965" lon="6.66961">
        <ele>1221</ele>
        <time>2022-07-31T12:00:10Z</time>
      </trkpt>
      <trkpt lat="46.15964" lon="6.66962">
        <ele>1220</ele>
        <time>2022-07-31T12:00:11Z</time>
      </trkpt>
      <trkpt lat="46.15962" lon="6.66963">
        <ele>1220</ele>
        <time>2022-07-31T12:00:12Z</time>
      </trkpt>
      <trkpt lat="46.15961" lon="6.66964">
        <ele>1220</ele>
        <time>2022-07-31T12:00:13Z</time>
      </trkpt>
      <trkpt lat="46.1596" lon="6.66965">
        <ele>1220</ele>
        <time>2022-07-31T12:00:14Z</time>
      </trkpt>
      <trkpt lat="46.15959" lon="6.66965">
        <ele>1219</ele>
        <time>2022-07-31T12:00:15Z</time>
      </trkpt>
      <trkpt lat="46.15958" lon="6.66965">
        <ele>1219</ele>
        <time>2022-07-31T12:00:16Z</time>
      </trkpt>
      <trkpt lat="46.15957" lon="6.66966">
        <ele>1219</ele>
        <time>2022-07-31T12:00:17Z</time>
      </trkpt>
      <trkpt lat="46.15956" lon="6.66968">
        <ele>1219</ele>
        <time>2022-07-31T12:00:18Z</time>
      </trkpt>
      <trkpt lat="46.15954" lon="6.66969">
        <ele>1219</ele>
        <time>2022-07-31T12:00:19Z</time>
      </trkpt>
      <trkpt lat="46.15953" lon="6.6697">
        <ele>1219</ele>
        <time>2022-07-31T12:00:20Z</time>
      </trkpt>
      <trkpt lat="46.15952" lon="6.6697">
        <ele>1218</ele>
        <time>2022-07-31T12:00:21Z</time>
      </trkpt>
      <trkpt lat="46.15951" lon="6.6697">
        <ele>1218</ele>
        <time>2022-07-31T12:00:22Z</time>
      </trkpt>
      <trkpt lat="46.1595" lon="6.66969">
        <ele>1218</ele>
        <time>2022-07-31T12:00:23Z</time>
      </trkpt>
      <trkpt lat="46.15949" lon="6.66969">
        <ele>1218</ele>
        <time>2022-07-31T12:00:24Z</time>
      </trkpt>
      <trkpt lat="46.15948" lon="6.66968">
        <ele>1217</ele>
        <time>2022-07-31T12:00:25Z</time>
      </trkpt>
      <trkpt lat="46.15947" lon="6.66967">
        <ele>1217</ele>
        <time>2022-07-31T12:00:26Z</time>
      </trkpt>
      <trkpt lat="46.15947" lon="6.66966">
        <ele>1217</ele>
        <time>2022-07-31T12:00:27Z</time>
      </trkpt>
      <trkpt lat="46.15945" lon="6.66966">
        <ele>1217</ele>
        <time>2022-07-31T12:00:28Z</time>
      </trkpt>
      <trkpt lat="46.15945" lon="6.66966">
        <ele>1217</ele>
        <time>2022-07-31T12:00:29Z</time>
      </trkpt>
      <trkpt lat="46.15944" lon="6.66965">
        <ele>1217</ele>
        <time>2022-07-31T12:00:30Z</time>
      </trkpt>
      <trkpt lat="46.15943" lon="6.66965">
        <ele>1216</ele>
        <time>2022-07-31T12:00:31Z</time>
      </trkpt>
      <trkpt lat="46.15942" lon="6.66964">
        <ele>1216</ele>
        <time>2022-07-31T12:00:32Z</time>
      </trkpt>
      <trkpt lat="46.15941" lon="6.66963">
        <ele>1216</ele>
        <time>2022-07-31T12:00:33Z</time>
      </trkpt>
      <trkpt lat="46.15941" lon="6.66963">
        <ele>1216</ele>
        <time>2022-07-31T12:00:34Z</time>
      </trkpt>
      <trkpt lat="46.15941" lon="6.66963">
        <ele>1216</ele>
        <time>2022-07-31T12:00:35Z</time>
      </trkpt>
      <trkpt lat="46.15941" lon="6.66963">
        <ele>1216</ele>
        <time>2022-07-31T12:00:36Z</time>
      </trkpt>
      <trkpt lat="46.15941" lon="6.66962">
        <ele>1216</ele>
        <time>2022-07-31T12:00:37Z</time>
      </trkpt>
      <trkpt lat="46.1594" lon="6.66961">
        <ele>1216</ele>
        <time>2022-07-31T12:00:38Z</time>
      </trkpt>
      <trkpt lat="46.15938" lon="6.66959">
        <ele>1216</ele>
        <time>2022-07-31T12:00:39Z</time>
      </trkpt>
      <trkpt lat="46.15938" lon="6.66958">
        <ele>1216</ele>
        <time>2022-07-31T12:00:40Z</time>
      </trkpt>
      <trkpt lat="46.15937" lon="6.66956">
        <ele>1216</ele>
        <time>2022-07-31T12:00:41Z</time>
      </trkpt>
      <trkpt lat="46.15937" lon="6.66955">
        <ele>1216</ele>
        <time>2022-07-31T12:00:42Z</time>
      </trkpt>
      <trkpt lat="46.15936" lon="6.66954">
        <ele>1216</ele>
        <time>2022-07-31T12:00:43Z</time>
      </trkpt>
      <trkpt lat="46.15936" lon="6.66953">
        <ele>1216</ele>
        <time>2022-07-31T12:00:44Z</time>
      </trkpt>
      <trkpt lat="46.15935" lon="6.66953">
        <ele>1216</ele>
        <time>2022-07-31T12:00:45Z</time>
      </trkpt>
      <trkpt lat="46.15934" lon="6.66951">
        <ele>1216</ele>
        <time>2022-07-31T12:00:46Z</time>
      </trkpt>
      <trkpt lat="46.15933" lon="6.6695">
        <ele>1216</ele>
        <time>2022-07-31T12:00:47Z</time>
      </trkpt>
      <trkpt lat="46.15932" lon="6.6695">
        <ele>1216</ele>
        <time>2022-07-31T12:00:48Z</time>
      </trkpt>
      <trkpt lat="46.15929" lon="6.66949">
        <ele>1216</ele>
        <time>2022-07-31T12:00:49Z</time>
      </trkpt>
      <trkpt lat="46.15929" lon="6.66948">
        <ele>1216</ele>
        <time>2022-07-31T12:00:50Z</time>
      </trkpt>
      <trkpt lat="46.15928" lon="6.66947">
        <ele>1216</ele>
        <time>2022-07-31T12:00:51Z</time>
      </trkpt>
      <trkpt lat="46.15927" lon="6.66946">
        <ele>1216</ele>
        <time>2022-07-31T12:00:52Z</time>
      </trkpt>
      <trkpt lat="46.15927" lon="6.66945">
        <ele>1216</ele>
        <time>2022-07-31T12:00:53Z</time>
      </trkpt>
      <trkpt lat="46.15926" lon="6.66943">
        <ele>1216</ele>
        <time>2022-07-31T12:00:54Z</time>
      </trkpt>
      <trkpt lat="46.15925" lon="6.66943">
        <ele>1216</ele>
        <time>2022-07-31T12:00:55Z</time>
      </trkpt>
      <trkpt lat="46.15924" lon="6.66942">
        <ele>1216</ele>
        <time>2022-07-31T12:00:56Z</time>
      </trkpt>
      <trkpt lat="46.15924" lon="6.66942">
        <ele>1217</ele>
        <time>2022-07-31T12:00:57Z</time>
      </trkpt>
      <trkpt lat="46.15923" lon="6.66941">
        <ele>1217</ele>
        <time>2022-07-31T12:00:58Z</time>
      </trkpt>
      <trkpt lat="46.15922" lon="6.6694">
        <ele>1217</ele>
        <time>2022-07-31T12:00:59Z</time>
      </trkpt>
      <trkpt lat="46.15921" lon="6.66939">
        <ele>1217</ele>
        <time>2022-07-31T12:01:00Z</time>
      </trkpt>
      <trkpt lat="46.1592" lon="6.66937">
        <ele>1217</ele>
        <time>2022-07-31T12:01:01Z</time>
      </trkpt>
      <trkpt lat="46.1592" lon="6.66936">
        <ele>1217</ele>
        <time>2022-07-31T12:01:02Z</time>
      </trkpt>
      <trkpt lat="46.15919" lon="6.66934">
        <ele>1217</ele>
        <time>2022-07-31T12:01:03Z</time>
      </trkpt>
      <trkpt lat="46.15918" lon="6.66933">
        <ele>1217</ele>
        <time>2022-07-31T12:01:04Z</time>
      </trkpt>
      <trkpt lat="46.15918" lon="6.66932">
        <ele>1217</ele>
        <time>2022-07-31T12:01:05Z</time>
      </trkpt>
      <trkpt lat="46.15916" lon="6.6693">
        <ele>1217</ele>
        <time>2022-07-31T12:01:06Z</time>
      </trkpt>
      <trkpt lat="46.15915" lon="6.66929">
        <ele>1217</ele>
        <time>2022-07-31T12:01:07Z</time>
      </trkpt>
      <trkpt lat="46.15915" lon="6.66927">
        <ele>1217</ele>
        <time>2022-07-31T12:01:08Z</time>
      </trkpt>
      <trkpt lat="46.15914" lon="6.66926">
        <ele>1217</ele>
        <time>2022-07-31T12:01:09Z</time>
      </trkpt>
      <trkpt lat="46.15913" lon="6.66925">
        <ele>1217</ele>
        <time>2022-07-31T12:01:10Z</time>
      </trkpt>
      <trkpt lat="46.15912" lon="6.66924">
        <ele>1217</ele>
        <time>2022-07-31T12:01:11Z</time>
      </trkpt>
      <trkpt lat="46.15911" lon="6.66922">
        <ele>1217</ele>
        <time>2022-07-31T12:01:12Z</time>
      </trkpt>
      <trkpt lat="46.1591" lon="6.6692">
        <ele>1217</ele>
        <time>2022-07-31T12:01:13Z</time>
      </trkpt>
      <trkpt lat="46.15908" lon="6.66919">
        <ele>1217</ele>
        <time>2022-07-31T12:01:14Z</time>
      </trkpt>
      <trkpt lat="46.15907" lon="6.66918">
        <ele>1217</ele>
        <time>2022-07-31T12:01:15Z</time>
      </trkpt>
      <trkpt lat="46.15907" lon="6.66917">
        <ele>1216</ele>
        <time>2022-07-31T12:01:16Z</time>
      </trkpt>
      <trkpt lat="46.15906" lon="6.66915">
        <ele>1216</ele>
        <time>2022-07-31T12:01:17Z</time>
      </trkpt>
      <trkpt lat="46.15904" lon="6.66915">
        <ele>1216</ele>
        <time>2022-07-31T12:01:18Z</time>
      </trkpt>
      <trkpt lat="46.15903" lon="6.66913">
        <ele>1216</ele>
        <time>2022-07-31T12:01:19Z</time>
      </trkpt>
      <trkpt lat="46.15903" lon="6.66912">
        <ele>1216</ele>
        <time>2022-07-31T12:01:20Z</time>
      </trkpt>
      <trkpt lat="46.15901" lon="6.6691">
        <ele>1216</ele>
        <time>2022-07-31T12:01:21Z</time>
      </trkpt>
      <trkpt lat="46.15901" lon="6.66909">
        <ele>1216</ele>
        <time>2022-07-31T12:01:22Z</time>
      </trkpt>
      <trkpt lat="46.15901" lon="6.66908">
        <ele>1215</ele>
        <time>2022-07-31T12:01:23Z</time>
      </trkpt>
      <trkpt lat="46.159" lon="6.66907">
        <ele>1215</ele>
        <time>2022-07-31T12:01:24Z</time>
      </trkpt>
      <trkpt lat="46.159" lon="6.66906">
        <ele>1215</ele>
        <time>2022-07-31T12:01:25Z</time>
      </trkpt>
      <trkpt lat="46.15899" lon="6.66905">
        <ele>1215</ele>
        <time>2022-07-31T12:01:26Z</time>
      </trkpt>
      <trkpt lat="46.15898" lon="6.66904">
        <ele>1215</ele>
        <time>2022-07-31T12:01:27Z</time>
      </trkpt>
      <trkpt lat="46.15896" lon="6.66904">
        <ele>1215</ele>
        <time>2022-07-31T12:01:28Z</time>
      </trkpt>
      <trkpt lat="46.15896" lon="6.66903">
        <ele>1215</ele>
        <time>2022-07-31T12:01:29Z</time>
      </trkpt>
      <trkpt lat="46.15894" lon="6.66903">
        <ele>1215</ele>
        <time>2022-07-31T12:01:30Z</time>
      </trkpt>
      <trkpt lat="46.15893" lon="6.66903">
        <ele>1214</ele>
        <time>2022-07-31T12:01:31Z</time>
      </trkpt>
      <trkpt lat="46.15892" lon="6.66902">
        <ele>1214</ele>
        <time>2022-07-31T12:01:32Z</time>
      </trkpt>
      <trkpt lat="46.15891" lon="6.66902">
        <ele>1214</ele>
        <time>2022-07-31T12:01:33Z</time>
      </trkpt>
      <trkpt lat="46.1589" lon="6.66901">
        <ele>1214</ele>
        <time>2022-07-31T12:01:34Z</time>
      </trkpt>
      <trkpt lat="46.1589" lon="6.669">
        <ele>1214</ele>
        <time>2022-07-31T12:01:35Z</time>
      </trkpt>
      <trkpt lat="46.15888" lon="6.66899">
        <ele>1214</ele>
        <time>2022-07-31T12:01:36Z</time>
      </trkpt>
      <trkpt lat="46.15887" lon="6.66898">
        <ele>1214</ele>
        <time>2022-07-31T12:01:37Z</time>
      </trkpt>
      <trkpt lat="46.15886" lon="6.66897">
        <ele>1214</ele>
        <time>2022-07-31T12:01:38Z</time>
      </trkpt>
      <trkpt lat="46.15885" lon="6.66896">
        <ele>1214</ele>
        <time>2022-07-31T12:01:39Z</time>
      </trkpt>
      <trkpt lat="46.15885" lon="6.66896">
        <ele>1214</ele>
        <time>2022-07-31T12:01:40Z</time>
      </trkpt>
      <trkpt lat="46.15884" lon="6.66895">
        <ele>1214</ele>
        <time>2022-07-31T12:01:41Z</time>
      </trkpt>
      <trkpt lat="46.15883" lon="6.66895">
        <ele>1214</ele>
        <time>2022-07-31T12:01:42Z</time>
      </trkpt>
      <trkpt lat="46.15882" lon="6.66896">
        <ele>1214</ele>
        <time>2022-07-31T12:01:43Z</time>
      </trkpt>
      <trkpt lat="46.15881" lon="6.66896">
        <ele>1214</ele>
        <time>2022-07-31T12:01:44Z</time>
      </trkpt>
      <trkpt lat="46.15879" lon="6.66896">
        <ele>1214</ele>
        <time>2022-07-31T12:01:45Z</time>
      </trkpt>
      <trkpt lat="46.15878" lon="6.66896">
        <ele>1214</ele>
        <time>2022-07-31T12:01:46Z</time>
      </trkpt>
      <trkpt lat="46.15878" lon="6.66896">
        <ele>1214</ele>
        <time>2022-07-31T12:01:47Z</time>
      </trkpt>
      <trkpt lat="46.15876" lon="6.66895">
        <ele>1214</ele>
        <time>2022-07-31T12:01:48Z</time>
      </trkpt>
      <trkpt lat="46.15875" lon="6.66895">
        <ele>1214</ele>
        <time>2022-07-31T12:01:49Z</time>
      </trkpt>
      <trkpt lat="46.15874" lon="6.66894">
        <ele>1214</ele>
        <time>2022-07-31T12:01:50Z</time>
      </trkpt>
      <trkpt lat="46.15873" lon="6.66894">
        <ele>1213</ele>
        <time>2022-07-31T12:01:51Z</time>
      </trkpt>
      <trkpt lat="46.15871" lon="6.66892">
        <ele>1213</ele>
        <time>2022-07-31T12:01:52Z</time>
      </trkpt>
      <trkpt lat="46.1587" lon="6.66891">
        <ele>1213</ele>
        <time>2022-07-31T12:01:53Z</time>
      </trkpt>
      <trkpt lat="46.15869" lon="6.66889">
        <ele>1213</ele>
        <time>2022-07-31T12:01:54Z</time>
      </trkpt>
      <trkpt lat="46.15869" lon="6.66888">
        <ele>1213</ele>
        <time>2022-07-31T12:01:55Z</time>
      </trkpt>
      <trkpt lat="46.15868" lon="6.66887">
        <ele>1213</ele>
        <time>2022-07-31T12:01:56Z</time>
      </trkpt>
      <trkpt lat="46.15867" lon="6.66887">
        <ele>1213</ele>
        <time>2022-07-31T12:01:57Z</time>
      </trkpt>
      <trkpt lat="46.15866" lon="6.66886">
        <ele>1213</ele>
        <time>2022-07-31T12:01:58Z</time>
      </trkpt>
      <trkpt lat="46.15865" lon="6.66884">
        <ele>1213</ele>
        <time>2022-07-31T12:01:59Z</time>
      </trkpt>
      <trkpt lat="46.15863" lon="6.66883">
        <ele>1213</ele>
        <time>2022-07-31T12:02:00Z</time>
      </trkpt>
      <trkpt lat="46.15862" lon="6.66882">
        <ele>1213</ele>
        <time>2022-07-31T12:02:01Z</time>
      </trkpt>
      <trkpt lat="46.15861" lon="6.6688">
        <ele>1213</ele>
        <time>2022-07-31T12:02:02Z</time>
      </trkpt>
      <trkpt lat="46.15859" lon="6.66878">
        <ele>1213</ele>
        <time>2022-07-31T12:02:03Z</time>
      </trkpt>
      <trkpt lat="46.15859" lon="6.66877">
        <ele>1213</ele>
        <time>2022-07-31T12:02:04Z</time>
      </trkpt>
      <trkpt lat="46.15858" lon="6.66877">
        <ele>1213</ele>
        <time>2022-07-31T12:02:05Z</time>
      </trkpt>
      <trkpt lat="46.15857" lon="6.66877">
        <ele>1213</ele>
        <time>2022-07-31T12:02:06Z</time>
      </trkpt>
      <trkpt lat="46.15856" lon="6.66876">
        <ele>1214</ele>
        <time>2022-07-31T12:02:07Z</time>
      </trkpt>
      <trkpt lat="46.15855" lon="6.66875">
        <ele>1214</ele>
        <time>2022-07-31T12:02:08Z</time>
      </trkpt>
      <trkpt lat="46.15854" lon="6.66874">
        <ele>1214</ele>
        <time>2022-07-31T12:02:09Z</time>
      </trkpt>
      <trkpt lat="46.15853" lon="6.66873">
        <ele>1214</ele>
        <time>2022-07-31T12:02:10Z</time>
      </trkpt>
      <trkpt lat="46.15853" lon="6.66873">
        <ele>1214</ele>
        <time>2022-07-31T12:02:11Z</time>
      </trkpt>
      <trkpt lat="46.15852" lon="6.66872">
        <ele>1214</ele>
        <time>2022-07-31T12:02:12Z</time>
      </trkpt>
      <trkpt lat="46.15852" lon="6.66872">
        <ele>1214</ele>
        <time>2022-07-31T12:02:13Z</time>
      </trkpt>
      <trkpt lat="46.15851" lon="6.66872">
        <ele>1214</ele>
        <time>2022-07-31T12:02:14Z</time>
      </trkpt>
      <trkpt lat="46.15849" lon="6.66872">
        <ele>1214</ele>
        <time>2022-07-31T12:02:15Z</time>
      </trkpt>
      <trkpt lat="46.15848" lon="6.66871">
        <ele>1214</ele>
        <time>2022-07-31T12:02:16Z</time>
      </trkpt>
      <trkpt lat="46.15847" lon="6.6687">
        <ele>1214</ele>
        <time>2022-07-31T12:02:17Z</time>
      </trkpt>
      <trkpt lat="46.15846" lon="6.6687">
        <ele>1214</ele>
        <time>2022-07-31T12:02:18Z</time>
      </trkpt>
      <trkpt lat="46.15846" lon="6.6687">
        <ele>1214</ele>
        <time>2022-07-31T12:02:19Z</time>
      </trkpt>
      <trkpt lat="46.15845" lon="6.6687">
        <ele>1214</ele>
        <time>2022-07-31T12:02:20Z</time>
      </trkpt>
      <trkpt lat="46.15844" lon="6.66869">
        <ele>1214</ele>
        <time>2022-07-31T12:02:21Z</time>
      </trkpt>
      <trkpt lat="46.15844" lon="6.66868">
        <ele>1214</ele>
        <time>2022-07-31T12:02:22Z</time>
      </trkpt>
      <trkpt lat="46.15844" lon="6.66867">
        <ele>1214</ele>
        <time>2022-07-31T12:02:23Z</time>
      </trkpt>
      <trkpt lat="46.15842" lon="6.66865">
        <ele>1214</ele>
        <time>2022-07-31T12:02:24Z</time>
      </trkpt>
      <trkpt lat="46.15842" lon="6.66864">
        <ele>1214</ele>
        <time>2022-07-31T12:02:25Z</time>
      </trkpt>
      <trkpt lat="46.15841" lon="6.66863">
        <ele>1213</ele>
        <time>2022-07-31T12:02:26Z</time>
      </trkpt>
      <trkpt lat="46.1584" lon="6.66861">
        <ele>1213</ele>
        <time>2022-07-31T12:02:27Z</time>
      </trkpt>
      <trkpt lat="46.15838" lon="6.6686">
        <ele>1213</ele>
        <time>2022-07-31T12:02:28Z</time>
      </trkpt>
      <trkpt lat="46.15837" lon="6.66858">
        <ele>1213</ele>
        <time>2022-07-31T12:02:29Z</time>
      </trkpt>
      <trkpt lat="46.15836" lon="6.66856">
        <ele>1213</ele>
        <time>2022-07-31T12:02:30Z</time>
      </trkpt>
      <trkpt lat="46.15835" lon="6.66854">
        <ele>1213</ele>
        <time>2022-07-31T12:02:31Z</time>
      </trkpt>
      <trkpt lat="46.15834" lon="6.66853">
        <ele>1213</ele>
        <time>2022-07-31T12:02:32Z</time>
      </trkpt>
      <trkpt lat="46.15834" lon="6.66852">
        <ele>1213</ele>
        <time>2022-07-31T12:02:33Z</time>
      </trkpt>
      <trkpt lat="46.15833" lon="6.66852">
        <ele>1213</ele>
        <time>2022-07-31T12:02:34Z</time>
      </trkpt>
      <trkpt lat="46.15833" lon="6.6685">
        <ele>1213</ele>
        <time>2022-07-31T12:02:35Z</time>
      </trkpt>
      <trkpt lat="46.15832" lon="6.66848">
        <ele>1213</ele>
        <time>2022-07-31T12:02:36Z</time>
      </trkpt>
      <trkpt lat="46.1583" lon="6.66847">
        <ele>1213</ele>
        <time>2022-07-31T12:02:37Z</time>
      </trkpt>
      <trkpt lat="46.15829" lon="6.66846">
        <ele>1213</ele>
        <time>2022-07-31T12:02:38Z</time>
      </trkpt>
      <trkpt lat="46.15828" lon="6.66845">
        <ele>1213</ele>
        <time>2022-07-31T12:02:39Z</time>
      </trkpt>
      <trkpt lat="46.15827" lon="6.66844">
        <ele>1213</ele>
        <time>2022-07-31T12:02:40Z</time>
      </trkpt>
      <trkpt lat="46.15826" lon="6.66843">
        <ele>1212</ele>
        <time>2022-07-31T12:02:41Z</time>
      </trkpt>
      <trkpt lat="46.15826" lon="6.66841">
        <ele>1212</ele>
        <time>2022-07-31T12:02:42Z</time>
      </trkpt>
      <trkpt lat="46.15825" lon="6.66839">
        <ele>1212</ele>
        <time>2022-07-31T12:02:43Z</time>
      </trkpt>
      <trkpt lat="46.15824" lon="6.66838">
        <ele>1212</ele>
        <time>2022-07-31T12:02:44Z</time>
      </trkpt>
      <trkpt lat="46.15822" lon="6.66837">
        <ele>1212</ele>
        <time>2022-07-31T12:02:45Z</time>
      </trkpt>
      <trkpt lat="46.15822" lon="6.66837">
        <ele>1212</ele>
        <time>2022-07-31T12:02:46Z</time>
      </trkpt>
      <trkpt lat="46.1582" lon="6.66836">
        <ele>1211</ele>
        <time>2022-07-31T12:02:47Z</time>
      </trkpt>
      <trkpt lat="46.1582" lon="6.66836">
        <ele>1211</ele>
        <time>2022-07-31T12:02:48Z</time>
      </trkpt>
      <trkpt lat="46.15819" lon="6.66834">
        <ele>1211</ele>
        <time>2022-07-31T12:02:49Z</time>
      </trkpt>
      <trkpt lat="46.15818" lon="6.66834">
        <ele>1211</ele>
        <time>2022-07-31T12:02:50Z</time>
      </trkpt>
      <trkpt lat="46.15817" lon="6.66833">
        <ele>1211</ele>
        <time>2022-07-31T12:02:51Z</time>
      </trkpt>
      <trkpt lat="46.15816" lon="6.66831">
        <ele>1211</ele>
        <time>2022-07-31T12:02:52Z</time>
      </trkpt>
      <trkpt lat="46.15815" lon="6.6683">
        <ele>1211</ele>
        <time>2022-07-31T12:02:53Z</time>
      </trkpt>
      <trkpt lat="46.15813" lon="6.66829">
        <ele>1211</ele>
        <time>2022-07-31T12:02:54Z</time>
      </trkpt>
      <trkpt lat="46.15812" lon="6.66828">
        <ele>1211</ele>
        <time>2022-07-31T12:02:55Z</time>
      </trkpt>
      <trkpt lat="46.15812" lon="6.66827">
        <ele>1211</ele>
        <time>2022-07-31T12:02:56Z</time>
      </trkpt>
      <trkpt lat="46.15811" lon="6.66827">
        <ele>1211</ele>
        <time>2022-07-31T12:02:57Z</time>
      </trkpt>
      <trkpt lat="46.1581" lon="6.66827">
        <ele>1211</ele>
        <time>2022-07-31T12:02:58Z</time>
      </trkpt>
      <trkpt lat="46.15809" lon="6.66826">
        <ele>1211</ele>
        <time>2022-07-31T12:02:59Z</time>
      </trkpt>
      <trkpt lat="46.15808" lon="6.66825">
        <ele>1211</ele>
        <time>2022-07-31T12:03:00Z</time>
      </trkpt>
      <trkpt lat="46.15808" lon="6.66824">
        <ele>1211</ele>
        <time>2022-07-31T12:03:01Z</time>
      </trkpt>
      <trkpt lat="46.15806" lon="6.66824">
        <ele>1211</ele>
        <time>2022-07-31T12:03:02Z</time>
      </trkpt>
      <trkpt lat="46.15805" lon="6.66822">
        <ele>1211</ele>
        <time>2022-07-31T12:03:03Z</time>
      </trkpt>
      <trkpt lat="46.15804" lon="6.66822">
        <ele>1211</ele>
        <time>2022-07-31T12:03:04Z</time>
      </trkpt>
      <trkpt lat="46.15803" lon="6.6682">
        <ele>1211</ele>
        <time>2022-07-31T12:03:05Z</time>
      </trkpt>
      <trkpt lat="46.15802" lon="6.66818">
        <ele>1211</ele>
        <time>2022-07-31T12:03:06Z</time>
      </trkpt>
      <trkpt lat="46.15801" lon="6.66817">
        <ele>1211</ele>
        <time>2022-07-31T12:03:07Z</time>
      </trkpt>
      <trkpt lat="46.158" lon="6.66815">
        <ele>1211</ele>
        <time>2022-07-31T12:03:08Z</time>
      </trkpt>
      <trkpt lat="46.15799" lon="6.66814">
        <ele>1211</ele>
        <time>2022-07-31T12:03:09Z</time>
      </trkpt>
      <trkpt lat="46.15798" lon="6.66812">
        <ele>1211</ele>
        <time>2022-07-31T12:03:10Z</time>
      </trkpt>
      <trkpt lat="46.15797" lon="6.66812">
        <ele>1211</ele>
        <time>2022-07-31T12:03:11Z</time>
      </trkpt>
      <trkpt lat="46.15797" lon="6.6681">
        <ele>1211</ele>
        <time>2022-07-31T12:03:12Z</time>
      </trkpt>
      <trkpt lat="46.15797" lon="6.66809">
        <ele>1211</ele>
        <time>2022-07-31T12:03:13Z</time>
      </trkpt>
      <trkpt lat="46.15796" lon="6.66808">
        <ele>1211</ele>
        <time>2022-07-31T12:03:14Z</time>
      </trkpt>
      <trkpt lat="46.15795" lon="6.66808">
        <ele>1211</ele>
        <time>2022-07-31T12:03:15Z</time>
      </trkpt>
      <trkpt lat="46.15795" lon="6.66807">
        <ele>1211</ele>
        <time>2022-07-31T12:03:16Z</time>
      </trkpt>
      <trkpt lat="46.15794" lon="6.66806">
        <ele>1211</ele>
        <time>2022-07-31T12:03:17Z</time>
      </trkpt>
      <trkpt lat="46.15793" lon="6.66805">
        <ele>1211</ele>
        <time>2022-07-31T12:03:18Z</time>
      </trkpt>
      <trkpt lat="46.15792" lon="6.66804">
        <ele>1211</ele>
        <time>2022-07-31T12:03:19Z</time>
      </trkpt>
      <trkpt lat="46.15792" lon="6.66803">
        <ele>1211</ele>
        <time>2022-07-31T12:03:20Z</time>
      </trkpt>
      <trkpt lat="46.15791" lon="6.66802">
        <ele>1211</ele>
        <time>2022-07-31T12:03:21Z</time>
      </trkpt>
      <trkpt lat="46.1579" lon="6.66802">
        <ele>1211</ele>
        <time>2022-07-31T12:03:22Z</time>
      </trkpt>
      <trkpt lat="46.15789" lon="6.668">
        <ele>1211</ele>
        <time>2022-07-31T12:03:23Z</time>
      </trkpt>
      <trkpt lat="46.15789" lon="6.66799">
        <ele>1211</ele>
        <time>2022-07-31T12:03:24Z</time>
      </trkpt>
      <trkpt lat="46.15788" lon="6.66798">
        <ele>1211</ele>
        <time>2022-07-31T12:03:25Z</time>
      </trkpt>
      <trkpt lat="46.15787" lon="6.66797">
        <ele>1211</ele>
        <time>2022-07-31T12:03:26Z</time>
      </trkpt>
      <trkpt lat="46.15787" lon="6.66796">
        <ele>1211</ele>
        <time>2022-07-31T12:03:27Z</time>
      </trkpt>
      <trkpt lat="46.15785" lon="6.66795">
        <ele>1211</ele>
        <time>2022-07-31T12:03:28Z</time>
      </trkpt>
      <trkpt lat="46.15784" lon="6.66793">
        <ele>1211</ele>
        <time>2022-07-31T12:03:29Z</time>
      </trkpt>
      <trkpt lat="46.15783" lon="6.66792">
        <ele>1211</ele>
        <time>2022-07-31T12:03:30Z</time>
      </trkpt>
      <trkpt lat="46.15782" lon="6.66791">
        <ele>1211</ele>
        <time>2022-07-31T12:03:31Z</time>
      </trkpt>
      <trkpt lat="46.15782" lon="6.6679">
        <ele>1211</ele>
        <time>2022-07-31T12:03:32Z</time>
      </trkpt>
      <trkpt lat="46.1578" lon="6.66789">
        <ele>1211</ele>
        <time>2022-07-31T12:03:33Z</time>
      </trkpt>
      <trkpt lat="46.1578" lon="6.66787">
        <ele>1211</ele>
        <time>2022-07-31T12:03:34Z</time>
      </trkpt>
      <trkpt lat="46.15779" lon="6.66786">
        <ele>1211</ele>
        <time>2022-07-31T12:03:35Z</time>
      </trkpt>
      <trkpt lat="46.15778" lon="6.66784">
        <ele>1211</ele>
        <time>2022-07-31T12:03:36Z</time>
      </trkpt>
      <trkpt lat="46.15778" lon="6.66783">
        <ele>1211</ele>
        <time>2022-07-31T12:03:37Z</time>
      </trkpt>
      <trkpt lat="46.15776" lon="6.66781">
        <ele>1211</ele>
        <time>2022-07-31T12:03:38Z</time>
      </trkpt>
      <trkpt lat="46.15776" lon="6.66779">
        <ele>1211</ele>
        <time>2022-07-31T12:03:39Z</time>
      </trkpt>
      <trkpt lat="46.15775" lon="6.66778">
        <ele>1211</ele>
        <time>2022-07-31T12:03:40Z</time>
      </trkpt>
      <trkpt lat="46.15774" lon="6.66778">
        <ele>1211</ele>
        <time>2022-07-31T12:03:41Z</time>
      </trkpt>
      <trkpt lat="46.15774" lon="6.66777">
        <ele>1211</ele>
        <time>2022-07-31T12:03:42Z</time>
      </trkpt>
      <trkpt lat="46.15773" lon="6.66776">
        <ele>1211</ele>
        <time>2022-07-31T12:03:43Z</time>
      </trkpt>
      <trkpt lat="46.15773" lon="6.66774">
        <ele>1211</ele>
        <time>2022-07-31T12:03:44Z</time>
      </trkpt>
      <trkpt lat="46.15772" lon="6.66773">
        <ele>1211</ele>
        <time>2022-07-31T12:03:45Z</time>
      </trkpt>
      <trkpt lat="46.15772" lon="6.66771">
        <ele>1211</ele>
        <time>2022-07-31T12:03:46Z</time>
      </trkpt>
      <trkpt lat="46.15771" lon="6.6677">
        <ele>1211</ele>
        <time>2022-07-31T12:03:47Z</time>
      </trkpt>
      <trkpt lat="46.15771" lon="6.66769">
        <ele>1211</ele>
        <time>2022-07-31T12:03:48Z</time>
      </trkpt>
      <trkpt lat="46.1577" lon="6.66767">
        <ele>1211</ele>
        <time>2022-07-31T12:03:49Z</time>
      </trkpt>
      <trkpt lat="46.15769" lon="6.66765">
        <ele>1211</ele>
        <time>2022-07-31T12:03:50Z</time>
      </trkpt>
      <trkpt lat="46.15769" lon="6.66764">
        <ele>1212</ele>
        <time>2022-07-31T12:03:51Z</time>
      </trkpt>
      <trkpt lat="46.15768" lon="6.66762">
        <ele>1212</ele>
        <time>2022-07-31T12:03:52Z</time>
      </trkpt>
      <trkpt lat="46.15767" lon="6.66761">
        <ele>1212</ele>
        <time>2022-07-31T12:03:53Z</time>
      </trkpt>
      <trkpt lat="46.15767" lon="6.6676">
        <ele>1212</ele>
        <time>2022-07-31T12:03:54Z</time>
      </trkpt>
      <trkpt lat="46.15766" lon="6.66758">
        <ele>1212</ele>
        <time>2022-07-31T12:03:55Z</time>
      </trkpt>
      <trkpt lat="46.15765" lon="6.66757">
        <ele>1212</ele>
        <time>2022-07-31T12:03:56Z</time>
      </trkpt>
      <trkpt lat="46.15764" lon="6.66755">
        <ele>1212</ele>
        <time>2022-07-31T12:03:57Z</time>
      </trkpt>
      <trkpt lat="46.15763" lon="6.66754">
        <ele>1212</ele>
        <time>2022-07-31T12:03:58Z</time>
      </trkpt>
      <trkpt lat="46.15763" lon="6.66753">
        <ele>1212</ele>
        <time>2022-07-31T12:03:59Z</time>
      </trkpt>
      <trkpt lat="46.15763" lon="6.66752">
        <ele>1212</ele>
        <time>2022-07-31T12:04:00Z</time>
      </trkpt>
      <trkpt lat="46.15763" lon="6.66751">
        <ele>1212</ele>
        <time>2022-07-31T12:04:01Z</time>
      </trkpt>
      <trkpt lat="46.15761" lon="6.6675">
        <ele>1212</ele>
        <time>2022-07-31T12:04:02Z</time>
      </trkpt>
      <trkpt lat="46.15761" lon="6.6675">
        <ele>1212</ele>
        <time>2022-07-31T12:04:03Z</time>
      </trkpt>
      <trkpt lat="46.1576" lon="6.66749">
        <ele>1211</ele>
        <time>2022-07-31T12:04:04Z</time>
      </trkpt>
      <trkpt lat="46.15759" lon="6.66748">
        <ele>1211</ele>
        <time>2022-07-31T12:04:05Z</time>
      </trkpt>
      <trkpt lat="46.15758" lon="6.66747">
        <ele>1211</ele>
        <time>2022-07-31T12:04:06Z</time>
      </trkpt>
      <trkpt lat="46.15757" lon="6.66746">
        <ele>1211</ele>
        <time>2022-07-31T12:04:07Z</time>
      </trkpt>
      <trkpt lat="46.15756" lon="6.66745">
        <ele>1211</ele>
        <time>2022-07-31T12:04:08Z</time>
      </trkpt>
      <trkpt lat="46.15755" lon="6.66744">
        <ele>1211</ele>
        <time>2022-07-31T12:04:09Z</time>
      </trkpt>
      <trkpt lat="46.15753" lon="6.66743">
        <ele>1210</ele>
        <time>2022-07-31T12:04:10Z</time>
      </trkpt>
      <trkpt lat="46.15753" lon="6.66743">
        <ele>1210</ele>
        <time>2022-07-31T12:04:11Z</time>
      </trkpt>
      <trkpt lat="46.15752" lon="6.66741">
        <ele>1210</ele>
        <time>2022-07-31T12:04:12Z</time>
      </trkpt>
      <trkpt lat="46.15752" lon="6.6674">
        <ele>1210</ele>
        <time>2022-07-31T12:04:13Z</time>
      </trkpt>
      <trkpt lat="46.15751" lon="6.66739">
        <ele>1210</ele>
        <time>2022-07-31T12:04:14Z</time>
      </trkpt>
      <trkpt lat="46.15749" lon="6.66737">
        <ele>1210</ele>
        <time>2022-07-31T12:04:15Z</time>
      </trkpt>
      <trkpt lat="46.15748" lon="6.66736">
        <ele>1210</ele>
        <time>2022-07-31T12:04:16Z</time>
      </trkpt>
      <trkpt lat="46.15747" lon="6.66734">
        <ele>1210</ele>
        <time>2022-07-31T12:04:17Z</time>
      </trkpt>
      <trkpt lat="46.15746" lon="6.66733">
        <ele>1209</ele>
        <time>2022-07-31T12:04:18Z</time>
      </trkpt>
      <trkpt lat="46.15746" lon="6.66731">
        <ele>1209</ele>
        <time>2022-07-31T12:04:19Z</time>
      </trkpt>
      <trkpt lat="46.15745" lon="6.6673">
        <ele>1209</ele>
        <time>2022-07-31T12:04:20Z</time>
      </trkpt>
      <trkpt lat="46.15744" lon="6.66729">
        <ele>1209</ele>
        <time>2022-07-31T12:04:21Z</time>
      </trkpt>
      <trkpt lat="46.15744" lon="6.66727">
        <ele>1209</ele>
        <time>2022-07-31T12:04:22Z</time>
      </trkpt>
      <trkpt lat="46.15744" lon="6.66726">
        <ele>1209</ele>
        <time>2022-07-31T12:04:23Z</time>
      </trkpt>
      <trkpt lat="46.15744" lon="6.66725">
        <ele>1209</ele>
        <time>2022-07-31T12:04:24Z</time>
      </trkpt>
      <trkpt lat="46.15743" lon="6.66723">
        <ele>1209</ele>
        <time>2022-07-31T12:04:25Z</time>
      </trkpt>
      <trkpt lat="46.15743" lon="6.66722">
        <ele>1210</ele>
        <time>2022-07-31T12:04:26Z</time>
      </trkpt>
      <trkpt lat="46.15742" lon="6.66721">
        <ele>1210</ele>
        <time>2022-07-31T12:04:27Z</time>
      </trkpt>
      <trkpt lat="46.15741" lon="6.66719">
        <ele>1210</ele>
        <time>2022-07-31T12:04:28Z</time>
      </trkpt>
      <trkpt lat="46.1574" lon="6.66718">
        <ele>1210</ele>
        <time>2022-07-31T12:04:29Z</time>
      </trkpt>
      <trkpt lat="46.15739" lon="6.66717">
        <ele>1210</ele>
        <time>2022-07-31T12:04:30Z</time>
      </trkpt>
      <trkpt lat="46.15739" lon="6.66715">
        <ele>1210</ele>
        <time>2022-07-31T12:04:31Z</time>
      </trkpt>
      <trkpt lat="46.15739" lon="6.66715">
        <ele>1210</ele>
        <time>2022-07-31T12:04:32Z</time>
      </trkpt>
      <trkpt lat="46.15738" lon="6.66714">
        <ele>1210</ele>
        <time>2022-07-31T12:04:33Z</time>
      </trkpt>
      <trkpt lat="46.15737" lon="6.66713">
        <ele>1210</ele>
        <time>2022-07-31T12:04:34Z</time>
      </trkpt>
      <trkpt lat="46.15737" lon="6.66711">
        <ele>1210</ele>
        <time>2022-07-31T12:04:35Z</time>
      </trkpt>
      <trkpt lat="46.15736" lon="6.6671">
        <ele>1210</ele>
        <time>2022-07-31T12:04:36Z</time>
      </trkpt>
      <trkpt lat="46.15736" lon="6.66709">
        <ele>1210</ele>
        <time>2022-07-31T12:04:37Z</time>
      </trkpt>
      <trkpt lat="46.15735" lon="6.66707">
        <ele>1210</ele>
        <time>2022-07-31T12:04:38Z</time>
      </trkpt>
      <trkpt lat="46.15735" lon="6.66705">
        <ele>1210</ele>
        <time>2022-07-31T12:04:39Z</time>
      </trkpt>
      <trkpt lat="46.15734" lon="6.66704">
        <ele>1211</ele>
        <time>2022-07-31T12:04:40Z</time>
      </trkpt>
      <trkpt lat="46.15734" lon="6.66702">
        <ele>1211</ele>
        <time>2022-07-31T12:04:41Z</time>
      </trkpt>
      <trkpt lat="46.15732" lon="6.66701">
        <ele>1211</ele>
        <time>2022-07-31T12:04:42Z</time>
      </trkpt>
      <trkpt lat="46.15731" lon="6.667">
        <ele>1211</ele>
        <time>2022-07-31T12:04:43Z</time>
      </trkpt>
      <trkpt lat="46.15731" lon="6.66698">
        <ele>1211</ele>
        <time>2022-07-31T12:04:44Z</time>
      </trkpt>
      <trkpt lat="46.1573" lon="6.66697">
        <ele>1211</ele>
        <time>2022-07-31T12:04:45Z</time>
      </trkpt>
      <trkpt lat="46.1573" lon="6.66696">
        <ele>1211</ele>
        <time>2022-07-31T12:04:46Z</time>
      </trkpt>
      <trkpt lat="46.1573" lon="6.66695">
        <ele>1211</ele>
        <time>2022-07-31T12:04:47Z</time>
      </trkpt>
      <trkpt lat="46.15729" lon="6.66693">
        <ele>1211</ele>
        <time>2022-07-31T12:04:48Z</time>
      </trkpt>
      <trkpt lat="46.15729" lon="6.66691">
        <ele>1211</ele>
        <time>2022-07-31T12:04:49Z</time>
      </trkpt>
      <trkpt lat="46.15729" lon="6.6669">
        <ele>1212</ele>
        <time>2022-07-31T12:04:50Z</time>
      </trkpt>
      <trkpt lat="46.15728" lon="6.66688">
        <ele>1212</ele>
        <time>2022-07-31T12:04:51Z</time>
      </trkpt>
      <trkpt lat="46.15727" lon="6.66687">
        <ele>1212</ele>
        <time>2022-07-31T12:04:52Z</time>
      </trkpt>
      <trkpt lat="46.15726" lon="6.66686">
        <ele>1212</ele>
        <time>2022-07-31T12:04:53Z</time>
      </trkpt>
      <trkpt lat="46.15725" lon="6.66684">
        <ele>1212</ele>
        <time>2022-07-31T12:04:54Z</time>
      </trkpt>
      <trkpt lat="46.15723" lon="6.66683">
        <ele>1212</ele>
        <time>2022-07-31T12:04:55Z</time>
      </trkpt>
      <trkpt lat="46.15722" lon="6.66682">
        <ele>1212</ele>
        <time>2022-07-31T12:04:56Z</time>
      </trkpt>
      <trkpt lat="46.15721" lon="6.66681">
        <ele>1212</ele>
        <time>2022-07-31T12:04:57Z</time>
      </trkpt>
      <trkpt lat="46.1572" lon="6.66681">
        <ele>1212</ele>
        <time>2022-07-31T12:04:58Z</time>
      </trkpt>
      <trkpt lat="46.15718" lon="6.6668">
        <ele>1212</ele>
        <time>2022-07-31T12:04:59Z</time>
      </trkpt>
      <trkpt lat="46.15717" lon="6.66679">
        <ele>1212</ele>
        <time>2022-07-31T12:05:00Z</time>
      </trkpt>
      <trkpt lat="46.15716" lon="6.66678">
        <ele>1212</ele>
        <time>2022-07-31T12:05:01Z</time>
      </trkpt>
      <trkpt lat="46.15716" lon="6.66676">
        <ele>1212</ele>
        <time>2022-07-31T12:05:02Z</time>
      </trkpt>
      <trkpt lat="46.15715" lon="6.66676">
        <ele>1212</ele>
        <time>2022-07-31T12:05:03Z</time>
      </trkpt>
      <trkpt lat="46.15715" lon="6.66674">
        <ele>1212</ele>
        <time>2022-07-31T12:05:04Z</time>
      </trkpt>
      <trkpt lat="46.15715" lon="6.66673">
        <ele>1212</ele>
        <time>2022-07-31T12:05:05Z</time>
      </trkpt>
      <trkpt lat="46.15714" lon="6.66671">
        <ele>1212</ele>
        <time>2022-07-31T12:05:06Z</time>
      </trkpt>
      <trkpt lat="46.15713" lon="6.6667">
        <ele>1212</ele>
        <time>2022-07-31T12:05:07Z</time>
      </trkpt>
      <trkpt lat="46.15712" lon="6.66669">
        <ele>1212</ele>
        <time>2022-07-31T12:05:08Z</time>
      </trkpt>
      <trkpt lat="46.15712" lon="6.66668">
        <ele>1212</ele>
        <time>2022-07-31T12:05:09Z</time>
      </trkpt>
      <trkpt lat="46.1571" lon="6.66667">
        <ele>1212</ele>
        <time>2022-07-31T12:05:10Z</time>
      </trkpt>
      <trkpt lat="46.1571" lon="6.66665">
        <ele>1212</ele>
        <time>2022-07-31T12:05:11Z</time>
      </trkpt>
      <trkpt lat="46.15709" lon="6.66664">
        <ele>1212</ele>
        <time>2022-07-31T12:05:12Z</time>
      </trkpt>
      <trkpt lat="46.15708" lon="6.66663">
        <ele>1212</ele>
        <time>2022-07-31T12:05:13Z</time>
      </trkpt>
      <trkpt lat="46.15706" lon="6.66663">
        <ele>1212</ele>
        <time>2022-07-31T12:05:14Z</time>
      </trkpt>
      <trkpt lat="46.15706" lon="6.66662">
        <ele>1212</ele>
        <time>2022-07-31T12:05:15Z</time>
      </trkpt>
      <trkpt lat="46.15705" lon="6.6666">
        <ele>1212</ele>
        <time>2022-07-31T12:05:16Z</time>
      </trkpt>
      <trkpt lat="46.15704" lon="6.66659">
        <ele>1212</ele>
        <time>2022-07-31T12:05:17Z</time>
      </trkpt>
      <trkpt lat="46.15704" lon="6.66658">
        <ele>1213</ele>
        <time>2022-07-31T12:05:18Z</time>
      </trkpt>
      <trkpt lat="46.15702" lon="6.66657">
        <ele>1213</ele>
        <time>2022-07-31T12:05:19Z</time>
      </trkpt>
      <trkpt lat="46.15701" lon="6.66656">
        <ele>1213</ele>
        <time>2022-07-31T12:05:20Z</time>
      </trkpt>
      <trkpt lat="46.157" lon="6.66654">
        <ele>1213</ele>
        <time>2022-07-31T12:05:21Z</time>
      </trkpt>
      <trkpt lat="46.15699" lon="6.66652">
        <ele>1213</ele>
        <time>2022-07-31T12:05:22Z</time>
      </trkpt>
      <trkpt lat="46.15698" lon="6.66651">
        <ele>1213</ele>
        <time>2022-07-31T12:05:23Z</time>
      </trkpt>
      <trkpt lat="46.15697" lon="6.66651">
        <ele>1213</ele>
        <time>2022-07-31T12:05:24Z</time>
      </trkpt>
      <trkpt lat="46.15696" lon="6.6665">
        <ele>1213</ele>
        <time>2022-07-31T12:05:25Z</time>
      </trkpt>
      <trkpt lat="46.15695" lon="6.66649">
        <ele>1213</ele>
        <time>2022-07-31T12:05:26Z</time>
      </trkpt>
      <trkpt lat="46.15695" lon="6.66647">
        <ele>1213</ele>
        <time>2022-07-31T12:05:27Z</time>
      </trkpt>
      <trkpt lat="46.15694" lon="6.66646">
        <ele>1213</ele>
        <time>2022-07-31T12:05:28Z</time>
      </trkpt>
      <trkpt lat="46.15693" lon="6.66646">
        <ele>1213</ele>
        <time>2022-07-31T12:05:29Z</time>
      </trkpt>
      <trkpt lat="46.15692" lon="6.66645">
        <ele>1213</ele>
        <time>2022-07-31T12:05:30Z</time>
      </trkpt>
      <trkpt lat="46.1569" lon="6.66643">
        <ele>1213</ele>
        <time>2022-07-31T12:05:31Z</time>
      </trkpt>
      <trkpt lat="46.15689" lon="6.66643">
        <ele>1213</ele>
        <time>2022-07-31T12:05:32Z</time>
      </trkpt>
      <trkpt lat="46.15688" lon="6.66642">
        <ele>1213</ele>
        <time>2022-07-31T12:05:33Z</time>
      </trkpt>
      <trkpt lat="46.15688" lon="6.66641">
        <ele>1214</ele>
        <time>2022-07-31T12:05:34Z</time>
      </trkpt>
      <trkpt lat="46.15687" lon="6.6664">
        <ele>1214</ele>
        <time>2022-07-31T12:05:35Z</time>
      </trkpt>
      <trkpt lat="46.15686" lon="6.66639">
        <ele>1214</ele>
        <time>2022-07-31T12:05:36Z</time>
      </trkpt>
      <trkpt lat="46.15685" lon="6.66638">
        <ele>1214</ele>
        <time>2022-07-31T12:05:37Z</time>
      </trkpt>
      <trkpt lat="46.15684" lon="6.66637">
        <ele>1214</ele>
        <time>2022-07-31T12:05:38Z</time>
      </trkpt>
      <trkpt lat="46.15684" lon="6.66636">
        <ele>1214</ele>
        <time>2022-07-31T12:05:39Z</time>
      </trkpt>
      <trkpt lat="46.15682" lon="6.66636">
        <ele>1214</ele>
        <time>2022-07-31T12:05:40Z</time>
      </trkpt>
      <trkpt lat="46.15681" lon="6.66636">
        <ele>1214</ele>
        <time>2022-07-31T12:05:41Z</time>
      </trkpt>
      <trkpt lat="46.15679" lon="6.66637">
        <ele>1214</ele>
        <time>2022-07-31T12:05:42Z</time>
      </trkpt>
      <trkpt lat="46.15678" lon="6.66637">
        <ele>1214</ele>
        <time>2022-07-31T12:05:43Z</time>
      </trkpt>
      <trkpt lat="46.15678" lon="6.66637">
        <ele>1214</ele>
        <time>2022-07-31T12:05:44Z</time>
      </trkpt>
      <trkpt lat="46.15677" lon="6.66636">
        <ele>1214</ele>
        <time>2022-07-31T12:05:45Z</time>
      </trkpt>
      <trkpt lat="46.15676" lon="6.66635">
        <ele>1214</ele>
        <time>2022-07-31T12:05:46Z</time>
      </trkpt>
      <trkpt lat="46.15676" lon="6.66635">
        <ele>1214</ele>
        <time>2022-07-31T12:05:47Z</time>
      </trkpt>
      <trkpt lat="46.15675" lon="6.66634">
        <ele>1214</ele>
        <time>2022-07-31T12:05:48Z</time>
      </trkpt>
      <trkpt lat="46.15673" lon="6.66633">
        <ele>1213</ele>
        <time>2022-07-31T12:05:49Z</time>
      </trkpt>
      <trkpt lat="46.15673" lon="6.66631">
        <ele>1213</ele>
        <time>2022-07-31T12:05:50Z</time>
      </trkpt>
      <trkpt lat="46.15672" lon="6.66629">
        <ele>1213</ele>
        <time>2022-07-31T12:05:51Z</time>
      </trkpt>
      <trkpt lat="46.1567" lon="6.66628">
        <ele>1213</ele>
        <time>2022-07-31T12:05:52Z</time>
      </trkpt>
      <trkpt lat="46.1567" lon="6.66627">
        <ele>1213</ele>
        <time>2022-07-31T12:05:53Z</time>
      </trkpt>
      <trkpt lat="46.15669" lon="6.66626">
        <ele>1213</ele>
        <time>2022-07-31T12:05:54Z</time>
      </trkpt>
      <trkpt lat="46.15667" lon="6.66625">
        <ele>1213</ele>
        <time>2022-07-31T12:05:55Z</time>
      </trkpt>
      <trkpt lat="46.15665" lon="6.66624">
        <ele>1212</ele>
        <time>2022-07-31T12:05:56Z</time>
      </trkpt>
      <trkpt lat="46.15664" lon="6.66622">
        <ele>1212</ele>
        <time>2022-07-31T12:05:57Z</time>
      </trkpt>
      <trkpt lat="46.15663" lon="6.6662">
        <ele>1212</ele>
        <time>2022-07-31T12:05:58Z</time>
      </trkpt>
      <trkpt lat="46.15662" lon="6.6662">
        <ele>1212</ele>
        <time>2022-07-31T12:05:59Z</time>
      </trkpt>
      <trkpt lat="46.15661" lon="6.6662">
        <ele>1212</ele>
        <time>2022-07-31T12:06:00Z</time>
      </trkpt>
      <trkpt lat="46.1566" lon="6.66619">
        <ele>1212</ele>
        <time>2022-07-31T12:06:01Z</time>
      </trkpt>
      <trkpt lat="46.1566" lon="6.66619">
        <ele>1212</ele>
        <time>2022-07-31T12:06:02Z</time>
      </trkpt>
      <trkpt lat="46.15658" lon="6.66617">
        <ele>1212</ele>
        <time>2022-07-31T12:06:03Z</time>
      </trkpt>
      <trkpt lat="46.15657" lon="6.66616">
        <ele>1212</ele>
        <time>2022-07-31T12:06:04Z</time>
      </trkpt>
      <trkpt lat="46.15656" lon="6.66615">
        <ele>1212</ele>
        <time>2022-07-31T12:06:05Z</time>
      </trkpt>
      <trkpt lat="46.15655" lon="6.66614">
        <ele>1212</ele>
        <time>2022-07-31T12:06:06Z</time>
      </trkpt>
      <trkpt lat="46.15654" lon="6.66613">
        <ele>1212</ele>
        <time>2022-07-31T12:06:07Z</time>
      </trkpt>
      <trkpt lat="46.15653" lon="6.66611">
        <ele>1212</ele>
        <time>2022-07-31T12:06:08Z</time>
      </trkpt>
      <trkpt lat="46.15652" lon="6.6661">
        <ele>1212</ele>
        <time>2022-07-31T12:06:09Z</time>
      </trkpt>
      <trkpt lat="46.15651" lon="6.6661">
        <ele>1212</ele>
        <time>2022-07-31T12:06:10Z</time>
      </trkpt>
      <trkpt lat="46.1565" lon="6.6661">
        <ele>1212</ele>
        <time>2022-07-31T12:06:11Z</time>
      </trkpt>
      <trkpt lat="46.15649" lon="6.66609">
        <ele>1212</ele>
        <time>2022-07-31T12:06:12Z</time>
      </trkpt>
      <trkpt lat="46.15649" lon="6.66609">
        <ele>1212</ele>
        <time>2022-07-31T12:06:13Z</time>
      </trkpt>
      <trkpt lat="46.15648" lon="6.66609">
        <ele>1212</ele>
        <time>2022-07-31T12:06:14Z</time>
      </trkpt>
      <trkpt lat="46.15647" lon="6.66608">
        <ele>1212</ele>
        <time>2022-07-31T12:06:15Z</time>
      </trkpt>
      <trkpt lat="46.15646" lon="6.66607">
        <ele>1212</ele>
        <time>2022-07-31T12:06:16Z</time>
      </trkpt>
      <trkpt lat="46.15645" lon="6.66605">
        <ele>1212</ele>
        <time>2022-07-31T12:06:17Z</time>
      </trkpt>
      <trkpt lat="46.15645" lon="6.66605">
        <ele>1211</ele>
        <time>2022-07-31T12:06:18Z</time>
      </trkpt>
      <trkpt lat="46.15644" lon="6.66605">
        <ele>1211</ele>
        <time>2022-07-31T12:06:19Z</time>
      </trkpt>
      <trkpt lat="46.15643" lon="6.66604">
        <ele>1211</ele>
        <time>2022-07-31T12:06:20Z</time>
      </trkpt>
      <trkpt lat="46.15642" lon="6.66602">
        <ele>1211</ele>
        <time>2022-07-31T12:06:21Z</time>
      </trkpt>
      <trkpt lat="46.15641" lon="6.66601">
        <ele>1211</ele>
        <time>2022-07-31T12:06:22Z</time>
      </trkpt>
      <trkpt lat="46.1564" lon="6.666">
        <ele>1211</ele>
        <time>2022-07-31T12:06:23Z</time>
      </trkpt>
      <trkpt lat="46.1564" lon="6.66598">
        <ele>1211</ele>
        <time>2022-07-31T12:06:24Z</time>
      </trkpt>
      <trkpt lat="46.15639" lon="6.66596">
        <ele>1211</ele>
        <time>2022-07-31T12:06:25Z</time>
      </trkpt>
      <trkpt lat="46.15638" lon="6.66595">
        <ele>1211</ele>
        <time>2022-07-31T12:06:26Z</time>
      </trkpt>
      <trkpt lat="46.15636" lon="6.66593">
        <ele>1211</ele>
        <time>2022-07-31T12:06:27Z</time>
      </trkpt>
      <trkpt lat="46.15635" lon="6.66591">
        <ele>1211</ele>
        <time>2022-07-31T12:06:28Z</time>
      </trkpt>
      <trkpt lat="46.15635" lon="6.6659">
        <ele>1211</ele>
        <time>2022-07-31T12:06:29Z</time>
      </trkpt>
      <trkpt lat="46.15633" lon="6.66589">
        <ele>1211</ele>
        <time>2022-07-31T12:06:30Z</time>
      </trkpt>
      <trkpt lat="46.15633" lon="6.66588">
        <ele>1211</ele>
        <time>2022-07-31T12:06:31Z</time>
      </trkpt>
      <trkpt lat="46.15632" lon="6.66586">
        <ele>1211</ele>
        <time>2022-07-31T12:06:32Z</time>
      </trkpt>
      <trkpt lat="46.15631" lon="6.66585">
        <ele>1210</ele>
        <time>2022-07-31T12:06:33Z</time>
      </trkpt>
      <trkpt lat="46.15629" lon="6.66584">
        <ele>1210</ele>
        <time>2022-07-31T12:06:34Z</time>
      </trkpt>
      <trkpt lat="46.15628" lon="6.66582">
        <ele>1210</ele>
        <time>2022-07-31T12:06:35Z</time>
      </trkpt>
      <trkpt lat="46.15628" lon="6.66581">
        <ele>1210</ele>
        <time>2022-07-31T12:06:36Z</time>
      </trkpt>
      <trkpt lat="46.15627" lon="6.6658">
        <ele>1210</ele>
        <time>2022-07-31T12:06:37Z</time>
      </trkpt>
      <trkpt lat="46.15626" lon="6.6658">
        <ele>1210</ele>
        <time>2022-07-31T12:06:38Z</time>
      </trkpt>
      <trkpt lat="46.15625" lon="6.66579">
        <ele>1210</ele>
        <time>2022-07-31T12:06:39Z</time>
      </trkpt>
      <trkpt lat="46.15623" lon="6.66578">
        <ele>1209</ele>
        <time>2022-07-31T12:06:40Z</time>
      </trkpt>
      <trkpt lat="46.15621" lon="6.66577">
        <ele>1209</ele>
        <time>2022-07-31T12:06:41Z</time>
      </trkpt>
      <trkpt lat="46.1562" lon="6.66577">
        <ele>1209</ele>
        <time>2022-07-31T12:06:42Z</time>
      </trkpt>
      <trkpt lat="46.15619" lon="6.66576">
        <ele>1209</ele>
        <time>2022-07-31T12:06:43Z</time>
      </trkpt>
      <trkpt lat="46.15619" lon="6.66576">
        <ele>1209</ele>
        <time>2022-07-31T12:06:44Z</time>
      </trkpt>
      <trkpt lat="46.15618" lon="6.66575">
        <ele>1209</ele>
        <time>2022-07-31T12:06:45Z</time>
      </trkpt>
      <trkpt lat="46.15618" lon="6.66574">
        <ele>1209</ele>
        <time>2022-07-31T12:06:46Z</time>
      </trkpt>
      <trkpt lat="46.15617" lon="6.66573">
        <ele>1208</ele>
        <time>2022-07-31T12:06:47Z</time>
      </trkpt>
      <trkpt lat="46.15616" lon="6.66572">
        <ele>1208</ele>
        <time>2022-07-31T12:06:48Z</time>
      </trkpt>
      <trkpt lat="46.15614" lon="6.66571">
        <ele>1208</ele>
        <time>2022-07-31T12:06:49Z</time>
      </trkpt>
      <trkpt lat="46.15613" lon="6.6657">
        <ele>1208</ele>
        <time>2022-07-31T12:06:50Z</time>
      </trkpt>
      <trkpt lat="46.15612" lon="6.66569">
        <ele>1208</ele>
        <time>2022-07-31T12:06:51Z</time>
      </trkpt>
      <trkpt lat="46.15612" lon="6.66569">
        <ele>1208</ele>
        <time>2022-07-31T12:06:52Z</time>
      </trkpt>
      <trkpt lat="46.15611" lon="6.66568">
        <ele>1208</ele>
        <time>2022-07-31T12:06:53Z</time>
      </trkpt>
      <trkpt lat="46.1561" lon="6.66566">
        <ele>1208</ele>
        <time>2022-07-31T12:06:54Z</time>
      </trkpt>
      <trkpt lat="46.1561" lon="6.66565">
        <ele>1208</ele>
        <time>2022-07-31T12:06:55Z</time>
      </trkpt>
      <trkpt lat="46.15608" lon="6.66564">
        <ele>1208</ele>
        <time>2022-07-31T12:06:56Z</time>
      </trkpt>
      <trkpt lat="46.15607" lon="6.66562">
        <ele>1208</ele>
        <time>2022-07-31T12:06:57Z</time>
      </trkpt>
      <trkpt lat="46.15606" lon="6.66561">
        <ele>1208</ele>
        <time>2022-07-31T12:06:58Z</time>
      </trkpt>
      <trkpt lat="46.15605" lon="6.6656">
        <ele>1208</ele>
        <time>2022-07-31T12:06:59Z</time>
      </trkpt>
      <trkpt lat="46.15604" lon="6.66558">
        <ele>1209</ele>
        <time>2022-07-31T12:07:00Z</time>
      </trkpt>
      <trkpt lat="46.15604" lon="6.66556">
        <ele>1209</ele>
        <time>2022-07-31T12:07:01Z</time>
      </trkpt>
      <trkpt lat="46.15603" lon="6.66555">
        <ele>1209</ele>
        <time>2022-07-31T12:07:02Z</time>
      </trkpt>
      <trkpt lat="46.15602" lon="6.66554">
        <ele>1209</ele>
        <time>2022-07-31T12:07:03Z</time>
      </trkpt>
      <trkpt lat="46.15602" lon="6.66553">
        <ele>1209</ele>
        <time>2022-07-31T12:07:04Z</time>
      </trkpt>
      <trkpt lat="46.15601" lon="6.66552">
        <ele>1209</ele>
        <time>2022-07-31T12:07:05Z</time>
      </trkpt>
      <trkpt lat="46.156" lon="6.66551">
        <ele>1209</ele>
        <time>2022-07-31T12:07:06Z</time>
      </trkpt>
      <trkpt lat="46.15599" lon="6.6655">
        <ele>1208</ele>
        <time>2022-07-31T12:07:07Z</time>
      </trkpt>
      <trkpt lat="46.15598" lon="6.66549">
        <ele>1208</ele>
        <time>2022-07-31T12:07:08Z</time>
      </trkpt>
      <trkpt lat="46.15597" lon="6.66548">
        <ele>1208</ele>
        <time>2022-07-31T12:07:09Z</time>
      </trkpt>
      <trkpt lat="46.15596" lon="6.66547">
        <ele>1208</ele>
        <time>2022-07-31T12:07:10Z</time>
      </trkpt>
      <trkpt lat="46.15596" lon="6.66547">
        <ele>1208</ele>
        <time>2022-07-31T12:07:11Z</time>
      </trkpt>
      <trkpt lat="46.15595" lon="6.66546">
        <ele>1208</ele>
        <time>2022-07-31T12:07:12Z</time>
      </trkpt>
      <trkpt lat="46.15594" lon="6.66545">
        <ele>1208</ele>
        <time>2022-07-31T12:07:13Z</time>
      </trkpt>
      <trkpt lat="46.15593" lon="6.66544">
        <ele>1208</ele>
        <time>2022-07-31T12:07:14Z</time>
      </trkpt>
      <trkpt lat="46.15592" lon="6.66543">
        <ele>1208</ele>
        <time>2022-07-31T12:07:15Z</time>
      </trkpt>
      <trkpt lat="46.15591" lon="6.66543">
        <ele>1208</ele>
        <time>2022-07-31T12:07:16Z</time>
      </trkpt>
      <trkpt lat="46.1559" lon="6.66543">
        <ele>1208</ele>
        <time>2022-07-31T12:07:17Z</time>
      </trkpt>
      <trkpt lat="46.15589" lon="6.66543">
        <ele>1208</ele>
        <time>2022-07-31T12:07:18Z</time>
      </trkpt>
      <trkpt lat="46.15588" lon="6.66542">
        <ele>1208</ele>
        <time>2022-07-31T12:07:19Z</time>
      </trkpt>
      <trkpt lat="46.15587" lon="6.66541">
        <ele>1208</ele>
        <time>2022-07-31T12:07:20Z</time>
      </trkpt>
      <trkpt lat="46.15585" lon="6.66539">
        <ele>1208</ele>
        <time>2022-07-31T12:07:21Z</time>
      </trkpt>
      <trkpt lat="46.15583" lon="6.66538">
        <ele>1209</ele>
        <time>2022-07-31T12:07:22Z</time>
      </trkpt>
      <trkpt lat="46.15582" lon="6.66536">
        <ele>1209</ele>
        <time>2022-07-31T12:07:23Z</time>
      </trkpt>
      <trkpt lat="46.15582" lon="6.66535">
        <ele>1209</ele>
        <time>2022-07-31T12:07:24Z</time>
      </trkpt>
      <trkpt lat="46.15581" lon="6.66534">
        <ele>1209</ele>
        <time>2022-07-31T12:07:25Z</time>
      </trkpt>
      <trkpt lat="46.15581" lon="6.66533">
        <ele>1209</ele>
        <time>2022-07-31T12:07:26Z</time>
      </trkpt>
      <trkpt lat="46.1558" lon="6.66531">
        <ele>1209</ele>
        <time>2022-07-31T12:07:27Z</time>
      </trkpt>
      <trkpt lat="46.15579" lon="6.6653">
        <ele>1209</ele>
        <time>2022-07-31T12:07:28Z</time>
      </trkpt>
      <trkpt lat="46.15578" lon="6.66529">
        <ele>1210</ele>
        <time>2022-07-31T12:07:29Z</time>
      </trkpt>
      <trkpt lat="46.15576" lon="6.66529">
        <ele>1210</ele>
        <time>2022-07-31T12:07:30Z</time>
      </trkpt>
      <trkpt lat="46.15574" lon="6.66529">
        <ele>1210</ele>
        <time>2022-07-31T12:07:31Z</time>
      </trkpt>
      <trkpt lat="46.15573" lon="6.66528">
        <ele>1210</ele>
        <time>2022-07-31T12:07:32Z</time>
      </trkpt>
      <trkpt lat="46.15573" lon="6.66528">
        <ele>1210</ele>
        <time>2022-07-31T12:07:33Z</time>
      </trkpt>
      <trkpt lat="46.15572" lon="6.66527">
        <ele>1210</ele>
        <time>2022-07-31T12:07:34Z</time>
      </trkpt>
      <trkpt lat="46.1557" lon="6.66525">
        <ele>1210</ele>
        <time>2022-07-31T12:07:35Z</time>
      </trkpt>
      <trkpt lat="46.15569" lon="6.66524">
        <ele>1210</ele>
        <time>2022-07-31T12:07:36Z</time>
      </trkpt>
      <trkpt lat="46.15568" lon="6.66522">
        <ele>1210</ele>
        <time>2022-07-31T12:07:37Z</time>
      </trkpt>
      <trkpt lat="46.15566" lon="6.66521">
        <ele>1210</ele>
        <time>2022-07-31T12:07:38Z</time>
      </trkpt>
      <trkpt lat="46.15565" lon="6.6652">
        <ele>1210</ele>
        <time>2022-07-31T12:07:39Z</time>
      </trkpt>
      <trkpt lat="46.15565" lon="6.66519">
        <ele>1210</ele>
        <time>2022-07-31T12:07:40Z</time>
      </trkpt>
      <trkpt lat="46.15564" lon="6.66518">
        <ele>1210</ele>
        <time>2022-07-31T12:07:41Z</time>
      </trkpt>
      <trkpt lat="46.15562" lon="6.66517">
        <ele>1210</ele>
        <time>2022-07-31T12:07:42Z</time>
      </trkpt>
      <trkpt lat="46.15562" lon="6.66517">
        <ele>1210</ele>
        <time>2022-07-31T12:07:43Z</time>
      </trkpt>
      <trkpt lat="46.15562" lon="6.66515">
        <ele>1210</ele>
        <time>2022-07-31T12:07:44Z</time>
      </trkpt>
      <trkpt lat="46.15562" lon="6.66514">
        <ele>1210</ele>
        <time>2022-07-31T12:07:45Z</time>
      </trkpt>
      <trkpt lat="46.15561" lon="6.66513">
        <ele>1210</ele>
        <time>2022-07-31T12:07:46Z</time>
      </trkpt>
      <trkpt lat="46.15561" lon="6.66511">
        <ele>1210</ele>
        <time>2022-07-31T12:07:47Z</time>
      </trkpt>
      <trkpt lat="46.1556" lon="6.6651">
        <ele>1210</ele>
        <time>2022-07-31T12:07:48Z</time>
      </trkpt>
      <trkpt lat="46.1556" lon="6.66509">
        <ele>1210</ele>
        <time>2022-07-31T12:07:49Z</time>
      </trkpt>
      <trkpt lat="46.15558" lon="6.66507">
        <ele>1210</ele>
        <time>2022-07-31T12:07:50Z</time>
      </trkpt>
      <trkpt lat="46.15558" lon="6.66506">
        <ele>1211</ele>
        <time>2022-07-31T12:07:51Z</time>
      </trkpt>
      <trkpt lat="46.15558" lon="6.66505">
        <ele>1211</ele>
        <time>2022-07-31T12:07:52Z</time>
      </trkpt>
      <trkpt lat="46.15558" lon="6.66504">
        <ele>1211</ele>
        <time>2022-07-31T12:07:53Z</time>
      </trkpt>
      <trkpt lat="46.15557" lon="6.66504">
        <ele>1211</ele>
        <time>2022-07-31T12:07:54Z</time>
      </trkpt>
      <trkpt lat="46.15557" lon="6.66504">
        <ele>1211</ele>
        <time>2022-07-31T12:07:55Z</time>
      </trkpt>
      <trkpt lat="46.15555" lon="6.66504">
        <ele>1211</ele>
        <time>2022-07-31T12:07:56Z</time>
      </trkpt>
      <trkpt lat="46.15554" lon="6.66503">
        <ele>1211</ele>
        <time>2022-07-31T12:07:57Z</time>
      </trkpt>
      <trkpt lat="46.15553" lon="6.66502">
        <ele>1211</ele>
        <time>2022-07-31T12:07:58Z</time>
      </trkpt>
      <trkpt lat="46.15551" lon="6.66502">
        <ele>1211</ele>
        <time>2022-07-31T12:07:59Z</time>
      </trkpt>
      <trkpt lat="46.15549" lon="6.66501">
        <ele>1211</ele>
        <time>2022-07-31T12:08:00Z</time>
      </trkpt>
      <trkpt lat="46.15548" lon="6.66501">
        <ele>1211</ele>
        <time>2022-07-31T12:08:01Z</time>
      </trkpt>
      <trkpt lat="46.15547" lon="6.66501">
        <ele>1210</ele>
        <time>2022-07-31T12:08:02Z</time>
      </trkpt>
      <trkpt lat="46.15546" lon="6.66501">
        <ele>1210</ele>
        <time>2022-07-31T12:08:03Z</time>
      </trkpt>
      <trkpt lat="46.15545" lon="6.66502">
        <ele>1210</ele>
        <time>2022-07-31T12:08:04Z</time>
      </trkpt>
      <trkpt lat="46.15544" lon="6.66502">
        <ele>1210</ele>
        <time>2022-07-31T12:08:05Z</time>
      </trkpt>
      <trkpt lat="46.15543" lon="6.66501">
        <ele>1210</ele>
        <time>2022-07-31T12:08:06Z</time>
      </trkpt>
      <trkpt lat="46.15541" lon="6.66501">
        <ele>1210</ele>
        <time>2022-07-31T12:08:07Z</time>
      </trkpt>
      <trkpt lat="46.1554" lon="6.66501">
        <ele>1210</ele>
        <time>2022-07-31T12:08:08Z</time>
      </trkpt>
      <trkpt lat="46.15539" lon="6.66502">
        <ele>1210</ele>
        <time>2022-07-31T12:08:09Z</time>
      </trkpt>
      <trkpt lat="46.15538" lon="6.66502">
        <ele>1210</ele>
        <time>2022-07-31T12:08:10Z</time>
      </trkpt>
      <trkpt lat="46.15537" lon="6.66503">
        <ele>1210</ele>
        <time>2022-07-31T12:08:11Z</time>
      </trkpt>
      <trkpt lat="46.15536" lon="6.66504">
        <ele>1210</ele>
        <time>2022-07-31T12:08:12Z</time>
      </trkpt>
      <trkpt lat="46.15535" lon="6.66505">
        <ele>1210</ele>
        <time>2022-07-31T12:08:13Z</time>
      </trkpt>
      <trkpt lat="46.15534" lon="6.66505">
        <ele>1210</ele>
        <time>2022-07-31T12:08:14Z</time>
      </trkpt>
      <trkpt lat="46.15533" lon="6.66506">
        <ele>1210</ele>
        <time>2022-07-31T12:08:15Z</time>
      </trkpt>
      <trkpt lat="46.15531" lon="6.66507">
        <ele>1210</ele>
        <time>2022-07-31T12:08:16Z</time>
      </trkpt>
      <trkpt lat="46.1553" lon="6.66508">
        <ele>1210</ele>
        <time>2022-07-31T12:08:17Z</time>
      </trkpt>
      <trkpt lat="46.15529" lon="6.66508">
        <ele>1210</ele>
        <time>2022-07-31T12:08:18Z</time>
      </trkpt>
      <trkpt lat="46.15528" lon="6.66508">
        <ele>1210</ele>
        <time>2022-07-31T12:08:19Z</time>
      </trkpt>
      <trkpt lat="46.15526" lon="6.66508">
        <ele>1210</ele>
        <time>2022-07-31T12:08:20Z</time>
      </trkpt>
      <trkpt lat="46.15525" lon="6.66508">
        <ele>1210</ele>
        <time>2022-07-31T12:08:21Z</time>
      </trkpt>
      <trkpt lat="46.15524" lon="6.66508">
        <ele>1210</ele>
        <time>2022-07-31T12:08:22Z</time>
      </trkpt>
      <trkpt lat="46.15523" lon="6.66508">
        <ele>1210</ele>
        <time>2022-07-31T12:08:23Z</time>
      </trkpt>
      <trkpt lat="46.15522" lon="6.66509">
        <ele>1210</ele>
        <time>2022-07-31T12:08:24Z</time>
      </trkpt>
      <trkpt lat="46.15521" lon="6.6651">
        <ele>1211</ele>
        <time>2022-07-31T12:08:25Z</time>
      </trkpt>
      <trkpt lat="46.1552" lon="6.6651">
        <ele>1211</ele>
        <time>2022-07-31T12:08:26Z</time>
      </trkpt>
      <trkpt lat="46.15518" lon="6.66511">
        <ele>1211</ele>
        <time>2022-07-31T12:08:27Z</time>
      </trkpt>
      <trkpt lat="46.15516" lon="6.66512">
        <ele>1211</ele>
        <time>2022-07-31T12:08:28Z</time>
      </trkpt>
      <trkpt lat="46.15516" lon="6.66512">
        <ele>1211</ele>
        <time>2022-07-31T12:08:29Z</time>
      </trkpt>
      <trkpt lat="46.15515" lon="6.66512">
        <ele>1211</ele>
        <time>2022-07-31T12:08:30Z</time>
      </trkpt>
      <trkpt lat="46.15513" lon="6.66512">
        <ele>1212</ele>
        <time>2022-07-31T12:08:31Z</time>
      </trkpt>
      <trkpt lat="46.15512" lon="6.66513">
        <ele>1212</ele>
        <time>2022-07-31T12:08:32Z</time>
      </trkpt>
      <trkpt lat="46.15511" lon="6.66513">
        <ele>1212</ele>
        <time>2022-07-31T12:08:33Z</time>
      </trkpt>
      <trkpt lat="46.15509" lon="6.66514">
        <ele>1212</ele>
        <time>2022-07-31T12:08:34Z</time>
      </trkpt>
      <trkpt lat="46.15509" lon="6.66515">
        <ele>1213</ele>
        <time>2022-07-31T12:08:35Z</time>
      </trkpt>
      <trkpt lat="46.15507" lon="6.66516">
        <ele>1213</ele>
        <time>2022-07-31T12:08:36Z</time>
      </trkpt>
      <trkpt lat="46.15506" lon="6.66516">
        <ele>1213</ele>
        <time>2022-07-31T12:08:37Z</time>
      </trkpt>
      <trkpt lat="46.15504" lon="6.66516">
        <ele>1213</ele>
        <time>2022-07-31T12:08:38Z</time>
      </trkpt>
      <trkpt lat="46.15503" lon="6.66517">
        <ele>1213</ele>
        <time>2022-07-31T12:08:39Z</time>
      </trkpt>
      <trkpt lat="46.15502" lon="6.66518">
        <ele>1214</ele>
        <time>2022-07-31T12:08:40Z</time>
      </trkpt>
      <trkpt lat="46.15501" lon="6.66518">
        <ele>1214</ele>
        <time>2022-07-31T12:08:41Z</time>
      </trkpt>
      <trkpt lat="46.155" lon="6.66518">
        <ele>1214</ele>
        <time>2022-07-31T12:08:42Z</time>
      </trkpt>
      <trkpt lat="46.155" lon="6.66518">
        <ele>1214</ele>
        <time>2022-07-31T12:08:43Z</time>
      </trkpt>
      <trkpt lat="46.15499" lon="6.66519">
        <ele>1214</ele>
        <time>2022-07-31T12:08:44Z</time>
      </trkpt>
      <trkpt lat="46.15497" lon="6.6652">
        <ele>1214</ele>
        <time>2022-07-31T12:08:45Z</time>
      </trkpt>
      <trkpt lat="46.15496" lon="6.66521">
        <ele>1214</ele>
        <time>2022-07-31T12:08:46Z</time>
      </trkpt>
      <trkpt lat="46.15496" lon="6.66522">
        <ele>1214</ele>
        <time>2022-07-31T12:08:47Z</time>
      </trkpt>
      <trkpt lat="46.15495" lon="6.66522">
        <ele>1214</ele>
        <time>2022-07-31T12:08:48Z</time>
      </trkpt>
      <trkpt lat="46.15495" lon="6.66521">
        <ele>1214</ele>
        <time>2022-07-31T12:08:49Z</time>
      </trkpt>
      <trkpt lat="46.15494" lon="6.66521">
        <ele>1214</ele>
        <time>2022-07-31T12:08:50Z</time>
      </trkpt>
      <trkpt lat="46.15493" lon="6.6652">
        <ele>1214</ele>
        <time>2022-07-31T12:08:51Z</time>
      </trkpt>
      <trkpt lat="46.15492" lon="6.66519">
        <ele>1214</ele>
        <time>2022-07-31T12:08:52Z</time>
      </trkpt>
      <trkpt lat="46.15492" lon="6.66518">
        <ele>1214</ele>
        <time>2022-07-31T12:08:53Z</time>
      </trkpt>
      <trkpt lat="46.15491" lon="6.66517">
        <ele>1214</ele>
        <time>2022-07-31T12:08:54Z</time>
      </trkpt>
      <trkpt lat="46.15489" lon="6.66517">
        <ele>1214</ele>
        <time>2022-07-31T12:08:55Z</time>
      </trkpt>
      <trkpt lat="46.15489" lon="6.66516">
        <ele>1213</ele>
        <time>2022-07-31T12:08:56Z</time>
      </trkpt>
      <trkpt lat="46.15489" lon="6.66515">
        <ele>1213</ele>
        <time>2022-07-31T12:08:57Z</time>
      </trkpt>
      <trkpt lat="46.15488" lon="6.66514">
        <ele>1213</ele>
        <time>2022-07-31T12:08:58Z</time>
      </trkpt>
      <trkpt lat="46.15487" lon="6.66513">
        <ele>1213</ele>
        <time>2022-07-31T12:08:59Z</time>
      </trkpt>
      <trkpt lat="46.15487" lon="6.66511">
        <ele>1213</ele>
        <time>2022-07-31T12:09:00Z</time>
      </trkpt>
      <trkpt lat="46.15486" lon="6.6651">
        <ele>1213</ele>
        <time>2022-07-31T12:09:01Z</time>
      </trkpt>
      <trkpt lat="46.15485" lon="6.66508">
        <ele>1213</ele>
        <time>2022-07-31T12:09:02Z</time>
      </trkpt>
      <trkpt lat="46.15484" lon="6.66505">
        <ele>1213</ele>
        <time>2022-07-31T12:09:03Z</time>
      </trkpt>
      <trkpt lat="46.15484" lon="6.66502">
        <ele>1213</ele>
        <time>2022-07-31T12:09:04Z</time>
      </trkpt>
      <trkpt lat="46.15484" lon="6.665">
        <ele>1214</ele>
        <time>2022-07-31T12:09:05Z</time>
      </trkpt>
      <trkpt lat="46.15483" lon="6.66498">
        <ele>1214</ele>
        <time>2022-07-31T12:09:06Z</time>
      </trkpt>
      <trkpt lat="46.15483" lon="6.66496">
        <ele>1214</ele>
        <time>2022-07-31T12:09:07Z</time>
      </trkpt>
      <trkpt lat="46.15483" lon="6.66493">
        <ele>1214</ele>
        <time>2022-07-31T12:09:08Z</time>
      </trkpt>
      <trkpt lat="46.15483" lon="6.66491">
        <ele>1214</ele>
        <time>2022-07-31T12:09:09Z</time>
      </trkpt>
      <trkpt lat="46.15482" lon="6.66489">
        <ele>1214</ele>
        <time>2022-07-31T12:09:10Z</time>
      </trkpt>
      <trkpt lat="46.15481" lon="6.66487">
        <ele>1214</ele>
        <time>2022-07-31T12:09:11Z</time>
      </trkpt>
      <trkpt lat="46.1548" lon="6.66486">
        <ele>1214</ele>
        <time>2022-07-31T12:09:12Z</time>
      </trkpt>
      <trkpt lat="46.15479" lon="6.66484">
        <ele>1214</ele>
        <time>2022-07-31T12:09:13Z</time>
      </trkpt>
      <trkpt lat="46.15478" lon="6.66482">
        <ele>1214</ele>
        <time>2022-07-31T12:09:14Z</time>
      </trkpt>
      <trkpt lat="46.15478" lon="6.6648">
        <ele>1214</ele>
        <time>2022-07-31T12:09:15Z</time>
      </trkpt>
      <trkpt lat="46.15477" lon="6.66479">
        <ele>1214</ele>
        <time>2022-07-31T12:09:16Z</time>
      </trkpt>
      <trkpt lat="46.15477" lon="6.66478">
        <ele>1214</ele>
        <time>2022-07-31T12:09:17Z</time>
      </trkpt>
      <trkpt lat="46.15477" lon="6.66477">
        <ele>1214</ele>
        <time>2022-07-31T12:09:18Z</time>
      </trkpt>
      <trkpt lat="46.15478" lon="6.66476">
        <ele>1214</ele>
        <time>2022-07-31T12:09:19Z</time>
      </trkpt>
      <trkpt lat="46.15478" lon="6.66475">
        <ele>1214</ele>
        <time>2022-07-31T12:09:20Z</time>
      </trkpt>
      <trkpt lat="46.15477" lon="6.66474">
        <ele>1213</ele>
        <time>2022-07-31T12:09:21Z</time>
      </trkpt>
      <trkpt lat="46.15476" lon="6.66472">
        <ele>1213</ele>
        <time>2022-07-31T12:09:22Z</time>
      </trkpt>
      <trkpt lat="46.15475" lon="6.66471">
        <ele>1213</ele>
        <time>2022-07-31T12:09:23Z</time>
      </trkpt>
      <trkpt lat="46.15474" lon="6.6647">
        <ele>1213</ele>
        <time>2022-07-31T12:09:24Z</time>
      </trkpt>
      <trkpt lat="46.15473" lon="6.66469">
        <ele>1213</ele>
        <time>2022-07-31T12:09:25Z</time>
      </trkpt>
      <trkpt lat="46.15472" lon="6.66467">
        <ele>1213</ele>
        <time>2022-07-31T12:09:26Z</time>
      </trkpt>
      <trkpt lat="46.15472" lon="6.66466">
        <ele>1213</ele>
        <time>2022-07-31T12:09:27Z</time>
      </trkpt>
      <trkpt lat="46.15472" lon="6.66465">
        <ele>1213</ele>
        <time>2022-07-31T12:09:28Z</time>
      </trkpt>
      <trkpt lat="46.15472" lon="6.66464">
        <ele>1213</ele>
        <time>2022-07-31T12:09:29Z</time>
      </trkpt>
      <trkpt lat="46.15473" lon="6.66462">
        <ele>1213</ele>
        <time>2022-07-31T12:09:30Z</time>
      </trkpt>
      <trkpt lat="46.15473" lon="6.66461">
        <ele>1213</ele>
        <time>2022-07-31T12:09:31Z</time>
      </trkpt>
      <trkpt lat="46.15473" lon="6.66459">
        <ele>1213</ele>
        <time>2022-07-31T12:09:32Z</time>
      </trkpt>
      <trkpt lat="46.15473" lon="6.66458">
        <ele>1213</ele>
        <time>2022-07-31T12:09:33Z</time>
      </trkpt>
      <trkpt lat="46.15472" lon="6.66457">
        <ele>1213</ele>
        <time>2022-07-31T12:09:34Z</time>
      </trkpt>
      <trkpt lat="46.15472" lon="6.66455">
        <ele>1213</ele>
        <time>2022-07-31T12:09:35Z</time>
      </trkpt>
      <trkpt lat="46.15471" lon="6.66454">
        <ele>1213</ele>
        <time>2022-07-31T12:09:36Z</time>
      </trkpt>
      <trkpt lat="46.15471" lon="6.66453">
        <ele>1213</ele>
        <time>2022-07-31T12:09:37Z</time>
      </trkpt>
      <trkpt lat="46.1547" lon="6.66451">
        <ele>1213</ele>
        <time>2022-07-31T12:09:38Z</time>
      </trkpt>
      <trkpt lat="46.1547" lon="6.66448">
        <ele>1213</ele>
        <time>2022-07-31T12:09:39Z</time>
      </trkpt>
      <trkpt lat="46.15469" lon="6.66447">
        <ele>1213</ele>
        <time>2022-07-31T12:09:40Z</time>
      </trkpt>
      <trkpt lat="46.15468" lon="6.66445">
        <ele>1212</ele>
        <time>2022-07-31T12:09:41Z</time>
      </trkpt>
      <trkpt lat="46.15467" lon="6.66444">
        <ele>1212</ele>
        <time>2022-07-31T12:09:42Z</time>
      </trkpt>
      <trkpt lat="46.15466" lon="6.66442">
        <ele>1212</ele>
        <time>2022-07-31T12:09:43Z</time>
      </trkpt>
      <trkpt lat="46.15464" lon="6.6644">
        <ele>1212</ele>
        <time>2022-07-31T12:09:44Z</time>
      </trkpt>
      <trkpt lat="46.15463" lon="6.66439">
        <ele>1212</ele>
        <time>2022-07-31T12:09:45Z</time>
      </trkpt>
      <trkpt lat="46.15462" lon="6.66437">
        <ele>1212</ele>
        <time>2022-07-31T12:09:46Z</time>
      </trkpt>
      <trkpt lat="46.15462" lon="6.66435">
        <ele>1211</ele>
        <time>2022-07-31T12:09:47Z</time>
      </trkpt>
      <trkpt lat="46.15462" lon="6.66434">
        <ele>1211</ele>
        <time>2022-07-31T12:09:48Z</time>
      </trkpt>
      <trkpt lat="46.15462" lon="6.66432">
        <ele>1211</ele>
        <time>2022-07-31T12:09:49Z</time>
      </trkpt>
      <trkpt lat="46.15462" lon="6.66431">
        <ele>1211</ele>
        <time>2022-07-31T12:09:50Z</time>
      </trkpt>
      <trkpt lat="46.15461" lon="6.6643">
        <ele>1211</ele>
        <time>2022-07-31T12:09:51Z</time>
      </trkpt>
      <trkpt lat="46.15459" lon="6.6643">
        <ele>1210</ele>
        <time>2022-07-31T12:09:52Z</time>
      </trkpt>
      <trkpt lat="46.15458" lon="6.6643">
        <ele>1210</ele>
        <time>2022-07-31T12:09:53Z</time>
      </trkpt>
      <trkpt lat="46.15457" lon="6.6643">
        <ele>1210</ele>
        <time>2022-07-31T12:09:54Z</time>
      </trkpt>
      <trkpt lat="46.15455" lon="6.66429">
        <ele>1210</ele>
        <time>2022-07-31T12:09:55Z</time>
      </trkpt>
      <trkpt lat="46.15455" lon="6.66428">
        <ele>1210</ele>
        <time>2022-07-31T12:09:56Z</time>
      </trkpt>
      <trkpt lat="46.15454" lon="6.66427">
        <ele>1210</ele>
        <time>2022-07-31T12:09:57Z</time>
      </trkpt>
      <trkpt lat="46.15452" lon="6.66426">
        <ele>1210</ele>
        <time>2022-07-31T12:09:58Z</time>
      </trkpt>
      <trkpt lat="46.1545" lon="6.66425">
        <ele>1210</ele>
        <time>2022-07-31T12:09:59Z</time>
      </trkpt>
      <trkpt lat="46.1545" lon="6.66423">
        <ele>1210</ele>
        <time>2022-07-31T12:10:00Z</time>
      </trkpt>
      <trkpt lat="46.15449" lon="6.66422">
        <ele>1210</ele>
        <time>2022-07-31T12:10:01Z</time>
      </trkpt>
      <trkpt lat="46.15448" lon="6.6642">
        <ele>1211</ele>
        <time>2022-07-31T12:10:02Z</time>
      </trkpt>
      <trkpt lat="46.15446" lon="6.66418">
        <ele>1211</ele>
        <time>2022-07-31T12:10:03Z</time>
      </trkpt>
      <trkpt lat="46.15445" lon="6.66418">
        <ele>1211</ele>
        <time>2022-07-31T12:10:04Z</time>
      </trkpt>
      <trkpt lat="46.15444" lon="6.66417">
        <ele>1211</ele>
        <time>2022-07-31T12:10:05Z</time>
      </trkpt>
      <trkpt lat="46.15443" lon="6.66416">
        <ele>1211</ele>
        <time>2022-07-31T12:10:06Z</time>
      </trkpt>
      <trkpt lat="46.15442" lon="6.66414">
        <ele>1212</ele>
        <time>2022-07-31T12:10:07Z</time>
      </trkpt>
      <trkpt lat="46.15442" lon="6.66412">
        <ele>1212</ele>
        <time>2022-07-31T12:10:08Z</time>
      </trkpt>
      <trkpt lat="46.15441" lon="6.66411">
        <ele>1212</ele>
        <time>2022-07-31T12:10:09Z</time>
      </trkpt>
      <trkpt lat="46.1544" lon="6.66409">
        <ele>1212</ele>
        <time>2022-07-31T12:10:10Z</time>
      </trkpt>
      <trkpt lat="46.1544" lon="6.66408">
        <ele>1212</ele>
        <time>2022-07-31T12:10:11Z</time>
      </trkpt>
      <trkpt lat="46.1544" lon="6.66407">
        <ele>1212</ele>
        <time>2022-07-31T12:10:12Z</time>
      </trkpt>
      <trkpt lat="46.1544" lon="6.66405">
        <ele>1212</ele>
        <time>2022-07-31T12:10:13Z</time>
      </trkpt>
      <trkpt lat="46.15439" lon="6.66404">
        <ele>1212</ele>
        <time>2022-07-31T12:10:14Z</time>
      </trkpt>
      <trkpt lat="46.15438" lon="6.66403">
        <ele>1212</ele>
        <time>2022-07-31T12:10:15Z</time>
      </trkpt>
      <trkpt lat="46.15437" lon="6.66403">
        <ele>1212</ele>
        <time>2022-07-31T12:10:16Z</time>
      </trkpt>
      <trkpt lat="46.15437" lon="6.66402">
        <ele>1212</ele>
        <time>2022-07-31T12:10:17Z</time>
      </trkpt>
      <trkpt lat="46.15436" lon="6.66399">
        <ele>1212</ele>
        <time>2022-07-31T12:10:18Z</time>
      </trkpt>
      <trkpt lat="46.15436" lon="6.66398">
        <ele>1212</ele>
        <time>2022-07-31T12:10:19Z</time>
      </trkpt>
      <trkpt lat="46.15436" lon="6.66397">
        <ele>1212</ele>
        <time>2022-07-31T12:10:20Z</time>
      </trkpt>
      <trkpt lat="46.15436" lon="6.66395">
        <ele>1212</ele>
        <time>2022-07-31T12:10:21Z</time>
      </trkpt>
      <trkpt lat="46.15437" lon="6.66394">
        <ele>1212</ele>
        <time>2022-07-31T12:10:22Z</time>
      </trkpt>
      <trkpt lat="46.15437" lon="6.66394">
        <ele>1212</ele>
        <time>2022-07-31T12:10:23Z</time>
      </trkpt>
      <trkpt lat="46.15437" lon="6.66393">
        <ele>1212</ele>
        <time>2022-07-31T12:10:24Z</time>
      </trkpt>
      <trkpt lat="46.15437" lon="6.66391">
        <ele>1212</ele>
        <time>2022-07-31T12:10:25Z</time>
      </trkpt>
      <trkpt lat="46.15438" lon="6.66391">
        <ele>1212</ele>
        <time>2022-07-31T12:10:26Z</time>
      </trkpt>
      <trkpt lat="46.15439" lon="6.66391">
        <ele>1212</ele>
        <time>2022-07-31T12:10:27Z</time>
      </trkpt>
      <trkpt lat="46.1544" lon="6.6639">
        <ele>1212</ele>
        <time>2022-07-31T12:10:28Z</time>
      </trkpt>
      <trkpt lat="46.15441" lon="6.66389">
        <ele>1213</ele>
        <time>2022-07-31T12:10:29Z</time>
      </trkpt>
      <trkpt lat="46.15441" lon="6.66388">
        <ele>1213</ele>
        <time>2022-07-31T12:10:30Z</time>
      </trkpt>
      <trkpt lat="46.15442" lon="6.66386">
        <ele>1213</ele>
        <time>2022-07-31T12:10:31Z</time>
      </trkpt>
      <trkpt lat="46.15442" lon="6.66386">
        <ele>1213</ele>
        <time>2022-07-31T12:10:32Z</time>
      </trkpt>
      <trkpt lat="46.15442" lon="6.66385">
        <ele>1213</ele>
        <time>2022-07-31T12:10:33Z</time>
      </trkpt>
      <trkpt lat="46.15443" lon="6.66384">
        <ele>1213</ele>
        <time>2022-07-31T12:10:34Z</time>
      </trkpt>
      <trkpt lat="46.15443" lon="6.66382">
        <ele>1213</ele>
        <time>2022-07-31T12:10:35Z</time>
      </trkpt>
      <trkpt lat="46.15443" lon="6.66382">
        <ele>1213</ele>
        <time>2022-07-31T12:10:36Z</time>
      </trkpt>
      <trkpt lat="46.15444" lon="6.66381">
        <ele>1213</ele>
        <time>2022-07-31T12:10:37Z</time>
      </trkpt>
      <trkpt lat="46.15445" lon="6.66381">
        <ele>1213</ele>
        <time>2022-07-31T12:10:38Z</time>
      </trkpt>
      <trkpt lat="46.15446" lon="6.66382">
        <ele>1213</ele>
        <time>2022-07-31T12:10:39Z</time>
      </trkpt>
      <trkpt lat="46.15447" lon="6.66382">
        <ele>1213</ele>
        <time>2022-07-31T12:10:40Z</time>
      </trkpt>
      <trkpt lat="46.15447" lon="6.66381">
        <ele>1213</ele>
        <time>2022-07-31T12:10:41Z</time>
      </trkpt>
      <trkpt lat="46.15448" lon="6.66381">
        <ele>1214</ele>
        <time>2022-07-31T12:10:42Z</time>
      </trkpt>
      <trkpt lat="46.15449" lon="6.66381">
        <ele>1214</ele>
        <time>2022-07-31T12:10:43Z</time>
      </trkpt>
      <trkpt lat="46.15449" lon="6.6638">
        <ele>1214</ele>
        <time>2022-07-31T12:10:44Z</time>
      </trkpt>
      <trkpt lat="46.1545" lon="6.6638">
        <ele>1214</ele>
        <time>2022-07-31T12:10:45Z</time>
      </trkpt>
      <trkpt lat="46.15452" lon="6.66379">
        <ele>1214</ele>
        <time>2022-07-31T12:10:46Z</time>
      </trkpt>
      <trkpt lat="46.15454" lon="6.66378">
        <ele>1214</ele>
        <time>2022-07-31T12:10:47Z</time>
      </trkpt>
      <trkpt lat="46.15456" lon="6.66377">
        <ele>1214</ele>
        <time>2022-07-31T12:10:48Z</time>
      </trkpt>
      <trkpt lat="46.15457" lon="6.66376">
        <ele>1214</ele>
        <time>2022-07-31T12:10:49Z</time>
      </trkpt>
      <trkpt lat="46.15457" lon="6.66375">
        <ele>1214</ele>
        <time>2022-07-31T12:10:50Z</time>
      </trkpt>
      <trkpt lat="46.15457" lon="6.66374">
        <ele>1214</ele>
        <time>2022-07-31T12:10:51Z</time>
      </trkpt>
      <trkpt lat="46.15458" lon="6.66373">
        <ele>1214</ele>
        <time>2022-07-31T12:10:52Z</time>
      </trkpt>
      <trkpt lat="46.15458" lon="6.66371">
        <ele>1214</ele>
        <time>2022-07-31T12:10:53Z</time>
      </trkpt>
      <trkpt lat="46.15458" lon="6.66369">
        <ele>1214</ele>
        <time>2022-07-31T12:10:54Z</time>
      </trkpt>
      <trkpt lat="46.15458" lon="6.66367">
        <ele>1214</ele>
        <time>2022-07-31T12:10:55Z</time>
      </trkpt>
      <trkpt lat="46.15458" lon="6.66364">
        <ele>1214</ele>
        <time>2022-07-31T12:10:56Z</time>
      </trkpt>
      <trkpt lat="46.15457" lon="6.66364">
        <ele>1214</ele>
        <time>2022-07-31T12:10:57Z</time>
      </trkpt>
      <trkpt lat="46.15457" lon="6.66362">
        <ele>1214</ele>
        <time>2022-07-31T12:10:58Z</time>
      </trkpt>
      <trkpt lat="46.15457" lon="6.66361">
        <ele>1214</ele>
        <time>2022-07-31T12:10:59Z</time>
      </trkpt>
      <trkpt lat="46.15457" lon="6.66359">
        <ele>1214</ele>
        <time>2022-07-31T12:11:00Z</time>
      </trkpt>
      <trkpt lat="46.15457" lon="6.66357">
        <ele>1214</ele>
        <time>2022-07-31T12:11:01Z</time>
      </trkpt>
      <trkpt lat="46.15456" lon="6.66355">
        <ele>1214</ele>
        <time>2022-07-31T12:11:02Z</time>
      </trkpt>
      <trkpt lat="46.15456" lon="6.66353">
        <ele>1214</ele>
        <time>2022-07-31T12:11:03Z</time>
      </trkpt>
      <trkpt lat="46.15455" lon="6.6635">
        <ele>1214</ele>
        <time>2022-07-31T12:11:04Z</time>
      </trkpt>
      <trkpt lat="46.15455" lon="6.66348">
        <ele>1213</ele>
        <time>2022-07-31T12:11:05Z</time>
      </trkpt>
      <trkpt lat="46.15454" lon="6.66346">
        <ele>1213</ele>
        <time>2022-07-31T12:11:06Z</time>
      </trkpt>
      <trkpt lat="46.15452" lon="6.66344">
        <ele>1213</ele>
        <time>2022-07-31T12:11:07Z</time>
      </trkpt>
      <trkpt lat="46.15451" lon="6.66342">
        <ele>1213</ele>
        <time>2022-07-31T12:11:08Z</time>
      </trkpt>
      <trkpt lat="46.1545" lon="6.6634">
        <ele>1212</ele>
        <time>2022-07-31T12:11:09Z</time>
      </trkpt>
      <trkpt lat="46.15449" lon="6.66338">
        <ele>1212</ele>
        <time>2022-07-31T12:11:10Z</time>
      </trkpt>
      <trkpt lat="46.15448" lon="6.66335">
        <ele>1212</ele>
        <time>2022-07-31T12:11:11Z</time>
      </trkpt>
      <trkpt lat="46.15447" lon="6.66334">
        <ele>1211</ele>
        <time>2022-07-31T12:11:12Z</time>
      </trkpt>
      <trkpt lat="46.15446" lon="6.66333">
        <ele>1211</ele>
        <time>2022-07-31T12:11:13Z</time>
      </trkpt>
      <trkpt lat="46.15445" lon="6.66334">
        <ele>1211</ele>
        <time>2022-07-31T12:11:14Z</time>
      </trkpt>
      <trkpt lat="46.15444" lon="6.66335">
        <ele>1211</ele>
        <time>2022-07-31T12:11:15Z</time>
      </trkpt>
      <trkpt lat="46.15442" lon="6.66336">
        <ele>1211</ele>
        <time>2022-07-31T12:11:16Z</time>
      </trkpt>
      <trkpt lat="46.15441" lon="6.66336">
        <ele>1211</ele>
        <time>2022-07-31T12:11:17Z</time>
      </trkpt>
      <trkpt lat="46.1544" lon="6.66336">
        <ele>1211</ele>
        <time>2022-07-31T12:11:18Z</time>
      </trkpt>
      <trkpt lat="46.15439" lon="6.66336">
        <ele>1211</ele>
        <time>2022-07-31T12:11:19Z</time>
      </trkpt>
      <trkpt lat="46.15437" lon="6.66336">
        <ele>1211</ele>
        <time>2022-07-31T12:11:20Z</time>
      </trkpt>
      <trkpt lat="46.15436" lon="6.66336">
        <ele>1211</ele>
        <time>2022-07-31T12:11:21Z</time>
      </trkpt>
      <trkpt lat="46.15435" lon="6.66337">
        <ele>1211</ele>
        <time>2022-07-31T12:11:22Z</time>
      </trkpt>
      <trkpt lat="46.15434" lon="6.66338">
        <ele>1211</ele>
        <time>2022-07-31T12:11:23Z</time>
      </trkpt>
      <trkpt lat="46.15433" lon="6.66338">
        <ele>1211</ele>
        <time>2022-07-31T12:11:24Z</time>
      </trkpt>
      <trkpt lat="46.15432" lon="6.66338">
        <ele>1211</ele>
        <time>2022-07-31T12:11:25Z</time>
      </trkpt>
      <trkpt lat="46.15432" lon="6.66337">
        <ele>1211</ele>
        <time>2022-07-31T12:11:26Z</time>
      </trkpt>
      <trkpt lat="46.15432" lon="6.66336">
        <ele>1211</ele>
        <time>2022-07-31T12:11:27Z</time>
      </trkpt>
      <trkpt lat="46.15432" lon="6.66334">
        <ele>1210</ele>
        <time>2022-07-31T12:11:28Z</time>
      </trkpt>
      <trkpt lat="46.15432" lon="6.66334">
        <ele>1210</ele>
        <time>2022-07-31T12:11:29Z</time>
      </trkpt>
      <trkpt lat="46.15432" lon="6.66333">
        <ele>1210</ele>
        <time>2022-07-31T12:11:30Z</time>
      </trkpt>
      <trkpt lat="46.15433" lon="6.66333">
        <ele>1210</ele>
        <time>2022-07-31T12:11:31Z</time>
      </trkpt>
    </trkseg>
  </trk>
</gpx>